<?xml version='1.0' encoding='UTF-8'?><gpx version="1.1" creator="JPX - https://github.com/jenetics/jpx" xmlns="http://www.topografix.com/GPX/1/1"><trk><trkseg><trkpt lat="45.41735382168975" lon="11.584800957722742"><ele>15.0</ele><time>2026-04-12T06:51:52Z</time></trkpt><trkpt lat="45.41726029866951" lon="11.584775254142075"><ele>15.0</ele><time>2026-04-12T06:51:54Z</time></trkpt><trkpt lat="45.41720344471757" lon="11.584674987338115"><ele>15.0</ele><time>2026-04-12T06:51:56Z</time></trkpt><trkpt lat="45.417119448794324" lon="11.584590681841487"><ele>15.0</ele><time>2026-04-12T06:51:58Z</time></trkpt><trkpt lat="45.41706465486745" lon="11.584465772754111"><ele>15.0</ele><time>2026-04-12T06:52:00Z</time></trkpt><trkpt lat="45.41703818532868" lon="11.584287679279067"><ele>15.166666666666666</ele><time>2026-04-12T06:52:02Z</time></trkpt><trkpt lat="45.417023216202104" lon="11.584186455973766"><ele>15.333333333333332</ele><time>2026-04-12T06:52:03Z</time></trkpt><trkpt lat="45.41701365594442" lon="11.584076433423473"><ele>15.5</ele><time>2026-04-12T06:52:04Z</time></trkpt><trkpt lat="45.4170124900224" lon="11.583960915495423"><ele>15.666666666666666</ele><time>2026-04-12T06:52:05Z</time></trkpt><trkpt lat="45.41701575495839" lon="11.583856558564973"><ele>15.833333333333332</ele><time>2026-04-12T06:52:06Z</time></trkpt><trkpt lat="45.4170281588566" lon="11.583750553987544"><ele>16.0</ele><time>2026-04-12T06:52:07Z</time></trkpt><trkpt lat="45.41705287289605" lon="11.583630683179411"><ele>16.2</ele><time>2026-04-12T06:52:08Z</time></trkpt><trkpt lat="45.41707245972274" lon="11.583519054277719"><ele>16.400000000000002</ele><time>2026-04-12T06:52:09Z</time></trkpt><trkpt lat="45.41707311763367" lon="11.583399892789467"><ele>16.6</ele><time>2026-04-12T06:52:10Z</time></trkpt><trkpt lat="45.41704846371727" lon="11.583281374533621"><ele>16.8</ele><time>2026-04-12T06:52:11Z</time></trkpt><trkpt lat="45.41698738262109" lon="11.583183569081395"><ele>17.0</ele><time>2026-04-12T06:52:12Z</time></trkpt><trkpt lat="45.41688697011855" lon="11.583126367361825"><ele>17.0</ele><time>2026-04-12T06:52:13Z</time></trkpt><trkpt lat="45.41677977064568" lon="11.583099866833033"><ele>17.0</ele><time>2026-04-12T06:52:14Z</time></trkpt><trkpt lat="45.41667744120413" lon="11.58308288051979"><ele>17.0</ele><time>2026-04-12T06:52:15Z</time></trkpt><trkpt lat="45.41657577710852" lon="11.583054983990396"><ele>17.0</ele><time>2026-04-12T06:52:16Z</time></trkpt><trkpt lat="45.41648515204292" lon="11.582997553657139"><ele>17.0</ele><time>2026-04-12T06:52:17Z</time></trkpt><trkpt lat="45.416411896085464" lon="11.582916062256816"><ele>17.4</ele><time>2026-04-12T06:52:18Z</time></trkpt><trkpt lat="45.41636250131316" lon="11.582806887821622"><ele>17.799999999999997</ele><time>2026-04-12T06:52:19Z</time></trkpt><trkpt lat="45.41634470752159" lon="11.582674991330146"><ele>18.2</ele><time>2026-04-12T06:52:20Z</time></trkpt><trkpt lat="45.416366964833756" lon="11.582533755502471"><ele>18.599999999999998</ele><time>2026-04-12T06:52:21Z</time></trkpt><trkpt lat="45.41640747771904" lon="11.582391706105762"><ele>19.0</ele><time>2026-04-12T06:52:22Z</time></trkpt><trkpt lat="45.416454339656354" lon="11.582246772989675"><ele>19.0</ele><time>2026-04-12T06:52:23Z</time></trkpt><trkpt lat="45.41649906114739" lon="11.582123125398475"><ele>19.0</ele><time>2026-04-12T06:52:24Z</time></trkpt><trkpt lat="45.416533695471976" lon="11.582013657472332"><ele>19.0</ele><time>2026-04-12T06:52:25Z</time></trkpt><trkpt lat="45.41656457476138" lon="11.581920229801959"><ele>19.0</ele><time>2026-04-12T06:52:26Z</time></trkpt><trkpt lat="45.4165908968902" lon="11.581830218339187"><ele>19.0</ele><time>2026-04-12T06:52:27Z</time></trkpt><trkpt lat="45.41661439400794" lon="11.581743192103211"><ele>19.0</ele><time>2026-04-12T06:52:28Z</time></trkpt><trkpt lat="45.41664158037152" lon="11.581633710345324"><ele>19.2</ele><time>2026-04-12T06:52:29Z</time></trkpt><trkpt lat="45.41667684050994" lon="11.581495246009435"><ele>19.4</ele><time>2026-04-12T06:52:30Z</time></trkpt><trkpt lat="45.41671434897171" lon="11.5813442819769"><ele>19.6</ele><time>2026-04-12T06:52:31Z</time></trkpt><trkpt lat="45.416753704002836" lon="11.581191597862974"><ele>19.8</ele><time>2026-04-12T06:52:32Z</time></trkpt><trkpt lat="45.416793419010325" lon="11.581040710669365"><ele>20.0</ele><time>2026-04-12T06:52:33Z</time></trkpt><trkpt lat="45.41682649515237" lon="11.580898365351405"><ele>19.6</ele><time>2026-04-12T06:52:34Z</time></trkpt><trkpt lat="45.41685810367988" lon="11.580753986519522"><ele>19.2</ele><time>2026-04-12T06:52:35Z</time></trkpt><trkpt lat="45.41689450182988" lon="11.580603400511071"><ele>18.8</ele><time>2026-04-12T06:52:36Z</time></trkpt><trkpt lat="45.41693425265689" lon="11.580453768287192"><ele>18.4</ele><time>2026-04-12T06:52:37Z</time></trkpt><trkpt lat="45.41697626361674" lon="11.580298004442822"><ele>18.0</ele><time>2026-04-12T06:52:38Z</time></trkpt><trkpt lat="45.417023811045894" lon="11.580129758688827"><ele>18.0</ele><time>2026-04-12T06:52:39Z</time></trkpt><trkpt lat="45.41707535933953" lon="11.579931327432323"><ele>18.0</ele><time>2026-04-12T06:52:40Z</time></trkpt><trkpt lat="45.417131241634934" lon="11.57973198750609"><ele>18.0</ele><time>2026-04-12T06:52:41Z</time></trkpt><trkpt lat="45.417176212441326" lon="11.579567444359105"><ele>18.0</ele><time>2026-04-12T06:52:42Z</time></trkpt><trkpt lat="45.41720960160328" lon="11.579412983451196"><ele>18.2</ele><time>2026-04-12T06:52:43Z</time></trkpt><trkpt lat="45.41723101755795" lon="11.57926185918946"><ele>18.4</ele><time>2026-04-12T06:52:44Z</time></trkpt><trkpt lat="45.417241955066096" lon="11.579107958577003"><ele>18.599999999999998</ele><time>2026-04-12T06:52:45Z</time></trkpt><trkpt lat="45.41725448613223" lon="11.578955636570363"><ele>18.8</ele><time>2026-04-12T06:52:46Z</time></trkpt><trkpt lat="45.41728247717251" lon="11.578810529824576"><ele>19.0</ele><time>2026-04-12T06:52:47Z</time></trkpt><trkpt lat="45.41732786385249" lon="11.578676844690408"><ele>19.0</ele><time>2026-04-12T06:52:48Z</time></trkpt><trkpt lat="45.41738394644351" lon="11.57854990485105"><ele>19.0</ele><time>2026-04-12T06:52:49Z</time></trkpt><trkpt lat="45.4174282281315" lon="11.578418935702379"><ele>19.0</ele><time>2026-04-12T06:52:50Z</time></trkpt><trkpt lat="45.417466462331866" lon="11.578279914626325"><ele>19.0</ele><time>2026-04-12T06:52:51Z</time></trkpt><trkpt lat="45.417509942807314" lon="11.578141507740078"><ele>19.0</ele><time>2026-04-12T06:52:52Z</time></trkpt><trkpt lat="45.41755546365168" lon="11.578013199692828"><ele>19.0</ele><time>2026-04-12T06:52:53Z</time></trkpt><trkpt lat="45.417593903681606" lon="11.577885352337024"><ele>19.0</ele><time>2026-04-12T06:52:54Z</time></trkpt><trkpt lat="45.41764861010952" lon="11.577770364350108"><ele>19.0</ele><time>2026-04-12T06:52:55Z</time></trkpt><trkpt lat="45.41769097541126" lon="11.57766666971471"><ele>19.0</ele><time>2026-04-12T06:52:56Z</time></trkpt><trkpt lat="45.4177249903488" lon="11.577574663425107"><ele>19.0</ele><time>2026-04-12T06:52:57Z</time></trkpt><trkpt lat="45.41778449847907" lon="11.5775213155531"><ele>19.0</ele><time>2026-04-12T06:52:58Z</time></trkpt><trkpt lat="45.417875631071226" lon="11.577580232020134"><ele>19.2</ele><time>2026-04-12T06:53:00Z</time></trkpt><trkpt lat="45.41795076601413" lon="11.577611508010719"><ele>19.4</ele><time>2026-04-12T06:53:01Z</time></trkpt><trkpt lat="45.418022677084416" lon="11.577639894568536"><ele>19.6</ele><time>2026-04-12T06:53:02Z</time></trkpt><trkpt lat="45.41811591803149" lon="11.577660152974303"><ele>19.8</ele><time>2026-04-12T06:53:03Z</time></trkpt><trkpt lat="45.41821482201083" lon="11.577653614199049"><ele>20.0</ele><time>2026-04-12T06:53:04Z</time></trkpt><trkpt lat="45.41831909946125" lon="11.577633350539832"><ele>20.6</ele><time>2026-04-12T06:53:05Z</time></trkpt><trkpt lat="45.418411538670505" lon="11.577613755844979"><ele>21.2</ele><time>2026-04-12T06:53:06Z</time></trkpt><trkpt lat="45.418504067598164" lon="11.577582484813776"><ele>21.799999999999997</ele><time>2026-04-12T06:53:07Z</time></trkpt><trkpt lat="45.41860224850608" lon="11.577536473646624"><ele>22.4</ele><time>2026-04-12T06:53:08Z</time></trkpt><trkpt lat="45.41869970747141" lon="11.577479852428604"><ele>23.0</ele><time>2026-04-12T06:53:09Z</time></trkpt><trkpt lat="45.41878594633224" lon="11.577412827070221"><ele>23.4</ele><time>2026-04-12T06:53:10Z</time></trkpt><trkpt lat="45.41887578024959" lon="11.57733200774498"><ele>23.799999999999997</ele><time>2026-04-12T06:53:11Z</time></trkpt><trkpt lat="45.41897481034681" lon="11.577240476610337"><ele>24.2</ele><time>2026-04-12T06:53:12Z</time></trkpt><trkpt lat="45.419066346834455" lon="11.57715402392789"><ele>24.6</ele><time>2026-04-12T06:53:13Z</time></trkpt><trkpt lat="45.419146432433266" lon="11.577082004006318"><ele>25.0</ele><time>2026-04-12T06:53:14Z</time></trkpt><trkpt lat="45.41922577691493" lon="11.577013893464771"><ele>26.75</ele><time>2026-04-12T06:53:15Z</time></trkpt><trkpt lat="45.41931900636053" lon="11.576949324208941"><ele>28.5</ele><time>2026-04-12T06:53:16Z</time></trkpt><trkpt lat="45.41941987034786" lon="11.57688308914109"><ele>30.25</ele><time>2026-04-12T06:53:17Z</time></trkpt><trkpt lat="45.41952735406537" lon="11.576815122963012"><ele>32.0</ele><time>2026-04-12T06:53:18Z</time></trkpt><trkpt lat="45.419643409666556" lon="11.576758973381583"><ele>31.200000000000003</ele><time>2026-04-12T06:53:19Z</time></trkpt><trkpt lat="45.419757743370894" lon="11.576712597866637"><ele>30.400000000000002</ele><time>2026-04-12T06:53:20Z</time></trkpt><trkpt lat="45.419865349752605" lon="11.576688435371853"><ele>29.599999999999998</ele><time>2026-04-12T06:53:21Z</time></trkpt><trkpt lat="45.41995943454707" lon="11.576673313030742"><ele>28.799999999999997</ele><time>2026-04-12T06:53:22Z</time></trkpt><trkpt lat="45.42005295020128" lon="11.5766516902916"><ele>28.0</ele><time>2026-04-12T06:53:23Z</time></trkpt><trkpt lat="45.4201528774574" lon="11.57661475387326"><ele>28.0</ele><time>2026-04-12T06:53:24Z</time></trkpt><trkpt lat="45.4202547507598" lon="11.576564650484345"><ele>27.999999999999996</ele><time>2026-04-12T06:53:25Z</time></trkpt><trkpt lat="45.420354085724924" lon="11.576505515379536"><ele>27.999999999999996</ele><time>2026-04-12T06:53:26Z</time></trkpt><trkpt lat="45.42044251095251" lon="11.576450642631768"><ele>28.0</ele><time>2026-04-12T06:53:27Z</time></trkpt><trkpt lat="45.42052095154781" lon="11.576401371965979"><ele>28.0</ele><time>2026-04-12T06:53:28Z</time></trkpt><trkpt lat="45.42059113317674" lon="11.576354211930706"><ele>28.599999999999998</ele><time>2026-04-12T06:53:29Z</time></trkpt><trkpt lat="45.420665218834365" lon="11.576284411478802"><ele>29.199999999999996</ele><time>2026-04-12T06:53:30Z</time></trkpt><trkpt lat="45.4207460577935" lon="11.576206110942392"><ele>29.8</ele><time>2026-04-12T06:53:31Z</time></trkpt><trkpt lat="45.420825747678364" lon="11.576104715600755"><ele>30.4</ele><time>2026-04-12T06:53:32Z</time></trkpt><trkpt lat="45.42089679903473" lon="11.575991108236636"><ele>31.0</ele><time>2026-04-12T06:53:33Z</time></trkpt><trkpt lat="45.420968750165784" lon="11.575892435861006"><ele>31.0</ele><time>2026-04-12T06:53:34Z</time></trkpt><trkpt lat="45.421040320966995" lon="11.575794560508392"><ele>31.0</ele><time>2026-04-12T06:53:35Z</time></trkpt><trkpt lat="45.42110573963142" lon="11.575687655646906"><ele>31.0</ele><time>2026-04-12T06:53:36Z</time></trkpt><trkpt lat="45.42117703858691" lon="11.575588380665284"><ele>31.0</ele><time>2026-04-12T06:53:37Z</time></trkpt><trkpt lat="45.42126096760067" lon="11.575487337596222"><ele>31.0</ele><time>2026-04-12T06:53:38Z</time></trkpt><trkpt lat="45.42136742215855" lon="11.57538827081937"><ele>32.5</ele><time>2026-04-12T06:53:39Z</time></trkpt><trkpt lat="45.42148544269636" lon="11.57529973512372"><ele>34.0</ele><time>2026-04-12T06:53:40Z</time></trkpt><trkpt lat="45.42159852236379" lon="11.575270865013001"><ele>35.5</ele><time>2026-04-12T06:53:41Z</time></trkpt><trkpt lat="45.42171818539113" lon="11.57528268715406"><ele>37.0</ele><time>2026-04-12T06:53:42Z</time></trkpt><trkpt lat="45.42185469843742" lon="11.575322426145659"><ele>34.0</ele><time>2026-04-12T06:53:43Z</time></trkpt><trkpt lat="45.4219976485447" lon="11.57537678799433"><ele>31.0</ele><time>2026-04-12T06:53:44Z</time></trkpt><trkpt lat="45.422122164249195" lon="11.575417199765488"><ele>28.0</ele><time>2026-04-12T06:53:45Z</time></trkpt><trkpt lat="45.42224786688585" lon="11.575448413797043"><ele>25.0</ele><time>2026-04-12T06:53:46Z</time></trkpt><trkpt lat="45.42237506522196" lon="11.575485727511149"><ele>24.75</ele><time>2026-04-12T06:53:47Z</time></trkpt><trkpt lat="45.42250736414904" lon="11.575525984936107"><ele>24.5</ele><time>2026-04-12T06:53:48Z</time></trkpt><trkpt lat="45.4226377751065" lon="11.575566375181268"><ele>24.25</ele><time>2026-04-12T06:53:49Z</time></trkpt><trkpt lat="45.42275090872929" lon="11.57561000530332"><ele>24.0</ele><time>2026-04-12T06:53:50Z</time></trkpt><trkpt lat="45.422857103288905" lon="11.575656459753361"><ele>24.0</ele><time>2026-04-12T06:53:51Z</time></trkpt><trkpt lat="45.422957611346796" lon="11.575709011444713"><ele>24.0</ele><time>2026-04-12T06:53:52Z</time></trkpt><trkpt lat="45.42307142752829" lon="11.575752430044172"><ele>24.0</ele><time>2026-04-12T06:53:53Z</time></trkpt><trkpt lat="45.42318799717312" lon="11.575778916105019"><ele>24.0</ele><time>2026-04-12T06:53:54Z</time></trkpt><trkpt lat="45.42329931019208" lon="11.575792561029198"><ele>23.6</ele><time>2026-04-12T06:53:55Z</time></trkpt><trkpt lat="45.42340684447759" lon="11.575798741776522"><ele>23.2</ele><time>2026-04-12T06:53:56Z</time></trkpt><trkpt lat="45.423513218570434" lon="11.575801411038633"><ele>22.8</ele><time>2026-04-12T06:53:57Z</time></trkpt><trkpt lat="45.42361041015781" lon="11.575799704112486"><ele>22.400000000000002</ele><time>2026-04-12T06:53:58Z</time></trkpt><trkpt lat="45.42370214460017" lon="11.575794214010823"><ele>22.0</ele><time>2026-04-12T06:53:59Z</time></trkpt><trkpt lat="45.42378431609376" lon="11.57579043910857"><ele>22.166666666666664</ele><time>2026-04-12T06:54:00Z</time></trkpt><trkpt lat="45.42386423554244" lon="11.575798079665075"><ele>22.333333333333332</ele><time>2026-04-12T06:54:01Z</time></trkpt><trkpt lat="45.42394576716151" lon="11.57579744918563"><ele>22.5</ele><time>2026-04-12T06:54:02Z</time></trkpt><trkpt lat="45.42402945469888" lon="11.57579371103312"><ele>22.666666666666668</ele><time>2026-04-12T06:54:03Z</time></trkpt><trkpt lat="45.424116251339576" lon="11.575782591715976"><ele>22.833333333333336</ele><time>2026-04-12T06:54:04Z</time></trkpt><trkpt lat="45.42419107043113" lon="11.57575359350333"><ele>23.0</ele><time>2026-04-12T06:54:05Z</time></trkpt><trkpt lat="45.42427307488279" lon="11.5756996518853"><ele>23.0</ele><time>2026-04-12T06:54:06Z</time></trkpt><trkpt lat="45.424362009308645" lon="11.575633267967447"><ele>23.0</ele><time>2026-04-12T06:54:07Z</time></trkpt><trkpt lat="45.42445353039992" lon="11.575563448591494"><ele>23.0</ele><time>2026-04-12T06:54:08Z</time></trkpt><trkpt lat="45.42454808209369" lon="11.575512111889802"><ele>23.0</ele><time>2026-04-12T06:54:09Z</time></trkpt><trkpt lat="45.42464495213903" lon="11.575473104918988"><ele>23.0</ele><time>2026-04-12T06:54:10Z</time></trkpt><trkpt lat="45.42474320090338" lon="11.575439857966584"><ele>22.599999999999998</ele><time>2026-04-12T06:54:11Z</time></trkpt><trkpt lat="45.42484452913526" lon="11.57543688912065"><ele>22.2</ele><time>2026-04-12T06:54:12Z</time></trkpt><trkpt lat="45.42493917985604" lon="11.575420611490463"><ele>21.8</ele><time>2026-04-12T06:54:13Z</time></trkpt><trkpt lat="45.4250331946005" lon="11.575411398527635"><ele>21.4</ele><time>2026-04-12T06:54:14Z</time></trkpt><trkpt lat="45.42511868793654" lon="11.57542929956423"><ele>21.0</ele><time>2026-04-12T06:54:15Z</time></trkpt><trkpt lat="45.425200920794104" lon="11.575475918131515"><ele>21.0</ele><time>2026-04-12T06:54:16Z</time></trkpt><trkpt lat="45.42527821989459" lon="11.575541813687176"><ele>21.0</ele><time>2026-04-12T06:54:17Z</time></trkpt><trkpt lat="45.425353565701954" lon="11.575624102308305"><ele>21.0</ele><time>2026-04-12T06:54:18Z</time></trkpt><trkpt lat="45.42542500519456" lon="11.575715234362605"><ele>21.0</ele><time>2026-04-12T06:54:19Z</time></trkpt><trkpt lat="45.425502242056176" lon="11.5757773048179"><ele>21.0</ele><time>2026-04-12T06:54:20Z</time></trkpt><trkpt lat="45.42556198727585" lon="11.57584556202425"><ele>21.0</ele><time>2026-04-12T06:54:21Z</time></trkpt><trkpt lat="45.425618595880835" lon="11.575892197916126"><ele>21.5</ele><time>2026-04-12T06:54:22Z</time></trkpt><trkpt lat="45.42572024894275" lon="11.57597009316649"><ele>22.0</ele><time>2026-04-12T06:54:24Z</time></trkpt><trkpt lat="45.42577848873063" lon="11.5759154082019"><ele>22.5</ele><time>2026-04-12T06:54:25Z</time></trkpt><trkpt lat="45.4258242538708" lon="11.575845770341274"><ele>23.0</ele><time>2026-04-12T06:54:26Z</time></trkpt><trkpt lat="45.42584229683904" lon="11.575753515565083"><ele>23.5</ele><time>2026-04-12T06:54:27Z</time></trkpt><trkpt lat="45.425889097167925" lon="11.575646109087998"><ele>24.0</ele><time>2026-04-12T06:54:28Z</time></trkpt><trkpt lat="45.425923118699984" lon="11.575524739548358"><ele>24.0</ele><time>2026-04-12T06:54:29Z</time></trkpt><trkpt lat="45.42596935227224" lon="11.575419077137008"><ele>24.0</ele><time>2026-04-12T06:54:30Z</time></trkpt><trkpt lat="45.426021860609715" lon="11.57527958724097"><ele>24.0</ele><time>2026-04-12T06:54:31Z</time></trkpt><trkpt lat="45.42606809243826" lon="11.575143274798743"><ele>24.0</ele><time>2026-04-12T06:54:32Z</time></trkpt><trkpt lat="45.42611561052248" lon="11.575009493023119"><ele>24.0</ele><time>2026-04-12T06:54:33Z</time></trkpt><trkpt lat="45.42617434472761" lon="11.574862048206695"><ele>24.333333333333336</ele><time>2026-04-12T06:54:34Z</time></trkpt><trkpt lat="45.426239880281265" lon="11.574692110363284"><ele>24.666666666666668</ele><time>2026-04-12T06:54:35Z</time></trkpt><trkpt lat="45.42630449845654" lon="11.574499388596022"><ele>25.0</ele><time>2026-04-12T06:54:36Z</time></trkpt><trkpt lat="45.42636998809898" lon="11.574279368415967"><ele>25.0</ele><time>2026-04-12T06:54:37Z</time></trkpt><trkpt lat="45.42641721999617" lon="11.574056680583135"><ele>25.0</ele><time>2026-04-12T06:54:38Z</time></trkpt><trkpt lat="45.426453074064" lon="11.573845679950137"><ele>25.0</ele><time>2026-04-12T06:54:39Z</time></trkpt><trkpt lat="45.42649061921966" lon="11.57361147763735"><ele>24.5</ele><time>2026-04-12T06:54:40Z</time></trkpt><trkpt lat="45.426541605584866" lon="11.573405433218191"><ele>24.0</ele><time>2026-04-12T06:54:41Z</time></trkpt><trkpt lat="45.42659820167249" lon="11.573219775189992"><ele>23.5</ele><time>2026-04-12T06:54:42Z</time></trkpt><trkpt lat="45.42664907810205" lon="11.573045300085514"><ele>23.0</ele><time>2026-04-12T06:54:43Z</time></trkpt><trkpt lat="45.42669349422451" lon="11.572875969983675"><ele>24.799999999999997</ele><time>2026-04-12T06:54:44Z</time></trkpt><trkpt lat="45.426744070924826" lon="11.572717727400745"><ele>26.6</ele><time>2026-04-12T06:54:45Z</time></trkpt><trkpt lat="45.426810180482846" lon="11.572586569510587"><ele>28.400000000000002</ele><time>2026-04-12T06:54:46Z</time></trkpt><trkpt lat="45.42689300134483" lon="11.572495977596638"><ele>30.200000000000003</ele><time>2026-04-12T06:54:47Z</time></trkpt><trkpt lat="45.42698349528485" lon="11.572449786868487"><ele>32.0</ele><time>2026-04-12T06:54:48Z</time></trkpt><trkpt lat="45.42707335625622" lon="11.572418657090354"><ele>32.2</ele><time>2026-04-12T06:54:49Z</time></trkpt><trkpt lat="45.42715954562787" lon="11.572412448256866"><ele>32.400000000000006</ele><time>2026-04-12T06:54:50Z</time></trkpt><trkpt lat="45.42722986902978" lon="11.5724165093218"><ele>32.599999999999994</ele><time>2026-04-12T06:54:51Z</time></trkpt><trkpt lat="45.427294372157874" lon="11.572439811215348"><ele>32.8</ele><time>2026-04-12T06:54:52Z</time></trkpt><trkpt lat="45.427382632915325" lon="11.572444758312846"><ele>33.0</ele><time>2026-04-12T06:54:54Z</time></trkpt><trkpt lat="45.427548039680694" lon="11.571967789907761"><ele>33.0</ele><time>2026-04-12T06:54:56Z</time></trkpt><trkpt lat="45.42764253355681" lon="11.571806758691114"><ele>33.0</ele><time>2026-04-12T06:54:57Z</time></trkpt><trkpt lat="45.42769444918402" lon="11.571703495715509"><ele>33.0</ele><time>2026-04-12T06:54:58Z</time></trkpt><trkpt lat="45.42772534060768" lon="11.571605341526771"><ele>33.0</ele><time>2026-04-12T06:55:00Z</time></trkpt><trkpt lat="45.42765635532359" lon="11.571534351026148"><ele>33.0</ele><time>2026-04-12T06:55:03Z</time></trkpt><trkpt lat="45.42758694200511" lon="11.571447514585685"><ele>33.0</ele><time>2026-04-12T06:55:05Z</time></trkpt><trkpt lat="45.42756934461957" lon="11.57131883210811"><ele>33.0</ele><time>2026-04-12T06:55:07Z</time></trkpt><trkpt lat="45.427592125913314" lon="11.57122297604122"><ele>33.0</ele><time>2026-04-12T06:55:08Z</time></trkpt><trkpt lat="45.42765204153058" lon="11.571108441244332"><ele>33.0</ele><time>2026-04-12T06:55:09Z</time></trkpt><trkpt lat="45.427707156430316" lon="11.570996742098039"><ele>33.0</ele><time>2026-04-12T06:55:10Z</time></trkpt><trkpt lat="45.42777423840174" lon="11.570876187402634"><ele>33.14285714285714</ele><time>2026-04-12T06:55:11Z</time></trkpt><trkpt lat="45.42783324837823" lon="11.57077384787781"><ele>33.285714285714285</ele><time>2026-04-12T06:55:12Z</time></trkpt><trkpt lat="45.427878739756885" lon="11.570700212914332"><ele>33.42857142857143</ele><time>2026-04-12T06:55:13Z</time></trkpt><trkpt lat="45.427919888395145" lon="11.570627733216131"><ele>33.57142857142857</ele><time>2026-04-12T06:55:14Z</time></trkpt><trkpt lat="45.42795983114378" lon="11.570540968128391"><ele>33.714285714285715</ele><time>2026-04-12T06:55:15Z</time></trkpt><trkpt lat="45.427997145862264" lon="11.570465553894511"><ele>33.857142857142854</ele><time>2026-04-12T06:55:16Z</time></trkpt><trkpt lat="45.42803323692562" lon="11.570388910619801"><ele>34.0</ele><time>2026-04-12T06:55:17Z</time></trkpt><trkpt lat="45.42807047179764" lon="11.570306327203836"><ele>37.6</ele><time>2026-04-12T06:55:18Z</time></trkpt><trkpt lat="45.42811258629855" lon="11.5701960020893"><ele>41.2</ele><time>2026-04-12T06:55:19Z</time></trkpt><trkpt lat="45.42816660592785" lon="11.570092511067408"><ele>44.800000000000004</ele><time>2026-04-12T06:55:20Z</time></trkpt><trkpt lat="45.42820732588099" lon="11.570011485670708"><ele>48.4</ele><time>2026-04-12T06:55:21Z</time></trkpt><trkpt lat="45.428248605915485" lon="11.569863688089992"><ele>52.0</ele><time>2026-04-12T06:55:23Z</time></trkpt><trkpt lat="45.42824598890218" lon="11.569723232119406"><ele>51.99999999999999</ele><time>2026-04-12T06:55:25Z</time></trkpt><trkpt lat="45.42819562393864" lon="11.569649268936098"><ele>52.0</ele><time>2026-04-12T06:55:27Z</time></trkpt><trkpt lat="45.42808942196174" lon="11.56963684269093"><ele>52.0</ele><time>2026-04-12T06:55:29Z</time></trkpt><trkpt lat="45.42802655701327" lon="11.56961877934842"><ele>52.0</ele><time>2026-04-12T06:55:30Z</time></trkpt><trkpt lat="45.427931647651185" lon="11.56972662468965"><ele>51.99999999999999</ele><time>2026-04-12T06:55:32Z</time></trkpt><trkpt lat="45.42787022955231" lon="11.569787284378743"><ele>52.0</ele><time>2026-04-12T06:55:35Z</time></trkpt><trkpt lat="45.42776754854622" lon="11.569846068296181"><ele>56.2</ele><time>2026-04-12T06:55:38Z</time></trkpt><trkpt lat="45.427669956466296" lon="11.569877767725856"><ele>60.400000000000006</ele><time>2026-04-12T06:55:40Z</time></trkpt><trkpt lat="45.42760617292149" lon="11.569862905705"><ele>64.6</ele><time>2026-04-12T06:55:41Z</time></trkpt><trkpt lat="45.4275062949949" lon="11.569829679879232"><ele>68.8</ele><time>2026-04-12T06:55:43Z</time></trkpt><trkpt lat="45.42741720875848" lon="11.569736865534198"><ele>73.0</ele><time>2026-04-12T06:55:45Z</time></trkpt><trkpt lat="45.427342636088824" lon="11.569626011492042"><ele>74.8</ele><time>2026-04-12T06:55:47Z</time></trkpt><trkpt lat="45.42730291615383" lon="11.56949663551674"><ele>76.6</ele><time>2026-04-12T06:55:49Z</time></trkpt><trkpt lat="45.42728052000121" lon="11.569406852431214"><ele>78.39999999999999</ele><time>2026-04-12T06:55:50Z</time></trkpt><trkpt lat="45.427296970735036" lon="11.569209091914484"><ele>80.19999999999999</ele><time>2026-04-12T06:55:52Z</time></trkpt><trkpt lat="45.427295547708155" lon="11.56909163942569"><ele>82.0</ele><time>2026-04-12T06:55:53Z</time></trkpt><trkpt lat="45.4272876397435" lon="11.568921986126897"><ele>82.0</ele><time>2026-04-12T06:55:55Z</time></trkpt><trkpt lat="45.427312517052776" lon="11.568832011719069"><ele>82.0</ele><time>2026-04-12T06:55:56Z</time></trkpt><trkpt lat="45.42733385268632" lon="11.568732205683302"><ele>82.0</ele><time>2026-04-12T06:55:57Z</time></trkpt><trkpt lat="45.427368960310154" lon="11.56865480960367"><ele>82.0</ele><time>2026-04-12T06:55:58Z</time></trkpt><trkpt lat="45.4273923271456" lon="11.568545219124541"><ele>82.0</ele><time>2026-04-12T06:55:59Z</time></trkpt><trkpt lat="45.42742553726599" lon="11.568437145349803"><ele>82.0</ele><time>2026-04-12T06:56:00Z</time></trkpt><trkpt lat="45.427452019301484" lon="11.568328005777841"><ele>82.33333333333333</ele><time>2026-04-12T06:56:01Z</time></trkpt><trkpt lat="45.427467540493986" lon="11.568225544394538"><ele>82.66666666666666</ele><time>2026-04-12T06:56:02Z</time></trkpt><trkpt lat="45.42749726014459" lon="11.568144581415511"><ele>83.0</ele><time>2026-04-12T06:56:03Z</time></trkpt><trkpt lat="45.4275388285697" lon="11.568067070279357"><ele>83.33333333333333</ele><time>2026-04-12T06:56:04Z</time></trkpt><trkpt lat="45.427510927561215" lon="11.567939590153616"><ele>83.66666666666667</ele><time>2026-04-12T06:56:06Z</time></trkpt><trkpt lat="45.42741483471918" lon="11.567824934721015"><ele>84.0</ele><time>2026-04-12T06:56:08Z</time></trkpt><trkpt lat="45.42733152981456" lon="11.567716709611284"><ele>84.83333333333333</ele><time>2026-04-12T06:56:10Z</time></trkpt><trkpt lat="45.42732883225246" lon="11.567609764847992"><ele>85.66666666666667</ele><time>2026-04-12T06:56:13Z</time></trkpt><trkpt lat="45.42732028199125" lon="11.567456684601769"><ele>86.5</ele><time>2026-04-12T06:56:15Z</time></trkpt><trkpt lat="45.4273176561474" lon="11.567306223404817"><ele>87.33333333333334</ele><time>2026-04-12T06:56:17Z</time></trkpt><trkpt lat="45.42728568664647" lon="11.567202704896111"><ele>88.16666666666667</ele><time>2026-04-12T06:56:19Z</time></trkpt><trkpt lat="45.42729779017438" lon="11.567104728430198"><ele>89.0</ele><time>2026-04-12T06:56:25Z</time></trkpt><trkpt lat="45.42738392581744" lon="11.567077277165835"><ele>89.0</ele><time>2026-04-12T06:56:28Z</time></trkpt><trkpt lat="45.427541345634566" lon="11.56711217968107"><ele>89.0</ele><time>2026-04-12T06:56:35Z</time></trkpt><trkpt lat="45.42772283302432" lon="11.566995132675645"><ele>89.0</ele><time>2026-04-12T06:56:39Z</time></trkpt><trkpt lat="45.42786572536565" lon="11.566952647337935"><ele>88.83333333333334</ele><time>2026-04-12T06:56:41Z</time></trkpt><trkpt lat="45.427939511534824" lon="11.566919798701894"><ele>88.66666666666667</ele><time>2026-04-12T06:56:42Z</time></trkpt><trkpt lat="45.42801185208361" lon="11.566880942400605"><ele>88.5</ele><time>2026-04-12T06:56:43Z</time></trkpt><trkpt lat="45.4280910251021" lon="11.566825052446815"><ele>88.33333333333333</ele><time>2026-04-12T06:56:44Z</time></trkpt><trkpt lat="45.42817636034499" lon="11.566762450731613"><ele>88.16666666666666</ele><time>2026-04-12T06:56:45Z</time></trkpt><trkpt lat="45.42825525383839" lon="11.566692855601195"><ele>88.0</ele><time>2026-04-12T06:56:46Z</time></trkpt><trkpt lat="45.42832156074193" lon="11.56664589518808"><ele>88.0</ele><time>2026-04-12T06:56:47Z</time></trkpt><trkpt lat="45.42839874196505" lon="11.56659880826724"><ele>88.0</ele><time>2026-04-12T06:56:48Z</time></trkpt><trkpt lat="45.42847342765705" lon="11.566552046431257"><ele>88.0</ele><time>2026-04-12T06:56:49Z</time></trkpt><trkpt lat="45.42854865369136" lon="11.566453021776963"><ele>88.0</ele><time>2026-04-12T06:56:50Z</time></trkpt><trkpt lat="45.42864985770111" lon="11.566388790004208"><ele>88.0</ele><time>2026-04-12T06:56:51Z</time></trkpt><trkpt lat="45.42876364567745" lon="11.566310966150798"><ele>86.5</ele><time>2026-04-12T06:56:52Z</time></trkpt><trkpt lat="45.42885945889502" lon="11.566233185066206"><ele>85.0</ele><time>2026-04-12T06:56:53Z</time></trkpt><trkpt lat="45.42895450451425" lon="11.566138665063823"><ele>83.5</ele><time>2026-04-12T06:56:54Z</time></trkpt><trkpt lat="45.429074369437274" lon="11.566018851375546"><ele>82.0</ele><time>2026-04-12T06:56:55Z</time></trkpt><trkpt lat="45.42918677598982" lon="11.565923569786717"><ele>82.0</ele><time>2026-04-12T06:56:56Z</time></trkpt><trkpt lat="45.42929327618005" lon="11.565846828354148"><ele>82.0</ele><time>2026-04-12T06:56:57Z</time></trkpt><trkpt lat="45.42939700358875" lon="11.565763713890558"><ele>82.0</ele><time>2026-04-12T06:56:58Z</time></trkpt><trkpt lat="45.429493961774156" lon="11.565682410979178"><ele>82.0</ele><time>2026-04-12T06:56:59Z</time></trkpt><trkpt lat="45.42959898019542" lon="11.565612355739564"><ele>78.0</ele><time>2026-04-12T06:57:00Z</time></trkpt><trkpt lat="45.42971667651035" lon="11.565552556311472"><ele>74.0</ele><time>2026-04-12T06:57:01Z</time></trkpt><trkpt lat="45.42984677013411" lon="11.565494645804089"><ele>70.0</ele><time>2026-04-12T06:57:02Z</time></trkpt><trkpt lat="45.42996764642285" lon="11.565442844003286"><ele>66.0</ele><time>2026-04-12T06:57:03Z</time></trkpt><trkpt lat="45.43007794582538" lon="11.565415297371178"><ele>66.0</ele><time>2026-04-12T06:57:04Z</time></trkpt><trkpt lat="45.430187516770445" lon="11.565391720534741"><ele>66.0</ele><time>2026-04-12T06:57:05Z</time></trkpt><trkpt lat="45.430299752451404" lon="11.5654092241864"><ele>66.0</ele><time>2026-04-12T06:57:06Z</time></trkpt><trkpt lat="45.43041203153885" lon="11.565419981205205"><ele>66.0</ele><time>2026-04-12T06:57:07Z</time></trkpt><trkpt lat="45.43050519321619" lon="11.56540210134704"><ele>66.0</ele><time>2026-04-12T06:57:08Z</time></trkpt><trkpt lat="45.43057587233588" lon="11.565372960777626"><ele>67.33333333333333</ele><time>2026-04-12T06:57:09Z</time></trkpt><trkpt lat="45.430630376020886" lon="11.565303176495153"><ele>68.66666666666667</ele><time>2026-04-12T06:57:10Z</time></trkpt><trkpt lat="45.43068058055651" lon="11.565204862965693"><ele>70.0</ele><time>2026-04-12T06:57:11Z</time></trkpt><trkpt lat="45.43073322576491" lon="11.565125960578479"><ele>71.33333333333334</ele><time>2026-04-12T06:57:12Z</time></trkpt><trkpt lat="45.43075679910076" lon="11.565040124131611"><ele>72.66666666666667</ele><time>2026-04-12T06:57:14Z</time></trkpt><trkpt lat="45.43079455180193" lon="11.564900499702281"><ele>74.0</ele><time>2026-04-12T06:57:16Z</time></trkpt><trkpt lat="45.43082878810476" lon="11.564724607137364"><ele>74.0</ele><time>2026-04-12T06:57:18Z</time></trkpt><trkpt lat="45.430828716235716" lon="11.564625333638048"><ele>74.0</ele><time>2026-04-12T06:57:19Z</time></trkpt><trkpt lat="45.43084291354771" lon="11.564537895521523"><ele>74.0</ele><time>2026-04-12T06:57:20Z</time></trkpt><trkpt lat="45.430889240053425" lon="11.564421042006655"><ele>74.0</ele><time>2026-04-12T06:57:22Z</time></trkpt><trkpt lat="45.43094567723697" lon="11.564348902928677"><ele>74.0</ele><time>2026-04-12T06:57:23Z</time></trkpt><trkpt lat="45.430997481834765" lon="11.564274383897965"><ele>74.0</ele><time>2026-04-12T06:57:24Z</time></trkpt><trkpt lat="45.43106533203261" lon="11.564151334252596"><ele>76.83333333333334</ele><time>2026-04-12T06:57:25Z</time></trkpt><trkpt lat="45.43110906487084" lon="11.56404166589369"><ele>79.66666666666667</ele><time>2026-04-12T06:57:26Z</time></trkpt><trkpt lat="45.431141719872045" lon="11.563958686122247"><ele>82.5</ele><time>2026-04-12T06:57:27Z</time></trkpt><trkpt lat="45.43117796034594" lon="11.56383535560461"><ele>85.33333333333333</ele><time>2026-04-12T06:57:29Z</time></trkpt><trkpt lat="45.431210142414706" lon="11.563752555581551"><ele>88.16666666666666</ele><time>2026-04-12T06:57:32Z</time></trkpt><trkpt lat="45.43123793253738" lon="11.563656162540282"><ele>91.0</ele><time>2026-04-12T06:57:44Z</time></trkpt><trkpt lat="45.431241112122365" lon="11.563548964387683"><ele>93.19999999999999</ele><time>2026-04-12T06:57:49Z</time></trkpt><trkpt lat="45.431232174345034" lon="11.56345198563691"><ele>95.39999999999999</ele><time>2026-04-12T06:57:54Z</time></trkpt><trkpt lat="45.43123463352313" lon="11.563350613207819"><ele>97.6</ele><time>2026-04-12T06:58:30Z</time></trkpt><trkpt lat="45.431290760415806" lon="11.563272748457138"><ele>99.8</ele><time>2026-04-12T06:58:47Z</time></trkpt><trkpt lat="45.43148474243975" lon="11.563138255453133"><ele>102.0</ele><time>2026-04-12T06:58:55Z</time></trkpt><trkpt lat="45.43153912556709" lon="11.563069271492799"><ele>102.0</ele><time>2026-04-12T06:58:57Z</time></trkpt><trkpt lat="45.431587059569715" lon="11.563006396360384"><ele>102.0</ele><time>2026-04-12T06:58:59Z</time></trkpt><trkpt lat="45.43163789170477" lon="11.562939090282544"><ele>102.0</ele><time>2026-04-12T06:59:03Z</time></trkpt><trkpt lat="45.4317029409526" lon="11.562881793909668"><ele>102.0</ele><time>2026-04-12T06:59:05Z</time></trkpt><trkpt lat="45.431763419984215" lon="11.56282161877945"><ele>102.0</ele><time>2026-04-12T06:59:07Z</time></trkpt><trkpt lat="45.431843957616046" lon="11.562758851862233"><ele>102.0</ele><time>2026-04-12T06:59:09Z</time></trkpt><trkpt lat="45.431928705822045" lon="11.562691776894589"><ele>107.0</ele><time>2026-04-12T06:59:11Z</time></trkpt><trkpt lat="45.43200584558569" lon="11.562595730738412"><ele>112.0</ele><time>2026-04-12T06:59:13Z</time></trkpt><trkpt lat="45.43207621686287" lon="11.562501399475243"><ele>116.99999999999999</ele><time>2026-04-12T06:59:15Z</time></trkpt><trkpt lat="45.43215937105177" lon="11.562393270459506"><ele>122.0</ele><time>2026-04-12T06:59:17Z</time></trkpt><trkpt lat="45.4322076841349" lon="11.56229133232785"><ele>127.0</ele><time>2026-04-12T06:59:19Z</time></trkpt><trkpt lat="45.43225903243167" lon="11.562206735768106"><ele>127.0</ele><time>2026-04-12T06:59:25Z</time></trkpt><trkpt lat="45.43232465002338" lon="11.56211470854471"><ele>126.99999999999999</ele><time>2026-04-12T06:59:27Z</time></trkpt><trkpt lat="45.432395623344426" lon="11.562021495807697"><ele>126.99999999999999</ele><time>2026-04-12T06:59:29Z</time></trkpt><trkpt lat="45.43247837904162" lon="11.561916510702046"><ele>127.0</ele><time>2026-04-12T06:59:31Z</time></trkpt><trkpt lat="45.432555244264854" lon="11.561792185371228"><ele>127.0</ele><time>2026-04-12T06:59:33Z</time></trkpt><trkpt lat="45.43262270898416" lon="11.561683239318064"><ele>129.0</ele><time>2026-04-12T06:59:35Z</time></trkpt><trkpt lat="45.432674656031274" lon="11.561603239356225"><ele>131.0</ele><time>2026-04-12T06:59:37Z</time></trkpt><trkpt lat="45.43273919418409" lon="11.561481964561318"><ele>133.0</ele><time>2026-04-12T06:59:39Z</time></trkpt><trkpt lat="45.432789009785566" lon="11.5614078504401"><ele>135.0</ele><time>2026-04-12T06:59:40Z</time></trkpt><trkpt lat="45.432845549533276" lon="11.561284888400861"><ele>137.0</ele><time>2026-04-12T06:59:42Z</time></trkpt><trkpt lat="45.4328913864572" lon="11.561198817678497"><ele>139.0</ele><time>2026-04-12T06:59:44Z</time></trkpt><trkpt lat="45.43294198025128" lon="11.561129224755836"><ele>141.16666666666669</ele><time>2026-04-12T06:59:46Z</time></trkpt><trkpt lat="45.43299020501033" lon="11.561019040374928"><ele>143.33333333333334</ele><time>2026-04-12T06:59:48Z</time></trkpt><trkpt lat="45.43304990272832" lon="11.560897505569084"><ele>145.5</ele><time>2026-04-12T06:59:54Z</time></trkpt><trkpt lat="45.43309256517633" lon="11.560825123937665"><ele>147.66666666666666</ele><time>2026-04-12T06:59:56Z</time></trkpt><trkpt lat="45.43314709503051" lon="11.56070901815314"><ele>149.83333333333331</ele><time>2026-04-12T06:59:58Z</time></trkpt><trkpt lat="45.433196322263726" lon="11.560626796854832"><ele>152.0</ele><time>2026-04-12T07:00:00Z</time></trkpt><trkpt lat="45.43321503343215" lon="11.56050186327828"><ele>152.0</ele><time>2026-04-12T07:00:02Z</time></trkpt><trkpt lat="45.433264522095925" lon="11.560443318527103"><ele>152.0</ele><time>2026-04-12T07:00:05Z</time></trkpt><trkpt lat="45.43331130819878" lon="11.560373668025269"><ele>152.0</ele><time>2026-04-12T07:00:11Z</time></trkpt><trkpt lat="45.43336361702152" lon="11.56030147984198"><ele>152.0</ele><time>2026-04-12T07:00:15Z</time></trkpt><trkpt lat="45.433406917395715" lon="11.560200555693209"><ele>152.0</ele><time>2026-04-12T07:00:17Z</time></trkpt><trkpt lat="45.43350492781392" lon="11.560150683133411"><ele>152.0</ele><time>2026-04-12T07:00:20Z</time></trkpt><trkpt lat="45.433584785494055" lon="11.56015211350441"><ele>153.85714285714286</ele><time>2026-04-12T07:00:22Z</time></trkpt><trkpt lat="45.4336710603106" lon="11.560166750691074"><ele>155.71428571428572</ele><time>2026-04-12T07:00:24Z</time></trkpt><trkpt lat="45.433740750712104" lon="11.560151355026427"><ele>157.57142857142858</ele><time>2026-04-12T07:00:26Z</time></trkpt><trkpt lat="45.43382758730257" lon="11.560122203445669"><ele>159.42857142857144</ele><time>2026-04-12T07:00:28Z</time></trkpt><trkpt lat="45.43388175181184" lon="11.560069303297356"><ele>161.28571428571428</ele><time>2026-04-12T07:00:32Z</time></trkpt><trkpt lat="45.433943634576124" lon="11.560036664732136"><ele>163.14285714285717</ele><time>2026-04-12T07:00:35Z</time></trkpt><trkpt lat="45.43400037118168" lon="11.55997673575645"><ele>165.0</ele><time>2026-04-12T07:00:37Z</time></trkpt><trkpt lat="45.4340554981162" lon="11.55992711566744"><ele>166.85714285714286</ele><time>2026-04-12T07:00:40Z</time></trkpt><trkpt lat="45.43413114344712" lon="11.559865062374627"><ele>168.71428571428572</ele><time>2026-04-12T07:00:43Z</time></trkpt><trkpt lat="45.43418280840643" lon="11.559802388790374"><ele>170.57142857142856</ele><time>2026-04-12T07:00:46Z</time></trkpt><trkpt lat="45.434250455005724" lon="11.559756624707443"><ele>172.42857142857144</ele><time>2026-04-12T07:00:50Z</time></trkpt><trkpt lat="45.4343182072832" lon="11.559710289335717"><ele>174.28571428571428</ele><time>2026-04-12T07:00:52Z</time></trkpt><trkpt lat="45.434368678688344" lon="11.559647941507182"><ele>176.14285714285714</ele><time>2026-04-12T07:00:54Z</time></trkpt><trkpt lat="45.43443963423908" lon="11.559609040307091"><ele>178.0</ele><time>2026-04-12T07:01:01Z</time></trkpt><trkpt lat="45.43440062073349" lon="11.559524146906089"><ele>181.83333333333334</ele><time>2026-04-12T07:01:05Z</time></trkpt><trkpt lat="45.434336789440316" lon="11.559475844388036"><ele>185.66666666666669</ele><time>2026-04-12T07:01:08Z</time></trkpt><trkpt lat="45.434268250302765" lon="11.559464667015222"><ele>189.5</ele><time>2026-04-12T07:01:10Z</time></trkpt><trkpt lat="45.434184941059605" lon="11.559399162523952"><ele>193.33333333333334</ele><time>2026-04-12T07:01:15Z</time></trkpt><trkpt lat="45.43423304413232" lon="11.559468620874172"><ele>197.16666666666666</ele><time>2026-04-12T07:01:27Z</time></trkpt><trkpt lat="45.434339229240805" lon="11.559441639400523"><ele>201.0</ele><time>2026-04-12T07:01:45Z</time></trkpt><trkpt lat="45.434455842929765" lon="11.559439349981902"><ele>201.0</ele><time>2026-04-12T07:01:47Z</time></trkpt><trkpt lat="45.434561190682416" lon="11.559435452413798"><ele>201.0</ele><time>2026-04-12T07:01:49Z</time></trkpt><trkpt lat="45.43462231209557" lon="11.559457853385368"><ele>201.0</ele><time>2026-04-12T07:01:50Z</time></trkpt><trkpt lat="45.434676910466116" lon="11.559537110877272"><ele>201.0</ele><time>2026-04-12T07:01:52Z</time></trkpt><trkpt lat="45.43462676929279" lon="11.559616674714205"><ele>201.0</ele><time>2026-04-12T07:01:53Z</time></trkpt><trkpt lat="45.43458882707811" lon="11.559719962498413"><ele>201.0</ele><time>2026-04-12T07:01:54Z</time></trkpt><trkpt lat="45.43455484136403" lon="11.559873554376507"><ele>197.20000000000002</ele><time>2026-04-12T07:01:55Z</time></trkpt><trkpt lat="45.434501826520304" lon="11.56003266558244"><ele>193.4</ele><time>2026-04-12T07:01:56Z</time></trkpt><trkpt lat="45.43445991200234" lon="11.56015303848923"><ele>189.6</ele><time>2026-04-12T07:01:57Z</time></trkpt><trkpt lat="45.43443391141685" lon="11.560283688741702"><ele>185.8</ele><time>2026-04-12T07:01:58Z</time></trkpt><trkpt lat="45.43440290717284" lon="11.560398853983447"><ele>182.0</ele><time>2026-04-12T07:01:59Z</time></trkpt><trkpt lat="45.43437112546848" lon="11.560509830577303"><ele>182.0</ele><time>2026-04-12T07:02:00Z</time></trkpt><trkpt lat="45.43434882788776" lon="11.56063208845821"><ele>182.0</ele><time>2026-04-12T07:02:01Z</time></trkpt><trkpt lat="45.43431059107717" lon="11.560734425283023"><ele>182.0</ele><time>2026-04-12T07:02:02Z</time></trkpt><trkpt lat="45.43424435160666" lon="11.560822453907479"><ele>182.0</ele><time>2026-04-12T07:02:03Z</time></trkpt><trkpt lat="45.434181328260166" lon="11.560936198436"><ele>182.0</ele><time>2026-04-12T07:02:04Z</time></trkpt><trkpt lat="45.43412767444927" lon="11.561049711987685"><ele>182.0</ele><time>2026-04-12T07:02:05Z</time></trkpt><trkpt lat="45.43407152006991" lon="11.561166812656698"><ele>182.0</ele><time>2026-04-12T07:02:06Z</time></trkpt><trkpt lat="45.43401773265538" lon="11.561308473814027"><ele>182.0</ele><time>2026-04-12T07:02:07Z</time></trkpt><trkpt lat="45.43397181438751" lon="11.561463908435352"><ele>182.0</ele><time>2026-04-12T07:02:08Z</time></trkpt><trkpt lat="45.43390539896744" lon="11.561665339971368"><ele>178.25</ele><time>2026-04-12T07:02:09Z</time></trkpt><trkpt lat="45.433857425541895" lon="11.561873446571676"><ele>174.5</ele><time>2026-04-12T07:02:10Z</time></trkpt><trkpt lat="45.43381060624673" lon="11.562063868558592"><ele>170.75</ele><time>2026-04-12T07:02:11Z</time></trkpt><trkpt lat="45.433765008520766" lon="11.562231292422698"><ele>167.0</ele><time>2026-04-12T07:02:12Z</time></trkpt><trkpt lat="45.43372207203662" lon="11.56238213878194"><ele>167.0</ele><time>2026-04-12T07:02:13Z</time></trkpt><trkpt lat="45.43367764035224" lon="11.562528260455885"><ele>167.0</ele><time>2026-04-12T07:02:14Z</time></trkpt><trkpt lat="45.43364162653812" lon="11.562703307036353"><ele>167.0</ele><time>2026-04-12T07:02:15Z</time></trkpt><trkpt lat="45.43360310617392" lon="11.562898673280499"><ele>167.0</ele><time>2026-04-12T07:02:16Z</time></trkpt><trkpt lat="45.433560612037226" lon="11.563079950583434"><ele>170.75</ele><time>2026-04-12T07:02:17Z</time></trkpt><trkpt lat="45.43352517818385" lon="11.56324666067865"><ele>174.5</ele><time>2026-04-12T07:02:18Z</time></trkpt><trkpt lat="45.4334800739379" lon="11.56339879529725"><ele>178.25</ele><time>2026-04-12T07:02:19Z</time></trkpt><trkpt lat="45.4334285627479" lon="11.563549325303272"><ele>182.0</ele><time>2026-04-12T07:02:20Z</time></trkpt><trkpt lat="45.43337536557916" lon="11.563679070546371"><ele>186.0</ele><time>2026-04-12T07:02:21Z</time></trkpt><trkpt lat="45.43332378361907" lon="11.563807594976604"><ele>190.0</ele><time>2026-04-12T07:02:22Z</time></trkpt><trkpt lat="45.43327787431262" lon="11.563977089574148"><ele>194.0</ele><time>2026-04-12T07:02:23Z</time></trkpt><trkpt lat="45.43323218575431" lon="11.564161815120313"><ele>198.0</ele><time>2026-04-12T07:02:24Z</time></trkpt><trkpt lat="45.43318581139121" lon="11.564318426779423"><ele>198.0</ele><time>2026-04-12T07:02:25Z</time></trkpt><trkpt lat="45.43315659800018" lon="11.56445496150899"><ele>198.0</ele><time>2026-04-12T07:02:26Z</time></trkpt><trkpt lat="45.43312970128637" lon="11.564579731403466"><ele>198.0</ele><time>2026-04-12T07:02:27Z</time></trkpt><trkpt lat="45.43311360335271" lon="11.564698630338901"><ele>198.0</ele><time>2026-04-12T07:02:28Z</time></trkpt><trkpt lat="45.433109538923844" lon="11.564829632564178"><ele>198.0</ele><time>2026-04-12T07:02:29Z</time></trkpt><trkpt lat="45.43310364134492" lon="11.564952010173423"><ele>198.0</ele><time>2026-04-12T07:02:30Z</time></trkpt><trkpt lat="45.43309480653568" lon="11.565059070792579"><ele>198.0</ele><time>2026-04-12T07:02:31Z</time></trkpt><trkpt lat="45.43308477692509" lon="11.565158845466975"><ele>198.0</ele><time>2026-04-12T07:02:32Z</time></trkpt><trkpt lat="45.43308161747675" lon="11.56526426650455"><ele>198.0</ele><time>2026-04-12T07:02:33Z</time></trkpt><trkpt lat="45.433094585953924" lon="11.565387417042562"><ele>198.0</ele><time>2026-04-12T07:02:34Z</time></trkpt><trkpt lat="45.43311693892177" lon="11.565515715655184"><ele>198.0</ele><time>2026-04-12T07:02:35Z</time></trkpt><trkpt lat="45.433152649630124" lon="11.565644857560768"><ele>198.0</ele><time>2026-04-12T07:02:36Z</time></trkpt><trkpt lat="45.43320388615224" lon="11.565770173444724"><ele>198.0</ele><time>2026-04-12T07:02:37Z</time></trkpt><trkpt lat="45.4332584041795" lon="11.565893667338896"><ele>198.0</ele><time>2026-04-12T07:02:38Z</time></trkpt><trkpt lat="45.433322012757905" lon="11.565982485171517"><ele>198.0</ele><time>2026-04-12T07:02:39Z</time></trkpt><trkpt lat="45.4333810901953" lon="11.566056343557017"><ele>198.0</ele><time>2026-04-12T07:02:40Z</time></trkpt><trkpt lat="45.43342210282865" lon="11.566151666196422"><ele>195.66666666666666</ele><time>2026-04-12T07:02:41Z</time></trkpt><trkpt lat="45.43345447100151" lon="11.566268817958337"><ele>193.33333333333334</ele><time>2026-04-12T07:02:42Z</time></trkpt><trkpt lat="45.43349016149156" lon="11.566392443401604"><ele>191.0</ele><time>2026-04-12T07:02:43Z</time></trkpt><trkpt lat="45.43349521423322" lon="11.56651177420279"><ele>188.66666666666669</ele><time>2026-04-12T07:02:44Z</time></trkpt><trkpt lat="45.433509453665934" lon="11.566616940531384"><ele>186.33333333333334</ele><time>2026-04-12T07:02:45Z</time></trkpt><trkpt lat="45.433546589864" lon="11.566708322087985"><ele>184.0</ele><time>2026-04-12T07:02:46Z</time></trkpt><trkpt lat="45.43360002719502" lon="11.566758233916877"><ele>184.0</ele><time>2026-04-12T07:02:47Z</time></trkpt><trkpt lat="45.43366969224487" lon="11.56673984646838"><ele>184.0</ele><time>2026-04-12T07:02:48Z</time></trkpt><trkpt lat="45.4337488534496" lon="11.56667890058114"><ele>184.0</ele><time>2026-04-12T07:02:49Z</time></trkpt><trkpt lat="45.43384894752025" lon="11.566604423614768"><ele>184.0</ele><time>2026-04-12T07:02:50Z</time></trkpt><trkpt lat="45.433960061673766" lon="11.566568378983437"><ele>184.0</ele><time>2026-04-12T07:02:51Z</time></trkpt><trkpt lat="45.4340564948885" lon="11.566590529212291"><ele>187.75</ele><time>2026-04-12T07:02:52Z</time></trkpt><trkpt lat="45.43415243927578" lon="11.566679278437997"><ele>191.5</ele><time>2026-04-12T07:02:53Z</time></trkpt><trkpt lat="45.43427684150542" lon="11.566766838509556"><ele>195.25</ele><time>2026-04-12T07:02:54Z</time></trkpt><trkpt lat="45.43440415792825" lon="11.566820468799364"><ele>199.0</ele><time>2026-04-12T07:02:55Z</time></trkpt><trkpt lat="45.43452052690998" lon="11.566874029164055"><ele>198.99999999999997</ele><time>2026-04-12T07:02:56Z</time></trkpt><trkpt lat="45.43461430278309" lon="11.566928656481709"><ele>199.0</ele><time>2026-04-12T07:02:57Z</time></trkpt><trkpt lat="45.43469476066636" lon="11.566978309108718"><ele>199.0</ele><time>2026-04-12T07:02:58Z</time></trkpt><trkpt lat="45.43476021756373" lon="11.5670220523105"><ele>199.0</ele><time>2026-04-12T07:02:59Z</time></trkpt><trkpt lat="45.434822405764926" lon="11.567072005817996"><ele>198.99999999999997</ele><time>2026-04-12T07:03:00Z</time></trkpt><trkpt lat="45.43487469163705" lon="11.567127882992091"><ele>199.0</ele><time>2026-04-12T07:03:01Z</time></trkpt><trkpt lat="45.43497118226633" lon="11.567240383514303"><ele>198.16666666666666</ele><time>2026-04-12T07:03:03Z</time></trkpt><trkpt lat="45.43502454596406" lon="11.567298979446013"><ele>197.33333333333331</ele><time>2026-04-12T07:03:04Z</time></trkpt><trkpt lat="45.435076225965" lon="11.56736086756564"><ele>196.5</ele><time>2026-04-12T07:03:05Z</time></trkpt><trkpt lat="45.4351283426884" lon="11.567421034626774"><ele>195.66666666666669</ele><time>2026-04-12T07:03:06Z</time></trkpt><trkpt lat="45.43521619145523" lon="11.567505421884452"><ele>194.83333333333334</ele><time>2026-04-12T07:03:08Z</time></trkpt><trkpt lat="45.43530295484162" lon="11.567479512299283"><ele>194.0</ele><time>2026-04-12T07:03:10Z</time></trkpt><trkpt lat="45.43538870738129" lon="11.567404164748472"><ele>194.0</ele><time>2026-04-12T07:03:12Z</time></trkpt><trkpt lat="45.435441327554095" lon="11.56729943415961"><ele>194.0</ele><time>2026-04-12T07:03:13Z</time></trkpt><trkpt lat="45.435518356635086" lon="11.567221702957868"><ele>194.0</ele><time>2026-04-12T07:03:14Z</time></trkpt><trkpt lat="45.43559691364957" lon="11.567188814910837"><ele>194.0</ele><time>2026-04-12T07:03:15Z</time></trkpt><trkpt lat="45.435684419841465" lon="11.567132689404241"><ele>194.0</ele><time>2026-04-12T07:03:17Z</time></trkpt><trkpt lat="45.435702830213515" lon="11.567006349907478"><ele>196.33333333333334</ele><time>2026-04-12T07:03:19Z</time></trkpt><trkpt lat="45.435659173676264" lon="11.566941389733925"><ele>198.66666666666669</ele><time>2026-04-12T07:03:20Z</time></trkpt><trkpt lat="45.43558725769193" lon="11.566914301658418"><ele>201.0</ele><time>2026-04-12T07:03:21Z</time></trkpt><trkpt lat="45.43550441460334" lon="11.56691614460563"><ele>203.33333333333331</ele><time>2026-04-12T07:03:22Z</time></trkpt><trkpt lat="45.435425401248935" lon="11.566902998236055"><ele>205.66666666666666</ele><time>2026-04-12T07:03:23Z</time></trkpt><trkpt lat="45.43535150370533" lon="11.566863146422296"><ele>208.0</ele><time>2026-04-12T07:03:24Z</time></trkpt><trkpt lat="45.43527744732018" lon="11.566794344871434"><ele>208.2</ele><time>2026-04-12T07:03:25Z</time></trkpt><trkpt lat="45.43520933858529" lon="11.566699292916066"><ele>208.4</ele><time>2026-04-12T07:03:26Z</time></trkpt><trkpt lat="45.435160809943326" lon="11.566595244897604"><ele>208.6</ele><time>2026-04-12T07:03:27Z</time></trkpt><trkpt lat="45.43509401507766" lon="11.566471238608717"><ele>208.79999999999998</ele><time>2026-04-12T07:03:28Z</time></trkpt><trkpt lat="45.43502413146016" lon="11.5663440231225"><ele>209.0</ele><time>2026-04-12T07:03:29Z</time></trkpt><trkpt lat="45.43493066086123" lon="11.566227724047893"><ele>211.5</ele><time>2026-04-12T07:03:30Z</time></trkpt><trkpt lat="45.434820037883355" lon="11.566127385644942"><ele>214.0</ele><time>2026-04-12T07:03:31Z</time></trkpt><trkpt lat="45.43470004654044" lon="11.566039465486373"><ele>216.5</ele><time>2026-04-12T07:03:32Z</time></trkpt><trkpt lat="45.43458575127751" lon="11.56595958186025"><ele>219.0</ele><time>2026-04-12T07:03:33Z</time></trkpt><trkpt lat="45.434471644905585" lon="11.565862701413863"><ele>219.0</ele><time>2026-04-12T07:03:34Z</time></trkpt><trkpt lat="45.434351560220954" lon="11.565764597267963"><ele>219.0</ele><time>2026-04-12T07:03:35Z</time></trkpt><trkpt lat="45.43423063218617" lon="11.565671510893196"><ele>219.0</ele><time>2026-04-12T07:03:36Z</time></trkpt><trkpt lat="45.434125738540416" lon="11.565581872883838"><ele>219.0</ele><time>2026-04-12T07:03:37Z</time></trkpt><trkpt lat="45.434058331332224" lon="11.565477013474142"><ele>219.0</ele><time>2026-04-12T07:03:38Z</time></trkpt><trkpt lat="45.43402463333215" lon="11.565362218706559"><ele>218.99999999999997</ele><time>2026-04-12T07:03:39Z</time></trkpt><trkpt lat="45.43402200842603" lon="11.565234192374099"><ele>218.99999999999997</ele><time>2026-04-12T07:03:40Z</time></trkpt><trkpt lat="45.434031916360055" lon="11.565087083000684"><ele>219.0</ele><time>2026-04-12T07:03:41Z</time></trkpt><trkpt lat="45.43406640420604" lon="11.564954238994988"><ele>219.0</ele><time>2026-04-12T07:03:42Z</time></trkpt><trkpt lat="45.43411810123138" lon="11.564789036810918"><ele>223.0</ele><time>2026-04-12T07:03:43Z</time></trkpt><trkpt lat="45.434153140482714" lon="11.56463127023744"><ele>227.0</ele><time>2026-04-12T07:03:44Z</time></trkpt><trkpt lat="45.434229282839915" lon="11.564486780884167"><ele>231.0</ele><time>2026-04-12T07:03:45Z</time></trkpt><trkpt lat="45.43430294713292" lon="11.564333280253432"><ele>235.0</ele><time>2026-04-12T07:03:46Z</time></trkpt><trkpt lat="45.43438503633671" lon="11.564170330688556"><ele>235.25</ele><time>2026-04-12T07:03:47Z</time></trkpt><trkpt lat="45.43446743878349" lon="11.564008482998432"><ele>235.5</ele><time>2026-04-12T07:03:48Z</time></trkpt><trkpt lat="45.43455248914274" lon="11.563839576256772"><ele>235.75</ele><time>2026-04-12T07:03:49Z</time></trkpt><trkpt lat="45.434636175856035" lon="11.56366355075929"><ele>236.0</ele><time>2026-04-12T07:03:50Z</time></trkpt><trkpt lat="45.43472844253826" lon="11.563468961699618"><ele>242.33333333333334</ele><time>2026-04-12T07:03:51Z</time></trkpt><trkpt lat="45.43482039499362" lon="11.563258248671701"><ele>248.66666666666669</ele><time>2026-04-12T07:03:52Z</time></trkpt><trkpt lat="45.4349014067156" lon="11.563034342800258"><ele>255.0</ele><time>2026-04-12T07:03:53Z</time></trkpt><trkpt lat="45.43496813876323" lon="11.562794043970348"><ele>255.0</ele><time>2026-04-12T07:03:54Z</time></trkpt><trkpt lat="45.43503921949038" lon="11.562576193196124"><ele>255.0</ele><time>2026-04-12T07:03:55Z</time></trkpt><trkpt lat="45.43510888210576" lon="11.56240566359872"><ele>255.0</ele><time>2026-04-12T07:03:56Z</time></trkpt><trkpt lat="45.43519314116308" lon="11.562247879477233"><ele>255.0</ele><time>2026-04-12T07:03:57Z</time></trkpt><trkpt lat="45.43529582074717" lon="11.562109469228538"><ele>252.25</ele><time>2026-04-12T07:03:58Z</time></trkpt><trkpt lat="45.435406000070515" lon="11.561980053794413"><ele>249.5</ele><time>2026-04-12T07:03:59Z</time></trkpt><trkpt lat="45.43551320526344" lon="11.56183753950414"><ele>246.75</ele><time>2026-04-12T07:04:00Z</time></trkpt><trkpt lat="45.4355863635431" lon="11.561642830797073"><ele>244.0</ele><time>2026-04-12T07:04:01Z</time></trkpt><trkpt lat="45.43566168226637" lon="11.561440043483602"><ele>253.66666666666666</ele><time>2026-04-12T07:04:02Z</time></trkpt><trkpt lat="45.4357474867129" lon="11.561242205268123"><ele>263.3333333333333</ele><time>2026-04-12T07:04:03Z</time></trkpt><trkpt lat="45.435807436026145" lon="11.56102387951199"><ele>273.0</ele><time>2026-04-12T07:04:04Z</time></trkpt><trkpt lat="45.43585521875458" lon="11.5608005542738"><ele>273.0</ele><time>2026-04-12T07:04:05Z</time></trkpt><trkpt lat="45.43589662941" lon="11.560573417537697"><ele>273.0</ele><time>2026-04-12T07:04:06Z</time></trkpt><trkpt lat="45.43593283849172" lon="11.560350638144863"><ele>273.0</ele><time>2026-04-12T07:04:07Z</time></trkpt><trkpt lat="45.43596823858974" lon="11.560125962355729"><ele>271.3333333333333</ele><time>2026-04-12T07:04:08Z</time></trkpt><trkpt lat="45.436003828547165" lon="11.559894685913523"><ele>269.66666666666663</ele><time>2026-04-12T07:04:09Z</time></trkpt><trkpt lat="45.43603808441406" lon="11.5596709133637"><ele>268.0</ele><time>2026-04-12T07:04:10Z</time></trkpt><trkpt lat="45.436083896844565" lon="11.559462850233444"><ele>266.25</ele><time>2026-04-12T07:04:11Z</time></trkpt><trkpt lat="45.43613185440377" lon="11.559279974552487"><ele>264.5</ele><time>2026-04-12T07:04:12Z</time></trkpt><trkpt lat="45.43617817530433" lon="11.55911416114268"><ele>262.75</ele><time>2026-04-12T07:04:13Z</time></trkpt><trkpt lat="45.43622314883425" lon="11.55895313988983"><ele>261.0</ele><time>2026-04-12T07:04:14Z</time></trkpt><trkpt lat="45.43626740079011" lon="11.558798199939414"><ele>268.0</ele><time>2026-04-12T07:04:15Z</time></trkpt><trkpt lat="45.43631194413132" lon="11.558654843670803"><ele>275.0</ele><time>2026-04-12T07:04:16Z</time></trkpt><trkpt lat="45.43635900770148" lon="11.558541022517948"><ele>282.0</ele><time>2026-04-12T07:04:17Z</time></trkpt><trkpt lat="45.43641198363689" lon="11.558442804889017"><ele>289.0</ele><time>2026-04-12T07:04:18Z</time></trkpt><trkpt lat="45.43647167685162" lon="11.558347642426838"><ele>296.0</ele><time>2026-04-12T07:04:19Z</time></trkpt><trkpt lat="45.43652499918289" lon="11.558282251791418"><ele>296.0</ele><time>2026-04-12T07:04:20Z</time></trkpt><trkpt lat="45.43645007937878" lon="11.558043907598796"><ele>296.0</ele><time>2026-04-12T07:04:21Z</time></trkpt><trkpt lat="45.43645746708026" lon="11.55790898353539"><ele>296.0</ele><time>2026-04-12T07:04:22Z</time></trkpt><trkpt lat="45.436419208180695" lon="11.557763932553149"><ele>296.0</ele><time>2026-04-12T07:04:23Z</time></trkpt><trkpt lat="45.43632575346739" lon="11.557667826384298"><ele>289.8</ele><time>2026-04-12T07:04:24Z</time></trkpt><trkpt lat="45.43623853005747" lon="11.5575674658951"><ele>283.6</ele><time>2026-04-12T07:04:25Z</time></trkpt><trkpt lat="45.43615704497001" lon="11.557459744336066"><ele>277.4</ele><time>2026-04-12T07:04:26Z</time></trkpt><trkpt lat="45.436088207614425" lon="11.557332233947209"><ele>271.2</ele><time>2026-04-12T07:04:27Z</time></trkpt><trkpt lat="45.4360322426886" lon="11.55719983324639"><ele>265.0</ele><time>2026-04-12T07:04:28Z</time></trkpt><trkpt lat="45.435981250471166" lon="11.557070765515908"><ele>267.8</ele><time>2026-04-12T07:04:29Z</time></trkpt><trkpt lat="45.43592702190753" lon="11.55694409417376"><ele>270.6</ele><time>2026-04-12T07:04:30Z</time></trkpt><trkpt lat="45.435876257796174" lon="11.556816543681734"><ele>273.4</ele><time>2026-04-12T07:04:31Z</time></trkpt><trkpt lat="45.435826750867726" lon="11.556694567641786"><ele>276.2</ele><time>2026-04-12T07:04:32Z</time></trkpt><trkpt lat="45.43578160373661" lon="11.556573677548045"><ele>279.0</ele><time>2026-04-12T07:04:33Z</time></trkpt><trkpt lat="45.435734293022676" lon="11.556453576138408"><ele>279.0</ele><time>2026-04-12T07:04:34Z</time></trkpt><trkpt lat="45.43573862369799" lon="11.55631271753432"><ele>279.0</ele><time>2026-04-12T07:04:35Z</time></trkpt><trkpt lat="45.43570713533947" lon="11.556187019367227"><ele>279.0</ele><time>2026-04-12T07:04:36Z</time></trkpt><trkpt lat="45.435665687773515" lon="11.55607141477886"><ele>279.0</ele><time>2026-04-12T07:04:37Z</time></trkpt><trkpt lat="45.43559531799906" lon="11.55595684420901"><ele>279.0</ele><time>2026-04-12T07:04:38Z</time></trkpt><trkpt lat="45.43551831911006" lon="11.555848078687244"><ele>281.59999999999997</ele><time>2026-04-12T07:04:39Z</time></trkpt><trkpt lat="45.43546264165303" lon="11.555725394914246"><ele>284.2</ele><time>2026-04-12T07:04:40Z</time></trkpt><trkpt lat="45.43543058281711" lon="11.555610577024455"><ele>286.79999999999995</ele><time>2026-04-12T07:04:41Z</time></trkpt><trkpt lat="45.435407127618795" lon="11.555510276433715"><ele>289.4</ele><time>2026-04-12T07:04:42Z</time></trkpt><trkpt lat="45.43534364327726" lon="11.555402719458662"><ele>292.0</ele><time>2026-04-12T07:04:44Z</time></trkpt><trkpt lat="45.43524537715415" lon="11.555351901015289"><ele>292.0</ele><time>2026-04-12T07:04:46Z</time></trkpt><trkpt lat="45.43519224668005" lon="11.555446629323333"><ele>292.0</ele><time>2026-04-12T07:04:47Z</time></trkpt><trkpt lat="45.4351266401196" lon="11.555531550747075"><ele>292.0</ele><time>2026-04-12T07:04:48Z</time></trkpt><trkpt lat="45.435053616450205" lon="11.555629216185398"><ele>292.0</ele><time>2026-04-12T07:04:49Z</time></trkpt><trkpt lat="45.43499376951668" lon="11.555719455955153"><ele>292.0</ele><time>2026-04-12T07:04:50Z</time></trkpt><trkpt lat="45.43494335644363" lon="11.555815693949167"><ele>292.0</ele><time>2026-04-12T07:04:51Z</time></trkpt><trkpt lat="45.4349062392134" lon="11.555899524413128"><ele>292.0</ele><time>2026-04-12T07:04:52Z</time></trkpt><trkpt lat="45.43486815891335" lon="11.555987277368514"><ele>292.0</ele><time>2026-04-12T07:04:53Z</time></trkpt><trkpt lat="45.434833886274596" lon="11.556074433920779"><ele>292.0</ele><time>2026-04-12T07:04:54Z</time></trkpt><trkpt lat="45.43478550794801" lon="11.556192555277436"><ele>292.0</ele><time>2026-04-12T07:04:56Z</time></trkpt><trkpt lat="45.43473847761256" lon="11.556277450288151"><ele>292.0</ele><time>2026-04-12T07:05:00Z</time></trkpt><trkpt lat="45.434794051334336" lon="11.556012143556657"><ele>292.0</ele><time>2026-04-12T07:05:04Z</time></trkpt><trkpt lat="45.43481406257379" lon="11.55586708857792"><ele>292.0</ele><time>2026-04-12T07:05:06Z</time></trkpt><trkpt lat="45.434853104044294" lon="11.555704202055756"><ele>292.0</ele><time>2026-04-12T07:05:08Z</time></trkpt><trkpt lat="45.43488556535365" lon="11.555609297808186"><ele>292.0</ele><time>2026-04-12T07:05:09Z</time></trkpt><trkpt lat="45.43492134967664" lon="11.55551818343892"><ele>292.0</ele><time>2026-04-12T07:05:10Z</time></trkpt><trkpt lat="45.434952556204216" lon="11.555407405610937"><ele>295.16666666666663</ele><time>2026-04-12T07:05:11Z</time></trkpt><trkpt lat="45.43498849736797" lon="11.555321731357704"><ele>298.3333333333333</ele><time>2026-04-12T07:05:12Z</time></trkpt><trkpt lat="45.43501821736518" lon="11.555210743686757"><ele>301.5</ele><time>2026-04-12T07:05:13Z</time></trkpt><trkpt lat="45.43505555381032" lon="11.55512328329163"><ele>304.6666666666667</ele><time>2026-04-12T07:05:14Z</time></trkpt><trkpt lat="45.43508790211651" lon="11.555009535020849"><ele>307.83333333333337</ele><time>2026-04-12T07:05:15Z</time></trkpt><trkpt lat="45.43511981685333" lon="11.554896485990918"><ele>311.0</ele><time>2026-04-12T07:05:16Z</time></trkpt><trkpt lat="45.435164062185954" lon="11.55480895892816"><ele>311.0</ele><time>2026-04-12T07:05:18Z</time></trkpt><trkpt lat="45.43517482985326" lon="11.554665441856468"><ele>311.0</ele><time>2026-04-12T07:05:20Z</time></trkpt><trkpt lat="45.43519157920716" lon="11.554511003270493"><ele>311.0</ele><time>2026-04-12T07:05:22Z</time></trkpt><trkpt lat="45.43521907601735" lon="11.554369295349117"><ele>311.0</ele><time>2026-04-12T07:05:24Z</time></trkpt><trkpt lat="45.435199252601066" lon="11.554246634752548"><ele>311.0</ele><time>2026-04-12T07:05:26Z</time></trkpt><trkpt lat="45.43518255387547" lon="11.554090090719406"><ele>312.83333333333337</ele><time>2026-04-12T07:05:29Z</time></trkpt><trkpt lat="45.43517511486954" lon="11.553998730357877"><ele>314.6666666666667</ele><time>2026-04-12T07:05:31Z</time></trkpt><trkpt lat="45.43518214759891" lon="11.553879652610528"><ele>316.5</ele><time>2026-04-12T07:05:35Z</time></trkpt><trkpt lat="45.43517505100784" lon="11.553769959166623"><ele>318.3333333333333</ele><time>2026-04-12T07:05:37Z</time></trkpt><trkpt lat="45.43513656012792" lon="11.55366889858203"><ele>320.16666666666663</ele><time>2026-04-12T07:05:38Z</time></trkpt><trkpt lat="45.435122653283216" lon="11.553538533107188"><ele>322.0</ele><time>2026-04-12T07:05:42Z</time></trkpt><trkpt lat="45.4351236792817" lon="11.553432789775412"><ele>323.3333333333333</ele><time>2026-04-12T07:05:45Z</time></trkpt><trkpt lat="45.43511251662468" lon="11.553334735729218"><ele>324.66666666666663</ele><time>2026-04-12T07:05:46Z</time></trkpt><trkpt lat="45.4351236080507" lon="11.553216437072171"><ele>326.0</ele><time>2026-04-12T07:05:47Z</time></trkpt><trkpt lat="45.43514552678931" lon="11.553112170776465"><ele>327.3333333333333</ele><time>2026-04-12T07:05:48Z</time></trkpt><trkpt lat="45.4351712044635" lon="11.553018022409052"><ele>328.6666666666667</ele><time>2026-04-12T07:05:49Z</time></trkpt><trkpt lat="45.43517962579166" lon="11.552870414855864"><ele>330.0</ele><time>2026-04-12T07:05:51Z</time></trkpt><trkpt lat="45.43526612780811" lon="11.552801586816509"><ele>331.2</ele><time>2026-04-12T07:05:53Z</time></trkpt><trkpt lat="45.43532971875952" lon="11.552696251237247"><ele>332.4</ele><time>2026-04-12T07:05:55Z</time></trkpt><trkpt lat="45.435410996641416" lon="11.552580218983481"><ele>333.6</ele><time>2026-04-12T07:05:57Z</time></trkpt><trkpt lat="45.43547102057665" lon="11.552492979839556"><ele>334.8</ele><time>2026-04-12T07:05:59Z</time></trkpt><trkpt lat="45.43541566020724" lon="11.552389116238684"><ele>336.0</ele><time>2026-04-12T07:06:02Z</time></trkpt><trkpt lat="45.435335974177384" lon="11.55237930178593"><ele>336.0</ele><time>2026-04-12T07:06:04Z</time></trkpt><trkpt lat="45.43526154112089" lon="11.552327001984972"><ele>336.0</ele><time>2026-04-12T07:06:06Z</time></trkpt><trkpt lat="45.43534603921083" lon="11.552235142858086"><ele>336.0</ele><time>2026-04-12T07:06:09Z</time></trkpt><trkpt lat="45.43543062293614" lon="11.552167714438351"><ele>336.0</ele><time>2026-04-12T07:06:11Z</time></trkpt><trkpt lat="45.43551411231702" lon="11.552096569009557"><ele>336.0</ele><time>2026-04-12T07:06:13Z</time></trkpt><trkpt lat="45.435534183501744" lon="11.551978517583693"><ele>337.4</ele><time>2026-04-12T07:06:16Z</time></trkpt><trkpt lat="45.43553722621633" lon="11.55183613230957"><ele>338.8</ele><time>2026-04-12T07:06:18Z</time></trkpt><trkpt lat="45.43545301489847" lon="11.551783702814289"><ele>340.2</ele><time>2026-04-12T07:06:21Z</time></trkpt><trkpt lat="45.43535797231534" lon="11.551800766169103"><ele>341.59999999999997</ele><time>2026-04-12T07:06:23Z</time></trkpt><trkpt lat="45.43524599590652" lon="11.551777824021546"><ele>343.0</ele><time>2026-04-12T07:06:25Z</time></trkpt><trkpt lat="45.43515102591444" lon="11.551778886846677"><ele>345.66666666666663</ele><time>2026-04-12T07:06:26Z</time></trkpt><trkpt lat="45.43509497206042" lon="11.55170023849654"><ele>348.3333333333333</ele><time>2026-04-12T07:06:29Z</time></trkpt><trkpt lat="45.43515934576083" lon="11.551570178173682"><ele>351.0</ele><time>2026-04-12T07:06:32Z</time></trkpt><trkpt lat="45.4351757924" lon="11.551473882429878"><ele>353.6666666666667</ele><time>2026-04-12T07:06:33Z</time></trkpt><trkpt lat="45.43520891048844" lon="11.55139476167676"><ele>356.33333333333337</ele><time>2026-04-12T07:06:34Z</time></trkpt><trkpt lat="45.43522754706541" lon="11.551281801629331"><ele>359.0</ele><time>2026-04-12T07:06:35Z</time></trkpt><trkpt lat="45.43526790267519" lon="11.55117685553065"><ele>359.6</ele><time>2026-04-12T07:06:36Z</time></trkpt><trkpt lat="45.435262121484186" lon="11.55107017415391"><ele>360.2</ele><time>2026-04-12T07:06:37Z</time></trkpt><trkpt lat="45.43531577242958" lon="11.550990018680967"><ele>360.8</ele><time>2026-04-12T07:06:38Z</time></trkpt><trkpt lat="45.435347164216886" lon="11.550907165651456"><ele>361.40000000000003</ele><time>2026-04-12T07:06:39Z</time></trkpt><trkpt lat="45.43542383329859" lon="11.550736151816814"><ele>362.0</ele><time>2026-04-12T07:06:41Z</time></trkpt><trkpt lat="45.43547768250769" lon="11.550621535014843"><ele>362.0</ele><time>2026-04-12T07:06:42Z</time></trkpt><trkpt lat="45.43553842837395" lon="11.550507506433222"><ele>362.0</ele><time>2026-04-12T07:06:43Z</time></trkpt><trkpt lat="45.435591733614324" lon="11.550379037443891"><ele>362.0</ele><time>2026-04-12T07:06:44Z</time></trkpt><trkpt lat="45.43563245734625" lon="11.550293364944714"><ele>362.0</ele><time>2026-04-12T07:06:45Z</time></trkpt><trkpt lat="45.435677582257824" lon="11.550168718173904"><ele>362.0</ele><time>2026-04-12T07:06:47Z</time></trkpt><trkpt lat="45.43569786782169" lon="11.550015205888078"><ele>364.5</ele><time>2026-04-12T07:06:49Z</time></trkpt><trkpt lat="45.43568212629673" lon="11.54990833489963"><ele>367.0</ele><time>2026-04-12T07:06:50Z</time></trkpt><trkpt lat="45.43575595353202" lon="11.549780553517236"><ele>369.5</ele><time>2026-04-12T07:06:52Z</time></trkpt><trkpt lat="45.435810127183586" lon="11.549726780586994"><ele>372.0</ele><time>2026-04-12T07:06:53Z</time></trkpt><trkpt lat="45.435882242218746" lon="11.549627942379505"><ele>374.5</ele><time>2026-04-12T07:06:55Z</time></trkpt><trkpt lat="45.43595515472064" lon="11.549586121990354"><ele>377.0</ele><time>2026-04-12T07:06:57Z</time></trkpt><trkpt lat="45.43603905169768" lon="11.549634266060076"><ele>377.0</ele><time>2026-04-12T07:06:59Z</time></trkpt><trkpt lat="45.436116337727" lon="11.549645898692777"><ele>377.0</ele><time>2026-04-12T07:07:00Z</time></trkpt><trkpt lat="45.43620367243033" lon="11.549639688990997"><ele>377.0</ele><time>2026-04-12T07:07:01Z</time></trkpt><trkpt lat="45.43627688264904" lon="11.549602203040804"><ele>377.0</ele><time>2026-04-12T07:07:02Z</time></trkpt><trkpt lat="45.43634619331556" lon="11.549536798797426"><ele>377.0</ele><time>2026-04-12T07:07:03Z</time></trkpt><trkpt lat="45.4364083680428" lon="11.549468105278825"><ele>377.0</ele><time>2026-04-12T07:07:04Z</time></trkpt><trkpt lat="45.43647868804978" lon="11.549403576109276"><ele>379.40000000000003</ele><time>2026-04-12T07:07:05Z</time></trkpt><trkpt lat="45.436548848278846" lon="11.549354695802165"><ele>381.8</ele><time>2026-04-12T07:07:06Z</time></trkpt><trkpt lat="45.43662018967814" lon="11.549300991421836"><ele>384.2</ele><time>2026-04-12T07:07:07Z</time></trkpt><trkpt lat="45.436698371137894" lon="11.549221385418141"><ele>386.6</ele><time>2026-04-12T07:07:08Z</time></trkpt><trkpt lat="45.43677885916087" lon="11.549115082224066"><ele>389.0</ele><time>2026-04-12T07:07:09Z</time></trkpt><trkpt lat="45.43686849106822" lon="11.549015761547691"><ele>389.0</ele><time>2026-04-12T07:07:10Z</time></trkpt><trkpt lat="45.436970967918135" lon="11.548928659470437"><ele>389.0</ele><time>2026-04-12T07:07:11Z</time></trkpt><trkpt lat="45.437071190230725" lon="11.548844884565312"><ele>389.0</ele><time>2026-04-12T07:07:12Z</time></trkpt><trkpt lat="45.437158891841285" lon="11.548756520765766"><ele>389.0</ele><time>2026-04-12T07:07:13Z</time></trkpt><trkpt lat="45.43724110209087" lon="11.548710976349033"><ele>389.0</ele><time>2026-04-12T07:07:14Z</time></trkpt><trkpt lat="45.43733300119723" lon="11.54867615605747"><ele>389.4</ele><time>2026-04-12T07:07:15Z</time></trkpt><trkpt lat="45.4374352068504" lon="11.54865080776404"><ele>389.79999999999995</ele><time>2026-04-12T07:07:16Z</time></trkpt><trkpt lat="45.437535161531635" lon="11.54866920240052"><ele>390.20000000000005</ele><time>2026-04-12T07:07:17Z</time></trkpt><trkpt lat="45.4376232980214" lon="11.548719685187764"><ele>390.6</ele><time>2026-04-12T07:07:18Z</time></trkpt><trkpt lat="45.43769121704916" lon="11.54878283881604"><ele>391.0</ele><time>2026-04-12T07:07:19Z</time></trkpt><trkpt lat="45.437758326099086" lon="11.548825915911193"><ele>391.0</ele><time>2026-04-12T07:07:20Z</time></trkpt><trkpt lat="45.437821551210206" lon="11.548839264171008"><ele>391.0</ele><time>2026-04-12T07:07:21Z</time></trkpt><trkpt lat="45.437932974173755" lon="11.548810326363498"><ele>391.0</ele><time>2026-04-12T07:07:23Z</time></trkpt><trkpt lat="45.43804549127936" lon="11.548875624135935"><ele>391.0</ele><time>2026-04-12T07:07:25Z</time></trkpt><trkpt lat="45.43811105409857" lon="11.548940991724532"><ele>391.0</ele><time>2026-04-12T07:07:26Z</time></trkpt><trkpt lat="45.43818377790612" lon="11.549046061444123"><ele>391.8</ele><time>2026-04-12T07:07:27Z</time></trkpt><trkpt lat="45.4382679260901" lon="11.549127954893764"><ele>392.6</ele><time>2026-04-12T07:07:28Z</time></trkpt><trkpt lat="45.4383615330523" lon="11.549202305969143"><ele>393.4</ele><time>2026-04-12T07:07:29Z</time></trkpt><trkpt lat="45.43846276966636" lon="11.549267543671368"><ele>394.2</ele><time>2026-04-12T07:07:30Z</time></trkpt><trkpt lat="45.438567680986466" lon="11.549316135375514"><ele>395.0</ele><time>2026-04-12T07:07:31Z</time></trkpt><trkpt lat="45.438678805805864" lon="11.549313485373068"><ele>395.0</ele><time>2026-04-12T07:07:32Z</time></trkpt><trkpt lat="45.438788187914" lon="11.549269211815558"><ele>395.0</ele><time>2026-04-12T07:07:33Z</time></trkpt><trkpt lat="45.43888663816375" lon="11.549198950128362"><ele>395.0</ele><time>2026-04-12T07:07:34Z</time></trkpt><trkpt lat="45.43898527185881" lon="11.549140668141971"><ele>395.0</ele><time>2026-04-12T07:07:35Z</time></trkpt><trkpt lat="45.43908868669923" lon="11.549086164379307"><ele>395.0</ele><time>2026-04-12T07:07:36Z</time></trkpt><trkpt lat="45.439183597238774" lon="11.549017643558003"><ele>391.6</ele><time>2026-04-12T07:07:37Z</time></trkpt><trkpt lat="45.43925523107816" lon="11.548936189007723"><ele>388.2</ele><time>2026-04-12T07:07:38Z</time></trkpt><trkpt lat="45.43931843449741" lon="11.548855481265672"><ele>384.79999999999995</ele><time>2026-04-12T07:07:39Z</time></trkpt><trkpt lat="45.439387769413166" lon="11.54874462178688"><ele>381.4</ele><time>2026-04-12T07:07:40Z</time></trkpt><trkpt lat="45.43946081498171" lon="11.548631325651318"><ele>378.0</ele><time>2026-04-12T07:07:41Z</time></trkpt><trkpt lat="45.4395451036313" lon="11.54853652075766"><ele>377.0</ele><time>2026-04-12T07:07:42Z</time></trkpt><trkpt lat="45.439631697341426" lon="11.548468160086513"><ele>376.0</ele><time>2026-04-12T07:07:43Z</time></trkpt><trkpt lat="45.439702274590196" lon="11.548425739311494"><ele>375.0</ele><time>2026-04-12T07:07:44Z</time></trkpt><trkpt lat="45.43981082582527" lon="11.548372889873761"><ele>374.0</ele><time>2026-04-12T07:07:46Z</time></trkpt><trkpt lat="45.439873562242646" lon="11.548344856937886"><ele>373.0</ele><time>2026-04-12T07:07:47Z</time></trkpt><trkpt lat="45.43993111251028" lon="11.548277518036556"><ele>372.0</ele><time>2026-04-12T07:07:48Z</time></trkpt><trkpt lat="45.4400204885248" lon="11.548202461372414"><ele>369.8</ele><time>2026-04-12T07:07:49Z</time></trkpt><trkpt lat="45.440104064144485" lon="11.548140205495981"><ele>367.6</ele><time>2026-04-12T07:07:50Z</time></trkpt><trkpt lat="45.44018894347098" lon="11.548096404125632"><ele>365.40000000000003</ele><time>2026-04-12T07:07:51Z</time></trkpt><trkpt lat="45.440275784612524" lon="11.548034954520501"><ele>363.20000000000005</ele><time>2026-04-12T07:07:52Z</time></trkpt><trkpt lat="45.44037510772125" lon="11.547976080547429"><ele>361.0</ele><time>2026-04-12T07:07:53Z</time></trkpt><trkpt lat="45.440459265714395" lon="11.54793066409594"><ele>360.66666666666663</ele><time>2026-04-12T07:07:54Z</time></trkpt><trkpt lat="45.44053502228139" lon="11.547913112034372"><ele>360.3333333333333</ele><time>2026-04-12T07:07:55Z</time></trkpt><trkpt lat="45.44059933237618" lon="11.547935494013648"><ele>360.0</ele><time>2026-04-12T07:07:56Z</time></trkpt><trkpt lat="45.440735171339725" lon="11.5480095850485"><ele>359.6666666666667</ele><time>2026-04-12T07:07:58Z</time></trkpt><trkpt lat="45.44080097911736" lon="11.548013955215357"><ele>359.33333333333337</ele><time>2026-04-12T07:07:59Z</time></trkpt><trkpt lat="45.440886993169215" lon="11.54800021582153"><ele>359.0</ele><time>2026-04-12T07:08:01Z</time></trkpt><trkpt lat="45.44095393636226" lon="11.54795815364447"><ele>359.25</ele><time>2026-04-12T07:08:05Z</time></trkpt><trkpt lat="45.44097439684157" lon="11.547776947222443"><ele>359.5</ele><time>2026-04-12T07:08:07Z</time></trkpt><trkpt lat="45.44099595289767" lon="11.547589861446804"><ele>359.75</ele><time>2026-04-12T07:08:09Z</time></trkpt><trkpt lat="45.44102508010803" lon="11.54743955861641"><ele>360.0</ele><time>2026-04-12T07:08:10Z</time></trkpt><trkpt lat="45.441068996336206" lon="11.547303176554486"><ele>360.0</ele><time>2026-04-12T07:08:11Z</time></trkpt><trkpt lat="45.44109294000247" lon="11.54715357821864"><ele>360.0</ele><time>2026-04-12T07:08:12Z</time></trkpt><trkpt lat="45.44112035841462" lon="11.54702535325821"><ele>360.0</ele><time>2026-04-12T07:08:13Z</time></trkpt><trkpt lat="45.441144250067026" lon="11.546875574113443"><ele>360.0</ele><time>2026-04-12T07:08:14Z</time></trkpt><trkpt lat="45.44115910746661" lon="11.546717466850978"><ele>360.0</ele><time>2026-04-12T07:08:15Z</time></trkpt><trkpt lat="45.44115861427834" lon="11.546554454809263"><ele>359.8</ele><time>2026-04-12T07:08:16Z</time></trkpt><trkpt lat="45.441144154153065" lon="11.54640536136998"><ele>359.6</ele><time>2026-04-12T07:08:17Z</time></trkpt><trkpt lat="45.441123024270624" lon="11.54627222651416"><ele>359.4</ele><time>2026-04-12T07:08:18Z</time></trkpt><trkpt lat="45.441110645060746" lon="11.54615000508773"><ele>359.2</ele><time>2026-04-12T07:08:19Z</time></trkpt><trkpt lat="45.44110490296075" lon="11.54602018350761"><ele>359.0</ele><time>2026-04-12T07:08:20Z</time></trkpt><trkpt lat="45.44110250821685" lon="11.54588349284791"><ele>360.0</ele><time>2026-04-12T07:08:21Z</time></trkpt><trkpt lat="45.441108939117896" lon="11.545741360561202"><ele>361.0</ele><time>2026-04-12T07:08:22Z</time></trkpt><trkpt lat="45.44111667585697" lon="11.545597464167264"><ele>362.0</ele><time>2026-04-12T07:08:23Z</time></trkpt><trkpt lat="45.44113279939011" lon="11.54544406981845"><ele>363.0</ele><time>2026-04-12T07:08:24Z</time></trkpt><trkpt lat="45.44116559151353" lon="11.545312453662635"><ele>364.0</ele><time>2026-04-12T07:08:25Z</time></trkpt><trkpt lat="45.44121877525142" lon="11.545193283501076"><ele>365.6</ele><time>2026-04-12T07:08:26Z</time></trkpt><trkpt lat="45.44127909346082" lon="11.545077508325917"><ele>367.2</ele><time>2026-04-12T07:08:27Z</time></trkpt><trkpt lat="45.44133712330598" lon="11.54497512595414"><ele>368.8</ele><time>2026-04-12T07:08:28Z</time></trkpt><trkpt lat="45.441390131704686" lon="11.544880431185469"><ele>370.40000000000003</ele><time>2026-04-12T07:08:29Z</time></trkpt><trkpt lat="45.44144084868961" lon="11.544774516822555"><ele>372.0</ele><time>2026-04-12T07:08:30Z</time></trkpt><trkpt lat="45.441492415282816" lon="11.544655838200137"><ele>368.8</ele><time>2026-04-12T07:08:31Z</time></trkpt><trkpt lat="45.4415407552518" lon="11.544522166018595"><ele>365.6</ele><time>2026-04-12T07:08:32Z</time></trkpt><trkpt lat="45.44159582794961" lon="11.54439112862825"><ele>362.40000000000003</ele><time>2026-04-12T07:08:33Z</time></trkpt><trkpt lat="45.44163536409896" lon="11.544243643471882"><ele>359.20000000000005</ele><time>2026-04-12T07:08:34Z</time></trkpt><trkpt lat="45.44164778790285" lon="11.544090949595635"><ele>356.0</ele><time>2026-04-12T07:08:35Z</time></trkpt><trkpt lat="45.441635882298236" lon="11.543943760585721"><ele>356.0</ele><time>2026-04-12T07:08:36Z</time></trkpt><trkpt lat="45.44162194293475" lon="11.54379178256951"><ele>356.0</ele><time>2026-04-12T07:08:37Z</time></trkpt><trkpt lat="45.44161868652927" lon="11.543639662256531"><ele>356.0</ele><time>2026-04-12T07:08:38Z</time></trkpt><trkpt lat="45.441615489354525" lon="11.5434867107172"><ele>356.0</ele><time>2026-04-12T07:08:39Z</time></trkpt><trkpt lat="45.4416055015125" lon="11.543339431310102"><ele>356.0</ele><time>2026-04-12T07:08:40Z</time></trkpt><trkpt lat="45.441585224830966" lon="11.543202788764443"><ele>356.0</ele><time>2026-04-12T07:08:41Z</time></trkpt><trkpt lat="45.44155780546786" lon="11.543076105224955"><ele>356.0</ele><time>2026-04-12T07:08:42Z</time></trkpt><trkpt lat="45.44152020982663" lon="11.542963373218006"><ele>356.0</ele><time>2026-04-12T07:08:43Z</time></trkpt><trkpt lat="45.441481676028154" lon="11.542858019621043"><ele>356.0</ele><time>2026-04-12T07:08:44Z</time></trkpt><trkpt lat="45.44143358652462" lon="11.542765482434415"><ele>356.0</ele><time>2026-04-12T07:08:45Z</time></trkpt><trkpt lat="45.4413928819108" lon="11.54268707727283"><ele>356.0</ele><time>2026-04-12T07:08:46Z</time></trkpt><trkpt lat="45.44139997326302" lon="11.542565416855181"><ele>356.0</ele><time>2026-04-12T07:08:48Z</time></trkpt><trkpt lat="45.44145374780298" lon="11.542485192512963"><ele>356.0</ele><time>2026-04-12T07:08:49Z</time></trkpt><trkpt lat="45.4415319144741" lon="11.542374024788327"><ele>356.0</ele><time>2026-04-12T07:08:50Z</time></trkpt><trkpt lat="45.441612008038575" lon="11.542208779968009"><ele>356.0</ele><time>2026-04-12T07:08:51Z</time></trkpt><trkpt lat="45.44170944045195" lon="11.54202901400115"><ele>359.0</ele><time>2026-04-12T07:08:52Z</time></trkpt><trkpt lat="45.44180118797823" lon="11.54183113896558"><ele>362.0</ele><time>2026-04-12T07:08:53Z</time></trkpt><trkpt lat="45.44187896600289" lon="11.541677470489695"><ele>365.0</ele><time>2026-04-12T07:08:54Z</time></trkpt><trkpt lat="45.44196581786227" lon="11.541554739749342"><ele>368.0</ele><time>2026-04-12T07:08:55Z</time></trkpt><trkpt lat="45.44205791107914" lon="11.541442093650833"><ele>366.4</ele><time>2026-04-12T07:08:56Z</time></trkpt><trkpt lat="45.442136887132456" lon="11.541330767832873"><ele>364.79999999999995</ele><time>2026-04-12T07:08:57Z</time></trkpt><trkpt lat="45.44219926065993" lon="11.54121657282356"><ele>363.2</ele><time>2026-04-12T07:08:58Z</time></trkpt><trkpt lat="45.442266585928635" lon="11.541118142310648"><ele>361.6</ele><time>2026-04-12T07:08:59Z</time></trkpt><trkpt lat="45.442326792205535" lon="11.541042064321855"><ele>360.0</ele><time>2026-04-12T07:09:00Z</time></trkpt><trkpt lat="45.442376576451856" lon="11.540962287922998"><ele>360.0</ele><time>2026-04-12T07:09:01Z</time></trkpt><trkpt lat="45.44242014733847" lon="11.540874381737913"><ele>360.0</ele><time>2026-04-12T07:09:02Z</time></trkpt><trkpt lat="45.44245318860228" lon="11.540769201781208"><ele>360.0</ele><time>2026-04-12T07:09:03Z</time></trkpt><trkpt lat="45.44250023978509" lon="11.540686627217763"><ele>360.0</ele><time>2026-04-12T07:09:04Z</time></trkpt><trkpt lat="45.442542333949916" lon="11.540525219830066"><ele>360.0</ele><time>2026-04-12T07:09:05Z</time></trkpt><trkpt lat="45.442592778061886" lon="11.540382994290363"><ele>360.5</ele><time>2026-04-12T07:09:06Z</time></trkpt><trkpt lat="45.44263096897415" lon="11.540258554501563"><ele>361.0</ele><time>2026-04-12T07:09:07Z</time></trkpt><trkpt lat="45.4426623999103" lon="11.540152579611112"><ele>361.5</ele><time>2026-04-12T07:09:08Z</time></trkpt><trkpt lat="45.44270081812949" lon="11.54005884739293"><ele>362.0</ele><time>2026-04-12T07:09:09Z</time></trkpt><trkpt lat="45.44273405236937" lon="11.539946567386519"><ele>362.5</ele><time>2026-04-12T07:09:10Z</time></trkpt><trkpt lat="45.442784366518964" lon="11.539809187505123"><ele>363.0</ele><time>2026-04-12T07:09:11Z</time></trkpt><trkpt lat="45.442823012083664" lon="11.539684131864536"><ele>363.0</ele><time>2026-04-12T07:09:12Z</time></trkpt><trkpt lat="45.44286014372454" lon="11.539587283199792"><ele>363.0</ele><time>2026-04-12T07:09:13Z</time></trkpt><trkpt lat="45.44289625439145" lon="11.539482131249803"><ele>363.0</ele><time>2026-04-12T07:09:14Z</time></trkpt><trkpt lat="45.44291932126664" lon="11.53937854174283"><ele>363.0</ele><time>2026-04-12T07:09:15Z</time></trkpt><trkpt lat="45.44295390975558" lon="11.539297882792209"><ele>363.0</ele><time>2026-04-12T07:09:16Z</time></trkpt><trkpt lat="45.443006619881764" lon="11.53921609148331"><ele>363.0</ele><time>2026-04-12T07:09:17Z</time></trkpt><trkpt lat="45.44306737270919" lon="11.539125122533411"><ele>362.0</ele><time>2026-04-12T07:09:18Z</time></trkpt><trkpt lat="45.44313655638858" lon="11.53900789596531"><ele>361.0</ele><time>2026-04-12T07:09:19Z</time></trkpt><trkpt lat="45.44319117692938" lon="11.538908342863813"><ele>360.0</ele><time>2026-04-12T07:09:20Z</time></trkpt><trkpt lat="45.443243223369045" lon="11.538822893977947"><ele>359.0</ele><time>2026-04-12T07:09:21Z</time></trkpt><trkpt lat="45.44328695858156" lon="11.538738840048305"><ele>358.0</ele><time>2026-04-12T07:09:22Z</time></trkpt><trkpt lat="45.44338234028326" lon="11.538660802364703"><ele>357.0</ele><time>2026-04-12T07:09:24Z</time></trkpt><trkpt lat="45.44347159458764" lon="11.53873359270504"><ele>356.0</ele><time>2026-04-12T07:09:26Z</time></trkpt><trkpt lat="45.443570228794115" lon="11.538882052462295"><ele>355.0</ele><time>2026-04-12T07:09:28Z</time></trkpt><trkpt lat="45.44364789015784" lon="11.53894538583251"><ele>354.0</ele><time>2026-04-12T07:09:29Z</time></trkpt><trkpt lat="45.44370994803104" lon="11.539007620532319"><ele>353.0</ele><time>2026-04-12T07:09:30Z</time></trkpt><trkpt lat="45.4437753956246" lon="11.53906104907177"><ele>353.5</ele><time>2026-04-12T07:09:31Z</time></trkpt><trkpt lat="45.443850348334266" lon="11.539114780677155"><ele>354.0</ele><time>2026-04-12T07:09:32Z</time></trkpt><trkpt lat="45.44392003444831" lon="11.539153334908567"><ele>354.5</ele><time>2026-04-12T07:09:33Z</time></trkpt><trkpt lat="45.44398415375162" lon="11.539203220910437"><ele>355.0</ele><time>2026-04-12T07:09:34Z</time></trkpt><trkpt lat="45.444042670867425" lon="11.539274795287612"><ele>355.5</ele><time>2026-04-12T07:09:35Z</time></trkpt><trkpt lat="45.444109991060806" lon="11.539293771234037"><ele>356.0</ele><time>2026-04-12T07:09:36Z</time></trkpt><trkpt lat="45.44419200881978" lon="11.539258819540352"><ele>356.0</ele><time>2026-04-12T07:09:37Z</time></trkpt><trkpt lat="45.44431026419023" lon="11.539209678659459"><ele>356.0</ele><time>2026-04-12T07:09:38Z</time></trkpt><trkpt lat="45.44444399476126" lon="11.539154847589115"><ele>356.0</ele><time>2026-04-12T07:09:39Z</time></trkpt><trkpt lat="45.44456235443683" lon="11.539076511745384"><ele>356.0</ele><time>2026-04-12T07:09:40Z</time></trkpt><trkpt lat="45.44470598791199" lon="11.539036811115626"><ele>357.33333333333337</ele><time>2026-04-12T07:09:41Z</time></trkpt><trkpt lat="45.44481205273601" lon="11.53899500017174"><ele>358.6666666666667</ele><time>2026-04-12T07:09:42Z</time></trkpt><trkpt lat="45.44490967820323" lon="11.538979151271302"><ele>360.0</ele><time>2026-04-12T07:09:43Z</time></trkpt><trkpt lat="45.44498721846898" lon="11.538995042964832"><ele>361.3333333333333</ele><time>2026-04-12T07:09:44Z</time></trkpt><trkpt lat="45.44507343404977" lon="11.538979161587827"><ele>362.66666666666663</ele><time>2026-04-12T07:09:45Z</time></trkpt><trkpt lat="45.44514182941535" lon="11.538944670071626"><ele>364.0</ele><time>2026-04-12T07:09:46Z</time></trkpt><trkpt lat="45.445233877533674" lon="11.538883260923756"><ele>364.0</ele><time>2026-04-12T07:09:47Z</time></trkpt><trkpt lat="45.44533824866696" lon="11.538807864759434"><ele>364.0</ele><time>2026-04-12T07:09:48Z</time></trkpt><trkpt lat="45.445436319053464" lon="11.538736967536122"><ele>364.0</ele><time>2026-04-12T07:09:49Z</time></trkpt><trkpt lat="45.44549535670876" lon="11.53867389132946"><ele>364.0</ele><time>2026-04-12T07:09:50Z</time></trkpt><trkpt lat="45.445564550900365" lon="11.538580388683672"><ele>364.0</ele><time>2026-04-12T07:09:51Z</time></trkpt><trkpt lat="45.44563969790695" lon="11.538518574608762"><ele>362.3333333333333</ele><time>2026-04-12T07:09:52Z</time></trkpt><trkpt lat="45.44572729181692" lon="11.538470628682"><ele>360.66666666666663</ele><time>2026-04-12T07:09:53Z</time></trkpt><trkpt lat="45.44580975811921" lon="11.53844234196622"><ele>359.0</ele><time>2026-04-12T07:09:54Z</time></trkpt><trkpt lat="45.445874369194215" lon="11.538383058573839"><ele>357.3333333333333</ele><time>2026-04-12T07:09:55Z</time></trkpt><trkpt lat="45.445945634013505" lon="11.538338236272402"><ele>355.6666666666667</ele><time>2026-04-12T07:09:56Z</time></trkpt><trkpt lat="45.44601659200111" lon="11.538326134174122"><ele>354.0</ele><time>2026-04-12T07:09:57Z</time></trkpt><trkpt lat="45.44618497462068" lon="11.538333003518984"><ele>354.0</ele><time>2026-04-12T07:09:59Z</time></trkpt><trkpt lat="45.44628365029928" lon="11.53834091873381"><ele>354.0</ele><time>2026-04-12T07:10:00Z</time></trkpt><trkpt lat="45.446387650523896" lon="11.538353536188128"><ele>354.0</ele><time>2026-04-12T07:10:01Z</time></trkpt><trkpt lat="45.446473340692016" lon="11.538353159417625"><ele>354.0</ele><time>2026-04-12T07:10:02Z</time></trkpt><trkpt lat="45.44654875421738" lon="11.538346726905663"><ele>354.0</ele><time>2026-04-12T07:10:03Z</time></trkpt><trkpt lat="45.44662785433572" lon="11.53831834915223"><ele>354.0</ele><time>2026-04-12T07:10:04Z</time></trkpt><trkpt lat="45.44670392962413" lon="11.538289423050552"><ele>354.3333333333333</ele><time>2026-04-12T07:10:05Z</time></trkpt><trkpt lat="45.44678935978774" lon="11.538247827627371"><ele>354.6666666666667</ele><time>2026-04-12T07:10:06Z</time></trkpt><trkpt lat="45.44686109253041" lon="11.53821498329251"><ele>355.0</ele><time>2026-04-12T07:10:07Z</time></trkpt><trkpt lat="45.446942262100755" lon="11.538164723054312"><ele>355.33333333333337</ele><time>2026-04-12T07:10:08Z</time></trkpt><trkpt lat="45.44702480931449" lon="11.53811813193841"><ele>355.6666666666667</ele><time>2026-04-12T07:10:09Z</time></trkpt><trkpt lat="45.447095987554896" lon="11.538077167956402"><ele>356.0</ele><time>2026-04-12T07:10:10Z</time></trkpt><trkpt lat="45.44715720884626" lon="11.538030247253445"><ele>356.0</ele><time>2026-04-12T07:10:11Z</time></trkpt><trkpt lat="45.447220633285724" lon="11.538068506172525"><ele>356.0</ele><time>2026-04-12T07:10:13Z</time></trkpt><trkpt lat="45.44720564444472" lon="11.538231399183902"><ele>356.0</ele><time>2026-04-12T07:10:15Z</time></trkpt><trkpt lat="45.44718882204602" lon="11.538325834922073"><ele>356.0</ele><time>2026-04-12T07:10:16Z</time></trkpt><trkpt lat="45.44729581579838" lon="11.538473041894388"><ele>356.0</ele><time>2026-04-12T07:10:18Z</time></trkpt><trkpt lat="45.44742902933592" lon="11.53856215163574"><ele>356.0</ele><time>2026-04-12T07:10:19Z</time></trkpt><trkpt lat="45.447514152242725" lon="11.538639402782994"><ele>356.0</ele><time>2026-04-12T07:10:20Z</time></trkpt><trkpt lat="45.447574710780145" lon="11.538735554981976"><ele>356.0</ele><time>2026-04-12T07:10:21Z</time></trkpt><trkpt lat="45.447626026421034" lon="11.538804981473794"><ele>356.0</ele><time>2026-04-12T07:10:22Z</time></trkpt><trkpt lat="45.447674462999714" lon="11.53894679529716"><ele>356.0</ele><time>2026-04-12T07:10:24Z</time></trkpt><trkpt lat="45.44762624804545" lon="11.539056452303853"><ele>357.4</ele><time>2026-04-12T07:10:25Z</time></trkpt><trkpt lat="45.44760845622865" lon="11.539203667365001"><ele>358.8</ele><time>2026-04-12T07:10:26Z</time></trkpt><trkpt lat="45.44760289751108" lon="11.539371915286072"><ele>360.2</ele><time>2026-04-12T07:10:27Z</time></trkpt><trkpt lat="45.4476031262892" lon="11.53953083661751"><ele>361.59999999999997</ele><time>2026-04-12T07:10:28Z</time></trkpt><trkpt lat="45.44760461019945" lon="11.539630795891979"><ele>363.0</ele><time>2026-04-12T07:10:29Z</time></trkpt><trkpt lat="45.44760611671497" lon="11.539722210107474"><ele>363.0</ele><time>2026-04-12T07:10:31Z</time></trkpt><trkpt lat="45.4476344955287" lon="11.539822011590436"><ele>363.0</ele><time>2026-04-12T07:10:33Z</time></trkpt><trkpt lat="45.44752418985399" lon="11.539799534194216"><ele>363.0</ele><time>2026-04-12T07:10:39Z</time></trkpt><trkpt lat="45.447456532218474" lon="11.539748953327996"><ele>363.0</ele><time>2026-04-12T07:10:41Z</time></trkpt><trkpt lat="45.4474272464217" lon="11.539642114778614"><ele>363.0</ele><time>2026-04-12T07:10:43Z</time></trkpt><trkpt lat="45.44733565497152" lon="11.539486721368275"><ele>363.0</ele><time>2026-04-12T07:10:45Z</time></trkpt><trkpt lat="45.44724706541084" lon="11.5394105507709"><ele>363.0</ele><time>2026-04-12T07:10:47Z</time></trkpt><trkpt lat="45.44714480764794" lon="11.539478421771152"><ele>363.0</ele><time>2026-04-12T07:10:49Z</time></trkpt><trkpt lat="45.4470277799635" lon="11.539520221881519"><ele>363.0</ele><time>2026-04-12T07:10:51Z</time></trkpt><trkpt lat="45.4469534669184" lon="11.5394755126108"><ele>363.0</ele><time>2026-04-12T07:10:52Z</time></trkpt><trkpt lat="45.446830272418204" lon="11.539479445742893"><ele>365.4</ele><time>2026-04-12T07:10:54Z</time></trkpt><trkpt lat="45.44674365582051" lon="11.539493904226436"><ele>367.79999999999995</ele><time>2026-04-12T07:10:55Z</time></trkpt><trkpt lat="45.44663557233672" lon="11.539509027525748"><ele>370.2</ele><time>2026-04-12T07:10:56Z</time></trkpt><trkpt lat="45.44653438501016" lon="11.539532232134878"><ele>372.6</ele><time>2026-04-12T07:10:57Z</time></trkpt><trkpt lat="45.44645489126319" lon="11.53955544689744"><ele>375.0</ele><time>2026-04-12T07:10:58Z</time></trkpt><trkpt lat="45.44638183317211" lon="11.539556826443288"><ele>377.0</ele><time>2026-04-12T07:10:59Z</time></trkpt><trkpt lat="45.44626814006379" lon="11.539578972440891"><ele>379.0</ele><time>2026-04-12T07:11:01Z</time></trkpt><trkpt lat="45.4462039274733" lon="11.539642521788032"><ele>381.0</ele><time>2026-04-12T07:11:02Z</time></trkpt><trkpt lat="45.44614171828786" lon="11.539733413125015"><ele>383.0</ele><time>2026-04-12T07:11:03Z</time></trkpt><trkpt lat="45.446091308331944" lon="11.539826601189633"><ele>385.0</ele><time>2026-04-12T07:11:04Z</time></trkpt><trkpt lat="45.4460214718295" lon="11.53993026317563"><ele>385.0</ele><time>2026-04-12T07:11:05Z</time></trkpt><trkpt lat="45.44594819075449" lon="11.540020307983522"><ele>385.0</ele><time>2026-04-12T07:11:06Z</time></trkpt><trkpt lat="45.445882654464334" lon="11.54008217841107"><ele>385.0</ele><time>2026-04-12T07:11:07Z</time></trkpt><trkpt lat="45.445832332040666" lon="11.540172427349377"><ele>385.0</ele><time>2026-04-12T07:11:08Z</time></trkpt><trkpt lat="45.44579246672193" lon="11.540278421293516"><ele>385.0</ele><time>2026-04-12T07:11:09Z</time></trkpt><trkpt lat="45.445720621839286" lon="11.54041908382599"><ele>385.2</ele><time>2026-04-12T07:11:10Z</time></trkpt><trkpt lat="45.445652794012645" lon="11.540558027686046"><ele>385.4</ele><time>2026-04-12T07:11:11Z</time></trkpt><trkpt lat="45.44559855293468" lon="11.540674667497493"><ele>385.6</ele><time>2026-04-12T07:11:12Z</time></trkpt><trkpt lat="45.44555597839897" lon="11.540801722998813"><ele>385.8</ele><time>2026-04-12T07:11:13Z</time></trkpt><trkpt lat="45.445525267631375" lon="11.540934560241674"><ele>386.0</ele><time>2026-04-12T07:11:14Z</time></trkpt><trkpt lat="45.44550925956967" lon="11.54106654551711"><ele>385.99999999999994</ele><time>2026-04-12T07:11:15Z</time></trkpt><trkpt lat="45.44551197642271" lon="11.541193557840078"><ele>386.0</ele><time>2026-04-12T07:11:16Z</time></trkpt><trkpt lat="45.445528655285074" lon="11.54129788444792"><ele>386.0</ele><time>2026-04-12T07:11:17Z</time></trkpt><trkpt lat="45.44554752220156" lon="11.541394003182138"><ele>386.0</ele><time>2026-04-12T07:11:18Z</time></trkpt><trkpt lat="45.44551489909014" lon="11.541569106784427"><ele>385.99999999999994</ele><time>2026-04-12T07:11:20Z</time></trkpt><trkpt lat="45.4455000102528" lon="11.541673046751496"><ele>386.0</ele><time>2026-04-12T07:11:21Z</time></trkpt><trkpt lat="45.44549294546205" lon="11.5417893642982"><ele>387.8333333333333</ele><time>2026-04-12T07:11:22Z</time></trkpt><trkpt lat="45.4454545629465" lon="11.54189575031112"><ele>389.66666666666663</ele><time>2026-04-12T07:11:23Z</time></trkpt><trkpt lat="45.44542000122972" lon="11.541996066719623"><ele>391.5</ele><time>2026-04-12T07:11:24Z</time></trkpt><trkpt lat="45.445394097016525" lon="11.542083515209848"><ele>393.33333333333337</ele><time>2026-04-12T07:11:25Z</time></trkpt><trkpt lat="45.44535684519123" lon="11.542182344670675"><ele>395.1666666666667</ele><time>2026-04-12T07:11:26Z</time></trkpt><trkpt lat="45.445312558453715" lon="11.542293343826802"><ele>397.0</ele><time>2026-04-12T07:11:27Z</time></trkpt><trkpt lat="45.4452760679871" lon="11.542380209856324"><ele>397.6666666666667</ele><time>2026-04-12T07:11:28Z</time></trkpt><trkpt lat="45.44523991154425" lon="11.542477953298233"><ele>398.33333333333337</ele><time>2026-04-12T07:11:29Z</time></trkpt><trkpt lat="45.44521233602641" lon="11.542584251196951"><ele>399.0</ele><time>2026-04-12T07:11:30Z</time></trkpt><trkpt lat="45.445174368030685" lon="11.542681388528987"><ele>399.66666666666663</ele><time>2026-04-12T07:11:31Z</time></trkpt><trkpt lat="45.44517425282077" lon="11.542781795451075"><ele>400.3333333333333</ele><time>2026-04-12T07:11:32Z</time></trkpt><trkpt lat="45.445250102855226" lon="11.542925651566833"><ele>401.0</ele><time>2026-04-12T07:11:33Z</time></trkpt><trkpt lat="45.445309985645444" lon="11.542999076598997"><ele>401.0</ele><time>2026-04-12T07:11:34Z</time></trkpt><trkpt lat="45.44539877336569" lon="11.54313910401799"><ele>401.0</ele><time>2026-04-12T07:11:36Z</time></trkpt><trkpt lat="45.44543516977471" lon="11.543229907843282"><ele>401.0</ele><time>2026-04-12T07:11:37Z</time></trkpt><trkpt lat="45.44544015916306" lon="11.543374947464828"><ele>401.0</ele><time>2026-04-12T07:11:39Z</time></trkpt><trkpt lat="45.44539714924645" lon="11.543496933831666"><ele>401.0</ele><time>2026-04-12T07:11:41Z</time></trkpt><trkpt lat="45.44529983227618" lon="11.543605097005111"><ele>400.99999999999994</ele><time>2026-04-12T07:11:43Z</time></trkpt><trkpt lat="45.44521429336941" lon="11.54364689507003"><ele>401.0</ele><time>2026-04-12T07:11:44Z</time></trkpt><trkpt lat="45.445157916975155" lon="11.543725236880261"><ele>401.0</ele><time>2026-04-12T07:11:45Z</time></trkpt><trkpt lat="45.44511165971306" lon="11.543824247722863"><ele>401.0</ele><time>2026-04-12T07:11:46Z</time></trkpt><trkpt lat="45.44509240801766" lon="11.54394051251254"><ele>400.99999999999994</ele><time>2026-04-12T07:11:47Z</time></trkpt><trkpt lat="45.44510590099186" lon="11.544065906204434"><ele>401.0</ele><time>2026-04-12T07:11:48Z</time></trkpt><trkpt lat="45.445107543500136" lon="11.54417420324568"><ele>399.8</ele><time>2026-04-12T07:11:49Z</time></trkpt><trkpt lat="45.44509568920459" lon="11.54426328010099"><ele>398.6</ele><time>2026-04-12T07:11:50Z</time></trkpt><trkpt lat="45.44501930059163" lon="11.544412650159655"><ele>397.4</ele><time>2026-04-12T07:11:52Z</time></trkpt><trkpt lat="45.44494512780757" lon="11.544528513181962"><ele>396.2</ele><time>2026-04-12T07:11:53Z</time></trkpt><trkpt lat="45.444900517571824" lon="11.54463709649027"><ele>395.0</ele><time>2026-04-12T07:11:54Z</time></trkpt><trkpt lat="45.44484425878963" lon="11.544726965299958"><ele>394.8333333333333</ele><time>2026-04-12T07:11:55Z</time></trkpt><trkpt lat="45.4448122309666" lon="11.544828005126552"><ele>394.66666666666663</ele><time>2026-04-12T07:11:56Z</time></trkpt><trkpt lat="45.44475411141539" lon="11.54492839298565"><ele>394.5</ele><time>2026-04-12T07:11:57Z</time></trkpt><trkpt lat="45.444695197912225" lon="11.545006443848678"><ele>394.33333333333337</ele><time>2026-04-12T07:11:58Z</time></trkpt><trkpt lat="45.4446420071905" lon="11.545067281293637"><ele>394.1666666666667</ele><time>2026-04-12T07:11:59Z</time></trkpt><trkpt lat="45.4445893690301" lon="11.545135109845363"><ele>394.0</ele><time>2026-04-12T07:12:00Z</time></trkpt><trkpt lat="45.444563063571586" lon="11.545249102855283"><ele>393.0</ele><time>2026-04-12T07:12:01Z</time></trkpt><trkpt lat="45.44447792609043" lon="11.545384511169202"><ele>392.0</ele><time>2026-04-12T07:12:03Z</time></trkpt><trkpt lat="45.44443845879652" lon="11.545468835447766"><ele>391.0</ele><time>2026-04-12T07:12:04Z</time></trkpt><trkpt lat="45.44439805449059" lon="11.545604342213265"><ele>390.0</ele><time>2026-04-12T07:12:06Z</time></trkpt><trkpt lat="45.444372176034406" lon="11.545735590391587"><ele>389.0</ele><time>2026-04-12T07:12:08Z</time></trkpt><trkpt lat="45.4444192110356" lon="11.545902002629893"><ele>389.0</ele><time>2026-04-12T07:12:10Z</time></trkpt><trkpt lat="45.444446656440064" lon="11.546019226184479"><ele>389.0</ele><time>2026-04-12T07:12:11Z</time></trkpt><trkpt lat="45.44446065186793" lon="11.546148657987215"><ele>389.0</ele><time>2026-04-12T07:12:12Z</time></trkpt><trkpt lat="45.444462992462014" lon="11.546280868178124"><ele>389.0</ele><time>2026-04-12T07:12:13Z</time></trkpt><trkpt lat="45.44447469932882" lon="11.546420870251438"><ele>389.0</ele><time>2026-04-12T07:12:14Z</time></trkpt><trkpt lat="45.444484193873755" lon="11.54653309677007"><ele>389.66666666666663</ele><time>2026-04-12T07:12:15Z</time></trkpt><trkpt lat="45.44448416179713" lon="11.54662333598834"><ele>390.3333333333333</ele><time>2026-04-12T07:12:16Z</time></trkpt><trkpt lat="45.4444651985919" lon="11.546732269336054"><ele>391.0</ele><time>2026-04-12T07:12:18Z</time></trkpt><trkpt lat="45.44446287910337" lon="11.546830288010899"><ele>391.66666666666663</ele><time>2026-04-12T07:12:20Z</time></trkpt><trkpt lat="45.444490797157414" lon="11.546949856712144"><ele>392.3333333333333</ele><time>2026-04-12T07:12:22Z</time></trkpt><trkpt lat="45.444550784994036" lon="11.547031315040707"><ele>393.0</ele><time>2026-04-12T07:12:23Z</time></trkpt><trkpt lat="45.44459009846009" lon="11.547111633209537"><ele>393.00000000000006</ele><time>2026-04-12T07:12:24Z</time></trkpt><trkpt lat="45.44461069561002" lon="11.547197899834625"><ele>393.0</ele><time>2026-04-12T07:12:25Z</time></trkpt><trkpt lat="45.44459371218286" lon="11.547300602815673"><ele>393.0</ele><time>2026-04-12T07:12:26Z</time></trkpt><trkpt lat="45.444608112721106" lon="11.547406630945426"><ele>393.0</ele><time>2026-04-12T07:12:27Z</time></trkpt><trkpt lat="45.44462945337299" lon="11.547497323522725"><ele>393.0</ele><time>2026-04-12T07:12:28Z</time></trkpt><trkpt lat="45.444671960085216" lon="11.547573722217647"><ele>393.00000000000006</ele><time>2026-04-12T07:12:29Z</time></trkpt><trkpt lat="45.444725916146396" lon="11.547646188135538"><ele>393.0</ele><time>2026-04-12T07:12:30Z</time></trkpt><trkpt lat="45.444784084554854" lon="11.547697723611796"><ele>391.6666666666667</ele><time>2026-04-12T07:12:31Z</time></trkpt><trkpt lat="45.44489057721827" lon="11.547714346725696"><ele>390.33333333333337</ele><time>2026-04-12T07:12:33Z</time></trkpt><trkpt lat="45.44496478967661" lon="11.547678725360274"><ele>389.0</ele><time>2026-04-12T07:12:34Z</time></trkpt><trkpt lat="45.44503950584561" lon="11.547614191657964"><ele>387.6666666666667</ele><time>2026-04-12T07:12:35Z</time></trkpt><trkpt lat="45.445107224843" lon="11.547558455987328"><ele>386.33333333333337</ele><time>2026-04-12T07:12:36Z</time></trkpt><trkpt lat="45.445172188219225" lon="11.547485099025717"><ele>385.0</ele><time>2026-04-12T07:12:37Z</time></trkpt><trkpt lat="45.44523540630562" lon="11.547430963372355"><ele>385.00000000000006</ele><time>2026-04-12T07:12:38Z</time></trkpt><trkpt lat="45.445344157425026" lon="11.547417091262776"><ele>385.0</ele><time>2026-04-12T07:12:40Z</time></trkpt><trkpt lat="45.44540050247674" lon="11.5474588724282"><ele>385.0</ele><time>2026-04-12T07:12:41Z</time></trkpt><trkpt lat="45.44546212525738" lon="11.547480746036532"><ele>385.0</ele><time>2026-04-12T07:12:42Z</time></trkpt><trkpt lat="45.44553380649224" lon="11.547485284546546"><ele>385.00000000000006</ele><time>2026-04-12T07:12:43Z</time></trkpt><trkpt lat="45.445606228931034" lon="11.54748045943962"><ele>385.0</ele><time>2026-04-12T07:12:44Z</time></trkpt><trkpt lat="45.44568508509354" lon="11.547486893484061"><ele>383.4</ele><time>2026-04-12T07:12:45Z</time></trkpt><trkpt lat="45.44576532148791" lon="11.547506186809516"><ele>381.8</ele><time>2026-04-12T07:12:46Z</time></trkpt><trkpt lat="45.445836577242645" lon="11.547520506941936"><ele>380.20000000000005</ele><time>2026-04-12T07:12:47Z</time></trkpt><trkpt lat="45.44596961250813" lon="11.547519865418202"><ele>378.6</ele><time>2026-04-12T07:12:49Z</time></trkpt><trkpt lat="45.44606683566079" lon="11.547556020979197"><ele>377.0</ele><time>2026-04-12T07:12:51Z</time></trkpt><trkpt lat="45.44614092297053" lon="11.547580873338259"><ele>377.0</ele><time>2026-04-12T07:12:52Z</time></trkpt><trkpt lat="45.446205840109755" lon="11.547617193655832"><ele>377.0</ele><time>2026-04-12T07:12:53Z</time></trkpt><trkpt lat="45.44629068436047" lon="11.547632073741513"><ele>377.0</ele><time>2026-04-12T07:12:55Z</time></trkpt><trkpt lat="45.4464006147447" lon="11.547655999261211"><ele>377.0</ele><time>2026-04-12T07:12:57Z</time></trkpt><trkpt lat="45.44651067198014" lon="11.547686657578753"><ele>377.0</ele><time>2026-04-12T07:12:59Z</time></trkpt><trkpt lat="45.446622580281705" lon="11.547661620734928"><ele>375.40000000000003</ele><time>2026-04-12T07:13:01Z</time></trkpt><trkpt lat="45.44669552039921" lon="11.547693829535984"><ele>373.8</ele><time>2026-04-12T07:13:03Z</time></trkpt><trkpt lat="45.446764319609414" lon="11.54784202691538"><ele>372.2</ele><time>2026-04-12T07:13:05Z</time></trkpt><trkpt lat="45.44682760072459" lon="11.54798491261875"><ele>370.6</ele><time>2026-04-12T07:13:07Z</time></trkpt><trkpt lat="45.44687357651635" lon="11.548050945655014"><ele>369.0</ele><time>2026-04-12T07:13:08Z</time></trkpt><trkpt lat="45.446913402968285" lon="11.548150894281113"><ele>367.1666666666667</ele><time>2026-04-12T07:13:09Z</time></trkpt><trkpt lat="45.446955109940895" lon="11.548261720339655"><ele>365.3333333333333</ele><time>2026-04-12T07:13:10Z</time></trkpt><trkpt lat="45.44697652343977" lon="11.54835695219955"><ele>363.5</ele><time>2026-04-12T07:13:11Z</time></trkpt><trkpt lat="45.44701448864988" lon="11.548459073415628"><ele>361.66666666666663</ele><time>2026-04-12T07:13:12Z</time></trkpt><trkpt lat="45.447061577470116" lon="11.548542611989213"><ele>359.8333333333333</ele><time>2026-04-12T07:13:13Z</time></trkpt><trkpt lat="45.44709671778254" lon="11.548675826782457"><ele>358.0</ele><time>2026-04-12T07:13:15Z</time></trkpt><trkpt lat="45.44702846580692" lon="11.548776425085812"><ele>357.59999999999997</ele><time>2026-04-12T07:13:17Z</time></trkpt><trkpt lat="45.44698564140647" lon="11.548951783680232"><ele>357.2</ele><time>2026-04-12T07:13:19Z</time></trkpt><trkpt lat="45.446965618189644" lon="11.549059903450123"><ele>356.8</ele><time>2026-04-12T07:13:20Z</time></trkpt><trkpt lat="45.446942726788045" lon="11.549184757894263"><ele>356.4</ele><time>2026-04-12T07:13:21Z</time></trkpt><trkpt lat="45.44692520656713" lon="11.549314269739597"><ele>356.0</ele><time>2026-04-12T07:13:22Z</time></trkpt><trkpt lat="45.446901492096266" lon="11.549424466306817"><ele>356.0</ele><time>2026-04-12T07:13:23Z</time></trkpt><trkpt lat="45.44686400773236" lon="11.549506299405694"><ele>356.0</ele><time>2026-04-12T07:13:24Z</time></trkpt><trkpt lat="45.44683040862556" lon="11.549587187522466"><ele>356.0</ele><time>2026-04-12T07:13:25Z</time></trkpt><trkpt lat="45.44682264083338" lon="11.549679487685282"><ele>356.0</ele><time>2026-04-12T07:13:26Z</time></trkpt><trkpt lat="45.446816009881886" lon="11.549859913189637"><ele>356.0</ele><time>2026-04-12T07:13:28Z</time></trkpt><trkpt lat="45.44680149440042" lon="11.55005383310406"><ele>356.0</ele><time>2026-04-12T07:13:30Z</time></trkpt><trkpt lat="45.44677733548708" lon="11.55014799623664"><ele>356.0</ele><time>2026-04-12T07:13:31Z</time></trkpt><trkpt lat="45.44676451695036" lon="11.55024511027596"><ele>356.0</ele><time>2026-04-12T07:13:32Z</time></trkpt><trkpt lat="45.44674776233613" lon="11.550331892850323"><ele>356.0</ele><time>2026-04-12T07:13:33Z</time></trkpt><trkpt lat="45.44671490924433" lon="11.550500984863396"><ele>356.0</ele><time>2026-04-12T07:13:35Z</time></trkpt><trkpt lat="45.44667859642811" lon="11.5506149001635"><ele>356.0</ele><time>2026-04-12T07:13:36Z</time></trkpt><trkpt lat="45.446652266953535" lon="11.550729056264666"><ele>356.1666666666667</ele><time>2026-04-12T07:13:37Z</time></trkpt><trkpt lat="45.44661898472724" lon="11.550819295906496"><ele>356.33333333333337</ele><time>2026-04-12T07:13:38Z</time></trkpt><trkpt lat="45.44658336910755" lon="11.55090076109617"><ele>356.5</ele><time>2026-04-12T07:13:39Z</time></trkpt><trkpt lat="45.4465445172955" lon="11.550991024964965"><ele>356.6666666666667</ele><time>2026-04-12T07:13:40Z</time></trkpt><trkpt lat="45.44649254081406" lon="11.55109969636733"><ele>356.8333333333333</ele><time>2026-04-12T07:13:41Z</time></trkpt><trkpt lat="45.4464344722863" lon="11.551229290969738"><ele>357.0</ele><time>2026-04-12T07:13:42Z</time></trkpt><trkpt lat="45.44637936309028" lon="11.551362818684503"><ele>357.40000000000003</ele><time>2026-04-12T07:13:43Z</time></trkpt><trkpt lat="45.446341622176924" lon="11.55149363344156"><ele>357.8</ele><time>2026-04-12T07:13:44Z</time></trkpt><trkpt lat="45.44630322005744" lon="11.551615944487843"><ele>358.2</ele><time>2026-04-12T07:13:45Z</time></trkpt><trkpt lat="45.446253244659935" lon="11.5517229371553"><ele>358.6</ele><time>2026-04-12T07:13:46Z</time></trkpt><trkpt lat="45.44619388530623" lon="11.551803627537225"><ele>359.0</ele><time>2026-04-12T07:13:47Z</time></trkpt><trkpt lat="45.446113953805764" lon="11.551865890444388"><ele>358.0</ele><time>2026-04-12T07:13:49Z</time></trkpt><trkpt lat="45.445999212875215" lon="11.551902013513178"><ele>357.0</ele><time>2026-04-12T07:13:55Z</time></trkpt><trkpt lat="45.44589717467819" lon="11.552031208674787"><ele>356.0</ele><time>2026-04-12T07:13:57Z</time></trkpt><trkpt lat="45.44584475406858" lon="11.552116388502853"><ele>355.0</ele><time>2026-04-12T07:13:58Z</time></trkpt><trkpt lat="45.44580363513115" lon="11.552232511959598"><ele>354.0</ele><time>2026-04-12T07:13:59Z</time></trkpt><trkpt lat="45.445778248670635" lon="11.552383956026627"><ele>354.0</ele><time>2026-04-12T07:14:00Z</time></trkpt><trkpt lat="45.44576856782354" lon="11.552508888096053"><ele>354.0</ele><time>2026-04-12T07:14:01Z</time></trkpt><trkpt lat="45.44571420996687" lon="11.552621965984295"><ele>354.0</ele><time>2026-04-12T07:14:02Z</time></trkpt><trkpt lat="45.445653432310486" lon="11.552705138404521"><ele>354.0</ele><time>2026-04-12T07:14:03Z</time></trkpt><trkpt lat="45.44557628697301" lon="11.552765982687228"><ele>354.0</ele><time>2026-04-12T07:14:05Z</time></trkpt><trkpt lat="45.445494865842356" lon="11.552773588531542"><ele>354.0</ele><time>2026-04-12T07:14:07Z</time></trkpt><trkpt lat="45.44546282978086" lon="11.552887774838794"><ele>353.8333333333333</ele><time>2026-04-12T07:14:09Z</time></trkpt><trkpt lat="45.44540669573071" lon="11.552993944762022"><ele>353.6666666666667</ele><time>2026-04-12T07:14:11Z</time></trkpt><trkpt lat="45.44529800374113" lon="11.55308713580881"><ele>353.5</ele><time>2026-04-12T07:14:13Z</time></trkpt><trkpt lat="45.44523231140997" lon="11.553112293661846"><ele>353.33333333333337</ele><time>2026-04-12T07:14:14Z</time></trkpt><trkpt lat="45.44516797188504" lon="11.553125551129748"><ele>353.1666666666667</ele><time>2026-04-12T07:14:15Z</time></trkpt><trkpt lat="45.44508283992746" lon="11.553162940431408"><ele>353.0</ele><time>2026-04-12T07:14:16Z</time></trkpt><trkpt lat="45.44495671353732" lon="11.553282174747421"><ele>353.0</ele><time>2026-04-12T07:14:17Z</time></trkpt><trkpt lat="45.444856250920296" lon="11.553375026297854"><ele>353.0</ele><time>2026-04-12T07:14:18Z</time></trkpt><trkpt lat="45.44475885160227" lon="11.553464069239888"><ele>353.0</ele><time>2026-04-12T07:14:19Z</time></trkpt><trkpt lat="45.444669109042906" lon="11.553549901327388"><ele>353.0</ele><time>2026-04-12T07:14:20Z</time></trkpt><trkpt lat="45.44458969338114" lon="11.553634058926361"><ele>353.0</ele><time>2026-04-12T07:14:21Z</time></trkpt><trkpt lat="45.44450289354814" lon="11.553706994757452"><ele>352.59999999999997</ele><time>2026-04-12T07:14:22Z</time></trkpt><trkpt lat="45.444415740517144" lon="11.553790363236567"><ele>352.2</ele><time>2026-04-12T07:14:23Z</time></trkpt><trkpt lat="45.4443361458357" lon="11.553855721136092"><ele>351.8</ele><time>2026-04-12T07:14:24Z</time></trkpt><trkpt lat="45.44426488153291" lon="11.553905564685225"><ele>351.4</ele><time>2026-04-12T07:14:25Z</time></trkpt><trkpt lat="45.444200015198604" lon="11.553940814559356"><ele>351.0</ele><time>2026-04-12T07:14:26Z</time></trkpt><trkpt lat="45.444098565324616" lon="11.554035072328338"><ele>351.0</ele><time>2026-04-12T07:14:28Z</time></trkpt><trkpt lat="45.4440353089452" lon="11.554071521480514"><ele>351.0</ele><time>2026-04-12T07:14:29Z</time></trkpt><trkpt lat="45.443977401596065" lon="11.554115484935878"><ele>351.0</ele><time>2026-04-12T07:14:30Z</time></trkpt><trkpt lat="45.44389717412274" lon="11.554220189580583"><ele>351.0</ele><time>2026-04-12T07:14:32Z</time></trkpt><trkpt lat="45.44384914599078" lon="11.554294794914679"><ele>351.0</ele><time>2026-04-12T07:14:34Z</time></trkpt><trkpt lat="45.44379807558035" lon="11.554373211332756"><ele>351.0</ele><time>2026-04-12T07:14:36Z</time></trkpt><trkpt lat="45.443730813672886" lon="11.554492918385801"><ele>349.0</ele><time>2026-04-12T07:14:38Z</time></trkpt><trkpt lat="45.443677480401384" lon="11.5546203468476"><ele>347.0</ele><time>2026-04-12T07:14:40Z</time></trkpt><trkpt lat="45.443626131907635" lon="11.554749369773937"><ele>345.0</ele><time>2026-04-12T07:14:42Z</time></trkpt><trkpt lat="45.44362228213364" lon="11.554842790750984"><ele>343.0</ele><time>2026-04-12T07:14:43Z</time></trkpt><trkpt lat="45.44360528317218" lon="11.555016123758168"><ele>341.0</ele><time>2026-04-12T07:14:45Z</time></trkpt><trkpt lat="45.44360688306669" lon="11.555128390286338"><ele>341.0</ele><time>2026-04-12T07:14:46Z</time></trkpt><trkpt lat="45.44361968336904" lon="11.555311404969228"><ele>341.0</ele><time>2026-04-12T07:14:48Z</time></trkpt><trkpt lat="45.4436088427601" lon="11.555469196260555"><ele>341.0</ele><time>2026-04-12T07:14:50Z</time></trkpt><trkpt lat="45.44367184188234" lon="11.555587428825824"><ele>341.0</ele><time>2026-04-12T07:14:52Z</time></trkpt><trkpt lat="45.443646534899194" lon="11.555732032803077"><ele>341.0</ele><time>2026-04-12T07:14:55Z</time></trkpt><trkpt lat="45.44358646742104" lon="11.555794965623873"><ele>340.6</ele><time>2026-04-12T07:14:56Z</time></trkpt><trkpt lat="45.4435021193128" lon="11.55587011834525"><ele>340.20000000000005</ele><time>2026-04-12T07:14:58Z</time></trkpt><trkpt lat="45.44340145928123" lon="11.555886507051058"><ele>339.79999999999995</ele><time>2026-04-12T07:14:59Z</time></trkpt><trkpt lat="45.44331733578602" lon="11.55590903021152"><ele>339.4</ele><time>2026-04-12T07:15:00Z</time></trkpt><trkpt lat="45.44324656591058" lon="11.555973599452104"><ele>339.0</ele><time>2026-04-12T07:15:01Z</time></trkpt><trkpt lat="45.443179988906095" lon="11.556053699622801"><ele>339.0</ele><time>2026-04-12T07:15:02Z</time></trkpt><trkpt lat="45.44311819036988" lon="11.556133630213752"><ele>339.0</ele><time>2026-04-12T07:15:03Z</time></trkpt><trkpt lat="45.443044353648865" lon="11.55622988859085"><ele>339.0</ele><time>2026-04-12T07:15:05Z</time></trkpt><trkpt lat="45.44299728494809" lon="11.556319785061174"><ele>339.0</ele><time>2026-04-12T07:15:07Z</time></trkpt><trkpt lat="45.44294064097996" lon="11.556403560982076"><ele>339.0</ele><time>2026-04-12T07:15:09Z</time></trkpt><trkpt lat="45.44289303712455" lon="11.556492824592578"><ele>339.0</ele><time>2026-04-12T07:15:11Z</time></trkpt><trkpt lat="45.442833117102914" lon="11.55644300976492"><ele>334.1666666666667</ele><time>2026-04-12T07:15:14Z</time></trkpt><trkpt lat="45.442750606708415" lon="11.556348407847242"><ele>329.3333333333333</ele><time>2026-04-12T07:15:16Z</time></trkpt><trkpt lat="45.44268369796054" lon="11.556391125747735"><ele>324.5</ele><time>2026-04-12T07:15:20Z</time></trkpt><trkpt lat="45.442724025349335" lon="11.556513386714435"><ele>319.66666666666663</ele><time>2026-04-12T07:15:22Z</time></trkpt><trkpt lat="45.442765403682664" lon="11.556593636967829"><ele>314.8333333333333</ele><time>2026-04-12T07:15:23Z</time></trkpt><trkpt lat="45.44281141599535" lon="11.556682470880382"><ele>310.0</ele><time>2026-04-12T07:15:24Z</time></trkpt><trkpt lat="45.44285804653231" lon="11.556759414811435"><ele>310.0</ele><time>2026-04-12T07:15:25Z</time></trkpt><trkpt lat="45.44291034660094" lon="11.556828485731993"><ele>310.0</ele><time>2026-04-12T07:15:26Z</time></trkpt><trkpt lat="45.44297006509633" lon="11.556900283493786"><ele>310.0</ele><time>2026-04-12T07:15:27Z</time></trkpt><trkpt lat="45.44304900360503" lon="11.556969419589072"><ele>310.0</ele><time>2026-04-12T07:15:28Z</time></trkpt><trkpt lat="45.443152564089004" lon="11.557015454753921"><ele>310.0</ele><time>2026-04-12T07:15:29Z</time></trkpt><trkpt lat="45.4432697001722" lon="11.557049471179488"><ele>310.2</ele><time>2026-04-12T07:15:30Z</time></trkpt><trkpt lat="45.44338254052669" lon="11.557080390543359"><ele>310.4</ele><time>2026-04-12T07:15:31Z</time></trkpt><trkpt lat="45.443497845011606" lon="11.55713451575538"><ele>310.6</ele><time>2026-04-12T07:15:32Z</time></trkpt><trkpt lat="45.443609436730405" lon="11.55716868033784"><ele>310.8</ele><time>2026-04-12T07:15:33Z</time></trkpt><trkpt lat="45.443705471169345" lon="11.557202488943105"><ele>311.0</ele><time>2026-04-12T07:15:34Z</time></trkpt><trkpt lat="45.443786380717036" lon="11.557223012158602"><ele>311.6</ele><time>2026-04-12T07:15:35Z</time></trkpt><trkpt lat="45.443864295557404" lon="11.557221162005641"><ele>312.20000000000005</ele><time>2026-04-12T07:15:36Z</time></trkpt><trkpt lat="45.44394541239917" lon="11.55720422455474"><ele>312.79999999999995</ele><time>2026-04-12T07:15:37Z</time></trkpt><trkpt lat="45.44403781423264" lon="11.55718834016105"><ele>313.4</ele><time>2026-04-12T07:15:38Z</time></trkpt><trkpt lat="45.444152668436864" lon="11.557155902710152"><ele>314.0</ele><time>2026-04-12T07:15:39Z</time></trkpt><trkpt lat="45.444272686131946" lon="11.557094074152234"><ele>316.0</ele><time>2026-04-12T07:15:40Z</time></trkpt><trkpt lat="45.44438820354306" lon="11.557010459026856"><ele>318.0</ele><time>2026-04-12T07:15:41Z</time></trkpt><trkpt lat="45.44449294202396" lon="11.556927491664215"><ele>320.0</ele><time>2026-04-12T07:15:42Z</time></trkpt><trkpt lat="45.444594742404085" lon="11.556863197800933"><ele>322.0</ele><time>2026-04-12T07:15:43Z</time></trkpt><trkpt lat="45.444703273250994" lon="11.556819229685422"><ele>322.0</ele><time>2026-04-12T07:15:44Z</time></trkpt><trkpt lat="45.444807768783726" lon="11.556798362319627"><ele>322.0</ele><time>2026-04-12T07:15:45Z</time></trkpt><trkpt lat="45.444919758499545" lon="11.556804321675193"><ele>322.0</ele><time>2026-04-12T07:15:46Z</time></trkpt><trkpt lat="45.44501303332203" lon="11.556877928286553"><ele>322.0</ele><time>2026-04-12T07:15:47Z</time></trkpt><trkpt lat="45.445088401569755" lon="11.556996327559812"><ele>322.0</ele><time>2026-04-12T07:15:48Z</time></trkpt><trkpt lat="45.44514317965142" lon="11.557134272035535"><ele>321.20000000000005</ele><time>2026-04-12T07:15:49Z</time></trkpt><trkpt lat="45.44519624214476" lon="11.557272167165198"><ele>320.40000000000003</ele><time>2026-04-12T07:15:50Z</time></trkpt><trkpt lat="45.44527147660501" lon="11.557397115112254"><ele>319.6</ele><time>2026-04-12T07:15:51Z</time></trkpt><trkpt lat="45.44535905462516" lon="11.5574982561362"><ele>318.8</ele><time>2026-04-12T07:15:52Z</time></trkpt><trkpt lat="45.44545409511535" lon="11.557575833801533"><ele>318.0</ele><time>2026-04-12T07:15:53Z</time></trkpt><trkpt lat="45.445542558677204" lon="11.557639646290765"><ele>318.0</ele><time>2026-04-12T07:15:54Z</time></trkpt><trkpt lat="45.44562585552792" lon="11.55768456664855"><ele>318.0</ele><time>2026-04-12T07:15:55Z</time></trkpt><trkpt lat="45.44571028638207" lon="11.557707740372622"><ele>318.0</ele><time>2026-04-12T07:15:56Z</time></trkpt><trkpt lat="45.445791318590864" lon="11.557702925468659"><ele>318.0</ele><time>2026-04-12T07:15:57Z</time></trkpt><trkpt lat="45.44586032846258" lon="11.55774629880444"><ele>318.0</ele><time>2026-04-12T07:15:59Z</time></trkpt><trkpt lat="45.44579902975522" lon="11.557858500683725"><ele>318.0</ele><time>2026-04-12T07:16:01Z</time></trkpt><trkpt lat="45.44575100891974" lon="11.557950966438987"><ele>317.8333333333333</ele><time>2026-04-12T07:16:02Z</time></trkpt><trkpt lat="45.445754252446534" lon="11.558059576041437"><ele>317.6666666666667</ele><time>2026-04-12T07:16:03Z</time></trkpt><trkpt lat="45.44576505744987" lon="11.558165593551633"><ele>317.5</ele><time>2026-04-12T07:16:04Z</time></trkpt><trkpt lat="45.445751986137594" lon="11.558271591894115"><ele>317.33333333333337</ele><time>2026-04-12T07:16:05Z</time></trkpt><trkpt lat="45.44570110651506" lon="11.558337528144735"><ele>317.1666666666667</ele><time>2026-04-12T07:16:06Z</time></trkpt><trkpt lat="45.445630705117686" lon="11.558449251820102"><ele>317.0</ele><time>2026-04-12T07:16:07Z</time></trkpt><trkpt lat="45.445551631172755" lon="11.558568081641287"><ele>318.2</ele><time>2026-04-12T07:16:08Z</time></trkpt><trkpt lat="45.44549303389705" lon="11.558713232855252"><ele>319.4</ele><time>2026-04-12T07:16:09Z</time></trkpt><trkpt lat="45.44541722914632" lon="11.558845670242436"><ele>320.59999999999997</ele><time>2026-04-12T07:16:10Z</time></trkpt><trkpt lat="45.44534921119909" lon="11.558933988560232"><ele>321.79999999999995</ele><time>2026-04-12T07:16:11Z</time></trkpt><trkpt lat="45.44524455024296" lon="11.558983076604887"><ele>323.0</ele><time>2026-04-12T07:16:12Z</time></trkpt><trkpt lat="45.445157944432836" lon="11.559070871358902"><ele>319.5</ele><time>2026-04-12T07:16:13Z</time></trkpt><trkpt lat="45.44505660500175" lon="11.55914608663414"><ele>316.0</ele><time>2026-04-12T07:16:14Z</time></trkpt><trkpt lat="45.444949757251976" lon="11.559192738386061"><ele>312.5</ele><time>2026-04-12T07:16:15Z</time></trkpt><trkpt lat="45.44482657513967" lon="11.559232247948907"><ele>309.0</ele><time>2026-04-12T07:16:16Z</time></trkpt><trkpt lat="45.44470118470814" lon="11.559234958582993"><ele>308.2</ele><time>2026-04-12T07:16:17Z</time></trkpt><trkpt lat="45.44459365237006" lon="11.559251390822086"><ele>307.4</ele><time>2026-04-12T07:16:18Z</time></trkpt><trkpt lat="45.44448828637215" lon="11.559268752605975"><ele>306.6</ele><time>2026-04-12T07:16:19Z</time></trkpt><trkpt lat="45.444386476188754" lon="11.559297418028548"><ele>305.8</ele><time>2026-04-12T07:16:20Z</time></trkpt><trkpt lat="45.44427880392779" lon="11.55932627797834"><ele>305.0</ele><time>2026-04-12T07:16:21Z</time></trkpt><trkpt lat="45.44417535612252" lon="11.559347455364216"><ele>305.0</ele><time>2026-04-12T07:16:22Z</time></trkpt><trkpt lat="45.44407808302663" lon="11.559367520289825"><ele>305.0</ele><time>2026-04-12T07:16:23Z</time></trkpt><trkpt lat="45.44399683011042" lon="11.559370063850212"><ele>305.0</ele><time>2026-04-12T07:16:24Z</time></trkpt><trkpt lat="45.44390916460822" lon="11.559367100340687"><ele>305.0</ele><time>2026-04-12T07:16:25Z</time></trkpt><trkpt lat="45.44381639959504" lon="11.559388147744661"><ele>305.0</ele><time>2026-04-12T07:16:26Z</time></trkpt><trkpt lat="45.44371755666814" lon="11.559395441229192"><ele>305.0</ele><time>2026-04-12T07:16:27Z</time></trkpt><trkpt lat="45.44362885028336" lon="11.559353522787205"><ele>305.0</ele><time>2026-04-12T07:16:28Z</time></trkpt><trkpt lat="45.44350094082307" lon="11.559326602864134"><ele>305.0</ele><time>2026-04-12T07:16:29Z</time></trkpt><trkpt lat="45.443394908645594" lon="11.55931948794869"><ele>305.0</ele><time>2026-04-12T07:16:30Z</time></trkpt><trkpt lat="45.44327898223165" lon="11.559324805030045"><ele>305.0</ele><time>2026-04-12T07:16:31Z</time></trkpt><trkpt lat="45.443140841005004" lon="11.55936030517382"><ele>305.0</ele><time>2026-04-12T07:16:32Z</time></trkpt><trkpt lat="45.44299762642895" lon="11.559405456207001"><ele>305.0</ele><time>2026-04-12T07:16:33Z</time></trkpt><trkpt lat="45.44287605859382" lon="11.559414405317954"><ele>305.0</ele><time>2026-04-12T07:16:34Z</time></trkpt><trkpt lat="45.442761818888705" lon="11.559393729827141"><ele>305.0</ele><time>2026-04-12T07:16:35Z</time></trkpt><trkpt lat="45.442668299568034" lon="11.559394442343647"><ele>304.5</ele><time>2026-04-12T07:16:36Z</time></trkpt><trkpt lat="45.442568778919835" lon="11.559400745149322"><ele>304.0</ele><time>2026-04-12T07:16:37Z</time></trkpt><trkpt lat="45.44248877490604" lon="11.55941678068067"><ele>303.5</ele><time>2026-04-12T07:16:38Z</time></trkpt><trkpt lat="45.44241025260119" lon="11.559423406013487"><ele>303.0</ele><time>2026-04-12T07:16:39Z</time></trkpt><trkpt lat="45.44233241072529" lon="11.559417118626916"><ele>302.5</ele><time>2026-04-12T07:16:40Z</time></trkpt><trkpt lat="45.44224752054753" lon="11.55943103988954"><ele>302.0</ele><time>2026-04-12T07:16:41Z</time></trkpt><trkpt lat="45.442165720506694" lon="11.559437902761207"><ele>300.6</ele><time>2026-04-12T07:16:42Z</time></trkpt><trkpt lat="45.44208747921158" lon="11.559450803758455"><ele>299.2</ele><time>2026-04-12T07:16:43Z</time></trkpt><trkpt lat="45.442023095065665" lon="11.559414945467491"><ele>297.8</ele><time>2026-04-12T07:16:44Z</time></trkpt><trkpt lat="45.441913013376855" lon="11.559407503834239"><ele>296.4</ele><time>2026-04-12T07:16:46Z</time></trkpt><trkpt lat="45.44179638259165" lon="11.559400798034497"><ele>295.0</ele><time>2026-04-12T07:16:48Z</time></trkpt><trkpt lat="45.4417200869304" lon="11.559375578865085"><ele>295.0</ele><time>2026-04-12T07:16:49Z</time></trkpt><trkpt lat="45.4416501895582" lon="11.55932505034127"><ele>295.0</ele><time>2026-04-12T07:16:50Z</time></trkpt><trkpt lat="45.441580041830406" lon="11.559299113902586"><ele>295.0</ele><time>2026-04-12T07:16:51Z</time></trkpt><trkpt lat="45.44147995254539" lon="11.559295792226939"><ele>295.0</ele><time>2026-04-12T07:16:53Z</time></trkpt><trkpt lat="45.441394470605765" lon="11.559356285362075"><ele>295.0</ele><time>2026-04-12T07:16:55Z</time></trkpt><trkpt lat="45.44133218068204" lon="11.559378471435576"><ele>295.0</ele><time>2026-04-12T07:16:56Z</time></trkpt><trkpt lat="45.44126577779397" lon="11.55938847954689"><ele>294.4</ele><time>2026-04-12T07:16:57Z</time></trkpt><trkpt lat="45.44115223828966" lon="11.559371035196072"><ele>293.8</ele><time>2026-04-12T07:16:59Z</time></trkpt><trkpt lat="45.441063973248944" lon="11.559352870930068"><ele>293.2</ele><time>2026-04-12T07:17:01Z</time></trkpt><trkpt lat="45.44095844806071" lon="11.559359279995292"><ele>292.6</ele><time>2026-04-12T07:17:03Z</time></trkpt><trkpt lat="45.440904666147055" lon="11.559502614939305"><ele>292.0</ele><time>2026-04-12T07:17:05Z</time></trkpt><trkpt lat="45.440873333898665" lon="11.5596130583309"><ele>292.0</ele><time>2026-04-12T07:17:06Z</time></trkpt><trkpt lat="45.44083015792337" lon="11.559745811708202"><ele>292.0</ele><time>2026-04-12T07:17:07Z</time></trkpt><trkpt lat="45.440793971360314" lon="11.559853106189346"><ele>292.0</ele><time>2026-04-12T07:17:08Z</time></trkpt><trkpt lat="45.44075243553725" lon="11.55993538574684"><ele>292.0</ele><time>2026-04-12T07:17:09Z</time></trkpt><trkpt lat="45.44068248651949" lon="11.560009441053447"><ele>292.0</ele><time>2026-04-12T07:17:10Z</time></trkpt><trkpt lat="45.44060425806843" lon="11.560083350327028"><ele>292.0</ele><time>2026-04-12T07:17:11Z</time></trkpt><trkpt lat="45.440533901147056" lon="11.560188832220861"><ele>292.0</ele><time>2026-04-12T07:17:12Z</time></trkpt><trkpt lat="45.44047263459501" lon="11.560308872610804"><ele>292.0</ele><time>2026-04-12T07:17:13Z</time></trkpt><trkpt lat="45.44041127870719" lon="11.56042654709545"><ele>292.0</ele><time>2026-04-12T07:17:14Z</time></trkpt><trkpt lat="45.44034666999997" lon="11.560537102772086"><ele>292.0</ele><time>2026-04-12T07:17:15Z</time></trkpt><trkpt lat="45.44028080152866" lon="11.560640005986292"><ele>292.0</ele><time>2026-04-12T07:17:16Z</time></trkpt><trkpt lat="45.440218364509676" lon="11.560732257871917"><ele>292.8333333333333</ele><time>2026-04-12T07:17:17Z</time></trkpt><trkpt lat="45.440161375228314" lon="11.560830770086865"><ele>293.66666666666663</ele><time>2026-04-12T07:17:18Z</time></trkpt><trkpt lat="45.440114119433765" lon="11.560937017309074"><ele>294.5</ele><time>2026-04-12T07:17:19Z</time></trkpt><trkpt lat="45.44008738304767" lon="11.561043531803168"><ele>295.3333333333333</ele><time>2026-04-12T07:17:20Z</time></trkpt><trkpt lat="45.44008122500271" lon="11.561141412365684"><ele>296.1666666666667</ele><time>2026-04-12T07:17:21Z</time></trkpt><trkpt lat="45.440071220093095" lon="11.561230316430517"><ele>297.0</ele><time>2026-04-12T07:17:22Z</time></trkpt><trkpt lat="45.44005497986265" lon="11.561321848013574"><ele>297.0</ele><time>2026-04-12T07:17:23Z</time></trkpt><trkpt lat="45.44002648779038" lon="11.56143420792408"><ele>297.0</ele><time>2026-04-12T07:17:24Z</time></trkpt><trkpt lat="45.43999853912178" lon="11.561543240401742"><ele>297.0</ele><time>2026-04-12T07:17:25Z</time></trkpt><trkpt lat="45.4399653273381" lon="11.561638644661212"><ele>297.0</ele><time>2026-04-12T07:17:26Z</time></trkpt><trkpt lat="45.439929215321335" lon="11.561717901487757"><ele>297.0</ele><time>2026-04-12T07:17:27Z</time></trkpt><trkpt lat="45.43990253269" lon="11.561802529523732"><ele>297.0</ele><time>2026-04-12T07:17:28Z</time></trkpt><trkpt lat="45.43987862146332" lon="11.561945385950368"><ele>297.0</ele><time>2026-04-12T07:17:30Z</time></trkpt><trkpt lat="45.43982602214775" lon="11.562028427381401"><ele>297.0</ele><time>2026-04-12T07:17:34Z</time></trkpt><trkpt lat="45.43983936600104" lon="11.56216217281177"><ele>297.0</ele><time>2026-04-12T07:17:37Z</time></trkpt><trkpt lat="45.43987276954624" lon="11.562246107546944"><ele>297.0</ele><time>2026-04-12T07:17:39Z</time></trkpt><trkpt lat="45.439873373289956" lon="11.56235193576837"><ele>297.0</ele><time>2026-04-12T07:17:42Z</time></trkpt><trkpt lat="45.439821624893156" lon="11.562404934121538"><ele>297.0</ele><time>2026-04-12T07:17:45Z</time></trkpt><trkpt lat="45.4397781385426" lon="11.56247973049789"><ele>297.0</ele><time>2026-04-12T07:17:47Z</time></trkpt><trkpt lat="45.43973819095664" lon="11.562587616776828"><ele>298.8333333333333</ele><time>2026-04-12T07:17:50Z</time></trkpt><trkpt lat="45.43971097640385" lon="11.562675370754464"><ele>300.6666666666667</ele><time>2026-04-12T07:17:54Z</time></trkpt><trkpt lat="45.43966583581053" lon="11.562816458406271"><ele>302.5</ele><time>2026-04-12T07:17:58Z</time></trkpt><trkpt lat="45.43962313529032" lon="11.562929060955636"><ele>304.33333333333337</ele><time>2026-04-12T07:18:02Z</time></trkpt><trkpt lat="45.43963935874232" lon="11.563020489193171"><ele>306.1666666666667</ele><time>2026-04-12T07:18:05Z</time></trkpt><trkpt lat="45.43966670945881" lon="11.563107786827407"><ele>308.0</ele><time>2026-04-12T07:18:33Z</time></trkpt><trkpt lat="45.439744913324084" lon="11.563208640712498"><ele>308.57142857142856</ele><time>2026-04-12T07:18:37Z</time></trkpt><trkpt lat="45.43980047586882" lon="11.563251159757472"><ele>309.1428571428571</ele><time>2026-04-12T07:18:40Z</time></trkpt><trkpt lat="45.43982484506906" lon="11.56333440920876"><ele>309.7142857142857</ele><time>2026-04-12T07:18:44Z</time></trkpt><trkpt lat="45.439881181800956" lon="11.563421146868903"><ele>310.2857142857143</ele><time>2026-04-12T07:18:47Z</time></trkpt><trkpt lat="45.43988543028779" lon="11.563534571377387"><ele>310.85714285714283</ele><time>2026-04-12T07:18:53Z</time></trkpt><trkpt lat="45.439887095090704" lon="11.5636243976968"><ele>311.42857142857144</ele><time>2026-04-12T07:19:02Z</time></trkpt><trkpt lat="45.43983495917063" lon="11.563697744019722"><ele>312.0</ele><time>2026-04-12T07:19:15Z</time></trkpt><trkpt lat="45.43984646356923" lon="11.563798257084674"><ele>312.0</ele><time>2026-04-12T07:19:35Z</time></trkpt><trkpt lat="45.439833580742935" lon="11.563921318165091"><ele>312.0</ele><time>2026-04-12T07:21:34Z</time></trkpt><trkpt lat="45.439869926637854" lon="11.563997187330962"><ele>312.0</ele><time>2026-04-12T07:21:42Z</time></trkpt><trkpt lat="45.439932402477844" lon="11.564068983917617"><ele>312.0</ele><time>2026-04-12T07:21:47Z</time></trkpt><trkpt lat="45.439954996396075" lon="11.56429044004204"><ele>312.0</ele><time>2026-04-12T07:21:53Z</time></trkpt><trkpt lat="45.43999671003339" lon="11.564440184943194"><ele>311.5714285714286</ele><time>2026-04-12T07:21:55Z</time></trkpt><trkpt lat="45.44000900491554" lon="11.564532216531378"><ele>311.1428571428571</ele><time>2026-04-12T07:21:57Z</time></trkpt><trkpt lat="45.43993961468699" lon="11.564611550112549"><ele>310.7142857142857</ele><time>2026-04-12T07:22:00Z</time></trkpt><trkpt lat="45.43989818118233" lon="11.564698326056124"><ele>310.28571428571433</ele><time>2026-04-12T07:22:02Z</time></trkpt><trkpt lat="45.43985002858375" lon="11.56477836688888"><ele>309.8571428571429</ele><time>2026-04-12T07:22:05Z</time></trkpt><trkpt lat="45.439816100022874" lon="11.564865806045889"><ele>309.42857142857144</ele><time>2026-04-12T07:22:08Z</time></trkpt><trkpt lat="45.43977583494368" lon="11.564951917921658"><ele>309.0</ele><time>2026-04-12T07:22:11Z</time></trkpt><trkpt lat="45.43974459959261" lon="11.565051192295817"><ele>309.0</ele><time>2026-04-12T07:22:14Z</time></trkpt><trkpt lat="45.43970643016001" lon="11.565155653326558"><ele>309.0</ele><time>2026-04-12T07:22:17Z</time></trkpt><trkpt lat="45.43968799981257" lon="11.565247959942292"><ele>309.0</ele><time>2026-04-12T07:22:20Z</time></trkpt><trkpt lat="45.43967044778696" lon="11.565366436978584"><ele>309.0</ele><time>2026-04-12T07:22:24Z</time></trkpt><trkpt lat="45.43965717533316" lon="11.565486617090833"><ele>309.0</ele><time>2026-04-12T07:22:28Z</time></trkpt><trkpt lat="45.439630811246" lon="11.565600984912164"><ele>309.0</ele><time>2026-04-12T07:22:32Z</time></trkpt><trkpt lat="45.43962953471244" lon="11.565703895438723"><ele>307.3333333333333</ele><time>2026-04-12T07:22:36Z</time></trkpt><trkpt lat="45.43963320271355" lon="11.565826022143051"><ele>305.6666666666667</ele><time>2026-04-12T07:22:40Z</time></trkpt><trkpt lat="45.43962103787722" lon="11.565930127427567"><ele>304.0</ele><time>2026-04-12T07:22:44Z</time></trkpt><trkpt lat="45.43964177290503" lon="11.566070952735517"><ele>302.33333333333337</ele><time>2026-04-12T07:22:47Z</time></trkpt><trkpt lat="45.43964012455629" lon="11.566186459529163"><ele>300.6666666666667</ele><time>2026-04-12T07:22:51Z</time></trkpt><trkpt lat="45.439641808352526" lon="11.566297121388065"><ele>299.0</ele><time>2026-04-12T07:22:55Z</time></trkpt><trkpt lat="45.4396498905327" lon="11.5664020662"><ele>295.83333333333337</ele><time>2026-04-12T07:22:58Z</time></trkpt><trkpt lat="45.439664673024964" lon="11.566544522103928"><ele>292.6666666666667</ele><time>2026-04-12T07:23:01Z</time></trkpt><trkpt lat="45.439691916413594" lon="11.566672224384167"><ele>289.5</ele><time>2026-04-12T07:23:03Z</time></trkpt><trkpt lat="45.43971896396189" lon="11.566766405565378"><ele>286.3333333333333</ele><time>2026-04-12T07:23:06Z</time></trkpt><trkpt lat="45.43973999400283" lon="11.566861115188642"><ele>283.16666666666663</ele><time>2026-04-12T07:23:09Z</time></trkpt><trkpt lat="45.439764683229875" lon="11.5669864203178"><ele>280.0</ele><time>2026-04-12T07:23:12Z</time></trkpt><trkpt lat="45.439789758704514" lon="11.56710900499179"><ele>275.8333333333333</ele><time>2026-04-12T07:23:18Z</time></trkpt><trkpt lat="45.43980801713045" lon="11.567208414208162"><ele>271.66666666666663</ele><time>2026-04-12T07:23:20Z</time></trkpt><trkpt lat="45.43981832314093" lon="11.5673169560969"><ele>267.5</ele><time>2026-04-12T07:23:25Z</time></trkpt><trkpt lat="45.439832926551475" lon="11.567433069882018"><ele>263.3333333333333</ele><time>2026-04-12T07:23:28Z</time></trkpt><trkpt lat="45.43984539619219" lon="11.567539327323114"><ele>259.1666666666667</ele><time>2026-04-12T07:23:31Z</time></trkpt><trkpt lat="45.439869405958355" lon="11.567642818515225"><ele>255.0</ele><time>2026-04-12T07:23:34Z</time></trkpt><trkpt lat="45.43986408964708" lon="11.567753805128905"><ele>255.0</ele><time>2026-04-12T07:23:36Z</time></trkpt><trkpt lat="45.43991040750426" lon="11.567854913044155"><ele>255.0</ele><time>2026-04-12T07:23:39Z</time></trkpt><trkpt lat="45.439948594791524" lon="11.567954969289765"><ele>255.0</ele><time>2026-04-12T07:23:41Z</time></trkpt><trkpt lat="45.439980414737846" lon="11.56805989061462"><ele>255.0</ele><time>2026-04-12T07:23:43Z</time></trkpt><trkpt lat="45.44004001762985" lon="11.568196199058258"><ele>255.0</ele><time>2026-04-12T07:23:45Z</time></trkpt><trkpt lat="45.44008944051265" lon="11.568305727731191"><ele>255.0</ele><time>2026-04-12T07:23:47Z</time></trkpt><trkpt lat="45.44014068749646" lon="11.568434635667211"><ele>251.33333333333334</ele><time>2026-04-12T07:23:49Z</time></trkpt><trkpt lat="45.44018867982599" lon="11.568591407534324"><ele>247.66666666666669</ele><time>2026-04-12T07:23:51Z</time></trkpt><trkpt lat="45.44022860313141" lon="11.56870335133286"><ele>244.0</ele><time>2026-04-12T07:23:53Z</time></trkpt><trkpt lat="45.44025719464325" lon="11.568784226014346"><ele>240.33333333333334</ele><time>2026-04-12T07:23:58Z</time></trkpt><trkpt lat="45.44027596780411" lon="11.5688778046674"><ele>236.66666666666669</ele><time>2026-04-12T07:24:02Z</time></trkpt><trkpt lat="45.440321097023194" lon="11.568995043332285"><ele>233.0</ele><time>2026-04-12T07:24:05Z</time></trkpt><trkpt lat="45.44035767798384" lon="11.569080720377057"><ele>231.4</ele><time>2026-04-12T07:24:14Z</time></trkpt><trkpt lat="45.440350015690306" lon="11.569190825966736"><ele>229.8</ele><time>2026-04-12T07:24:19Z</time></trkpt><trkpt lat="45.44037788323925" lon="11.56930478751281"><ele>228.2</ele><time>2026-04-12T07:25:25Z</time></trkpt><trkpt lat="45.44041182913503" lon="11.569435181803447"><ele>226.6</ele><time>2026-04-12T07:25:27Z</time></trkpt><trkpt lat="45.440477894697224" lon="11.569564761305884"><ele>225.0</ele><time>2026-04-12T07:25:29Z</time></trkpt><trkpt lat="45.44050780272212" lon="11.56968128409509"><ele>225.0</ele><time>2026-04-12T07:25:32Z</time></trkpt><trkpt lat="45.44055805341774" lon="11.569770752562977"><ele>225.0</ele><time>2026-04-12T07:25:35Z</time></trkpt><trkpt lat="45.44058882150718" lon="11.569872314834189"><ele>225.0</ele><time>2026-04-12T07:25:37Z</time></trkpt><trkpt lat="45.44064666997993" lon="11.56998010050097"><ele>225.0</ele><time>2026-04-12T07:25:39Z</time></trkpt><trkpt lat="45.44058512487093" lon="11.570028422396666"><ele>225.0</ele><time>2026-04-12T07:25:45Z</time></trkpt><trkpt lat="45.440512906975584" lon="11.56999287582423"><ele>225.0</ele><time>2026-04-12T07:25:48Z</time></trkpt><trkpt lat="45.44045481292384" lon="11.569950207850116"><ele>220.16666666666666</ele><time>2026-04-12T07:25:50Z</time></trkpt><trkpt lat="45.44039060699808" lon="11.569917402440113"><ele>215.33333333333331</ele><time>2026-04-12T07:25:53Z</time></trkpt><trkpt lat="45.44031021380832" lon="11.569868715788484"><ele>210.5</ele><time>2026-04-12T07:25:57Z</time></trkpt><trkpt lat="45.44022532623613" lon="11.569847535203749"><ele>205.66666666666666</ele><time>2026-04-12T07:25:59Z</time></trkpt><trkpt lat="45.440164872991524" lon="11.569818288435789"><ele>200.83333333333331</ele><time>2026-04-12T07:26:09Z</time></trkpt><trkpt lat="45.440091146592785" lon="11.569820312520639"><ele>196.0</ele><time>2026-04-12T07:26:14Z</time></trkpt><trkpt lat="45.44001372881331" lon="11.56981875299322"><ele>195.99999999999997</ele><time>2026-04-12T07:26:22Z</time></trkpt><trkpt lat="45.43994844653741" lon="11.569818122900825"><ele>196.0</ele><time>2026-04-12T07:26:26Z</time></trkpt><trkpt lat="45.43992281214897" lon="11.569923872757604"><ele>196.0</ele><time>2026-04-12T07:26:28Z</time></trkpt><trkpt lat="45.43996958618866" lon="11.570010756042715"><ele>196.0</ele><time>2026-04-12T07:26:30Z</time></trkpt><trkpt lat="45.43998887718378" lon="11.570107594856635"><ele>195.99999999999997</ele><time>2026-04-12T07:26:31Z</time></trkpt><trkpt lat="45.43999774970936" lon="11.570201494635095"><ele>196.0</ele><time>2026-04-12T07:26:33Z</time></trkpt><trkpt lat="45.440051238561246" lon="11.570399569012897"><ele>193.33333333333331</ele><time>2026-04-12T07:26:37Z</time></trkpt><trkpt lat="45.44004916403962" lon="11.570495654812092"><ele>190.66666666666666</ele><time>2026-04-12T07:26:38Z</time></trkpt><trkpt lat="45.4400535746271" lon="11.570610081871239"><ele>188.0</ele><time>2026-04-12T07:26:40Z</time></trkpt><trkpt lat="45.44006615005183" lon="11.570701870370693"><ele>185.33333333333331</ele><time>2026-04-12T07:26:41Z</time></trkpt><trkpt lat="45.44000952515387" lon="11.57085592991895"><ele>182.66666666666666</ele><time>2026-04-12T07:26:45Z</time></trkpt><trkpt lat="45.43998037057339" lon="11.570945096656102"><ele>180.0</ele><time>2026-04-12T07:26:46Z</time></trkpt><trkpt lat="45.43990761141871" lon="11.571099193944928"><ele>180.0</ele><time>2026-04-12T07:26:48Z</time></trkpt><trkpt lat="45.439858082201624" lon="11.57117966998253"><ele>180.0</ele><time>2026-04-12T07:26:49Z</time></trkpt><trkpt lat="45.439804063511744" lon="11.571276387525552"><ele>180.0</ele><time>2026-04-12T07:26:50Z</time></trkpt><trkpt lat="45.439754290023096" lon="11.571378430360587"><ele>180.0</ele><time>2026-04-12T07:26:51Z</time></trkpt><trkpt lat="45.43971964287704" lon="11.571485210482397"><ele>180.0</ele><time>2026-04-12T07:26:52Z</time></trkpt><trkpt lat="45.43969255209599" lon="11.571575018576644"><ele>180.0</ele><time>2026-04-12T07:26:53Z</time></trkpt><trkpt lat="45.43964834144913" lon="11.571728215907124"><ele>174.33333333333334</ele><time>2026-04-12T07:26:55Z</time></trkpt><trkpt lat="45.439620784970444" lon="11.571814122472555"><ele>168.66666666666666</ele><time>2026-04-12T07:26:56Z</time></trkpt><trkpt lat="45.439591832523604" lon="11.571907767312013"><ele>163.0</ele><time>2026-04-12T07:26:57Z</time></trkpt><trkpt lat="45.439566551715785" lon="11.572007552251694"><ele>157.33333333333331</ele><time>2026-04-12T07:26:58Z</time></trkpt><trkpt lat="45.439545550473426" lon="11.572120710552888"><ele>151.66666666666666</ele><time>2026-04-12T07:26:59Z</time></trkpt><trkpt lat="45.43953139968097" lon="11.572236943562105"><ele>146.0</ele><time>2026-04-12T07:27:00Z</time></trkpt><trkpt lat="45.439578625348894" lon="11.572412443817269"><ele>147.66666666666666</ele><time>2026-04-12T07:27:02Z</time></trkpt><trkpt lat="45.43968336220977" lon="11.572486861862446"><ele>149.33333333333331</ele><time>2026-04-12T07:27:04Z</time></trkpt><trkpt lat="45.439746516124586" lon="11.572544189464862"><ele>151.0</ele><time>2026-04-12T07:27:05Z</time></trkpt><trkpt lat="45.43982602624054" lon="11.572592208165819"><ele>152.66666666666666</ele><time>2026-04-12T07:27:06Z</time></trkpt><trkpt lat="45.43989829637426" lon="11.572623861551838"><ele>154.33333333333334</ele><time>2026-04-12T07:27:07Z</time></trkpt><trkpt lat="45.43996573482031" lon="11.572644585628488"><ele>156.0</ele><time>2026-04-12T07:27:08Z</time></trkpt><trkpt lat="45.44003042184839" lon="11.572681319285437"><ele>156.0</ele><time>2026-04-12T07:27:09Z</time></trkpt><trkpt lat="45.44006842880666" lon="11.572753367744076"><ele>156.0</ele><time>2026-04-12T07:27:10Z</time></trkpt><trkpt lat="45.440092874391176" lon="11.5728525255926"><ele>156.0</ele><time>2026-04-12T07:27:11Z</time></trkpt><trkpt lat="45.44011686446788" lon="11.572964009078966"><ele>156.0</ele><time>2026-04-12T07:27:12Z</time></trkpt><trkpt lat="45.44016700133253" lon="11.573063654784452"><ele>156.0</ele><time>2026-04-12T07:27:13Z</time></trkpt><trkpt lat="45.44022845601763" lon="11.573162587022455"><ele>156.0</ele><time>2026-04-12T07:27:14Z</time></trkpt><trkpt lat="45.44026522271454" lon="11.573278821508891"><ele>154.0</ele><time>2026-04-12T07:27:15Z</time></trkpt><trkpt lat="45.44028566203411" lon="11.573408221330599"><ele>152.0</ele><time>2026-04-12T07:27:16Z</time></trkpt><trkpt lat="45.44029708794296" lon="11.573515689236082"><ele>150.0</ele><time>2026-04-12T07:27:17Z</time></trkpt><trkpt lat="45.44034600219183" lon="11.573585383017772"><ele>148.0</ele><time>2026-04-12T07:27:18Z</time></trkpt><trkpt lat="45.44041393685958" lon="11.57363989733286"><ele>146.0</ele><time>2026-04-12T07:27:19Z</time></trkpt><trkpt lat="45.44049814686058" lon="11.57367204261631"><ele>144.0</ele><time>2026-04-12T07:27:20Z</time></trkpt><trkpt lat="45.44058557694289" lon="11.573699406354768"><ele>141.33333333333334</ele><time>2026-04-12T07:27:21Z</time></trkpt><trkpt lat="45.44066277502866" lon="11.573738183569322"><ele>138.66666666666666</ele><time>2026-04-12T07:27:22Z</time></trkpt><trkpt lat="45.440732320288845" lon="11.573792844750631"><ele>136.0</ele><time>2026-04-12T07:27:23Z</time></trkpt><trkpt lat="45.44079232528598" lon="11.573820398210305"><ele>133.33333333333331</ele><time>2026-04-12T07:27:24Z</time></trkpt><trkpt lat="45.44085125561723" lon="11.573855324977291"><ele>130.66666666666666</ele><time>2026-04-12T07:27:25Z</time></trkpt><trkpt lat="45.44093456432432" lon="11.573948395469394"><ele>128.0</ele><time>2026-04-12T07:27:27Z</time></trkpt><trkpt lat="45.44097622637636" lon="11.574019046181958"><ele>128.0</ele><time>2026-04-12T07:27:28Z</time></trkpt><trkpt lat="45.441010656187565" lon="11.574095164133812"><ele>128.0</ele><time>2026-04-12T07:27:29Z</time></trkpt><trkpt lat="45.44107228820702" lon="11.574170976285517"><ele>128.0</ele><time>2026-04-12T07:27:31Z</time></trkpt><trkpt lat="45.44117684325094" lon="11.57414788931139"><ele>128.0</ele><time>2026-04-12T07:27:33Z</time></trkpt><trkpt lat="45.441323052213605" lon="11.574200578578749"><ele>128.0</ele><time>2026-04-12T07:27:36Z</time></trkpt><trkpt lat="45.44139319240198" lon="11.574287979260973"><ele>129.8</ele><time>2026-04-12T07:27:37Z</time></trkpt><trkpt lat="45.44145599632833" lon="11.574373616205778"><ele>131.60000000000002</ele><time>2026-04-12T07:27:38Z</time></trkpt><trkpt lat="45.4415389872421" lon="11.574452674725853"><ele>133.39999999999998</ele><time>2026-04-12T07:27:39Z</time></trkpt><trkpt lat="45.44162523697456" lon="11.574536833680963"><ele>135.2</ele><time>2026-04-12T07:27:40Z</time></trkpt><trkpt lat="45.44171388695717" lon="11.574640879418485"><ele>137.0</ele><time>2026-04-12T07:27:41Z</time></trkpt><trkpt lat="45.441800982506116" lon="11.574734852697853"><ele>136.0</ele><time>2026-04-12T07:27:42Z</time></trkpt><trkpt lat="45.44189273705103" lon="11.574814493289646"><ele>135.0</ele><time>2026-04-12T07:27:43Z</time></trkpt><trkpt lat="45.44198754939992" lon="11.574895664248281"><ele>134.0</ele><time>2026-04-12T07:27:44Z</time></trkpt><trkpt lat="45.44208176944396" lon="11.574982456207907"><ele>133.0</ele><time>2026-04-12T07:27:45Z</time></trkpt><trkpt lat="45.4421768804411" lon="11.575075262343736"><ele>132.0</ele><time>2026-04-12T07:27:46Z</time></trkpt><trkpt lat="45.44226514787951" lon="11.57516226409598"><ele>132.0</ele><time>2026-04-12T07:27:47Z</time></trkpt><trkpt lat="45.44234459460185" lon="11.57524453376432"><ele>132.0</ele><time>2026-04-12T07:27:48Z</time></trkpt><trkpt lat="45.44240831051163" lon="11.575323389056763"><ele>132.0</ele><time>2026-04-12T07:27:49Z</time></trkpt><trkpt lat="45.442465177496224" lon="11.575396438077373"><ele>132.0</ele><time>2026-04-12T07:27:50Z</time></trkpt><trkpt lat="45.44251538992321" lon="11.575464475182846"><ele>132.0</ele><time>2026-04-12T07:27:51Z</time></trkpt><trkpt lat="45.442591380494896" lon="11.575542668423516"><ele>132.0</ele><time>2026-04-12T07:27:53Z</time></trkpt><trkpt lat="45.44266490662204" lon="11.575526267491009"><ele>132.0</ele><time>2026-04-12T07:28:06Z</time></trkpt><trkpt lat="45.442729309704355" lon="11.575497248306801"><ele>132.0</ele><time>2026-04-12T07:28:38Z</time></trkpt><trkpt lat="45.44279236757771" lon="11.575480218918292"><ele>132.0</ele><time>2026-04-12T07:28:49Z</time></trkpt><trkpt lat="45.44285255264006" lon="11.575415180998515"><ele>132.0</ele><time>2026-04-12T07:28:53Z</time></trkpt><trkpt lat="45.44288380217327" lon="11.575336717543404"><ele>132.0</ele><time>2026-04-12T07:28:56Z</time></trkpt><trkpt lat="45.442925554243025" lon="11.575265228130359"><ele>132.0</ele><time>2026-04-12T07:28:59Z</time></trkpt><trkpt lat="45.44295931704557" lon="11.575168632039235"><ele>132.0</ele><time>2026-04-12T07:29:12Z</time></trkpt><trkpt lat="45.442993557346576" lon="11.57508294245401"><ele>134.66666666666666</ele><time>2026-04-12T07:29:14Z</time></trkpt><trkpt lat="45.44302312458841" lon="11.574990941656807"><ele>137.33333333333334</ele><time>2026-04-12T07:29:19Z</time></trkpt><trkpt lat="45.44307824733021" lon="11.574916233118852"><ele>140.0</ele><time>2026-04-12T07:29:22Z</time></trkpt><trkpt lat="45.443140461804525" lon="11.574857755399348"><ele>142.66666666666669</ele><time>2026-04-12T07:29:26Z</time></trkpt><trkpt lat="45.44321204481291" lon="11.574839208377654"><ele>145.33333333333334</ele><time>2026-04-12T07:29:29Z</time></trkpt><trkpt lat="45.44327536399076" lon="11.574830238254414"><ele>148.0</ele><time>2026-04-12T07:29:44Z</time></trkpt><trkpt lat="45.44337676759069" lon="11.574782980318973"><ele>148.0</ele><time>2026-04-12T07:29:48Z</time></trkpt><trkpt lat="45.44344894281961" lon="11.574738366138492"><ele>148.0</ele><time>2026-04-12T07:29:50Z</time></trkpt><trkpt lat="45.443532340295235" lon="11.57472871437409"><ele>148.0</ele><time>2026-04-12T07:29:54Z</time></trkpt><trkpt lat="45.443603597829274" lon="11.574729900926014"><ele>148.0</ele><time>2026-04-12T07:29:56Z</time></trkpt><trkpt lat="45.443662640029764" lon="11.574649558212004"><ele>148.0</ele><time>2026-04-12T07:29:59Z</time></trkpt><trkpt lat="45.44374191509841" lon="11.57465920141975"><ele>148.0</ele><time>2026-04-12T07:30:01Z</time></trkpt><trkpt lat="45.4438234147863" lon="11.574591791314342"><ele>150.57142857142858</ele><time>2026-04-12T07:30:04Z</time></trkpt><trkpt lat="45.44386744208689" lon="11.574518517469219"><ele>153.14285714285714</ele><time>2026-04-12T07:30:06Z</time></trkpt><trkpt lat="45.443936491741525" lon="11.57457469246659"><ele>155.71428571428572</ele><time>2026-04-12T07:30:09Z</time></trkpt><trkpt lat="45.443995360362266" lon="11.574632373568916"><ele>158.28571428571428</ele><time>2026-04-12T07:30:10Z</time></trkpt><trkpt lat="45.444059270354565" lon="11.574643173373014"><ele>160.85714285714286</ele><time>2026-04-12T07:30:13Z</time></trkpt><trkpt lat="45.44414189338565" lon="11.574595143807695"><ele>163.42857142857142</ele><time>2026-04-12T07:30:16Z</time></trkpt><trkpt lat="45.4440730218697" lon="11.574598862652385"><ele>166.0</ele><time>2026-04-12T07:30:21Z</time></trkpt><trkpt lat="45.443956867237674" lon="11.574550660999215"><ele>167.5</ele><time>2026-04-12T07:30:25Z</time></trkpt><trkpt lat="45.443899653339734" lon="11.57449772340763"><ele>169.0</ele><time>2026-04-12T07:30:27Z</time></trkpt><trkpt lat="45.443724838195294" lon="11.574329078707994"><ele>170.5</ele><time>2026-04-12T07:31:05Z</time></trkpt><trkpt lat="45.44364953111047" lon="11.5741921906532"><ele>172.0</ele><time>2026-04-12T07:31:07Z</time></trkpt><trkpt lat="45.44358641900508" lon="11.574096844180223"><ele>172.0</ele><time>2026-04-12T07:31:08Z</time></trkpt><trkpt lat="45.44353974821415" lon="11.574014983677234"><ele>172.0</ele><time>2026-04-12T07:31:09Z</time></trkpt><trkpt lat="45.44350479734983" lon="11.573938032576061"><ele>172.0</ele><time>2026-04-12T07:31:10Z</time></trkpt><trkpt lat="45.44350241754455" lon="11.573776176301779"><ele>172.0</ele><time>2026-04-12T07:31:12Z</time></trkpt><trkpt lat="45.44350059210464" lon="11.573667462991674"><ele>172.0</ele><time>2026-04-12T07:31:14Z</time></trkpt><trkpt lat="45.44347433413047" lon="11.57355129605721"><ele>172.0</ele><time>2026-04-12T07:31:17Z</time></trkpt><trkpt lat="45.44343506020356" lon="11.573445884645816"><ele>176.16666666666669</ele><time>2026-04-12T07:31:20Z</time></trkpt><trkpt lat="45.44338567075737" lon="11.573358977603615"><ele>180.33333333333334</ele><time>2026-04-12T07:31:22Z</time></trkpt><trkpt lat="45.44333220339268" lon="11.573299219168264"><ele>184.5</ele><time>2026-04-12T07:31:24Z</time></trkpt><trkpt lat="45.44325985560654" lon="11.573269134914366"><ele>188.66666666666669</ele><time>2026-04-12T07:31:26Z</time></trkpt><trkpt lat="45.443206634388766" lon="11.5731990603106"><ele>192.83333333333334</ele><time>2026-04-12T07:31:28Z</time></trkpt><trkpt lat="45.443134012386" lon="11.573145091575272"><ele>197.0</ele><time>2026-04-12T07:31:30Z</time></trkpt><trkpt lat="45.44306531244511" lon="11.57306481352503"><ele>197.0</ele><time>2026-04-12T07:31:32Z</time></trkpt><trkpt lat="45.443003495858406" lon="11.572980639065532"><ele>197.0</ele><time>2026-04-12T07:31:34Z</time></trkpt><trkpt lat="45.442927348914736" lon="11.572915754381564"><ele>197.0</ele><time>2026-04-12T07:31:36Z</time></trkpt><trkpt lat="45.442920920114545" lon="11.57278185854992"><ele>197.0</ele><time>2026-04-12T07:31:38Z</time></trkpt><trkpt lat="45.44287125063819" lon="11.572702450121103"><ele>197.0</ele><time>2026-04-12T07:31:40Z</time></trkpt><trkpt lat="45.442814822386694" lon="11.572567274063795"><ele>197.83333333333334</ele><time>2026-04-12T07:31:42Z</time></trkpt><trkpt lat="45.44290976349064" lon="11.572490384103935"><ele>198.66666666666669</ele><time>2026-04-12T07:31:47Z</time></trkpt><trkpt lat="45.44294792727042" lon="11.572415888113097"><ele>199.5</ele><time>2026-04-12T07:31:49Z</time></trkpt><trkpt lat="45.442956170773385" lon="11.572322960139003"><ele>200.33333333333331</ele><time>2026-04-12T07:31:51Z</time></trkpt><trkpt lat="45.44291209589904" lon="11.572198141048483"><ele>201.16666666666666</ele><time>2026-04-12T07:31:54Z</time></trkpt><trkpt lat="45.44283705698086" lon="11.572149648038723"><ele>202.0</ele><time>2026-04-12T07:31:56Z</time></trkpt><trkpt lat="45.44276830733139" lon="11.572095160631187"><ele>207.8</ele><time>2026-04-12T07:31:58Z</time></trkpt><trkpt lat="45.4427133348188" lon="11.57198471565413"><ele>213.6</ele><time>2026-04-12T07:32:00Z</time></trkpt><trkpt lat="45.4426884988356" lon="11.571865065152595"><ele>219.40000000000003</ele><time>2026-04-12T07:32:02Z</time></trkpt><trkpt lat="45.44262076678324" lon="11.571756684832755"><ele>225.20000000000002</ele><time>2026-04-12T07:32:05Z</time></trkpt><trkpt lat="45.4425900813206" lon="11.571604452361857"><ele>231.0</ele><time>2026-04-12T07:32:09Z</time></trkpt><trkpt lat="45.44254476006168" lon="11.57153207332848"><ele>231.0</ele><time>2026-04-12T07:32:12Z</time></trkpt><trkpt lat="45.442528589350566" lon="11.57144186354472"><ele>231.0</ele><time>2026-04-12T07:32:13Z</time></trkpt><trkpt lat="45.44247778336399" lon="11.571342316788385"><ele>231.0</ele><time>2026-04-12T07:32:15Z</time></trkpt><trkpt lat="45.4424366898605" lon="11.571214609104954"><ele>231.0</ele><time>2026-04-12T07:32:17Z</time></trkpt><trkpt lat="45.442394192599615" lon="11.57111661999593"><ele>231.0</ele><time>2026-04-12T07:32:20Z</time></trkpt><trkpt lat="45.44233834676688" lon="11.571047777777187"><ele>231.0</ele><time>2026-04-12T07:32:23Z</time></trkpt><trkpt lat="45.44230183655254" lon="11.570971177805108"><ele>232.0</ele><time>2026-04-12T07:32:24Z</time></trkpt><trkpt lat="45.44225448071914" lon="11.570867505740662"><ele>233.00000000000003</ele><time>2026-04-12T07:32:27Z</time></trkpt><trkpt lat="45.44219424792987" lon="11.570812866437821"><ele>234.00000000000003</ele><time>2026-04-12T07:32:29Z</time></trkpt><trkpt lat="45.442111846720444" lon="11.570695965594485"><ele>235.0</ele><time>2026-04-12T07:32:32Z</time></trkpt><trkpt lat="45.44202614349589" lon="11.57058239761748"><ele>236.0</ele><time>2026-04-12T07:32:34Z</time></trkpt><trkpt lat="45.44197871403474" lon="11.570509424844587"><ele>236.00000000000003</ele><time>2026-04-12T07:32:35Z</time></trkpt><trkpt lat="45.44191346528051" lon="11.57043642382369"><ele>236.0</ele><time>2026-04-12T07:32:37Z</time></trkpt><trkpt lat="45.44183620377018" lon="11.570325547539127"><ele>236.0</ele><time>2026-04-12T07:32:39Z</time></trkpt><trkpt lat="45.441783748391835" lon="11.570260924964746"><ele>236.0</ele><time>2026-04-12T07:32:41Z</time></trkpt><trkpt lat="45.441753909410096" lon="11.570158180908269"><ele>236.00000000000003</ele><time>2026-04-12T07:32:43Z</time></trkpt><trkpt lat="45.44170619922876" lon="11.570091771245572"><ele>236.0</ele><time>2026-04-12T07:32:44Z</time></trkpt><trkpt lat="45.44165739938398" lon="11.569952665016888"><ele>241.0</ele><time>2026-04-12T07:32:46Z</time></trkpt><trkpt lat="45.44162288402619" lon="11.569823902357099"><ele>246.00000000000003</ele><time>2026-04-12T07:32:48Z</time></trkpt><trkpt lat="45.44156404345022" lon="11.569713003126246"><ele>251.00000000000003</ele><time>2026-04-12T07:32:50Z</time></trkpt><trkpt lat="45.44153164917155" lon="11.569552328532318"><ele>256.0</ele><time>2026-04-12T07:32:52Z</time></trkpt><trkpt lat="45.4415084158273" lon="11.569409563002452"><ele>261.0</ele><time>2026-04-12T07:32:54Z</time></trkpt><trkpt lat="45.44144411478581" lon="11.569272667706413"><ele>261.0</ele><time>2026-04-12T07:32:56Z</time></trkpt><trkpt lat="45.44152393100951" lon="11.569317694706712"><ele>261.0</ele><time>2026-04-12T07:33:03Z</time></trkpt><trkpt lat="45.44159625809233" lon="11.56938818377826"><ele>261.0</ele><time>2026-04-12T07:33:05Z</time></trkpt><trkpt lat="45.44169262624611" lon="11.569458285734834"><ele>261.0</ele><time>2026-04-12T07:33:07Z</time></trkpt><trkpt lat="45.44177624837439" lon="11.569550608478584"><ele>261.0</ele><time>2026-04-12T07:33:09Z</time></trkpt><trkpt lat="45.44184892035466" lon="11.569612442117265"><ele>261.0</ele><time>2026-04-12T07:33:11Z</time></trkpt><trkpt lat="45.44192492868647" lon="11.569703680639503"><ele>261.0</ele><time>2026-04-12T07:33:13Z</time></trkpt><trkpt lat="45.4419412879668" lon="11.569454198784141"><ele>261.0</ele><time>2026-04-12T07:33:21Z</time></trkpt><trkpt lat="45.44191484272241" lon="11.56934915251143"><ele>261.0</ele><time>2026-04-12T07:33:23Z</time></trkpt><trkpt lat="45.44188653562151" lon="11.569240892305961"><ele>261.0</ele><time>2026-04-12T07:33:25Z</time></trkpt><trkpt lat="45.441854380384974" lon="11.569128420675305"><ele>264.3333333333333</ele><time>2026-04-12T07:33:27Z</time></trkpt><trkpt lat="45.441920221625615" lon="11.569180864931266"><ele>267.6666666666667</ele><time>2026-04-12T07:33:32Z</time></trkpt><trkpt lat="45.44196899811834" lon="11.569243257119387"><ele>271.0</ele><time>2026-04-12T07:33:33Z</time></trkpt><trkpt lat="45.44205925030661" lon="11.569332876024493"><ele>274.33333333333337</ele><time>2026-04-12T07:33:35Z</time></trkpt><trkpt lat="45.44215244918961" lon="11.569370966808362"><ele>277.6666666666667</ele><time>2026-04-12T07:33:37Z</time></trkpt><trkpt lat="45.44224094043197" lon="11.569422167817846"><ele>281.0</ele><time>2026-04-12T07:33:39Z</time></trkpt><trkpt lat="45.44230377409236" lon="11.569445361949162"><ele>282.6666666666667</ele><time>2026-04-12T07:33:40Z</time></trkpt><trkpt lat="45.44241326793629" lon="11.569481671406049"><ele>284.33333333333337</ele><time>2026-04-12T07:33:42Z</time></trkpt><trkpt lat="45.44248412419692" lon="11.569519242845912"><ele>286.0</ele><time>2026-04-12T07:33:44Z</time></trkpt><trkpt lat="45.44254988161626" lon="11.569548664557622"><ele>287.6666666666667</ele><time>2026-04-12T07:33:46Z</time></trkpt><trkpt lat="45.44264060287727" lon="11.569601409687621"><ele>289.3333333333333</ele><time>2026-04-12T07:33:48Z</time></trkpt><trkpt lat="45.44271851488406" lon="11.569599308591823"><ele>291.0</ele><time>2026-04-12T07:33:50Z</time></trkpt><trkpt lat="45.4428099491285" lon="11.569610826291294"><ele>291.0</ele><time>2026-04-12T07:33:52Z</time></trkpt><trkpt lat="45.442894137889894" lon="11.569638440213563"><ele>291.0</ele><time>2026-04-12T07:33:54Z</time></trkpt><trkpt lat="45.442949539439915" lon="11.569711303227418"><ele>291.0</ele><time>2026-04-12T07:33:56Z</time></trkpt><trkpt lat="45.443054021272005" lon="11.569775998599653"><ele>291.0</ele><time>2026-04-12T07:33:58Z</time></trkpt><trkpt lat="45.44313653997643" lon="11.569767758008114"><ele>291.0</ele><time>2026-04-12T07:34:00Z</time></trkpt><trkpt lat="45.4431992630604" lon="11.569706189006752"><ele>291.0</ele><time>2026-04-12T07:34:02Z</time></trkpt><trkpt lat="45.44329471014996" lon="11.569609494452644"><ele>295.3333333333333</ele><time>2026-04-12T07:34:04Z</time></trkpt><trkpt lat="45.443374570432624" lon="11.569537748794367"><ele>299.6666666666667</ele><time>2026-04-12T07:34:06Z</time></trkpt><trkpt lat="45.44346521805606" lon="11.569467509447625"><ele>304.0</ele><time>2026-04-12T07:34:08Z</time></trkpt><trkpt lat="45.443525622994215" lon="11.569395678001914"><ele>308.33333333333337</ele><time>2026-04-12T07:34:10Z</time></trkpt><trkpt lat="45.44358959499562" lon="11.569376454495394"><ele>312.6666666666667</ele><time>2026-04-12T07:34:12Z</time></trkpt><trkpt lat="45.44365755857759" lon="11.569431312602196"><ele>317.0</ele><time>2026-04-12T07:34:14Z</time></trkpt><trkpt lat="45.443671361735966" lon="11.569567298940807"><ele>317.0</ele><time>2026-04-12T07:34:16Z</time></trkpt><trkpt lat="45.44368036986109" lon="11.569663830811857"><ele>317.0</ele><time>2026-04-12T07:34:17Z</time></trkpt><trkpt lat="45.44368441172912" lon="11.569754018555034"><ele>317.0</ele><time>2026-04-12T07:34:18Z</time></trkpt><trkpt lat="45.44369243217986" lon="11.569845026953674"><ele>317.0</ele><time>2026-04-12T07:34:19Z</time></trkpt><trkpt lat="45.443747152161464" lon="11.569975204798382"><ele>317.0</ele><time>2026-04-12T07:34:21Z</time></trkpt><trkpt lat="45.44383693247934" lon="11.570063515883108"><ele>317.0</ele><time>2026-04-12T07:34:23Z</time></trkpt><trkpt lat="45.44390366126508" lon="11.570094715844194"><ele>320.6666666666667</ele><time>2026-04-12T07:34:24Z</time></trkpt><trkpt lat="45.44397772583313" lon="11.570092461819641"><ele>324.33333333333337</ele><time>2026-04-12T07:34:25Z</time></trkpt><trkpt lat="45.44405740236365" lon="11.570086329551339"><ele>328.0</ele><time>2026-04-12T07:34:26Z</time></trkpt><trkpt lat="45.44413154476328" lon="11.570087079477272"><ele>331.6666666666667</ele><time>2026-04-12T07:34:27Z</time></trkpt><trkpt lat="45.4442030510602" lon="11.570067171171862"><ele>335.3333333333333</ele><time>2026-04-12T07:34:28Z</time></trkpt><trkpt lat="45.44429443531836" lon="11.570001060026591"><ele>339.0</ele><time>2026-04-12T07:34:30Z</time></trkpt><trkpt lat="45.44444468271487" lon="11.570094891717813"><ele>339.0</ele><time>2026-04-12T07:34:35Z</time></trkpt><trkpt lat="45.44452516158796" lon="11.57016108258126"><ele>339.0</ele><time>2026-04-12T07:34:36Z</time></trkpt><trkpt lat="45.44462044782616" lon="11.570234218081797"><ele>339.0</ele><time>2026-04-12T07:34:37Z</time></trkpt><trkpt lat="45.44468146438251" lon="11.570315525139751"><ele>339.0</ele><time>2026-04-12T07:34:38Z</time></trkpt><trkpt lat="45.44471553007852" lon="11.570412850556574"><ele>339.0</ele><time>2026-04-12T07:34:39Z</time></trkpt><trkpt lat="45.44475019615115" lon="11.570534089331145"><ele>338.8333333333333</ele><time>2026-04-12T07:34:40Z</time></trkpt><trkpt lat="45.44476864779117" lon="11.570648815865708"><ele>338.6666666666667</ele><time>2026-04-12T07:34:41Z</time></trkpt><trkpt lat="45.44480754132495" lon="11.570740139022416"><ele>338.5</ele><time>2026-04-12T07:34:42Z</time></trkpt><trkpt lat="45.444856052598865" lon="11.570812538220576"><ele>338.33333333333337</ele><time>2026-04-12T07:34:43Z</time></trkpt><trkpt lat="45.444901065312564" lon="11.57088563088179"><ele>338.1666666666667</ele><time>2026-04-12T07:34:44Z</time></trkpt><trkpt lat="45.44493863775166" lon="11.570960622943737"><ele>338.0</ele><time>2026-04-12T07:34:45Z</time></trkpt><trkpt lat="45.44498808937036" lon="11.571071351777231"><ele>334.25</ele><time>2026-04-12T07:34:46Z</time></trkpt><trkpt lat="45.44504251852978" lon="11.571194938207576"><ele>330.5</ele><time>2026-04-12T07:34:47Z</time></trkpt><trkpt lat="45.445118282778594" lon="11.571327115668298"><ele>326.75</ele><time>2026-04-12T07:34:48Z</time></trkpt><trkpt lat="45.44520593090533" lon="11.571455624547692"><ele>323.0</ele><time>2026-04-12T07:34:49Z</time></trkpt><trkpt lat="45.445286671107304" lon="11.571564475825411"><ele>323.0</ele><time>2026-04-12T07:34:50Z</time></trkpt><trkpt lat="45.44536667873689" lon="11.571664328191401"><ele>323.0</ele><time>2026-04-12T07:34:51Z</time></trkpt><trkpt lat="45.445436991205035" lon="11.571765776047446"><ele>323.0</ele><time>2026-04-12T07:34:52Z</time></trkpt><trkpt lat="45.44551045223488" lon="11.571857042279994"><ele>323.0</ele><time>2026-04-12T07:34:53Z</time></trkpt><trkpt lat="45.44559765297454" lon="11.571932201129226"><ele>323.0</ele><time>2026-04-12T07:34:54Z</time></trkpt><trkpt lat="45.44570196072111" lon="11.572005696886924"><ele>321.59999999999997</ele><time>2026-04-12T07:34:55Z</time></trkpt><trkpt lat="45.44581455994978" lon="11.572072026376052"><ele>320.2</ele><time>2026-04-12T07:34:56Z</time></trkpt><trkpt lat="45.44591378943074" lon="11.57214094876229"><ele>318.8</ele><time>2026-04-12T07:34:57Z</time></trkpt><trkpt lat="45.445999694459594" lon="11.572220079850851"><ele>317.4</ele><time>2026-04-12T07:34:58Z</time></trkpt><trkpt lat="45.44608703327863" lon="11.572285885226899"><ele>316.0</ele><time>2026-04-12T07:34:59Z</time></trkpt><trkpt lat="45.44617946943394" lon="11.572326253224766"><ele>316.0</ele><time>2026-04-12T07:35:00Z</time></trkpt><trkpt lat="45.446265591627416" lon="11.572345191300439"><ele>316.0</ele><time>2026-04-12T07:35:01Z</time></trkpt><trkpt lat="45.44634986303307" lon="11.57233730154428"><ele>316.0</ele><time>2026-04-12T07:35:02Z</time></trkpt><trkpt lat="45.446426292382064" lon="11.572313110961911"><ele>316.0</ele><time>2026-04-12T07:35:03Z</time></trkpt><trkpt lat="45.44650463968537" lon="11.572286610127488"><ele>316.0</ele><time>2026-04-12T07:35:04Z</time></trkpt><trkpt lat="45.446600480808684" lon="11.572230555363442"><ele>316.0</ele><time>2026-04-12T07:35:05Z</time></trkpt><trkpt lat="45.446704144698536" lon="11.57216808016589"><ele>318.4</ele><time>2026-04-12T07:35:06Z</time></trkpt><trkpt lat="45.446800588111174" lon="11.572108227603438"><ele>320.8</ele><time>2026-04-12T07:35:07Z</time></trkpt><trkpt lat="45.44689136050364" lon="11.572055783578412"><ele>323.2</ele><time>2026-04-12T07:35:08Z</time></trkpt><trkpt lat="45.446983993642576" lon="11.572014162701672"><ele>325.59999999999997</ele><time>2026-04-12T07:35:09Z</time></trkpt><trkpt lat="45.44707289307201" lon="11.571957389347324"><ele>328.0</ele><time>2026-04-12T07:35:10Z</time></trkpt><trkpt lat="45.44715243454386" lon="11.571899448885754"><ele>328.5</ele><time>2026-04-12T07:35:11Z</time></trkpt><trkpt lat="45.44723887174832" lon="11.571836179120018"><ele>329.0</ele><time>2026-04-12T07:35:12Z</time></trkpt><trkpt lat="45.44732056635036" lon="11.571769399234313"><ele>329.5</ele><time>2026-04-12T07:35:13Z</time></trkpt><trkpt lat="45.44740492418273" lon="11.571719795303894"><ele>330.0</ele><time>2026-04-12T07:35:14Z</time></trkpt><trkpt lat="45.44747964328546" lon="11.571708018124362"><ele>330.5</ele><time>2026-04-12T07:35:15Z</time></trkpt><trkpt lat="45.447547460737475" lon="11.571712272051581"><ele>331.0</ele><time>2026-04-12T07:35:16Z</time></trkpt><trkpt lat="45.447614897784305" lon="11.571694665763658"><ele>331.0</ele><time>2026-04-12T07:35:17Z</time></trkpt><trkpt lat="45.447676002613726" lon="11.571547841236823"><ele>331.0</ele><time>2026-04-12T07:35:19Z</time></trkpt><trkpt lat="45.447704353102374" lon="11.57144115767411"><ele>331.0</ele><time>2026-04-12T07:35:20Z</time></trkpt><trkpt lat="45.44775909572347" lon="11.571362927815958"><ele>331.0</ele><time>2026-04-12T07:35:21Z</time></trkpt><trkpt lat="45.447826597815215" lon="11.571312114415157"><ele>331.0</ele><time>2026-04-12T07:35:22Z</time></trkpt><trkpt lat="45.447898968107545" lon="11.571275673792645"><ele>331.0</ele><time>2026-04-12T07:35:23Z</time></trkpt><trkpt lat="45.447978598343745" lon="11.571234166350413"><ele>331.3333333333333</ele><time>2026-04-12T07:35:24Z</time></trkpt><trkpt lat="45.44805755366174" lon="11.571241051285593"><ele>331.66666666666663</ele><time>2026-04-12T07:35:25Z</time></trkpt><trkpt lat="45.44812227890167" lon="11.57128916061853"><ele>332.0</ele><time>2026-04-12T07:35:26Z</time></trkpt><trkpt lat="45.448178846865744" lon="11.57134390181783"><ele>332.3333333333333</ele><time>2026-04-12T07:35:27Z</time></trkpt><trkpt lat="45.448288648759004" lon="11.571394677367898"><ele>332.6666666666667</ele><time>2026-04-12T07:35:29Z</time></trkpt><trkpt lat="45.44835466810505" lon="11.571366381725058"><ele>333.0</ele><time>2026-04-12T07:35:30Z</time></trkpt><trkpt lat="45.44845565568494" lon="11.571257174562668"><ele>333.59999999999997</ele><time>2026-04-12T07:35:32Z</time></trkpt><trkpt lat="45.44856446252547" lon="11.571126524537444"><ele>334.2</ele><time>2026-04-12T07:35:34Z</time></trkpt><trkpt lat="45.44861631979025" lon="11.57104635162375"><ele>334.8</ele><time>2026-04-12T07:35:35Z</time></trkpt><trkpt lat="45.448685030737366" lon="11.570987071340571"><ele>335.4</ele><time>2026-04-12T07:35:36Z</time></trkpt><trkpt lat="45.4487743267442" lon="11.570914551565085"><ele>336.0</ele><time>2026-04-12T07:35:37Z</time></trkpt><trkpt lat="45.44887297191553" lon="11.570881848783085"><ele>336.0</ele><time>2026-04-12T07:35:38Z</time></trkpt><trkpt lat="45.44896864269901" lon="11.570870318413872"><ele>336.0</ele><time>2026-04-12T07:35:39Z</time></trkpt><trkpt lat="45.449057610657036" lon="11.570875203807974"><ele>336.0</ele><time>2026-04-12T07:35:40Z</time></trkpt><trkpt lat="45.44915375025049" lon="11.570900151988285"><ele>336.0</ele><time>2026-04-12T07:35:41Z</time></trkpt><trkpt lat="45.449245722015675" lon="11.570925810174879"><ele>336.0</ele><time>2026-04-12T07:35:42Z</time></trkpt><trkpt lat="45.44935499840881" lon="11.570948711397117"><ele>336.0</ele><time>2026-04-12T07:35:43Z</time></trkpt><trkpt lat="45.44945785865407" lon="11.570970472558441"><ele>336.0</ele><time>2026-04-12T07:35:44Z</time></trkpt><trkpt lat="45.44953978514536" lon="11.571006498742936"><ele>336.0</ele><time>2026-04-12T07:35:45Z</time></trkpt><trkpt lat="45.4495933992273" lon="11.571059168471294"><ele>336.0</ele><time>2026-04-12T07:35:46Z</time></trkpt><trkpt lat="45.44968139984924" lon="11.570906561535963"><ele>336.0</ele><time>2026-04-12T07:35:50Z</time></trkpt><trkpt lat="45.44972460957833" lon="11.570761761854074"><ele>336.6666666666667</ele><time>2026-04-12T07:35:52Z</time></trkpt><trkpt lat="45.449786861611685" lon="11.570624334808949"><ele>337.3333333333333</ele><time>2026-04-12T07:35:53Z</time></trkpt><trkpt lat="45.449836467480665" lon="11.570522475879152"><ele>338.0</ele><time>2026-04-12T07:35:54Z</time></trkpt><trkpt lat="45.449849312454" lon="11.57042490926612"><ele>338.66666666666663</ele><time>2026-04-12T07:35:55Z</time></trkpt><trkpt lat="45.449841099115865" lon="11.570335598718824"><ele>339.3333333333333</ele><time>2026-04-12T07:35:56Z</time></trkpt><trkpt lat="45.44981479904961" lon="11.570242439269839"><ele>340.0</ele><time>2026-04-12T07:35:57Z</time></trkpt><trkpt lat="45.449783010389794" lon="11.570142789501455"><ele>340.0</ele><time>2026-04-12T07:35:58Z</time></trkpt><trkpt lat="45.44977335200677" lon="11.570040248852129"><ele>340.0</ele><time>2026-04-12T07:35:59Z</time></trkpt><trkpt lat="45.44978997138782" lon="11.5699084724573"><ele>340.0</ele><time>2026-04-12T07:36:00Z</time></trkpt><trkpt lat="45.44980855227592" lon="11.569783629365297"><ele>340.0</ele><time>2026-04-12T07:36:01Z</time></trkpt><trkpt lat="45.4498528354478" lon="11.569659751409041"><ele>340.0</ele><time>2026-04-12T07:36:02Z</time></trkpt><trkpt lat="45.44991504870065" lon="11.569604714291625"><ele>340.0</ele><time>2026-04-12T07:36:04Z</time></trkpt><trkpt lat="45.45000186937446" lon="11.569622646791"><ele>340.0</ele><time>2026-04-12T07:36:06Z</time></trkpt><trkpt lat="45.45006660914302" lon="11.569631312161595"><ele>340.0</ele><time>2026-04-12T07:36:07Z</time></trkpt><trkpt lat="45.450157493729805" lon="11.569647661351913"><ele>340.0</ele><time>2026-04-12T07:36:08Z</time></trkpt><trkpt lat="45.450261555149346" lon="11.569677492843061"><ele>340.0</ele><time>2026-04-12T07:36:09Z</time></trkpt><trkpt lat="45.45035568153549" lon="11.569702212370714"><ele>340.0</ele><time>2026-04-12T07:36:10Z</time></trkpt><trkpt lat="45.45042774397474" lon="11.569735834860959"><ele>340.0</ele><time>2026-04-12T07:36:11Z</time></trkpt><trkpt lat="45.450535065837705" lon="11.569798575486873"><ele>340.5</ele><time>2026-04-12T07:36:13Z</time></trkpt><trkpt lat="45.45063143539708" lon="11.569829264012533"><ele>341.0</ele><time>2026-04-12T07:36:15Z</time></trkpt><trkpt lat="45.45067881265863" lon="11.56989736499469"><ele>341.5</ele><time>2026-04-12T07:36:16Z</time></trkpt><trkpt lat="45.4507222497086" lon="11.56997727701955"><ele>342.0</ele><time>2026-04-12T07:36:17Z</time></trkpt><trkpt lat="45.45073939517261" lon="11.570165582435097"><ele>342.5</ele><time>2026-04-12T07:36:19Z</time></trkpt><trkpt lat="45.450741999688404" lon="11.570261593951388"><ele>343.0</ele><time>2026-04-12T07:36:20Z</time></trkpt><trkpt lat="45.45082350689468" lon="11.570401711145415"><ele>341.16666666666663</ele><time>2026-04-12T07:36:22Z</time></trkpt><trkpt lat="45.45089602862953" lon="11.570445912870662"><ele>339.3333333333333</ele><time>2026-04-12T07:36:23Z</time></trkpt><trkpt lat="45.45098456867465" lon="11.570482094962141"><ele>337.5</ele><time>2026-04-12T07:36:24Z</time></trkpt><trkpt lat="45.451060486825476" lon="11.570496532646553"><ele>335.6666666666667</ele><time>2026-04-12T07:36:25Z</time></trkpt><trkpt lat="45.45114423909365" lon="11.57050238062945"><ele>333.83333333333337</ele><time>2026-04-12T07:36:26Z</time></trkpt><trkpt lat="45.45120811799111" lon="11.570536956628246"><ele>332.0</ele><time>2026-04-12T07:36:27Z</time></trkpt><trkpt lat="45.45127020883662" lon="11.570593587471706"><ele>332.83333333333337</ele><time>2026-04-12T07:36:28Z</time></trkpt><trkpt lat="45.45132598654856" lon="11.570671263870956"><ele>333.6666666666667</ele><time>2026-04-12T07:36:29Z</time></trkpt><trkpt lat="45.451403079171804" lon="11.570683054547187"><ele>334.5</ele><time>2026-04-12T07:36:30Z</time></trkpt><trkpt lat="45.45148427333919" lon="11.570659967822365"><ele>335.3333333333333</ele><time>2026-04-12T07:36:31Z</time></trkpt><trkpt lat="45.45154998538073" lon="11.570606338723687"><ele>336.16666666666663</ele><time>2026-04-12T07:36:32Z</time></trkpt><trkpt lat="45.45159976959025" lon="11.570520541333954"><ele>337.0</ele><time>2026-04-12T07:36:33Z</time></trkpt><trkpt lat="45.45166055699904" lon="11.570416144901213"><ele>338.0</ele><time>2026-04-12T07:36:34Z</time></trkpt><trkpt lat="45.45172538334208" lon="11.570321169082908"><ele>339.0</ele><time>2026-04-12T07:36:35Z</time></trkpt><trkpt lat="45.45179112022318" lon="11.570209028537509"><ele>340.0</ele><time>2026-04-12T07:36:36Z</time></trkpt><trkpt lat="45.451833167764114" lon="11.5700957136758"><ele>341.0</ele><time>2026-04-12T07:36:37Z</time></trkpt><trkpt lat="45.451870556995495" lon="11.569990714371784"><ele>342.0</ele><time>2026-04-12T07:36:38Z</time></trkpt><trkpt lat="45.451913323518305" lon="11.569904836611256"><ele>343.0</ele><time>2026-04-12T07:36:39Z</time></trkpt><trkpt lat="45.451956533319" lon="11.569820232306007"><ele>343.0</ele><time>2026-04-12T07:36:40Z</time></trkpt><trkpt lat="45.45200332168116" lon="11.569720962991532"><ele>343.0</ele><time>2026-04-12T07:36:41Z</time></trkpt><trkpt lat="45.45206835938531" lon="11.56967407163983"><ele>343.0</ele><time>2026-04-12T07:36:42Z</time></trkpt><trkpt lat="45.45213371286225" lon="11.569623630654018"><ele>343.0</ele><time>2026-04-12T07:36:43Z</time></trkpt><trkpt lat="45.45220524740387" lon="11.569566477846914"><ele>343.0</ele><time>2026-04-12T07:36:44Z</time></trkpt><trkpt lat="45.452277089647964" lon="11.569495688096573"><ele>343.0</ele><time>2026-04-12T07:36:45Z</time></trkpt><trkpt lat="45.45233837179222" lon="11.569438795088484"><ele>342.0</ele><time>2026-04-12T07:36:46Z</time></trkpt><trkpt lat="45.45240407980929" lon="11.569395287021496"><ele>341.0</ele><time>2026-04-12T07:36:47Z</time></trkpt><trkpt lat="45.45247692302676" lon="11.569362804409403"><ele>340.0</ele><time>2026-04-12T07:36:48Z</time></trkpt><trkpt lat="45.452544255342914" lon="11.56930668073904"><ele>339.0</ele><time>2026-04-12T07:36:49Z</time></trkpt><trkpt lat="45.452605266773745" lon="11.569230791019566"><ele>338.0</ele><time>2026-04-12T07:36:50Z</time></trkpt><trkpt lat="45.45264809144613" lon="11.56915985848817"><ele>337.0</ele><time>2026-04-12T07:36:51Z</time></trkpt><trkpt lat="45.45269938292524" lon="11.569028337255943"><ele>337.0</ele><time>2026-04-12T07:36:53Z</time></trkpt><trkpt lat="45.45270913241701" lon="11.56887086232965"><ele>337.0</ele><time>2026-04-12T07:36:55Z</time></trkpt><trkpt lat="45.45271066175909" lon="11.568778954010204"><ele>337.0</ele><time>2026-04-12T07:36:56Z</time></trkpt><trkpt lat="45.452694065159214" lon="11.568643268871046"><ele>337.0</ele><time>2026-04-12T07:36:57Z</time></trkpt><trkpt lat="45.45267642480921" lon="11.568497482919938"><ele>337.0</ele><time>2026-04-12T07:36:58Z</time></trkpt><trkpt lat="45.452672286742796" lon="11.568352402807767"><ele>337.8333333333333</ele><time>2026-04-12T07:36:59Z</time></trkpt><trkpt lat="45.45267918461498" lon="11.568241980869704"><ele>338.66666666666663</ele><time>2026-04-12T07:37:00Z</time></trkpt><trkpt lat="45.45266875446403" lon="11.568134178906858"><ele>339.5</ele><time>2026-04-12T07:37:01Z</time></trkpt><trkpt lat="45.45264025106842" lon="11.568011911572418"><ele>340.3333333333333</ele><time>2026-04-12T07:37:02Z</time></trkpt><trkpt lat="45.452590589284824" lon="11.567906004671425"><ele>341.1666666666667</ele><time>2026-04-12T07:37:03Z</time></trkpt><trkpt lat="45.45252168308738" lon="11.567809068733748"><ele>342.0</ele><time>2026-04-12T07:37:04Z</time></trkpt><trkpt lat="45.452447345350556" lon="11.5677161345392"><ele>342.3333333333333</ele><time>2026-04-12T07:37:05Z</time></trkpt><trkpt lat="45.452367239752924" lon="11.567628009701032"><ele>342.6666666666667</ele><time>2026-04-12T07:37:06Z</time></trkpt><trkpt lat="45.45228810491369" lon="11.5675640200561"><ele>343.0</ele><time>2026-04-12T07:37:07Z</time></trkpt><trkpt lat="45.45220298913956" lon="11.567512811354721"><ele>343.33333333333337</ele><time>2026-04-12T07:37:08Z</time></trkpt><trkpt lat="45.45213204470216" lon="11.56745145267275"><ele>343.6666666666667</ele><time>2026-04-12T07:37:09Z</time></trkpt><trkpt lat="45.45208361971382" lon="11.567381437073045"><ele>344.0</ele><time>2026-04-12T07:37:10Z</time></trkpt><trkpt lat="45.45205503788123" lon="11.567252012388643"><ele>347.4</ele><time>2026-04-12T07:37:12Z</time></trkpt><trkpt lat="45.45204582876281" lon="11.567140114935835"><ele>350.79999999999995</ele><time>2026-04-12T07:37:13Z</time></trkpt><trkpt lat="45.452018314225754" lon="11.567025112255672"><ele>354.20000000000005</ele><time>2026-04-12T07:37:14Z</time></trkpt><trkpt lat="45.45197911035547" lon="11.566881037622494"><ele>357.6</ele><time>2026-04-12T07:37:15Z</time></trkpt><trkpt lat="45.45192414370363" lon="11.566733194719793"><ele>361.0</ele><time>2026-04-12T07:37:16Z</time></trkpt><trkpt lat="45.45187786602446" lon="11.566621410699836"><ele>361.8333333333333</ele><time>2026-04-12T07:37:17Z</time></trkpt><trkpt lat="45.45183578169243" lon="11.566544364574561"><ele>362.66666666666663</ele><time>2026-04-12T07:37:18Z</time></trkpt><trkpt lat="45.45177848230162" lon="11.56649107449706"><ele>363.5</ele><time>2026-04-12T07:37:19Z</time></trkpt><trkpt lat="45.45172943965605" lon="11.566419856991667"><ele>364.3333333333333</ele><time>2026-04-12T07:37:20Z</time></trkpt><trkpt lat="45.45168727968275" lon="11.566268530375641"><ele>365.1666666666667</ele><time>2026-04-12T07:37:22Z</time></trkpt><trkpt lat="45.45167923500908" lon="11.56617324502642"><ele>366.0</ele><time>2026-04-12T07:37:23Z</time></trkpt><trkpt lat="45.45166193402396" lon="11.56604061666493"><ele>366.1666666666667</ele><time>2026-04-12T07:37:24Z</time></trkpt><trkpt lat="45.45165436854923" lon="11.565929657171765"><ele>366.3333333333333</ele><time>2026-04-12T07:37:25Z</time></trkpt><trkpt lat="45.45172337346099" lon="11.565862135912122"><ele>366.5</ele><time>2026-04-12T07:37:27Z</time></trkpt><trkpt lat="45.451690521269605" lon="11.565754665117655"><ele>366.66666666666663</ele><time>2026-04-12T07:37:28Z</time></trkpt><trkpt lat="45.45159881521169" lon="11.565723983614816"><ele>366.8333333333333</ele><time>2026-04-12T07:37:30Z</time></trkpt><trkpt lat="45.451518618131985" lon="11.565737105286846"><ele>367.0</ele><time>2026-04-12T07:37:31Z</time></trkpt><trkpt lat="45.45142835507042" lon="11.565769174967638"><ele>367.0</ele><time>2026-04-12T07:37:32Z</time></trkpt><trkpt lat="45.45134556979162" lon="11.565772721985535"><ele>367.0</ele><time>2026-04-12T07:37:33Z</time></trkpt><trkpt lat="45.45125519136494" lon="11.565742903506226"><ele>367.0</ele><time>2026-04-12T07:37:34Z</time></trkpt><trkpt lat="45.45118608886737" lon="11.565734835769439"><ele>367.0</ele><time>2026-04-12T07:37:35Z</time></trkpt><trkpt lat="45.45105318958018" lon="11.56568792744948"><ele>367.0</ele><time>2026-04-12T07:37:37Z</time></trkpt><trkpt lat="45.4509563751259" lon="11.565654962454566"><ele>369.8</ele><time>2026-04-12T07:37:38Z</time></trkpt><trkpt lat="45.45085252426406" lon="11.565614563995767"><ele>372.6</ele><time>2026-04-12T07:37:39Z</time></trkpt><trkpt lat="45.45077954163725" lon="11.565594432569476"><ele>375.40000000000003</ele><time>2026-04-12T07:37:40Z</time></trkpt><trkpt lat="45.450712319167444" lon="11.565507617281298"><ele>378.20000000000005</ele><time>2026-04-12T07:37:42Z</time></trkpt><trkpt lat="45.45067492195286" lon="11.565431646041016"><ele>381.0</ele><time>2026-04-12T07:37:44Z</time></trkpt><trkpt lat="45.450590232590265" lon="11.565279723258602"><ele>381.0</ele><time>2026-04-12T07:37:46Z</time></trkpt><trkpt lat="45.45053867958559" lon="11.565167771125548"><ele>381.0</ele><time>2026-04-12T07:37:47Z</time></trkpt><trkpt lat="45.450477229719134" lon="11.565049456885015"><ele>381.0</ele><time>2026-04-12T07:37:48Z</time></trkpt><trkpt lat="45.45041762400737" lon="11.564966173802528"><ele>381.0</ele><time>2026-04-12T07:37:49Z</time></trkpt><trkpt lat="45.45037263737234" lon="11.564817855459907"><ele>381.0</ele><time>2026-04-12T07:37:51Z</time></trkpt><trkpt lat="45.45036774552505" lon="11.564714469272118"><ele>381.5</ele><time>2026-04-12T07:37:52Z</time></trkpt><trkpt lat="45.45037714594287" lon="11.564591256762021"><ele>382.0</ele><time>2026-04-12T07:37:53Z</time></trkpt><trkpt lat="45.450403315274656" lon="11.5644665923558"><ele>382.5</ele><time>2026-04-12T07:37:54Z</time></trkpt><trkpt lat="45.450413216836445" lon="11.564363320384762"><ele>383.0</ele><time>2026-04-12T07:37:55Z</time></trkpt><trkpt lat="45.450354221021485" lon="11.56424231449944"><ele>383.5</ele><time>2026-04-12T07:37:57Z</time></trkpt><trkpt lat="45.450290584708185" lon="11.564182116156564"><ele>384.0</ele><time>2026-04-12T07:37:58Z</time></trkpt><trkpt lat="45.450225437533184" lon="11.564129067562497"><ele>386.2</ele><time>2026-04-12T07:37:59Z</time></trkpt><trkpt lat="45.450173337144385" lon="11.564075098595914"><ele>388.4</ele><time>2026-04-12T07:38:00Z</time></trkpt><trkpt lat="45.45019318367525" lon="11.563980044521255"><ele>390.6</ele><time>2026-04-12T07:38:02Z</time></trkpt><trkpt lat="45.4502457863306" lon="11.563828930203771"><ele>392.8</ele><time>2026-04-12T07:38:04Z</time></trkpt><trkpt lat="45.45030241472484" lon="11.5636875423669"><ele>395.0</ele><time>2026-04-12T07:38:06Z</time></trkpt><trkpt lat="45.450362396652366" lon="11.563590783872531"><ele>395.3333333333333</ele><time>2026-04-12T07:38:08Z</time></trkpt><trkpt lat="45.4504087193036" lon="11.56351221329447"><ele>395.66666666666663</ele><time>2026-04-12T07:38:09Z</time></trkpt><trkpt lat="45.450454229338554" lon="11.563437832931058"><ele>396.0</ele><time>2026-04-12T07:38:10Z</time></trkpt><trkpt lat="45.45051649618198" lon="11.563375680358423"><ele>396.33333333333337</ele><time>2026-04-12T07:38:11Z</time></trkpt><trkpt lat="45.45057394629407" lon="11.563314240172328"><ele>396.6666666666667</ele><time>2026-04-12T07:38:12Z</time></trkpt><trkpt lat="45.45065037881694" lon="11.563259915209507"><ele>397.0</ele><time>2026-04-12T07:38:13Z</time></trkpt><trkpt lat="45.45074410501481" lon="11.563200363357533"><ele>396.20000000000005</ele><time>2026-04-12T07:38:14Z</time></trkpt><trkpt lat="45.450843461377914" lon="11.563143755379151"><ele>395.4</ele><time>2026-04-12T07:38:15Z</time></trkpt><trkpt lat="45.45092596156314" lon="11.563088008691578"><ele>394.6</ele><time>2026-04-12T07:38:16Z</time></trkpt><trkpt lat="45.451003599719726" lon="11.563055995384572"><ele>393.79999999999995</ele><time>2026-04-12T07:38:17Z</time></trkpt><trkpt lat="45.45108783773833" lon="11.563034896020572"><ele>393.0</ele><time>2026-04-12T07:38:18Z</time></trkpt><trkpt lat="45.45118210594024" lon="11.563002560785401"><ele>393.59999999999997</ele><time>2026-04-12T07:38:19Z</time></trkpt><trkpt lat="45.451292247587425" lon="11.5629717044161"><ele>394.2</ele><time>2026-04-12T07:38:20Z</time></trkpt><trkpt lat="45.45139173205585" lon="11.562923872180876"><ele>394.8</ele><time>2026-04-12T07:38:21Z</time></trkpt><trkpt lat="45.45147273762877" lon="11.56285477884288"><ele>395.4</ele><time>2026-04-12T07:38:22Z</time></trkpt><trkpt lat="45.45153912477495" lon="11.562789068794796"><ele>396.0</ele><time>2026-04-12T07:38:23Z</time></trkpt><trkpt lat="45.45159998146758" lon="11.562731137820208"><ele>396.0</ele><time>2026-04-12T07:38:24Z</time></trkpt><trkpt lat="45.4516604091588" lon="11.562692028746763"><ele>396.0</ele><time>2026-04-12T07:38:25Z</time></trkpt><trkpt lat="45.45172835539359" lon="11.562673828690022"><ele>396.0</ele><time>2026-04-12T07:38:26Z</time></trkpt><trkpt lat="45.45180908858453" lon="11.562672264231825"><ele>396.0</ele><time>2026-04-12T07:38:27Z</time></trkpt><trkpt lat="45.45189366666823" lon="11.562667824635213"><ele>396.0</ele><time>2026-04-12T07:38:28Z</time></trkpt><trkpt lat="45.45197446681501" lon="11.56264871546166"><ele>396.0</ele><time>2026-04-12T07:38:29Z</time></trkpt><trkpt lat="45.452063886695655" lon="11.562617198547247"><ele>396.1666666666667</ele><time>2026-04-12T07:38:30Z</time></trkpt><trkpt lat="45.45214791740349" lon="11.562590389692364"><ele>396.33333333333337</ele><time>2026-04-12T07:38:31Z</time></trkpt><trkpt lat="45.4522174669136" lon="11.562549578721164"><ele>396.5</ele><time>2026-04-12T07:38:32Z</time></trkpt><trkpt lat="45.452276459697536" lon="11.562485422396577"><ele>396.6666666666667</ele><time>2026-04-12T07:38:33Z</time></trkpt><trkpt lat="45.45232029903453" lon="11.562400360944155"><ele>396.83333333333337</ele><time>2026-04-12T07:38:34Z</time></trkpt><trkpt lat="45.45238361622355" lon="11.562336385673644"><ele>397.0</ele><time>2026-04-12T07:38:36Z</time></trkpt><trkpt lat="45.452471499460835" lon="11.56234896932086"><ele>397.00000000000006</ele><time>2026-04-12T07:38:38Z</time></trkpt><trkpt lat="45.452554880402495" lon="11.56234545699943"><ele>397.0</ele><time>2026-04-12T07:38:39Z</time></trkpt><trkpt lat="45.45262985895005" lon="11.562345869960822"><ele>397.0</ele><time>2026-04-12T07:38:40Z</time></trkpt><trkpt lat="45.45270034979275" lon="11.562366844997964"><ele>397.0</ele><time>2026-04-12T07:38:41Z</time></trkpt><trkpt lat="45.45277845334783" lon="11.562375865050022"><ele>397.00000000000006</ele><time>2026-04-12T07:38:42Z</time></trkpt><trkpt lat="45.45285194493642" lon="11.56236131288415"><ele>397.0</ele><time>2026-04-12T07:38:43Z</time></trkpt><trkpt lat="45.452974104134896" lon="11.562292288262475"><ele>396.2857142857143</ele><time>2026-04-12T07:38:45Z</time></trkpt><trkpt lat="45.45303082483792" lon="11.562245626158722"><ele>395.57142857142856</ele><time>2026-04-12T07:38:46Z</time></trkpt><trkpt lat="45.45307981840733" lon="11.562185967048807"><ele>394.8571428571429</ele><time>2026-04-12T07:38:47Z</time></trkpt><trkpt lat="45.45312679576631" lon="11.562111541373511"><ele>394.1428571428571</ele><time>2026-04-12T07:38:48Z</time></trkpt><trkpt lat="45.4531662854958" lon="11.562034498358182"><ele>393.42857142857144</ele><time>2026-04-12T07:38:49Z</time></trkpt><trkpt lat="45.45320142867515" lon="11.561944995306979"><ele>392.7142857142857</ele><time>2026-04-12T07:38:50Z</time></trkpt><trkpt lat="45.45323177511983" lon="11.561838197699725"><ele>392.0</ele><time>2026-04-12T07:38:51Z</time></trkpt><trkpt lat="45.45326664897567" lon="11.561748389371624"><ele>391.49999999999994</ele><time>2026-04-12T07:38:52Z</time></trkpt><trkpt lat="45.4532954481793" lon="11.561664123682155"><ele>391.0</ele><time>2026-04-12T07:38:53Z</time></trkpt><trkpt lat="45.45335785717797" lon="11.561542847946953"><ele>390.5</ele><time>2026-04-12T07:38:55Z</time></trkpt><trkpt lat="45.45342311263204" lon="11.561528107507396"><ele>390.0</ele><time>2026-04-12T07:38:56Z</time></trkpt><trkpt lat="45.453501598226296" lon="11.56153645313786"><ele>389.49999999999994</ele><time>2026-04-12T07:38:57Z</time></trkpt><trkpt lat="45.45358854050433" lon="11.561538497896542"><ele>389.0</ele><time>2026-04-12T07:38:58Z</time></trkpt><trkpt lat="45.45368489956767" lon="11.561522527530986"><ele>388.99999999999994</ele><time>2026-04-12T07:38:59Z</time></trkpt><trkpt lat="45.45377238079435" lon="11.561517453310788"><ele>389.0</ele><time>2026-04-12T07:39:00Z</time></trkpt><trkpt lat="45.45384664636211" lon="11.56157564032314"><ele>389.0</ele><time>2026-04-12T07:39:01Z</time></trkpt><trkpt lat="45.453891180035406" lon="11.56165731492667"><ele>389.0</ele><time>2026-04-12T07:39:02Z</time></trkpt><trkpt lat="45.453937175225896" lon="11.561729537879394"><ele>388.99999999999994</ele><time>2026-04-12T07:39:03Z</time></trkpt><trkpt lat="45.453989009210865" lon="11.561812199319494"><ele>389.0</ele><time>2026-04-12T07:39:04Z</time></trkpt><trkpt lat="45.454046562789806" lon="11.561880808624961"><ele>388.79999999999995</ele><time>2026-04-12T07:39:05Z</time></trkpt><trkpt lat="45.45410856754778" lon="11.561952652543491"><ele>388.59999999999997</ele><time>2026-04-12T07:39:06Z</time></trkpt><trkpt lat="45.45417296277624" lon="11.562041765873381"><ele>388.4</ele><time>2026-04-12T07:39:07Z</time></trkpt><trkpt lat="45.45421674325189" lon="11.562159836094825"><ele>388.2</ele><time>2026-04-12T07:39:08Z</time></trkpt><trkpt lat="45.45425808620874" lon="11.562244980855718"><ele>388.0</ele><time>2026-04-12T07:39:09Z</time></trkpt><trkpt lat="45.4543919058072" lon="11.562313348474307"><ele>386.1666666666667</ele><time>2026-04-12T07:39:11Z</time></trkpt><trkpt lat="45.454473208648594" lon="11.562354714706325"><ele>384.33333333333337</ele><time>2026-04-12T07:39:12Z</time></trkpt><trkpt lat="45.45453569116034" lon="11.562420307448852"><ele>382.5</ele><time>2026-04-12T07:39:13Z</time></trkpt><trkpt lat="45.45458913574192" lon="11.56250288961818"><ele>380.6666666666667</ele><time>2026-04-12T07:39:14Z</time></trkpt><trkpt lat="45.45463237585547" lon="11.56259550940459"><ele>378.83333333333337</ele><time>2026-04-12T07:39:15Z</time></trkpt><trkpt lat="45.45467957922521" lon="11.562705320094116"><ele>377.0</ele><time>2026-04-12T07:39:16Z</time></trkpt><trkpt lat="45.454727882839705" lon="11.56278846207417"><ele>377.0</ele><time>2026-04-12T07:39:17Z</time></trkpt><trkpt lat="45.45476520650673" lon="11.562862431401"><ele>377.0</ele><time>2026-04-12T07:39:18Z</time></trkpt><trkpt lat="45.45482620545766" lon="11.562955368280065"><ele>377.0</ele><time>2026-04-12T07:39:20Z</time></trkpt><trkpt lat="45.454812080038735" lon="11.563051071340942"><ele>377.0</ele><time>2026-04-12T07:39:22Z</time></trkpt><trkpt lat="45.45474448985204" lon="11.563081214442372"><ele>377.0</ele><time>2026-04-12T07:39:24Z</time></trkpt><trkpt lat="45.454775001425595" lon="11.563224680508544"><ele>377.0</ele><time>2026-04-12T07:39:27Z</time></trkpt><trkpt lat="45.454826856279624" lon="11.563295369525205"><ele>374.1666666666667</ele><time>2026-04-12T07:39:28Z</time></trkpt><trkpt lat="45.45488470451565" lon="11.56335350664309"><ele>371.33333333333337</ele><time>2026-04-12T07:39:29Z</time></trkpt><trkpt lat="45.45499103795311" lon="11.563383307810142"><ele>368.5</ele><time>2026-04-12T07:39:31Z</time></trkpt><trkpt lat="45.45505508709415" lon="11.563350506021763"><ele>365.6666666666667</ele><time>2026-04-12T07:39:32Z</time></trkpt><trkpt lat="45.45513057878875" lon="11.563284428748622"><ele>362.8333333333333</ele><time>2026-04-12T07:39:34Z</time></trkpt><trkpt lat="45.45522694564737" lon="11.563263572733364"><ele>360.0</ele><time>2026-04-12T07:39:37Z</time></trkpt><trkpt lat="45.45533310344669" lon="11.563305024063542"><ele>360.0</ele><time>2026-04-12T07:39:39Z</time></trkpt><trkpt lat="45.45543124878395" lon="11.56330827683332"><ele>360.0</ele><time>2026-04-12T07:39:41Z</time></trkpt><trkpt lat="45.45549228741541" lon="11.563281945738103"><ele>360.0</ele><time>2026-04-12T07:39:42Z</time></trkpt><trkpt lat="45.45556084105317" lon="11.563285238419237"><ele>360.0</ele><time>2026-04-12T07:39:43Z</time></trkpt><trkpt lat="45.45565472705439" lon="11.563243033939415"><ele>360.0</ele><time>2026-04-12T07:39:45Z</time></trkpt><trkpt lat="45.455742693200875" lon="11.563173573193684"><ele>360.0</ele><time>2026-04-12T07:39:47Z</time></trkpt><trkpt lat="45.455811865922485" lon="11.563104171640278"><ele>360.1666666666667</ele><time>2026-04-12T07:39:48Z</time></trkpt><trkpt lat="45.45588605099125" lon="11.563036176781218"><ele>360.3333333333333</ele><time>2026-04-12T07:39:49Z</time></trkpt><trkpt lat="45.45595999828715" lon="11.56297968323846"><ele>360.5</ele><time>2026-04-12T07:39:50Z</time></trkpt><trkpt lat="45.456038991251766" lon="11.5629218915758"><ele>360.66666666666663</ele><time>2026-04-12T07:39:51Z</time></trkpt><trkpt lat="45.456105804391946" lon="11.562885468598555"><ele>360.8333333333333</ele><time>2026-04-12T07:39:52Z</time></trkpt><trkpt lat="45.45616385718194" lon="11.56283377480081"><ele>361.0</ele><time>2026-04-12T07:39:53Z</time></trkpt><trkpt lat="45.45627903349254" lon="11.562780017240913"><ele>362.0</ele><time>2026-04-12T07:39:55Z</time></trkpt><trkpt lat="45.456329002089866" lon="11.56270148984073"><ele>363.0</ele><time>2026-04-12T07:39:57Z</time></trkpt><trkpt lat="45.456345402023935" lon="11.562599887717385"><ele>364.0</ele><time>2026-04-12T07:39:58Z</time></trkpt><trkpt lat="45.45636764369032" lon="11.56251410768555"><ele>365.0</ele><time>2026-04-12T07:39:59Z</time></trkpt><trkpt lat="45.45648403791411" lon="11.562433805211802"><ele>366.0</ele><time>2026-04-12T07:40:01Z</time></trkpt><trkpt lat="45.456542566382275" lon="11.562396531390512"><ele>367.0</ele><time>2026-04-12T07:40:02Z</time></trkpt><trkpt lat="45.45659674348776" lon="11.562344484647642"><ele>367.0</ele><time>2026-04-12T07:40:03Z</time></trkpt><trkpt lat="45.45666574105319" lon="11.562301540051122"><ele>367.0</ele><time>2026-04-12T07:40:05Z</time></trkpt><trkpt lat="45.45673095063449" lon="11.562253940897941"><ele>367.0</ele><time>2026-04-12T07:40:07Z</time></trkpt><trkpt lat="45.456826713354545" lon="11.562233102850254"><ele>367.0</ele><time>2026-04-12T07:40:09Z</time></trkpt><trkpt lat="45.45695969553922" lon="11.56218820770289"><ele>367.0</ele><time>2026-04-12T07:40:11Z</time></trkpt><trkpt lat="45.45701360822508" lon="11.562126024285885"><ele>365.6</ele><time>2026-04-12T07:40:12Z</time></trkpt><trkpt lat="45.45711094968485" lon="11.562013185812749"><ele>364.20000000000005</ele><time>2026-04-12T07:40:14Z</time></trkpt><trkpt lat="45.45715469713981" lon="11.561824288519906"><ele>362.8</ele><time>2026-04-12T07:40:16Z</time></trkpt><trkpt lat="45.4571591732769" lon="11.561725475115312"><ele>361.4</ele><time>2026-04-12T07:40:17Z</time></trkpt><trkpt lat="45.457172356857825" lon="11.56157298257158"><ele>360.0</ele><time>2026-04-12T07:40:19Z</time></trkpt><trkpt lat="45.45721980769399" lon="11.56140211414369"><ele>359.0</ele><time>2026-04-12T07:40:21Z</time></trkpt><trkpt lat="45.45728015107547" lon="11.561332084703537"><ele>358.0</ele><time>2026-04-12T07:40:22Z</time></trkpt><trkpt lat="45.457367886172854" lon="11.561241836576706"><ele>357.0</ele><time>2026-04-12T07:40:23Z</time></trkpt><trkpt lat="45.45742346163655" lon="11.561162865343986"><ele>356.0</ele><time>2026-04-12T07:40:24Z</time></trkpt><trkpt lat="45.45747376088074" lon="11.56108396772704"><ele>355.0</ele><time>2026-04-12T07:40:25Z</time></trkpt><trkpt lat="45.45751848415793" lon="11.561009727094921"><ele>354.0</ele><time>2026-04-12T07:40:26Z</time></trkpt><trkpt lat="45.45756671229136" lon="11.560934837740902"><ele>353.8333333333333</ele><time>2026-04-12T07:40:27Z</time></trkpt><trkpt lat="45.45761309930442" lon="11.560856356062672"><ele>353.6666666666667</ele><time>2026-04-12T07:40:28Z</time></trkpt><trkpt lat="45.457654287722264" lon="11.56078248030939"><ele>353.5</ele><time>2026-04-12T07:40:29Z</time></trkpt><trkpt lat="45.45774266588271" lon="11.56066169675138"><ele>353.33333333333337</ele><time>2026-04-12T07:40:31Z</time></trkpt><trkpt lat="45.45779396167347" lon="11.560594131258705"><ele>353.1666666666667</ele><time>2026-04-12T07:40:32Z</time></trkpt><trkpt lat="45.457855011383536" lon="11.560501813597568"><ele>353.0</ele><time>2026-04-12T07:40:33Z</time></trkpt><trkpt lat="45.457906228816185" lon="11.560399706377652"><ele>353.0</ele><time>2026-04-12T07:40:34Z</time></trkpt><trkpt lat="45.45794785163315" lon="11.560275902874825"><ele>353.0</ele><time>2026-04-12T07:40:35Z</time></trkpt><trkpt lat="45.45797442815966" lon="11.560143960732846"><ele>353.0</ele><time>2026-04-12T07:40:36Z</time></trkpt><trkpt lat="45.457999635485685" lon="11.56004114802391"><ele>353.0</ele><time>2026-04-12T07:40:37Z</time></trkpt><trkpt lat="45.45805632911074" lon="11.559916872818343"><ele>353.0</ele><time>2026-04-12T07:40:39Z</time></trkpt><trkpt lat="45.45810884276093" lon="11.559844466901195"><ele>353.0</ele><time>2026-04-12T07:40:40Z</time></trkpt><trkpt lat="45.45814840532762" lon="11.559744107672115"><ele>351.0</ele><time>2026-04-12T07:40:41Z</time></trkpt><trkpt lat="45.45818747231245" lon="11.559642904054536"><ele>349.0</ele><time>2026-04-12T07:40:42Z</time></trkpt><trkpt lat="45.45822781446954" lon="11.5595355153362"><ele>347.0</ele><time>2026-04-12T07:40:43Z</time></trkpt><trkpt lat="45.45826297188197" lon="11.559411733229533"><ele>345.0</ele><time>2026-04-12T07:40:44Z</time></trkpt><trkpt lat="45.45829714402745" lon="11.559298343055943"><ele>343.0</ele><time>2026-04-12T07:40:45Z</time></trkpt><trkpt lat="45.45832803142466" lon="11.559200762377648"><ele>341.0</ele><time>2026-04-12T07:40:46Z</time></trkpt><trkpt lat="45.45838082538685" lon="11.559051107427567"><ele>340.6</ele><time>2026-04-12T07:40:48Z</time></trkpt><trkpt lat="45.45850377745616" lon="11.559011892903076"><ele>340.20000000000005</ele><time>2026-04-12T07:40:50Z</time></trkpt><trkpt lat="45.45859911054204" lon="11.559001745633928"><ele>339.79999999999995</ele><time>2026-04-12T07:40:51Z</time></trkpt><trkpt lat="45.458705142477996" lon="11.558989183041234"><ele>339.4</ele><time>2026-04-12T07:40:52Z</time></trkpt><trkpt lat="45.458803606804715" lon="11.558969368581629"><ele>339.0</ele><time>2026-04-12T07:40:53Z</time></trkpt><trkpt lat="45.45889148334743" lon="11.558944641037705"><ele>339.0</ele><time>2026-04-12T07:40:54Z</time></trkpt><trkpt lat="45.45898059833534" lon="11.558922717332116"><ele>339.0</ele><time>2026-04-12T07:40:55Z</time></trkpt><trkpt lat="45.45907686794527" lon="11.558897926169255"><ele>339.0</ele><time>2026-04-12T07:40:56Z</time></trkpt><trkpt lat="45.45917478570987" lon="11.5588755411584"><ele>339.0</ele><time>2026-04-12T07:40:57Z</time></trkpt><trkpt lat="45.459274009551855" lon="11.558854307630366"><ele>339.0</ele><time>2026-04-12T07:40:58Z</time></trkpt><trkpt lat="45.45937006297079" lon="11.558835432131724"><ele>339.0</ele><time>2026-04-12T07:40:59Z</time></trkpt><trkpt lat="45.45946832612355" lon="11.55880460393891"><ele>339.0</ele><time>2026-04-12T07:41:00Z</time></trkpt><trkpt lat="45.45956233817009" lon="11.558769679601136"><ele>339.0</ele><time>2026-04-12T07:41:01Z</time></trkpt><trkpt lat="45.459641598854155" lon="11.558740799623035"><ele>339.0</ele><time>2026-04-12T07:41:02Z</time></trkpt><trkpt lat="45.45972372662168" lon="11.558718297819278"><ele>339.0</ele><time>2026-04-12T07:41:03Z</time></trkpt><trkpt lat="45.45979792704622" lon="11.558692595015092"><ele>339.0</ele><time>2026-04-12T07:41:04Z</time></trkpt><trkpt lat="45.45986820778878" lon="11.558657251617047"><ele>337.3333333333333</ele><time>2026-04-12T07:41:05Z</time></trkpt><trkpt lat="45.459938910767775" lon="11.558609548690022"><ele>335.6666666666667</ele><time>2026-04-12T07:41:06Z</time></trkpt><trkpt lat="45.46000282261504" lon="11.558548255817584"><ele>334.0</ele><time>2026-04-12T07:41:07Z</time></trkpt><trkpt lat="45.46005955811023" lon="11.55849691963225"><ele>332.33333333333337</ele><time>2026-04-12T07:41:08Z</time></trkpt><trkpt lat="45.46011760278193" lon="11.558436785056642"><ele>330.6666666666667</ele><time>2026-04-12T07:41:09Z</time></trkpt><trkpt lat="45.46018257647012" lon="11.558388495515974"><ele>329.0</ele><time>2026-04-12T07:41:10Z</time></trkpt><trkpt lat="45.46028849366044" lon="11.558478841824611"><ele>329.0</ele><time>2026-04-12T07:41:12Z</time></trkpt><trkpt lat="45.460307759096956" lon="11.558579013624122"><ele>329.0</ele><time>2026-04-12T07:41:13Z</time></trkpt><trkpt lat="45.46030015386466" lon="11.558720060502116"><ele>329.0</ele><time>2026-04-12T07:41:14Z</time></trkpt><trkpt lat="45.460275982243004" lon="11.558875748883759"><ele>329.0</ele><time>2026-04-12T07:41:15Z</time></trkpt><trkpt lat="45.46018677792284" lon="11.559028437634693"><ele>329.0</ele><time>2026-04-12T07:41:16Z</time></trkpt><trkpt lat="45.46012290154696" lon="11.559182395111588"><ele>331.75</ele><time>2026-04-12T07:41:17Z</time></trkpt><trkpt lat="45.460083738624746" lon="11.559348313131908"><ele>334.5</ele><time>2026-04-12T07:41:18Z</time></trkpt><trkpt lat="45.46006790519713" lon="11.55950976775957"><ele>337.25</ele><time>2026-04-12T07:41:19Z</time></trkpt><trkpt lat="45.460066742040006" lon="11.559659869225326"><ele>340.0</ele><time>2026-04-12T07:41:20Z</time></trkpt><trkpt lat="45.46006513844216" lon="11.559815524089558"><ele>340.66666666666663</ele><time>2026-04-12T07:41:21Z</time></trkpt><trkpt lat="45.4600685319344" lon="11.5599542260095"><ele>341.3333333333333</ele><time>2026-04-12T07:41:22Z</time></trkpt><trkpt lat="45.46007671673729" lon="11.560084933832908"><ele>342.0</ele><time>2026-04-12T07:41:23Z</time></trkpt><trkpt lat="45.460081482353296" lon="11.56020149634817"><ele>342.6666666666667</ele><time>2026-04-12T07:41:24Z</time></trkpt><trkpt lat="45.460102464141706" lon="11.560291849325417"><ele>343.33333333333337</ele><time>2026-04-12T07:41:25Z</time></trkpt><trkpt lat="45.460111262834836" lon="11.560393686260996"><ele>344.0</ele><time>2026-04-12T07:41:27Z</time></trkpt><trkpt lat="45.460094779582" lon="11.560498147323687"><ele>344.0</ele><time>2026-04-12T07:41:29Z</time></trkpt><trkpt lat="45.46013565390691" lon="11.56058706007748"><ele>344.0</ele><time>2026-04-12T07:41:32Z</time></trkpt><trkpt lat="45.46026970482175" lon="11.560651189183943"><ele>344.0</ele><time>2026-04-12T07:41:48Z</time></trkpt><trkpt lat="45.46035117114908" lon="11.560661632613291"><ele>344.0</ele><time>2026-04-12T07:41:49Z</time></trkpt><trkpt lat="45.46045478724239" lon="11.56066868880234"><ele>344.0</ele><time>2026-04-12T07:41:50Z</time></trkpt><trkpt lat="45.46056118532833" lon="11.560667426939359"><ele>341.79999999999995</ele><time>2026-04-12T07:41:51Z</time></trkpt><trkpt lat="45.46067596157417" lon="11.560642051638514"><ele>339.59999999999997</ele><time>2026-04-12T07:41:52Z</time></trkpt><trkpt lat="45.46079117465756" lon="11.56064720584748"><ele>337.4</ele><time>2026-04-12T07:41:53Z</time></trkpt><trkpt lat="45.46089262984973" lon="11.5606566604378"><ele>335.2</ele><time>2026-04-12T07:41:54Z</time></trkpt><trkpt lat="45.460973916296105" lon="11.560623821902814"><ele>333.0</ele><time>2026-04-12T07:41:55Z</time></trkpt><trkpt lat="45.46104209088416" lon="11.56056352896205"><ele>333.0</ele><time>2026-04-12T07:41:56Z</time></trkpt><trkpt lat="45.46110933286448" lon="11.560486179862815"><ele>333.0</ele><time>2026-04-12T07:41:57Z</time></trkpt><trkpt lat="45.46118139355078" lon="11.560387637251626"><ele>333.0</ele><time>2026-04-12T07:41:58Z</time></trkpt><trkpt lat="45.46124608701118" lon="11.560270802834347"><ele>333.0</ele><time>2026-04-12T07:41:59Z</time></trkpt><trkpt lat="45.46129834392957" lon="11.560153085436045"><ele>333.0</ele><time>2026-04-12T07:42:00Z</time></trkpt><trkpt lat="45.461344043186735" lon="11.560014105937464"><ele>332.1666666666667</ele><time>2026-04-12T07:42:01Z</time></trkpt><trkpt lat="45.46137161247664" lon="11.559881662601551"><ele>331.3333333333333</ele><time>2026-04-12T07:42:02Z</time></trkpt><trkpt lat="45.46140662097245" lon="11.55975710470883"><ele>330.5</ele><time>2026-04-12T07:42:03Z</time></trkpt><trkpt lat="45.46146327629989" lon="11.559657243699222"><ele>329.66666666666663</ele><time>2026-04-12T07:42:04Z</time></trkpt><trkpt lat="45.46152822572084" lon="11.559580726890587"><ele>328.8333333333333</ele><time>2026-04-12T07:42:05Z</time></trkpt><trkpt lat="45.461591470803356" lon="11.559525082331598"><ele>328.0</ele><time>2026-04-12T07:42:06Z</time></trkpt><trkpt lat="45.46167130288313" lon="11.559399872998963"><ele>327.59999999999997</ele><time>2026-04-12T07:42:08Z</time></trkpt><trkpt lat="45.46171057868987" lon="11.559267732579414"><ele>327.2</ele><time>2026-04-12T07:42:10Z</time></trkpt><trkpt lat="45.46180331493722" lon="11.559165509126666"><ele>326.8</ele><time>2026-04-12T07:42:12Z</time></trkpt><trkpt lat="45.461856291338016" lon="11.559097904232008"><ele>326.4</ele><time>2026-04-12T07:42:13Z</time></trkpt><trkpt lat="45.461905595286666" lon="11.558925094494695"><ele>326.0</ele><time>2026-04-12T07:42:15Z</time></trkpt><trkpt lat="45.46192341382453" lon="11.558831031666534"><ele>326.0</ele><time>2026-04-12T07:42:16Z</time></trkpt><trkpt lat="45.46199004446695" lon="11.558708291429133"><ele>326.0</ele><time>2026-04-12T07:42:18Z</time></trkpt><trkpt lat="45.462059179247476" lon="11.558636199970792"><ele>326.0</ele><time>2026-04-12T07:42:20Z</time></trkpt><trkpt lat="45.4621338586626" lon="11.558575648818447"><ele>326.0</ele><time>2026-04-12T07:42:22Z</time></trkpt><trkpt lat="45.462222616933246" lon="11.558530049492857"><ele>326.0</ele><time>2026-04-12T07:42:24Z</time></trkpt><trkpt lat="45.46229273361361" lon="11.558432080686117"><ele>322.0</ele><time>2026-04-12T07:42:26Z</time></trkpt><trkpt lat="45.46232715204986" lon="11.558281431685058"><ele>318.0</ele><time>2026-04-12T07:42:28Z</time></trkpt><trkpt lat="45.462381597161944" lon="11.55814885604118"><ele>314.0</ele><time>2026-04-12T07:42:30Z</time></trkpt><trkpt lat="45.462440580539955" lon="11.558012528826753"><ele>310.0</ele><time>2026-04-12T07:42:32Z</time></trkpt><trkpt lat="45.46251800128776" lon="11.557875360875371"><ele>308.66666666666663</ele><time>2026-04-12T07:42:34Z</time></trkpt><trkpt lat="45.462563052072895" lon="11.55776435599699"><ele>307.3333333333333</ele><time>2026-04-12T07:42:36Z</time></trkpt><trkpt lat="45.46260093669041" lon="11.557679284749542"><ele>306.0</ele><time>2026-04-12T07:42:39Z</time></trkpt><trkpt lat="45.462642762324656" lon="11.557605592275266"><ele>304.6666666666667</ele><time>2026-04-12T07:42:41Z</time></trkpt><trkpt lat="45.46269988798907" lon="11.557473146842721"><ele>303.33333333333337</ele><time>2026-04-12T07:42:43Z</time></trkpt><trkpt lat="45.46277049843178" lon="11.557367330220982"><ele>302.0</ele><time>2026-04-12T07:42:45Z</time></trkpt><trkpt lat="45.462877987650856" lon="11.557290050472337"><ele>299.83333333333337</ele><time>2026-04-12T07:42:47Z</time></trkpt><trkpt lat="45.46295148361938" lon="11.557184236070658"><ele>297.6666666666667</ele><time>2026-04-12T07:42:49Z</time></trkpt><trkpt lat="45.46302605212087" lon="11.557135518967167"><ele>295.5</ele><time>2026-04-12T07:42:51Z</time></trkpt><trkpt lat="45.46309110763834" lon="11.557050254756366"><ele>293.3333333333333</ele><time>2026-04-12T07:42:53Z</time></trkpt><trkpt lat="45.46311582208703" lon="11.55696271765814"><ele>291.16666666666663</ele><time>2026-04-12T07:42:55Z</time></trkpt><trkpt lat="45.46315557065311" lon="11.55688329649538"><ele>289.0</ele><time>2026-04-12T07:42:58Z</time></trkpt><trkpt lat="45.46322117462656" lon="11.55683576656381"><ele>288.0</ele><time>2026-04-12T07:43:01Z</time></trkpt><trkpt lat="45.463285449836675" lon="11.556789517944688"><ele>287.0</ele><time>2026-04-12T07:43:03Z</time></trkpt><trkpt lat="45.463353484895336" lon="11.556750534531615"><ele>286.0</ele><time>2026-04-12T07:43:05Z</time></trkpt><trkpt lat="45.46342551630572" lon="11.556724098880702"><ele>285.0</ele><time>2026-04-12T07:43:07Z</time></trkpt><trkpt lat="45.46349456208504" lon="11.556654446908759"><ele>284.0</ele><time>2026-04-12T07:43:10Z</time></trkpt><trkpt lat="45.46347021066009" lon="11.556554178744406"><ele>283.0</ele><time>2026-04-12T07:43:12Z</time></trkpt><trkpt lat="45.46340168780636" lon="11.556482347897113"><ele>283.0</ele><time>2026-04-12T07:43:14Z</time></trkpt><trkpt lat="45.463308425998214" lon="11.556453915215688"><ele>283.0</ele><time>2026-04-12T07:43:16Z</time></trkpt><trkpt lat="45.46322080772785" lon="11.556459666099483"><ele>283.0</ele><time>2026-04-12T07:43:18Z</time></trkpt><trkpt lat="45.463147353232706" lon="11.556454450089218"><ele>283.0</ele><time>2026-04-12T07:43:19Z</time></trkpt><trkpt lat="45.463085045472305" lon="11.556428323318542"><ele>283.0</ele><time>2026-04-12T07:43:20Z</time></trkpt><trkpt lat="45.46301618965423" lon="11.556369081504004"><ele>283.0</ele><time>2026-04-12T07:43:22Z</time></trkpt><trkpt lat="45.463064031586775" lon="11.556222287989556"><ele>281.0</ele><time>2026-04-12T07:43:26Z</time></trkpt><trkpt lat="45.463182113566596" lon="11.556181581970812"><ele>279.0</ele><time>2026-04-12T07:43:28Z</time></trkpt><trkpt lat="45.463306479664396" lon="11.55615122214366"><ele>277.0</ele><time>2026-04-12T07:43:30Z</time></trkpt><trkpt lat="45.46336710039536" lon="11.556119329795134"><ele>275.0</ele><time>2026-04-12T07:43:31Z</time></trkpt><trkpt lat="45.463431821894055" lon="11.556081209645534"><ele>273.0</ele><time>2026-04-12T07:43:32Z</time></trkpt><trkpt lat="45.463492734264385" lon="11.556043741281549"><ele>271.0</ele><time>2026-04-12T07:43:33Z</time></trkpt><trkpt lat="45.46353895632133" lon="11.55597754119561"><ele>271.0</ele><time>2026-04-12T07:43:35Z</time></trkpt><trkpt lat="45.46354484664771" lon="11.555887524496896"><ele>271.0</ele><time>2026-04-12T07:43:36Z</time></trkpt><trkpt lat="45.46355095119119" lon="11.555766757194"><ele>271.0</ele><time>2026-04-12T07:43:37Z</time></trkpt><trkpt lat="45.463634917396" lon="11.55559288377499"><ele>271.0</ele><time>2026-04-12T07:43:39Z</time></trkpt><trkpt lat="45.46368896737714" lon="11.555541963624709"><ele>271.0</ele><time>2026-04-12T07:43:40Z</time></trkpt><trkpt lat="45.46388064201103" lon="11.555547711675137"><ele>270.3333333333333</ele><time>2026-04-12T07:44:19Z</time></trkpt><trkpt lat="45.46397658547987" lon="11.555566509125839"><ele>269.66666666666663</ele><time>2026-04-12T07:44:20Z</time></trkpt><trkpt lat="45.4640582338496" lon="11.555574326343024"><ele>269.0</ele><time>2026-04-12T07:44:21Z</time></trkpt><trkpt lat="45.464141759394614" lon="11.555614439702897"><ele>268.3333333333333</ele><time>2026-04-12T07:44:22Z</time></trkpt><trkpt lat="45.46423044593125" lon="11.555662025984581"><ele>267.6666666666667</ele><time>2026-04-12T07:44:23Z</time></trkpt><trkpt lat="45.46430629520939" lon="11.555658451181566"><ele>267.0</ele><time>2026-04-12T07:44:24Z</time></trkpt><trkpt lat="45.464387352068286" lon="11.555632815457772"><ele>267.0</ele><time>2026-04-12T07:44:25Z</time></trkpt><trkpt lat="45.464463784749675" lon="11.55561260389606"><ele>267.0</ele><time>2026-04-12T07:44:26Z</time></trkpt><trkpt lat="45.464565813893834" lon="11.5555301821889"><ele>267.0</ele><time>2026-04-12T07:44:34Z</time></trkpt><trkpt lat="45.46458551949908" lon="11.555401426369334"><ele>267.0</ele><time>2026-04-12T07:44:36Z</time></trkpt><trkpt lat="45.46458590618408" lon="11.555284439000836"><ele>267.0</ele><time>2026-04-12T07:44:38Z</time></trkpt><trkpt lat="45.464572376255994" lon="11.555115911663785"><ele>265.8</ele><time>2026-04-12T07:44:40Z</time></trkpt><trkpt lat="45.46455925909603" lon="11.555026196895001"><ele>264.6</ele><time>2026-04-12T07:44:41Z</time></trkpt><trkpt lat="45.46455792920046" lon="11.554860076890249"><ele>263.40000000000003</ele><time>2026-04-12T07:44:43Z</time></trkpt><trkpt lat="45.46453308456758" lon="11.55470623857765"><ele>262.2</ele><time>2026-04-12T07:44:45Z</time></trkpt><trkpt lat="45.4644609283208" lon="11.554582991653723"><ele>261.0</ele><time>2026-04-12T07:44:47Z</time></trkpt><trkpt lat="45.46441347801184" lon="11.554504030818562"><ele>257.40000000000003</ele><time>2026-04-12T07:44:48Z</time></trkpt><trkpt lat="45.46437088728886" lon="11.554436020293378"><ele>253.8</ele><time>2026-04-12T07:44:49Z</time></trkpt><trkpt lat="45.464283022036334" lon="11.554358484920463"><ele>250.20000000000002</ele><time>2026-04-12T07:44:51Z</time></trkpt><trkpt lat="45.464166515337105" lon="11.554336538279413"><ele>246.60000000000002</ele><time>2026-04-12T07:44:53Z</time></trkpt><trkpt lat="45.46407622517873" lon="11.554313149600807"><ele>243.0</ele><time>2026-04-12T07:44:54Z</time></trkpt><trkpt lat="45.46397258037619" lon="11.554256152360075"><ele>243.0</ele><time>2026-04-12T07:44:56Z</time></trkpt><trkpt lat="45.46390575506581" lon="11.55423179655512"><ele>243.0</ele><time>2026-04-12T07:44:57Z</time></trkpt><trkpt lat="45.46383746398092" lon="11.55418082867001"><ele>243.0</ele><time>2026-04-12T07:44:58Z</time></trkpt><trkpt lat="45.463751007614356" lon="11.554154701869711"><ele>243.0</ele><time>2026-04-12T07:44:59Z</time></trkpt><trkpt lat="45.46367110870577" lon="11.554142518081726"><ele>243.0</ele><time>2026-04-12T07:45:00Z</time></trkpt><trkpt lat="45.46358861949314" lon="11.554145212918078"><ele>243.0</ele><time>2026-04-12T07:45:01Z</time></trkpt><trkpt lat="45.463468749345786" lon="11.55413847965252"><ele>243.0</ele><time>2026-04-12T07:45:03Z</time></trkpt><trkpt lat="45.46339529244246" lon="11.554169191187178"><ele>243.0</ele><time>2026-04-12T07:45:04Z</time></trkpt><trkpt lat="45.46331889173022" lon="11.55420279895668"><ele>243.0</ele><time>2026-04-12T07:45:05Z</time></trkpt><trkpt lat="45.463254067557315" lon="11.554231859552273"><ele>243.0</ele><time>2026-04-12T07:45:06Z</time></trkpt><trkpt lat="45.463195948258786" lon="11.554282054581984"><ele>243.0</ele><time>2026-04-12T07:45:07Z</time></trkpt><trkpt lat="45.46312604627434" lon="11.55432609576655"><ele>243.0</ele><time>2026-04-12T07:45:08Z</time></trkpt><trkpt lat="45.46306792138938" lon="11.55439395292279"><ele>243.0</ele><time>2026-04-12T07:45:09Z</time></trkpt><trkpt lat="45.46301912057744" lon="11.554459625852505"><ele>244.25</ele><time>2026-04-12T07:45:10Z</time></trkpt><trkpt lat="45.46295663500495" lon="11.554560604037231"><ele>245.5</ele><time>2026-04-12T07:45:12Z</time></trkpt><trkpt lat="45.46287377415774" lon="11.55469089352261"><ele>246.75</ele><time>2026-04-12T07:45:14Z</time></trkpt><trkpt lat="45.462794451779686" lon="11.554836889108778"><ele>248.0</ele><time>2026-04-12T07:45:16Z</time></trkpt><trkpt lat="45.46267410290914" lon="11.55492097426434"><ele>248.00000000000003</ele><time>2026-04-12T07:45:18Z</time></trkpt><trkpt lat="45.46254674763742" lon="11.554966024953885"><ele>248.0</ele><time>2026-04-12T07:45:20Z</time></trkpt><trkpt lat="45.46247338408145" lon="11.554973470234303"><ele>248.0</ele><time>2026-04-12T07:45:21Z</time></trkpt><trkpt lat="45.46239555381803" lon="11.555002686369289"><ele>248.0</ele><time>2026-04-12T07:45:22Z</time></trkpt><trkpt lat="45.46233211526118" lon="11.555034959882217"><ele>248.00000000000003</ele><time>2026-04-12T07:45:23Z</time></trkpt><trkpt lat="45.462257956564926" lon="11.555082009648778"><ele>248.0</ele><time>2026-04-12T07:45:24Z</time></trkpt><trkpt lat="45.462191477688556" lon="11.555150625476287"><ele>246.16666666666669</ele><time>2026-04-12T07:45:25Z</time></trkpt><trkpt lat="45.462093329120705" lon="11.555184764789859"><ele>244.33333333333334</ele><time>2026-04-12T07:45:27Z</time></trkpt><trkpt lat="45.462054033689824" lon="11.555023962623524"><ele>242.5</ele><time>2026-04-12T07:45:29Z</time></trkpt><trkpt lat="45.46202295934396" lon="11.554936129479332"><ele>240.66666666666669</ele><time>2026-04-12T07:45:31Z</time></trkpt><trkpt lat="45.4619340989589" lon="11.554906450739368"><ele>238.83333333333334</ele><time>2026-04-12T07:45:33Z</time></trkpt><trkpt lat="45.46187038271323" lon="11.554892147536671"><ele>237.0</ele><time>2026-04-12T07:45:36Z</time></trkpt><trkpt lat="45.46181133497412" lon="11.554859467686311"><ele>237.0</ele><time>2026-04-12T07:45:38Z</time></trkpt><trkpt lat="45.46171313815345" lon="11.554863124720713"><ele>237.0</ele><time>2026-04-12T07:45:40Z</time></trkpt><trkpt lat="45.46163881064563" lon="11.554869656504499"><ele>237.0</ele><time>2026-04-12T07:45:42Z</time></trkpt><trkpt lat="45.461553463989624" lon="11.554890972241989"><ele>237.0</ele><time>2026-04-12T07:45:45Z</time></trkpt><trkpt lat="45.46146700338853" lon="11.554917550047643"><ele>237.0</ele><time>2026-04-12T07:45:47Z</time></trkpt><trkpt lat="45.461405043519164" lon="11.554956934973955"><ele>237.0</ele><time>2026-04-12T07:45:49Z</time></trkpt><trkpt lat="45.461323188755586" lon="11.554980224153045"><ele>235.2</ele><time>2026-04-12T07:45:51Z</time></trkpt><trkpt lat="45.461242702007944" lon="11.555007085025503"><ele>233.39999999999998</ele><time>2026-04-12T07:45:53Z</time></trkpt><trkpt lat="45.46112015126323" lon="11.555048230349609"><ele>231.60000000000002</ele><time>2026-04-12T07:45:55Z</time></trkpt><trkpt lat="45.46101819260898" lon="11.555089447620217"><ele>229.8</ele><time>2026-04-12T07:45:57Z</time></trkpt><trkpt lat="45.46092092045386" lon="11.555133774826935"><ele>228.0</ele><time>2026-04-12T07:45:59Z</time></trkpt><trkpt lat="45.460820896558054" lon="11.555177126503278"><ele>228.0</ele><time>2026-04-12T07:46:01Z</time></trkpt><trkpt lat="45.46071940538753" lon="11.555217779316218"><ele>228.0</ele><time>2026-04-12T07:46:03Z</time></trkpt><trkpt lat="45.46067728641857" lon="11.55529930835783"><ele>228.0</ele><time>2026-04-12T07:46:07Z</time></trkpt><trkpt lat="45.46059727399921" lon="11.555318318059896"><ele>228.0</ele><time>2026-04-12T07:46:08Z</time></trkpt><trkpt lat="45.46052704056782" lon="11.555350934085714"><ele>228.0</ele><time>2026-04-12T07:46:10Z</time></trkpt><trkpt lat="45.46044017205364" lon="11.55539942232026"><ele>228.0</ele><time>2026-04-12T07:46:11Z</time></trkpt><trkpt lat="45.460386759670506" lon="11.555447637918283"><ele>232.16666666666666</ele><time>2026-04-12T07:46:12Z</time></trkpt><trkpt lat="45.460313407666334" lon="11.555471444810147"><ele>236.33333333333331</ele><time>2026-04-12T07:46:13Z</time></trkpt><trkpt lat="45.46024577706793" lon="11.555470858244922"><ele>240.5</ele><time>2026-04-12T07:46:14Z</time></trkpt><trkpt lat="45.46016610917658" lon="11.55550949940916"><ele>244.66666666666666</ele><time>2026-04-12T07:46:16Z</time></trkpt><trkpt lat="45.46006984032466" lon="11.555579607464313"><ele>248.83333333333331</ele><time>2026-04-12T07:46:18Z</time></trkpt><trkpt lat="45.4600051177981" lon="11.55558504443556"><ele>253.0</ele><time>2026-04-12T07:46:19Z</time></trkpt><trkpt lat="45.459901038744235" lon="11.555646656599091"><ele>253.0</ele><time>2026-04-12T07:46:21Z</time></trkpt><trkpt lat="45.45982578784455" lon="11.555695973502196"><ele>253.0</ele><time>2026-04-12T07:46:23Z</time></trkpt><trkpt lat="45.45977410303627" lon="11.555448899273744"><ele>253.0</ele><time>2026-04-12T07:46:43Z</time></trkpt><trkpt lat="45.459822437221845" lon="11.555373024343398"><ele>253.0</ele><time>2026-04-12T07:46:44Z</time></trkpt><trkpt lat="45.4598678794819" lon="11.555257733035056"><ele>253.0</ele><time>2026-04-12T07:46:45Z</time></trkpt><trkpt lat="45.459908081999515" lon="11.555106217389731"><ele>249.2</ele><time>2026-04-12T07:46:47Z</time></trkpt><trkpt lat="45.459974576386614" lon="11.555002116712412"><ele>245.4</ele><time>2026-04-12T07:46:49Z</time></trkpt><trkpt lat="45.46006167670007" lon="11.554937407820958"><ele>241.59999999999997</ele><time>2026-04-12T07:46:51Z</time></trkpt><trkpt lat="45.460136200647305" lon="11.554866159374097"><ele>237.79999999999998</ele><time>2026-04-12T07:46:53Z</time></trkpt><trkpt lat="45.46021325021144" lon="11.554755829782412"><ele>234.0</ele><time>2026-04-12T07:46:55Z</time></trkpt><trkpt lat="45.460281998164014" lon="11.55463554971499"><ele>234.0</ele><time>2026-04-12T07:46:57Z</time></trkpt><trkpt lat="45.46032860689204" lon="11.554572896949743"><ele>234.0</ele><time>2026-04-12T07:46:58Z</time></trkpt><trkpt lat="45.46038596195883" lon="11.554486979634731"><ele>234.0</ele><time>2026-04-12T07:46:59Z</time></trkpt><trkpt lat="45.460452275986704" lon="11.554383806586845"><ele>234.0</ele><time>2026-04-12T07:47:00Z</time></trkpt><trkpt lat="45.46051385845949" lon="11.554271421637287"><ele>234.0</ele><time>2026-04-12T07:47:01Z</time></trkpt><trkpt lat="45.46056761945845" lon="11.554174784693094"><ele>234.0</ele><time>2026-04-12T07:47:02Z</time></trkpt><trkpt lat="45.4606175073475" lon="11.554081452511427"><ele>230.5</ele><time>2026-04-12T07:47:03Z</time></trkpt><trkpt lat="45.46067199276022" lon="11.554011053281636"><ele>227.0</ele><time>2026-04-12T07:47:04Z</time></trkpt><trkpt lat="45.46071788714554" lon="11.553930061184825"><ele>223.5</ele><time>2026-04-12T07:47:05Z</time></trkpt><trkpt lat="45.46075580988817" lon="11.553840231680441"><ele>220.0</ele><time>2026-04-12T07:47:06Z</time></trkpt><trkpt lat="45.46077848806817" lon="11.55375204724472"><ele>216.5</ele><time>2026-04-12T07:47:07Z</time></trkpt><trkpt lat="45.46083822596106" lon="11.553642829561863"><ele>213.0</ele><time>2026-04-12T07:47:09Z</time></trkpt><trkpt lat="45.46091908652292" lon="11.55359281935076"><ele>212.66666666666666</ele><time>2026-04-12T07:47:11Z</time></trkpt><trkpt lat="45.460997852150406" lon="11.553504705815469"><ele>212.33333333333331</ele><time>2026-04-12T07:47:13Z</time></trkpt><trkpt lat="45.46109121476082" lon="11.553423412101345"><ele>212.0</ele><time>2026-04-12T07:47:15Z</time></trkpt><trkpt lat="45.46114824905256" lon="11.553367779961953"><ele>211.66666666666666</ele><time>2026-04-12T07:47:16Z</time></trkpt><trkpt lat="45.461204502446044" lon="11.553310946983835"><ele>211.33333333333331</ele><time>2026-04-12T07:47:17Z</time></trkpt><trkpt lat="45.46125793725877" lon="11.553248874931127"><ele>211.0</ele><time>2026-04-12T07:47:18Z</time></trkpt><trkpt lat="45.46133933104606" lon="11.55316248155141"><ele>208.83333333333331</ele><time>2026-04-12T07:47:20Z</time></trkpt><trkpt lat="45.46140401034633" lon="11.553093611524151"><ele>206.66666666666666</ele><time>2026-04-12T07:47:23Z</time></trkpt><trkpt lat="45.461474440513484" lon="11.553035997610493"><ele>204.5</ele><time>2026-04-12T07:47:26Z</time></trkpt><trkpt lat="45.461556029344294" lon="11.55293680899467"><ele>202.33333333333331</ele><time>2026-04-12T07:47:28Z</time></trkpt><trkpt lat="45.461611916186165" lon="11.552843186406585"><ele>200.16666666666666</ele><time>2026-04-12T07:47:30Z</time></trkpt><trkpt lat="45.46164075191013" lon="11.552741986407744"><ele>198.0</ele><time>2026-04-12T07:47:32Z</time></trkpt><trkpt lat="45.46165247038458" lon="11.552600008716702"><ele>197.60000000000002</ele><time>2026-04-12T07:47:34Z</time></trkpt><trkpt lat="45.46164786361002" lon="11.552495273969017"><ele>197.20000000000002</ele><time>2026-04-12T07:47:36Z</time></trkpt><trkpt lat="45.46163903253222" lon="11.552348190118135"><ele>196.8</ele><time>2026-04-12T07:47:38Z</time></trkpt><trkpt lat="45.46163740353144" lon="11.552250882948744"><ele>196.4</ele><time>2026-04-12T07:47:39Z</time></trkpt><trkpt lat="45.46166214012896" lon="11.552078980724248"><ele>196.0</ele><time>2026-04-12T07:47:41Z</time></trkpt><trkpt lat="45.461734618725444" lon="11.551918310558618"><ele>194.66666666666666</ele><time>2026-04-12T07:47:43Z</time></trkpt><trkpt lat="45.461779801766056" lon="11.55184622065497"><ele>193.33333333333331</ele><time>2026-04-12T07:47:44Z</time></trkpt><trkpt lat="45.46181843359608" lon="11.55170030633042"><ele>192.0</ele><time>2026-04-12T07:47:46Z</time></trkpt><trkpt lat="45.46188314253089" lon="11.551594784475839"><ele>190.66666666666666</ele><time>2026-04-12T07:47:48Z</time></trkpt><trkpt lat="45.46193162504014" lon="11.551502496773917"><ele>189.33333333333331</ele><time>2026-04-12T07:47:51Z</time></trkpt><trkpt lat="45.46196366518848" lon="11.5513983765166"><ele>188.0</ele><time>2026-04-12T07:47:53Z</time></trkpt><trkpt lat="45.46198850601649" lon="11.55127386090914"><ele>183.2</ele><time>2026-04-12T07:47:55Z</time></trkpt><trkpt lat="45.46202332794295" lon="11.551150901543124"><ele>178.4</ele><time>2026-04-12T07:47:57Z</time></trkpt><trkpt lat="45.46208166163522" lon="11.551026836667562"><ele>173.6</ele><time>2026-04-12T07:47:59Z</time></trkpt><trkpt lat="45.46210046608703" lon="11.550890365311133"><ele>168.79999999999998</ele><time>2026-04-12T07:48:01Z</time></trkpt><trkpt lat="45.46216481733005" lon="11.550816639298471"><ele>164.0</ele><time>2026-04-12T07:48:04Z</time></trkpt><trkpt lat="45.46214200862334" lon="11.550706303372586"><ele>164.0</ele><time>2026-04-12T07:48:06Z</time></trkpt><trkpt lat="45.46209354769743" lon="11.550613239795343"><ele>164.0</ele><time>2026-04-12T07:48:10Z</time></trkpt><trkpt lat="45.4620100172606" lon="11.550573524511046"><ele>164.0</ele><time>2026-04-12T07:48:13Z</time></trkpt><trkpt lat="45.46193491280301" lon="11.550543151410544"><ele>164.0</ele><time>2026-04-12T07:48:16Z</time></trkpt><trkpt lat="45.46186498388521" lon="11.550511411947321"><ele>164.0</ele><time>2026-04-12T07:48:18Z</time></trkpt><trkpt lat="45.461796374614536" lon="11.550491864550846"><ele>164.0</ele><time>2026-04-12T07:48:21Z</time></trkpt><trkpt lat="45.46170554415588" lon="11.550433070542697"><ele>164.0</ele><time>2026-04-12T07:48:24Z</time></trkpt><trkpt lat="45.46163314175224" lon="11.550412537545025"><ele>164.0</ele><time>2026-04-12T07:48:26Z</time></trkpt><trkpt lat="45.46156623389729" lon="11.55040697578757"><ele>164.0</ele><time>2026-04-12T07:48:28Z</time></trkpt><trkpt lat="45.46150042872658" lon="11.550429463424438"><ele>164.0</ele><time>2026-04-12T07:48:31Z</time></trkpt><trkpt lat="45.46141977666173" lon="11.55042337298429"><ele>164.0</ele><time>2026-04-12T07:48:34Z</time></trkpt><trkpt lat="45.461332549718634" lon="11.550436827693831"><ele>164.0</ele><time>2026-04-12T07:48:36Z</time></trkpt><trkpt lat="45.46123199225732" lon="11.550453372063036"><ele>159.66666666666666</ele><time>2026-04-12T07:48:39Z</time></trkpt><trkpt lat="45.46117246033183" lon="11.550492651582838"><ele>155.33333333333331</ele><time>2026-04-12T07:48:41Z</time></trkpt><trkpt lat="45.46109604089432" lon="11.550504597975047"><ele>151.0</ele><time>2026-04-12T07:48:43Z</time></trkpt><trkpt lat="45.46103119390414" lon="11.550495949671838"><ele>146.66666666666666</ele><time>2026-04-12T07:48:45Z</time></trkpt><trkpt lat="45.460942097488505" lon="11.550505438922134"><ele>142.33333333333334</ele><time>2026-04-12T07:48:48Z</time></trkpt><trkpt lat="45.460858492369915" lon="11.550538037841479"><ele>138.0</ele><time>2026-04-12T07:48:50Z</time></trkpt><trkpt lat="45.4607820134016" lon="11.550579220898426"><ele>138.0</ele><time>2026-04-12T07:48:53Z</time></trkpt><trkpt lat="45.46070245441395" lon="11.550621695215332"><ele>138.0</ele><time>2026-04-12T07:48:57Z</time></trkpt><trkpt lat="45.46062984389934" lon="11.550658540445326"><ele>138.0</ele><time>2026-04-12T07:49:00Z</time></trkpt><trkpt lat="45.46056633718949" lon="11.55065894596841"><ele>138.0</ele><time>2026-04-12T07:49:02Z</time></trkpt><trkpt lat="45.46050229156967" lon="11.550665528964238"><ele>138.0</ele><time>2026-04-12T07:49:06Z</time></trkpt><trkpt lat="45.46043082715395" lon="11.55066954528023"><ele>138.0</ele><time>2026-04-12T07:49:13Z</time></trkpt><trkpt lat="45.46035288607377" lon="11.550717656765585"><ele>138.0</ele><time>2026-04-12T07:49:21Z</time></trkpt><trkpt lat="45.46028012220867" lon="11.55076698900708"><ele>131.33333333333334</ele><time>2026-04-12T07:49:24Z</time></trkpt><trkpt lat="45.460209587168634" lon="11.550819362796316"><ele>124.66666666666666</ele><time>2026-04-12T07:49:26Z</time></trkpt><trkpt lat="45.460130696821885" lon="11.550876918719617"><ele>118.0</ele><time>2026-04-12T07:49:29Z</time></trkpt><trkpt lat="45.46007214111532" lon="11.550924457179148"><ele>111.33333333333333</ele><time>2026-04-12T07:49:34Z</time></trkpt><trkpt lat="45.45995185653288" lon="11.550974965962627"><ele>104.66666666666666</ele><time>2026-04-12T07:51:29Z</time></trkpt><trkpt lat="45.45994990805495" lon="11.55088216593631"><ele>98.0</ele><time>2026-04-12T07:51:47Z</time></trkpt><trkpt lat="45.45999550720213" lon="11.550769825913013"><ele>97.99999999999999</ele><time>2026-04-12T07:53:23Z</time></trkpt><trkpt lat="45.460036397750265" lon="11.55068410325409"><ele>98.0</ele><time>2026-04-12T07:53:25Z</time></trkpt><trkpt lat="45.46007867590014" lon="11.550597493677149"><ele>98.0</ele><time>2026-04-12T07:53:27Z</time></trkpt><trkpt lat="45.46014965882834" lon="11.550505877972109"><ele>98.0</ele><time>2026-04-12T07:53:29Z</time></trkpt><trkpt lat="45.4602132245421" lon="11.550410741293444"><ele>97.99999999999999</ele><time>2026-04-12T07:53:31Z</time></trkpt><trkpt lat="45.46027272481949" lon="11.55030483208589"><ele>98.0</ele><time>2026-04-12T07:53:33Z</time></trkpt><trkpt lat="45.46034792225376" lon="11.550217655306854"><ele>98.66666666666666</ele><time>2026-04-12T07:53:35Z</time></trkpt><trkpt lat="45.4603930807866" lon="11.550118035447028"><ele>99.33333333333333</ele><time>2026-04-12T07:53:37Z</time></trkpt><trkpt lat="45.46044426274374" lon="11.550052282942788"><ele>100.0</ele><time>2026-04-12T07:53:39Z</time></trkpt><trkpt lat="45.46050965034449" lon="11.54995446636785"><ele>100.66666666666666</ele><time>2026-04-12T07:53:42Z</time></trkpt><trkpt lat="45.46056518096508" lon="11.54986323081679"><ele>101.33333333333333</ele><time>2026-04-12T07:53:45Z</time></trkpt><trkpt lat="45.4606235973255" lon="11.549766092671113"><ele>102.0</ele><time>2026-04-12T07:53:47Z</time></trkpt><trkpt lat="45.46069588537005" lon="11.54966061873324"><ele>102.0</ele><time>2026-04-12T07:53:49Z</time></trkpt><trkpt lat="45.46075304728627" lon="11.549548080127503"><ele>102.0</ele><time>2026-04-12T07:53:51Z</time></trkpt><trkpt lat="45.46083714281037" lon="11.549460681310627"><ele>102.0</ele><time>2026-04-12T07:53:53Z</time></trkpt><trkpt lat="45.460890303260456" lon="11.5494124350074"><ele>102.0</ele><time>2026-04-12T07:53:55Z</time></trkpt><trkpt lat="45.460978690989876" lon="11.549296136143887"><ele>102.0</ele><time>2026-04-12T07:53:57Z</time></trkpt><trkpt lat="45.46106331584917" lon="11.54920948494702"><ele>100.5</ele><time>2026-04-12T07:53:59Z</time></trkpt><trkpt lat="45.4611386225074" lon="11.549117778128783"><ele>99.0</ele><time>2026-04-12T07:54:01Z</time></trkpt><trkpt lat="45.461199908963046" lon="11.549072736631116"><ele>97.5</ele><time>2026-04-12T07:54:03Z</time></trkpt><trkpt lat="45.46124955395395" lon="11.548993123228948"><ele>96.0</ele><time>2026-04-12T07:54:05Z</time></trkpt><trkpt lat="45.461330177098326" lon="11.548908594474602"><ele>94.5</ele><time>2026-04-12T07:54:07Z</time></trkpt><trkpt lat="45.46138974710904" lon="11.54885267144753"><ele>93.0</ele><time>2026-04-12T07:54:09Z</time></trkpt><trkpt lat="45.46144672994219" lon="11.548796262939991"><ele>93.0</ele><time>2026-04-12T07:54:11Z</time></trkpt><trkpt lat="45.461505579063676" lon="11.548740354285274"><ele>93.0</ele><time>2026-04-12T07:54:13Z</time></trkpt><trkpt lat="45.461567370619655" lon="11.548661744531053"><ele>93.0</ele><time>2026-04-12T07:54:16Z</time></trkpt><trkpt lat="45.461616265727734" lon="11.548559409349787"><ele>93.0</ele><time>2026-04-12T07:54:18Z</time></trkpt><trkpt lat="45.46167814421448" lon="11.548500183878895"><ele>93.0</ele><time>2026-04-12T07:54:20Z</time></trkpt><trkpt lat="45.4617311579211" lon="11.548438183436666"><ele>93.0</ele><time>2026-04-12T07:54:22Z</time></trkpt><trkpt lat="45.4617917360818" lon="11.548393054447342"><ele>89.16666666666667</ele><time>2026-04-12T07:54:24Z</time></trkpt><trkpt lat="45.461836770147485" lon="11.54832131428977"><ele>85.33333333333333</ele><time>2026-04-12T07:54:26Z</time></trkpt><trkpt lat="45.46189821543577" lon="11.548241791792794"><ele>81.5</ele><time>2026-04-12T07:54:32Z</time></trkpt><trkpt lat="45.46195883763538" lon="11.548162061189014"><ele>77.66666666666666</ele><time>2026-04-12T07:54:34Z</time></trkpt><trkpt lat="45.462026171597614" lon="11.548072081828348"><ele>73.83333333333333</ele><time>2026-04-12T07:54:36Z</time></trkpt><trkpt lat="45.46211414147542" lon="11.547984204528298"><ele>70.0</ele><time>2026-04-12T07:54:38Z</time></trkpt><trkpt lat="45.462188685244946" lon="11.547920148154356"><ele>66.16666666666666</ele><time>2026-04-12T07:54:39Z</time></trkpt><trkpt lat="45.46226144676763" lon="11.54786886299494"><ele>62.33333333333333</ele><time>2026-04-12T07:54:40Z</time></trkpt><trkpt lat="45.46232113110035" lon="11.547814844427057"><ele>58.5</ele><time>2026-04-12T07:54:41Z</time></trkpt><trkpt lat="45.46238293113388" lon="11.547742255186243"><ele>54.666666666666664</ele><time>2026-04-12T07:54:43Z</time></trkpt><trkpt lat="45.46234367868654" lon="11.547636580868927"><ele>50.83333333333333</ele><time>2026-04-12T07:54:45Z</time></trkpt><trkpt lat="45.46226462878899" lon="11.547525560333085"><ele>47.0</ele><time>2026-04-12T07:54:47Z</time></trkpt><trkpt lat="45.46224341461765" lon="11.547427509855023"><ele>47.0</ele><time>2026-04-12T07:54:50Z</time></trkpt><trkpt lat="45.46223345154438" lon="11.547299368309112"><ele>47.0</ele><time>2026-04-12T07:54:52Z</time></trkpt><trkpt lat="45.46223310345545" lon="11.54720771496518"><ele>47.0</ele><time>2026-04-12T07:54:55Z</time></trkpt><trkpt lat="45.462244973952046" lon="11.547095549234069"><ele>47.0</ele><time>2026-04-12T07:55:00Z</time></trkpt><trkpt lat="45.46223382788414" lon="11.54696248561274"><ele>47.0</ele><time>2026-04-12T07:55:03Z</time></trkpt><trkpt lat="45.46222539139211" lon="11.54685145176354"><ele>47.0</ele><time>2026-04-12T07:55:05Z</time></trkpt><trkpt lat="45.46224744405643" lon="11.546672936725432"><ele>45.2</ele><time>2026-04-12T07:55:10Z</time></trkpt><trkpt lat="45.46220881678854" lon="11.546595412342759"><ele>43.400000000000006</ele><time>2026-04-12T07:55:13Z</time></trkpt><trkpt lat="45.46209032046663" lon="11.546566693530465"><ele>41.599999999999994</ele><time>2026-04-12T07:55:15Z</time></trkpt><trkpt lat="45.4619995352256" lon="11.54651349984959"><ele>39.8</ele><time>2026-04-12T07:55:16Z</time></trkpt><trkpt lat="45.46190953621714" lon="11.546418994881526"><ele>38.0</ele><time>2026-04-12T07:55:17Z</time></trkpt><trkpt lat="45.46182967695186" lon="11.546352604152698"><ele>37.33333333333333</ele><time>2026-04-12T07:55:18Z</time></trkpt><trkpt lat="45.4617433962866" lon="11.546325260634958"><ele>36.666666666666664</ele><time>2026-04-12T07:55:19Z</time></trkpt><trkpt lat="45.46165682598416" lon="11.546318929103794"><ele>36.0</ele><time>2026-04-12T07:55:20Z</time></trkpt><trkpt lat="45.461574038804784" lon="11.546323748468808"><ele>35.333333333333336</ele><time>2026-04-12T07:55:21Z</time></trkpt><trkpt lat="45.46149911835836" lon="11.546344853037821"><ele>34.66666666666667</ele><time>2026-04-12T07:55:22Z</time></trkpt><trkpt lat="45.46142231069993" lon="11.546372949733847"><ele>34.0</ele><time>2026-04-12T07:55:23Z</time></trkpt><trkpt lat="45.461349391913714" lon="11.546392533161473"><ele>34.0</ele><time>2026-04-12T07:55:24Z</time></trkpt><trkpt lat="45.461274144925724" lon="11.546396571668893"><ele>34.0</ele><time>2026-04-12T07:55:25Z</time></trkpt><trkpt lat="45.46119631959078" lon="11.546387170641296"><ele>34.0</ele><time>2026-04-12T07:55:26Z</time></trkpt><trkpt lat="45.4611199140545" lon="11.546350273177357"><ele>34.0</ele><time>2026-04-12T07:55:27Z</time></trkpt><trkpt lat="45.461048194989985" lon="11.546298181586405"><ele>34.0</ele><time>2026-04-12T07:55:28Z</time></trkpt><trkpt lat="45.46099171070948" lon="11.546208754930943"><ele>34.0</ele><time>2026-04-12T07:55:29Z</time></trkpt><trkpt lat="45.46095283932091" lon="11.546128367662199"><ele>34.0</ele><time>2026-04-12T07:55:30Z</time></trkpt><trkpt lat="45.460873104639255" lon="11.545991169281368"><ele>34.0</ele><time>2026-04-12T07:55:32Z</time></trkpt><trkpt lat="45.46082320718583" lon="11.545901908538495"><ele>34.0</ele><time>2026-04-12T07:55:33Z</time></trkpt><trkpt lat="45.460771226968156" lon="11.545811000257002"><ele>34.0</ele><time>2026-04-12T07:55:34Z</time></trkpt><trkpt lat="45.4607262593666" lon="11.545734245134419"><ele>34.0</ele><time>2026-04-12T07:55:35Z</time></trkpt><trkpt lat="45.460688219902224" lon="11.54564883224083"><ele>34.0</ele><time>2026-04-12T07:55:36Z</time></trkpt><trkpt lat="45.46066438560698" lon="11.545541833101446"><ele>34.0</ele><time>2026-04-12T07:55:37Z</time></trkpt><trkpt lat="45.46066774484764" lon="11.545409502776105"><ele>34.0</ele><time>2026-04-12T07:55:38Z</time></trkpt><trkpt lat="45.46069443679073" lon="11.545272520105073"><ele>34.0</ele><time>2026-04-12T07:55:39Z</time></trkpt><trkpt lat="45.46072038075486" lon="11.545131797441838"><ele>34.0</ele><time>2026-04-12T07:55:40Z</time></trkpt><trkpt lat="45.460742662786515" lon="11.545004647098153"><ele>34.0</ele><time>2026-04-12T07:55:41Z</time></trkpt><trkpt lat="45.460758081616994" lon="11.544901300343984"><ele>34.14285714285714</ele><time>2026-04-12T07:55:42Z</time></trkpt><trkpt lat="45.46077708251997" lon="11.544802398479812"><ele>34.285714285714285</ele><time>2026-04-12T07:55:43Z</time></trkpt><trkpt lat="45.46079336323069" lon="11.544706374846347"><ele>34.42857142857143</ele><time>2026-04-12T07:55:44Z</time></trkpt><trkpt lat="45.460811216531056" lon="11.544607764567752"><ele>34.57142857142857</ele><time>2026-04-12T07:55:45Z</time></trkpt><trkpt lat="45.460832535083014" lon="11.544514031589197"><ele>34.714285714285715</ele><time>2026-04-12T07:55:46Z</time></trkpt><trkpt lat="45.460850966421916" lon="11.544412302255825"><ele>34.857142857142854</ele><time>2026-04-12T07:55:47Z</time></trkpt><trkpt lat="45.460863563534396" lon="11.544312355642626"><ele>35.0</ele><time>2026-04-12T07:55:48Z</time></trkpt><trkpt lat="45.460874863634366" lon="11.544202709984974"><ele>35.0</ele><time>2026-04-12T07:55:49Z</time></trkpt><trkpt lat="45.46087592217505" lon="11.544097253429882"><ele>35.0</ele><time>2026-04-12T07:55:50Z</time></trkpt><trkpt lat="45.46085965950822" lon="11.54399540814613"><ele>35.0</ele><time>2026-04-12T07:55:51Z</time></trkpt><trkpt lat="45.460822604831385" lon="11.543903212845066"><ele>35.0</ele><time>2026-04-12T07:55:52Z</time></trkpt><trkpt lat="45.46077805268446" lon="11.543826180006521"><ele>35.0</ele><time>2026-04-12T07:55:53Z</time></trkpt><trkpt lat="45.46072737956192" lon="11.543755720737469"><ele>35.0</ele><time>2026-04-12T07:55:54Z</time></trkpt><trkpt lat="45.460668964456985" lon="11.543697428715642"><ele>35.0</ele><time>2026-04-12T07:55:55Z</time></trkpt><trkpt lat="45.46060910715211" lon="11.54364496084418"><ele>33.666666666666664</ele><time>2026-04-12T07:55:56Z</time></trkpt><trkpt lat="45.460509340080115" lon="11.543541940927662"><ele>32.33333333333333</ele><time>2026-04-12T07:55:58Z</time></trkpt><trkpt lat="45.460459731484434" lon="11.543484121477203"><ele>31.0</ele><time>2026-04-12T07:55:59Z</time></trkpt><trkpt lat="45.46041298313197" lon="11.543411847092376"><ele>29.666666666666664</ele><time>2026-04-12T07:56:00Z</time></trkpt><trkpt lat="45.46036824581875" lon="11.543326347907621"><ele>28.333333333333332</ele><time>2026-04-12T07:56:01Z</time></trkpt><trkpt lat="45.460318485131175" lon="11.54322729512955"><ele>27.0</ele><time>2026-04-12T07:56:02Z</time></trkpt><trkpt lat="45.46027853015152" lon="11.543124058861396"><ele>27.666666666666668</ele><time>2026-04-12T07:56:03Z</time></trkpt><trkpt lat="45.460228202587935" lon="11.543029430922736"><ele>28.333333333333336</ele><time>2026-04-12T07:56:04Z</time></trkpt><trkpt lat="45.46019328683745" lon="11.542946791259464"><ele>29.0</ele><time>2026-04-12T07:56:05Z</time></trkpt><trkpt lat="45.460154495719394" lon="11.542860075991971"><ele>29.666666666666668</ele><time>2026-04-12T07:56:06Z</time></trkpt><trkpt lat="45.46011164498243" lon="11.542768146791495"><ele>30.333333333333336</ele><time>2026-04-12T07:56:07Z</time></trkpt><trkpt lat="45.460061910623345" lon="11.542679309855547"><ele>31.0</ele><time>2026-04-12T07:56:08Z</time></trkpt><trkpt lat="45.46001525083222" lon="11.542595622458574"><ele>31.000000000000004</ele><time>2026-04-12T07:56:09Z</time></trkpt><trkpt lat="45.45995478267241" lon="11.542515188846632"><ele>31.0</ele><time>2026-04-12T07:56:10Z</time></trkpt><trkpt lat="45.45987937688923" lon="11.542434646929655"><ele>31.0</ele><time>2026-04-12T07:56:11Z</time></trkpt><trkpt lat="45.4598138600328" lon="11.54235451233517"><ele>31.0</ele><time>2026-04-12T07:56:12Z</time></trkpt><trkpt lat="45.459748876742076" lon="11.542272472654208"><ele>31.000000000000004</ele><time>2026-04-12T07:56:13Z</time></trkpt><trkpt lat="45.45967847097834" lon="11.542196171792714"><ele>31.0</ele><time>2026-04-12T07:56:14Z</time></trkpt><trkpt lat="45.459603691580845" lon="11.542124729278731"><ele>30.500000000000004</ele><time>2026-04-12T07:56:15Z</time></trkpt><trkpt lat="45.45953491216463" lon="11.542059296616722"><ele>30.0</ele><time>2026-04-12T07:56:16Z</time></trkpt><trkpt lat="45.45945605303533" lon="11.542002244586278"><ele>29.5</ele><time>2026-04-12T07:56:17Z</time></trkpt><trkpt lat="45.4593912226376" lon="11.541937504754499"><ele>29.0</ele><time>2026-04-12T07:56:18Z</time></trkpt><trkpt lat="45.45935895145721" lon="11.54184357773075"><ele>28.500000000000004</ele><time>2026-04-12T07:56:19Z</time></trkpt><trkpt lat="45.45936387220645" lon="11.541727060905005"><ele>28.0</ele><time>2026-04-12T07:56:20Z</time></trkpt><trkpt lat="45.459366341794365" lon="11.54160627376494"><ele>28.000000000000004</ele><time>2026-04-12T07:56:21Z</time></trkpt><trkpt lat="45.45935308159509" lon="11.541461494014596"><ele>28.0</ele><time>2026-04-12T07:56:22Z</time></trkpt><trkpt lat="45.459331493168605" lon="11.541337134367893"><ele>28.0</ele><time>2026-04-12T07:56:23Z</time></trkpt><trkpt lat="45.459300593731015" lon="11.54122765705992"><ele>28.0</ele><time>2026-04-12T07:56:24Z</time></trkpt><trkpt lat="45.45927351449823" lon="11.541119421440303"><ele>28.000000000000004</ele><time>2026-04-12T07:56:25Z</time></trkpt><trkpt lat="45.45924673916778" lon="11.541007816395155"><ele>28.0</ele><time>2026-04-12T07:56:26Z</time></trkpt><trkpt lat="45.45922300807813" lon="11.540896325108179"><ele>27.500000000000004</ele><time>2026-04-12T07:56:27Z</time></trkpt><trkpt lat="45.45920618265107" lon="11.540784626338654"><ele>27.0</ele><time>2026-04-12T07:56:28Z</time></trkpt><trkpt lat="45.45919485156552" lon="11.54067345977781"><ele>26.5</ele><time>2026-04-12T07:56:29Z</time></trkpt><trkpt lat="45.45918575696094" lon="11.54056599893057"><ele>26.0</ele><time>2026-04-12T07:56:30Z</time></trkpt><trkpt lat="45.459182019114515" lon="11.540463172077732"><ele>25.500000000000004</ele><time>2026-04-12T07:56:31Z</time></trkpt><trkpt lat="45.459187982512844" lon="11.540359806755449"><ele>25.0</ele><time>2026-04-12T07:56:32Z</time></trkpt><trkpt lat="45.45920389210564" lon="11.540262852562156"><ele>28.0</ele><time>2026-04-12T07:56:33Z</time></trkpt><trkpt lat="45.45923796875098" lon="11.540102818161317"><ele>31.0</ele><time>2026-04-12T07:56:35Z</time></trkpt><trkpt lat="45.459304649916476" lon="11.53996034924919"><ele>34.0</ele><time>2026-04-12T07:56:37Z</time></trkpt><trkpt lat="45.45937497454038" lon="11.539921805377094"><ele>37.0</ele><time>2026-04-12T07:56:38Z</time></trkpt><trkpt lat="45.45946573999701" lon="11.539914242262508"><ele>40.0</ele><time>2026-04-12T07:56:39Z</time></trkpt><trkpt lat="45.45955633865463" lon="11.539903640460645"><ele>39.4</ele><time>2026-04-12T07:56:40Z</time></trkpt><trkpt lat="45.45965078007092" lon="11.539891360152689"><ele>38.8</ele><time>2026-04-12T07:56:41Z</time></trkpt><trkpt lat="45.459746090233" lon="11.539873670513849"><ele>38.2</ele><time>2026-04-12T07:56:42Z</time></trkpt><trkpt lat="45.45984389813486" lon="11.539857863018284"><ele>37.6</ele><time>2026-04-12T07:56:43Z</time></trkpt><trkpt lat="45.45994531229349" lon="11.53984205888004"><ele>37.0</ele><time>2026-04-12T07:56:44Z</time></trkpt><trkpt lat="45.46004549758117" lon="11.539819635449724"><ele>37.0</ele><time>2026-04-12T07:56:45Z</time></trkpt><trkpt lat="45.460146304377915" lon="11.53979547216116"><ele>37.0</ele><time>2026-04-12T07:56:46Z</time></trkpt><trkpt lat="45.46024849841191" lon="11.53977167454412"><ele>37.0</ele><time>2026-04-12T07:56:47Z</time></trkpt><trkpt lat="45.460353115975515" lon="11.539735534248349"><ele>37.0</ele><time>2026-04-12T07:56:48Z</time></trkpt><trkpt lat="45.46045324263236" lon="11.539690618771086"><ele>37.0</ele><time>2026-04-12T07:56:49Z</time></trkpt><trkpt lat="45.46054215642185" lon="11.539649724242386"><ele>35.4</ele><time>2026-04-12T07:56:50Z</time></trkpt><trkpt lat="45.46062835111894" lon="11.539620069863703"><ele>33.800000000000004</ele><time>2026-04-12T07:56:51Z</time></trkpt><trkpt lat="45.4607227409313" lon="11.539593553919651"><ele>32.2</ele><time>2026-04-12T07:56:52Z</time></trkpt><trkpt lat="45.46082465408198" lon="11.539574223489977"><ele>30.6</ele><time>2026-04-12T07:56:53Z</time></trkpt><trkpt lat="45.460925893082695" lon="11.539546124574944"><ele>29.0</ele><time>2026-04-12T07:56:54Z</time></trkpt><trkpt lat="45.46102770768788" lon="11.539515986646123"><ele>31.0</ele><time>2026-04-12T07:56:55Z</time></trkpt><trkpt lat="45.461128864377784" lon="11.539476946077352"><ele>33.0</ele><time>2026-04-12T07:56:56Z</time></trkpt><trkpt lat="45.46123096244145" lon="11.539438822732995"><ele>35.0</ele><time>2026-04-12T07:56:57Z</time></trkpt><trkpt lat="45.46133316589465" lon="11.539397271040285"><ele>37.0</ele><time>2026-04-12T07:56:58Z</time></trkpt><trkpt lat="45.46143414514892" lon="11.539341550590498"><ele>39.0</ele><time>2026-04-12T07:56:59Z</time></trkpt><trkpt lat="45.46154292435133" lon="11.539275989902144"><ele>39.0</ele><time>2026-04-12T07:57:00Z</time></trkpt><trkpt lat="45.46165088387958" lon="11.539220778151801"><ele>39.0</ele><time>2026-04-12T07:57:01Z</time></trkpt><trkpt lat="45.461760321524835" lon="11.539173582636229"><ele>39.0</ele><time>2026-04-12T07:57:02Z</time></trkpt><trkpt lat="45.46186139829501" lon="11.53913583350957"><ele>39.0</ele><time>2026-04-12T07:57:03Z</time></trkpt><trkpt lat="45.461952401860316" lon="11.539097404375593"><ele>39.0</ele><time>2026-04-12T07:57:04Z</time></trkpt><trkpt lat="45.462032193636716" lon="11.539060936102691"><ele>39.0</ele><time>2026-04-12T07:57:05Z</time></trkpt><trkpt lat="45.46210917187454" lon="11.539039814301061"><ele>39.0</ele><time>2026-04-12T07:57:06Z</time></trkpt><trkpt lat="45.46219917634992" lon="11.539006477641776"><ele>39.0</ele><time>2026-04-12T07:57:07Z</time></trkpt><trkpt lat="45.46229292860294" lon="11.539007023378414"><ele>39.0</ele><time>2026-04-12T07:57:08Z</time></trkpt><trkpt lat="45.4623600745016" lon="11.539097630998487"><ele>39.0</ele><time>2026-04-12T07:57:09Z</time></trkpt><trkpt lat="45.462425471766856" lon="11.539155066212631"><ele>39.0</ele><time>2026-04-12T07:57:10Z</time></trkpt><trkpt lat="45.46254134295921" lon="11.539263525974375"><ele>38.833333333333336</ele><time>2026-04-12T07:57:12Z</time></trkpt><trkpt lat="45.462596865818185" lon="11.539345550634254"><ele>38.666666666666664</ele><time>2026-04-12T07:57:13Z</time></trkpt><trkpt lat="45.46267623989763" lon="11.539385832464216"><ele>38.5</ele><time>2026-04-12T07:57:14Z</time></trkpt><trkpt lat="45.4627516014196" lon="11.539446636674684"><ele>38.33333333333333</ele><time>2026-04-12T07:57:15Z</time></trkpt><trkpt lat="45.46282824842351" lon="11.539501953826537"><ele>38.166666666666664</ele><time>2026-04-12T07:57:16Z</time></trkpt><trkpt lat="45.462909342148606" lon="11.539540643463525"><ele>38.0</ele><time>2026-04-12T07:57:17Z</time></trkpt><trkpt lat="45.46298966965521" lon="11.539571858195762"><ele>36.166666666666664</ele><time>2026-04-12T07:57:18Z</time></trkpt><trkpt lat="45.46307518108111" lon="11.539591200888244"><ele>34.33333333333333</ele><time>2026-04-12T07:57:19Z</time></trkpt><trkpt lat="45.46315685773065" lon="11.539616385948483"><ele>32.5</ele><time>2026-04-12T07:57:20Z</time></trkpt><trkpt lat="45.46323965217022" lon="11.539634739573017"><ele>30.666666666666664</ele><time>2026-04-12T07:57:21Z</time></trkpt><trkpt lat="45.46331857629191" lon="11.53965514638803"><ele>28.833333333333332</ele><time>2026-04-12T07:57:22Z</time></trkpt><trkpt lat="45.463391181908904" lon="11.539671835035655"><ele>27.0</ele><time>2026-04-12T07:57:23Z</time></trkpt><trkpt lat="45.463478772413964" lon="11.539691470580838"><ele>27.0</ele><time>2026-04-12T07:57:25Z</time></trkpt><trkpt lat="45.46357415219076" lon="11.539698713432543"><ele>27.0</ele><time>2026-04-12T07:57:27Z</time></trkpt><trkpt lat="45.46368280545217" lon="11.53975364205198"><ele>27.0</ele><time>2026-04-12T07:57:29Z</time></trkpt><trkpt lat="45.46374783803643" lon="11.539766874750553"><ele>27.0</ele><time>2026-04-12T07:57:30Z</time></trkpt><trkpt lat="45.46381189508726" lon="11.539777064702927"><ele>27.0</ele><time>2026-04-12T07:57:31Z</time></trkpt><trkpt lat="45.463883126803296" lon="11.53978531349809"><ele>27.0</ele><time>2026-04-12T07:57:32Z</time></trkpt><trkpt lat="45.46396216737123" lon="11.53980109143004"><ele>27.666666666666668</ele><time>2026-04-12T07:57:33Z</time></trkpt><trkpt lat="45.46403453772484" lon="11.539814473841583"><ele>28.333333333333336</ele><time>2026-04-12T07:57:34Z</time></trkpt><trkpt lat="45.4641078434492" lon="11.539828097660973"><ele>29.0</ele><time>2026-04-12T07:57:35Z</time></trkpt><trkpt lat="45.4641930339816" lon="11.539845279432887"><ele>29.666666666666668</ele><time>2026-04-12T07:57:36Z</time></trkpt><trkpt lat="45.464281195787784" lon="11.53986598328882"><ele>30.333333333333336</ele><time>2026-04-12T07:57:37Z</time></trkpt><trkpt lat="45.46437123636404" lon="11.539886768113131"><ele>31.0</ele><time>2026-04-12T07:57:38Z</time></trkpt><trkpt lat="45.464466461006204" lon="11.539903985914991"><ele>31.000000000000004</ele><time>2026-04-12T07:57:39Z</time></trkpt><trkpt lat="45.46455608218671" lon="11.53991668448649"><ele>31.0</ele><time>2026-04-12T07:57:40Z</time></trkpt><trkpt lat="45.464642282760146" lon="11.539922751099583"><ele>31.0</ele><time>2026-04-12T07:57:41Z</time></trkpt><trkpt lat="45.46472864547788" lon="11.539928794921257"><ele>31.0</ele><time>2026-04-12T07:57:42Z</time></trkpt><trkpt lat="45.46481462387096" lon="11.539936254348083"><ele>31.000000000000004</ele><time>2026-04-12T07:57:43Z</time></trkpt><trkpt lat="45.46490321224254" lon="11.539935867259757"><ele>31.0</ele><time>2026-04-12T07:57:44Z</time></trkpt><trkpt lat="45.46499466998923" lon="11.53992206591153"><ele>31.200000000000003</ele><time>2026-04-12T07:57:45Z</time></trkpt><trkpt lat="45.46509432691247" lon="11.539902858341343"><ele>31.400000000000002</ele><time>2026-04-12T07:57:46Z</time></trkpt><trkpt lat="45.46520064554092" lon="11.539898765036225"><ele>31.6</ele><time>2026-04-12T07:57:47Z</time></trkpt><trkpt lat="45.46529457512965" lon="11.539867130557562"><ele>31.8</ele><time>2026-04-12T07:57:48Z</time></trkpt><trkpt lat="45.46539248229462" lon="11.53986266702777"><ele>32.0</ele><time>2026-04-12T07:57:49Z</time></trkpt><trkpt lat="45.465491948217235" lon="11.539852376300557"><ele>32.0</ele><time>2026-04-12T07:57:50Z</time></trkpt><trkpt lat="45.465593384556875" lon="11.539846615079124"><ele>32.0</ele><time>2026-04-12T07:57:51Z</time></trkpt><trkpt lat="45.465693557998506" lon="11.539849898980526"><ele>32.0</ele><time>2026-04-12T07:57:52Z</time></trkpt><trkpt lat="45.46579759245994" lon="11.539851732142822"><ele>32.0</ele><time>2026-04-12T07:57:53Z</time></trkpt><trkpt lat="45.465906118705774" lon="11.53984972601628"><ele>32.0</ele><time>2026-04-12T07:57:54Z</time></trkpt><trkpt lat="45.466015098875324" lon="11.53984993612976"><ele>32.0</ele><time>2026-04-12T07:57:55Z</time></trkpt><trkpt lat="45.46612240138331" lon="11.539849430776417"><ele>32.0</ele><time>2026-04-12T07:57:56Z</time></trkpt><trkpt lat="45.46622420520544" lon="11.53983417842896"><ele>32.0</ele><time>2026-04-12T07:57:57Z</time></trkpt><trkpt lat="45.46632956695533" lon="11.539802317375335"><ele>32.0</ele><time>2026-04-12T07:57:58Z</time></trkpt><trkpt lat="45.46643297707372" lon="11.539753952123721"><ele>32.0</ele><time>2026-04-12T07:57:59Z</time></trkpt><trkpt lat="45.466537292124016" lon="11.539690947079913"><ele>31.0</ele><time>2026-04-12T07:58:00Z</time></trkpt><trkpt lat="45.4666416218174" lon="11.539621039809665"><ele>30.0</ele><time>2026-04-12T07:58:01Z</time></trkpt><trkpt lat="45.46674627047688" lon="11.539539028710802"><ele>29.0</ele><time>2026-04-12T07:58:02Z</time></trkpt><trkpt lat="45.46683997456915" lon="11.539444702594345"><ele>28.0</ele><time>2026-04-12T07:58:03Z</time></trkpt><trkpt lat="45.46692355693399" lon="11.539354262469017"><ele>28.599999999999998</ele><time>2026-04-12T07:58:04Z</time></trkpt><trkpt lat="45.46700372877349" lon="11.539273513943753"><ele>29.199999999999996</ele><time>2026-04-12T07:58:05Z</time></trkpt><trkpt lat="45.46708381476041" lon="11.539183990143934"><ele>29.8</ele><time>2026-04-12T07:58:06Z</time></trkpt><trkpt lat="45.467162395319896" lon="11.539099115371505"><ele>30.4</ele><time>2026-04-12T07:58:07Z</time></trkpt><trkpt lat="45.46725009775558" lon="11.539040226113281"><ele>31.0</ele><time>2026-04-12T07:58:08Z</time></trkpt><trkpt lat="45.467348531298654" lon="11.539015452001301"><ele>31.0</ele><time>2026-04-12T07:58:09Z</time></trkpt><trkpt lat="45.467451347583605" lon="11.539022223036474"><ele>31.0</ele><time>2026-04-12T07:58:10Z</time></trkpt><trkpt lat="45.46755703522381" lon="11.53905212483682"><ele>31.0</ele><time>2026-04-12T07:58:11Z</time></trkpt><trkpt lat="45.4676626078874" lon="11.53908472639866"><ele>31.0</ele><time>2026-04-12T07:58:12Z</time></trkpt><trkpt lat="45.467765520076966" lon="11.53909673043501"><ele>31.0</ele><time>2026-04-12T07:58:13Z</time></trkpt><trkpt lat="45.467866318935904" lon="11.539068490350942"><ele>31.200000000000003</ele><time>2026-04-12T07:58:14Z</time></trkpt><trkpt lat="45.467952613554935" lon="11.539008286711894"><ele>31.400000000000002</ele><time>2026-04-12T07:58:15Z</time></trkpt><trkpt lat="45.46803503964791" lon="11.538954672745904"><ele>31.6</ele><time>2026-04-12T07:58:16Z</time></trkpt><trkpt lat="45.46809732703483" lon="11.538885239672314"><ele>31.8</ele><time>2026-04-12T07:58:17Z</time></trkpt><trkpt lat="45.46818237415491" lon="11.538810756544844"><ele>32.0</ele><time>2026-04-12T07:58:19Z</time></trkpt><trkpt lat="45.468043495975614" lon="11.538502253349076"><ele>35.166666666666664</ele><time>2026-04-12T07:58:24Z</time></trkpt><trkpt lat="45.46796948488708" lon="11.53844785714211"><ele>38.33333333333333</ele><time>2026-04-12T07:58:25Z</time></trkpt><trkpt lat="45.467876905718065" lon="11.538410649446808"><ele>41.5</ele><time>2026-04-12T07:58:26Z</time></trkpt><trkpt lat="45.46779053622157" lon="11.53837559919805"><ele>44.666666666666664</ele><time>2026-04-12T07:58:27Z</time></trkpt><trkpt lat="45.46770165794876" lon="11.538376132224881"><ele>47.833333333333336</ele><time>2026-04-12T07:58:28Z</time></trkpt><trkpt lat="45.467627913847316" lon="11.538399292685392"><ele>51.0</ele><time>2026-04-12T07:58:29Z</time></trkpt><trkpt lat="45.46753882853649" lon="11.538465535814511"><ele>51.0</ele><time>2026-04-12T07:58:30Z</time></trkpt><trkpt lat="45.46744870195374" lon="11.538545209705337"><ele>51.0</ele><time>2026-04-12T07:58:31Z</time></trkpt><trkpt lat="45.46736779199146" lon="11.53859613399824"><ele>51.0</ele><time>2026-04-12T07:58:32Z</time></trkpt><trkpt lat="45.467265626361204" lon="11.538651995524306"><ele>51.0</ele><time>2026-04-12T07:58:33Z</time></trkpt><trkpt lat="45.46718175857758" lon="11.538715910098455"><ele>51.0</ele><time>2026-04-12T07:58:34Z</time></trkpt><trkpt lat="45.46709125148805" lon="11.538775879849693"><ele>49.199999999999996</ele><time>2026-04-12T07:58:35Z</time></trkpt><trkpt lat="45.466989173976614" lon="11.538838150743834"><ele>47.4</ele><time>2026-04-12T07:58:36Z</time></trkpt><trkpt lat="45.466894159675945" lon="11.538903420080565"><ele>45.6</ele><time>2026-04-12T07:58:37Z</time></trkpt><trkpt lat="45.466798300252506" lon="11.538971668498716"><ele>43.8</ele><time>2026-04-12T07:58:38Z</time></trkpt><trkpt lat="45.466710958425125" lon="11.539028971430806"><ele>42.0</ele><time>2026-04-12T07:58:39Z</time></trkpt><trkpt lat="45.46664025094061" lon="11.539081046892226"><ele>42.0</ele><time>2026-04-12T07:58:40Z</time></trkpt><trkpt lat="45.46656985654923" lon="11.539124810695359"><ele>42.0</ele><time>2026-04-12T07:58:41Z</time></trkpt><trkpt lat="45.466504700650184" lon="11.539155140339526"><ele>42.0</ele><time>2026-04-12T07:58:42Z</time></trkpt><trkpt lat="45.466429157520864" lon="11.539175616923965"><ele>42.0</ele><time>2026-04-12T07:58:43Z</time></trkpt><trkpt lat="45.466353214830264" lon="11.539183408588427"><ele>42.0</ele><time>2026-04-12T07:58:44Z</time></trkpt><trkpt lat="45.46627932427101" lon="11.539170679976873"><ele>42.0</ele><time>2026-04-12T07:58:45Z</time></trkpt><trkpt lat="45.466209112133484" lon="11.539141911134287"><ele>42.0</ele><time>2026-04-12T07:58:46Z</time></trkpt><trkpt lat="45.46613640468842" lon="11.53912696105048"><ele>44.2</ele><time>2026-04-12T07:58:47Z</time></trkpt><trkpt lat="45.46606321166804" lon="11.539112564525803"><ele>46.400000000000006</ele><time>2026-04-12T07:58:48Z</time></trkpt><trkpt lat="45.465987417784284" lon="11.539081652522201"><ele>48.599999999999994</ele><time>2026-04-12T07:58:49Z</time></trkpt><trkpt lat="45.46586443498075" lon="11.53902757443115"><ele>50.8</ele><time>2026-04-12T07:58:51Z</time></trkpt><trkpt lat="45.46574830524976" lon="11.538924694751087"><ele>53.0</ele><time>2026-04-12T07:58:53Z</time></trkpt><trkpt lat="45.46567685768942" lon="11.538872758822915"><ele>53.00000000000001</ele><time>2026-04-12T07:58:54Z</time></trkpt><trkpt lat="45.4656087890179" lon="11.538818463032959"><ele>53.0</ele><time>2026-04-12T07:58:55Z</time></trkpt><trkpt lat="45.46553756015648" lon="11.538762591949757"><ele>53.0</ele><time>2026-04-12T07:58:56Z</time></trkpt><trkpt lat="45.46545811345976" lon="11.538723881402188"><ele>53.0</ele><time>2026-04-12T07:58:57Z</time></trkpt><trkpt lat="45.465389242436686" lon="11.538699797572725"><ele>53.00000000000001</ele><time>2026-04-12T07:58:58Z</time></trkpt><trkpt lat="45.46531431719509" lon="11.538695229454813"><ele>53.0</ele><time>2026-04-12T07:58:59Z</time></trkpt><trkpt lat="45.465217718039604" lon="11.538723980240324"><ele>53.599999999999994</ele><time>2026-04-12T07:59:00Z</time></trkpt><trkpt lat="45.465142804104204" lon="11.538726021926758"><ele>54.199999999999996</ele><time>2026-04-12T07:59:01Z</time></trkpt><trkpt lat="45.46505703473828" lon="11.538720513941252"><ele>54.8</ele><time>2026-04-12T07:59:02Z</time></trkpt><trkpt lat="45.46495973443964" lon="11.538715373620892"><ele>55.4</ele><time>2026-04-12T07:59:03Z</time></trkpt><trkpt lat="45.464861947556685" lon="11.538684615630887"><ele>56.0</ele><time>2026-04-12T07:59:04Z</time></trkpt><trkpt lat="45.464761988957086" lon="11.538651839814976"><ele>60.4</ele><time>2026-04-12T07:59:05Z</time></trkpt><trkpt lat="45.464666409852796" lon="11.538607019085179"><ele>64.8</ele><time>2026-04-12T07:59:06Z</time></trkpt><trkpt lat="45.46458346185226" lon="11.538551684938804"><ele>69.19999999999999</ele><time>2026-04-12T07:59:07Z</time></trkpt><trkpt lat="45.464479587696005" lon="11.538495843875637"><ele>73.6</ele><time>2026-04-12T07:59:08Z</time></trkpt><trkpt lat="45.464377245015655" lon="11.53842817068909"><ele>78.0</ele><time>2026-04-12T07:59:09Z</time></trkpt><trkpt lat="45.46428258098736" lon="11.538352399525252"><ele>78.2</ele><time>2026-04-12T07:59:10Z</time></trkpt><trkpt lat="45.464201710763" lon="11.538287895887352"><ele>78.4</ele><time>2026-04-12T07:59:11Z</time></trkpt><trkpt lat="45.46411116994048" lon="11.538238764085339"><ele>78.60000000000001</ele><time>2026-04-12T07:59:12Z</time></trkpt><trkpt lat="45.46401715975221" lon="11.538185682894202"><ele>78.8</ele><time>2026-04-12T07:59:13Z</time></trkpt><trkpt lat="45.46392778953904" lon="11.53815780954962"><ele>79.0</ele><time>2026-04-12T07:59:14Z</time></trkpt><trkpt lat="45.46382523604506" lon="11.538132798447661"><ele>78.2</ele><time>2026-04-12T07:59:15Z</time></trkpt><trkpt lat="45.46372886468321" lon="11.53809884639425"><ele>77.4</ele><time>2026-04-12T07:59:16Z</time></trkpt><trkpt lat="45.463613963566246" lon="11.538064810052342"><ele>76.6</ele><time>2026-04-12T07:59:17Z</time></trkpt><trkpt lat="45.463509668525916" lon="11.538038479973377"><ele>75.8</ele><time>2026-04-12T07:59:18Z</time></trkpt><trkpt lat="45.46342805397412" lon="11.538016500501241"><ele>75.0</ele><time>2026-04-12T07:59:19Z</time></trkpt><trkpt lat="45.463353493035356" lon="11.53800019044514"><ele>75.0</ele><time>2026-04-12T07:59:20Z</time></trkpt><trkpt lat="45.46327742988556" lon="11.537942867948322"><ele>75.0</ele><time>2026-04-12T07:59:22Z</time></trkpt><trkpt lat="45.463208723159134" lon="11.537823708046696"><ele>75.0</ele><time>2026-04-12T07:59:25Z</time></trkpt><trkpt lat="45.463154142265154" lon="11.537672147108081"><ele>75.0</ele><time>2026-04-12T07:59:27Z</time></trkpt><trkpt lat="45.46311589910332" lon="11.537576260082597"><ele>75.0</ele><time>2026-04-12T07:59:28Z</time></trkpt><trkpt lat="45.46308387220796" lon="11.537491273087463"><ele>80.16666666666667</ele><time>2026-04-12T07:59:29Z</time></trkpt><trkpt lat="45.46304440448751" lon="11.537421006857771"><ele>85.33333333333334</ele><time>2026-04-12T07:59:30Z</time></trkpt><trkpt lat="45.462990684215335" lon="11.537356841762636"><ele>90.5</ele><time>2026-04-12T07:59:31Z</time></trkpt><trkpt lat="45.4629369691004" lon="11.537263774745556"><ele>95.66666666666667</ele><time>2026-04-12T07:59:33Z</time></trkpt><trkpt lat="45.46287167805952" lon="11.537200912020435"><ele>100.83333333333334</ele><time>2026-04-12T07:59:35Z</time></trkpt><trkpt lat="45.46280495298364" lon="11.537177034996201"><ele>106.0</ele><time>2026-04-12T07:59:37Z</time></trkpt><trkpt lat="45.462714730022704" lon="11.537159488937581"><ele>106.0</ele><time>2026-04-12T07:59:39Z</time></trkpt><trkpt lat="45.46261281597983" lon="11.537155654839552"><ele>106.0</ele><time>2026-04-12T07:59:41Z</time></trkpt><trkpt lat="45.46252874596668" lon="11.537125995531474"><ele>106.0</ele><time>2026-04-12T07:59:43Z</time></trkpt><trkpt lat="45.46245437227378" lon="11.537184741688453"><ele>106.0</ele><time>2026-04-12T07:59:46Z</time></trkpt><trkpt lat="45.46238145268422" lon="11.537302847097989"><ele>106.0</ele><time>2026-04-12T07:59:48Z</time></trkpt><trkpt lat="45.46228132727157" lon="11.537359712584735"><ele>106.0</ele><time>2026-04-12T07:59:50Z</time></trkpt><trkpt lat="45.462192788203694" lon="11.537381716284845"><ele>106.0</ele><time>2026-04-12T07:59:52Z</time></trkpt><trkpt lat="45.46208678334921" lon="11.537469917497095"><ele>106.0</ele><time>2026-04-12T07:59:54Z</time></trkpt><trkpt lat="45.461949893103196" lon="11.537560421408983"><ele>106.0</ele><time>2026-04-12T07:59:56Z</time></trkpt><trkpt lat="45.461870251051984" lon="11.537616128043572"><ele>111.0</ele><time>2026-04-12T07:59:57Z</time></trkpt><trkpt lat="45.46178876150667" lon="11.537619570613746"><ele>116.0</ele><time>2026-04-12T07:59:58Z</time></trkpt><trkpt lat="45.4616188623872" lon="11.537678613690693"><ele>121.0</ele><time>2026-04-12T07:59:59Z</time></trkpt><trkpt lat="45.46146543426428" lon="11.537707465455108"><ele>126.0</ele><time>2026-04-12T08:00:00Z</time></trkpt><trkpt lat="45.46133880360388" lon="11.537700218122831"><ele>125.75</ele><time>2026-04-12T08:00:01Z</time></trkpt><trkpt lat="45.461200399921594" lon="11.537660995401623"><ele>125.5</ele><time>2026-04-12T08:00:02Z</time></trkpt><trkpt lat="45.46108743909723" lon="11.53759570081511"><ele>125.25</ele><time>2026-04-12T08:00:03Z</time></trkpt><trkpt lat="45.460976157605714" lon="11.537531529943053"><ele>125.0</ele><time>2026-04-12T08:00:04Z</time></trkpt><trkpt lat="45.460868060837385" lon="11.537469693929944"><ele>125.0</ele><time>2026-04-12T08:00:05Z</time></trkpt><trkpt lat="45.460752902773095" lon="11.53742304903132"><ele>125.0</ele><time>2026-04-12T08:00:06Z</time></trkpt><trkpt lat="45.46064064513337" lon="11.537406747945685"><ele>125.0</ele><time>2026-04-12T08:00:07Z</time></trkpt><trkpt lat="45.460515508932815" lon="11.537424169716207"><ele>125.0</ele><time>2026-04-12T08:00:08Z</time></trkpt><trkpt lat="45.46039478791502" lon="11.53745261980276"><ele>129.0</ele><time>2026-04-12T08:00:09Z</time></trkpt><trkpt lat="45.46027972522314" lon="11.537465234530275"><ele>133.0</ele><time>2026-04-12T08:00:10Z</time></trkpt><trkpt lat="45.46015821206537" lon="11.537534855561853"><ele>137.0</ele><time>2026-04-12T08:00:11Z</time></trkpt><trkpt lat="45.460020506193" lon="11.537586302427648"><ele>141.0</ele><time>2026-04-12T08:00:12Z</time></trkpt><trkpt lat="45.45989853411812" lon="11.537646255082652"><ele>141.0</ele><time>2026-04-12T08:00:13Z</time></trkpt><trkpt lat="45.45978917842987" lon="11.537698973252784"><ele>141.0</ele><time>2026-04-12T08:00:14Z</time></trkpt><trkpt lat="45.45966842152472" lon="11.53771999161308"><ele>141.0</ele><time>2026-04-12T08:00:15Z</time></trkpt><trkpt lat="45.45956018948289" lon="11.537719561938692"><ele>141.0</ele><time>2026-04-12T08:00:16Z</time></trkpt><trkpt lat="45.45944872546519" lon="11.537704938325806"><ele>143.5</ele><time>2026-04-12T08:00:17Z</time></trkpt><trkpt lat="45.45932381564331" lon="11.53768904792886"><ele>146.0</ele><time>2026-04-12T08:00:18Z</time></trkpt><trkpt lat="45.459205079119045" lon="11.537671503889742"><ele>148.5</ele><time>2026-04-12T08:00:19Z</time></trkpt><trkpt lat="45.45907683322187" lon="11.537653339305047"><ele>151.0</ele><time>2026-04-12T08:00:20Z</time></trkpt><trkpt lat="45.4589448212677" lon="11.53766345601153"><ele>151.0</ele><time>2026-04-12T08:00:21Z</time></trkpt><trkpt lat="45.45881890143041" lon="11.537682165821705"><ele>151.0</ele><time>2026-04-12T08:00:22Z</time></trkpt><trkpt lat="45.4586936366681" lon="11.537690263200302"><ele>151.0</ele><time>2026-04-12T08:00:23Z</time></trkpt><trkpt lat="45.45857316428232" lon="11.537704948889097"><ele>151.0</ele><time>2026-04-12T08:00:24Z</time></trkpt><trkpt lat="45.45847155258334" lon="11.537719387070815"><ele>152.0</ele><time>2026-04-12T08:00:25Z</time></trkpt><trkpt lat="45.45838096417929" lon="11.537732919483352"><ele>153.0</ele><time>2026-04-12T08:00:26Z</time></trkpt><trkpt lat="45.458306009716445" lon="11.537738797832779"><ele>154.0</ele><time>2026-04-12T08:00:27Z</time></trkpt><trkpt lat="45.45822810422793" lon="11.537735576628272"><ele>155.0</ele><time>2026-04-12T08:00:28Z</time></trkpt><trkpt lat="45.458116891292455" lon="11.53768813129653"><ele>156.0</ele><time>2026-04-12T08:00:30Z</time></trkpt><trkpt lat="45.4580539153994" lon="11.537669157915563"><ele>157.0</ele><time>2026-04-12T08:00:31Z</time></trkpt><trkpt lat="45.457991619133196" lon="11.537651198754135"><ele>156.4</ele><time>2026-04-12T08:00:32Z</time></trkpt><trkpt lat="45.457909739448304" lon="11.537605268783922"><ele>155.79999999999998</ele><time>2026-04-12T08:00:34Z</time></trkpt><trkpt lat="45.45780289762597" lon="11.537544155637175"><ele>155.2</ele><time>2026-04-12T08:00:36Z</time></trkpt><trkpt lat="45.45772804967732" lon="11.537514033736192"><ele>154.6</ele><time>2026-04-12T08:00:37Z</time></trkpt><trkpt lat="45.457626206543395" lon="11.53745526143966"><ele>154.0</ele><time>2026-04-12T08:00:39Z</time></trkpt><trkpt lat="45.45754608733308" lon="11.53744694739642"><ele>154.0</ele><time>2026-04-12T08:00:40Z</time></trkpt><trkpt lat="45.45746543634096" lon="11.537426645151665"><ele>154.0</ele><time>2026-04-12T08:00:41Z</time></trkpt><trkpt lat="45.45739680358309" lon="11.537375790936414"><ele>154.0</ele><time>2026-04-12T08:00:42Z</time></trkpt><trkpt lat="45.457333483680884" lon="11.53732965467953"><ele>154.0</ele><time>2026-04-12T08:00:43Z</time></trkpt><trkpt lat="45.45724592128441" lon="11.537215791271453"><ele>154.0</ele><time>2026-04-12T08:00:45Z</time></trkpt><trkpt lat="45.45716077444939" lon="11.537167025321345"><ele>154.0</ele><time>2026-04-12T08:00:47Z</time></trkpt><trkpt lat="45.457088365926815" lon="11.537103647069781"><ele>156.5</ele><time>2026-04-12T08:00:49Z</time></trkpt><trkpt lat="45.45697671237716" lon="11.536989955367186"><ele>159.0</ele><time>2026-04-12T08:00:51Z</time></trkpt><trkpt lat="45.456915126358076" lon="11.536927033099053"><ele>161.5</ele><time>2026-04-12T08:00:52Z</time></trkpt><trkpt lat="45.456849421019555" lon="11.536871714534913"><ele>164.0</ele><time>2026-04-12T08:00:53Z</time></trkpt><trkpt lat="45.45678742611555" lon="11.536825388291652"><ele>166.5</ele><time>2026-04-12T08:00:54Z</time></trkpt><trkpt lat="45.45671193687874" lon="11.536798621530275"><ele>169.0</ele><time>2026-04-12T08:00:55Z</time></trkpt><trkpt lat="45.45660109992831" lon="11.536769693717948"><ele>169.0</ele><time>2026-04-12T08:00:57Z</time></trkpt><trkpt lat="45.45651259551784" lon="11.536747577201268"><ele>169.0</ele><time>2026-04-12T08:00:59Z</time></trkpt><trkpt lat="45.45642194309945" lon="11.536727982658478"><ele>169.0</ele><time>2026-04-12T08:01:01Z</time></trkpt><trkpt lat="45.45635162746861" lon="11.536693149095226"><ele>169.0</ele><time>2026-04-12T08:01:03Z</time></trkpt><trkpt lat="45.4562731484315" lon="11.536662317624746"><ele>169.0</ele><time>2026-04-12T08:01:05Z</time></trkpt><trkpt lat="45.45614888292859" lon="11.536656419459765"><ele>170.79999999999998</ele><time>2026-04-12T08:01:07Z</time></trkpt><trkpt lat="45.456084298668685" lon="11.53664034193111"><ele>172.6</ele><time>2026-04-12T08:01:08Z</time></trkpt><trkpt lat="45.45598793033634" lon="11.536598513888615"><ele>174.4</ele><time>2026-04-12T08:01:09Z</time></trkpt><trkpt lat="45.4559003813314" lon="11.536626816938144"><ele>176.2</ele><time>2026-04-12T08:01:11Z</time></trkpt><trkpt lat="45.45583601480304" lon="11.536622004427043"><ele>178.0</ele><time>2026-04-12T08:01:12Z</time></trkpt><trkpt lat="45.455708185598255" lon="11.536592436682286"><ele>178.0</ele><time>2026-04-12T08:01:14Z</time></trkpt><trkpt lat="45.45562460811869" lon="11.536570800204217"><ele>178.0</ele><time>2026-04-12T08:01:16Z</time></trkpt><trkpt lat="45.45581850116343" lon="11.53640096472348"><ele>178.0</ele><time>2026-04-12T08:01:24Z</time></trkpt><trkpt lat="45.45588075893016" lon="11.536352839387716"><ele>178.0</ele><time>2026-04-12T08:01:25Z</time></trkpt><trkpt lat="45.45601197966766" lon="11.536283432693837"><ele>178.0</ele><time>2026-04-12T08:01:27Z</time></trkpt><trkpt lat="45.45610341992137" lon="11.536240088819032"><ele>178.0</ele><time>2026-04-12T08:01:28Z</time></trkpt><trkpt lat="45.45618748091664" lon="11.536186204172454"><ele>178.0</ele><time>2026-04-12T08:01:29Z</time></trkpt><trkpt lat="45.456250753090224" lon="11.53613568602138"><ele>178.0</ele><time>2026-04-12T08:01:30Z</time></trkpt><trkpt lat="45.45636360458996" lon="11.536083322781522"><ele>178.0</ele><time>2026-04-12T08:01:32Z</time></trkpt><trkpt lat="45.45643625459439" lon="11.536056740681916"><ele>182.0</ele><time>2026-04-12T08:01:33Z</time></trkpt><trkpt lat="45.45652452298769" lon="11.5360189730552"><ele>186.0</ele><time>2026-04-12T08:01:34Z</time></trkpt><trkpt lat="45.456617357739084" lon="11.535968183368656"><ele>190.0</ele><time>2026-04-12T08:01:35Z</time></trkpt><trkpt lat="45.456693215334354" lon="11.53591698036146"><ele>194.0</ele><time>2026-04-12T08:01:36Z</time></trkpt><trkpt lat="45.456792562704884" lon="11.535892807392308"><ele>198.0</ele><time>2026-04-12T08:01:37Z</time></trkpt><trkpt lat="45.456896915475" lon="11.535873975108736"><ele>198.0</ele><time>2026-04-12T08:01:38Z</time></trkpt><trkpt lat="45.456980709765084" lon="11.535867646953752"><ele>198.0</ele><time>2026-04-12T08:01:39Z</time></trkpt><trkpt lat="45.457058740011405" lon="11.535874117166067"><ele>198.0</ele><time>2026-04-12T08:01:40Z</time></trkpt><trkpt lat="45.45713713288263" lon="11.535887564984472"><ele>198.0</ele><time>2026-04-12T08:01:41Z</time></trkpt><trkpt lat="45.45722598419235" lon="11.535922210479322"><ele>198.0</ele><time>2026-04-12T08:01:42Z</time></trkpt><trkpt lat="45.457313213765104" lon="11.53592234719583"><ele>198.0</ele><time>2026-04-12T08:01:43Z</time></trkpt><trkpt lat="45.45739728334845" lon="11.535944149689959"><ele>199.33333333333334</ele><time>2026-04-12T08:01:44Z</time></trkpt><trkpt lat="45.45748595581786" lon="11.535971233303234"><ele>200.66666666666669</ele><time>2026-04-12T08:01:45Z</time></trkpt><trkpt lat="45.45758749282855" lon="11.53606304294291"><ele>202.0</ele><time>2026-04-12T08:01:47Z</time></trkpt><trkpt lat="45.45764640562995" lon="11.53609834121031"><ele>203.33333333333334</ele><time>2026-04-12T08:01:48Z</time></trkpt><trkpt lat="45.45771355981858" lon="11.536105375132585"><ele>204.66666666666669</ele><time>2026-04-12T08:01:49Z</time></trkpt><trkpt lat="45.45779285156371" lon="11.536110789282324"><ele>206.0</ele><time>2026-04-12T08:01:50Z</time></trkpt><trkpt lat="45.457868173489786" lon="11.53610985690004"><ele>207.20000000000002</ele><time>2026-04-12T08:01:51Z</time></trkpt><trkpt lat="45.45797850735786" lon="11.536143261656724"><ele>208.4</ele><time>2026-04-12T08:01:53Z</time></trkpt><trkpt lat="45.45808367481708" lon="11.536152504862374"><ele>209.6</ele><time>2026-04-12T08:01:55Z</time></trkpt><trkpt lat="45.45814424500984" lon="11.536125004577935"><ele>210.8</ele><time>2026-04-12T08:01:58Z</time></trkpt><trkpt lat="45.458226019864625" lon="11.536128850583516"><ele>212.0</ele><time>2026-04-12T08:02:02Z</time></trkpt><trkpt lat="45.458343300461934" lon="11.536128494550896"><ele>212.0</ele><time>2026-04-12T08:02:05Z</time></trkpt><trkpt lat="45.458431237672116" lon="11.536081091371212"><ele>212.0</ele><time>2026-04-12T08:02:07Z</time></trkpt><trkpt lat="45.45848843696153" lon="11.536030658912784"><ele>212.0</ele><time>2026-04-12T08:02:08Z</time></trkpt><trkpt lat="45.45858432068387" lon="11.535903258892219"><ele>212.0</ele><time>2026-04-12T08:02:10Z</time></trkpt><trkpt lat="45.45863420186493" lon="11.535842321468973"><ele>212.0</ele><time>2026-04-12T08:02:11Z</time></trkpt><trkpt lat="45.45874815906528" lon="11.53576825502413"><ele>211.8</ele><time>2026-04-12T08:02:13Z</time></trkpt><trkpt lat="45.45885937631876" lon="11.53571745582108"><ele>211.6</ele><time>2026-04-12T08:02:15Z</time></trkpt><trkpt lat="45.45898486287419" lon="11.535677918820854"><ele>211.4</ele><time>2026-04-12T08:02:17Z</time></trkpt><trkpt lat="45.459034031911635" lon="11.535614352674376"><ele>211.20000000000002</ele><time>2026-04-12T08:02:18Z</time></trkpt><trkpt lat="45.459039659012255" lon="11.535504300114045"><ele>211.0</ele><time>2026-04-12T08:02:20Z</time></trkpt><trkpt lat="45.45901957735811" lon="11.535355602046586"><ele>212.8</ele><time>2026-04-12T08:02:22Z</time></trkpt><trkpt lat="45.45890972457813" lon="11.535299862905799"><ele>214.60000000000002</ele><time>2026-04-12T08:02:24Z</time></trkpt><trkpt lat="45.458812613163225" lon="11.535290098377683"><ele>216.4</ele><time>2026-04-12T08:02:25Z</time></trkpt><trkpt lat="45.45872648311338" lon="11.535251942877366"><ele>218.2</ele><time>2026-04-12T08:02:27Z</time></trkpt><trkpt lat="45.45866246079428" lon="11.535206867501705"><ele>220.0</ele><time>2026-04-12T08:02:30Z</time></trkpt><trkpt lat="45.45868819646648" lon="11.535104245579884"><ele>220.0</ele><time>2026-04-12T08:02:34Z</time></trkpt><trkpt lat="45.458781067022315" lon="11.534997135010084"><ele>220.0</ele><time>2026-04-12T08:02:36Z</time></trkpt><trkpt lat="45.458850764098145" lon="11.534831266978992"><ele>220.0</ele><time>2026-04-12T08:02:38Z</time></trkpt><trkpt lat="45.4588948523558" lon="11.534723295211037"><ele>220.0</ele><time>2026-04-12T08:02:39Z</time></trkpt><trkpt lat="45.45894291875914" lon="11.534604226531577"><ele>220.0</ele><time>2026-04-12T08:02:40Z</time></trkpt><trkpt lat="45.45898234955176" lon="11.534498732774003"><ele>221.6</ele><time>2026-04-12T08:02:41Z</time></trkpt><trkpt lat="45.45902673989365" lon="11.534419032417063"><ele>223.2</ele><time>2026-04-12T08:02:42Z</time></trkpt><trkpt lat="45.45912524259728" lon="11.534333530370018"><ele>224.8</ele><time>2026-04-12T08:02:44Z</time></trkpt><trkpt lat="45.45923364043802" lon="11.534307148490145"><ele>226.4</ele><time>2026-04-12T08:02:46Z</time></trkpt><trkpt lat="45.45933118156358" lon="11.534323782994742"><ele>228.0</ele><time>2026-04-12T08:02:48Z</time></trkpt><trkpt lat="45.459460370776085" lon="11.534326327373146"><ele>229.0</ele><time>2026-04-12T08:02:51Z</time></trkpt><trkpt lat="45.459681210973734" lon="11.534298407547285"><ele>230.0</ele><time>2026-04-12T08:02:56Z</time></trkpt><trkpt lat="45.45986114824338" lon="11.534356744541087"><ele>231.0</ele><time>2026-04-12T08:03:00Z</time></trkpt><trkpt lat="45.45991922472265" lon="11.534408965116684"><ele>231.0</ele><time>2026-04-12T08:03:01Z</time></trkpt><trkpt lat="45.46001128510419" lon="11.534479397293742"><ele>231.0</ele><time>2026-04-12T08:03:02Z</time></trkpt><trkpt lat="45.46011736558763" lon="11.534531607538925"><ele>231.0</ele><time>2026-04-12T08:03:03Z</time></trkpt><trkpt lat="45.460215546098446" lon="11.53462285585167"><ele>231.0</ele><time>2026-04-12T08:03:04Z</time></trkpt><trkpt lat="45.460306269374" lon="11.534736316592607"><ele>230.0</ele><time>2026-04-12T08:03:05Z</time></trkpt><trkpt lat="45.460361415071254" lon="11.534801470755195"><ele>229.00000000000003</ele><time>2026-04-12T08:03:06Z</time></trkpt><trkpt lat="45.460431827678754" lon="11.534732594850547"><ele>228.00000000000003</ele><time>2026-04-12T08:03:10Z</time></trkpt><trkpt lat="45.46055205004493" lon="11.53465467363528"><ele>227.0</ele><time>2026-04-12T08:03:12Z</time></trkpt><trkpt lat="45.460649488545954" lon="11.534600743590179"><ele>226.0</ele><time>2026-04-12T08:03:13Z</time></trkpt><trkpt lat="45.460717152645124" lon="11.5345767547783"><ele>226.0</ele><time>2026-04-12T08:03:14Z</time></trkpt><trkpt lat="45.4607986846945" lon="11.534568891613555"><ele>226.00000000000003</ele><time>2026-04-12T08:03:15Z</time></trkpt><trkpt lat="45.460882773507166" lon="11.534594035973637"><ele>226.00000000000003</ele><time>2026-04-12T08:03:16Z</time></trkpt><trkpt lat="45.460970281251875" lon="11.534654356100953"><ele>226.0</ele><time>2026-04-12T08:03:17Z</time></trkpt><trkpt lat="45.46106919828206" lon="11.53475873905496"><ele>226.0</ele><time>2026-04-12T08:03:18Z</time></trkpt><trkpt lat="45.461212728721705" lon="11.534865936196072"><ele>226.60000000000002</ele><time>2026-04-12T08:03:19Z</time></trkpt><trkpt lat="45.461315909577955" lon="11.534934560609118"><ele>227.20000000000002</ele><time>2026-04-12T08:03:20Z</time></trkpt><trkpt lat="45.46142520571942" lon="11.534957306129606"><ele>227.79999999999998</ele><time>2026-04-12T08:03:21Z</time></trkpt><trkpt lat="45.46152769603656" lon="11.534979315284287"><ele>228.39999999999998</ele><time>2026-04-12T08:03:22Z</time></trkpt><trkpt lat="45.46161067092036" lon="11.534976282297361"><ele>229.0</ele><time>2026-04-12T08:03:23Z</time></trkpt><trkpt lat="45.461694477665084" lon="11.534977616012355"><ele>229.0</ele><time>2026-04-12T08:03:24Z</time></trkpt><trkpt lat="45.46177966731495" lon="11.5349787224849"><ele>228.99999999999997</ele><time>2026-04-12T08:03:25Z</time></trkpt><trkpt lat="45.46187748713584" lon="11.534960289685781"><ele>228.99999999999997</ele><time>2026-04-12T08:03:26Z</time></trkpt><trkpt lat="45.46195745093653" lon="11.534940341897459"><ele>229.0</ele><time>2026-04-12T08:03:27Z</time></trkpt><trkpt lat="45.46202512728339" lon="11.534923389996923"><ele>229.0</ele><time>2026-04-12T08:03:28Z</time></trkpt><trkpt lat="45.46215483919435" lon="11.53491471840668"><ele>229.49999999999997</ele><time>2026-04-12T08:03:30Z</time></trkpt><trkpt lat="45.462229977786485" lon="11.534901455400744"><ele>230.0</ele><time>2026-04-12T08:03:31Z</time></trkpt><trkpt lat="45.46230157985174" lon="11.534892865203695"><ele>230.5</ele><time>2026-04-12T08:03:32Z</time></trkpt><trkpt lat="45.46236654300711" lon="11.534861852722317"><ele>231.0</ele><time>2026-04-12T08:03:33Z</time></trkpt><trkpt lat="45.462425185577025" lon="11.534815760405401"><ele>231.49999999999997</ele><time>2026-04-12T08:03:34Z</time></trkpt><trkpt lat="45.462524065650356" lon="11.534684571566205"><ele>232.0</ele><time>2026-04-12T08:03:36Z</time></trkpt><trkpt lat="45.4626030639041" lon="11.534541763315543"><ele>232.0</ele><time>2026-04-12T08:03:38Z</time></trkpt><trkpt lat="45.462659973426234" lon="11.534480099402904"><ele>232.0</ele><time>2026-04-12T08:03:39Z</time></trkpt><trkpt lat="45.46272605928267" lon="11.534434042645989"><ele>232.0</ele><time>2026-04-12T08:03:40Z</time></trkpt><trkpt lat="45.46279110896217" lon="11.534411741114669"><ele>232.0</ele><time>2026-04-12T08:03:41Z</time></trkpt><trkpt lat="45.46291527903281" lon="11.53440704147804"><ele>232.0</ele><time>2026-04-12T08:03:43Z</time></trkpt><trkpt lat="45.46304001188846" lon="11.53443306495043"><ele>231.49999999999997</ele><time>2026-04-12T08:03:45Z</time></trkpt><trkpt lat="45.46311182339451" lon="11.534445986703037"><ele>231.0</ele><time>2026-04-12T08:03:46Z</time></trkpt><trkpt lat="45.463183296621146" lon="11.534478369883525"><ele>230.5</ele><time>2026-04-12T08:03:47Z</time></trkpt><trkpt lat="45.46324888107472" lon="11.534519975605033"><ele>230.0</ele><time>2026-04-12T08:03:48Z</time></trkpt><trkpt lat="45.46334207315436" lon="11.534563661734179"><ele>229.49999999999997</ele><time>2026-04-12T08:03:49Z</time></trkpt><trkpt lat="45.46346953826472" lon="11.534568595401753"><ele>229.0</ele><time>2026-04-12T08:03:50Z</time></trkpt><trkpt lat="45.46358214372587" lon="11.534568727829502"><ele>226.39999999999998</ele><time>2026-04-12T08:03:51Z</time></trkpt><trkpt lat="45.463653289735724" lon="11.534569879329844"><ele>223.79999999999998</ele><time>2026-04-12T08:03:52Z</time></trkpt><trkpt lat="45.463729657089246" lon="11.534583931284578"><ele>221.20000000000002</ele><time>2026-04-12T08:03:53Z</time></trkpt><trkpt lat="45.46382745918567" lon="11.534599531151486"><ele>218.60000000000002</ele><time>2026-04-12T08:03:54Z</time></trkpt><trkpt lat="45.463939834056454" lon="11.534655687411835"><ele>216.0</ele><time>2026-04-12T08:03:56Z</time></trkpt><trkpt lat="45.4640498002265" lon="11.534705424832072"><ele>216.0</ele><time>2026-04-12T08:03:58Z</time></trkpt><trkpt lat="45.464149235144575" lon="11.534739494772811"><ele>216.00000000000003</ele><time>2026-04-12T08:04:00Z</time></trkpt><trkpt lat="45.464251064471135" lon="11.534731345012736"><ele>216.00000000000003</ele><time>2026-04-12T08:04:02Z</time></trkpt><trkpt lat="45.4643417478175" lon="11.534707513430524"><ele>216.0</ele><time>2026-04-12T08:04:04Z</time></trkpt><trkpt lat="45.46444115125907" lon="11.534645010959345"><ele>216.0</ele><time>2026-04-12T08:04:07Z</time></trkpt><trkpt lat="45.46448640469761" lon="11.534581120788507"><ele>216.5</ele><time>2026-04-12T08:04:09Z</time></trkpt><trkpt lat="45.46455709559819" lon="11.53452418568939"><ele>217.0</ele><time>2026-04-12T08:04:11Z</time></trkpt><trkpt lat="45.46463862176551" lon="11.534395708469313"><ele>217.5</ele><time>2026-04-12T08:04:13Z</time></trkpt><trkpt lat="45.46468532125973" lon="11.534317690961123"><ele>218.0</ele><time>2026-04-12T08:04:14Z</time></trkpt><trkpt lat="45.464727602362494" lon="11.534221629462087"><ele>218.5</ele><time>2026-04-12T08:04:15Z</time></trkpt><trkpt lat="45.46477489902764" lon="11.534123774535983"><ele>219.0</ele><time>2026-04-12T08:04:16Z</time></trkpt><trkpt lat="45.46482418262204" lon="11.534062508928649"><ele>219.0</ele><time>2026-04-12T08:04:17Z</time></trkpt><trkpt lat="45.464943507083966" lon="11.533942830000317"><ele>219.0</ele><time>2026-04-12T08:04:18Z</time></trkpt><trkpt lat="45.46507902811112" lon="11.533900099940826"><ele>219.0</ele><time>2026-04-12T08:04:19Z</time></trkpt><trkpt lat="45.46524523532142" lon="11.53383723267052"><ele>219.0</ele><time>2026-04-12T08:04:20Z</time></trkpt><trkpt lat="45.46534461317138" lon="11.533766721249643"><ele>219.0</ele><time>2026-04-12T08:04:21Z</time></trkpt><trkpt lat="45.46543778043691" lon="11.533668410264623"><ele>219.0</ele><time>2026-04-12T08:04:22Z</time></trkpt><trkpt lat="45.46550908019179" lon="11.53356282100372"><ele>219.0</ele><time>2026-04-12T08:04:23Z</time></trkpt><trkpt lat="45.4655667260153" lon="11.533401769637004"><ele>218.75</ele><time>2026-04-12T08:04:24Z</time></trkpt><trkpt lat="45.465657271671205" lon="11.53319041711205"><ele>218.5</ele><time>2026-04-12T08:04:25Z</time></trkpt><trkpt lat="45.46572411240813" lon="11.533017847944707"><ele>218.25</ele><time>2026-04-12T08:04:26Z</time></trkpt><trkpt lat="45.46579072414643" lon="11.532893440757242"><ele>218.0</ele><time>2026-04-12T08:04:27Z</time></trkpt><trkpt lat="45.46584999313277" lon="11.53277785876624"><ele>218.83333333333334</ele><time>2026-04-12T08:04:28Z</time></trkpt><trkpt lat="45.46590490644142" lon="11.532692557420821"><ele>219.66666666666669</ele><time>2026-04-12T08:04:29Z</time></trkpt><trkpt lat="45.46595383372118" lon="11.532616755962415"><ele>220.5</ele><time>2026-04-12T08:04:30Z</time></trkpt><trkpt lat="45.46599146720946" lon="11.532510436412897"><ele>221.33333333333331</ele><time>2026-04-12T08:04:31Z</time></trkpt><trkpt lat="45.46602110180347" lon="11.532399047046015"><ele>222.16666666666666</ele><time>2026-04-12T08:04:32Z</time></trkpt><trkpt lat="45.46604574383329" lon="11.532296284344891"><ele>223.0</ele><time>2026-04-12T08:04:33Z</time></trkpt><trkpt lat="45.4660696062369" lon="11.532197096280346"><ele>222.99999999999997</ele><time>2026-04-12T08:04:34Z</time></trkpt><trkpt lat="45.466108121894926" lon="11.532108925640149"><ele>223.0</ele><time>2026-04-12T08:04:35Z</time></trkpt><trkpt lat="45.46616709721849" lon="11.532029249783362"><ele>223.0</ele><time>2026-04-12T08:04:36Z</time></trkpt><trkpt lat="45.46622636549339" lon="11.531929349078593"><ele>223.0</ele><time>2026-04-12T08:04:37Z</time></trkpt><trkpt lat="45.46627352885875" lon="11.531848905421924"><ele>222.99999999999997</ele><time>2026-04-12T08:04:38Z</time></trkpt><trkpt lat="45.466316714461286" lon="11.531719185549152"><ele>223.0</ele><time>2026-04-12T08:04:39Z</time></trkpt><trkpt lat="45.46636496460992" lon="11.531623561415142"><ele>221.33333333333331</ele><time>2026-04-12T08:04:40Z</time></trkpt><trkpt lat="45.466422652306086" lon="11.531539636358195"><ele>219.66666666666666</ele><time>2026-04-12T08:04:41Z</time></trkpt><trkpt lat="45.46650134892093" lon="11.531490272893313"><ele>218.0</ele><time>2026-04-12T08:04:42Z</time></trkpt><trkpt lat="45.46659203691437" lon="11.531500456593276"><ele>216.33333333333331</ele><time>2026-04-12T08:04:43Z</time></trkpt><trkpt lat="45.46668352452302" lon="11.531501339743661"><ele>214.66666666666666</ele><time>2026-04-12T08:04:44Z</time></trkpt><trkpt lat="45.46676923110987" lon="11.531529934659092"><ele>213.0</ele><time>2026-04-12T08:04:45Z</time></trkpt><trkpt lat="45.466840105198706" lon="11.531565828588267"><ele>213.0</ele><time>2026-04-12T08:04:46Z</time></trkpt><trkpt lat="45.46690463851296" lon="11.53160921543037"><ele>213.0</ele><time>2026-04-12T08:04:47Z</time></trkpt><trkpt lat="45.466964734848226" lon="11.531652787026593"><ele>213.0</ele><time>2026-04-12T08:04:48Z</time></trkpt><trkpt lat="45.46704230016998" lon="11.531696374939823"><ele>213.0</ele><time>2026-04-12T08:04:49Z</time></trkpt><trkpt lat="45.46712034582773" lon="11.53170426885223"><ele>213.0</ele><time>2026-04-12T08:04:50Z</time></trkpt><trkpt lat="45.46719443856842" lon="11.531696770447388"><ele>213.0</ele><time>2026-04-12T08:04:51Z</time></trkpt><trkpt lat="45.46728575080413" lon="11.531679516572275"><ele>213.0</ele><time>2026-04-12T08:04:57Z</time></trkpt><trkpt lat="45.46719069092099" lon="11.531508538919153"><ele>213.0</ele><time>2026-04-12T08:05:01Z</time></trkpt><trkpt lat="45.467104027095" lon="11.531405927515381"><ele>213.0</ele><time>2026-04-12T08:05:03Z</time></trkpt><trkpt lat="45.467039092289106" lon="11.531326665996636"><ele>213.0</ele><time>2026-04-12T08:05:04Z</time></trkpt><trkpt lat="45.46696633514239" lon="11.531249781774358"><ele>213.0</ele><time>2026-04-12T08:05:05Z</time></trkpt><trkpt lat="45.4668946551277" lon="11.531187413538479"><ele>216.0</ele><time>2026-04-12T08:05:06Z</time></trkpt><trkpt lat="45.46682194472006" lon="11.531126567735274"><ele>219.0</ele><time>2026-04-12T08:05:07Z</time></trkpt><trkpt lat="45.466735719848614" lon="11.531070900222764"><ele>222.0</ele><time>2026-04-12T08:05:08Z</time></trkpt><trkpt lat="45.46663924534698" lon="11.531032643603027"><ele>225.0</ele><time>2026-04-12T08:05:09Z</time></trkpt><trkpt lat="45.466532340829744" lon="11.53100248020391"><ele>228.0</ele><time>2026-04-12T08:05:10Z</time></trkpt><trkpt lat="45.46644446544707" lon="11.53098306453651"><ele>228.0</ele><time>2026-04-12T08:05:11Z</time></trkpt><trkpt lat="45.4663636437304" lon="11.530957688339043"><ele>228.0</ele><time>2026-04-12T08:05:12Z</time></trkpt><trkpt lat="45.46628829554314" lon="11.53091903730576"><ele>228.0</ele><time>2026-04-12T08:05:13Z</time></trkpt><trkpt lat="45.46620818323773" lon="11.530873541866942"><ele>228.0</ele><time>2026-04-12T08:05:14Z</time></trkpt><trkpt lat="45.46613273932264" lon="11.530810388321665"><ele>228.0</ele><time>2026-04-12T08:05:15Z</time></trkpt><trkpt lat="45.46606648269685" lon="11.530736598663262"><ele>228.0</ele><time>2026-04-12T08:05:16Z</time></trkpt><trkpt lat="45.46599283034702" lon="11.53068257258582"><ele>228.33333333333334</ele><time>2026-04-12T08:05:17Z</time></trkpt><trkpt lat="45.46591680966127" lon="11.530643881026913"><ele>228.66666666666669</ele><time>2026-04-12T08:05:18Z</time></trkpt><trkpt lat="45.465840681696726" lon="11.530614953704154"><ele>229.0</ele><time>2026-04-12T08:05:19Z</time></trkpt><trkpt lat="45.465761182558055" lon="11.530583109350584"><ele>229.33333333333334</ele><time>2026-04-12T08:05:20Z</time></trkpt><trkpt lat="45.465687032956275" lon="11.53053496812245"><ele>229.66666666666669</ele><time>2026-04-12T08:05:21Z</time></trkpt><trkpt lat="45.4656214026518" lon="11.530464025775828"><ele>230.0</ele><time>2026-04-12T08:05:22Z</time></trkpt><trkpt lat="45.46556671893847" lon="11.53038661940393"><ele>231.66666666666669</ele><time>2026-04-12T08:05:23Z</time></trkpt><trkpt lat="45.46550107893856" lon="11.530313372725908"><ele>233.33333333333334</ele><time>2026-04-12T08:05:24Z</time></trkpt><trkpt lat="45.465432497249225" lon="11.530239558184174"><ele>235.0</ele><time>2026-04-12T08:05:25Z</time></trkpt><trkpt lat="45.46536321900265" lon="11.530168544037705"><ele>236.66666666666669</ele><time>2026-04-12T08:05:26Z</time></trkpt><trkpt lat="45.46530057905957" lon="11.530092085155296"><ele>238.33333333333334</ele><time>2026-04-12T08:05:27Z</time></trkpt><trkpt lat="45.465233539692704" lon="11.530002997857732"><ele>240.0</ele><time>2026-04-12T08:05:28Z</time></trkpt><trkpt lat="45.4651542872811" lon="11.529965521371178"><ele>240.0</ele><time>2026-04-12T08:05:29Z</time></trkpt><trkpt lat="45.4650763694553" lon="11.529958931277537"><ele>240.0</ele><time>2026-04-12T08:05:30Z</time></trkpt><trkpt lat="45.46500910947732" lon="11.529957648651665"><ele>240.0</ele><time>2026-04-12T08:05:31Z</time></trkpt><trkpt lat="45.464910200271554" lon="11.52998434973112"><ele>240.0</ele><time>2026-04-12T08:05:33Z</time></trkpt><trkpt lat="45.46479555822659" lon="11.530047085253123"><ele>240.0</ele><time>2026-04-12T08:05:35Z</time></trkpt><trkpt lat="45.46472024744797" lon="11.53010457155513"><ele>240.0</ele><time>2026-04-12T08:05:36Z</time></trkpt><trkpt lat="45.46464001194759" lon="11.530174347005174"><ele>240.0</ele><time>2026-04-12T08:05:37Z</time></trkpt><trkpt lat="45.464581330895655" lon="11.530243652388885"><ele>240.0</ele><time>2026-04-12T08:05:38Z</time></trkpt><trkpt lat="45.46453354706041" lon="11.53031694619397"><ele>240.0</ele><time>2026-04-12T08:05:39Z</time></trkpt><trkpt lat="45.46449111711913" lon="11.530392587229285"><ele>240.0</ele><time>2026-04-12T08:05:40Z</time></trkpt><trkpt lat="45.4644452453071" lon="11.530480640680137"><ele>240.0</ele><time>2026-04-12T08:05:41Z</time></trkpt><trkpt lat="45.464405170416335" lon="11.530591245278632"><ele>241.4</ele><time>2026-04-12T08:05:42Z</time></trkpt><trkpt lat="45.46437740686161" lon="11.530715523662494"><ele>242.8</ele><time>2026-04-12T08:05:43Z</time></trkpt><trkpt lat="45.464344859529604" lon="11.53084102483503"><ele>244.2</ele><time>2026-04-12T08:05:44Z</time></trkpt><trkpt lat="45.46428739492089" lon="11.530943111270913"><ele>245.6</ele><time>2026-04-12T08:05:45Z</time></trkpt><trkpt lat="45.46422308463126" lon="11.531031464720495"><ele>247.0</ele><time>2026-04-12T08:05:46Z</time></trkpt><trkpt lat="45.464163628676644" lon="11.531131570024392"><ele>246.6</ele><time>2026-04-12T08:05:47Z</time></trkpt><trkpt lat="45.46410378521604" lon="11.531235839917633"><ele>246.2</ele><time>2026-04-12T08:05:48Z</time></trkpt><trkpt lat="45.46403734929342" lon="11.53132851957029"><ele>245.8</ele><time>2026-04-12T08:05:49Z</time></trkpt><trkpt lat="45.4639616040933" lon="11.531385700696479"><ele>245.4</ele><time>2026-04-12T08:05:50Z</time></trkpt><trkpt lat="45.463876009376236" lon="11.531410594081656"><ele>245.0</ele><time>2026-04-12T08:05:51Z</time></trkpt><trkpt lat="45.46378363414531" lon="11.531420602888266"><ele>245.8</ele><time>2026-04-12T08:05:52Z</time></trkpt><trkpt lat="45.46369062303767" lon="11.531409224320567"><ele>246.6</ele><time>2026-04-12T08:05:53Z</time></trkpt><trkpt lat="45.463591578075096" lon="11.531397554250415"><ele>247.39999999999998</ele><time>2026-04-12T08:05:54Z</time></trkpt><trkpt lat="45.46348575106735" lon="11.531401802148478"><ele>248.2</ele><time>2026-04-12T08:05:55Z</time></trkpt><trkpt lat="45.46338001789375" lon="11.531409585614195"><ele>249.0</ele><time>2026-04-12T08:05:56Z</time></trkpt><trkpt lat="45.463279681252665" lon="11.531426388090274"><ele>249.0</ele><time>2026-04-12T08:05:57Z</time></trkpt><trkpt lat="45.463157792018" lon="11.531459613215047"><ele>248.99999999999997</ele><time>2026-04-12T08:05:58Z</time></trkpt><trkpt lat="45.46307140207118" lon="11.531524344846217"><ele>248.99999999999997</ele><time>2026-04-12T08:05:59Z</time></trkpt><trkpt lat="45.46297661349525" lon="11.531584845301156"><ele>249.0</ele><time>2026-04-12T08:06:00Z</time></trkpt><trkpt lat="45.46288355993086" lon="11.531639280442949"><ele>249.0</ele><time>2026-04-12T08:06:01Z</time></trkpt><trkpt lat="45.46279027286989" lon="11.531678224187816"><ele>250.6</ele><time>2026-04-12T08:06:02Z</time></trkpt><trkpt lat="45.46270413839685" lon="11.53170456618261"><ele>252.2</ele><time>2026-04-12T08:06:03Z</time></trkpt><trkpt lat="45.46262145751738" lon="11.531746574210066"><ele>253.79999999999998</ele><time>2026-04-12T08:06:04Z</time></trkpt><trkpt lat="45.4625348392824" lon="11.531817767901098"><ele>255.39999999999998</ele><time>2026-04-12T08:06:05Z</time></trkpt><trkpt lat="45.46244831768148" lon="11.531876882717972"><ele>257.0</ele><time>2026-04-12T08:06:06Z</time></trkpt><trkpt lat="45.46236276601955" lon="11.531921761720833"><ele>257.0</ele><time>2026-04-12T08:06:07Z</time></trkpt><trkpt lat="45.46227170736486" lon="11.531946752738172"><ele>257.0</ele><time>2026-04-12T08:06:08Z</time></trkpt><trkpt lat="45.462170590228254" lon="11.53194446959019"><ele>257.0</ele><time>2026-04-12T08:06:09Z</time></trkpt><trkpt lat="45.46207330537358" lon="11.531918939393414"><ele>257.0</ele><time>2026-04-12T08:06:10Z</time></trkpt><trkpt lat="45.46198219310667" lon="11.531867090242352"><ele>257.0</ele><time>2026-04-12T08:06:11Z</time></trkpt><trkpt lat="45.46189758339177" lon="11.531788944400992"><ele>256.8</ele><time>2026-04-12T08:06:12Z</time></trkpt><trkpt lat="45.4618198106071" lon="11.531697382735166"><ele>256.6</ele><time>2026-04-12T08:06:13Z</time></trkpt><trkpt lat="45.461757358944006" lon="11.531588591977497"><ele>256.40000000000003</ele><time>2026-04-12T08:06:14Z</time></trkpt><trkpt lat="45.46169327964308" lon="11.531480987807514"><ele>256.2</ele><time>2026-04-12T08:06:15Z</time></trkpt><trkpt lat="45.46162334710375" lon="11.531389705433508"><ele>256.0</ele><time>2026-04-12T08:06:16Z</time></trkpt><trkpt lat="45.46153251031235" lon="11.531332218730075"><ele>256.0</ele><time>2026-04-12T08:06:17Z</time></trkpt><trkpt lat="45.4614354468865" lon="11.531304414716985"><ele>256.0</ele><time>2026-04-12T08:06:18Z</time></trkpt><trkpt lat="45.46132833109898" lon="11.531297964643223"><ele>256.0</ele><time>2026-04-12T08:06:19Z</time></trkpt><trkpt lat="45.46121742500965" lon="11.531297691850806"><ele>256.0</ele><time>2026-04-12T08:06:20Z</time></trkpt><trkpt lat="45.46110068360198" lon="11.531316608337443"><ele>256.0</ele><time>2026-04-12T08:06:21Z</time></trkpt><trkpt lat="45.460999327636024" lon="11.53136500393241"><ele>255.83333333333331</ele><time>2026-04-12T08:06:22Z</time></trkpt><trkpt lat="45.460911879311695" lon="11.531444659187233"><ele>255.66666666666666</ele><time>2026-04-12T08:06:23Z</time></trkpt><trkpt lat="45.460841290381566" lon="11.531507981336658"><ele>255.5</ele><time>2026-04-12T08:06:24Z</time></trkpt><trkpt lat="45.46077261650053" lon="11.531549968040178"><ele>255.33333333333331</ele><time>2026-04-12T08:06:25Z</time></trkpt><trkpt lat="45.460678461801095" lon="11.531572317866456"><ele>255.16666666666666</ele><time>2026-04-12T08:06:27Z</time></trkpt><trkpt lat="45.46061074944669" lon="11.531595027688459"><ele>255.0</ele><time>2026-04-12T08:06:30Z</time></trkpt><trkpt lat="45.46052980645428" lon="11.531754356085033"><ele>255.8</ele><time>2026-04-12T08:06:34Z</time></trkpt><trkpt lat="45.4603971357605" lon="11.531811816727586"><ele>256.6</ele><time>2026-04-12T08:06:36Z</time></trkpt><trkpt lat="45.46029987609686" lon="11.531853484165973"><ele>257.4</ele><time>2026-04-12T08:06:37Z</time></trkpt><trkpt lat="45.46023934786272" lon="11.531898153503768"><ele>258.2</ele><time>2026-04-12T08:06:38Z</time></trkpt><trkpt lat="45.46017560537216" lon="11.53196712451165"><ele>259.0</ele><time>2026-04-12T08:06:40Z</time></trkpt><trkpt lat="45.46006615061414" lon="11.532064741402873"><ele>259.0</ele><time>2026-04-12T08:06:42Z</time></trkpt><trkpt lat="45.459954677403296" lon="11.532151709105351"><ele>259.0</ele><time>2026-04-12T08:06:44Z</time></trkpt><trkpt lat="45.459880787495756" lon="11.532200210947167"><ele>259.0</ele><time>2026-04-12T08:06:46Z</time></trkpt><trkpt lat="45.459820702913056" lon="11.532227290525269"><ele>259.0</ele><time>2026-04-12T08:06:47Z</time></trkpt><trkpt lat="45.45973230252927" lon="11.532258837000212"><ele>259.0</ele><time>2026-04-12T08:06:49Z</time></trkpt><trkpt lat="45.45964277098571" lon="11.532277209782881"><ele>274.0</ele><time>2026-04-12T08:06:51Z</time></trkpt><trkpt lat="45.459524045023684" lon="11.53165390091805"><ele>274.0</ele><time>2026-04-12T08:06:53Z</time></trkpt><trkpt lat="45.45944033190899" lon="11.531587977494679"><ele>274.0</ele><time>2026-04-12T08:06:55Z</time></trkpt><trkpt lat="45.45934740056796" lon="11.531539352219768"><ele>274.0</ele><time>2026-04-12T08:06:58Z</time></trkpt><trkpt lat="45.45925635973542" lon="11.53145631736056"><ele>274.0</ele><time>2026-04-12T08:06:59Z</time></trkpt><trkpt lat="45.45917641361046" lon="11.531423628884339"><ele>274.0</ele><time>2026-04-12T08:07:00Z</time></trkpt><trkpt lat="45.4591224163433" lon="11.531319923038874"><ele>274.0</ele><time>2026-04-12T08:07:01Z</time></trkpt><trkpt lat="45.45903730112458" lon="11.531274704417447"><ele>274.0</ele><time>2026-04-12T08:07:04Z</time></trkpt><trkpt lat="45.458887918895" lon="11.531320602978385"><ele>274.0</ele><time>2026-04-12T08:07:06Z</time></trkpt><trkpt lat="45.45881173856579" lon="11.531240466697161"><ele>274.0</ele><time>2026-04-12T08:07:08Z</time></trkpt><trkpt lat="45.45873875387438" lon="11.531184864136417"><ele>274.0</ele><time>2026-04-12T08:07:10Z</time></trkpt><trkpt lat="45.4586589994452" lon="11.53114039312922"><ele>274.66666666666663</ele><time>2026-04-12T08:07:11Z</time></trkpt><trkpt lat="45.45855544258123" lon="11.531080210285019"><ele>275.3333333333333</ele><time>2026-04-12T08:07:13Z</time></trkpt><trkpt lat="45.45850158874863" lon="11.530998737868744"><ele>276.0</ele><time>2026-04-12T08:07:14Z</time></trkpt><trkpt lat="45.45844347970938" lon="11.530906196927688"><ele>276.6666666666667</ele><time>2026-04-12T08:07:16Z</time></trkpt><trkpt lat="45.458404201041034" lon="11.530826809264493"><ele>277.33333333333337</ele><time>2026-04-12T08:07:17Z</time></trkpt><trkpt lat="45.45833618289305" lon="11.530725598994758"><ele>278.0</ele><time>2026-04-12T08:07:18Z</time></trkpt><trkpt lat="45.45827453889989" lon="11.530673883472197"><ele>278.0</ele><time>2026-04-12T08:07:19Z</time></trkpt><trkpt lat="45.45819741455133" lon="11.530599113983595"><ele>278.0</ele><time>2026-04-12T08:07:21Z</time></trkpt><trkpt lat="45.45810033455032" lon="11.530503947789748"><ele>278.0</ele><time>2026-04-12T08:07:23Z</time></trkpt><trkpt lat="45.458054558152426" lon="11.530440180239301"><ele>278.0</ele><time>2026-04-12T08:07:24Z</time></trkpt><trkpt lat="45.45800606305819" lon="11.53037212579406"><ele>278.0</ele><time>2026-04-12T08:07:26Z</time></trkpt><trkpt lat="45.45791692684392" lon="11.530288271422208"><ele>279.0</ele><time>2026-04-12T08:07:28Z</time></trkpt><trkpt lat="45.45786181299094" lon="11.530243406283702"><ele>280.0</ele><time>2026-04-12T08:07:29Z</time></trkpt><trkpt lat="45.45782019362884" lon="11.53017487748224"><ele>281.0</ele><time>2026-04-12T08:07:30Z</time></trkpt><trkpt lat="45.457743371083126" lon="11.530118606437231"><ele>282.0</ele><time>2026-04-12T08:07:32Z</time></trkpt><trkpt lat="45.45766149665408" lon="11.530070904522857"><ele>283.0</ele><time>2026-04-12T08:07:34Z</time></trkpt><trkpt lat="45.457576841241284" lon="11.530019822400096"><ele>284.0</ele><time>2026-04-12T08:07:36Z</time></trkpt><trkpt lat="45.45752167750844" lon="11.529952518385056"><ele>284.0</ele><time>2026-04-12T08:07:37Z</time></trkpt><trkpt lat="45.45740205720343" lon="11.529946524441552"><ele>284.0</ele><time>2026-04-12T08:07:39Z</time></trkpt><trkpt lat="45.45733381220586" lon="11.529942844375501"><ele>284.0</ele><time>2026-04-12T08:07:40Z</time></trkpt><trkpt lat="45.457233523923215" lon="11.529829868135932"><ele>284.0</ele><time>2026-04-12T08:07:41Z</time></trkpt><trkpt lat="45.457165767555715" lon="11.52985737438084"><ele>284.0</ele><time>2026-04-12T08:07:42Z</time></trkpt><trkpt lat="45.457142684944735" lon="11.530017781931456"><ele>285.59999999999997</ele><time>2026-04-12T08:07:43Z</time></trkpt><trkpt lat="45.45705927996996" lon="11.530050222292228"><ele>287.2</ele><time>2026-04-12T08:07:46Z</time></trkpt><trkpt lat="45.456949952988865" lon="11.53006060216942"><ele>288.79999999999995</ele><time>2026-04-12T08:07:49Z</time></trkpt><trkpt lat="45.45686294780582" lon="11.530078078395473"><ele>290.4</ele><time>2026-04-12T08:07:50Z</time></trkpt><trkpt lat="45.45674510514599" lon="11.529999891206012"><ele>292.0</ele><time>2026-04-12T08:07:52Z</time></trkpt><trkpt lat="45.45662564077487" lon="11.530030805662921"><ele>292.0</ele><time>2026-04-12T08:07:54Z</time></trkpt><trkpt lat="45.456580570033836" lon="11.53009739854256"><ele>292.0</ele><time>2026-04-12T08:07:55Z</time></trkpt><trkpt lat="45.45647655872374" lon="11.530135895533691"><ele>292.0</ele><time>2026-04-12T08:07:56Z</time></trkpt><trkpt lat="45.45639632272824" lon="11.530161965843565"><ele>292.0</ele><time>2026-04-12T08:07:57Z</time></trkpt><trkpt lat="45.45630397704584" lon="11.53019406217109"><ele>292.0</ele><time>2026-04-12T08:07:58Z</time></trkpt><trkpt lat="45.45624449783571" lon="11.530238756945815"><ele>292.0</ele><time>2026-04-12T08:07:59Z</time></trkpt><trkpt lat="45.45617678212474" lon="11.530282078152242"><ele>291.2</ele><time>2026-04-12T08:08:00Z</time></trkpt><trkpt lat="45.456103287881135" lon="11.530286478445062"><ele>290.4</ele><time>2026-04-12T08:08:02Z</time></trkpt><trkpt lat="45.456161539338595" lon="11.530126197532955"><ele>289.6</ele><time>2026-04-12T08:08:07Z</time></trkpt><trkpt lat="45.45620299518118" lon="11.53004777747288"><ele>288.8</ele><time>2026-04-12T08:08:15Z</time></trkpt><trkpt lat="45.45616052361566" lon="11.52981783688545"><ele>288.0</ele><time>2026-04-12T08:08:27Z</time></trkpt><trkpt lat="45.456140445474695" lon="11.52968102724435"><ele>288.5</ele><time>2026-04-12T08:08:28Z</time></trkpt><trkpt lat="45.45611277414434" lon="11.5295283297934"><ele>289.0</ele><time>2026-04-12T08:08:29Z</time></trkpt><trkpt lat="45.45606934003327" lon="11.529357266796362"><ele>289.5</ele><time>2026-04-12T08:08:30Z</time></trkpt><trkpt lat="45.45600669832374" lon="11.529202732018968"><ele>290.0</ele><time>2026-04-12T08:08:31Z</time></trkpt><trkpt lat="45.45593679825851" lon="11.529067638356702"><ele>290.0</ele><time>2026-04-12T08:08:32Z</time></trkpt><trkpt lat="45.45588192722782" lon="11.528941479924292"><ele>290.0</ele><time>2026-04-12T08:08:33Z</time></trkpt><trkpt lat="45.45584713360445" lon="11.528816281184392"><ele>290.0</ele><time>2026-04-12T08:08:34Z</time></trkpt><trkpt lat="45.45580635429717" lon="11.528699704916244"><ele>290.0</ele><time>2026-04-12T08:08:35Z</time></trkpt><trkpt lat="45.455770822282396" lon="11.528612945177322"><ele>290.0</ele><time>2026-04-12T08:08:36Z</time></trkpt><trkpt lat="45.45573674227399" lon="11.52852341808662"><ele>290.0</ele><time>2026-04-12T08:08:37Z</time></trkpt><trkpt lat="45.45570315999844" lon="11.528431681974826"><ele>290.6666666666667</ele><time>2026-04-12T08:08:38Z</time></trkpt><trkpt lat="45.455669733658105" lon="11.528340580573023"><ele>291.33333333333337</ele><time>2026-04-12T08:08:39Z</time></trkpt><trkpt lat="45.45564137185905" lon="11.528250576380879"><ele>292.0</ele><time>2026-04-12T08:08:40Z</time></trkpt><trkpt lat="45.45564694324625" lon="11.52815163527415"><ele>292.6666666666667</ele><time>2026-04-12T08:08:41Z</time></trkpt><trkpt lat="45.45567991530275" lon="11.528032315818919"><ele>293.3333333333333</ele><time>2026-04-12T08:08:42Z</time></trkpt><trkpt lat="45.455712138239655" lon="11.527892470244467"><ele>294.0</ele><time>2026-04-12T08:08:43Z</time></trkpt><trkpt lat="45.45574480805827" lon="11.527764409722208"><ele>292.0</ele><time>2026-04-12T08:08:44Z</time></trkpt><trkpt lat="45.455748388414015" lon="11.527666025235407"><ele>290.0</ele><time>2026-04-12T08:08:45Z</time></trkpt><trkpt lat="45.45568466840791" lon="11.52760334671405"><ele>288.0</ele><time>2026-04-12T08:08:47Z</time></trkpt><trkpt lat="45.455468246033625" lon="11.527621185647867"><ele>286.0</ele><time>2026-04-12T08:08:49Z</time></trkpt><trkpt lat="45.455362779644126" lon="11.52762399969096"><ele>285.8333333333333</ele><time>2026-04-12T08:08:50Z</time></trkpt><trkpt lat="45.455293096145105" lon="11.527655483405391"><ele>285.66666666666663</ele><time>2026-04-12T08:08:51Z</time></trkpt><trkpt lat="45.45517925679056" lon="11.527658355378017"><ele>285.5</ele><time>2026-04-12T08:08:53Z</time></trkpt><trkpt lat="45.455105521269175" lon="11.527621138476968"><ele>285.3333333333333</ele><time>2026-04-12T08:08:54Z</time></trkpt><trkpt lat="45.455040600076366" lon="11.527563153167021"><ele>285.1666666666667</ele><time>2026-04-12T08:08:55Z</time></trkpt><trkpt lat="45.45495775385658" lon="11.527479324784961"><ele>285.0</ele><time>2026-04-12T08:08:56Z</time></trkpt><trkpt lat="45.454873809970735" lon="11.527427152318836"><ele>285.0</ele><time>2026-04-12T08:08:57Z</time></trkpt><trkpt lat="45.45479184103015" lon="11.527377496485808"><ele>285.0</ele><time>2026-04-12T08:08:58Z</time></trkpt><trkpt lat="45.454709029665864" lon="11.527332263384192"><ele>285.0</ele><time>2026-04-12T08:08:59Z</time></trkpt><trkpt lat="45.45460284733322" lon="11.527286752903048"><ele>285.0</ele><time>2026-04-12T08:09:00Z</time></trkpt><trkpt lat="45.454529338270525" lon="11.527248218588598"><ele>285.0</ele><time>2026-04-12T08:09:01Z</time></trkpt><trkpt lat="45.45447026872854" lon="11.527200355170507"><ele>285.0</ele><time>2026-04-12T08:09:02Z</time></trkpt><trkpt lat="45.45439469270091" lon="11.527133265006539"><ele>281.5</ele><time>2026-04-12T08:09:04Z</time></trkpt><trkpt lat="45.4543193110546" lon="11.527034596832527"><ele>278.0</ele><time>2026-04-12T08:15:27Z</time></trkpt><trkpt lat="45.45421075170598" lon="11.52701194827453"><ele>274.5</ele><time>2026-04-12T08:15:28Z</time></trkpt><trkpt lat="45.45413868128788" lon="11.526980802530046"><ele>271.0</ele><time>2026-04-12T08:15:29Z</time></trkpt><trkpt lat="45.454064595681615" lon="11.5270014922647"><ele>267.5</ele><time>2026-04-12T08:15:30Z</time></trkpt><trkpt lat="45.453991583700024" lon="11.527018207736928"><ele>264.0</ele><time>2026-04-12T08:15:32Z</time></trkpt><trkpt lat="45.45390576043144" lon="11.527009313537828"><ele>264.0</ele><time>2026-04-12T08:15:34Z</time></trkpt><trkpt lat="45.453816432010306" lon="11.527010114754871"><ele>264.0</ele><time>2026-04-12T08:15:36Z</time></trkpt><trkpt lat="45.4537097848806" lon="11.527049726848125"><ele>264.0</ele><time>2026-04-12T08:15:38Z</time></trkpt><trkpt lat="45.453647443356765" lon="11.527072863306053"><ele>264.0</ele><time>2026-04-12T08:15:39Z</time></trkpt><trkpt lat="45.45356588402938" lon="11.527091375632502"><ele>264.0</ele><time>2026-04-12T08:15:40Z</time></trkpt><trkpt lat="45.45346353142367" lon="11.5271108628144"><ele>263.6666666666667</ele><time>2026-04-12T08:15:41Z</time></trkpt><trkpt lat="45.453383727465315" lon="11.527131666705728"><ele>263.3333333333333</ele><time>2026-04-12T08:15:42Z</time></trkpt><trkpt lat="45.453316990258244" lon="11.52716610734955"><ele>263.0</ele><time>2026-04-12T08:15:43Z</time></trkpt><trkpt lat="45.453253050911805" lon="11.527185180608358"><ele>262.66666666666663</ele><time>2026-04-12T08:15:44Z</time></trkpt><trkpt lat="45.45319050206685" lon="11.527157453379324"><ele>262.3333333333333</ele><time>2026-04-12T08:15:45Z</time></trkpt><trkpt lat="45.45307046414163" lon="11.527118818362647"><ele>262.0</ele><time>2026-04-12T08:15:47Z</time></trkpt><trkpt lat="45.45295370288965" lon="11.527080139690778"><ele>262.0</ele><time>2026-04-12T08:15:49Z</time></trkpt><trkpt lat="45.452832010459844" lon="11.52705465157313"><ele>262.0</ele><time>2026-04-12T08:15:51Z</time></trkpt><trkpt lat="45.452723081524034" lon="11.527036147207466"><ele>262.0</ele><time>2026-04-12T08:15:53Z</time></trkpt><trkpt lat="45.45264723536684" lon="11.527051514623539"><ele>262.0</ele><time>2026-04-12T08:15:55Z</time></trkpt><trkpt lat="45.45258612750317" lon="11.527086098466043"><ele>262.0</ele><time>2026-04-12T08:15:56Z</time></trkpt><trkpt lat="45.45252551032298" lon="11.527113533254683"><ele>262.0</ele><time>2026-04-12T08:15:57Z</time></trkpt><trkpt lat="45.45241574744644" lon="11.527148089294986"><ele>262.0</ele><time>2026-04-12T08:15:59Z</time></trkpt><trkpt lat="45.45234380949647" lon="11.527186774686067"><ele>262.0</ele><time>2026-04-12T08:16:01Z</time></trkpt><trkpt lat="45.45226636125182" lon="11.527235034351545"><ele>262.0</ele><time>2026-04-12T08:16:03Z</time></trkpt><trkpt lat="45.45217632607958" lon="11.527263673896064"><ele>262.0</ele><time>2026-04-12T08:16:05Z</time></trkpt><trkpt lat="45.45208664573402" lon="11.527300828267805"><ele>262.0</ele><time>2026-04-12T08:16:07Z</time></trkpt><trkpt lat="45.452002214247855" lon="11.527352806371491"><ele>262.0</ele><time>2026-04-12T08:16:09Z</time></trkpt><trkpt lat="45.451935966044815" lon="11.527374907711222"><ele>258.5</ele><time>2026-04-12T08:16:10Z</time></trkpt><trkpt lat="45.45187683311471" lon="11.527405941923378"><ele>255.0</ele><time>2026-04-12T08:16:11Z</time></trkpt><trkpt lat="45.45177879134118" lon="11.527434246903605"><ele>251.5</ele><time>2026-04-12T08:16:13Z</time></trkpt><trkpt lat="45.45168775070346" lon="11.527470549838998"><ele>248.0</ele><time>2026-04-12T08:16:15Z</time></trkpt><trkpt lat="45.4516050264023" lon="11.52751295538157"><ele>244.49999999999997</ele><time>2026-04-12T08:16:17Z</time></trkpt><trkpt lat="45.45153148182046" lon="11.527552869776766"><ele>241.0</ele><time>2026-04-12T08:16:19Z</time></trkpt><trkpt lat="45.451436793980626" lon="11.527542093256097"><ele>241.0</ele><time>2026-04-12T08:16:21Z</time></trkpt><trkpt lat="45.45132502004282" lon="11.527540547660237"><ele>241.00000000000003</ele><time>2026-04-12T08:16:23Z</time></trkpt><trkpt lat="45.45122807201172" lon="11.527538600299208"><ele>241.00000000000003</ele><time>2026-04-12T08:16:25Z</time></trkpt><trkpt lat="45.451145718539955" lon="11.527542878752525"><ele>241.0</ele><time>2026-04-12T08:16:27Z</time></trkpt><trkpt lat="45.45107384434515" lon="11.527544435520475"><ele>241.0</ele><time>2026-04-12T08:16:29Z</time></trkpt><trkpt lat="45.450976503095745" lon="11.527500996855958"><ele>237.60000000000002</ele><time>2026-04-12T08:16:31Z</time></trkpt><trkpt lat="45.450843226488175" lon="11.527466878857396"><ele>234.20000000000002</ele><time>2026-04-12T08:16:33Z</time></trkpt><trkpt lat="45.45074986469512" lon="11.527437773386712"><ele>230.79999999999998</ele><time>2026-04-12T08:16:35Z</time></trkpt><trkpt lat="45.45064564611246" lon="11.527421050309233"><ele>227.39999999999998</ele><time>2026-04-12T08:16:37Z</time></trkpt><trkpt lat="45.45055249945355" lon="11.527431387097726"><ele>224.0</ele><time>2026-04-12T08:16:39Z</time></trkpt><trkpt lat="45.45047230169835" lon="11.527467070579098"><ele>224.00000000000003</ele><time>2026-04-12T08:16:42Z</time></trkpt><trkpt lat="45.45040823624689" lon="11.527466743677648"><ele>224.0</ele><time>2026-04-12T08:16:45Z</time></trkpt><trkpt lat="45.45041003445738" lon="11.527359575377284"><ele>224.0</ele><time>2026-04-12T08:17:16Z</time></trkpt><trkpt lat="45.450505604276074" lon="11.527307649326115"><ele>224.0</ele><time>2026-04-12T08:17:18Z</time></trkpt><trkpt lat="45.4505696348162" lon="11.527300254758025"><ele>224.00000000000003</ele><time>2026-04-12T08:17:19Z</time></trkpt><trkpt lat="45.450695744818894" lon="11.527224321495426"><ele>224.0</ele><time>2026-04-12T08:17:21Z</time></trkpt><trkpt lat="45.450756934700316" lon="11.527173366146943"><ele>224.0</ele><time>2026-04-12T08:17:22Z</time></trkpt><trkpt lat="45.45080987294999" lon="11.527095499111374"><ele>223.99999999999997</ele><time>2026-04-12T08:17:23Z</time></trkpt><trkpt lat="45.450879572756925" lon="11.526986040540615"><ele>223.99999999999997</ele><time>2026-04-12T08:17:24Z</time></trkpt><trkpt lat="45.45094468766392" lon="11.526900201817506"><ele>224.0</ele><time>2026-04-12T08:17:25Z</time></trkpt><trkpt lat="45.45098222576756" lon="11.526822715929566"><ele>224.0</ele><time>2026-04-12T08:17:26Z</time></trkpt><trkpt lat="45.451054902671565" lon="11.526683059462302"><ele>216.79999999999998</ele><time>2026-04-12T08:17:28Z</time></trkpt><trkpt lat="45.451075710339005" lon="11.526540283436804"><ele>209.59999999999997</ele><time>2026-04-12T08:17:30Z</time></trkpt><trkpt lat="45.45114491451292" lon="11.52642917288951"><ele>202.4</ele><time>2026-04-12T08:17:32Z</time></trkpt><trkpt lat="45.45114187078864" lon="11.526299634864438"><ele>195.2</ele><time>2026-04-12T08:17:34Z</time></trkpt><trkpt lat="45.45105805672935" lon="11.526185180012918"><ele>188.0</ele><time>2026-04-12T08:17:36Z</time></trkpt><trkpt lat="45.45099019502543" lon="11.52609529201061"><ele>188.0</ele><time>2026-04-12T08:17:37Z</time></trkpt><trkpt lat="45.4509089331934" lon="11.52608489405053"><ele>188.0</ele><time>2026-04-12T08:17:38Z</time></trkpt><trkpt lat="45.45083161127648" lon="11.526097107684846"><ele>188.0</ele><time>2026-04-12T08:17:39Z</time></trkpt><trkpt lat="45.45075505317771" lon="11.526117891403636"><ele>188.0</ele><time>2026-04-12T08:17:40Z</time></trkpt><trkpt lat="45.45066661534396" lon="11.526200736237707"><ele>188.0</ele><time>2026-04-12T08:17:42Z</time></trkpt><trkpt lat="45.45060345970045" lon="11.526273512621001"><ele>188.0</ele><time>2026-04-12T08:17:44Z</time></trkpt><trkpt lat="45.45056153691317" lon="11.526359133689247"><ele>188.0</ele><time>2026-04-12T08:17:48Z</time></trkpt><trkpt lat="45.450560486051906" lon="11.526538514364189"><ele>188.0</ele><time>2026-04-12T08:17:50Z</time></trkpt><trkpt lat="45.450546804838176" lon="11.526626658371818"><ele>188.0</ele><time>2026-04-12T08:17:51Z</time></trkpt><trkpt lat="45.45050484028595" lon="11.526716900517043"><ele>188.0</ele><time>2026-04-12T08:17:53Z</time></trkpt><trkpt lat="45.450447767868994" lon="11.526763548499664"><ele>188.0</ele><time>2026-04-12T08:17:56Z</time></trkpt><trkpt lat="45.450374890695855" lon="11.526748979751844"><ele>188.0</ele><time>2026-04-12T08:18:02Z</time></trkpt><trkpt lat="45.45026184964233" lon="11.526723760792894"><ele>182.60000000000002</ele><time>2026-04-12T08:18:05Z</time></trkpt><trkpt lat="45.45016598829197" lon="11.526671151335456"><ele>177.20000000000002</ele><time>2026-04-12T08:18:07Z</time></trkpt><trkpt lat="45.45007563801103" lon="11.52664235118647"><ele>171.8</ele><time>2026-04-12T08:18:09Z</time></trkpt><trkpt lat="45.449973613828945" lon="11.526630777846096"><ele>166.4</ele><time>2026-04-12T08:18:11Z</time></trkpt><trkpt lat="45.44987218804496" lon="11.526621969590762"><ele>161.0</ele><time>2026-04-12T08:18:13Z</time></trkpt><trkpt lat="45.449804282733226" lon="11.526654429792506"><ele>161.0</ele><time>2026-04-12T08:18:14Z</time></trkpt><trkpt lat="45.44972596117995" lon="11.52669824434551"><ele>161.0</ele><time>2026-04-12T08:18:15Z</time></trkpt><trkpt lat="45.449656379654705" lon="11.526718075669457"><ele>161.0</ele><time>2026-04-12T08:18:16Z</time></trkpt><trkpt lat="45.44958023749804" lon="11.52673569209935"><ele>161.0</ele><time>2026-04-12T08:18:17Z</time></trkpt><trkpt lat="45.44945962944266" lon="11.52675365386357"><ele>161.0</ele><time>2026-04-12T08:18:19Z</time></trkpt><trkpt lat="45.4493679779209" lon="11.526715308768281"><ele>161.0</ele><time>2026-04-12T08:18:22Z</time></trkpt><trkpt lat="45.44931015370258" lon="11.526660732398346"><ele>161.0</ele><time>2026-04-12T08:18:23Z</time></trkpt><trkpt lat="45.44927803579811" lon="11.526574511360808"><ele>161.0</ele><time>2026-04-12T08:18:25Z</time></trkpt><trkpt lat="45.44933898015235" lon="11.5266103836335"><ele>161.0</ele><time>2026-04-12T08:18:29Z</time></trkpt><trkpt lat="45.44943919221761" lon="11.526621980547121"><ele>161.0</ele><time>2026-04-12T08:18:30Z</time></trkpt><trkpt lat="45.449513133190266" lon="11.526609136287204"><ele>161.0</ele><time>2026-04-12T08:18:31Z</time></trkpt><trkpt lat="45.449609064823456" lon="11.526498479786826"><ele>161.0</ele><time>2026-04-12T08:18:33Z</time></trkpt><trkpt lat="45.449661269390255" lon="11.526431733708726"><ele>161.0</ele><time>2026-04-12T08:18:34Z</time></trkpt><trkpt lat="45.4497252911014" lon="11.526376796355787"><ele>161.0</ele><time>2026-04-12T08:18:35Z</time></trkpt><trkpt lat="45.44977620965164" lon="11.526313914311741"><ele>161.0</ele><time>2026-04-12T08:18:36Z</time></trkpt><trkpt lat="45.4498536477089" lon="11.526206502125923"><ele>161.0</ele><time>2026-04-12T08:18:38Z</time></trkpt><trkpt lat="45.449901215219306" lon="11.526124592175524"><ele>161.0</ele><time>2026-04-12T08:18:39Z</time></trkpt><trkpt lat="45.4499389942275" lon="11.525987379951541"><ele>161.0</ele><time>2026-04-12T08:18:41Z</time></trkpt><trkpt lat="45.44998208080966" lon="11.525881835931763"><ele>158.28571428571428</ele><time>2026-04-12T08:18:43Z</time></trkpt><trkpt lat="45.45000344324277" lon="11.525794011522315"><ele>155.57142857142856</ele><time>2026-04-12T08:18:44Z</time></trkpt><trkpt lat="45.45001899689429" lon="11.525692720475854"><ele>152.85714285714286</ele><time>2026-04-12T08:18:45Z</time></trkpt><trkpt lat="45.45004039568794" lon="11.525586743888965"><ele>150.14285714285714</ele><time>2026-04-12T08:18:46Z</time></trkpt><trkpt lat="45.450065590474125" lon="11.525489493568791"><ele>147.42857142857142</ele><time>2026-04-12T08:18:47Z</time></trkpt><trkpt lat="45.45009601312505" lon="11.525391596971582"><ele>144.71428571428572</ele><time>2026-04-12T08:18:48Z</time></trkpt><trkpt lat="45.450126979376286" lon="11.525303047091281"><ele>142.0</ele><time>2026-04-12T08:18:49Z</time></trkpt><trkpt lat="45.45016589131862" lon="11.525209327813753"><ele>139.6</ele><time>2026-04-12T08:18:50Z</time></trkpt><trkpt lat="45.45019602022978" lon="11.525074371662708"><ele>137.2</ele><time>2026-04-12T08:18:51Z</time></trkpt><trkpt lat="45.450221235910284" lon="11.524956204403574"><ele>134.8</ele><time>2026-04-12T08:18:52Z</time></trkpt><trkpt lat="45.450261207812154" lon="11.524832380492695"><ele>132.4</ele><time>2026-04-12T08:18:53Z</time></trkpt><trkpt lat="45.45029857623847" lon="11.524726806131572"><ele>130.0</ele><time>2026-04-12T08:18:54Z</time></trkpt><trkpt lat="45.450345924834544" lon="11.524590309328666"><ele>127.8</ele><time>2026-04-12T08:18:56Z</time></trkpt><trkpt lat="45.45038278081217" lon="11.524439946710704"><ele>125.6</ele><time>2026-04-12T08:18:58Z</time></trkpt><trkpt lat="45.45040450402319" lon="11.524342232539869"><ele>123.4</ele><time>2026-04-12T08:18:59Z</time></trkpt><trkpt lat="45.450423994158434" lon="11.52417392286764"><ele>121.2</ele><time>2026-04-12T08:19:01Z</time></trkpt><trkpt lat="45.45041385593277" lon="11.523999945561416"><ele>119.0</ele><time>2026-04-12T08:19:03Z</time></trkpt><trkpt lat="45.45041975402719" lon="11.523884175696558"><ele>118.99999999999999</ele><time>2026-04-12T08:19:05Z</time></trkpt><trkpt lat="45.45042381407321" lon="11.523774543516542"><ele>119.0</ele><time>2026-04-12T08:19:08Z</time></trkpt><trkpt lat="45.450445289448375" lon="11.52366354102604"><ele>119.0</ele><time>2026-04-12T08:19:10Z</time></trkpt><trkpt lat="45.45043517405026" lon="11.523554807931676"><ele>119.0</ele><time>2026-04-12T08:19:12Z</time></trkpt><trkpt lat="45.4504325338531" lon="11.523394972240707"><ele>118.99999999999999</ele><time>2026-04-12T08:19:14Z</time></trkpt><trkpt lat="45.450434760560945" lon="11.523276314403168"><ele>119.0</ele><time>2026-04-12T08:19:16Z</time></trkpt><trkpt lat="45.45041026887094" lon="11.523150276593071"><ele>116.80000000000001</ele><time>2026-04-12T08:19:18Z</time></trkpt><trkpt lat="45.45031567109401" lon="11.523106697514121"><ele>114.60000000000001</ele><time>2026-04-12T08:19:20Z</time></trkpt><trkpt lat="45.45022092304915" lon="11.523083252691427"><ele>112.4</ele><time>2026-04-12T08:19:22Z</time></trkpt><trkpt lat="45.45017581921449" lon="11.52300115944888"><ele>110.2</ele><time>2026-04-12T08:19:24Z</time></trkpt><trkpt lat="45.450215253206075" lon="11.522899624221072"><ele>108.0</ele><time>2026-04-12T08:19:26Z</time></trkpt><trkpt lat="45.45032226369865" lon="11.52285799910309"><ele>108.0</ele><time>2026-04-12T08:19:28Z</time></trkpt><trkpt lat="45.450422892954215" lon="11.52275871473463"><ele>108.00000000000001</ele><time>2026-04-12T08:19:30Z</time></trkpt><trkpt lat="45.450518514704264" lon="11.522697165206104"><ele>108.00000000000001</ele><time>2026-04-12T08:19:31Z</time></trkpt><trkpt lat="45.45061630702025" lon="11.522653003533119"><ele>108.0</ele><time>2026-04-12T08:19:32Z</time></trkpt><trkpt lat="45.45071517231725" lon="11.522611486019727"><ele>108.0</ele><time>2026-04-12T08:19:33Z</time></trkpt><trkpt lat="45.45081851505701" lon="11.522565835596167"><ele>109.25</ele><time>2026-04-12T08:19:34Z</time></trkpt><trkpt lat="45.45097383052882" lon="11.52250775681097"><ele>110.5</ele><time>2026-04-12T08:19:35Z</time></trkpt><trkpt lat="45.451104621033544" lon="11.522463037905036"><ele>111.75</ele><time>2026-04-12T08:19:36Z</time></trkpt><trkpt lat="45.451219967622436" lon="11.522430071391161"><ele>113.0</ele><time>2026-04-12T08:19:37Z</time></trkpt><trkpt lat="45.451335041429395" lon="11.52239943024436"><ele>113.0</ele><time>2026-04-12T08:19:38Z</time></trkpt><trkpt lat="45.45145732118428" lon="11.522397403178868"><ele>113.0</ele><time>2026-04-12T08:19:39Z</time></trkpt><trkpt lat="45.45157961723589" lon="11.522357348300293"><ele>113.0</ele><time>2026-04-12T08:19:40Z</time></trkpt><trkpt lat="45.45168307245597" lon="11.522324461098554"><ele>113.0</ele><time>2026-04-12T08:19:41Z</time></trkpt><trkpt lat="45.451787481271666" lon="11.522302180366747"><ele>113.0</ele><time>2026-04-12T08:19:42Z</time></trkpt><trkpt lat="45.45189162189337" lon="11.522272875144408"><ele>113.00000000000001</ele><time>2026-04-12T08:19:43Z</time></trkpt><trkpt lat="45.45199686775399" lon="11.522247083572232"><ele>113.00000000000001</ele><time>2026-04-12T08:19:44Z</time></trkpt><trkpt lat="45.45208847795331" lon="11.522227766632888"><ele>113.0</ele><time>2026-04-12T08:19:45Z</time></trkpt><trkpt lat="45.45219336101994" lon="11.522238587002988"><ele>113.0</ele><time>2026-04-12T08:19:46Z</time></trkpt><trkpt lat="45.4522963989506" lon="11.522232479359777"><ele>112.80000000000001</ele><time>2026-04-12T08:19:47Z</time></trkpt><trkpt lat="45.45240113405672" lon="11.522224111367613"><ele>112.60000000000001</ele><time>2026-04-12T08:19:48Z</time></trkpt><trkpt lat="45.45248891382441" lon="11.522207837838957"><ele>112.39999999999999</ele><time>2026-04-12T08:19:49Z</time></trkpt><trkpt lat="45.45257075649003" lon="11.522201305014967"><ele>112.19999999999999</ele><time>2026-04-12T08:19:50Z</time></trkpt><trkpt lat="45.45267602722508" lon="11.522186253503245"><ele>112.0</ele><time>2026-04-12T08:19:51Z</time></trkpt><trkpt lat="45.45277332009013" lon="11.522193333957205"><ele>112.0</ele><time>2026-04-12T08:19:52Z</time></trkpt><trkpt lat="45.45286124805561" lon="11.522213744512728"><ele>111.99999999999999</ele><time>2026-04-12T08:19:53Z</time></trkpt><trkpt lat="45.452942160620715" lon="11.522243124979385"><ele>111.99999999999999</ele><time>2026-04-12T08:19:54Z</time></trkpt><trkpt lat="45.45302380304108" lon="11.52227907437815"><ele>112.0</ele><time>2026-04-12T08:19:55Z</time></trkpt><trkpt lat="45.453140058361406" lon="11.522381421039007"><ele>112.0</ele><time>2026-04-12T08:19:57Z</time></trkpt><trkpt lat="45.45320265658115" lon="11.52244633829381"><ele>112.33333333333334</ele><time>2026-04-12T08:19:58Z</time></trkpt><trkpt lat="45.45326762847743" lon="11.522525470851809"><ele>112.66666666666667</ele><time>2026-04-12T08:19:59Z</time></trkpt><trkpt lat="45.45333506255136" lon="11.522558230342124"><ele>113.0</ele><time>2026-04-12T08:20:00Z</time></trkpt><trkpt lat="45.45339485019469" lon="11.522593878364097"><ele>113.33333333333334</ele><time>2026-04-12T08:20:01Z</time></trkpt><trkpt lat="45.453492005432125" lon="11.522630254452869"><ele>113.66666666666667</ele><time>2026-04-12T08:20:03Z</time></trkpt><trkpt lat="45.45356374928732" lon="11.522585425208003"><ele>114.0</ele><time>2026-04-12T08:20:04Z</time></trkpt><trkpt lat="45.453656447378606" lon="11.522513557466148"><ele>114.0</ele><time>2026-04-12T08:20:05Z</time></trkpt><trkpt lat="45.453754444019225" lon="11.522452601400111"><ele>114.0</ele><time>2026-04-12T08:20:06Z</time></trkpt><trkpt lat="45.45384889594528" lon="11.52240402053773"><ele>114.0</ele><time>2026-04-12T08:20:07Z</time></trkpt><trkpt lat="45.45395058052096" lon="11.522348624041172"><ele>114.0</ele><time>2026-04-12T08:20:08Z</time></trkpt><trkpt lat="45.454047112709915" lon="11.522337778000393"><ele>114.0</ele><time>2026-04-12T08:20:09Z</time></trkpt><trkpt lat="45.45415317419672" lon="11.522296523605204"><ele>112.83333333333333</ele><time>2026-04-12T08:20:10Z</time></trkpt><trkpt lat="45.45425469462283" lon="11.522251641934336"><ele>111.66666666666666</ele><time>2026-04-12T08:20:11Z</time></trkpt><trkpt lat="45.45432864322686" lon="11.522237204378907"><ele>110.5</ele><time>2026-04-12T08:20:12Z</time></trkpt><trkpt lat="45.45439555451234" lon="11.52230313490508"><ele>109.33333333333333</ele><time>2026-04-12T08:20:21Z</time></trkpt><trkpt lat="45.45445885848843" lon="11.52231541869125"><ele>108.16666666666666</ele><time>2026-04-12T08:20:23Z</time></trkpt><trkpt lat="45.454564178088496" lon="11.522341728904298"><ele>107.0</ele><time>2026-04-12T08:20:26Z</time></trkpt><trkpt lat="45.45471923247231" lon="11.522358097820025"><ele>106.49999999999999</ele><time>2026-04-12T08:20:29Z</time></trkpt><trkpt lat="45.45479238169297" lon="11.522366467936559"><ele>106.0</ele><time>2026-04-12T08:20:30Z</time></trkpt><trkpt lat="45.45486170295152" lon="11.52237604681489"><ele>105.5</ele><time>2026-04-12T08:20:31Z</time></trkpt><trkpt lat="45.45494443723458" lon="11.522389673030492"><ele>105.0</ele><time>2026-04-12T08:20:33Z</time></trkpt><trkpt lat="45.45501821624098" lon="11.52248807404981"><ele>104.49999999999999</ele><time>2026-04-12T08:20:45Z</time></trkpt><trkpt lat="45.45508798550821" lon="11.522584921584578"><ele>104.0</ele><time>2026-04-12T08:20:47Z</time></trkpt><trkpt lat="45.45512675743632" lon="11.522656599057164"><ele>104.0</ele><time>2026-04-12T08:20:48Z</time></trkpt><trkpt lat="45.455154882157395" lon="11.522738875003679"><ele>104.0</ele><time>2026-04-12T08:20:49Z</time></trkpt><trkpt lat="45.45518177218913" lon="11.522832915567022"><ele>104.0</ele><time>2026-04-12T08:20:50Z</time></trkpt><trkpt lat="45.45522102596228" lon="11.522917782576647"><ele>104.0</ele><time>2026-04-12T08:20:51Z</time></trkpt><trkpt lat="45.4552723249545" lon="11.522993878744835"><ele>104.0</ele><time>2026-04-12T08:20:52Z</time></trkpt><trkpt lat="45.45533569275798" lon="11.523026326445985"><ele>104.0</ele><time>2026-04-12T08:20:53Z</time></trkpt><trkpt lat="45.455416129738055" lon="11.523012750481326"><ele>104.0</ele><time>2026-04-12T08:20:54Z</time></trkpt><trkpt lat="45.45550827153863" lon="11.522983614389462"><ele>101.2</ele><time>2026-04-12T08:20:55Z</time></trkpt><trkpt lat="45.455611066611354" lon="11.522944967964277"><ele>98.4</ele><time>2026-04-12T08:20:56Z</time></trkpt><trkpt lat="45.455703913329124" lon="11.522911587649611"><ele>95.6</ele><time>2026-04-12T08:20:57Z</time></trkpt><trkpt lat="45.45579626408292" lon="11.522903565011315"><ele>92.8</ele><time>2026-04-12T08:20:58Z</time></trkpt><trkpt lat="45.45588014296698" lon="11.52291066449172"><ele>90.0</ele><time>2026-04-12T08:20:59Z</time></trkpt><trkpt lat="45.455966306842804" lon="11.52291903188011"><ele>90.0</ele><time>2026-04-12T08:21:00Z</time></trkpt><trkpt lat="45.456051346974625" lon="11.522921750227287"><ele>90.0</ele><time>2026-04-12T08:21:01Z</time></trkpt><trkpt lat="45.45614001818713" lon="11.522901170923031"><ele>90.0</ele><time>2026-04-12T08:21:02Z</time></trkpt><trkpt lat="45.456233154085474" lon="11.522859316516328"><ele>90.0</ele><time>2026-04-12T08:21:03Z</time></trkpt><trkpt lat="45.45634969020275" lon="11.522806201694687"><ele>90.0</ele><time>2026-04-12T08:21:04Z</time></trkpt><trkpt lat="45.4564582304992" lon="11.522793003624624"><ele>90.0</ele><time>2026-04-12T08:21:05Z</time></trkpt><trkpt lat="45.4565582762472" lon="11.52279231004467"><ele>90.0</ele><time>2026-04-12T08:21:06Z</time></trkpt><trkpt lat="45.45664961729833" lon="11.522788697513496"><ele>90.0</ele><time>2026-04-12T08:21:07Z</time></trkpt><trkpt lat="45.45672402303677" lon="11.522770513960884"><ele>90.0</ele><time>2026-04-12T08:21:08Z</time></trkpt><trkpt lat="45.45679171959205" lon="11.522733853093536"><ele>90.0</ele><time>2026-04-12T08:21:09Z</time></trkpt><trkpt lat="45.45686822727245" lon="11.522664382451767"><ele>90.0</ele><time>2026-04-12T08:21:10Z</time></trkpt><trkpt lat="45.456940451903236" lon="11.522571649001017"><ele>90.0</ele><time>2026-04-12T08:21:11Z</time></trkpt><trkpt lat="45.457027543805054" lon="11.522502515789457"><ele>90.0</ele><time>2026-04-12T08:21:12Z</time></trkpt><trkpt lat="45.45712450122667" lon="11.522450194610686"><ele>90.0</ele><time>2026-04-12T08:21:13Z</time></trkpt><trkpt lat="45.457228537863195" lon="11.522417019171119"><ele>90.0</ele><time>2026-04-12T08:21:14Z</time></trkpt><trkpt lat="45.45734245171265" lon="11.52238975720397"><ele>90.0</ele><time>2026-04-12T08:21:15Z</time></trkpt><trkpt lat="45.45744184613086" lon="11.522342936550022"><ele>88.0</ele><time>2026-04-12T08:21:16Z</time></trkpt><trkpt lat="45.45754215536207" lon="11.522284881973107"><ele>86.0</ele><time>2026-04-12T08:21:17Z</time></trkpt><trkpt lat="45.45764193337141" lon="11.522216738933226"><ele>84.0</ele><time>2026-04-12T08:21:18Z</time></trkpt><trkpt lat="45.45773591803723" lon="11.522131783093192"><ele>82.0</ele><time>2026-04-12T08:21:19Z</time></trkpt><trkpt lat="45.45783288000165" lon="11.522045938629272"><ele>80.0</ele><time>2026-04-12T08:21:20Z</time></trkpt><trkpt lat="45.45793099288333" lon="11.521945491396213"><ele>79.75</ele><time>2026-04-12T08:21:21Z</time></trkpt><trkpt lat="45.45802691638033" lon="11.521857358217833"><ele>79.5</ele><time>2026-04-12T08:21:22Z</time></trkpt><trkpt lat="45.45812479459537" lon="11.52176069112397"><ele>79.25</ele><time>2026-04-12T08:21:23Z</time></trkpt><trkpt lat="45.45821537705848" lon="11.521658086817043"><ele>79.0</ele><time>2026-04-12T08:21:24Z</time></trkpt><trkpt lat="45.45830715567742" lon="11.521541516911066"><ele>79.0</ele><time>2026-04-12T08:21:25Z</time></trkpt><trkpt lat="45.45841052580827" lon="11.521428735200125"><ele>79.0</ele><time>2026-04-12T08:21:26Z</time></trkpt><trkpt lat="45.45850644678566" lon="11.521316204524474"><ele>79.0</ele><time>2026-04-12T08:21:27Z</time></trkpt><trkpt lat="45.458598708661135" lon="11.521183168248253"><ele>79.0</ele><time>2026-04-12T08:21:28Z</time></trkpt><trkpt lat="45.45868735385385" lon="11.521050236627538"><ele>76.75</ele><time>2026-04-12T08:21:29Z</time></trkpt><trkpt lat="45.45878562525627" lon="11.520949038869107"><ele>74.5</ele><time>2026-04-12T08:21:30Z</time></trkpt><trkpt lat="45.458883652843646" lon="11.520823571703145"><ele>72.25</ele><time>2026-04-12T08:21:31Z</time></trkpt><trkpt lat="45.458972167258445" lon="11.52068500321744"><ele>70.0</ele><time>2026-04-12T08:21:32Z</time></trkpt><trkpt lat="45.45908077923284" lon="11.520575074542606"><ele>70.0</ele><time>2026-04-12T08:21:33Z</time></trkpt><trkpt lat="45.459192423955464" lon="11.520473476793656"><ele>70.0</ele><time>2026-04-12T08:21:34Z</time></trkpt><trkpt lat="45.459302203317044" lon="11.520400225102486"><ele>70.0</ele><time>2026-04-12T08:21:35Z</time></trkpt><trkpt lat="45.4594113309794" lon="11.520328078799125"><ele>70.0</ele><time>2026-04-12T08:21:36Z</time></trkpt><trkpt lat="45.4595135585253" lon="11.520238647419434"><ele>68.0</ele><time>2026-04-12T08:21:37Z</time></trkpt><trkpt lat="45.45960786208171" lon="11.520128815362808"><ele>66.0</ele><time>2026-04-12T08:21:38Z</time></trkpt><trkpt lat="45.45969761177084" lon="11.520011042589772"><ele>64.0</ele><time>2026-04-12T08:21:39Z</time></trkpt><trkpt lat="45.45977840263301" lon="11.51988030331014"><ele>62.0</ele><time>2026-04-12T08:21:40Z</time></trkpt><trkpt lat="45.459851290666755" lon="11.51974819156731"><ele>62.0</ele><time>2026-04-12T08:21:41Z</time></trkpt><trkpt lat="45.45991816187906" lon="11.51961088090011"><ele>62.0</ele><time>2026-04-12T08:21:42Z</time></trkpt><trkpt lat="45.459987177226175" lon="11.519469045360298"><ele>62.0</ele><time>2026-04-12T08:21:43Z</time></trkpt><trkpt lat="45.4600610670767" lon="11.51933932388392"><ele>62.0</ele><time>2026-04-12T08:21:44Z</time></trkpt><trkpt lat="45.4601385489705" lon="11.519212458469665"><ele>60.75</ele><time>2026-04-12T08:21:45Z</time></trkpt><trkpt lat="45.46021890443656" lon="11.519087134028036"><ele>59.5</ele><time>2026-04-12T08:21:46Z</time></trkpt><trkpt lat="45.46030205238244" lon="11.518966844815779"><ele>58.25</ele><time>2026-04-12T08:21:47Z</time></trkpt><trkpt lat="45.46039034962891" lon="11.51886164070965"><ele>57.0</ele><time>2026-04-12T08:21:48Z</time></trkpt><trkpt lat="45.46047795188479" lon="11.518762937025325"><ele>59.25</ele><time>2026-04-12T08:21:49Z</time></trkpt><trkpt lat="45.46056796798117" lon="11.518670653820205"><ele>61.5</ele><time>2026-04-12T08:21:50Z</time></trkpt><trkpt lat="45.46065529508084" lon="11.518574194635056"><ele>63.75</ele><time>2026-04-12T08:21:51Z</time></trkpt><trkpt lat="45.460743810952174" lon="11.518475621739517"><ele>66.0</ele><time>2026-04-12T08:21:52Z</time></trkpt><trkpt lat="45.46084215319048" lon="11.51838040850404"><ele>66.0</ele><time>2026-04-12T08:21:53Z</time></trkpt><trkpt lat="45.46093674846488" lon="11.518278547159996"><ele>66.0</ele><time>2026-04-12T08:21:54Z</time></trkpt><trkpt lat="45.46103326345138" lon="11.518182427177251"><ele>66.0</ele><time>2026-04-12T08:21:55Z</time></trkpt><trkpt lat="45.461130170656205" lon="11.518090664061326"><ele>66.0</ele><time>2026-04-12T08:21:56Z</time></trkpt><trkpt lat="45.46122598348551" lon="11.517992227554695"><ele>65.5</ele><time>2026-04-12T08:21:57Z</time></trkpt><trkpt lat="45.461319643755196" lon="11.517893749539262"><ele>65.0</ele><time>2026-04-12T08:21:58Z</time></trkpt><trkpt lat="45.46140963171213" lon="11.517784453892626"><ele>64.5</ele><time>2026-04-12T08:21:59Z</time></trkpt><trkpt lat="45.46148866729386" lon="11.517657466923781"><ele>64.0</ele><time>2026-04-12T08:22:00Z</time></trkpt><trkpt lat="45.46156369318948" lon="11.517524390616833"><ele>64.0</ele><time>2026-04-12T08:22:01Z</time></trkpt><trkpt lat="45.46164459387519" lon="11.517398293975186"><ele>64.0</ele><time>2026-04-12T08:22:02Z</time></trkpt><trkpt lat="45.461725723367" lon="11.5172754522385"><ele>64.0</ele><time>2026-04-12T08:22:03Z</time></trkpt><trkpt lat="45.46180462658635" lon="11.517147318790638"><ele>64.0</ele><time>2026-04-12T08:22:04Z</time></trkpt><trkpt lat="45.46187751847141" lon="11.517011966257064"><ele>60.75</ele><time>2026-04-12T08:22:05Z</time></trkpt><trkpt lat="45.461947782914685" lon="11.51687490392139"><ele>57.5</ele><time>2026-04-12T08:22:06Z</time></trkpt><trkpt lat="45.46201676460004" lon="11.516737749562155"><ele>54.25</ele><time>2026-04-12T08:22:07Z</time></trkpt><trkpt lat="45.462089248583595" lon="11.51661682509759"><ele>51.0</ele><time>2026-04-12T08:22:08Z</time></trkpt><trkpt lat="45.462173862309456" lon="11.516532325762034"><ele>51.0</ele><time>2026-04-12T08:22:09Z</time></trkpt><trkpt lat="45.462276872830095" lon="11.516476936119819"><ele>51.0</ele><time>2026-04-12T08:22:10Z</time></trkpt><trkpt lat="45.462383025056184" lon="11.51643242186422"><ele>51.0</ele><time>2026-04-12T08:22:11Z</time></trkpt><trkpt lat="45.46248911819383" lon="11.51637205915436"><ele>51.0</ele><time>2026-04-12T08:22:12Z</time></trkpt><trkpt lat="45.46259145874588" lon="11.516294632066037"><ele>52.5</ele><time>2026-04-12T08:22:13Z</time></trkpt><trkpt lat="45.462694493629215" lon="11.516220471820379"><ele>54.0</ele><time>2026-04-12T08:22:14Z</time></trkpt><trkpt lat="45.462797728614255" lon="11.516148732806586"><ele>55.5</ele><time>2026-04-12T08:22:15Z</time></trkpt><trkpt lat="45.46290072540136" lon="11.516082280237631"><ele>57.0</ele><time>2026-04-12T08:22:16Z</time></trkpt><trkpt lat="45.46300508988976" lon="11.51601401303559"><ele>57.0</ele><time>2026-04-12T08:22:17Z</time></trkpt><trkpt lat="45.463108308609655" lon="11.5159421771822"><ele>57.0</ele><time>2026-04-12T08:22:18Z</time></trkpt><trkpt lat="45.463213060926755" lon="11.515861697076161"><ele>57.0</ele><time>2026-04-12T08:22:19Z</time></trkpt><trkpt lat="45.46331961597817" lon="11.51578696003603"><ele>57.0</ele><time>2026-04-12T08:22:20Z</time></trkpt><trkpt lat="45.463426024695316" lon="11.515717402322743"><ele>57.0</ele><time>2026-04-12T08:22:21Z</time></trkpt><trkpt lat="45.46353631800961" lon="11.515649757857375"><ele>57.0</ele><time>2026-04-12T08:22:22Z</time></trkpt><trkpt lat="45.46364741714802" lon="11.515578862494214"><ele>57.0</ele><time>2026-04-12T08:22:23Z</time></trkpt><trkpt lat="45.463759567211156" lon="11.515514119183013"><ele>57.0</ele><time>2026-04-12T08:22:24Z</time></trkpt><trkpt lat="45.46387449467052" lon="11.515453592277076"><ele>57.75</ele><time>2026-04-12T08:22:25Z</time></trkpt><trkpt lat="45.463990954318966" lon="11.515392124122641"><ele>58.5</ele><time>2026-04-12T08:22:26Z</time></trkpt><trkpt lat="45.46410728707357" lon="11.515329837767286"><ele>59.25</ele><time>2026-04-12T08:22:27Z</time></trkpt><trkpt lat="45.46422509042177" lon="11.515270683537402"><ele>60.0</ele><time>2026-04-12T08:22:28Z</time></trkpt><trkpt lat="45.464347232070885" lon="11.515237119203997"><ele>60.0</ele><time>2026-04-12T08:22:29Z</time></trkpt><trkpt lat="45.46446568172297" lon="11.515197103883635"><ele>60.0</ele><time>2026-04-12T08:22:30Z</time></trkpt><trkpt lat="45.46458657740234" lon="11.515167726782007"><ele>60.0</ele><time>2026-04-12T08:22:31Z</time></trkpt><trkpt lat="45.4646979790405" lon="11.515127201603757"><ele>60.0</ele><time>2026-04-12T08:22:32Z</time></trkpt><trkpt lat="45.46481895471469" lon="11.515079910593393"><ele>55.25</ele><time>2026-04-12T08:22:33Z</time></trkpt><trkpt lat="45.46493667154961" lon="11.51502981212242"><ele>50.5</ele><time>2026-04-12T08:22:34Z</time></trkpt><trkpt lat="45.46504521284364" lon="11.514952903869805"><ele>45.75</ele><time>2026-04-12T08:22:35Z</time></trkpt><trkpt lat="45.46514934274762" lon="11.514866393252964"><ele>41.0</ele><time>2026-04-12T08:22:36Z</time></trkpt><trkpt lat="45.465246693844875" lon="11.514754739694782"><ele>41.0</ele><time>2026-04-12T08:22:37Z</time></trkpt><trkpt lat="45.465332905519894" lon="11.514631803852811"><ele>41.0</ele><time>2026-04-12T08:22:38Z</time></trkpt><trkpt lat="45.46539728787705" lon="11.514479283309678"><ele>41.0</ele><time>2026-04-12T08:22:39Z</time></trkpt><trkpt lat="45.465477749758" lon="11.514352939932362"><ele>41.0</ele><time>2026-04-12T08:22:40Z</time></trkpt><trkpt lat="45.4655506703129" lon="11.51422384424572"><ele>41.599999999999994</ele><time>2026-04-12T08:22:41Z</time></trkpt><trkpt lat="45.46564437062581" lon="11.514137279991374"><ele>42.2</ele><time>2026-04-12T08:22:42Z</time></trkpt><trkpt lat="45.4657327960659" lon="11.514044362924016"><ele>42.8</ele><time>2026-04-12T08:22:43Z</time></trkpt><trkpt lat="45.46582142575338" lon="11.513946831329358"><ele>43.400000000000006</ele><time>2026-04-12T08:22:44Z</time></trkpt><trkpt lat="45.46590895717248" lon="11.5138467050237"><ele>44.0</ele><time>2026-04-12T08:22:45Z</time></trkpt><trkpt lat="45.46600022454722" lon="11.513751674044228"><ele>43.5</ele><time>2026-04-12T08:22:46Z</time></trkpt><trkpt lat="45.46608361682465" lon="11.51363609954039"><ele>43.0</ele><time>2026-04-12T08:22:47Z</time></trkpt><trkpt lat="45.46617688899985" lon="11.513544296662973"><ele>42.5</ele><time>2026-04-12T08:22:48Z</time></trkpt><trkpt lat="45.46626641502385" lon="11.513437897904424"><ele>42.0</ele><time>2026-04-12T08:22:49Z</time></trkpt><trkpt lat="45.46635224426065" lon="11.513322203929091"><ele>42.0</ele><time>2026-04-12T08:22:50Z</time></trkpt><trkpt lat="45.46644495806116" lon="11.513218077960714"><ele>42.0</ele><time>2026-04-12T08:22:51Z</time></trkpt><trkpt lat="45.46654254309745" lon="11.513127393656676"><ele>42.0</ele><time>2026-04-12T08:22:52Z</time></trkpt><trkpt lat="45.466641339604266" lon="11.513042505967684"><ele>42.0</ele><time>2026-04-12T08:22:53Z</time></trkpt><trkpt lat="45.46673605562497" lon="11.512954962209225"><ele>41.2</ele><time>2026-04-12T08:22:54Z</time></trkpt><trkpt lat="45.46682340712115" lon="11.512856764712916"><ele>40.400000000000006</ele><time>2026-04-12T08:22:55Z</time></trkpt><trkpt lat="45.46691205294287" lon="11.512767021362626"><ele>39.599999999999994</ele><time>2026-04-12T08:22:56Z</time></trkpt><trkpt lat="45.466988774929625" lon="11.512656097613487"><ele>38.8</ele><time>2026-04-12T08:22:57Z</time></trkpt><trkpt lat="45.46706348877964" lon="11.512536589564409"><ele>38.0</ele><time>2026-04-12T08:22:58Z</time></trkpt><trkpt lat="45.467127072166576" lon="11.512417176026931"><ele>38.0</ele><time>2026-04-12T08:22:59Z</time></trkpt><trkpt lat="45.46718880916119" lon="11.512314228422133"><ele>38.0</ele><time>2026-04-12T08:23:00Z</time></trkpt><trkpt lat="45.467259968948376" lon="11.512235223017303"><ele>38.0</ele><time>2026-04-12T08:23:01Z</time></trkpt><trkpt lat="45.46733181875713" lon="11.512170528471579"><ele>38.0</ele><time>2026-04-12T08:23:02Z</time></trkpt><trkpt lat="45.46740260318799" lon="11.512112365557586"><ele>38.0</ele><time>2026-04-12T08:23:03Z</time></trkpt><trkpt lat="45.46747468175568" lon="11.512061668022156"><ele>38.0</ele><time>2026-04-12T08:23:04Z</time></trkpt><trkpt lat="45.46754509020827" lon="11.512018619702296"><ele>37.666666666666664</ele><time>2026-04-12T08:23:05Z</time></trkpt><trkpt lat="45.467614057114986" lon="11.511980751242804"><ele>37.33333333333333</ele><time>2026-04-12T08:23:06Z</time></trkpt><trkpt lat="45.467679308408414" lon="11.511941357466219"><ele>37.0</ele><time>2026-04-12T08:23:07Z</time></trkpt><trkpt lat="45.467741390278064" lon="11.511902929861863"><ele>36.666666666666664</ele><time>2026-04-12T08:23:08Z</time></trkpt><trkpt lat="45.46779780940469" lon="11.511861187344637"><ele>36.333333333333336</ele><time>2026-04-12T08:23:09Z</time></trkpt><trkpt lat="45.46791206848848" lon="11.51177888773543"><ele>36.0</ele><time>2026-04-12T08:23:11Z</time></trkpt><trkpt lat="45.46797403836961" lon="11.51173381300579"><ele>36.0</ele><time>2026-04-12T08:23:12Z</time></trkpt><trkpt lat="45.46803558124883" lon="11.511711843779004"><ele>36.0</ele><time>2026-04-12T08:23:13Z</time></trkpt><trkpt lat="45.468105453963496" lon="11.511676811218589"><ele>36.0</ele><time>2026-04-12T08:23:14Z</time></trkpt><trkpt lat="45.468178063534246" lon="11.51162423873276"><ele>36.0</ele><time>2026-04-12T08:23:15Z</time></trkpt><trkpt lat="45.46825353783213" lon="11.511572947407616"><ele>36.0</ele><time>2026-04-12T08:23:16Z</time></trkpt><trkpt lat="45.46832529294038" lon="11.511526611705182"><ele>36.0</ele><time>2026-04-12T08:23:17Z</time></trkpt><trkpt lat="45.46839293926414" lon="11.511491709293743"><ele>36.0</ele><time>2026-04-12T08:23:18Z</time></trkpt><trkpt lat="45.46845381026001" lon="11.511460708282751"><ele>36.0</ele><time>2026-04-12T08:23:19Z</time></trkpt><trkpt lat="45.46853217866905" lon="11.511423509045981"><ele>36.0</ele><time>2026-04-12T08:23:21Z</time></trkpt><trkpt lat="45.46860538628789" lon="11.511409924651742"><ele>36.0</ele><time>2026-04-12T08:23:57Z</time></trkpt><trkpt lat="45.46862986522232" lon="11.511531267530067"><ele>36.0</ele><time>2026-04-12T08:23:59Z</time></trkpt><trkpt lat="45.46863949339805" lon="11.511628228037742"><ele>36.0</ele><time>2026-04-12T08:24:00Z</time></trkpt><trkpt lat="45.468665552736226" lon="11.511735178393614"><ele>36.0</ele><time>2026-04-12T08:24:01Z</time></trkpt><trkpt lat="45.46867314890106" lon="11.511846369497762"><ele>36.0</ele><time>2026-04-12T08:24:02Z</time></trkpt><trkpt lat="45.468675098579865" lon="11.511957168998112"><ele>36.0</ele><time>2026-04-12T08:24:03Z</time></trkpt><trkpt lat="45.4686759130883" lon="11.512084640199404"><ele>36.0</ele><time>2026-04-12T08:24:04Z</time></trkpt><trkpt lat="45.468662092828325" lon="11.51222295621799"><ele>36.0</ele><time>2026-04-12T08:24:05Z</time></trkpt><trkpt lat="45.46866572003524" lon="11.512374174447485"><ele>35.8</ele><time>2026-04-12T08:24:06Z</time></trkpt><trkpt lat="45.46866583849737" lon="11.512525373076082"><ele>35.6</ele><time>2026-04-12T08:24:07Z</time></trkpt><trkpt lat="45.46867262466012" lon="11.512669049546421"><ele>35.4</ele><time>2026-04-12T08:24:08Z</time></trkpt><trkpt lat="45.46866892530196" lon="11.512799191038285"><ele>35.2</ele><time>2026-04-12T08:24:09Z</time></trkpt><trkpt lat="45.46866727012765" lon="11.512930406930904"><ele>35.0</ele><time>2026-04-12T08:24:10Z</time></trkpt><trkpt lat="45.46866881433608" lon="11.513060038658445"><ele>35.0</ele><time>2026-04-12T08:24:11Z</time></trkpt><trkpt lat="45.46867698348334" lon="11.513189286581536"><ele>35.0</ele><time>2026-04-12T08:24:12Z</time></trkpt><trkpt lat="45.468689629115026" lon="11.513311277562618"><ele>35.0</ele><time>2026-04-12T08:24:13Z</time></trkpt><trkpt lat="45.46871028463035" lon="11.513428814356763"><ele>35.0</ele><time>2026-04-12T08:24:14Z</time></trkpt><trkpt lat="45.468754163409" lon="11.513536120696713"><ele>35.0</ele><time>2026-04-12T08:24:15Z</time></trkpt><trkpt lat="45.46882705843881" lon="11.51363657814284"><ele>34.666666666666664</ele><time>2026-04-12T08:24:16Z</time></trkpt><trkpt lat="45.4689161659239" lon="11.513710661143511"><ele>34.33333333333333</ele><time>2026-04-12T08:24:17Z</time></trkpt><trkpt lat="45.46901029818351" lon="11.513765927801474"><ele>34.0</ele><time>2026-04-12T08:24:18Z</time></trkpt><trkpt lat="45.46909330599534" lon="11.51381082685369"><ele>33.666666666666664</ele><time>2026-04-12T08:24:19Z</time></trkpt><trkpt lat="45.469163187074805" lon="11.513863651639793"><ele>33.333333333333336</ele><time>2026-04-12T08:24:20Z</time></trkpt><trkpt lat="45.46921095391248" lon="11.513925425401995"><ele>33.0</ele><time>2026-04-12T08:24:21Z</time></trkpt><trkpt lat="45.46930286061355" lon="11.513965055052406"><ele>33.75</ele><time>2026-04-12T08:24:23Z</time></trkpt><trkpt lat="45.469438202927456" lon="11.51394446952313"><ele>34.5</ele><time>2026-04-12T08:24:24Z</time></trkpt><trkpt lat="45.469520515865185" lon="11.514003738829325"><ele>35.25</ele><time>2026-04-12T08:24:25Z</time></trkpt><trkpt lat="45.46961809558773" lon="11.514074764354936"><ele>36.0</ele><time>2026-04-12T08:24:26Z</time></trkpt><trkpt lat="45.46971642013131" lon="11.51415085790093"><ele>36.0</ele><time>2026-04-12T08:24:27Z</time></trkpt><trkpt lat="45.46986474765173" lon="11.514199366223203"><ele>36.0</ele><time>2026-04-12T08:24:29Z</time></trkpt><trkpt lat="45.4699731204844" lon="11.514212270923256"><ele>36.0</ele><time>2026-04-12T08:24:30Z</time></trkpt><trkpt lat="45.47009636193493" lon="11.514245130193833"><ele>36.0</ele><time>2026-04-12T08:24:31Z</time></trkpt><trkpt lat="45.47018724411309" lon="11.51426296500112"><ele>36.0</ele><time>2026-04-12T08:24:32Z</time></trkpt><trkpt lat="45.470299456900925" lon="11.514278936921496"><ele>36.0</ele><time>2026-04-12T08:24:33Z</time></trkpt><trkpt lat="45.470421082580245" lon="11.51430008162136"><ele>36.0</ele><time>2026-04-12T08:24:34Z</time></trkpt><trkpt lat="45.47047812614496" lon="11.514925508119719"><ele>40.2</ele><time>2026-04-12T08:24:35Z</time></trkpt><trkpt lat="45.470575796828264" lon="11.514971930870376"><ele>44.400000000000006</ele><time>2026-04-12T08:24:36Z</time></trkpt><trkpt lat="45.470668135040356" lon="11.515020096805252"><ele>48.6</ele><time>2026-04-12T08:24:37Z</time></trkpt><trkpt lat="45.47075730649998" lon="11.515046852315713"><ele>52.800000000000004</ele><time>2026-04-12T08:24:38Z</time></trkpt><trkpt lat="45.47084010653038" lon="11.515076060229466"><ele>57.0</ele><time>2026-04-12T08:24:39Z</time></trkpt><trkpt lat="45.470917336453" lon="11.515109876947536"><ele>57.0</ele><time>2026-04-12T08:24:40Z</time></trkpt><trkpt lat="45.4709820074235" lon="11.515133482245938"><ele>57.0</ele><time>2026-04-12T08:24:41Z</time></trkpt><trkpt lat="45.4710495630301" lon="11.515150501828295"><ele>57.0</ele><time>2026-04-12T08:24:42Z</time></trkpt><trkpt lat="45.471164403784364" lon="11.515169071891352"><ele>57.0</ele><time>2026-04-12T08:24:44Z</time></trkpt><trkpt lat="45.47123861533488" lon="11.515200923620991"><ele>57.0</ele><time>2026-04-12T08:24:45Z</time></trkpt><trkpt lat="45.47131343366678" lon="11.51522968943127"><ele>57.0</ele><time>2026-04-12T08:24:46Z</time></trkpt><trkpt lat="45.471419702324745" lon="11.515304306426183"><ele>56.166666666666664</ele><time>2026-04-12T08:24:47Z</time></trkpt><trkpt lat="45.47151129126136" lon="11.51535399210432"><ele>55.33333333333333</ele><time>2026-04-12T08:24:48Z</time></trkpt><trkpt lat="45.47157499248756" lon="11.515400524186804"><ele>54.5</ele><time>2026-04-12T08:24:49Z</time></trkpt><trkpt lat="45.47165011191713" lon="11.51544654995533"><ele>53.666666666666664</ele><time>2026-04-12T08:24:51Z</time></trkpt><trkpt lat="45.47171887604617" lon="11.515499318127489"><ele>52.83333333333333</ele><time>2026-04-12T08:24:53Z</time></trkpt><trkpt lat="45.47178715516453" lon="11.51560866255771"><ele>52.0</ele><time>2026-04-12T08:24:55Z</time></trkpt><trkpt lat="45.47184551805432" lon="11.51570823849522"><ele>60.75</ele><time>2026-04-12T08:24:57Z</time></trkpt><trkpt lat="45.47193951540427" lon="11.515824943144732"><ele>69.5</ele><time>2026-04-12T08:24:59Z</time></trkpt><trkpt lat="45.472022265511036" lon="11.516015076171026"><ele>78.25</ele><time>2026-04-12T08:25:01Z</time></trkpt><trkpt lat="45.47204216630701" lon="11.51617116566296"><ele>87.0</ele><time>2026-04-12T08:25:02Z</time></trkpt><trkpt lat="45.47204802286963" lon="11.51628257565219"><ele>90.57142857142857</ele><time>2026-04-12T08:25:03Z</time></trkpt><trkpt lat="45.47204570319222" lon="11.516378325977392"><ele>94.14285714285714</ele><time>2026-04-12T08:25:04Z</time></trkpt><trkpt lat="45.47205257836818" lon="11.516486571124666"><ele>97.71428571428572</ele><time>2026-04-12T08:25:05Z</time></trkpt><trkpt lat="45.472056061433214" lon="11.51659524646113"><ele>101.28571428571428</ele><time>2026-04-12T08:25:06Z</time></trkpt><trkpt lat="45.47204670388575" lon="11.516687619733872"><ele>104.85714285714286</ele><time>2026-04-12T08:25:07Z</time></trkpt><trkpt lat="45.47203466190606" lon="11.516785951469485"><ele>108.42857142857143</ele><time>2026-04-12T08:25:08Z</time></trkpt><trkpt lat="45.4720318185863" lon="11.5168878530684"><ele>112.0</ele><time>2026-04-12T08:25:09Z</time></trkpt><trkpt lat="45.47203317371537" lon="11.516994701503656"><ele>114.50000000000001</ele><time>2026-04-12T08:25:10Z</time></trkpt><trkpt lat="45.47204317567631" lon="11.517115219002445"><ele>117.0</ele><time>2026-04-12T08:25:11Z</time></trkpt><trkpt lat="45.47205183044813" lon="11.517225268122631"><ele>119.5</ele><time>2026-04-12T08:25:12Z</time></trkpt><trkpt lat="45.47205938926765" lon="11.517362472411298"><ele>122.0</ele><time>2026-04-12T08:25:13Z</time></trkpt><trkpt lat="45.472058757036514" lon="11.517461558617667"><ele>124.50000000000001</ele><time>2026-04-12T08:25:14Z</time></trkpt><trkpt lat="45.472035562228825" lon="11.51757645672785"><ele>127.0</ele><time>2026-04-12T08:25:16Z</time></trkpt><trkpt lat="45.47205377915953" lon="11.517696248039854"><ele>127.0</ele><time>2026-04-12T08:25:19Z</time></trkpt><trkpt lat="45.47208983416111" lon="11.517847110501265"><ele>127.0</ele><time>2026-04-12T08:25:21Z</time></trkpt><trkpt lat="45.472143081600805" lon="11.518039036956312"><ele>127.0</ele><time>2026-04-12T08:25:23Z</time></trkpt><trkpt lat="45.472196619847864" lon="11.518142207888017"><ele>127.0</ele><time>2026-04-12T08:25:24Z</time></trkpt><trkpt lat="45.47225630647911" lon="11.518283021412795"><ele>126.00000000000001</ele><time>2026-04-12T08:25:26Z</time></trkpt><trkpt lat="45.47228656339388" lon="11.518381176240025"><ele>125.0</ele><time>2026-04-12T08:25:27Z</time></trkpt><trkpt lat="45.47232505908789" lon="11.518507545935954"><ele>124.0</ele><time>2026-04-12T08:25:28Z</time></trkpt><trkpt lat="45.47235501681845" lon="11.51861573751471"><ele>123.0</ele><time>2026-04-12T08:25:29Z</time></trkpt><trkpt lat="45.47238868733968" lon="11.518696202052707"><ele>122.00000000000001</ele><time>2026-04-12T08:25:30Z</time></trkpt><trkpt lat="45.472446299588654" lon="11.518801362973775"><ele>121.0</ele><time>2026-04-12T08:25:32Z</time></trkpt><trkpt lat="45.47247743975529" lon="11.518902291521622"><ele>121.00000000000001</ele><time>2026-04-12T08:25:35Z</time></trkpt><trkpt lat="45.47248677061502" lon="11.51902251418634"><ele>121.0</ele><time>2026-04-12T08:25:37Z</time></trkpt><trkpt lat="45.47246328478502" lon="11.519166352608707"><ele>121.0</ele><time>2026-04-12T08:25:40Z</time></trkpt><trkpt lat="45.47240179650931" lon="11.51924972926309"><ele>121.0</ele><time>2026-04-12T08:25:42Z</time></trkpt><trkpt lat="45.472344409243384" lon="11.519313421008752"><ele>121.00000000000001</ele><time>2026-04-12T08:25:43Z</time></trkpt><trkpt lat="45.472299601504" lon="11.51940127803551"><ele>121.0</ele><time>2026-04-12T08:25:44Z</time></trkpt><trkpt lat="45.47228762574926" lon="11.519509271602637"><ele>122.19999999999999</ele><time>2026-04-12T08:25:45Z</time></trkpt><trkpt lat="45.4722843572436" lon="11.519610239226468"><ele>123.39999999999999</ele><time>2026-04-12T08:25:46Z</time></trkpt><trkpt lat="45.47226839808809" lon="11.519711290316462"><ele>124.6</ele><time>2026-04-12T08:25:47Z</time></trkpt><trkpt lat="45.47223502166026" lon="11.519867131368432"><ele>125.8</ele><time>2026-04-12T08:25:49Z</time></trkpt><trkpt lat="45.472213179156434" lon="11.520016894031409"><ele>127.0</ele><time>2026-04-12T08:25:51Z</time></trkpt><trkpt lat="45.47213990819746" lon="11.520211123100552"><ele>133.4</ele><time>2026-04-12T08:25:53Z</time></trkpt><trkpt lat="45.472070345163274" lon="11.52032845974529"><ele>139.79999999999998</ele><time>2026-04-12T08:25:54Z</time></trkpt><trkpt lat="45.47200985179469" lon="11.52047026786872"><ele>146.2</ele><time>2026-04-12T08:25:55Z</time></trkpt><trkpt lat="45.47192174707977" lon="11.520611166843825"><ele>152.6</ele><time>2026-04-12T08:25:56Z</time></trkpt><trkpt lat="45.47188004682688" lon="11.520696130003246"><ele>159.0</ele><time>2026-04-12T08:25:57Z</time></trkpt><trkpt lat="45.47185969671716" lon="11.520799132048387"><ele>159.0</ele><time>2026-04-12T08:25:58Z</time></trkpt><trkpt lat="45.47183257337584" lon="11.520888599002342"><ele>159.0</ele><time>2026-04-12T08:25:59Z</time></trkpt><trkpt lat="45.47180313316618" lon="11.520972698090315"><ele>159.0</ele><time>2026-04-12T08:26:00Z</time></trkpt><trkpt lat="45.4717443999911" lon="11.521073523767365"><ele>159.0</ele><time>2026-04-12T08:26:02Z</time></trkpt><trkpt lat="45.47167992327181" lon="11.52118749296075"><ele>159.0</ele><time>2026-04-12T08:26:04Z</time></trkpt><trkpt lat="45.471647974312795" lon="11.521292500520886"><ele>159.0</ele><time>2026-04-12T08:26:06Z</time></trkpt><trkpt lat="45.471580110196854" lon="11.521436978198121"><ele>158.66666666666666</ele><time>2026-04-12T08:26:08Z</time></trkpt><trkpt lat="45.47155003700825" lon="11.521553447902843"><ele>158.33333333333334</ele><time>2026-04-12T08:26:09Z</time></trkpt><trkpt lat="45.47149944618807" lon="11.521672583349037"><ele>158.0</ele><time>2026-04-12T08:26:10Z</time></trkpt><trkpt lat="45.47144733254704" lon="11.52179231512532"><ele>157.66666666666669</ele><time>2026-04-12T08:26:11Z</time></trkpt><trkpt lat="45.47141134264243" lon="11.521902588363947"><ele>157.33333333333334</ele><time>2026-04-12T08:26:12Z</time></trkpt><trkpt lat="45.471377403871216" lon="11.52200194079312"><ele>157.0</ele><time>2026-04-12T08:26:13Z</time></trkpt><trkpt lat="45.471358204775775" lon="11.522106933373943"><ele>157.0</ele><time>2026-04-12T08:26:14Z</time></trkpt><trkpt lat="45.47131039774576" lon="11.522210817957081"><ele>157.0</ele><time>2026-04-12T08:26:15Z</time></trkpt><trkpt lat="45.471271387878744" lon="11.52231697542947"><ele>157.0</ele><time>2026-04-12T08:26:16Z</time></trkpt><trkpt lat="45.471221466346684" lon="11.522425735127749"><ele>157.0</ele><time>2026-04-12T08:26:17Z</time></trkpt><trkpt lat="45.47116303746572" lon="11.522524900033925"><ele>157.0</ele><time>2026-04-12T08:26:18Z</time></trkpt><trkpt lat="45.471095832984055" lon="11.522613446518237"><ele>157.0</ele><time>2026-04-12T08:26:19Z</time></trkpt><trkpt lat="45.47101999992318" lon="11.5227046250495"><ele>160.33333333333334</ele><time>2026-04-12T08:26:20Z</time></trkpt><trkpt lat="45.47092951243524" lon="11.522789363305241"><ele>163.66666666666669</ele><time>2026-04-12T08:26:21Z</time></trkpt><trkpt lat="45.47084440936927" lon="11.522844765168315"><ele>167.0</ele><time>2026-04-12T08:26:22Z</time></trkpt><trkpt lat="45.470760088104875" lon="11.522893284001077"><ele>170.33333333333334</ele><time>2026-04-12T08:26:23Z</time></trkpt><trkpt lat="45.47069034228994" lon="11.522951342676908"><ele>173.66666666666666</ele><time>2026-04-12T08:26:24Z</time></trkpt><trkpt lat="45.47064098876975" lon="11.523012403643861"><ele>177.0</ele><time>2026-04-12T08:26:25Z</time></trkpt><trkpt lat="45.47056712415834" lon="11.523087965148795"><ele>177.0</ele><time>2026-04-12T08:26:27Z</time></trkpt><trkpt lat="45.470491233835226" lon="11.523215762902854"><ele>177.0</ele><time>2026-04-12T08:26:39Z</time></trkpt><trkpt lat="45.470533358749094" lon="11.52331426266059"><ele>177.0</ele><time>2026-04-12T08:26:40Z</time></trkpt><trkpt lat="45.4706354250878" lon="11.523324619460258"><ele>177.0</ele><time>2026-04-12T08:26:43Z</time></trkpt><trkpt lat="45.47071647429486" lon="11.52332598291606"><ele>177.0</ele><time>2026-04-12T08:26:44Z</time></trkpt><trkpt lat="45.47081884281782" lon="11.52338756799073"><ele>177.0</ele><time>2026-04-12T08:26:45Z</time></trkpt><trkpt lat="45.47092726260892" lon="11.523466487344681"><ele>177.0</ele><time>2026-04-12T08:26:46Z</time></trkpt><trkpt lat="45.471063393901844" lon="11.523555909488291"><ele>177.0</ele><time>2026-04-12T08:26:47Z</time></trkpt><trkpt lat="45.47117519383946" lon="11.52361971745298"><ele>177.0</ele><time>2026-04-12T08:26:48Z</time></trkpt><trkpt lat="45.47127513593357" lon="11.52367567745235"><ele>177.5</ele><time>2026-04-12T08:26:49Z</time></trkpt><trkpt lat="45.471297264438554" lon="11.523786921742188"><ele>178.0</ele><time>2026-04-12T08:26:52Z</time></trkpt><trkpt lat="45.471217500268374" lon="11.523825504922877"><ele>178.5</ele><time>2026-04-12T08:26:56Z</time></trkpt><trkpt lat="45.47115817934649" lon="11.52387442019106"><ele>179.0</ele><time>2026-04-12T08:26:57Z</time></trkpt><trkpt lat="45.47107454785872" lon="11.523905976821203"><ele>179.5</ele><time>2026-04-12T08:26:58Z</time></trkpt><trkpt lat="45.47099342209796" lon="11.523928068985777"><ele>180.0</ele><time>2026-04-12T08:27:00Z</time></trkpt><trkpt lat="45.47092157092152" lon="11.523938943002783"><ele>181.16666666666666</ele><time>2026-04-12T08:27:01Z</time></trkpt><trkpt lat="45.47085519013113" lon="11.523953816750065"><ele>182.33333333333334</ele><time>2026-04-12T08:27:02Z</time></trkpt><trkpt lat="45.470762149988374" lon="11.523963462614375"><ele>183.5</ele><time>2026-04-12T08:27:03Z</time></trkpt><trkpt lat="45.470656199006676" lon="11.523969380892382"><ele>184.66666666666669</ele><time>2026-04-12T08:27:04Z</time></trkpt><trkpt lat="45.47056041681427" lon="11.523965919655666"><ele>185.83333333333334</ele><time>2026-04-12T08:27:05Z</time></trkpt><trkpt lat="45.47048823473111" lon="11.523943825873259"><ele>187.0</ele><time>2026-04-12T08:27:06Z</time></trkpt><trkpt lat="45.47038762811705" lon="11.523968812030894"><ele>189.6</ele><time>2026-04-12T08:27:08Z</time></trkpt><trkpt lat="45.47032238228111" lon="11.523946028917864"><ele>192.2</ele><time>2026-04-12T08:27:09Z</time></trkpt><trkpt lat="45.470200209206084" lon="11.523979105650582"><ele>194.8</ele><time>2026-04-12T08:27:11Z</time></trkpt><trkpt lat="45.470097665260475" lon="11.523969230291025"><ele>197.4</ele><time>2026-04-12T08:27:13Z</time></trkpt><trkpt lat="45.46998334285394" lon="11.524027395267893"><ele>200.0</ele><time>2026-04-12T08:27:15Z</time></trkpt><trkpt lat="45.46990796785928" lon="11.52399223102245"><ele>200.0</ele><time>2026-04-12T08:27:16Z</time></trkpt><trkpt lat="45.469821901428396" lon="11.523993282884186"><ele>200.0</ele><time>2026-04-12T08:27:17Z</time></trkpt><trkpt lat="45.46974556943608" lon="11.5240177509925"><ele>200.0</ele><time>2026-04-12T08:27:18Z</time></trkpt><trkpt lat="45.46965119434588" lon="11.523988710282273"><ele>200.0</ele><time>2026-04-12T08:27:19Z</time></trkpt><trkpt lat="45.46953240628801" lon="11.523968111861167"><ele>200.0</ele><time>2026-04-12T08:27:20Z</time></trkpt><trkpt lat="45.46944257937985" lon="11.523961634645843"><ele>202.00000000000003</ele><time>2026-04-12T08:27:21Z</time></trkpt><trkpt lat="45.469365488290734" lon="11.523964331280975"><ele>204.0</ele><time>2026-04-12T08:27:22Z</time></trkpt><trkpt lat="45.46929132937189" lon="11.523972538628719"><ele>206.0</ele><time>2026-04-12T08:27:23Z</time></trkpt><trkpt lat="45.469204021373464" lon="11.523978757758007"><ele>208.0</ele><time>2026-04-12T08:27:24Z</time></trkpt><trkpt lat="45.469132919292775" lon="11.523976899640832"><ele>210.00000000000003</ele><time>2026-04-12T08:27:25Z</time></trkpt><trkpt lat="45.469060944097244" lon="11.523987597985508"><ele>212.0</ele><time>2026-04-12T08:27:26Z</time></trkpt><trkpt lat="45.468955399708115" lon="11.523993966272185"><ele>212.00000000000003</ele><time>2026-04-12T08:27:27Z</time></trkpt><trkpt lat="45.46887001155565" lon="11.523984120574607"><ele>212.0</ele><time>2026-04-12T08:27:28Z</time></trkpt><trkpt lat="45.468780381249545" lon="11.523997893042758"><ele>212.0</ele><time>2026-04-12T08:27:29Z</time></trkpt><trkpt lat="45.468679724409945" lon="11.524003237685955"><ele>212.0</ele><time>2026-04-12T08:27:30Z</time></trkpt><trkpt lat="45.46859830722358" lon="11.523999924636694"><ele>212.00000000000003</ele><time>2026-04-12T08:27:31Z</time></trkpt><trkpt lat="45.46852543680034" lon="11.523979587197422"><ele>212.0</ele><time>2026-04-12T08:27:32Z</time></trkpt><trkpt lat="45.46845727227174" lon="11.523947778716954"><ele>212.0</ele><time>2026-04-12T08:27:33Z</time></trkpt><trkpt lat="45.46838293612562" lon="11.523901353343145"><ele>212.0</ele><time>2026-04-12T08:27:34Z</time></trkpt><trkpt lat="45.4683056736807" lon="11.523814904851342"><ele>212.0</ele><time>2026-04-12T08:27:35Z</time></trkpt><trkpt lat="45.468249373027305" lon="11.523708651304613"><ele>212.0</ele><time>2026-04-12T08:27:36Z</time></trkpt><trkpt lat="45.46819522047419" lon="11.523595200628122"><ele>212.0</ele><time>2026-04-12T08:27:37Z</time></trkpt><trkpt lat="45.468176864516586" lon="11.523470201002375"><ele>212.0</ele><time>2026-04-12T08:27:38Z</time></trkpt><trkpt lat="45.46817052402355" lon="11.52335385548773"><ele>212.0</ele><time>2026-04-12T08:27:39Z</time></trkpt><trkpt lat="45.468207362798026" lon="11.52324252529431"><ele>212.0</ele><time>2026-04-12T08:27:40Z</time></trkpt><trkpt lat="45.46825771646321" lon="11.523093256148625"><ele>212.0</ele><time>2026-04-12T08:27:41Z</time></trkpt><trkpt lat="45.468279155524975" lon="11.522959784501829"><ele>212.0</ele><time>2026-04-12T08:27:42Z</time></trkpt><trkpt lat="45.468276243033" lon="11.522821940377524"><ele>213.6</ele><time>2026-04-12T08:27:43Z</time></trkpt><trkpt lat="45.4682520948008" lon="11.522710102623083"><ele>215.2</ele><time>2026-04-12T08:27:44Z</time></trkpt><trkpt lat="45.46821331876708" lon="11.522590655437092"><ele>216.8</ele><time>2026-04-12T08:27:45Z</time></trkpt><trkpt lat="45.468169605146365" lon="11.522482409377234"><ele>218.4</ele><time>2026-04-12T08:27:46Z</time></trkpt><trkpt lat="45.468128952773355" lon="11.522369148219493"><ele>220.0</ele><time>2026-04-12T08:27:48Z</time></trkpt><trkpt lat="45.46798812095623" lon="11.522292000175108"><ele>222.6</ele><time>2026-04-12T08:28:21Z</time></trkpt><trkpt lat="45.467941557616705" lon="11.522372515435864"><ele>225.2</ele><time>2026-04-12T08:28:22Z</time></trkpt><trkpt lat="45.46790064506168" lon="11.522471785824877"><ele>227.8</ele><time>2026-04-12T08:28:23Z</time></trkpt><trkpt lat="45.46784849656636" lon="11.522595796715946"><ele>230.4</ele><time>2026-04-12T08:28:24Z</time></trkpt><trkpt lat="45.46780124849145" lon="11.5227273898127"><ele>233.0</ele><time>2026-04-12T08:28:25Z</time></trkpt><trkpt lat="45.46774554065423" lon="11.522842261534262"><ele>232.00000000000003</ele><time>2026-04-12T08:28:26Z</time></trkpt><trkpt lat="45.46769277730915" lon="11.522918900469595"><ele>231.0</ele><time>2026-04-12T08:28:27Z</time></trkpt><trkpt lat="45.46759036233851" lon="11.522992598896863"><ele>230.0</ele><time>2026-04-12T08:28:29Z</time></trkpt><trkpt lat="45.4675128682278" lon="11.523035524011172"><ele>229.0</ele><time>2026-04-12T08:28:30Z</time></trkpt><trkpt lat="45.46745121337538" lon="11.523074818468938"><ele>228.00000000000003</ele><time>2026-04-12T08:28:31Z</time></trkpt><trkpt lat="45.4673751738073" lon="11.52310060905729"><ele>227.0</ele><time>2026-04-12T08:28:32Z</time></trkpt><trkpt lat="45.46728793046334" lon="11.523120599763008"><ele>227.00000000000003</ele><time>2026-04-12T08:28:33Z</time></trkpt><trkpt lat="45.46719386897742" lon="11.52314467168995"><ele>227.0</ele><time>2026-04-12T08:28:34Z</time></trkpt><trkpt lat="45.4670993078302" lon="11.523183828162104"><ele>227.0</ele><time>2026-04-12T08:28:35Z</time></trkpt><trkpt lat="45.46702112209757" lon="11.523229696550121"><ele>227.0</ele><time>2026-04-12T08:28:36Z</time></trkpt><trkpt lat="45.46696268514326" lon="11.523276284414957"><ele>227.00000000000003</ele><time>2026-04-12T08:28:37Z</time></trkpt><trkpt lat="45.46690671637734" lon="11.523324801628718"><ele>227.0</ele><time>2026-04-12T08:28:38Z</time></trkpt><trkpt lat="45.46682209233224" lon="11.523421684013083"><ele>229.16666666666669</ele><time>2026-04-12T08:28:40Z</time></trkpt><trkpt lat="45.46674669751331" lon="11.523543789049983"><ele>231.33333333333334</ele><time>2026-04-12T08:28:42Z</time></trkpt><trkpt lat="45.466720123689846" lon="11.523625672388897"><ele>233.5</ele><time>2026-04-12T08:28:46Z</time></trkpt><trkpt lat="45.46668005581415" lon="11.523734794212249"><ele>235.66666666666669</ele><time>2026-04-12T08:29:06Z</time></trkpt><trkpt lat="45.46661406226421" lon="11.523782965751394"><ele>237.83333333333334</ele><time>2026-04-12T08:29:08Z</time></trkpt><trkpt lat="45.46655304686611" lon="11.523724375810998"><ele>240.0</ele><time>2026-04-12T08:29:09Z</time></trkpt><trkpt lat="45.466483413095126" lon="11.523686005273545"><ele>240.0</ele><time>2026-04-12T08:29:10Z</time></trkpt><trkpt lat="45.46640768324352" lon="11.52364403148718"><ele>240.0</ele><time>2026-04-12T08:29:11Z</time></trkpt><trkpt lat="45.46632504552279" lon="11.5236232023677"><ele>240.0</ele><time>2026-04-12T08:29:12Z</time></trkpt><trkpt lat="45.466244974650074" lon="11.52361181122689"><ele>240.0</ele><time>2026-04-12T08:29:13Z</time></trkpt><trkpt lat="45.46613292762826" lon="11.523598422828645"><ele>240.0</ele><time>2026-04-12T08:29:14Z</time></trkpt><trkpt lat="45.46605576672995" lon="11.523641106760065"><ele>240.0</ele><time>2026-04-12T08:29:15Z</time></trkpt><trkpt lat="45.46600128487748" lon="11.523687053863632"><ele>242.6</ele><time>2026-04-12T08:29:16Z</time></trkpt><trkpt lat="45.46592005152082" lon="11.523703974533632"><ele>245.2</ele><time>2026-04-12T08:29:18Z</time></trkpt><trkpt lat="45.465893282572964" lon="11.523556875942717"><ele>247.8</ele><time>2026-04-12T08:29:21Z</time></trkpt><trkpt lat="45.46586615147361" lon="11.523444673268399"><ele>250.4</ele><time>2026-04-12T08:29:22Z</time></trkpt><trkpt lat="45.46583279977875" lon="11.523308632519804"><ele>253.0</ele><time>2026-04-12T08:29:23Z</time></trkpt><trkpt lat="45.46584277041576" lon="11.523168871176512"><ele>253.0</ele><time>2026-04-12T08:29:24Z</time></trkpt><trkpt lat="45.46589608938687" lon="11.522956175687252"><ele>253.0</ele><time>2026-04-12T08:29:25Z</time></trkpt><trkpt lat="45.46591673202517" lon="11.522801472507451"><ele>253.0</ele><time>2026-04-12T08:29:26Z</time></trkpt><trkpt lat="45.465917383131654" lon="11.522711247176321"><ele>253.0</ele><time>2026-04-12T08:29:27Z</time></trkpt><trkpt lat="45.46588155281502" lon="11.522616028267636"><ele>253.0</ele><time>2026-04-12T08:29:28Z</time></trkpt><trkpt lat="45.465843705764875" lon="11.522502447670469"><ele>254.0</ele><time>2026-04-12T08:29:29Z</time></trkpt><trkpt lat="45.46579817154327" lon="11.522418225539578"><ele>255.0</ele><time>2026-04-12T08:29:30Z</time></trkpt><trkpt lat="45.46566850075715" lon="11.522384984826871"><ele>256.0</ele><time>2026-04-12T08:29:32Z</time></trkpt><trkpt lat="45.46557050937233" lon="11.522371612994469"><ele>257.0</ele><time>2026-04-12T08:29:33Z</time></trkpt><trkpt lat="45.465504999322015" lon="11.522371927193259"><ele>258.0</ele><time>2026-04-12T08:29:34Z</time></trkpt><trkpt lat="45.46541680718482" lon="11.52240323968282"><ele>260.3333333333333</ele><time>2026-04-12T08:29:36Z</time></trkpt><trkpt lat="45.465343688954185" lon="11.522402229519727"><ele>262.6666666666667</ele><time>2026-04-12T08:29:38Z</time></trkpt><trkpt lat="45.46524495286319" lon="11.52245267269204"><ele>265.0</ele><time>2026-04-12T08:29:40Z</time></trkpt><trkpt lat="45.46519916423069" lon="11.522517921723065"><ele>267.33333333333337</ele><time>2026-04-12T08:29:41Z</time></trkpt><trkpt lat="45.46514014072507" lon="11.522594272744236"><ele>269.6666666666667</ele><time>2026-04-12T08:29:42Z</time></trkpt><trkpt lat="45.465063609755006" lon="11.52269108920245"><ele>272.0</ele><time>2026-04-12T08:29:43Z</time></trkpt><trkpt lat="45.46500201265782" lon="11.52278386750999"><ele>272.0</ele><time>2026-04-12T08:29:44Z</time></trkpt><trkpt lat="45.46495656233962" lon="11.522868498572434"><ele>272.0</ele><time>2026-04-12T08:29:45Z</time></trkpt><trkpt lat="45.46485557641113" lon="11.52298730254265"><ele>272.0</ele><time>2026-04-12T08:29:47Z</time></trkpt><trkpt lat="45.46479612983961" lon="11.523045148225265"><ele>272.0</ele><time>2026-04-12T08:29:48Z</time></trkpt><trkpt lat="45.46472432004816" lon="11.523120820090298"><ele>272.0</ele><time>2026-04-12T08:29:49Z</time></trkpt><trkpt lat="45.46464592952232" lon="11.523193490605708"><ele>273.4</ele><time>2026-04-12T08:29:50Z</time></trkpt><trkpt lat="45.464593381855906" lon="11.523276225463054"><ele>274.79999999999995</ele><time>2026-04-12T08:29:51Z</time></trkpt><trkpt lat="45.46451263548312" lon="11.52340268219794"><ele>276.2</ele><time>2026-04-12T08:29:53Z</time></trkpt><trkpt lat="45.46446182197229" lon="11.523532937778112"><ele>277.59999999999997</ele><time>2026-04-12T08:29:55Z</time></trkpt><trkpt lat="45.46446919163347" lon="11.523689617979544"><ele>279.0</ele><time>2026-04-12T08:29:57Z</time></trkpt><trkpt lat="45.46446716327614" lon="11.523786406618164"><ele>279.0</ele><time>2026-04-12T08:29:58Z</time></trkpt><trkpt lat="45.464433701756725" lon="11.523920133178533"><ele>279.0</ele><time>2026-04-12T08:30:00Z</time></trkpt><trkpt lat="45.4643634682081" lon="11.52406521047785"><ele>279.0</ele><time>2026-04-12T08:30:02Z</time></trkpt><trkpt lat="45.46431301969531" lon="11.524151598079595"><ele>279.0</ele><time>2026-04-12T08:30:03Z</time></trkpt><trkpt lat="45.46424225806114" lon="11.52423047515253"><ele>279.0</ele><time>2026-04-12T08:30:04Z</time></trkpt><trkpt lat="45.46418135584415" lon="11.524300930989257"><ele>279.0</ele><time>2026-04-12T08:30:05Z</time></trkpt><trkpt lat="45.464098053455466" lon="11.52436683814367"><ele>279.0</ele><time>2026-04-12T08:30:06Z</time></trkpt><trkpt lat="45.46405419524065" lon="11.524450250281449"><ele>279.0</ele><time>2026-04-12T08:30:07Z</time></trkpt><trkpt lat="45.464002348522975" lon="11.524513676025517"><ele>279.0</ele><time>2026-04-12T08:30:08Z</time></trkpt><trkpt lat="45.463938430742424" lon="11.524543905429601"><ele>279.0</ele><time>2026-04-12T08:30:09Z</time></trkpt><trkpt lat="45.4638655081245" lon="11.524578935594326"><ele>279.0</ele><time>2026-04-12T08:30:10Z</time></trkpt><trkpt lat="45.463778352845964" lon="11.524647639877161"><ele>281.1666666666667</ele><time>2026-04-12T08:30:11Z</time></trkpt><trkpt lat="45.46369978813499" lon="11.52471003244138"><ele>283.3333333333333</ele><time>2026-04-12T08:30:12Z</time></trkpt><trkpt lat="45.46363209378109" lon="11.524783404852817"><ele>285.5</ele><time>2026-04-12T08:30:13Z</time></trkpt><trkpt lat="45.463561191948216" lon="11.524841101267826"><ele>287.66666666666663</ele><time>2026-04-12T08:30:14Z</time></trkpt><trkpt lat="45.46349566047447" lon="11.524892387765691"><ele>289.8333333333333</ele><time>2026-04-12T08:30:15Z</time></trkpt><trkpt lat="45.463413281261765" lon="11.524958507056828"><ele>292.0</ele><time>2026-04-12T08:30:16Z</time></trkpt><trkpt lat="45.463316808996254" lon="11.525002618880068"><ele>292.0</ele><time>2026-04-12T08:30:17Z</time></trkpt><trkpt lat="45.46322096302058" lon="11.525086387331552"><ele>292.0</ele><time>2026-04-12T08:30:18Z</time></trkpt><trkpt lat="45.46314752980206" lon="11.525154723304661"><ele>292.0</ele><time>2026-04-12T08:30:19Z</time></trkpt><trkpt lat="45.463078378814586" lon="11.525209551105915"><ele>292.0</ele><time>2026-04-12T08:30:20Z</time></trkpt><trkpt lat="45.46301987384951" lon="11.525245041410384"><ele>292.0</ele><time>2026-04-12T08:30:21Z</time></trkpt><trkpt lat="45.46295359261417" lon="11.525304278682349"><ele>292.0</ele><time>2026-04-12T08:30:22Z</time></trkpt><trkpt lat="45.46290259238475" lon="11.525430306570724"><ele>293.2</ele><time>2026-04-12T08:30:23Z</time></trkpt><trkpt lat="45.462845186999495" lon="11.52551805775669"><ele>294.4</ele><time>2026-04-12T08:30:24Z</time></trkpt><trkpt lat="45.46280619220016" lon="11.525615946113772"><ele>295.6</ele><time>2026-04-12T08:30:25Z</time></trkpt><trkpt lat="45.462825054737166" lon="11.525772828454805"><ele>296.8</ele><time>2026-04-12T08:30:27Z</time></trkpt><trkpt lat="45.4628417690526" lon="11.525873288124698"><ele>298.0</ele><time>2026-04-12T08:30:28Z</time></trkpt><trkpt lat="45.462859005877554" lon="11.526021812934058"><ele>298.0</ele><time>2026-04-12T08:30:30Z</time></trkpt><trkpt lat="45.46287932181711" lon="11.526191637384276"><ele>298.0</ele><time>2026-04-12T08:30:32Z</time></trkpt><trkpt lat="45.46291806074762" lon="11.526323736631316"><ele>298.0</ele><time>2026-04-12T08:30:34Z</time></trkpt><trkpt lat="45.46294676388213" lon="11.526415669430543"><ele>298.0</ele><time>2026-04-12T08:30:36Z</time></trkpt><trkpt lat="45.46292489857382" lon="11.526558616099857"><ele>298.0</ele><time>2026-04-12T08:30:38Z</time></trkpt><trkpt lat="45.46289982024205" lon="11.526643252023176"><ele>297.66666666666663</ele><time>2026-04-12T08:30:39Z</time></trkpt><trkpt lat="45.46286026439116" lon="11.526734949265075"><ele>297.3333333333333</ele><time>2026-04-12T08:30:40Z</time></trkpt><trkpt lat="45.46278538866674" lon="11.52687979094358"><ele>297.0</ele><time>2026-04-12T08:30:42Z</time></trkpt><trkpt lat="45.46273477058792" lon="11.526980836595882"><ele>296.6666666666667</ele><time>2026-04-12T08:30:43Z</time></trkpt><trkpt lat="45.46267668647034" lon="11.527068893975294"><ele>296.33333333333337</ele><time>2026-04-12T08:30:44Z</time></trkpt><trkpt lat="45.46263002018916" lon="11.527139895554125"><ele>296.0</ele><time>2026-04-12T08:30:45Z</time></trkpt><trkpt lat="45.46253107134178" lon="11.527206675355256"><ele>295.40000000000003</ele><time>2026-04-12T08:30:47Z</time></trkpt><trkpt lat="45.462419395441714" lon="11.527188928110165"><ele>294.8</ele><time>2026-04-12T08:30:49Z</time></trkpt><trkpt lat="45.46233390244416" lon="11.527153456947364"><ele>294.20000000000005</ele><time>2026-04-12T08:30:51Z</time></trkpt><trkpt lat="45.462240761575075" lon="11.527143537814919"><ele>293.6</ele><time>2026-04-12T08:30:53Z</time></trkpt><trkpt lat="45.46212825689078" lon="11.527172185314216"><ele>293.0</ele><time>2026-04-12T08:30:55Z</time></trkpt><trkpt lat="45.4620377618981" lon="11.52725912737601"><ele>294.0</ele><time>2026-04-12T08:30:57Z</time></trkpt><trkpt lat="45.46194778335927" lon="11.527249278257903"><ele>295.0</ele><time>2026-04-12T08:31:00Z</time></trkpt><trkpt lat="45.46186112720183" lon="11.527289060914287"><ele>296.0</ele><time>2026-04-12T08:31:02Z</time></trkpt><trkpt lat="45.461802174380026" lon="11.527325294244775"><ele>297.0</ele><time>2026-04-12T08:31:03Z</time></trkpt><trkpt lat="45.46170326089311" lon="11.527444304461815"><ele>298.0</ele><time>2026-04-12T08:31:05Z</time></trkpt><trkpt lat="45.46166170418919" lon="11.527515821685759"><ele>299.0</ele><time>2026-04-12T08:31:06Z</time></trkpt><trkpt lat="45.461628884977436" lon="11.527607548555942"><ele>299.0</ele><time>2026-04-12T08:31:07Z</time></trkpt><trkpt lat="45.46160090139693" lon="11.5277073024909"><ele>299.0</ele><time>2026-04-12T08:31:08Z</time></trkpt><trkpt lat="45.46157823021998" lon="11.52781098415348"><ele>299.0</ele><time>2026-04-12T08:31:09Z</time></trkpt><trkpt lat="45.46155687982997" lon="11.527913021516149"><ele>299.0</ele><time>2026-04-12T08:31:10Z</time></trkpt><trkpt lat="45.461530861141014" lon="11.528004467846385"><ele>299.0</ele><time>2026-04-12T08:31:11Z</time></trkpt><trkpt lat="45.46149928918674" lon="11.528095476049142"><ele>299.0</ele><time>2026-04-12T08:31:12Z</time></trkpt><trkpt lat="45.46147148756585" lon="11.528182122569971"><ele>299.0</ele><time>2026-04-12T08:31:13Z</time></trkpt><trkpt lat="45.46143287902417" lon="11.528269650672353"><ele>298.1666666666667</ele><time>2026-04-12T08:31:14Z</time></trkpt><trkpt lat="45.461390980269584" lon="11.528352292337077"><ele>297.33333333333337</ele><time>2026-04-12T08:31:15Z</time></trkpt><trkpt lat="45.461361224392746" lon="11.528459199832968"><ele>296.5</ele><time>2026-04-12T08:31:16Z</time></trkpt><trkpt lat="45.4613366222759" lon="11.528562516388517"><ele>295.6666666666667</ele><time>2026-04-12T08:31:17Z</time></trkpt><trkpt lat="45.46131385598241" lon="11.528660625816869"><ele>294.8333333333333</ele><time>2026-04-12T08:31:18Z</time></trkpt><trkpt lat="45.46129060559375" lon="11.528759168813753"><ele>294.0</ele><time>2026-04-12T08:31:19Z</time></trkpt><trkpt lat="45.46128375926127" lon="11.528887376593808"><ele>292.2</ele><time>2026-04-12T08:31:20Z</time></trkpt><trkpt lat="45.46124869226647" lon="11.529003563479282"><ele>290.4</ele><time>2026-04-12T08:31:22Z</time></trkpt><trkpt lat="45.461186360179006" lon="11.529053634401562"><ele>288.6</ele><time>2026-04-12T08:31:34Z</time></trkpt><trkpt lat="45.46112571078422" lon="11.52897287150737"><ele>286.8</ele><time>2026-04-12T08:31:37Z</time></trkpt><trkpt lat="45.46103491330937" lon="11.528879341135026"><ele>285.0</ele><time>2026-04-12T08:31:39Z</time></trkpt><trkpt lat="45.46094318587472" lon="11.528819334898888"><ele>285.0</ele><time>2026-04-12T08:31:40Z</time></trkpt><trkpt lat="45.46080738205229" lon="11.528772041897291"><ele>285.0</ele><time>2026-04-12T08:31:41Z</time></trkpt><trkpt lat="45.46068268555883" lon="11.528712947233164"><ele>285.0</ele><time>2026-04-12T08:31:42Z</time></trkpt><trkpt lat="45.460605368442586" lon="11.528702144969447"><ele>285.0</ele><time>2026-04-12T08:31:43Z</time></trkpt><trkpt lat="45.46050983589817" lon="11.528753278863585"><ele>285.5</ele><time>2026-04-12T08:31:44Z</time></trkpt><trkpt lat="45.460406025828505" lon="11.528772677674286"><ele>286.0</ele><time>2026-04-12T08:31:45Z</time></trkpt><trkpt lat="45.46030631782748" lon="11.528756960619132"><ele>286.5</ele><time>2026-04-12T08:31:46Z</time></trkpt><trkpt lat="45.460233639168194" lon="11.528725535142563"><ele>287.0</ele><time>2026-04-12T08:31:47Z</time></trkpt><trkpt lat="45.460152914871074" lon="11.52865321817156"><ele>287.5</ele><time>2026-04-12T08:31:48Z</time></trkpt><trkpt lat="45.46009313218289" lon="11.528621445490352"><ele>288.0</ele><time>2026-04-12T08:31:49Z</time></trkpt><trkpt lat="45.460030834282435" lon="11.528591792729248"><ele>291.6</ele><time>2026-04-12T08:31:52Z</time></trkpt><trkpt lat="45.45995434047891" lon="11.528576822406778"><ele>295.20000000000005</ele><time>2026-04-12T08:31:54Z</time></trkpt><trkpt lat="45.45986599836659" lon="11.52852221148013"><ele>298.8</ele><time>2026-04-12T08:31:56Z</time></trkpt><trkpt lat="45.459788373063475" lon="11.528444635104636"><ele>302.40000000000003</ele><time>2026-04-12T08:31:58Z</time></trkpt><trkpt lat="45.459775423552465" lon="11.528308794282344"><ele>306.0</ele><time>2026-04-12T08:32:00Z</time></trkpt><trkpt lat="45.45982904254891" lon="11.528170555042442"><ele>306.0</ele><time>2026-04-12T08:32:02Z</time></trkpt><trkpt lat="45.459883619540506" lon="11.528122012677075"><ele>306.0</ele><time>2026-04-12T08:32:03Z</time></trkpt><trkpt lat="45.45991224312042" lon="11.527983717276408"><ele>306.0</ele><time>2026-04-12T08:32:05Z</time></trkpt><trkpt lat="45.45991282922394" lon="11.527803091278926"><ele>306.0</ele><time>2026-04-12T08:32:06Z</time></trkpt><trkpt lat="45.4599036821777" lon="11.527638573974471"><ele>306.0</ele><time>2026-04-12T08:32:07Z</time></trkpt><trkpt lat="45.45991666550849" lon="11.527496964184778"><ele>307.2</ele><time>2026-04-12T08:32:09Z</time></trkpt><trkpt lat="45.45994501639763" lon="11.527390479781777"><ele>308.40000000000003</ele><time>2026-04-12T08:32:11Z</time></trkpt><trkpt lat="45.45994193459297" lon="11.52723875177444"><ele>309.6</ele><time>2026-04-12T08:32:13Z</time></trkpt><trkpt lat="45.45994257879045" lon="11.527074509038693"><ele>310.8</ele><time>2026-04-12T08:32:15Z</time></trkpt><trkpt lat="45.459929338450664" lon="11.526977361957877"><ele>312.0</ele><time>2026-04-12T08:32:16Z</time></trkpt><trkpt lat="45.45989228184265" lon="11.526850325201456"><ele>312.0</ele><time>2026-04-12T08:32:18Z</time></trkpt><trkpt lat="45.459865499534956" lon="11.52676862193893"><ele>312.0</ele><time>2026-04-12T08:32:21Z</time></trkpt><trkpt lat="45.4597743697287" lon="11.526716349732524"><ele>312.0</ele><time>2026-04-12T08:32:28Z</time></trkpt><trkpt lat="45.459728138498235" lon="11.526828954872029"><ele>312.0</ele><time>2026-04-12T08:32:30Z</time></trkpt><trkpt lat="45.45962682730423" lon="11.526852324420814"><ele>312.0</ele><time>2026-04-12T08:32:33Z</time></trkpt><trkpt lat="45.459553729347" lon="11.526882651522918"><ele>312.0</ele><time>2026-04-12T08:32:35Z</time></trkpt><trkpt lat="45.45948391770285" lon="11.526925561136398"><ele>312.0</ele><time>2026-04-12T08:32:37Z</time></trkpt><trkpt lat="45.459399599187115" lon="11.526942099371428"><ele>312.0</ele><time>2026-04-12T08:32:39Z</time></trkpt><trkpt lat="45.45931551072574" lon="11.526862209113405"><ele>312.0</ele><time>2026-04-12T08:32:41Z</time></trkpt><trkpt lat="45.45925621717872" lon="11.526746552664514"><ele>312.0</ele><time>2026-04-12T08:32:43Z</time></trkpt><trkpt lat="45.45926851414539" lon="11.526624170063828"><ele>312.0</ele><time>2026-04-12T08:32:45Z</time></trkpt><trkpt lat="45.459285915182555" lon="11.526521867263618"><ele>312.0</ele><time>2026-04-12T08:32:47Z</time></trkpt><trkpt lat="45.45933314196528" lon="11.526406997146728"><ele>312.0</ele><time>2026-04-12T08:32:49Z</time></trkpt><trkpt lat="45.459431091555665" lon="11.526445151534743"><ele>312.0</ele><time>2026-04-12T08:32:51Z</time></trkpt><trkpt lat="45.459496840395744" lon="11.526448251971338"><ele>312.0</ele><time>2026-04-12T08:32:52Z</time></trkpt><trkpt lat="45.45956778311314" lon="11.526415534320325"><ele>312.0</ele><time>2026-04-12T08:32:53Z</time></trkpt><trkpt lat="45.4596645751824" lon="11.526319499896884"><ele>312.0</ele><time>2026-04-12T08:32:55Z</time></trkpt><trkpt lat="45.459759870641356" lon="11.526259020325343"><ele>312.0</ele><time>2026-04-12T08:32:57Z</time></trkpt><trkpt lat="45.45985390190681" lon="11.526257884727533"><ele>312.0</ele><time>2026-04-12T08:33:00Z</time></trkpt><trkpt lat="45.45991353256757" lon="11.526286921835215"><ele>312.0</ele><time>2026-04-12T08:33:02Z</time></trkpt><trkpt lat="45.45996919873218" lon="11.526355247639682"><ele>312.0</ele><time>2026-04-12T08:33:04Z</time></trkpt><trkpt lat="45.46003731533253" lon="11.526403785468391"><ele>312.0</ele><time>2026-04-12T08:33:06Z</time></trkpt><trkpt lat="45.460107047015" lon="11.526462306430787"><ele>312.0</ele><time>2026-04-12T08:33:08Z</time></trkpt><trkpt lat="45.460188031717685" lon="11.526502617231154"><ele>312.0</ele><time>2026-04-12T08:33:10Z</time></trkpt><trkpt lat="45.46026226956781" lon="11.526556937585985"><ele>312.0</ele><time>2026-04-12T08:33:12Z</time></trkpt><trkpt lat="45.460348665954484" lon="11.526617107684466"><ele>312.0</ele><time>2026-04-12T08:33:14Z</time></trkpt><trkpt lat="45.460455200217396" lon="11.526662506204307"><ele>312.0</ele><time>2026-04-12T08:33:16Z</time></trkpt><trkpt lat="45.460554907647506" lon="11.52672358623181"><ele>312.0</ele><time>2026-04-12T08:33:18Z</time></trkpt><trkpt lat="45.46058916199885" lon="11.526836513083152"><ele>309.4</ele><time>2026-04-12T08:33:20Z</time></trkpt><trkpt lat="45.460548587862" lon="11.526968353066215"><ele>306.79999999999995</ele><time>2026-04-12T08:33:22Z</time></trkpt><trkpt lat="45.460632357718545" lon="11.527041329298715"><ele>304.2</ele><time>2026-04-12T08:33:24Z</time></trkpt><trkpt lat="45.46070558043268" lon="11.527042705528894"><ele>301.59999999999997</ele><time>2026-04-12T08:33:25Z</time></trkpt><trkpt lat="45.46080384134772" lon="11.527050057467516"><ele>299.0</ele><time>2026-04-12T08:33:26Z</time></trkpt><trkpt lat="45.460895289684444" lon="11.527019474382213"><ele>299.0</ele><time>2026-04-12T08:33:27Z</time></trkpt><trkpt lat="45.46097634230247" lon="11.526957967457717"><ele>299.0</ele><time>2026-04-12T08:33:28Z</time></trkpt><trkpt lat="45.46103828072983" lon="11.52688797258373"><ele>299.0</ele><time>2026-04-12T08:33:29Z</time></trkpt><trkpt lat="45.46108792486072" lon="11.526819457007823"><ele>299.0</ele><time>2026-04-12T08:33:30Z</time></trkpt><trkpt lat="45.461177719514886" lon="11.52672617101841"><ele>299.0</ele><time>2026-04-12T08:33:32Z</time></trkpt><trkpt lat="45.46125354989725" lon="11.526762803364788"><ele>299.0</ele><time>2026-04-12T08:33:54Z</time></trkpt><trkpt lat="45.46134148846281" lon="11.526764595074745"><ele>297.4</ele><time>2026-04-12T08:33:57Z</time></trkpt><trkpt lat="45.461445960949675" lon="11.52677667411516"><ele>295.79999999999995</ele><time>2026-04-12T08:34:00Z</time></trkpt><trkpt lat="45.46149609888134" lon="11.52683674603651"><ele>294.20000000000005</ele><time>2026-04-12T08:34:02Z</time></trkpt><trkpt lat="45.46157826571732" lon="11.526846479026059"><ele>292.6</ele><time>2026-04-12T08:34:04Z</time></trkpt><trkpt lat="45.461688061261874" lon="11.526856184237213"><ele>291.0</ele><time>2026-04-12T08:34:06Z</time></trkpt><trkpt lat="45.46178195706916" lon="11.526952384884021"><ele>291.0</ele><time>2026-04-12T08:34:08Z</time></trkpt><trkpt lat="45.46181128585339" lon="11.527037675383944"><ele>291.0</ele><time>2026-04-12T08:34:09Z</time></trkpt><trkpt lat="45.46185345900509" lon="11.527127856937184"><ele>291.0</ele><time>2026-04-12T08:34:10Z</time></trkpt><trkpt lat="45.4619065596317" lon="11.527191170516577"><ele>291.0</ele><time>2026-04-12T08:34:11Z</time></trkpt><trkpt lat="45.462012909540206" lon="11.527273981136899"><ele>291.0</ele><time>2026-04-12T08:34:13Z</time></trkpt><trkpt lat="45.462103793780024" lon="11.527336812576232"><ele>291.0</ele><time>2026-04-12T08:34:15Z</time></trkpt><trkpt lat="45.46219526702707" lon="11.527456322989865"><ele>291.5</ele><time>2026-04-12T08:34:17Z</time></trkpt><trkpt lat="45.462238558392244" lon="11.527525655673921"><ele>292.0</ele><time>2026-04-12T08:34:18Z</time></trkpt><trkpt lat="45.46233813518708" lon="11.527642803045348"><ele>292.5</ele><time>2026-04-12T08:34:20Z</time></trkpt><trkpt lat="45.46240737707902" lon="11.527681686132691"><ele>293.0</ele><time>2026-04-12T08:34:22Z</time></trkpt><trkpt lat="45.46261297325013" lon="11.527701821703337"><ele>293.0</ele><time>2026-04-12T08:34:30Z</time></trkpt><trkpt lat="45.46271664132588" lon="11.527729197765382"><ele>293.0</ele><time>2026-04-12T08:34:31Z</time></trkpt><trkpt lat="45.462848949164155" lon="11.527726427355775"><ele>293.0</ele><time>2026-04-12T08:34:32Z</time></trkpt><trkpt lat="45.46297763020345" lon="11.5276947889344"><ele>293.0</ele><time>2026-04-12T08:34:33Z</time></trkpt><trkpt lat="45.4630848547806" lon="11.527674627505931"><ele>292.0</ele><time>2026-04-12T08:34:34Z</time></trkpt><trkpt lat="45.46317489797944" lon="11.527679252752323"><ele>291.0</ele><time>2026-04-12T08:34:35Z</time></trkpt><trkpt lat="45.463253543507214" lon="11.52771721784295"><ele>290.0</ele><time>2026-04-12T08:34:36Z</time></trkpt><trkpt lat="45.46337734778492" lon="11.527829498988156"><ele>289.0</ele><time>2026-04-12T08:34:37Z</time></trkpt><trkpt lat="45.46350756885587" lon="11.52789967332774"><ele>286.0</ele><time>2026-04-12T08:34:38Z</time></trkpt><trkpt lat="45.463623035908896" lon="11.527923523789937"><ele>283.0</ele><time>2026-04-12T08:34:39Z</time></trkpt><trkpt lat="45.463781791232115" lon="11.527939456020084"><ele>280.0</ele><time>2026-04-12T08:34:40Z</time></trkpt><trkpt lat="45.46393453858534" lon="11.527936303539702"><ele>277.0</ele><time>2026-04-12T08:34:41Z</time></trkpt><trkpt lat="45.46404027700365" lon="11.527921574423797"><ele>275.8</ele><time>2026-04-12T08:34:42Z</time></trkpt><trkpt lat="45.464146216469146" lon="11.527916515550574"><ele>274.6</ele><time>2026-04-12T08:34:43Z</time></trkpt><trkpt lat="45.46422569709792" lon="11.527926786910028"><ele>273.40000000000003</ele><time>2026-04-12T08:34:44Z</time></trkpt><trkpt lat="45.46429760777179" lon="11.527904114460618"><ele>272.2</ele><time>2026-04-12T08:34:46Z</time></trkpt><trkpt lat="45.46446747006012" lon="11.527880186115059"><ele>271.0</ele><time>2026-04-12T08:35:00Z</time></trkpt><trkpt lat="45.46459123387323" lon="11.5278634232317"><ele>272.16666666666663</ele><time>2026-04-12T08:35:01Z</time></trkpt><trkpt lat="45.46465441740683" lon="11.527882597629713"><ele>273.3333333333333</ele><time>2026-04-12T08:35:02Z</time></trkpt><trkpt lat="45.464747133497326" lon="11.527847590283484"><ele>274.5</ele><time>2026-04-12T08:35:03Z</time></trkpt><trkpt lat="45.46484119487655" lon="11.527808086357819"><ele>275.6666666666667</ele><time>2026-04-12T08:35:04Z</time></trkpt><trkpt lat="45.46493205319688" lon="11.52777809827837"><ele>276.83333333333337</ele><time>2026-04-12T08:35:05Z</time></trkpt><trkpt lat="45.46502146060616" lon="11.527732466804391"><ele>278.0</ele><time>2026-04-12T08:35:06Z</time></trkpt><trkpt lat="45.46509571029285" lon="11.527695078881957"><ele>278.0</ele><time>2026-04-12T08:35:07Z</time></trkpt><trkpt lat="45.46516289442781" lon="11.527657658889185"><ele>278.0</ele><time>2026-04-12T08:35:09Z</time></trkpt><trkpt lat="45.46521229688103" lon="11.52771963171464"><ele>278.0</ele><time>2026-04-12T08:35:18Z</time></trkpt><trkpt lat="45.46515007921392" lon="11.52778783441665"><ele>278.0</ele><time>2026-04-12T08:35:23Z</time></trkpt><trkpt lat="45.46464656203" lon="11.528256965338775"><ele>276.6</ele><time>2026-04-12T08:35:26Z</time></trkpt><trkpt lat="45.46455430751635" lon="11.528359811706846"><ele>275.20000000000005</ele><time>2026-04-12T08:35:27Z</time></trkpt><trkpt lat="45.464485059718484" lon="11.528387015622148"><ele>273.8</ele><time>2026-04-12T08:35:28Z</time></trkpt><trkpt lat="45.46436952796514" lon="11.528464725583492"><ele>272.40000000000003</ele><time>2026-04-12T08:35:30Z</time></trkpt><trkpt lat="45.46431648878956" lon="11.52851495414672"><ele>271.0</ele><time>2026-04-12T08:35:31Z</time></trkpt><trkpt lat="45.464216135052695" lon="11.528593819760133"><ele>271.0</ele><time>2026-04-12T08:35:33Z</time></trkpt><trkpt lat="45.46413107165112" lon="11.528692695615009"><ele>271.0</ele><time>2026-04-12T08:35:34Z</time></trkpt><trkpt lat="45.46405254981392" lon="11.528734898271603"><ele>271.0</ele><time>2026-04-12T08:35:35Z</time></trkpt><trkpt lat="45.4639767542745" lon="11.528791974294919"><ele>271.0</ele><time>2026-04-12T08:35:36Z</time></trkpt><trkpt lat="45.46391767182965" lon="11.52888061161478"><ele>271.0</ele><time>2026-04-12T08:35:37Z</time></trkpt><trkpt lat="45.463886325485426" lon="11.528958508500425"><ele>271.0</ele><time>2026-04-12T08:35:38Z</time></trkpt><trkpt lat="45.46384858124866" lon="11.52903758773292"><ele>270.8333333333333</ele><time>2026-04-12T08:35:39Z</time></trkpt><trkpt lat="45.46381056708354" lon="11.529115905456706"><ele>270.66666666666663</ele><time>2026-04-12T08:35:40Z</time></trkpt><trkpt lat="45.46374247850105" lon="11.529157971550896"><ele>270.5</ele><time>2026-04-12T08:35:42Z</time></trkpt><trkpt lat="45.46368500734823" lon="11.52921284008717"><ele>270.3333333333333</ele><time>2026-04-12T08:35:43Z</time></trkpt><trkpt lat="45.463635558723865" lon="11.529290548408715"><ele>270.1666666666667</ele><time>2026-04-12T08:35:44Z</time></trkpt><trkpt lat="45.46358440439426" lon="11.529348511316307"><ele>270.0</ele><time>2026-04-12T08:35:45Z</time></trkpt><trkpt lat="45.46346874345369" lon="11.529404261605153"><ele>270.0</ele><time>2026-04-12T08:35:47Z</time></trkpt><trkpt lat="45.46341350954178" lon="11.529459279048536"><ele>270.0</ele><time>2026-04-12T08:35:48Z</time></trkpt><trkpt lat="45.46335242652659" lon="11.529515021246462"><ele>270.0</ele><time>2026-04-12T08:35:49Z</time></trkpt><trkpt lat="45.46328364436751" lon="11.529539934656121"><ele>270.0</ele><time>2026-04-12T08:35:50Z</time></trkpt><trkpt lat="45.46320747241582" lon="11.529545728321715"><ele>270.0</ele><time>2026-04-12T08:35:51Z</time></trkpt><trkpt lat="45.46314340894491" lon="11.529570474120401"><ele>270.0</ele><time>2026-04-12T08:35:52Z</time></trkpt><trkpt lat="45.46307754332559" lon="11.529604248484615"><ele>270.0</ele><time>2026-04-12T08:35:53Z</time></trkpt><trkpt lat="45.463017249948834" lon="11.529645593157033"><ele>271.1666666666667</ele><time>2026-04-12T08:35:54Z</time></trkpt><trkpt lat="45.46292331738558" lon="11.529725057662743"><ele>272.3333333333333</ele><time>2026-04-12T08:35:56Z</time></trkpt><trkpt lat="45.46286449585206" lon="11.529806069871176"><ele>273.5</ele><time>2026-04-12T08:35:58Z</time></trkpt><trkpt lat="45.462834389601" lon="11.529894922151893"><ele>274.66666666666663</ele><time>2026-04-12T08:35:59Z</time></trkpt><trkpt lat="45.46280060226156" lon="11.529994551508903"><ele>275.8333333333333</ele><time>2026-04-12T08:36:00Z</time></trkpt><trkpt lat="45.46275545028601" lon="11.530115237358949"><ele>277.0</ele><time>2026-04-12T08:36:01Z</time></trkpt><trkpt lat="45.462726803133926" lon="11.530211273639672"><ele>277.0</ele><time>2026-04-12T08:36:02Z</time></trkpt><trkpt lat="45.46266610232036" lon="11.5303617806119"><ele>277.0</ele><time>2026-04-12T08:36:04Z</time></trkpt><trkpt lat="45.4626185746254" lon="11.530437123683924"><ele>277.0</ele><time>2026-04-12T08:36:05Z</time></trkpt><trkpt lat="45.46252632886203" lon="11.530533523403422"><ele>277.0</ele><time>2026-04-12T08:36:07Z</time></trkpt><trkpt lat="45.46247671014602" lon="11.53059616317176"><ele>277.0</ele><time>2026-04-12T08:36:08Z</time></trkpt><trkpt lat="45.46240840029743" lon="11.530653387349986"><ele>276.0</ele><time>2026-04-12T08:36:09Z</time></trkpt><trkpt lat="45.46234953992708" lon="11.530708699272745"><ele>275.0</ele><time>2026-04-12T08:36:10Z</time></trkpt><trkpt lat="45.46230200500783" lon="11.530779733776663"><ele>274.0</ele><time>2026-04-12T08:36:11Z</time></trkpt><trkpt lat="45.46225878533687" lon="11.530860980829244"><ele>273.0</ele><time>2026-04-12T08:36:12Z</time></trkpt><trkpt lat="45.46221797418262" lon="11.530939080215418"><ele>272.0</ele><time>2026-04-12T08:36:13Z</time></trkpt><trkpt lat="45.46217427574012" lon="11.531015964046237"><ele>271.0</ele><time>2026-04-12T08:36:14Z</time></trkpt><trkpt lat="45.46208386836217" lon="11.531009739677659"><ele>270.0</ele><time>2026-04-12T08:36:16Z</time></trkpt><trkpt lat="45.462006169492696" lon="11.531038045252599"><ele>269.0</ele><time>2026-04-12T08:36:19Z</time></trkpt><trkpt lat="45.46190812571955" lon="11.531066060665246"><ele>268.0</ele><time>2026-04-12T08:36:21Z</time></trkpt><trkpt lat="45.4617914641592" lon="11.531091655252219"><ele>267.0</ele><time>2026-04-12T08:36:23Z</time></trkpt><trkpt lat="45.46172856478903" lon="11.531105376443184"><ele>266.0</ele><time>2026-04-12T08:36:24Z</time></trkpt><trkpt lat="45.46160696778988" lon="11.531179864306107"><ele>265.0</ele><time>2026-04-12T08:36:26Z</time></trkpt><trkpt lat="45.46152940166167" lon="11.531236325645732"><ele>263.2</ele><time>2026-04-12T08:36:28Z</time></trkpt><trkpt lat="45.46143047248473" lon="11.53129172681133"><ele>261.4</ele><time>2026-04-12T08:36:31Z</time></trkpt><trkpt lat="45.461359597169995" lon="11.531281728942208"><ele>259.6</ele><time>2026-04-12T08:36:32Z</time></trkpt><trkpt lat="45.46125768716524" lon="11.531277325341003"><ele>257.8</ele><time>2026-04-12T08:36:33Z</time></trkpt><trkpt lat="45.46113706299888" lon="11.531280190094726"><ele>256.0</ele><time>2026-04-12T08:36:34Z</time></trkpt><trkpt lat="45.461033393477585" lon="11.531329100949971"><ele>255.8</ele><time>2026-04-12T08:36:35Z</time></trkpt><trkpt lat="45.460938099909846" lon="11.531415296183567"><ele>255.60000000000002</ele><time>2026-04-12T08:36:36Z</time></trkpt><trkpt lat="45.46085227392167" lon="11.531495525790946"><ele>255.4</ele><time>2026-04-12T08:36:37Z</time></trkpt><trkpt lat="45.46078485125312" lon="11.531558627783749"><ele>255.2</ele><time>2026-04-12T08:36:38Z</time></trkpt><trkpt lat="45.46067261285138" lon="11.531575304752423"><ele>255.0</ele><time>2026-04-12T08:36:40Z</time></trkpt><trkpt lat="45.46060214524523" lon="11.53153588200552"><ele>255.0</ele><time>2026-04-12T08:36:43Z</time></trkpt><trkpt lat="45.460538850226264" lon="11.531567633784181"><ele>255.0</ele><time>2026-04-12T08:36:45Z</time></trkpt><trkpt lat="45.460480131055476" lon="11.531639298633468"><ele>255.0</ele><time>2026-04-12T08:36:47Z</time></trkpt><trkpt lat="45.46035174250083" lon="11.531665214527731"><ele>255.0</ele><time>2026-04-12T08:36:49Z</time></trkpt><trkpt lat="45.46026102936067" lon="11.531675682663597"><ele>255.0</ele><time>2026-04-12T08:36:50Z</time></trkpt><trkpt lat="45.46016920372386" lon="11.531678013021551"><ele>257.6</ele><time>2026-04-12T08:36:51Z</time></trkpt><trkpt lat="45.45999651812202" lon="11.531822722861376"><ele>260.2</ele><time>2026-04-12T08:36:55Z</time></trkpt><trkpt lat="45.45994106308342" lon="11.531880554860079"><ele>262.8</ele><time>2026-04-12T08:36:56Z</time></trkpt><trkpt lat="45.45985486530445" lon="11.531937190153567"><ele>265.4</ele><time>2026-04-12T08:36:58Z</time></trkpt><trkpt lat="45.459791265678525" lon="11.531886926111957"><ele>268.0</ele><time>2026-04-12T08:36:59Z</time></trkpt><trkpt lat="45.45969638433884" lon="11.53179165332433"><ele>269.2</ele><time>2026-04-12T08:37:01Z</time></trkpt><trkpt lat="45.45960514156636" lon="11.5317383135369"><ele>270.4</ele><time>2026-04-12T08:37:03Z</time></trkpt><trkpt lat="45.459536612135146" lon="11.531651824092252"><ele>271.59999999999997</ele><time>2026-04-12T08:37:05Z</time></trkpt><trkpt lat="45.45945727062617" lon="11.531621041088005"><ele>272.8</ele><time>2026-04-12T08:37:07Z</time></trkpt><trkpt lat="45.459381797409335" lon="11.531548994464721"><ele>274.0</ele><time>2026-04-12T08:37:12Z</time></trkpt><trkpt lat="45.45929121805218" lon="11.531490040582598"><ele>274.0</ele><time>2026-04-12T08:37:14Z</time></trkpt><trkpt lat="45.45920897352127" lon="11.531428453023363"><ele>274.0</ele><time>2026-04-12T08:37:15Z</time></trkpt><trkpt lat="45.45914518877329" lon="11.531436887718215"><ele>274.0</ele><time>2026-04-12T08:37:16Z</time></trkpt><trkpt lat="45.45904020815822" lon="11.531426895387181"><ele>274.0</ele><time>2026-04-12T08:37:18Z</time></trkpt><trkpt lat="45.458982519729794" lon="11.531339222254372"><ele>274.0</ele><time>2026-04-12T08:37:20Z</time></trkpt><trkpt lat="45.45891686723818" lon="11.531309696762483"><ele>274.0</ele><time>2026-04-12T08:37:22Z</time></trkpt><trkpt lat="45.458861198216155" lon="11.531237452815978"><ele>274.8</ele><time>2026-04-12T08:37:24Z</time></trkpt><trkpt lat="45.458729104120316" lon="11.531164351892476"><ele>275.59999999999997</ele><time>2026-04-12T08:37:26Z</time></trkpt><trkpt lat="45.45866854865582" lon="11.531131664235817"><ele>276.4</ele><time>2026-04-12T08:37:27Z</time></trkpt><trkpt lat="45.45857094821535" lon="11.531078430301886"><ele>277.2</ele><time>2026-04-12T08:37:29Z</time></trkpt><trkpt lat="45.45852266254298" lon="11.531011037453801"><ele>278.0</ele><time>2026-04-12T08:37:30Z</time></trkpt><trkpt lat="45.4584462276984" lon="11.530876352565972"><ele>278.0</ele><time>2026-04-12T08:37:32Z</time></trkpt><trkpt lat="45.458341810589964" lon="11.530752059574427"><ele>278.0</ele><time>2026-04-12T08:37:34Z</time></trkpt><trkpt lat="45.4582828328933" lon="11.53066821315203"><ele>278.0</ele><time>2026-04-12T08:37:35Z</time></trkpt><trkpt lat="45.45822325756268" lon="11.530609890850787"><ele>278.0</ele><time>2026-04-12T08:37:36Z</time></trkpt><trkpt lat="45.458165859289494" lon="11.530567238579179"><ele>278.0</ele><time>2026-04-12T08:37:37Z</time></trkpt><trkpt lat="45.458076609081814" lon="11.530447893302068"><ele>279.0</ele><time>2026-04-12T08:37:39Z</time></trkpt><trkpt lat="45.45803307298132" lon="11.530378303382752"><ele>280.0</ele><time>2026-04-12T08:37:40Z</time></trkpt><trkpt lat="45.45795970483232" lon="11.530320863235985"><ele>281.0</ele><time>2026-04-12T08:37:42Z</time></trkpt><trkpt lat="45.457884627532835" lon="11.530231741540446"><ele>282.0</ele><time>2026-04-12T08:37:44Z</time></trkpt><trkpt lat="45.45781138442344" lon="11.53017745414229"><ele>283.0</ele><time>2026-04-12T08:37:45Z</time></trkpt><trkpt lat="45.45781071833461" lon="11.530032217222331"><ele>284.0</ele><time>2026-04-12T08:37:47Z</time></trkpt><trkpt lat="45.45773249411331" lon="11.529960797011256"><ele>284.0</ele><time>2026-04-12T08:37:49Z</time></trkpt><trkpt lat="45.45763319777068" lon="11.529882222108883"><ele>284.0</ele><time>2026-04-12T08:37:51Z</time></trkpt><trkpt lat="45.457507267498464" lon="11.529801847740703"><ele>284.0</ele><time>2026-04-12T08:37:53Z</time></trkpt><trkpt lat="45.457420392220506" lon="11.529781359907545"><ele>284.0</ele><time>2026-04-12T08:37:54Z</time></trkpt><trkpt lat="45.45733563683984" lon="11.52979519567008"><ele>284.0</ele><time>2026-04-12T08:37:55Z</time></trkpt><trkpt lat="45.45726117499757" lon="11.52982014634713"><ele>284.0</ele><time>2026-04-12T08:37:56Z</time></trkpt><trkpt lat="45.457180009306505" lon="11.529848683529103"><ele>284.0</ele><time>2026-04-12T08:37:57Z</time></trkpt><trkpt lat="45.45709793026288" lon="11.529888137053309"><ele>284.0</ele><time>2026-04-12T08:37:58Z</time></trkpt><trkpt lat="45.45699551389772" lon="11.52993140716316"><ele>284.0</ele><time>2026-04-12T08:38:00Z</time></trkpt><trkpt lat="45.45692585907249" lon="11.529952584646567"><ele>284.0</ele><time>2026-04-12T08:38:02Z</time></trkpt><trkpt lat="45.4568565770597" lon="11.52997156894996"><ele>284.0</ele><time>2026-04-12T08:38:03Z</time></trkpt><trkpt lat="45.45676402939668" lon="11.529995083199957"><ele>285.59999999999997</ele><time>2026-04-12T08:38:05Z</time></trkpt><trkpt lat="45.45667665289481" lon="11.530017412157841"><ele>287.2</ele><time>2026-04-12T08:38:07Z</time></trkpt><trkpt lat="45.45656853275946" lon="11.53004579999634"><ele>288.79999999999995</ele><time>2026-04-12T08:38:09Z</time></trkpt><trkpt lat="45.45649100605933" lon="11.530066155371616"><ele>290.4</ele><time>2026-04-12T08:38:10Z</time></trkpt><trkpt lat="45.45640961633158" lon="11.53008752493484"><ele>292.0</ele><time>2026-04-12T08:38:11Z</time></trkpt><trkpt lat="45.45632114795103" lon="11.530111888369069"><ele>291.2</ele><time>2026-04-12T08:38:12Z</time></trkpt><trkpt lat="45.456242228475695" lon="11.53013768105708"><ele>290.4</ele><time>2026-04-12T08:38:13Z</time></trkpt><trkpt lat="45.456188062352055" lon="11.53026294664085"><ele>289.6</ele><time>2026-04-12T08:38:15Z</time></trkpt><trkpt lat="45.455995738550904" lon="11.530222265976276"><ele>288.8</ele><time>2026-04-12T08:38:22Z</time></trkpt><trkpt lat="45.45592717016142" lon="11.53024174354529"><ele>288.0</ele><time>2026-04-12T08:38:23Z</time></trkpt><trkpt lat="45.45584863676024" lon="11.530249165252526"><ele>288.0</ele><time>2026-04-12T08:38:24Z</time></trkpt><trkpt lat="45.45573709235148" lon="11.530235493696456"><ele>288.0</ele><time>2026-04-12T08:38:25Z</time></trkpt><trkpt lat="45.45560630948769" lon="11.530225329580247"><ele>288.0</ele><time>2026-04-12T08:38:26Z</time></trkpt><trkpt lat="45.45547682140852" lon="11.53017824205384"><ele>288.0</ele><time>2026-04-12T08:38:27Z</time></trkpt><trkpt lat="45.45533911658794" lon="11.530128247564635"><ele>288.75</ele><time>2026-04-12T08:38:28Z</time></trkpt><trkpt lat="45.455214358884" lon="11.530086503178968"><ele>289.5</ele><time>2026-04-12T08:38:29Z</time></trkpt><trkpt lat="45.45508107230846" lon="11.530067329018799"><ele>290.25</ele><time>2026-04-12T08:38:30Z</time></trkpt><trkpt lat="45.45495075383404" lon="11.530058555106475"><ele>291.0</ele><time>2026-04-12T08:38:31Z</time></trkpt><trkpt lat="45.454828155127814" lon="11.530069915216831"><ele>291.0</ele><time>2026-04-12T08:38:32Z</time></trkpt><trkpt lat="45.45471539231703" lon="11.530134427239425"><ele>291.0</ele><time>2026-04-12T08:38:33Z</time></trkpt><trkpt lat="45.4546056409686" lon="11.53022255959197"><ele>291.0</ele><time>2026-04-12T08:38:34Z</time></trkpt><trkpt lat="45.45451476156271" lon="11.530341298146645"><ele>291.0</ele><time>2026-04-12T08:38:35Z</time></trkpt><trkpt lat="45.45442227000893" lon="11.530463896668632"><ele>293.8</ele><time>2026-04-12T08:38:36Z</time></trkpt><trkpt lat="45.45433656093259" lon="11.530567650567399"><ele>296.6</ele><time>2026-04-12T08:38:37Z</time></trkpt><trkpt lat="45.454267610992595" lon="11.530649719790059"><ele>299.4</ele><time>2026-04-12T08:38:38Z</time></trkpt><trkpt lat="45.4542057458754" lon="11.530727088114213"><ele>302.2</ele><time>2026-04-12T08:38:39Z</time></trkpt><trkpt lat="45.45413732250577" lon="11.530805778407277"><ele>305.0</ele><time>2026-04-12T08:38:40Z</time></trkpt><trkpt lat="45.454066191858885" lon="11.53090361900548"><ele>305.0</ele><time>2026-04-12T08:38:41Z</time></trkpt><trkpt lat="45.454003978260765" lon="11.531026500096074"><ele>305.0</ele><time>2026-04-12T08:38:42Z</time></trkpt><trkpt lat="45.453949827814284" lon="11.53114785617135"><ele>305.0</ele><time>2026-04-12T08:38:43Z</time></trkpt><trkpt lat="45.45389185408961" lon="11.531256271244176"><ele>305.0</ele><time>2026-04-12T08:38:44Z</time></trkpt><trkpt lat="45.45382355446693" lon="11.53133141349201"><ele>305.0</ele><time>2026-04-12T08:38:45Z</time></trkpt><trkpt lat="45.45372636943158" lon="11.531367009362851"><ele>305.6</ele><time>2026-04-12T08:38:46Z</time></trkpt><trkpt lat="45.453621513200495" lon="11.531388835974418"><ele>306.2</ele><time>2026-04-12T08:38:47Z</time></trkpt><trkpt lat="45.453509099507876" lon="11.53138134985113"><ele>306.8</ele><time>2026-04-12T08:38:48Z</time></trkpt><trkpt lat="45.45341833623216" lon="11.531400341408693"><ele>307.4</ele><time>2026-04-12T08:38:49Z</time></trkpt><trkpt lat="45.45333520945759" lon="11.531454704182599"><ele>308.0</ele><time>2026-04-12T08:38:50Z</time></trkpt><trkpt lat="45.45323217163235" lon="11.531564956031279"><ele>308.0</ele><time>2026-04-12T08:38:51Z</time></trkpt><trkpt lat="45.45314692214515" lon="11.531648691972341"><ele>308.0</ele><time>2026-04-12T08:38:52Z</time></trkpt><trkpt lat="45.453069997468816" lon="11.531740982534558"><ele>308.0</ele><time>2026-04-12T08:38:53Z</time></trkpt><trkpt lat="45.452993775046" lon="11.531814139952479"><ele>308.0</ele><time>2026-04-12T08:38:54Z</time></trkpt><trkpt lat="45.4529053081317" lon="11.531877609634515"><ele>308.0</ele><time>2026-04-12T08:38:55Z</time></trkpt><trkpt lat="45.45281468805091" lon="11.531927310063654"><ele>310.2</ele><time>2026-04-12T08:38:56Z</time></trkpt><trkpt lat="45.45271857437762" lon="11.531966882000328"><ele>312.4</ele><time>2026-04-12T08:38:57Z</time></trkpt><trkpt lat="45.45261789509881" lon="11.531993580435879"><ele>314.59999999999997</ele><time>2026-04-12T08:38:58Z</time></trkpt><trkpt lat="45.45251799866698" lon="11.532013666320928"><ele>316.8</ele><time>2026-04-12T08:38:59Z</time></trkpt><trkpt lat="45.452411969703526" lon="11.532029467867948"><ele>319.0</ele><time>2026-04-12T08:39:00Z</time></trkpt><trkpt lat="45.452308533701114" lon="11.532041624568498"><ele>317.59999999999997</ele><time>2026-04-12T08:39:01Z</time></trkpt><trkpt lat="45.452206289866055" lon="11.532071324926854"><ele>316.2</ele><time>2026-04-12T08:39:02Z</time></trkpt><trkpt lat="45.45210604357434" lon="11.532103018481745"><ele>314.79999999999995</ele><time>2026-04-12T08:39:03Z</time></trkpt><trkpt lat="45.45200716422393" lon="11.532127501649192"><ele>313.4</ele><time>2026-04-12T08:39:04Z</time></trkpt><trkpt lat="45.45190749946712" lon="11.532145398816803"><ele>312.0</ele><time>2026-04-12T08:39:05Z</time></trkpt><trkpt lat="45.451815591853965" lon="11.532167937446069"><ele>314.3333333333333</ele><time>2026-04-12T08:39:06Z</time></trkpt><trkpt lat="45.45172488563642" lon="11.532191983003415"><ele>316.6666666666667</ele><time>2026-04-12T08:39:07Z</time></trkpt><trkpt lat="45.451644060122206" lon="11.532204598228976"><ele>319.0</ele><time>2026-04-12T08:39:08Z</time></trkpt><trkpt lat="45.4515735944736" lon="11.532211136740464"><ele>321.33333333333337</ele><time>2026-04-12T08:39:09Z</time></trkpt><trkpt lat="45.45149652867433" lon="11.532220646390101"><ele>323.6666666666667</ele><time>2026-04-12T08:39:10Z</time></trkpt><trkpt lat="45.451411531377865" lon="11.532245249846524"><ele>326.0</ele><time>2026-04-12T08:39:11Z</time></trkpt><trkpt lat="45.45131619550182" lon="11.532273726964894"><ele>328.4</ele><time>2026-04-12T08:39:12Z</time></trkpt><trkpt lat="45.4512188010139" lon="11.532304204156949"><ele>330.8</ele><time>2026-04-12T08:39:13Z</time></trkpt><trkpt lat="45.45111813179594" lon="11.532332559062898"><ele>333.2</ele><time>2026-04-12T08:39:14Z</time></trkpt><trkpt lat="45.45101699457947" lon="11.5323635762605"><ele>335.59999999999997</ele><time>2026-04-12T08:39:15Z</time></trkpt><trkpt lat="45.45091430362335" lon="11.532385619896704"><ele>338.0</ele><time>2026-04-12T08:39:16Z</time></trkpt><trkpt lat="45.450812033343446" lon="11.532392274637255"><ele>338.0</ele><time>2026-04-12T08:39:17Z</time></trkpt><trkpt lat="45.45070683887059" lon="11.532403440937786"><ele>338.0</ele><time>2026-04-12T08:39:18Z</time></trkpt><trkpt lat="45.450599165491326" lon="11.532420377871151"><ele>338.0</ele><time>2026-04-12T08:39:19Z</time></trkpt><trkpt lat="45.45048978436794" lon="11.532460738607641"><ele>338.0</ele><time>2026-04-12T08:39:20Z</time></trkpt><trkpt lat="45.45038447005164" lon="11.532500442836467"><ele>338.0</ele><time>2026-04-12T08:39:21Z</time></trkpt><trkpt lat="45.45028078113885" lon="11.532537184071774"><ele>339.4</ele><time>2026-04-12T08:39:22Z</time></trkpt><trkpt lat="45.450184353720864" lon="11.532566093238184"><ele>340.79999999999995</ele><time>2026-04-12T08:39:23Z</time></trkpt><trkpt lat="45.45009277876302" lon="11.532578213850648"><ele>342.2</ele><time>2026-04-12T08:39:24Z</time></trkpt><trkpt lat="45.450005537902136" lon="11.532593301009872"><ele>343.6</ele><time>2026-04-12T08:39:25Z</time></trkpt><trkpt lat="45.44992310366972" lon="11.53257727253734"><ele>345.0</ele><time>2026-04-12T08:39:26Z</time></trkpt><trkpt lat="45.44984617613053" lon="11.532506030191565"><ele>345.0</ele><time>2026-04-12T08:39:27Z</time></trkpt><trkpt lat="45.44977536500918" lon="11.53240672818345"><ele>345.0</ele><time>2026-04-12T08:39:28Z</time></trkpt><trkpt lat="45.44971427409614" lon="11.532324587013566"><ele>345.0</ele><time>2026-04-12T08:39:29Z</time></trkpt><trkpt lat="45.4496576937076" lon="11.53224785817735"><ele>345.0</ele><time>2026-04-12T08:39:30Z</time></trkpt><trkpt lat="45.449582779233836" lon="11.53219689655926"><ele>345.0</ele><time>2026-04-12T08:39:31Z</time></trkpt><trkpt lat="45.44950626741091" lon="11.53216036647958"><ele>345.0</ele><time>2026-04-12T08:39:32Z</time></trkpt><trkpt lat="45.449430872259754" lon="11.532121587773842"><ele>345.0</ele><time>2026-04-12T08:39:33Z</time></trkpt><trkpt lat="45.44935587688413" lon="11.532098434761354"><ele>345.0</ele><time>2026-04-12T08:39:34Z</time></trkpt><trkpt lat="45.44929258032784" lon="11.532088604987642"><ele>345.0</ele><time>2026-04-12T08:39:35Z</time></trkpt><trkpt lat="45.44918177752424" lon="11.532057844776224"><ele>345.0</ele><time>2026-04-12T08:39:37Z</time></trkpt><trkpt lat="45.44911528748141" lon="11.532046491339294"><ele>345.0</ele><time>2026-04-12T08:39:38Z</time></trkpt><trkpt lat="45.44901828867717" lon="11.532029928559783"><ele>345.0</ele><time>2026-04-12T08:39:39Z</time></trkpt><trkpt lat="45.44887861746782" lon="11.531721984712409"><ele>345.0</ele><time>2026-04-12T08:39:40Z</time></trkpt><trkpt lat="45.44885685178802" lon="11.531590673997831"><ele>345.0</ele><time>2026-04-12T08:39:41Z</time></trkpt><trkpt lat="45.44884046307695" lon="11.53147365772811"><ele>345.0</ele><time>2026-04-12T08:39:42Z</time></trkpt><trkpt lat="45.44884423331138" lon="11.531343597437143"><ele>345.0</ele><time>2026-04-12T08:39:43Z</time></trkpt><trkpt lat="45.44884127736457" lon="11.531169996039965"><ele>345.0</ele><time>2026-04-12T08:39:44Z</time></trkpt><trkpt lat="45.44884389912341" lon="11.53102356868139"><ele>344.6</ele><time>2026-04-12T08:39:45Z</time></trkpt><trkpt lat="45.44882625065972" lon="11.530930191541488"><ele>344.2</ele><time>2026-04-12T08:39:46Z</time></trkpt><trkpt lat="45.448756458373026" lon="11.530870619739174"><ele>343.79999999999995</ele><time>2026-04-12T08:39:47Z</time></trkpt><trkpt lat="45.44867785183185" lon="11.530838386130187"><ele>343.4</ele><time>2026-04-12T08:39:48Z</time></trkpt><trkpt lat="45.44856025380454" lon="11.53081029438568"><ele>343.0</ele><time>2026-04-12T08:39:49Z</time></trkpt><trkpt lat="45.44841428272399" lon="11.530786395700456"><ele>343.0</ele><time>2026-04-12T08:39:50Z</time></trkpt><trkpt lat="45.44830811513622" lon="11.530787017749107"><ele>343.0</ele><time>2026-04-12T08:39:51Z</time></trkpt><trkpt lat="45.44821110453153" lon="11.53076796088323"><ele>343.0</ele><time>2026-04-12T08:39:52Z</time></trkpt><trkpt lat="45.44814762584454" lon="11.530742321871653"><ele>343.0</ele><time>2026-04-12T08:39:53Z</time></trkpt><trkpt lat="45.448084266637196" lon="11.530729247519572"><ele>343.0</ele><time>2026-04-12T08:39:54Z</time></trkpt><trkpt lat="45.44801394160092" lon="11.530697611022623"><ele>343.0</ele><time>2026-04-12T08:39:57Z</time></trkpt><trkpt lat="45.4479250061637" lon="11.530635396224515"><ele>341.66666666666663</ele><time>2026-04-12T08:40:02Z</time></trkpt><trkpt lat="45.447840313827264" lon="11.530592203427203"><ele>340.3333333333333</ele><time>2026-04-12T08:40:04Z</time></trkpt><trkpt lat="45.447748451720244" lon="11.530537363515013"><ele>339.0</ele><time>2026-04-12T08:40:06Z</time></trkpt><trkpt lat="45.44769151631735" lon="11.53049077770998"><ele>337.6666666666667</ele><time>2026-04-12T08:40:08Z</time></trkpt><trkpt lat="45.44766229052223" lon="11.530373215446174"><ele>336.33333333333337</ele><time>2026-04-12T08:40:10Z</time></trkpt><trkpt lat="45.44763562016186" lon="11.530241770473904"><ele>335.0</ele><time>2026-04-12T08:40:12Z</time></trkpt><trkpt lat="45.447631096332316" lon="11.530068103622243"><ele>335.0</ele><time>2026-04-12T08:40:14Z</time></trkpt><trkpt lat="45.447643817310095" lon="11.529963510323352"><ele>335.0</ele><time>2026-04-12T08:40:15Z</time></trkpt><trkpt lat="45.44765354674781" lon="11.529864128227885"><ele>335.0</ele><time>2026-04-12T08:40:16Z</time></trkpt><trkpt lat="45.44767153547417" lon="11.529777581158543"><ele>335.0</ele><time>2026-04-12T08:40:17Z</time></trkpt><trkpt lat="45.44769067847711" lon="11.529629600092251"><ele>335.0</ele><time>2026-04-12T08:40:19Z</time></trkpt><trkpt lat="45.44770922413186" lon="11.529500338678915"><ele>335.0</ele><time>2026-04-12T08:40:21Z</time></trkpt><trkpt lat="45.447707676860325" lon="11.529342459877855"><ele>332.5</ele><time>2026-04-12T08:40:23Z</time></trkpt><trkpt lat="45.44769521543894" lon="11.529253435640758"><ele>330.0</ele><time>2026-04-12T08:40:24Z</time></trkpt><trkpt lat="45.44765289994886" lon="11.529115757049652"><ele>327.5</ele><time>2026-04-12T08:40:26Z</time></trkpt><trkpt lat="45.44762355162638" lon="11.52902984995315"><ele>325.0</ele><time>2026-04-12T08:40:28Z</time></trkpt><trkpt lat="45.44759076379348" lon="11.528939010039156"><ele>322.5</ele><time>2026-04-12T08:40:30Z</time></trkpt><trkpt lat="45.44752613197089" lon="11.528839368838725"><ele>320.0</ele><time>2026-04-12T08:40:32Z</time></trkpt><trkpt lat="45.44748074072536" lon="11.528732344139819"><ele>316.5</ele><time>2026-04-12T08:40:34Z</time></trkpt><trkpt lat="45.44742748156897" lon="11.528645636994106"><ele>313.0</ele><time>2026-04-12T08:40:36Z</time></trkpt><trkpt lat="45.447346117781464" lon="11.528575728775913"><ele>309.5</ele><time>2026-04-12T08:40:38Z</time></trkpt><trkpt lat="45.447280925973864" lon="11.528507825607122"><ele>306.0</ele><time>2026-04-12T08:40:40Z</time></trkpt><trkpt lat="45.44726993502523" lon="11.528396254998976"><ele>302.5</ele><time>2026-04-12T08:40:42Z</time></trkpt><trkpt lat="45.447248136304864" lon="11.528301974388311"><ele>299.0</ele><time>2026-04-12T08:40:43Z</time></trkpt><trkpt lat="45.447224862937766" lon="11.528207595941284"><ele>299.0</ele><time>2026-04-12T08:40:44Z</time></trkpt><trkpt lat="45.44720977806699" lon="11.52804513066568"><ele>299.0</ele><time>2026-04-12T08:40:46Z</time></trkpt><trkpt lat="45.4471735861983" lon="11.527966489073476"><ele>299.0</ele><time>2026-04-12T08:40:47Z</time></trkpt><trkpt lat="45.44713900643489" lon="11.527812595212248"><ele>299.0</ele><time>2026-04-12T08:40:49Z</time></trkpt><trkpt lat="45.447122316250265" lon="11.52764598808971"><ele>299.0</ele><time>2026-04-12T08:40:51Z</time></trkpt><trkpt lat="45.447086024891966" lon="11.527570756725536"><ele>300.59999999999997</ele><time>2026-04-12T08:40:52Z</time></trkpt><trkpt lat="45.44704802037725" lon="11.527460465979285"><ele>302.2</ele><time>2026-04-12T08:40:54Z</time></trkpt><trkpt lat="45.44702630342515" lon="11.527335294298632"><ele>303.79999999999995</ele><time>2026-04-12T08:40:56Z</time></trkpt><trkpt lat="45.44698797083265" lon="11.527163999868803"><ele>305.4</ele><time>2026-04-12T08:40:58Z</time></trkpt><trkpt lat="45.44694151890917" lon="11.527014746163838"><ele>307.0</ele><time>2026-04-12T08:41:00Z</time></trkpt><trkpt lat="45.446875107068394" lon="11.52689652016948"><ele>307.0</ele><time>2026-04-12T08:41:02Z</time></trkpt><trkpt lat="45.446820564816484" lon="11.526755529312371"><ele>307.0</ele><time>2026-04-12T08:41:04Z</time></trkpt><trkpt lat="45.44674595562823" lon="11.526659447369614"><ele>307.0</ele><time>2026-04-12T08:41:06Z</time></trkpt><trkpt lat="45.446660921112986" lon="11.526526169899034"><ele>307.0</ele><time>2026-04-12T08:41:08Z</time></trkpt><trkpt lat="45.44659057090791" lon="11.5264450155298"><ele>307.0</ele><time>2026-04-12T08:41:10Z</time></trkpt><trkpt lat="45.4465146241849" lon="11.526329358560169"><ele>306.99999999999994</ele><time>2026-04-12T08:41:12Z</time></trkpt><trkpt lat="45.446461772016434" lon="11.526253995242183"><ele>307.0</ele><time>2026-04-12T08:41:13Z</time></trkpt><trkpt lat="45.44640221196436" lon="11.526188969621556"><ele>307.0</ele><time>2026-04-12T08:41:14Z</time></trkpt><trkpt lat="45.446358081426965" lon="11.526124709363405"><ele>307.0</ele><time>2026-04-12T08:41:15Z</time></trkpt><trkpt lat="45.44631167234189" lon="11.526054918163476"><ele>307.0</ele><time>2026-04-12T08:41:16Z</time></trkpt><trkpt lat="45.44626148453463" lon="11.525985433006479"><ele>306.99999999999994</ele><time>2026-04-12T08:41:17Z</time></trkpt><trkpt lat="45.44620069479454" lon="11.525920833766353"><ele>307.0</ele><time>2026-04-12T08:41:18Z</time></trkpt><trkpt lat="45.44613196894867" lon="11.525843043235986"><ele>306.2</ele><time>2026-04-12T08:41:19Z</time></trkpt><trkpt lat="45.44605974718077" lon="11.525752785883883"><ele>305.4</ele><time>2026-04-12T08:41:20Z</time></trkpt><trkpt lat="45.44600876068267" lon="11.525651105373807"><ele>304.6</ele><time>2026-04-12T08:41:21Z</time></trkpt><trkpt lat="45.445974525344226" lon="11.525525635300962"><ele>303.8</ele><time>2026-04-12T08:41:22Z</time></trkpt><trkpt lat="45.4459485506387" lon="11.52537824653989"><ele>303.0</ele><time>2026-04-12T08:41:23Z</time></trkpt><trkpt lat="45.44589161355644" lon="11.525223454986461"><ele>303.0</ele><time>2026-04-12T08:41:24Z</time></trkpt><trkpt lat="45.445834172816504" lon="11.525117989013793"><ele>303.0</ele><time>2026-04-12T08:41:25Z</time></trkpt><trkpt lat="45.44578749206305" lon="11.525054641720597"><ele>303.0</ele><time>2026-04-12T08:41:26Z</time></trkpt><trkpt lat="45.44567456052377" lon="11.525004760333916"><ele>303.0</ele><time>2026-04-12T08:41:28Z</time></trkpt><trkpt lat="45.445611326894834" lon="11.524986392401527"><ele>303.0</ele><time>2026-04-12T08:41:29Z</time></trkpt><trkpt lat="45.445540827565544" lon="11.52494439655969"><ele>303.0</ele><time>2026-04-12T08:41:30Z</time></trkpt><trkpt lat="45.44545605941387" lon="11.524905431780173"><ele>305.2</ele><time>2026-04-12T08:41:31Z</time></trkpt><trkpt lat="45.445395848608136" lon="11.524868386552892"><ele>307.4</ele><time>2026-04-12T08:41:32Z</time></trkpt><trkpt lat="45.44533226029832" lon="11.524863563576233"><ele>309.59999999999997</ele><time>2026-04-12T08:41:33Z</time></trkpt><trkpt lat="45.445236144684834" lon="11.524933688443468"><ele>311.8</ele><time>2026-04-12T08:41:35Z</time></trkpt><trkpt lat="45.44513319469759" lon="11.525015977116187"><ele>314.0</ele><time>2026-04-12T08:41:36Z</time></trkpt><trkpt lat="45.4450303000135" lon="11.525080919839318"><ele>314.0</ele><time>2026-04-12T08:41:37Z</time></trkpt><trkpt lat="45.444940375000556" lon="11.525143469393262"><ele>314.0</ele><time>2026-04-12T08:41:38Z</time></trkpt><trkpt lat="45.444867716671176" lon="11.525213423575691"><ele>314.0</ele><time>2026-04-12T08:41:39Z</time></trkpt><trkpt lat="45.444788914976684" lon="11.525305504808335"><ele>314.0</ele><time>2026-04-12T08:41:41Z</time></trkpt><trkpt lat="45.444782894201175" lon="11.52491648121529"><ele>314.0</ele><time>2026-04-12T08:41:47Z</time></trkpt><trkpt lat="45.44474042536119" lon="11.524771550551039"><ele>314.0</ele><time>2026-04-12T08:41:48Z</time></trkpt><trkpt lat="45.444681488532204" lon="11.524657992534818"><ele>314.0</ele><time>2026-04-12T08:41:49Z</time></trkpt><trkpt lat="45.44459131217136" lon="11.524642836731246"><ele>314.0</ele><time>2026-04-12T08:41:51Z</time></trkpt><trkpt lat="45.44458723353269" lon="11.524740102705861"><ele>314.0</ele><time>2026-04-12T08:41:54Z</time></trkpt><trkpt lat="45.444537114953356" lon="11.524807081588149"><ele>314.0</ele><time>2026-04-12T08:41:57Z</time></trkpt><trkpt lat="45.44450364806955" lon="11.52490891818278"><ele>316.25</ele><time>2026-04-12T08:41:59Z</time></trkpt><trkpt lat="45.44435367494635" lon="11.525195122073564"><ele>318.5</ele><time>2026-04-12T08:42:00Z</time></trkpt><trkpt lat="45.4443347251134" lon="11.525356897239064"><ele>320.75</ele><time>2026-04-12T08:42:01Z</time></trkpt><trkpt lat="45.44431988894639" lon="11.525444112828131"><ele>323.0</ele><time>2026-04-12T08:42:02Z</time></trkpt><trkpt lat="45.444235239706714" lon="11.525490866206226"><ele>324.0</ele><time>2026-04-12T08:42:04Z</time></trkpt><trkpt lat="45.444185260390256" lon="11.525430970888403"><ele>325.0</ele><time>2026-04-12T08:42:05Z</time></trkpt><trkpt lat="45.444130552173704" lon="11.525482803203115"><ele>326.0</ele><time>2026-04-12T08:42:06Z</time></trkpt><trkpt lat="45.44405217938058" lon="11.525540497764156"><ele>327.0</ele><time>2026-04-12T08:42:07Z</time></trkpt><trkpt lat="45.44393954519461" lon="11.52565595835311"><ele>328.0</ele><time>2026-04-12T08:42:08Z</time></trkpt><trkpt lat="45.44388282616983" lon="11.525737361926481"><ele>329.0</ele><time>2026-04-12T08:42:10Z</time></trkpt><trkpt lat="45.443748857488146" lon="11.525861744425638"><ele>333.0</ele><time>2026-04-12T08:42:14Z</time></trkpt><trkpt lat="45.44364944873409" lon="11.525916160112237"><ele>337.0</ele><time>2026-04-12T08:42:16Z</time></trkpt><trkpt lat="45.443550399019905" lon="11.525965685651128"><ele>341.0</ele><time>2026-04-12T08:42:18Z</time></trkpt><trkpt lat="45.44346276631673" lon="11.52594724641642"><ele>345.0</ele><time>2026-04-12T08:42:20Z</time></trkpt><trkpt lat="45.443394175370294" lon="11.525936913114252"><ele>349.0</ele><time>2026-04-12T08:42:21Z</time></trkpt><trkpt lat="45.44331682182857" lon="11.52596610167431"><ele>353.0</ele><time>2026-04-12T08:42:23Z</time></trkpt><trkpt lat="45.44326029583428" lon="11.525897592448608"><ele>353.0</ele><time>2026-04-12T08:42:28Z</time></trkpt><trkpt lat="45.443253837563596" lon="11.525783626529595"><ele>353.0</ele><time>2026-04-12T08:42:32Z</time></trkpt><trkpt lat="45.44327748410925" lon="11.525672248074429"><ele>353.0</ele><time>2026-04-12T08:42:53Z</time></trkpt><trkpt lat="45.44324828736937" lon="11.525496912600051"><ele>353.0</ele><time>2026-04-12T08:42:55Z</time></trkpt><trkpt lat="45.44323333311494" lon="11.52538907056773"><ele>353.0</ele><time>2026-04-12T08:42:56Z</time></trkpt><trkpt lat="45.443201559069045" lon="11.525288661130986"><ele>353.0</ele><time>2026-04-12T08:42:57Z</time></trkpt><trkpt lat="45.443200087133256" lon="11.52517509824374"><ele>352.2857142857143</ele><time>2026-04-12T08:42:58Z</time></trkpt><trkpt lat="45.443161612292435" lon="11.525081228255058"><ele>351.5714285714286</ele><time>2026-04-12T08:42:59Z</time></trkpt><trkpt lat="45.443160767454636" lon="11.524976306055988"><ele>350.8571428571429</ele><time>2026-04-12T08:43:00Z</time></trkpt><trkpt lat="45.44313522431726" lon="11.524891311254354"><ele>350.1428571428571</ele><time>2026-04-12T08:43:01Z</time></trkpt><trkpt lat="45.44313777820259" lon="11.524793747471637"><ele>349.42857142857144</ele><time>2026-04-12T08:43:02Z</time></trkpt><trkpt lat="45.443103902461296" lon="11.524705261444872"><ele>348.7142857142857</ele><time>2026-04-12T08:43:03Z</time></trkpt><trkpt lat="45.443100442548484" lon="11.524582708312854"><ele>348.0</ele><time>2026-04-12T08:43:05Z</time></trkpt><trkpt lat="45.443095102219694" lon="11.524461769592303"><ele>348.0</ele><time>2026-04-12T08:43:09Z</time></trkpt><trkpt lat="45.44308167283654" lon="11.524337971661524"><ele>348.0</ele><time>2026-04-12T08:43:13Z</time></trkpt><trkpt lat="45.44306262442687" lon="11.524214404254895"><ele>348.0</ele><time>2026-04-12T08:43:16Z</time></trkpt><trkpt lat="45.44297815506988" lon="11.524182217284777"><ele>348.0</ele><time>2026-04-12T08:43:22Z</time></trkpt><trkpt lat="45.44287841264465" lon="11.52422840342002"><ele>348.0</ele><time>2026-04-12T08:43:24Z</time></trkpt><trkpt lat="45.44281545353288" lon="11.52424422088028"><ele>348.0</ele><time>2026-04-12T08:43:25Z</time></trkpt><trkpt lat="45.442728484984144" lon="11.524342168234767"><ele>348.0</ele><time>2026-04-12T08:43:27Z</time></trkpt><trkpt lat="45.44271047886863" lon="11.524432590855247"><ele>348.0</ele><time>2026-04-12T08:43:29Z</time></trkpt><trkpt lat="45.44277441713709" lon="11.52456236606381"><ele>348.0</ele><time>2026-04-12T08:43:31Z</time></trkpt><trkpt lat="45.442770635963136" lon="11.52466693310597"><ele>348.0</ele><time>2026-04-12T08:43:32Z</time></trkpt><trkpt lat="45.44276747465468" lon="11.5247648984501"><ele>348.0</ele><time>2026-04-12T08:43:33Z</time></trkpt><trkpt lat="45.442821757175004" lon="11.524880406002087"><ele>348.0</ele><time>2026-04-12T08:43:34Z</time></trkpt><trkpt lat="45.44284624834413" lon="11.524985674173987"><ele>350.4</ele><time>2026-04-12T08:43:35Z</time></trkpt><trkpt lat="45.44281680441313" lon="11.525081733836835"><ele>352.79999999999995</ele><time>2026-04-12T08:43:36Z</time></trkpt><trkpt lat="45.44277850589147" lon="11.525223563769105"><ele>355.2</ele><time>2026-04-12T08:43:38Z</time></trkpt><trkpt lat="45.44275218074493" lon="11.525313834893181"><ele>357.6</ele><time>2026-04-12T08:43:39Z</time></trkpt><trkpt lat="45.44268427561416" lon="11.525433782265425"><ele>360.0</ele><time>2026-04-12T08:43:41Z</time></trkpt><trkpt lat="45.4426095839708" lon="11.525535235063668"><ele>361.8333333333333</ele><time>2026-04-12T08:43:43Z</time></trkpt><trkpt lat="45.44256317145266" lon="11.525627264659603"><ele>363.6666666666667</ele><time>2026-04-12T08:43:45Z</time></trkpt><trkpt lat="45.442580050177774" lon="11.525721062070446"><ele>365.5</ele><time>2026-04-12T08:43:47Z</time></trkpt><trkpt lat="45.44259271965755" lon="11.525823845633155"><ele>367.33333333333337</ele><time>2026-04-12T08:43:48Z</time></trkpt><trkpt lat="45.44257601419674" lon="11.525916790202396"><ele>369.1666666666667</ele><time>2026-04-12T08:43:49Z</time></trkpt><trkpt lat="45.44255871136406" lon="11.526017104888238"><ele>371.0</ele><time>2026-04-12T08:43:50Z</time></trkpt><trkpt lat="45.4425534953321" lon="11.526152177347734"><ele>370.83333333333337</ele><time>2026-04-12T08:43:51Z</time></trkpt><trkpt lat="45.44255307713638" lon="11.526253741345371"><ele>370.6666666666667</ele><time>2026-04-12T08:43:52Z</time></trkpt><trkpt lat="45.44249590935564" lon="11.52641333999851"><ele>370.5</ele><time>2026-04-12T08:43:54Z</time></trkpt><trkpt lat="45.44243462046382" lon="11.526492451416763"><ele>370.3333333333333</ele><time>2026-04-12T08:43:55Z</time></trkpt><trkpt lat="45.44237924912381" lon="11.526568514919434"><ele>370.16666666666663</ele><time>2026-04-12T08:43:56Z</time></trkpt><trkpt lat="45.44232778672424" lon="11.526631390796304"><ele>370.0</ele><time>2026-04-12T08:43:57Z</time></trkpt><trkpt lat="45.44227540956468" lon="11.5267043048587"><ele>370.0</ele><time>2026-04-12T08:43:58Z</time></trkpt><trkpt lat="45.442222721298734" lon="11.526784006733093"><ele>370.0</ele><time>2026-04-12T08:43:59Z</time></trkpt><trkpt lat="45.442176646822375" lon="11.52685686232915"><ele>370.0</ele><time>2026-04-12T08:44:00Z</time></trkpt><trkpt lat="45.44212479845466" lon="11.526938916614421"><ele>370.0</ele><time>2026-04-12T08:44:01Z</time></trkpt><trkpt lat="45.44206348855268" lon="11.527026944818887"><ele>370.0</ele><time>2026-04-12T08:44:02Z</time></trkpt><trkpt lat="45.44199444888159" lon="11.527116074749612"><ele>370.0</ele><time>2026-04-12T08:44:03Z</time></trkpt><trkpt lat="45.44192982387616" lon="11.527186308220038"><ele>371.3333333333333</ele><time>2026-04-12T08:44:04Z</time></trkpt><trkpt lat="45.44186481169366" lon="11.527243880524075"><ele>372.66666666666663</ele><time>2026-04-12T08:44:05Z</time></trkpt><trkpt lat="45.44180200057376" lon="11.52727323370653"><ele>374.0</ele><time>2026-04-12T08:44:07Z</time></trkpt><trkpt lat="45.441732888433" lon="11.527280983819143"><ele>375.3333333333333</ele><time>2026-04-12T08:44:32Z</time></trkpt><trkpt lat="45.441632489699664" lon="11.527257972327302"><ele>376.6666666666667</ele><time>2026-04-12T08:44:34Z</time></trkpt><trkpt lat="45.441528169628185" lon="11.527311303682234"><ele>378.0</ele><time>2026-04-12T08:44:36Z</time></trkpt><trkpt lat="45.441452085350406" lon="11.527398608912094"><ele>378.0</ele><time>2026-04-12T08:44:37Z</time></trkpt><trkpt lat="45.44138199033464" lon="11.527441963521074"><ele>378.0</ele><time>2026-04-12T08:44:38Z</time></trkpt><trkpt lat="45.4413007001064" lon="11.527454894005675"><ele>378.0</ele><time>2026-04-12T08:44:40Z</time></trkpt><trkpt lat="45.441104739717595" lon="11.527300505310107"><ele>378.0</ele><time>2026-04-12T08:44:51Z</time></trkpt><trkpt lat="45.44103145288162" lon="11.527215726821522"><ele>379.0</ele><time>2026-04-12T08:44:52Z</time></trkpt><trkpt lat="45.4409400889749" lon="11.527117998990157"><ele>380.0</ele><time>2026-04-12T08:44:53Z</time></trkpt><trkpt lat="45.44083182696899" lon="11.527015024032478"><ele>381.0</ele><time>2026-04-12T08:44:54Z</time></trkpt><trkpt lat="45.4407386720221" lon="11.526917788788783"><ele>382.0</ele><time>2026-04-12T08:44:55Z</time></trkpt><trkpt lat="45.44065347254408" lon="11.526887614492095"><ele>383.0</ele><time>2026-04-12T08:44:56Z</time></trkpt><trkpt lat="45.44055913867041" lon="11.526901056260215"><ele>383.1666666666667</ele><time>2026-04-12T08:44:57Z</time></trkpt><trkpt lat="45.44047938267806" lon="11.526905955037567"><ele>383.33333333333337</ele><time>2026-04-12T08:44:58Z</time></trkpt><trkpt lat="45.4403970411348" lon="11.526939494553028"><ele>383.5</ele><time>2026-04-12T08:44:59Z</time></trkpt><trkpt lat="45.44032589234661" lon="11.526953808196506"><ele>383.6666666666667</ele><time>2026-04-12T08:45:00Z</time></trkpt><trkpt lat="45.44026357380563" lon="11.52699607666207"><ele>383.8333333333333</ele><time>2026-04-12T08:45:01Z</time></trkpt><trkpt lat="45.44019535499542" lon="11.527076939035428"><ele>384.0</ele><time>2026-04-12T08:45:02Z</time></trkpt><trkpt lat="45.44012351642743" lon="11.527155059803091"><ele>384.4</ele><time>2026-04-12T08:45:03Z</time></trkpt><trkpt lat="45.44003548510062" lon="11.527249151122104"><ele>384.79999999999995</ele><time>2026-04-12T08:45:04Z</time></trkpt><trkpt lat="45.4399449302896" lon="11.52733079480828"><ele>385.20000000000005</ele><time>2026-04-12T08:45:05Z</time></trkpt><trkpt lat="45.43985761440416" lon="11.527397667293974"><ele>385.6</ele><time>2026-04-12T08:45:06Z</time></trkpt><trkpt lat="45.43978354925404" lon="11.527421113284372"><ele>386.0</ele><time>2026-04-12T08:45:07Z</time></trkpt><trkpt lat="45.43970901471334" lon="11.52742565659447"><ele>385.99999999999994</ele><time>2026-04-12T08:45:08Z</time></trkpt><trkpt lat="45.439645546107535" lon="11.527387021292842"><ele>386.0</ele><time>2026-04-12T08:45:09Z</time></trkpt><trkpt lat="45.43955162323304" lon="11.52737908603036"><ele>386.0</ele><time>2026-04-12T08:45:10Z</time></trkpt><trkpt lat="45.43945682901739" lon="11.527380625997827"><ele>386.0</ele><time>2026-04-12T08:45:11Z</time></trkpt><trkpt lat="45.43938207918257" lon="11.527364721645426"><ele>385.99999999999994</ele><time>2026-04-12T08:45:12Z</time></trkpt><trkpt lat="45.43933209578541" lon="11.52730180302245"><ele>386.0</ele><time>2026-04-12T08:45:13Z</time></trkpt><trkpt lat="45.43927976040551" lon="11.527200156988863"><ele>389.8</ele><time>2026-04-12T08:45:14Z</time></trkpt><trkpt lat="45.439244287331" lon="11.527106926758629"><ele>393.6</ele><time>2026-04-12T08:45:15Z</time></trkpt><trkpt lat="45.4392108839905" lon="11.5269853597246"><ele>397.4</ele><time>2026-04-12T08:45:16Z</time></trkpt><trkpt lat="45.43916720032592" lon="11.526855707334372"><ele>401.2</ele><time>2026-04-12T08:45:17Z</time></trkpt><trkpt lat="45.4391233847642" lon="11.526709366041779"><ele>405.0</ele><time>2026-04-12T08:45:18Z</time></trkpt><trkpt lat="45.43909385187784" lon="11.526585536090904"><ele>405.5</ele><time>2026-04-12T08:45:19Z</time></trkpt><trkpt lat="45.439059924983084" lon="11.526423207114588"><ele>406.0</ele><time>2026-04-12T08:45:21Z</time></trkpt><trkpt lat="45.4390473306463" lon="11.5263119376444"><ele>406.5</ele><time>2026-04-12T08:45:22Z</time></trkpt><trkpt lat="45.439044858824644" lon="11.5262133964909"><ele>407.0</ele><time>2026-04-12T08:45:23Z</time></trkpt><trkpt lat="45.43906863245365" lon="11.526121762893464"><ele>407.5</ele><time>2026-04-12T08:45:24Z</time></trkpt><trkpt lat="45.439093702422454" lon="11.52603440847008"><ele>408.0</ele><time>2026-04-12T08:45:26Z</time></trkpt><trkpt lat="45.43906037376232" lon="11.525919642699455"><ele>408.0</ele><time>2026-04-12T08:45:29Z</time></trkpt><trkpt lat="45.438955011084865" lon="11.525928793711202"><ele>408.0</ele><time>2026-04-12T08:45:30Z</time></trkpt><trkpt lat="45.438865643460524" lon="11.525930250889637"><ele>408.0</ele><time>2026-04-12T08:45:32Z</time></trkpt><trkpt lat="45.43880184913795" lon="11.525902934884144"><ele>408.0</ele><time>2026-04-12T08:45:33Z</time></trkpt><trkpt lat="45.43874491267316" lon="11.525859982988576"><ele>408.0</ele><time>2026-04-12T08:45:34Z</time></trkpt><trkpt lat="45.43865278709924" lon="11.52577719093501"><ele>408.0</ele><time>2026-04-12T08:45:36Z</time></trkpt><trkpt lat="45.43857634740446" lon="11.525719599599812"><ele>407.5</ele><time>2026-04-12T08:45:38Z</time></trkpt><trkpt lat="45.438496579110854" lon="11.525619760692589"><ele>407.0</ele><time>2026-04-12T08:45:40Z</time></trkpt><trkpt lat="45.43841286981248" lon="11.52550271315127"><ele>406.5</ele><time>2026-04-12T08:45:42Z</time></trkpt><trkpt lat="45.43836304468465" lon="11.52535853930358"><ele>406.0</ele><time>2026-04-12T08:45:44Z</time></trkpt><trkpt lat="45.438357623111315" lon="11.5251901684106"><ele>406.00000000000006</ele><time>2026-04-12T08:45:46Z</time></trkpt><trkpt lat="45.43832786291237" lon="11.525019732093888"><ele>406.0</ele><time>2026-04-12T08:45:48Z</time></trkpt><trkpt lat="45.4382913844514" lon="11.524914177906854"><ele>406.0</ele><time>2026-04-12T08:45:49Z</time></trkpt><trkpt lat="45.438253771730444" lon="11.524808180218402"><ele>406.0</ele><time>2026-04-12T08:45:50Z</time></trkpt><trkpt lat="45.43822135872814" lon="11.524700519651345"><ele>406.00000000000006</ele><time>2026-04-12T08:45:51Z</time></trkpt><trkpt lat="45.43819721186107" lon="11.524607053564123"><ele>406.0</ele><time>2026-04-12T08:45:52Z</time></trkpt><trkpt lat="45.43818668850592" lon="11.524512860833498"><ele>406.0</ele><time>2026-04-12T08:45:53Z</time></trkpt><trkpt lat="45.43819565471763" lon="11.524413758894742"><ele>406.0</ele><time>2026-04-12T08:45:54Z</time></trkpt><trkpt lat="45.43821166203719" lon="11.524300270961529"><ele>406.0</ele><time>2026-04-12T08:45:55Z</time></trkpt><trkpt lat="45.43822363218779" lon="11.524189858071205"><ele>406.0</ele><time>2026-04-12T08:45:56Z</time></trkpt><trkpt lat="45.43823740052416" lon="11.52408664017895"><ele>406.0</ele><time>2026-04-12T08:45:57Z</time></trkpt><trkpt lat="45.43823464624565" lon="11.523994895828663"><ele>406.0</ele><time>2026-04-12T08:45:58Z</time></trkpt><trkpt lat="45.43822655172141" lon="11.523894214113914"><ele>406.0</ele><time>2026-04-12T08:45:59Z</time></trkpt><trkpt lat="45.438215117057396" lon="11.523789005880626"><ele>406.1666666666667</ele><time>2026-04-12T08:46:00Z</time></trkpt><trkpt lat="45.4382106840098" lon="11.523667707629688"><ele>406.33333333333337</ele><time>2026-04-12T08:46:01Z</time></trkpt><trkpt lat="45.438205887612966" lon="11.523562057999536"><ele>406.5</ele><time>2026-04-12T08:46:02Z</time></trkpt><trkpt lat="45.43820242068434" lon="11.523468144494823"><ele>406.66666666666663</ele><time>2026-04-12T08:46:03Z</time></trkpt><trkpt lat="45.43820011976078" lon="11.523307259549698"><ele>406.8333333333333</ele><time>2026-04-12T08:46:05Z</time></trkpt><trkpt lat="45.43819871549048" lon="11.523171662010148"><ele>407.0</ele><time>2026-04-12T08:46:07Z</time></trkpt><trkpt lat="45.43821241333602" lon="11.52306725754102"><ele>407.0</ele><time>2026-04-12T08:46:10Z</time></trkpt><trkpt lat="45.43824734466096" lon="11.522980364392911"><ele>407.0</ele><time>2026-04-12T08:46:16Z</time></trkpt><trkpt lat="45.43844855395179" lon="11.522918349218072"><ele>407.0</ele><time>2026-04-12T08:46:22Z</time></trkpt><trkpt lat="45.4385089579679" lon="11.522853531032915"><ele>407.0</ele><time>2026-04-12T08:46:23Z</time></trkpt><trkpt lat="45.43858120918609" lon="11.522779763685593"><ele>407.0</ele><time>2026-04-12T08:46:24Z</time></trkpt><trkpt lat="45.43862923924245" lon="11.522710145788079"><ele>407.66666666666663</ele><time>2026-04-12T08:46:25Z</time></trkpt><trkpt lat="45.438668585502825" lon="11.52260636792707"><ele>408.3333333333333</ele><time>2026-04-12T08:46:26Z</time></trkpt><trkpt lat="45.438705136626936" lon="11.522529853392038"><ele>409.0</ele><time>2026-04-12T08:46:27Z</time></trkpt><trkpt lat="45.438764872000355" lon="11.522372038063224"><ele>409.66666666666663</ele><time>2026-04-12T08:46:29Z</time></trkpt><trkpt lat="45.438807931251176" lon="11.522287347882425"><ele>410.3333333333333</ele><time>2026-04-12T08:46:30Z</time></trkpt><trkpt lat="45.43885085076316" lon="11.52218379808332"><ele>411.0</ele><time>2026-04-12T08:46:31Z</time></trkpt><trkpt lat="45.438895269454086" lon="11.522072873399567"><ele>410.0</ele><time>2026-04-12T08:46:32Z</time></trkpt><trkpt lat="45.438941312980916" lon="11.521988950024268"><ele>409.0</ele><time>2026-04-12T08:46:33Z</time></trkpt><trkpt lat="45.438983478721454" lon="11.521921486661345"><ele>408.0</ele><time>2026-04-12T08:46:34Z</time></trkpt><trkpt lat="45.43904670644042" lon="11.521823807737555"><ele>407.0</ele><time>2026-04-12T08:46:36Z</time></trkpt><trkpt lat="45.43911233291536" lon="11.521719943427408"><ele>406.0</ele><time>2026-04-12T08:46:40Z</time></trkpt><trkpt lat="45.439167335320036" lon="11.521633555123271"><ele>405.0</ele><time>2026-04-12T08:46:42Z</time></trkpt><trkpt lat="45.43921156136221" lon="11.521534418122455"><ele>405.0</ele><time>2026-04-12T08:46:44Z</time></trkpt><trkpt lat="45.43922696165008" lon="11.521411187583226"><ele>405.0</ele><time>2026-04-12T08:46:46Z</time></trkpt><trkpt lat="45.43923052751545" lon="11.521294222593644"><ele>405.0</ele><time>2026-04-12T08:46:48Z</time></trkpt><trkpt lat="45.4391541549949" lon="11.521230236124973"><ele>405.0</ele><time>2026-04-12T08:46:51Z</time></trkpt><trkpt lat="45.43906446434389" lon="11.521215508956475"><ele>405.0</ele><time>2026-04-12T08:46:53Z</time></trkpt><trkpt lat="45.438987797902904" lon="11.521115117457608"><ele>404.3333333333333</ele><time>2026-04-12T08:46:55Z</time></trkpt><trkpt lat="45.43891941505799" lon="11.521083140590349"><ele>403.66666666666663</ele><time>2026-04-12T08:46:56Z</time></trkpt><trkpt lat="45.43885945985402" lon="11.521052023480758"><ele>403.0</ele><time>2026-04-12T08:47:00Z</time></trkpt><trkpt lat="45.43879234370354" lon="11.521004235526282"><ele>402.3333333333333</ele><time>2026-04-12T08:47:04Z</time></trkpt><trkpt lat="45.43871408912754" lon="11.520993825958623"><ele>401.66666666666663</ele><time>2026-04-12T08:47:07Z</time></trkpt><trkpt lat="45.43864417819256" lon="11.520928503150664"><ele>401.0</ele><time>2026-04-12T08:47:11Z</time></trkpt><trkpt lat="45.43859133868293" lon="11.520815384454245"><ele>399.49999999999994</ele><time>2026-04-12T08:47:14Z</time></trkpt><trkpt lat="45.43852767478925" lon="11.5207876262858"><ele>398.0</ele><time>2026-04-12T08:47:15Z</time></trkpt><trkpt lat="45.438428177852" lon="11.520757106032455"><ele>396.5</ele><time>2026-04-12T08:47:18Z</time></trkpt><trkpt lat="45.43834292295984" lon="11.520714541229557"><ele>395.0</ele><time>2026-04-12T08:47:19Z</time></trkpt><trkpt lat="45.43828863658912" lon="11.52065822840451"><ele>393.49999999999994</ele><time>2026-04-12T08:47:20Z</time></trkpt><trkpt lat="45.4382169744278" lon="11.520588971692154"><ele>392.0</ele><time>2026-04-12T08:47:22Z</time></trkpt><trkpt lat="45.43814854826616" lon="11.520605454858567"><ele>392.0</ele><time>2026-04-12T08:47:30Z</time></trkpt><trkpt lat="45.43812588296209" lon="11.520502611372068"><ele>392.0</ele><time>2026-04-12T08:47:34Z</time></trkpt><trkpt lat="45.43805547220319" lon="11.520453259235437"><ele>392.0</ele><time>2026-04-12T08:47:36Z</time></trkpt><trkpt lat="45.43823255237742" lon="11.520343408288758"><ele>392.0</ele><time>2026-04-12T08:47:40Z</time></trkpt><trkpt lat="45.43833147686505" lon="11.520287578493242"><ele>386.75</ele><time>2026-04-12T08:47:41Z</time></trkpt><trkpt lat="45.43842800555575" lon="11.52017992451979"><ele>381.5</ele><time>2026-04-12T08:47:42Z</time></trkpt><trkpt lat="45.438523269276295" lon="11.520074810826651"><ele>376.25</ele><time>2026-04-12T08:47:43Z</time></trkpt><trkpt lat="45.43862335196389" lon="11.519964902723727"><ele>371.0</ele><time>2026-04-12T08:47:44Z</time></trkpt><trkpt lat="45.43869836598081" lon="11.5198518125519"><ele>371.0</ele><time>2026-04-12T08:47:45Z</time></trkpt><trkpt lat="45.43874585413629" lon="11.51978041807061"><ele>371.0</ele><time>2026-04-12T08:47:46Z</time></trkpt><trkpt lat="45.43881427083746" lon="11.519652202670654"><ele>371.0</ele><time>2026-04-12T08:47:48Z</time></trkpt><trkpt lat="45.43886583561965" lon="11.51950286260542"><ele>371.0</ele><time>2026-04-12T08:47:50Z</time></trkpt><trkpt lat="45.43893854335591" lon="11.519335060543018"><ele>371.0</ele><time>2026-04-12T08:47:52Z</time></trkpt><trkpt lat="45.438986078209275" lon="11.519245621139719"><ele>370.33333333333337</ele><time>2026-04-12T08:47:53Z</time></trkpt><trkpt lat="45.43901943356981" lon="11.519148844363405"><ele>369.6666666666667</ele><time>2026-04-12T08:47:54Z</time></trkpt><trkpt lat="45.439056972495386" lon="11.51904798023443"><ele>369.0</ele><time>2026-04-12T08:47:55Z</time></trkpt><trkpt lat="45.43909765525024" lon="11.518961359472966"><ele>368.3333333333333</ele><time>2026-04-12T08:47:56Z</time></trkpt><trkpt lat="45.43913737792629" lon="11.518880694501163"><ele>367.66666666666663</ele><time>2026-04-12T08:47:57Z</time></trkpt><trkpt lat="45.43917781563556" lon="11.518787579778547"><ele>367.0</ele><time>2026-04-12T08:47:58Z</time></trkpt><trkpt lat="45.43925708436724" lon="11.518668021118552"><ele>367.0</ele><time>2026-04-12T08:48:00Z</time></trkpt><trkpt lat="45.43936130701893" lon="11.518593132244273"><ele>367.0</ele><time>2026-04-12T08:48:02Z</time></trkpt><trkpt lat="45.43939609605549" lon="11.51851375479163"><ele>367.0</ele><time>2026-04-12T08:48:03Z</time></trkpt><trkpt lat="45.43942221633749" lon="11.518420850550463"><ele>367.0</ele><time>2026-04-12T08:48:04Z</time></trkpt><trkpt lat="45.43943511509982" lon="11.51831609956764"><ele>367.0</ele><time>2026-04-12T08:48:05Z</time></trkpt><trkpt lat="45.43945170862024" lon="11.518227269086768"><ele>367.0</ele><time>2026-04-12T08:48:06Z</time></trkpt><trkpt lat="45.43948271260799" lon="11.518117294912752"><ele>367.0</ele><time>2026-04-12T08:48:08Z</time></trkpt><trkpt lat="45.439508401517074" lon="11.518003533851594"><ele>367.0</ele><time>2026-04-12T08:48:10Z</time></trkpt><trkpt lat="45.43953766792534" lon="11.517890356129154"><ele>367.0</ele><time>2026-04-12T08:48:12Z</time></trkpt><trkpt lat="45.4395592438049" lon="11.517794061886429"><ele>367.0</ele><time>2026-04-12T08:48:13Z</time></trkpt><trkpt lat="45.439577646238185" lon="11.51770401121853"><ele>367.0</ele><time>2026-04-12T08:48:14Z</time></trkpt><trkpt lat="45.43959992075073" lon="11.517613848738318"><ele>367.0</ele><time>2026-04-12T08:48:15Z</time></trkpt><trkpt lat="45.43961675206929" lon="11.517523365324763"><ele>367.0</ele><time>2026-04-12T08:48:16Z</time></trkpt><trkpt lat="45.43963195329724" lon="11.517420066478344"><ele>367.6</ele><time>2026-04-12T08:48:17Z</time></trkpt><trkpt lat="45.4396523583196" lon="11.517270606182958"><ele>368.20000000000005</ele><time>2026-04-12T08:48:18Z</time></trkpt><trkpt lat="45.43967250682339" lon="11.517153938822947"><ele>368.8</ele><time>2026-04-12T08:48:19Z</time></trkpt><trkpt lat="45.43968985458779" lon="11.51704559312944"><ele>369.4</ele><time>2026-04-12T08:48:20Z</time></trkpt><trkpt lat="45.43974730911132" lon="11.516912989213491"><ele>370.0</ele><time>2026-04-12T08:48:22Z</time></trkpt><trkpt lat="45.43981828868719" lon="11.516839363564204"><ele>370.0</ele><time>2026-04-12T08:48:43Z</time></trkpt><trkpt lat="45.43992866810226" lon="11.516837323601973"><ele>370.0</ele><time>2026-04-12T08:48:45Z</time></trkpt><trkpt lat="45.439995844477814" lon="11.516889016922105"><ele>370.0</ele><time>2026-04-12T08:48:47Z</time></trkpt><trkpt lat="45.44007448149819" lon="11.51693776143687"><ele>370.0</ele><time>2026-04-12T08:48:52Z</time></trkpt><trkpt lat="45.44014237974501" lon="11.516997132235018"><ele>370.0</ele><time>2026-04-12T08:48:54Z</time></trkpt><trkpt lat="45.44022909236933" lon="11.517071479515915"><ele>371.4</ele><time>2026-04-12T08:48:56Z</time></trkpt><trkpt lat="45.440292215918404" lon="11.517111569914583"><ele>372.8</ele><time>2026-04-12T08:48:57Z</time></trkpt><trkpt lat="45.44039457787351" lon="11.517141379065626"><ele>374.20000000000005</ele><time>2026-04-12T08:48:59Z</time></trkpt><trkpt lat="45.44051956573135" lon="11.517137770718602"><ele>375.6</ele><time>2026-04-12T08:49:01Z</time></trkpt><trkpt lat="45.4406440047106" lon="11.517118564074533"><ele>377.0</ele><time>2026-04-12T08:49:03Z</time></trkpt><trkpt lat="45.44070841335356" lon="11.517116125083485"><ele>376.1666666666667</ele><time>2026-04-12T08:49:04Z</time></trkpt><trkpt lat="45.44080730062018" lon="11.517046639677483"><ele>375.33333333333337</ele><time>2026-04-12T08:49:06Z</time></trkpt><trkpt lat="45.44085317394227" lon="11.516985160788701"><ele>374.5</ele><time>2026-04-12T08:49:07Z</time></trkpt><trkpt lat="45.440922176564584" lon="11.516864754945756"><ele>373.6666666666667</ele><time>2026-04-12T08:49:09Z</time></trkpt><trkpt lat="45.44095946800822" lon="11.516753840776882"><ele>372.8333333333333</ele><time>2026-04-12T08:49:14Z</time></trkpt><trkpt lat="45.440968620713264" lon="11.51664015137188"><ele>372.0</ele><time>2026-04-12T08:49:16Z</time></trkpt><trkpt lat="45.440965526287194" lon="11.516469519983906"><ele>372.0</ele><time>2026-04-12T08:49:18Z</time></trkpt><trkpt lat="45.44095393713005" lon="11.51635119322075"><ele>372.0</ele><time>2026-04-12T08:49:19Z</time></trkpt><trkpt lat="45.44092743711516" lon="11.516199769023578"><ele>372.0</ele><time>2026-04-12T08:49:20Z</time></trkpt><trkpt lat="45.440903092875566" lon="11.51601931466215"><ele>372.0</ele><time>2026-04-12T08:49:21Z</time></trkpt><trkpt lat="45.44085979888467" lon="11.515893683116524"><ele>372.0</ele><time>2026-04-12T08:49:22Z</time></trkpt><trkpt lat="45.4408513591994" lon="11.515767022928413"><ele>372.1666666666667</ele><time>2026-04-12T08:49:23Z</time></trkpt><trkpt lat="45.440858773225344" lon="11.51567116245318"><ele>372.3333333333333</ele><time>2026-04-12T08:49:24Z</time></trkpt><trkpt lat="45.44086219698053" lon="11.515576889686828"><ele>372.5</ele><time>2026-04-12T08:49:25Z</time></trkpt><trkpt lat="45.44089232727326" lon="11.515471023696078"><ele>372.66666666666663</ele><time>2026-04-12T08:49:27Z</time></trkpt><trkpt lat="45.44098198092643" lon="11.515376656581786"><ele>372.8333333333333</ele><time>2026-04-12T08:49:29Z</time></trkpt><trkpt lat="45.441003999894406" lon="11.515223517752212"><ele>373.0</ele><time>2026-04-12T08:49:31Z</time></trkpt><trkpt lat="45.4410321694027" lon="11.515136349893353"><ele>373.5</ele><time>2026-04-12T08:49:33Z</time></trkpt><trkpt lat="45.441291949812936" lon="11.515043713333414"><ele>374.0</ele><time>2026-04-12T08:49:38Z</time></trkpt><trkpt lat="45.44139024475169" lon="11.514976157164645"><ele>374.5</ele><time>2026-04-12T08:49:40Z</time></trkpt><trkpt lat="45.441455953269184" lon="11.51498822285641"><ele>375.0</ele><time>2026-04-12T08:49:41Z</time></trkpt><trkpt lat="45.44153619993831" lon="11.515065185421394"><ele>375.8</ele><time>2026-04-12T08:49:43Z</time></trkpt><trkpt lat="45.44153345663547" lon="11.515169969250564"><ele>376.6</ele><time>2026-04-12T08:49:45Z</time></trkpt><trkpt lat="45.441524225080244" lon="11.515286278900914"><ele>377.4</ele><time>2026-04-12T08:49:47Z</time></trkpt><trkpt lat="45.441560343480475" lon="11.51540148578054"><ele>378.2</ele><time>2026-04-12T08:49:49Z</time></trkpt><trkpt lat="45.44162930568154" lon="11.51558867051305"><ele>379.0</ele><time>2026-04-12T08:49:51Z</time></trkpt><trkpt lat="45.441682059085785" lon="11.515689873795713"><ele>380.5</ele><time>2026-04-12T08:49:53Z</time></trkpt><trkpt lat="45.441740328444475" lon="11.515777365326073"><ele>382.0</ele><time>2026-04-12T08:49:55Z</time></trkpt><trkpt lat="45.44182594453437" lon="11.515820753709223"><ele>383.5</ele><time>2026-04-12T08:49:57Z</time></trkpt><trkpt lat="45.441922401404085" lon="11.515818986046188"><ele>385.0</ele><time>2026-04-12T08:49:59Z</time></trkpt><trkpt lat="45.441995773258014" lon="11.515785626049121"><ele>386.50000000000006</ele><time>2026-04-12T08:50:01Z</time></trkpt><trkpt lat="45.442059684574275" lon="11.515758480031806"><ele>388.0</ele><time>2026-04-12T08:50:03Z</time></trkpt><trkpt lat="45.442147753197524" lon="11.515701999131224"><ele>388.00000000000006</ele><time>2026-04-12T08:50:05Z</time></trkpt><trkpt lat="45.44226261596397" lon="11.515625025803363"><ele>388.0</ele><time>2026-04-12T08:50:07Z</time></trkpt><trkpt lat="45.442322255537505" lon="11.515588511635388"><ele>388.0</ele><time>2026-04-12T08:50:08Z</time></trkpt><trkpt lat="45.44239501635795" lon="11.515547162358953"><ele>388.0</ele><time>2026-04-12T08:50:09Z</time></trkpt><trkpt lat="45.44247202502283" lon="11.515498572576178"><ele>388.00000000000006</ele><time>2026-04-12T08:50:10Z</time></trkpt><trkpt lat="45.44255111950464" lon="11.515446979920236"><ele>388.0</ele><time>2026-04-12T08:50:11Z</time></trkpt><trkpt lat="45.44265542852792" lon="11.51539057454638"><ele>388.2</ele><time>2026-04-12T08:50:13Z</time></trkpt><trkpt lat="45.44274473473151" lon="11.51535966306128"><ele>388.4</ele><time>2026-04-12T08:50:15Z</time></trkpt><trkpt lat="45.4428438752762" lon="11.515362288123207"><ele>388.59999999999997</ele><time>2026-04-12T08:50:17Z</time></trkpt><trkpt lat="45.44294103060692" lon="11.515355440961672"><ele>388.79999999999995</ele><time>2026-04-12T08:50:19Z</time></trkpt><trkpt lat="45.44302949482781" lon="11.515334341898651"><ele>389.0</ele><time>2026-04-12T08:50:21Z</time></trkpt><trkpt lat="45.44311761919168" lon="11.515313197166314"><ele>390.25</ele><time>2026-04-12T08:50:23Z</time></trkpt><trkpt lat="45.44321436871679" lon="11.515299659929811"><ele>391.5</ele><time>2026-04-12T08:50:25Z</time></trkpt><trkpt lat="45.443303871637205" lon="11.515301961777467"><ele>392.75</ele><time>2026-04-12T08:50:27Z</time></trkpt><trkpt lat="45.44348833425693" lon="11.515262106734669"><ele>394.0</ele><time>2026-04-12T08:50:31Z</time></trkpt><trkpt lat="45.44358899862963" lon="11.51520016746923"><ele>394.0</ele><time>2026-04-12T08:50:33Z</time></trkpt><trkpt lat="45.44367496055644" lon="11.515124349168067"><ele>394.0</ele><time>2026-04-12T08:50:35Z</time></trkpt><trkpt lat="45.443748007082064" lon="11.51509870675685"><ele>394.0</ele><time>2026-04-12T08:50:37Z</time></trkpt><trkpt lat="45.443831489757756" lon="11.515054641090149"><ele>394.0</ele><time>2026-04-12T08:50:39Z</time></trkpt><trkpt lat="45.44395556573949" lon="11.515004181105503"><ele>394.0</ele><time>2026-04-12T08:50:42Z</time></trkpt><trkpt lat="45.44403110431719" lon="11.514983851335167"><ele>392.83333333333337</ele><time>2026-04-12T08:50:45Z</time></trkpt><trkpt lat="45.444101399965305" lon="11.514946034406197"><ele>391.6666666666667</ele><time>2026-04-12T08:50:48Z</time></trkpt><trkpt lat="45.44417911129359" lon="11.514952248355465"><ele>390.5</ele><time>2026-04-12T08:50:50Z</time></trkpt><trkpt lat="45.44424650634199" lon="11.514924804001714"><ele>389.33333333333337</ele><time>2026-04-12T08:50:53Z</time></trkpt><trkpt lat="45.44431758303556" lon="11.514891110470343"><ele>388.1666666666667</ele><time>2026-04-12T08:50:56Z</time></trkpt><trkpt lat="45.444385908560236" lon="11.51485969001572"><ele>387.0</ele><time>2026-04-12T08:50:58Z</time></trkpt><trkpt lat="45.44444213212637" lon="11.514713183204092"><ele>387.0</ele><time>2026-04-12T08:51:00Z</time></trkpt><trkpt lat="45.44445185439829" lon="11.514607399040296"><ele>387.0</ele><time>2026-04-12T08:51:01Z</time></trkpt><trkpt lat="45.44445992359904" lon="11.514510876085591"><ele>387.0</ele><time>2026-04-12T08:51:02Z</time></trkpt><trkpt lat="45.44445172631571" lon="11.514392220552269"><ele>387.0</ele><time>2026-04-12T08:51:03Z</time></trkpt><trkpt lat="45.444450677146165" lon="11.514283497166925"><ele>387.0</ele><time>2026-04-12T08:51:04Z</time></trkpt><trkpt lat="45.44445115476963" lon="11.514166243351681"><ele>387.0</ele><time>2026-04-12T08:51:05Z</time></trkpt><trkpt lat="45.44445294319779" lon="11.514051264709455"><ele>387.6666666666667</ele><time>2026-04-12T08:51:06Z</time></trkpt><trkpt lat="45.444461708248625" lon="11.513941168019347"><ele>388.33333333333337</ele><time>2026-04-12T08:51:07Z</time></trkpt><trkpt lat="45.44447433005217" lon="11.513816462204872"><ele>389.0</ele><time>2026-04-12T08:51:08Z</time></trkpt><trkpt lat="45.444484157488276" lon="11.513705652832005"><ele>389.6666666666667</ele><time>2026-04-12T08:51:09Z</time></trkpt><trkpt lat="45.444486729742124" lon="11.51357905962181"><ele>390.33333333333337</ele><time>2026-04-12T08:51:10Z</time></trkpt><trkpt lat="45.444497275002355" lon="11.513468907977451"><ele>391.0</ele><time>2026-04-12T08:51:11Z</time></trkpt><trkpt lat="45.4445071550564" lon="11.513361465520193"><ele>391.0</ele><time>2026-04-12T08:51:12Z</time></trkpt><trkpt lat="45.44452275432661" lon="11.513263245812023"><ele>391.0</ele><time>2026-04-12T08:51:13Z</time></trkpt><trkpt lat="45.4445665963268" lon="11.513103788644866"><ele>391.0</ele><time>2026-04-12T08:51:15Z</time></trkpt><trkpt lat="45.44462662955973" lon="11.512997837941139"><ele>391.0</ele><time>2026-04-12T08:51:17Z</time></trkpt><trkpt lat="45.44470119936221" lon="11.512914364409422"><ele>391.0</ele><time>2026-04-12T08:51:19Z</time></trkpt><trkpt lat="45.444820705635465" lon="11.512840749652554"><ele>388.6666666666667</ele><time>2026-04-12T08:51:21Z</time></trkpt><trkpt lat="45.44488653459702" lon="11.512790186706052"><ele>386.33333333333337</ele><time>2026-04-12T08:51:22Z</time></trkpt><trkpt lat="45.44495670881685" lon="11.512723326630882"><ele>384.0</ele><time>2026-04-12T08:51:23Z</time></trkpt><trkpt lat="45.445020881925906" lon="11.512646008433414"><ele>381.6666666666667</ele><time>2026-04-12T08:51:24Z</time></trkpt><trkpt lat="45.445074409963134" lon="11.512557616550744"><ele>379.33333333333337</ele><time>2026-04-12T08:51:25Z</time></trkpt><trkpt lat="45.44512325322584" lon="11.512473979787677"><ele>377.0</ele><time>2026-04-12T08:51:26Z</time></trkpt><trkpt lat="45.4451768090169" lon="11.512388719241098"><ele>377.0</ele><time>2026-04-12T08:51:27Z</time></trkpt><trkpt lat="45.44521851295831" lon="11.512294166080675"><ele>377.0</ele><time>2026-04-12T08:51:28Z</time></trkpt><trkpt lat="45.44526246797237" lon="11.512191227617619"><ele>377.0</ele><time>2026-04-12T08:51:29Z</time></trkpt><trkpt lat="45.445303347589295" lon="11.512079594895447"><ele>377.0</ele><time>2026-04-12T08:51:30Z</time></trkpt><trkpt lat="45.445345354291334" lon="11.511968385759454"><ele>377.0</ele><time>2026-04-12T08:51:31Z</time></trkpt><trkpt lat="45.44540130958782" lon="11.511854844525162"><ele>377.0</ele><time>2026-04-12T08:51:32Z</time></trkpt><trkpt lat="45.44547543226606" lon="11.511760356795273"><ele>374.8</ele><time>2026-04-12T08:51:33Z</time></trkpt><trkpt lat="45.445554150513075" lon="11.511682414186243"><ele>372.6</ele><time>2026-04-12T08:51:34Z</time></trkpt><trkpt lat="45.44562877404072" lon="11.511600597382508"><ele>370.40000000000003</ele><time>2026-04-12T08:51:35Z</time></trkpt><trkpt lat="45.44570272423327" lon="11.511520050624119"><ele>368.20000000000005</ele><time>2026-04-12T08:51:36Z</time></trkpt><trkpt lat="45.445777422776814" lon="11.511437376310017"><ele>366.0</ele><time>2026-04-12T08:51:37Z</time></trkpt><trkpt lat="45.445845700694925" lon="11.511352929217724"><ele>366.0</ele><time>2026-04-12T08:51:38Z</time></trkpt><trkpt lat="45.44591286119968" lon="11.511267752651621"><ele>366.0</ele><time>2026-04-12T08:51:39Z</time></trkpt><trkpt lat="45.4459795774475" lon="11.511190732019665"><ele>366.0</ele><time>2026-04-12T08:51:40Z</time></trkpt><trkpt lat="45.44604288554012" lon="11.511116376012486"><ele>366.0</ele><time>2026-04-12T08:51:41Z</time></trkpt><trkpt lat="45.44610659410729" lon="11.511034978965947"><ele>366.0</ele><time>2026-04-12T08:51:42Z</time></trkpt><trkpt lat="45.446161882514474" lon="11.510929974072202"><ele>366.0</ele><time>2026-04-12T08:51:43Z</time></trkpt><trkpt lat="45.446189001157265" lon="11.510821598605892"><ele>365.8333333333333</ele><time>2026-04-12T08:51:44Z</time></trkpt><trkpt lat="45.446183832871114" lon="11.510713152731153"><ele>365.6666666666667</ele><time>2026-04-12T08:51:45Z</time></trkpt><trkpt lat="45.44616320491909" lon="11.510615274342054"><ele>365.5</ele><time>2026-04-12T08:51:46Z</time></trkpt><trkpt lat="45.446137685810136" lon="11.51051578549164"><ele>365.33333333333337</ele><time>2026-04-12T08:51:47Z</time></trkpt><trkpt lat="45.44610608798832" lon="11.51040865076304"><ele>365.1666666666667</ele><time>2026-04-12T08:51:48Z</time></trkpt><trkpt lat="45.44607341042072" lon="11.510303426373744"><ele>365.0</ele><time>2026-04-12T08:51:49Z</time></trkpt><trkpt lat="45.44604184421378" lon="11.51019948835905"><ele>364.33333333333337</ele><time>2026-04-12T08:51:50Z</time></trkpt><trkpt lat="45.446007800586536" lon="11.510088542292662"><ele>363.6666666666667</ele><time>2026-04-12T08:51:51Z</time></trkpt><trkpt lat="45.44600102741861" lon="11.509974457621963"><ele>363.0</ele><time>2026-04-12T08:51:52Z</time></trkpt><trkpt lat="45.446011610804135" lon="11.509855674982841"><ele>362.3333333333333</ele><time>2026-04-12T08:51:53Z</time></trkpt><trkpt lat="45.446068627201576" lon="11.50975945479631"><ele>361.66666666666663</ele><time>2026-04-12T08:51:54Z</time></trkpt><trkpt lat="45.446133939255446" lon="11.509654592323072"><ele>361.0</ele><time>2026-04-12T08:51:55Z</time></trkpt><trkpt lat="45.44619525982225" lon="11.509549387338765"><ele>359.6</ele><time>2026-04-12T08:51:56Z</time></trkpt><trkpt lat="45.446258788035834" lon="11.509456799491238"><ele>358.20000000000005</ele><time>2026-04-12T08:51:57Z</time></trkpt><trkpt lat="45.446332080516875" lon="11.509375383027153"><ele>356.79999999999995</ele><time>2026-04-12T08:51:58Z</time></trkpt><trkpt lat="45.446405382482375" lon="11.509304374602129"><ele>355.4</ele><time>2026-04-12T08:51:59Z</time></trkpt><trkpt lat="45.44648177722111" lon="11.509227757427523"><ele>354.0</ele><time>2026-04-12T08:52:00Z</time></trkpt><trkpt lat="45.446552186155685" lon="11.509146149860745"><ele>355.4</ele><time>2026-04-12T08:52:01Z</time></trkpt><trkpt lat="45.44663450911497" lon="11.509050445122915"><ele>356.79999999999995</ele><time>2026-04-12T08:52:02Z</time></trkpt><trkpt lat="45.44670363578401" lon="11.508957958559185"><ele>358.20000000000005</ele><time>2026-04-12T08:52:03Z</time></trkpt><trkpt lat="45.44677276925095" lon="11.50885818227534"><ele>359.6</ele><time>2026-04-12T08:52:04Z</time></trkpt><trkpt lat="45.44683576409602" lon="11.508772669360004"><ele>361.0</ele><time>2026-04-12T08:52:05Z</time></trkpt><trkpt lat="45.44689853995445" lon="11.508685235189457"><ele>361.0</ele><time>2026-04-12T08:52:06Z</time></trkpt><trkpt lat="45.44696177816634" lon="11.508600312950842"><ele>361.0</ele><time>2026-04-12T08:52:07Z</time></trkpt><trkpt lat="45.447033044865925" lon="11.508514752307091"><ele>361.0</ele><time>2026-04-12T08:52:08Z</time></trkpt><trkpt lat="45.44710141616675" lon="11.508438146632836"><ele>361.0</ele><time>2026-04-12T08:52:09Z</time></trkpt><trkpt lat="45.44716791636877" lon="11.508380417058689"><ele>361.0</ele><time>2026-04-12T08:52:10Z</time></trkpt><trkpt lat="45.447246461375265" lon="11.508349600924754"><ele>361.0</ele><time>2026-04-12T08:52:11Z</time></trkpt><trkpt lat="45.447333483297825" lon="11.508350737585788"><ele>362.8</ele><time>2026-04-12T08:52:12Z</time></trkpt><trkpt lat="45.447424816640336" lon="11.508373445534493"><ele>364.6</ele><time>2026-04-12T08:52:13Z</time></trkpt><trkpt lat="45.44752487891181" lon="11.508383459302488"><ele>366.4</ele><time>2026-04-12T08:52:14Z</time></trkpt><trkpt lat="45.44762447739319" lon="11.508396183311037"><ele>368.2</ele><time>2026-04-12T08:52:15Z</time></trkpt><trkpt lat="45.44772319734082" lon="11.508401207345495"><ele>370.0</ele><time>2026-04-12T08:52:16Z</time></trkpt><trkpt lat="45.4478187721995" lon="11.508392963192447"><ele>370.0</ele><time>2026-04-12T08:52:17Z</time></trkpt><trkpt lat="45.44791733280128" lon="11.508354051078712"><ele>370.0</ele><time>2026-04-12T08:52:18Z</time></trkpt><trkpt lat="45.44800455088734" lon="11.508286643080748"><ele>370.0</ele><time>2026-04-12T08:52:19Z</time></trkpt><trkpt lat="45.44808878969848" lon="11.508195880734036"><ele>370.0</ele><time>2026-04-12T08:52:20Z</time></trkpt><trkpt lat="45.44816548449815" lon="11.508072196576425"><ele>370.0</ele><time>2026-04-12T08:52:21Z</time></trkpt><trkpt lat="45.448215923797065" lon="11.507931245867303"><ele>371.2</ele><time>2026-04-12T08:52:22Z</time></trkpt><trkpt lat="45.44822552838119" lon="11.507779217318088"><ele>372.4</ele><time>2026-04-12T08:52:23Z</time></trkpt><trkpt lat="45.44819681806293" lon="11.507621144658195"><ele>373.6</ele><time>2026-04-12T08:52:24Z</time></trkpt><trkpt lat="45.448159376745174" lon="11.507475215080317"><ele>374.8</ele><time>2026-04-12T08:52:25Z</time></trkpt><trkpt lat="45.44811576467106" lon="11.507340847023636"><ele>376.0</ele><time>2026-04-12T08:52:26Z</time></trkpt><trkpt lat="45.448079478650676" lon="11.507209125436695"><ele>374.8333333333333</ele><time>2026-04-12T08:52:27Z</time></trkpt><trkpt lat="45.448046223738196" lon="11.507077263456422"><ele>373.66666666666663</ele><time>2026-04-12T08:52:28Z</time></trkpt><trkpt lat="45.448012094423845" lon="11.506968162924954"><ele>372.5</ele><time>2026-04-12T08:52:29Z</time></trkpt><trkpt lat="45.44798222077233" lon="11.506865787923893"><ele>371.3333333333333</ele><time>2026-04-12T08:52:30Z</time></trkpt><trkpt lat="45.44796165840683" lon="11.506763858788245"><ele>370.1666666666667</ele><time>2026-04-12T08:52:31Z</time></trkpt><trkpt lat="45.44795514463775" lon="11.506660840316929"><ele>369.0</ele><time>2026-04-12T08:52:32Z</time></trkpt><trkpt lat="45.44797521204273" lon="11.506564954027473"><ele>369.0</ele><time>2026-04-12T08:52:33Z</time></trkpt><trkpt lat="45.44801786418218" lon="11.506476078805216"><ele>369.0</ele><time>2026-04-12T08:52:35Z</time></trkpt><trkpt lat="45.447796935584684" lon="11.506118635960316"><ele>369.0</ele><time>2026-04-12T08:53:19Z</time></trkpt><trkpt lat="45.447761807072304" lon="11.506000293152912"><ele>368.5</ele><time>2026-04-12T08:53:22Z</time></trkpt><trkpt lat="45.44774050237341" lon="11.505895976796772"><ele>368.0</ele><time>2026-04-12T08:53:25Z</time></trkpt><trkpt lat="45.44772580876493" lon="11.505770619669265"><ele>367.5</ele><time>2026-04-12T08:53:27Z</time></trkpt><trkpt lat="45.44772721912164" lon="11.505678823210244"><ele>367.0</ele><time>2026-04-12T08:53:28Z</time></trkpt><trkpt lat="45.44773863843916" lon="11.50556935350119"><ele>366.5</ele><time>2026-04-12T08:53:29Z</time></trkpt><trkpt lat="45.44775250184182" lon="11.50545066992428"><ele>366.0</ele><time>2026-04-12T08:53:30Z</time></trkpt><trkpt lat="45.44776849423019" lon="11.505313760270772"><ele>365.8</ele><time>2026-04-12T08:53:31Z</time></trkpt><trkpt lat="45.447783376589854" lon="11.50516106150997"><ele>365.6</ele><time>2026-04-12T08:53:32Z</time></trkpt><trkpt lat="45.4477946176923" lon="11.505064303542204"><ele>365.4</ele><time>2026-04-12T08:53:33Z</time></trkpt><trkpt lat="45.44781751334856" lon="11.504905073493871"><ele>365.2</ele><time>2026-04-12T08:53:34Z</time></trkpt><trkpt lat="45.44785987506737" lon="11.504785370960583"><ele>365.0</ele><time>2026-04-12T08:53:35Z</time></trkpt><trkpt lat="45.44791799465846" lon="11.504682403505683"><ele>362.4</ele><time>2026-04-12T08:53:36Z</time></trkpt><trkpt lat="45.44797477930984" lon="11.504604441122503"><ele>359.8</ele><time>2026-04-12T08:53:37Z</time></trkpt><trkpt lat="45.44803505288373" lon="11.504526232918382"><ele>357.20000000000005</ele><time>2026-04-12T08:53:38Z</time></trkpt><trkpt lat="45.448096454238716" lon="11.504417546802376"><ele>354.6</ele><time>2026-04-12T08:53:39Z</time></trkpt><trkpt lat="45.44818704659115" lon="11.504328088923659"><ele>352.0</ele><time>2026-04-12T08:53:40Z</time></trkpt><trkpt lat="45.44825886384621" lon="11.504226578253563"><ele>352.0</ele><time>2026-04-12T08:53:41Z</time></trkpt><trkpt lat="45.448324369905514" lon="11.504119508370799"><ele>352.0</ele><time>2026-04-12T08:53:42Z</time></trkpt><trkpt lat="45.44838625029244" lon="11.504011217859683"><ele>352.0</ele><time>2026-04-12T08:53:43Z</time></trkpt><trkpt lat="45.44845035652013" lon="11.503903069740193"><ele>352.0</ele><time>2026-04-12T08:53:44Z</time></trkpt><trkpt lat="45.44849919842125" lon="11.50378846655228"><ele>352.0</ele><time>2026-04-12T08:53:45Z</time></trkpt><trkpt lat="45.44852842463043" lon="11.503658280761941"><ele>351.6</ele><time>2026-04-12T08:53:46Z</time></trkpt><trkpt lat="45.44853578377482" lon="11.503533224622496"><ele>351.20000000000005</ele><time>2026-04-12T08:53:47Z</time></trkpt><trkpt lat="45.448496985474705" lon="11.50338172333944"><ele>350.8</ele><time>2026-04-12T08:53:48Z</time></trkpt><trkpt lat="45.44845361499673" lon="11.503274859606295"><ele>350.4</ele><time>2026-04-12T08:53:49Z</time></trkpt><trkpt lat="45.44839435650036" lon="11.503211784730473"><ele>350.0</ele><time>2026-04-12T08:53:50Z</time></trkpt><trkpt lat="45.448338338290604" lon="11.503098790153604"><ele>350.0</ele><time>2026-04-12T08:53:52Z</time></trkpt><trkpt lat="45.44837251320887" lon="11.502996036718365"><ele>350.0</ele><time>2026-04-12T08:53:55Z</time></trkpt><trkpt lat="45.44844949899851" lon="11.50288150906986"><ele>350.0</ele><time>2026-04-12T08:53:57Z</time></trkpt><trkpt lat="45.44850844114893" lon="11.502789794440055"><ele>350.0</ele><time>2026-04-12T08:53:59Z</time></trkpt><trkpt lat="45.44859237489609" lon="11.502710445363036"><ele>350.0</ele><time>2026-04-12T08:54:01Z</time></trkpt><trkpt lat="45.44867887874291" lon="11.5026438972438"><ele>346.4</ele><time>2026-04-12T08:54:03Z</time></trkpt><trkpt lat="45.448777443903964" lon="11.502584351994209"><ele>342.8</ele><time>2026-04-12T08:54:05Z</time></trkpt><trkpt lat="45.44886755281875" lon="11.50252102297132"><ele>339.20000000000005</ele><time>2026-04-12T08:54:07Z</time></trkpt><trkpt lat="45.4489313829272" lon="11.502512599682037"><ele>335.6</ele><time>2026-04-12T08:54:09Z</time></trkpt><trkpt lat="45.44902594467501" lon="11.502469083187279"><ele>332.0</ele><time>2026-04-12T08:54:12Z</time></trkpt><trkpt lat="45.44909879307178" lon="11.502363820361248"><ele>332.0</ele><time>2026-04-12T08:54:14Z</time></trkpt><trkpt lat="45.44913097603958" lon="11.50220108598568"><ele>332.0</ele><time>2026-04-12T08:54:16Z</time></trkpt><trkpt lat="45.44914469800987" lon="11.502106110316113"><ele>332.0</ele><time>2026-04-12T08:54:17Z</time></trkpt><trkpt lat="45.44917364576849" lon="11.502011567609287"><ele>332.0</ele><time>2026-04-12T08:54:18Z</time></trkpt><trkpt lat="45.449207554573135" lon="11.50192044518666"><ele>332.0</ele><time>2026-04-12T08:54:19Z</time></trkpt><trkpt lat="45.44922971011875" lon="11.501822250214948"><ele>332.0</ele><time>2026-04-12T08:54:20Z</time></trkpt><trkpt lat="45.44921736584025" lon="11.501696661666717"><ele>329.5</ele><time>2026-04-12T08:54:22Z</time></trkpt><trkpt lat="45.44903589956686" lon="11.501865548852798"><ele>327.0</ele><time>2026-04-12T08:54:40Z</time></trkpt><trkpt lat="45.44897981248975" lon="11.501921604447467"><ele>324.5</ele><time>2026-04-12T08:54:41Z</time></trkpt><trkpt lat="45.44886578420168" lon="11.501904566783129"><ele>322.0</ele><time>2026-04-12T08:54:43Z</time></trkpt><trkpt lat="45.44877049177402" lon="11.501906752930873"><ele>317.3333333333333</ele><time>2026-04-12T08:54:45Z</time></trkpt><trkpt lat="45.44869601054559" lon="11.501906752920199"><ele>312.66666666666663</ele><time>2026-04-12T08:54:47Z</time></trkpt><trkpt lat="45.44862958030291" lon="11.501930780354165"><ele>308.0</ele><time>2026-04-12T08:54:49Z</time></trkpt><trkpt lat="45.44856652816066" lon="11.501906373996421"><ele>303.3333333333333</ele><time>2026-04-12T08:54:51Z</time></trkpt><trkpt lat="45.44846078956514" lon="11.501914921704488"><ele>298.6666666666667</ele><time>2026-04-12T08:54:53Z</time></trkpt><trkpt lat="45.44833246446256" lon="11.501910223034374"><ele>294.0</ele><time>2026-04-12T08:54:55Z</time></trkpt><trkpt lat="45.44823312847548" lon="11.501895803308418"><ele>294.0</ele><time>2026-04-12T08:54:56Z</time></trkpt><trkpt lat="45.44812636473239" lon="11.50188562026524"><ele>294.0</ele><time>2026-04-12T08:54:57Z</time></trkpt><trkpt lat="45.448029439410966" lon="11.501882068731213"><ele>294.0</ele><time>2026-04-12T08:54:58Z</time></trkpt><trkpt lat="45.447937112786605" lon="11.501886491734878"><ele>294.0</ele><time>2026-04-12T08:54:59Z</time></trkpt><trkpt lat="45.447851887375954" lon="11.50188855472754"><ele>294.0</ele><time>2026-04-12T08:55:00Z</time></trkpt><trkpt lat="45.44776605552854" lon="11.501892465225513"><ele>287.2</ele><time>2026-04-12T08:55:01Z</time></trkpt><trkpt lat="45.44767549052917" lon="11.501888621557448"><ele>280.4</ele><time>2026-04-12T08:55:02Z</time></trkpt><trkpt lat="45.44758787058737" lon="11.501911768231688"><ele>273.6</ele><time>2026-04-12T08:55:03Z</time></trkpt><trkpt lat="45.447503076206544" lon="11.50193985532474"><ele>266.8</ele><time>2026-04-12T08:55:04Z</time></trkpt><trkpt lat="45.44743571682492" lon="11.501967913570097"><ele>260.0</ele><time>2026-04-12T08:55:05Z</time></trkpt><trkpt lat="45.44732445155516" lon="11.502006526369618"><ele>260.0</ele><time>2026-04-12T08:55:07Z</time></trkpt><trkpt lat="45.44724645771369" lon="11.501998520853293"><ele>260.0</ele><time>2026-04-12T08:55:09Z</time></trkpt><trkpt lat="45.44731216529825" lon="11.501952211696171"><ele>260.0</ele><time>2026-04-12T08:55:12Z</time></trkpt><trkpt lat="45.447387606957484" lon="11.501797266264843"><ele>260.0</ele><time>2026-04-12T08:55:13Z</time></trkpt><trkpt lat="45.44749797679319" lon="11.50173343987959"><ele>260.0</ele><time>2026-04-12T08:55:14Z</time></trkpt><trkpt lat="45.44759428497206" lon="11.501682711378532"><ele>260.0</ele><time>2026-04-12T08:55:16Z</time></trkpt><trkpt lat="45.44739353490987" lon="11.50160762306036"><ele>260.0</ele><time>2026-04-12T08:57:22Z</time></trkpt><trkpt lat="45.447311072126666" lon="11.501623378109853"><ele>260.0</ele><time>2026-04-12T08:57:23Z</time></trkpt><trkpt lat="45.44722354041409" lon="11.50164333708057"><ele>260.0</ele><time>2026-04-12T08:57:24Z</time></trkpt><trkpt lat="45.44713212964686" lon="11.501637134929826"><ele>253.4</ele><time>2026-04-12T08:57:25Z</time></trkpt><trkpt lat="45.44703898117951" lon="11.501623157916828"><ele>246.8</ele><time>2026-04-12T08:57:26Z</time></trkpt><trkpt lat="45.44694027996446" lon="11.501612632344834"><ele>240.2</ele><time>2026-04-12T08:57:27Z</time></trkpt><trkpt lat="45.44684131211" lon="11.501631775306757"><ele>233.6</ele><time>2026-04-12T08:57:28Z</time></trkpt><trkpt lat="45.44674348733617" lon="11.501662639309462"><ele>227.0</ele><time>2026-04-12T08:57:29Z</time></trkpt><trkpt lat="45.44665231073762" lon="11.501707430707658"><ele>227.0</ele><time>2026-04-12T08:57:30Z</time></trkpt><trkpt lat="45.44656698249311" lon="11.501766305581418"><ele>227.0</ele><time>2026-04-12T08:57:31Z</time></trkpt><trkpt lat="45.446488567803144" lon="11.501812680430739"><ele>227.0</ele><time>2026-04-12T08:57:32Z</time></trkpt><trkpt lat="45.446396281682226" lon="11.501845247450909"><ele>227.0</ele><time>2026-04-12T08:57:33Z</time></trkpt><trkpt lat="45.446304548893835" lon="11.501867232009317"><ele>227.0</ele><time>2026-04-12T08:57:34Z</time></trkpt><trkpt lat="45.44620718140205" lon="11.501859430804247"><ele>222.83333333333334</ele><time>2026-04-12T08:57:35Z</time></trkpt><trkpt lat="45.446111293887824" lon="11.50184086469111"><ele>218.66666666666669</ele><time>2026-04-12T08:57:36Z</time></trkpt><trkpt lat="45.44602264447968" lon="11.501849844452556"><ele>214.5</ele><time>2026-04-12T08:57:37Z</time></trkpt><trkpt lat="45.44593213017878" lon="11.50187873307484"><ele>210.33333333333331</ele><time>2026-04-12T08:57:38Z</time></trkpt><trkpt lat="45.445850646171486" lon="11.5019229035291"><ele>206.16666666666666</ele><time>2026-04-12T08:57:39Z</time></trkpt><trkpt lat="45.44576943559373" lon="11.501937527106067"><ele>202.0</ele><time>2026-04-12T08:57:40Z</time></trkpt><trkpt lat="45.44568304005126" lon="11.501935980541722"><ele>201.99999999999997</ele><time>2026-04-12T08:57:41Z</time></trkpt><trkpt lat="45.44560815416185" lon="11.501921128163445"><ele>202.0</ele><time>2026-04-12T08:57:42Z</time></trkpt><trkpt lat="45.44554200562538" lon="11.501899917321465"><ele>202.0</ele><time>2026-04-12T08:57:43Z</time></trkpt><trkpt lat="45.44548007493343" lon="11.501882710241215"><ele>202.0</ele><time>2026-04-12T08:57:44Z</time></trkpt><trkpt lat="45.44536848818355" lon="11.501846970401651"><ele>201.99999999999997</ele><time>2026-04-12T08:57:46Z</time></trkpt><trkpt lat="45.44528572625865" lon="11.501827242309512"><ele>202.0</ele><time>2026-04-12T08:57:48Z</time></trkpt><trkpt lat="45.4452123466073" lon="11.50182450491164"><ele>199.2</ele><time>2026-04-12T08:57:50Z</time></trkpt><trkpt lat="45.44510959296753" lon="11.501806858373024"><ele>196.39999999999998</ele><time>2026-04-12T08:57:52Z</time></trkpt><trkpt lat="45.44500803593096" lon="11.501745144268652"><ele>193.60000000000002</ele><time>2026-04-12T08:57:54Z</time></trkpt><trkpt lat="45.4449052446927" lon="11.501747877298909"><ele>190.8</ele><time>2026-04-12T08:57:56Z</time></trkpt><trkpt lat="45.44482087506799" lon="11.501761101283389"><ele>188.0</ele><time>2026-04-12T08:57:58Z</time></trkpt><trkpt lat="45.44475671991091" lon="11.501752361091343"><ele>188.0</ele><time>2026-04-12T08:57:59Z</time></trkpt><trkpt lat="45.444683064441236" lon="11.50173902834941"><ele>188.0</ele><time>2026-04-12T08:58:00Z</time></trkpt><trkpt lat="45.44460903474295" lon="11.50174506127808"><ele>188.0</ele><time>2026-04-12T08:58:01Z</time></trkpt><trkpt lat="45.444537714395885" lon="11.501755050988027"><ele>188.0</ele><time>2026-04-12T08:58:02Z</time></trkpt><trkpt lat="45.44446782477259" lon="11.501773039920035"><ele>188.0</ele><time>2026-04-12T08:58:03Z</time></trkpt><trkpt lat="45.44438956913607" lon="11.501807660011965"><ele>188.0</ele><time>2026-04-12T08:58:04Z</time></trkpt><trkpt lat="45.44431420237767" lon="11.501848415484126"><ele>182.20000000000002</ele><time>2026-04-12T08:58:05Z</time></trkpt><trkpt lat="45.444224215042404" lon="11.50188161638606"><ele>176.4</ele><time>2026-04-12T08:58:06Z</time></trkpt><trkpt lat="45.44413425285243" lon="11.501915104560572"><ele>170.60000000000002</ele><time>2026-04-12T08:58:07Z</time></trkpt><trkpt lat="45.44404513318057" lon="11.501951375406442"><ele>164.8</ele><time>2026-04-12T08:58:08Z</time></trkpt><trkpt lat="45.443964113621476" lon="11.50200461549473"><ele>159.0</ele><time>2026-04-12T08:58:09Z</time></trkpt><trkpt lat="45.44388667661053" lon="11.502063295064133"><ele>158.4</ele><time>2026-04-12T08:58:10Z</time></trkpt><trkpt lat="45.443801572995106" lon="11.502132179076016"><ele>157.8</ele><time>2026-04-12T08:58:11Z</time></trkpt><trkpt lat="45.443710068129356" lon="11.502198718902672"><ele>157.2</ele><time>2026-04-12T08:58:12Z</time></trkpt><trkpt lat="45.44361410936091" lon="11.502269668583068"><ele>156.6</ele><time>2026-04-12T08:58:13Z</time></trkpt><trkpt lat="45.44351822772598" lon="11.502367511257924"><ele>156.0</ele><time>2026-04-12T08:58:14Z</time></trkpt><trkpt lat="45.44342768513524" lon="11.502448718250022"><ele>156.0</ele><time>2026-04-12T08:58:15Z</time></trkpt><trkpt lat="45.44334989804418" lon="11.502534640449179"><ele>156.0</ele><time>2026-04-12T08:58:16Z</time></trkpt><trkpt lat="45.44327363215239" lon="11.502605130967664"><ele>156.0</ele><time>2026-04-12T08:58:17Z</time></trkpt><trkpt lat="45.44318762382304" lon="11.502648451746214"><ele>156.0</ele><time>2026-04-12T08:58:18Z</time></trkpt><trkpt lat="45.443103824124414" lon="11.502699339347823"><ele>156.0</ele><time>2026-04-12T08:58:19Z</time></trkpt><trkpt lat="45.44303028239631" lon="11.50275254454048"><ele>156.0</ele><time>2026-04-12T08:58:20Z</time></trkpt><trkpt lat="45.44296614637574" lon="11.50281054401384"><ele>156.0</ele><time>2026-04-12T08:58:21Z</time></trkpt><trkpt lat="45.44291137881028" lon="11.502859248531657"><ele>156.0</ele><time>2026-04-12T08:58:22Z</time></trkpt><trkpt lat="45.44281854480927" lon="11.502917989322892"><ele>156.0</ele><time>2026-04-12T08:58:24Z</time></trkpt><trkpt lat="45.442765262176884" lon="11.502794493911763"><ele>156.0</ele><time>2026-04-12T08:58:27Z</time></trkpt><trkpt lat="45.44282234165499" lon="11.502627261854359"><ele>156.0</ele><time>2026-04-12T08:58:29Z</time></trkpt><trkpt lat="45.442881031795324" lon="11.502513033908487"><ele>156.0</ele><time>2026-04-12T08:58:30Z</time></trkpt><trkpt lat="45.44293019636369" lon="11.502397577153621"><ele>156.0</ele><time>2026-04-12T08:58:31Z</time></trkpt><trkpt lat="45.44297053515713" lon="11.502253097147623"><ele>156.0</ele><time>2026-04-12T08:58:32Z</time></trkpt><trkpt lat="45.44299815898696" lon="11.502091063390933"><ele>156.0</ele><time>2026-04-12T08:58:33Z</time></trkpt><trkpt lat="45.44301105108422" lon="11.501931028087753"><ele>153.0</ele><time>2026-04-12T08:58:34Z</time></trkpt><trkpt lat="45.44299169983622" lon="11.501741040044742"><ele>150.0</ele><time>2026-04-12T08:58:35Z</time></trkpt><trkpt lat="45.4429931054468" lon="11.501588746405696"><ele>147.0</ele><time>2026-04-12T08:58:36Z</time></trkpt><trkpt lat="45.44299406450301" lon="11.501447825027956"><ele>144.0</ele><time>2026-04-12T08:58:37Z</time></trkpt><trkpt lat="45.44296467580593" lon="11.501327233306982"><ele>141.0</ele><time>2026-04-12T08:58:38Z</time></trkpt><trkpt lat="45.442936857767066" lon="11.50121317102944"><ele>140.5</ele><time>2026-04-12T08:58:39Z</time></trkpt><trkpt lat="45.4428877805226" lon="11.501149018611054"><ele>140.0</ele><time>2026-04-12T08:58:40Z</time></trkpt><trkpt lat="45.442825588821556" lon="11.501102209184625"><ele>139.5</ele><time>2026-04-12T08:58:41Z</time></trkpt><trkpt lat="45.44276239942509" lon="11.5010900343511"><ele>139.0</ele><time>2026-04-12T08:58:42Z</time></trkpt><trkpt lat="45.4426919879083" lon="11.50109678263939"><ele>138.5</ele><time>2026-04-12T08:58:43Z</time></trkpt><trkpt lat="45.44259716254753" lon="11.501100563389226"><ele>138.0</ele><time>2026-04-12T08:58:44Z</time></trkpt><trkpt lat="45.44249518639409" lon="11.501084467214778"><ele>138.0</ele><time>2026-04-12T08:58:45Z</time></trkpt><trkpt lat="45.44239737607929" lon="11.501073688409386"><ele>138.0</ele><time>2026-04-12T08:58:46Z</time></trkpt><trkpt lat="45.4423325718746" lon="11.501065899663148"><ele>138.0</ele><time>2026-04-12T08:58:47Z</time></trkpt><trkpt lat="45.442246083116146" lon="11.501088570637569"><ele>138.0</ele><time>2026-04-12T08:58:49Z</time></trkpt><trkpt lat="45.44213167574566" lon="11.50110762414012"><ele>138.0</ele><time>2026-04-12T08:58:51Z</time></trkpt><trkpt lat="45.44203277820393" lon="11.501178400500775"><ele>136.6</ele><time>2026-04-12T08:58:53Z</time></trkpt><trkpt lat="45.44197743768611" lon="11.501271388942008"><ele>135.20000000000002</ele><time>2026-04-12T08:58:54Z</time></trkpt><trkpt lat="45.44194019970799" lon="11.501410243363917"><ele>133.8</ele><time>2026-04-12T08:58:55Z</time></trkpt><trkpt lat="45.4419037640058" lon="11.501502322234474"><ele>132.4</ele><time>2026-04-12T08:58:56Z</time></trkpt><trkpt lat="45.441805352383604" lon="11.501448716330069"><ele>131.0</ele><time>2026-04-12T08:58:58Z</time></trkpt><trkpt lat="45.44174048800609" lon="11.501322427523295"><ele>130.4</ele><time>2026-04-12T08:58:59Z</time></trkpt><trkpt lat="45.44167954605803" lon="11.501239942991024"><ele>129.8</ele><time>2026-04-12T08:59:00Z</time></trkpt><trkpt lat="45.44160801818811" lon="11.501178832818855"><ele>129.20000000000002</ele><time>2026-04-12T08:59:01Z</time></trkpt><trkpt lat="45.44153502864217" lon="11.501073833237292"><ele>128.6</ele><time>2026-04-12T08:59:02Z</time></trkpt><trkpt lat="45.44146190854321" lon="11.500999405689125"><ele>128.0</ele><time>2026-04-12T08:59:03Z</time></trkpt><trkpt lat="45.44134354879665" lon="11.500944411551782"><ele>130.66666666666666</ele><time>2026-04-12T08:59:05Z</time></trkpt><trkpt lat="45.44126841169858" lon="11.500916682556339"><ele>133.33333333333331</ele><time>2026-04-12T08:59:06Z</time></trkpt><trkpt lat="45.44119888316386" lon="11.500871044381965"><ele>136.0</ele><time>2026-04-12T08:59:07Z</time></trkpt><trkpt lat="45.44113690942782" lon="11.500805718428767"><ele>138.66666666666666</ele><time>2026-04-12T08:59:08Z</time></trkpt><trkpt lat="45.441052033226555" lon="11.500724587918556"><ele>141.33333333333334</ele><time>2026-04-12T08:59:09Z</time></trkpt><trkpt lat="45.44096354593844" lon="11.500652564827067"><ele>144.0</ele><time>2026-04-12T08:59:10Z</time></trkpt><trkpt lat="45.44088755634312" lon="11.500573426904843"><ele>144.0</ele><time>2026-04-12T08:59:11Z</time></trkpt><trkpt lat="45.440813576728075" lon="11.500480055967927"><ele>144.0</ele><time>2026-04-12T08:59:12Z</time></trkpt><trkpt lat="45.44073628349922" lon="11.500391892570127"><ele>144.0</ele><time>2026-04-12T08:59:13Z</time></trkpt><trkpt lat="45.44064363376431" lon="11.500322291576209"><ele>144.0</ele><time>2026-04-12T08:59:14Z</time></trkpt><trkpt lat="45.44055907760324" lon="11.500276384765385"><ele>144.0</ele><time>2026-04-12T08:59:15Z</time></trkpt><trkpt lat="45.44049014056451" lon="11.50023047848606"><ele>144.6</ele><time>2026-04-12T08:59:16Z</time></trkpt><trkpt lat="45.440424925722304" lon="11.500169914480908"><ele>145.2</ele><time>2026-04-12T08:59:17Z</time></trkpt><trkpt lat="45.44036892107886" lon="11.500097909177974"><ele>145.79999999999998</ele><time>2026-04-12T08:59:18Z</time></trkpt><trkpt lat="45.440310946976524" lon="11.500011360959288"><ele>146.4</ele><time>2026-04-12T08:59:19Z</time></trkpt><trkpt lat="45.44023114560645" lon="11.49992399753699"><ele>147.0</ele><time>2026-04-12T08:59:20Z</time></trkpt><trkpt lat="45.44011467659598" lon="11.49984389265714"><ele>147.0</ele><time>2026-04-12T08:59:21Z</time></trkpt><trkpt lat="45.44002699974592" lon="11.499751127288556"><ele>147.0</ele><time>2026-04-12T08:59:22Z</time></trkpt><trkpt lat="45.43992355625335" lon="11.49968343784117"><ele>147.0</ele><time>2026-04-12T08:59:23Z</time></trkpt><trkpt lat="45.439837737479564" lon="11.499656123572814"><ele>147.0</ele><time>2026-04-12T08:59:24Z</time></trkpt><trkpt lat="45.43975377013871" lon="11.49960387418122"><ele>147.0</ele><time>2026-04-12T08:59:25Z</time></trkpt><trkpt lat="45.43967077499798" lon="11.499545591953641"><ele>148.79999999999998</ele><time>2026-04-12T08:59:26Z</time></trkpt><trkpt lat="45.43959060798486" lon="11.499485913661722"><ele>150.6</ele><time>2026-04-12T08:59:27Z</time></trkpt><trkpt lat="45.439508412206905" lon="11.499393726223406"><ele>152.39999999999998</ele><time>2026-04-12T08:59:28Z</time></trkpt><trkpt lat="45.43942690995169" lon="11.499351817236112"><ele>154.2</ele><time>2026-04-12T08:59:29Z</time></trkpt><trkpt lat="45.43935128383625" lon="11.49928114321894"><ele>156.0</ele><time>2026-04-12T08:59:30Z</time></trkpt><trkpt lat="45.439287243925165" lon="11.499185717994305"><ele>156.0</ele><time>2026-04-12T08:59:31Z</time></trkpt><trkpt lat="45.439268763497196" lon="11.49905276319093"><ele>156.0</ele><time>2026-04-12T08:59:32Z</time></trkpt><trkpt lat="45.4392341944996" lon="11.49886475852921"><ele>156.0</ele><time>2026-04-12T08:59:33Z</time></trkpt><trkpt lat="45.43924402903919" lon="11.498750386548437"><ele>156.0</ele><time>2026-04-12T08:59:34Z</time></trkpt><trkpt lat="45.43919331082665" lon="11.498660061260233"><ele>156.0</ele><time>2026-04-12T08:59:36Z</time></trkpt><trkpt lat="45.439103906212196" lon="11.498523345621729"><ele>154.6</ele><time>2026-04-12T08:59:38Z</time></trkpt><trkpt lat="45.439041148256926" lon="11.498396502985967"><ele>153.2</ele><time>2026-04-12T08:59:40Z</time></trkpt><trkpt lat="45.4389718302607" lon="11.498305694710723"><ele>151.8</ele><time>2026-04-12T08:59:41Z</time></trkpt><trkpt lat="45.438851727168796" lon="11.498269585559397"><ele>150.4</ele><time>2026-04-12T08:59:42Z</time></trkpt><trkpt lat="45.43874351552349" lon="11.498227798934588"><ele>149.0</ele><time>2026-04-12T08:59:43Z</time></trkpt><trkpt lat="45.438652025821554" lon="11.498237038887188"><ele>152.4</ele><time>2026-04-12T08:59:44Z</time></trkpt><trkpt lat="45.43855727005345" lon="11.498238509392154"><ele>155.8</ele><time>2026-04-12T08:59:46Z</time></trkpt><trkpt lat="45.43847109316314" lon="11.498329440447526"><ele>159.20000000000002</ele><time>2026-04-12T08:59:48Z</time></trkpt><trkpt lat="45.43845113302272" lon="11.498430681997304"><ele>162.60000000000002</ele><time>2026-04-12T08:59:49Z</time></trkpt><trkpt lat="45.4384372592697" lon="11.498553544822933"><ele>166.0</ele><time>2026-04-12T08:59:50Z</time></trkpt><trkpt lat="45.43838989710775" lon="11.49868529916082"><ele>168.20000000000002</ele><time>2026-04-12T08:59:51Z</time></trkpt><trkpt lat="45.43835709926976" lon="11.498829173316032"><ele>170.4</ele><time>2026-04-12T08:59:53Z</time></trkpt><trkpt lat="45.43835005070295" lon="11.498925071188625"><ele>172.6</ele><time>2026-04-12T08:59:54Z</time></trkpt><trkpt lat="45.438316928704914" lon="11.499003233369212"><ele>174.8</ele><time>2026-04-12T08:59:55Z</time></trkpt><trkpt lat="45.43823009670173" lon="11.499051723527264"><ele>177.0</ele><time>2026-04-12T08:59:57Z</time></trkpt><trkpt lat="45.43809447719075" lon="11.498923829676563"><ele>177.0</ele><time>2026-04-12T08:59:59Z</time></trkpt><trkpt lat="45.43801798981809" lon="11.498834438753361"><ele>177.0</ele><time>2026-04-12T09:00:00Z</time></trkpt><trkpt lat="45.43793431219287" lon="11.498751744687402"><ele>177.0</ele><time>2026-04-12T09:00:01Z</time></trkpt><trkpt lat="45.437879782573724" lon="11.498687008579596"><ele>177.0</ele><time>2026-04-12T09:00:02Z</time></trkpt><trkpt lat="45.43781216480719" lon="11.498586467184916"><ele>177.0</ele><time>2026-04-12T09:00:04Z</time></trkpt><trkpt lat="45.437765711663026" lon="11.498514568852924"><ele>177.0</ele><time>2026-04-12T09:00:06Z</time></trkpt><trkpt lat="45.43769690810193" lon="11.49839686768767"><ele>180.2857142857143</ele><time>2026-04-12T09:00:09Z</time></trkpt><trkpt lat="45.437646626692775" lon="11.498320498712646"><ele>183.57142857142856</ele><time>2026-04-12T09:00:10Z</time></trkpt><trkpt lat="45.4375980310784" lon="11.498240998817991"><ele>186.85714285714286</ele><time>2026-04-12T09:00:11Z</time></trkpt><trkpt lat="45.43755299349337" lon="11.498168375828499"><ele>190.14285714285717</ele><time>2026-04-12T09:00:12Z</time></trkpt><trkpt lat="45.43752345731781" lon="11.498083256298724"><ele>193.42857142857144</ele><time>2026-04-12T09:00:13Z</time></trkpt><trkpt lat="45.43749079029294" lon="11.497981457866887"><ele>196.71428571428572</ele><time>2026-04-12T09:00:14Z</time></trkpt><trkpt lat="45.43747813704056" lon="11.497861006945996"><ele>200.0</ele><time>2026-04-12T09:00:15Z</time></trkpt><trkpt lat="45.437443688866466" lon="11.497755135353724"><ele>200.00000000000003</ele><time>2026-04-12T09:00:16Z</time></trkpt><trkpt lat="45.43741134312226" lon="11.497665137204656"><ele>200.0</ele><time>2026-04-12T09:00:17Z</time></trkpt><trkpt lat="45.43738548306171" lon="11.497559505141117"><ele>200.0</ele><time>2026-04-12T09:00:18Z</time></trkpt><trkpt lat="45.4373519831667" lon="11.497451489634873"><ele>200.0</ele><time>2026-04-12T09:00:19Z</time></trkpt><trkpt lat="45.43732501156574" lon="11.497355455210066"><ele>200.00000000000003</ele><time>2026-04-12T09:00:20Z</time></trkpt><trkpt lat="45.43730151890485" lon="11.497235047965852"><ele>200.0</ele><time>2026-04-12T09:00:21Z</time></trkpt><trkpt lat="45.43732468797842" lon="11.497147439069398"><ele>200.2</ele><time>2026-04-12T09:00:22Z</time></trkpt><trkpt lat="45.4373398284067" lon="11.497040933542252"><ele>200.4</ele><time>2026-04-12T09:00:23Z</time></trkpt><trkpt lat="45.43730559783727" lon="11.496860129396008"><ele>200.60000000000002</ele><time>2026-04-12T09:00:25Z</time></trkpt><trkpt lat="45.437318446419575" lon="11.496698590127856"><ele>200.8</ele><time>2026-04-12T09:00:27Z</time></trkpt><trkpt lat="45.43732238494073" lon="11.496600803328581"><ele>201.0</ele><time>2026-04-12T09:00:28Z</time></trkpt><trkpt lat="45.43728567174295" lon="11.496403031055836"><ele>201.0</ele><time>2026-04-12T09:00:30Z</time></trkpt><trkpt lat="45.43724303075181" lon="11.49629050362621"><ele>201.0</ele><time>2026-04-12T09:00:31Z</time></trkpt><trkpt lat="45.437218959136075" lon="11.496147144260958"><ele>201.0</ele><time>2026-04-12T09:00:32Z</time></trkpt><trkpt lat="45.43720015336832" lon="11.496040224043464"><ele>201.0</ele><time>2026-04-12T09:00:33Z</time></trkpt><trkpt lat="45.43712531674471" lon="11.495959571927697"><ele>201.0</ele><time>2026-04-12T09:00:35Z</time></trkpt><trkpt lat="45.437058422236326" lon="11.495854088480462"><ele>211.60000000000002</ele><time>2026-04-12T09:00:37Z</time></trkpt><trkpt lat="45.437025344858455" lon="11.495768301119755"><ele>222.2</ele><time>2026-04-12T09:00:38Z</time></trkpt><trkpt lat="45.43697596044882" lon="11.495670312182646"><ele>232.79999999999998</ele><time>2026-04-12T09:00:39Z</time></trkpt><trkpt lat="45.4369244222662" lon="11.495542017893975"><ele>243.39999999999998</ele><time>2026-04-12T09:00:41Z</time></trkpt><trkpt lat="45.43689957938785" lon="11.495419510836005"><ele>254.0</ele><time>2026-04-12T09:00:43Z</time></trkpt><trkpt lat="45.43687381082647" lon="11.495263025112298"><ele>254.0</ele><time>2026-04-12T09:00:45Z</time></trkpt><trkpt lat="45.436863038271525" lon="11.495115275535165"><ele>253.99999999999997</ele><time>2026-04-12T09:00:47Z</time></trkpt><trkpt lat="45.43684628007253" lon="11.494957929933221"><ele>253.99999999999997</ele><time>2026-04-12T09:00:50Z</time></trkpt><trkpt lat="45.436863038127136" lon="11.494784755006437"><ele>254.0</ele><time>2026-04-12T09:00:52Z</time></trkpt><trkpt lat="45.43685977116068" lon="11.494686167966869"><ele>254.0</ele><time>2026-04-12T09:00:53Z</time></trkpt><trkpt lat="45.43685534580882" lon="11.494580562531809"><ele>254.6</ele><time>2026-04-12T09:00:54Z</time></trkpt><trkpt lat="45.436835331419616" lon="11.49444862719045"><ele>255.2</ele><time>2026-04-12T09:00:56Z</time></trkpt><trkpt lat="45.436811383150484" lon="11.494340353184578"><ele>255.79999999999998</ele><time>2026-04-12T09:00:58Z</time></trkpt><trkpt lat="45.43675822910912" lon="11.494188957207259"><ele>256.4</ele><time>2026-04-12T09:01:00Z</time></trkpt><trkpt lat="45.436708860326924" lon="11.494005403155308"><ele>257.0</ele><time>2026-04-12T09:01:02Z</time></trkpt><trkpt lat="45.43666797998223" lon="11.493883303928113"><ele>257.0</ele><time>2026-04-12T09:01:03Z</time></trkpt><trkpt lat="45.43665675749768" lon="11.493782758785326"><ele>257.0</ele><time>2026-04-12T09:01:04Z</time></trkpt><trkpt lat="45.43662725947494" lon="11.493613886835318"><ele>257.0</ele><time>2026-04-12T09:01:06Z</time></trkpt><trkpt lat="45.436546786416734" lon="11.493506970820729"><ele>257.0</ele><time>2026-04-12T09:01:08Z</time></trkpt><trkpt lat="45.43645816292468" lon="11.493393449279276"><ele>257.0</ele><time>2026-04-12T09:01:10Z</time></trkpt><trkpt lat="45.43638698380237" lon="11.493360054134053"><ele>258.6666666666667</ele><time>2026-04-12T09:01:11Z</time></trkpt><trkpt lat="45.43632118414844" lon="11.493352727713262"><ele>260.33333333333337</ele><time>2026-04-12T09:01:12Z</time></trkpt><trkpt lat="45.436227710346856" lon="11.493325354635749"><ele>262.0</ele><time>2026-04-12T09:01:14Z</time></trkpt><trkpt lat="45.43618256567074" lon="11.493261813795684"><ele>263.6666666666667</ele><time>2026-04-12T09:01:15Z</time></trkpt><trkpt lat="45.43612248587817" lon="11.493213636674986"><ele>265.3333333333333</ele><time>2026-04-12T09:01:16Z</time></trkpt><trkpt lat="45.43598716598852" lon="11.493215973374953"><ele>267.0</ele><time>2026-04-12T09:01:18Z</time></trkpt><trkpt lat="45.4359104600068" lon="11.493240657943137"><ele>267.0</ele><time>2026-04-12T09:01:19Z</time></trkpt><trkpt lat="45.435846165070025" lon="11.493286974419503"><ele>267.0</ele><time>2026-04-12T09:01:20Z</time></trkpt><trkpt lat="45.43575065878852" lon="11.493339349794166"><ele>267.0</ele><time>2026-04-12T09:01:22Z</time></trkpt><trkpt lat="45.435637085231875" lon="11.493364043850725"><ele>267.0</ele><time>2026-04-12T09:01:24Z</time></trkpt><trkpt lat="45.43556494221723" lon="11.49335834659019"><ele>267.0</ele><time>2026-04-12T09:01:25Z</time></trkpt><trkpt lat="45.43549334553664" lon="11.493381027885745"><ele>267.0</ele><time>2026-04-12T09:01:26Z</time></trkpt><trkpt lat="45.43541796945422" lon="11.493415130135151"><ele>265.6666666666667</ele><time>2026-04-12T09:01:27Z</time></trkpt><trkpt lat="45.43535148008524" lon="11.493459840355282"><ele>264.3333333333333</ele><time>2026-04-12T09:01:28Z</time></trkpt><trkpt lat="45.43528674393131" lon="11.493502719308918"><ele>263.0</ele><time>2026-04-12T09:01:29Z</time></trkpt><trkpt lat="45.43521164457451" lon="11.493555638598318"><ele>261.66666666666663</ele><time>2026-04-12T09:01:30Z</time></trkpt><trkpt lat="45.4351327547867" lon="11.493608353585095"><ele>260.3333333333333</ele><time>2026-04-12T09:01:31Z</time></trkpt><trkpt lat="45.435036777979626" lon="11.49369700162684"><ele>259.0</ele><time>2026-04-12T09:01:32Z</time></trkpt><trkpt lat="45.434948675583904" lon="11.493823796410139"><ele>263.5</ele><time>2026-04-12T09:01:33Z</time></trkpt><trkpt lat="45.4348447802891" lon="11.49396798515732"><ele>268.0</ele><time>2026-04-12T09:01:34Z</time></trkpt><trkpt lat="45.43476978324611" lon="11.494144498859917"><ele>272.5</ele><time>2026-04-12T09:01:35Z</time></trkpt><trkpt lat="45.43470998482229" lon="11.494280556598845"><ele>277.0</ele><time>2026-04-12T09:01:36Z</time></trkpt><trkpt lat="45.434682540656716" lon="11.494409342257377"><ele>277.0</ele><time>2026-04-12T09:01:37Z</time></trkpt><trkpt lat="45.43463921803068" lon="11.494534061707553"><ele>277.0</ele><time>2026-04-12T09:01:38Z</time></trkpt><trkpt lat="45.43458539325388" lon="11.494679558491306"><ele>277.0</ele><time>2026-04-12T09:01:39Z</time></trkpt><trkpt lat="45.434550755563635" lon="11.494779264540286"><ele>277.0</ele><time>2026-04-12T09:01:40Z</time></trkpt><trkpt lat="45.43449015357892" lon="11.494877526754449"><ele>277.0</ele><time>2026-04-12T09:01:42Z</time></trkpt><trkpt lat="45.43445158236781" lon="11.494951009086025"><ele>277.0</ele><time>2026-04-12T09:01:43Z</time></trkpt><trkpt lat="45.43442073137721" lon="11.49509170939913"><ele>277.2</ele><time>2026-04-12T09:01:45Z</time></trkpt><trkpt lat="45.43439998042602" lon="11.495216604337813"><ele>277.4</ele><time>2026-04-12T09:01:47Z</time></trkpt><trkpt lat="45.43440829462782" lon="11.49532668117727"><ele>277.6</ele><time>2026-04-12T09:01:49Z</time></trkpt><trkpt lat="45.43439999166296" lon="11.495481283091323"><ele>277.8</ele><time>2026-04-12T09:01:51Z</time></trkpt><trkpt lat="45.434377345107876" lon="11.495619860246935"><ele>278.0</ele><time>2026-04-12T09:01:53Z</time></trkpt><trkpt lat="45.434361111610954" lon="11.495790675408273"><ele>280.1666666666667</ele><time>2026-04-12T09:01:55Z</time></trkpt><trkpt lat="45.434331221449824" lon="11.495955457197946"><ele>282.33333333333337</ele><time>2026-04-12T09:01:57Z</time></trkpt><trkpt lat="45.43430442924796" lon="11.496058737749031"><ele>284.5</ele><time>2026-04-12T09:01:58Z</time></trkpt><trkpt lat="45.43428484074136" lon="11.49617429615024"><ele>286.6666666666667</ele><time>2026-04-12T09:01:59Z</time></trkpt><trkpt lat="45.43427350505468" lon="11.496287317342928"><ele>288.8333333333333</ele><time>2026-04-12T09:02:00Z</time></trkpt><trkpt lat="45.43425427107056" lon="11.496393849916577"><ele>291.0</ele><time>2026-04-12T09:02:01Z</time></trkpt><trkpt lat="45.43423358771471" lon="11.496495455477394"><ele>293.0</ele><time>2026-04-12T09:02:02Z</time></trkpt><trkpt lat="45.434240505956986" lon="11.49668840020669"><ele>295.0</ele><time>2026-04-12T09:02:04Z</time></trkpt><trkpt lat="45.434246496426276" lon="11.496819411043681"><ele>297.0</ele><time>2026-04-12T09:02:05Z</time></trkpt><trkpt lat="45.43422110805095" lon="11.496970393206036"><ele>299.0</ele><time>2026-04-12T09:02:06Z</time></trkpt><trkpt lat="45.43417157046957" lon="11.497144172180297"><ele>301.33333333333337</ele><time>2026-04-12T09:02:07Z</time></trkpt><trkpt lat="45.43411735389177" lon="11.497253156234708"><ele>303.6666666666667</ele><time>2026-04-12T09:02:08Z</time></trkpt><trkpt lat="45.43406482368923" lon="11.497337495172527"><ele>306.0</ele><time>2026-04-12T09:02:09Z</time></trkpt><trkpt lat="45.433998795767316" lon="11.4974196372396"><ele>308.3333333333333</ele><time>2026-04-12T09:02:10Z</time></trkpt><trkpt lat="45.433924807068955" lon="11.497487793073123"><ele>310.66666666666663</ele><time>2026-04-12T09:02:11Z</time></trkpt><trkpt lat="45.43385320306228" lon="11.497567916400305"><ele>313.0</ele><time>2026-04-12T09:02:12Z</time></trkpt><trkpt lat="45.43378997942206" lon="11.497610474697527"><ele>313.66666666666663</ele><time>2026-04-12T09:02:13Z</time></trkpt><trkpt lat="45.43371941295032" lon="11.497620732069528"><ele>314.3333333333333</ele><time>2026-04-12T09:02:14Z</time></trkpt><trkpt lat="45.433647659274136" lon="11.497627126910018"><ele>315.0</ele><time>2026-04-12T09:02:15Z</time></trkpt><trkpt lat="45.43356725380331" lon="11.49756889497531"><ele>315.6666666666667</ele><time>2026-04-12T09:02:16Z</time></trkpt><trkpt lat="45.43351545384023" lon="11.497499939976308"><ele>316.33333333333337</ele><time>2026-04-12T09:02:17Z</time></trkpt><trkpt lat="45.43344499828143" lon="11.497473769043353"><ele>317.0</ele><time>2026-04-12T09:02:18Z</time></trkpt><trkpt lat="45.4333472448496" lon="11.4974400184802"><ele>317.0</ele><time>2026-04-12T09:02:19Z</time></trkpt><trkpt lat="45.43325708768996" lon="11.497420796524715"><ele>317.0</ele><time>2026-04-12T09:02:20Z</time></trkpt><trkpt lat="45.43315314258195" lon="11.497448199842648"><ele>317.0</ele><time>2026-04-12T09:02:22Z</time></trkpt><trkpt lat="45.433171660481975" lon="11.497613090615907"><ele>317.0</ele><time>2026-04-12T09:02:25Z</time></trkpt><trkpt lat="45.43320900534415" lon="11.49768622820055"><ele>317.0</ele><time>2026-04-12T09:02:26Z</time></trkpt><trkpt lat="45.433251317330885" lon="11.497752687444589"><ele>317.0</ele><time>2026-04-12T09:02:27Z</time></trkpt><trkpt lat="45.43330401689319" lon="11.497861765543089"><ele>318.0</ele><time>2026-04-12T09:02:30Z</time></trkpt><trkpt lat="45.43337270636281" lon="11.497970838806216"><ele>319.0</ele><time>2026-04-12T09:02:31Z</time></trkpt><trkpt lat="45.4334432539989" lon="11.498047691003196"><ele>320.0</ele><time>2026-04-12T09:02:32Z</time></trkpt><trkpt lat="45.43349619175436" lon="11.498102676280258"><ele>321.0</ele><time>2026-04-12T09:02:33Z</time></trkpt><trkpt lat="45.43355096516799" lon="11.49815522241988"><ele>322.0</ele><time>2026-04-12T09:02:34Z</time></trkpt><trkpt lat="45.433610219832495" lon="11.49829717184737"><ele>323.0</ele><time>2026-04-12T09:02:36Z</time></trkpt><trkpt lat="45.43360899435119" lon="11.498416362591598"><ele>323.0</ele><time>2026-04-12T09:02:37Z</time></trkpt><trkpt lat="45.433611061546245" lon="11.498556933129427"><ele>323.0</ele><time>2026-04-12T09:02:38Z</time></trkpt><trkpt lat="45.43362058866969" lon="11.498696455856033"><ele>323.0</ele><time>2026-04-12T09:02:39Z</time></trkpt><trkpt lat="45.433614302004116" lon="11.498835713103563"><ele>323.0</ele><time>2026-04-12T09:02:40Z</time></trkpt><trkpt lat="45.4336057683881" lon="11.498963936244513"><ele>323.0</ele><time>2026-04-12T09:02:41Z</time></trkpt><trkpt lat="45.43358303839038" lon="11.499072455065512"><ele>323.6666666666667</ele><time>2026-04-12T09:02:42Z</time></trkpt><trkpt lat="45.433544761418425" lon="11.499163631774012"><ele>324.33333333333337</ele><time>2026-04-12T09:02:43Z</time></trkpt><trkpt lat="45.4335034768548" lon="11.49923725459236"><ele>325.0</ele><time>2026-04-12T09:02:44Z</time></trkpt><trkpt lat="45.43346131946304" lon="11.499319843351692"><ele>325.6666666666667</ele><time>2026-04-12T09:02:45Z</time></trkpt><trkpt lat="45.43341192313489" lon="11.49939807123193"><ele>326.3333333333333</ele><time>2026-04-12T09:02:46Z</time></trkpt><trkpt lat="45.433357956897005" lon="11.499492949291271"><ele>327.0</ele><time>2026-04-12T09:02:47Z</time></trkpt><trkpt lat="45.43330738769406" lon="11.49958603333723"><ele>327.1666666666667</ele><time>2026-04-12T09:02:48Z</time></trkpt><trkpt lat="45.43326380794359" lon="11.499684327405594"><ele>327.3333333333333</ele><time>2026-04-12T09:02:49Z</time></trkpt><trkpt lat="45.43323669652893" lon="11.499805121099266"><ele>327.5</ele><time>2026-04-12T09:02:50Z</time></trkpt><trkpt lat="45.43323408894315" lon="11.499898921958941"><ele>327.66666666666663</ele><time>2026-04-12T09:02:51Z</time></trkpt><trkpt lat="45.433240020232134" lon="11.50001329260898"><ele>327.8333333333333</ele><time>2026-04-12T09:02:52Z</time></trkpt><trkpt lat="45.43324128034816" lon="11.500125589261392"><ele>328.0</ele><time>2026-04-12T09:02:53Z</time></trkpt><trkpt lat="45.433223947944654" lon="11.500228746978824"><ele>328.0</ele><time>2026-04-12T09:02:54Z</time></trkpt><trkpt lat="45.43320584708301" lon="11.500322877280555"><ele>328.0</ele><time>2026-04-12T09:02:55Z</time></trkpt><trkpt lat="45.433190177052225" lon="11.500425074159597"><ele>328.0</ele><time>2026-04-12T09:02:56Z</time></trkpt><trkpt lat="45.43316144697501" lon="11.500584876629173"><ele>328.0</ele><time>2026-04-12T09:02:58Z</time></trkpt><trkpt lat="45.43312545705109" lon="11.500734276988887"><ele>328.0</ele><time>2026-04-12T09:03:00Z</time></trkpt><trkpt lat="45.4331036054114" lon="11.500829198840771"><ele>328.0</ele><time>2026-04-12T09:03:01Z</time></trkpt><trkpt lat="45.43308329003739" lon="11.500946498124273"><ele>328.0</ele><time>2026-04-12T09:03:02Z</time></trkpt><trkpt lat="45.43306083237881" lon="11.501053722558419"><ele>328.0</ele><time>2026-04-12T09:03:03Z</time></trkpt><trkpt lat="45.433035281101965" lon="11.501180338602337"><ele>328.0</ele><time>2026-04-12T09:03:04Z</time></trkpt><trkpt lat="45.43301225948079" lon="11.501291377108858"><ele>328.0</ele><time>2026-04-12T09:03:05Z</time></trkpt><trkpt lat="45.43300026091436" lon="11.501391560990925"><ele>328.0</ele><time>2026-04-12T09:03:06Z</time></trkpt><trkpt lat="45.4329694909282" lon="11.501527426849139"><ele>328.0</ele><time>2026-04-12T09:03:08Z</time></trkpt><trkpt lat="45.43296109003562" lon="11.501622771947087"><ele>327.5</ele><time>2026-04-12T09:03:10Z</time></trkpt><trkpt lat="45.43287551506361" lon="11.5017850891345"><ele>327.0</ele><time>2026-04-12T09:03:28Z</time></trkpt><trkpt lat="45.432784732389955" lon="11.50185951130637"><ele>326.5</ele><time>2026-04-12T09:03:29Z</time></trkpt><trkpt lat="45.43269546372179" lon="11.501966765767735"><ele>326.0</ele><time>2026-04-12T09:03:30Z</time></trkpt><trkpt lat="45.432615218272154" lon="11.502082068622311"><ele>326.0</ele><time>2026-04-12T09:03:31Z</time></trkpt><trkpt lat="45.4325497838103" lon="11.502165315832514"><ele>326.0</ele><time>2026-04-12T09:03:32Z</time></trkpt><trkpt lat="45.4324946504047" lon="11.502213840169697"><ele>326.0</ele><time>2026-04-12T09:03:33Z</time></trkpt><trkpt lat="45.432425707071395" lon="11.502230747422722"><ele>326.0</ele><time>2026-04-12T09:03:34Z</time></trkpt><trkpt lat="45.432344682096236" lon="11.502205798222878"><ele>326.0</ele><time>2026-04-12T09:03:35Z</time></trkpt><trkpt lat="45.43225170222304" lon="11.502314420029808"><ele>326.0</ele><time>2026-04-12T09:03:37Z</time></trkpt><trkpt lat="45.43221215353179" lon="11.502470983936274"><ele>326.0</ele><time>2026-04-12T09:03:39Z</time></trkpt><trkpt lat="45.432231241740695" lon="11.502582871475806"><ele>326.0</ele><time>2026-04-12T09:03:40Z</time></trkpt><trkpt lat="45.43226949244895" lon="11.502683413767768"><ele>326.0</ele><time>2026-04-12T09:03:41Z</time></trkpt><trkpt lat="45.43232813682817" lon="11.502783002878667"><ele>326.0</ele><time>2026-04-12T09:03:42Z</time></trkpt><trkpt lat="45.43237214336007" lon="11.502885830920986"><ele>326.0</ele><time>2026-04-12T09:03:43Z</time></trkpt><trkpt lat="45.43238916559634" lon="11.502996913812204"><ele>326.0</ele><time>2026-04-12T09:03:44Z</time></trkpt><trkpt lat="45.43241795319635" lon="11.503097956291265"><ele>325.20000000000005</ele><time>2026-04-12T09:03:45Z</time></trkpt><trkpt lat="45.43237611642154" lon="11.503194459026489"><ele>324.40000000000003</ele><time>2026-04-12T09:03:47Z</time></trkpt><trkpt lat="45.432270115765526" lon="11.503262811080518"><ele>323.6</ele><time>2026-04-12T09:03:49Z</time></trkpt><trkpt lat="45.43222235594101" lon="11.50333668798139"><ele>322.8</ele><time>2026-04-12T09:03:50Z</time></trkpt><trkpt lat="45.43209523770709" lon="11.503338992207025"><ele>322.0</ele><time>2026-04-12T09:03:52Z</time></trkpt><trkpt lat="45.43203325594029" lon="11.503297877983707"><ele>318.6</ele><time>2026-04-12T09:03:53Z</time></trkpt><trkpt lat="45.43193604017868" lon="11.503333121504047"><ele>315.20000000000005</ele><time>2026-04-12T09:03:54Z</time></trkpt><trkpt lat="45.43185119890177" lon="11.503338194703629"><ele>311.8</ele><time>2026-04-12T09:03:55Z</time></trkpt><trkpt lat="45.431730034993855" lon="11.503382783781966"><ele>308.4</ele><time>2026-04-12T09:03:57Z</time></trkpt><trkpt lat="45.43161326333676" lon="11.503397561940202"><ele>305.0</ele><time>2026-04-12T09:03:59Z</time></trkpt><trkpt lat="45.431544874175025" lon="11.50341544373931"><ele>305.0</ele><time>2026-04-12T09:04:00Z</time></trkpt><trkpt lat="45.43146649552795" lon="11.503447005312998"><ele>305.0</ele><time>2026-04-12T09:04:01Z</time></trkpt><trkpt lat="45.43138815843071" lon="11.503477012975475"><ele>305.0</ele><time>2026-04-12T09:04:02Z</time></trkpt><trkpt lat="45.431325450839445" lon="11.503515933820289"><ele>305.0</ele><time>2026-04-12T09:04:03Z</time></trkpt><trkpt lat="45.431266221041135" lon="11.503569356660863"><ele>305.0</ele><time>2026-04-12T09:04:04Z</time></trkpt><trkpt lat="45.431197870246706" lon="11.50364317527768"><ele>305.0</ele><time>2026-04-12T09:04:05Z</time></trkpt><trkpt lat="45.43114463604521" lon="11.503698266719395"><ele>303.8</ele><time>2026-04-12T09:04:06Z</time></trkpt><trkpt lat="45.431071528660674" lon="11.503758607060446"><ele>302.6</ele><time>2026-04-12T09:04:08Z</time></trkpt><trkpt lat="45.4310007801261" lon="11.503845228335301"><ele>301.4</ele><time>2026-04-12T09:04:10Z</time></trkpt><trkpt lat="45.43088337205769" lon="11.503889405692744"><ele>300.2</ele><time>2026-04-12T09:04:12Z</time></trkpt><trkpt lat="45.430775314772525" lon="11.503910346487093"><ele>299.0</ele><time>2026-04-12T09:04:14Z</time></trkpt><trkpt lat="45.43070710417511" lon="11.503880293122304"><ele>299.0</ele><time>2026-04-12T09:04:15Z</time></trkpt><trkpt lat="45.43064669765881" lon="11.503840633239808"><ele>299.0</ele><time>2026-04-12T09:04:16Z</time></trkpt><trkpt lat="45.43059104271554" lon="11.503791628152694"><ele>299.0</ele><time>2026-04-12T09:04:17Z</time></trkpt><trkpt lat="45.43052266660085" lon="11.50367104592583"><ele>299.0</ele><time>2026-04-12T09:04:19Z</time></trkpt><trkpt lat="45.43048569204133" lon="11.503590258250313"><ele>299.0</ele><time>2026-04-12T09:04:20Z</time></trkpt><trkpt lat="45.43035425709774" lon="11.503551970079622"><ele>299.0</ele><time>2026-04-12T09:04:22Z</time></trkpt><trkpt lat="45.430236084120516" lon="11.503478216306515"><ele>297.83333333333337</ele><time>2026-04-12T09:04:24Z</time></trkpt><trkpt lat="45.43018680259295" lon="11.503405579523072"><ele>296.6666666666667</ele><time>2026-04-12T09:04:25Z</time></trkpt><trkpt lat="45.43011356717943" lon="11.503325636242788"><ele>295.5</ele><time>2026-04-12T09:04:26Z</time></trkpt><trkpt lat="45.43004576794049" lon="11.503246025561149"><ele>294.3333333333333</ele><time>2026-04-12T09:04:28Z</time></trkpt><trkpt lat="45.43001172798909" lon="11.503170329670708"><ele>293.16666666666663</ele><time>2026-04-12T09:04:30Z</time></trkpt><trkpt lat="45.43004537909473" lon="11.50305270724079"><ele>292.0</ele><time>2026-04-12T09:04:33Z</time></trkpt><trkpt lat="45.430052346360284" lon="11.502948840918735"><ele>290.0</ele><time>2026-04-12T09:04:35Z</time></trkpt><trkpt lat="45.43002868777956" lon="11.502820114454797"><ele>288.0</ele><time>2026-04-12T09:04:37Z</time></trkpt><trkpt lat="45.43002861085899" lon="11.502726731516713"><ele>286.0</ele><time>2026-04-12T09:04:39Z</time></trkpt><trkpt lat="45.430019479961516" lon="11.50252090931852"><ele>284.0</ele><time>2026-04-12T09:04:41Z</time></trkpt><trkpt lat="45.429978759280615" lon="11.502346108770938"><ele>282.0</ele><time>2026-04-12T09:04:43Z</time></trkpt><trkpt lat="45.42993883443693" lon="11.502260790104566"><ele>282.0</ele><time>2026-04-12T09:04:44Z</time></trkpt><trkpt lat="45.429875148647035" lon="11.50222363216471"><ele>282.0</ele><time>2026-04-12T09:04:45Z</time></trkpt><trkpt lat="45.42976573631513" lon="11.502159196042827"><ele>282.0</ele><time>2026-04-12T09:04:47Z</time></trkpt><trkpt lat="45.42965256172451" lon="11.50207104512349"><ele>282.0</ele><time>2026-04-12T09:04:49Z</time></trkpt><trkpt lat="45.429585714010926" lon="11.502035233330767"><ele>282.0</ele><time>2026-04-12T09:04:50Z</time></trkpt><trkpt lat="45.429447683729045" lon="11.502029692142608"><ele>283.0</ele><time>2026-04-12T09:04:52Z</time></trkpt><trkpt lat="45.42937818600584" lon="11.502054090599168"><ele>284.0</ele><time>2026-04-12T09:04:53Z</time></trkpt><trkpt lat="45.429302637464666" lon="11.502061704132565"><ele>285.0</ele><time>2026-04-12T09:04:54Z</time></trkpt><trkpt lat="45.42920960025049" lon="11.502070160440283"><ele>286.0</ele><time>2026-04-12T09:04:55Z</time></trkpt><trkpt lat="45.42910979245922" lon="11.502086113332473"><ele>287.0</ele><time>2026-04-12T09:04:56Z</time></trkpt><trkpt lat="45.42902680183662" lon="11.502086670544013"><ele>288.0</ele><time>2026-04-12T09:04:57Z</time></trkpt><trkpt lat="45.42895105457875" lon="11.502066811853117"><ele>285.0</ele><time>2026-04-12T09:04:58Z</time></trkpt><trkpt lat="45.42888550669951" lon="11.502042974623146"><ele>282.0</ele><time>2026-04-12T09:04:59Z</time></trkpt><trkpt lat="45.42882135697385" lon="11.502041128580121"><ele>279.0</ele><time>2026-04-12T09:05:00Z</time></trkpt><trkpt lat="45.42874979209572" lon="11.502036484249176"><ele>276.0</ele><time>2026-04-12T09:05:02Z</time></trkpt><trkpt lat="45.42867046584766" lon="11.502013864066077"><ele>273.0</ele><time>2026-04-12T09:05:04Z</time></trkpt><trkpt lat="45.42857559358687" lon="11.501998407305491"><ele>270.0</ele><time>2026-04-12T09:05:06Z</time></trkpt><trkpt lat="45.42850248813043" lon="11.502021547323125"><ele>270.0</ele><time>2026-04-12T09:05:07Z</time></trkpt><trkpt lat="45.42844886652139" lon="11.502069482915477"><ele>270.0</ele><time>2026-04-12T09:05:08Z</time></trkpt><trkpt lat="45.428354040276155" lon="11.502132698364205"><ele>270.0</ele><time>2026-04-12T09:05:09Z</time></trkpt><trkpt lat="45.42823818978703" lon="11.502236822074682"><ele>270.0</ele><time>2026-04-12T09:05:10Z</time></trkpt><trkpt lat="45.42813622766633" lon="11.502320486773787"><ele>270.0</ele><time>2026-04-12T09:05:11Z</time></trkpt><trkpt lat="45.42804544301294" lon="11.50233333134227"><ele>271.8333333333333</ele><time>2026-04-12T09:05:12Z</time></trkpt><trkpt lat="45.42796242356718" lon="11.502294738780451"><ele>273.6666666666667</ele><time>2026-04-12T09:05:13Z</time></trkpt><trkpt lat="45.427880982709304" lon="11.502229848702669"><ele>275.5</ele><time>2026-04-12T09:05:14Z</time></trkpt><trkpt lat="45.42782108253827" lon="11.502142727583358"><ele>277.33333333333337</ele><time>2026-04-12T09:05:15Z</time></trkpt><trkpt lat="45.42777509893041" lon="11.502061112852926"><ele>279.1666666666667</ele><time>2026-04-12T09:05:16Z</time></trkpt><trkpt lat="45.427695758286006" lon="11.50196967717689"><ele>281.0</ele><time>2026-04-12T09:05:18Z</time></trkpt><trkpt lat="45.42763403687921" lon="11.502025559383013"><ele>281.2</ele><time>2026-04-12T09:05:20Z</time></trkpt><trkpt lat="45.42762781358043" lon="11.502174363724942"><ele>281.40000000000003</ele><time>2026-04-12T09:05:22Z</time></trkpt><trkpt lat="45.42766975304196" lon="11.502266535063178"><ele>281.6</ele><time>2026-04-12T09:05:23Z</time></trkpt><trkpt lat="45.4277288065647" lon="11.502369638736921"><ele>281.8</ele><time>2026-04-12T09:05:24Z</time></trkpt><trkpt lat="45.427796086304696" lon="11.50246386288762"><ele>282.0</ele><time>2026-04-12T09:05:25Z</time></trkpt><trkpt lat="45.427852294958264" lon="11.502569260920712"><ele>282.0</ele><time>2026-04-12T09:05:26Z</time></trkpt><trkpt lat="45.42791670685632" lon="11.502677181620012"><ele>282.0</ele><time>2026-04-12T09:05:27Z</time></trkpt><trkpt lat="45.42798961359791" lon="11.50275035051655"><ele>282.0</ele><time>2026-04-12T09:05:28Z</time></trkpt><trkpt lat="45.428053372514846" lon="11.502789072623218"><ele>282.0</ele><time>2026-04-12T09:05:29Z</time></trkpt><trkpt lat="45.42815199451508" lon="11.502825574236105"><ele>282.0</ele><time>2026-04-12T09:05:31Z</time></trkpt><trkpt lat="45.42824961681565" lon="11.502800195303896"><ele>282.6</ele><time>2026-04-12T09:05:33Z</time></trkpt><trkpt lat="45.42831149898705" lon="11.502890544510969"><ele>283.2</ele><time>2026-04-12T09:05:35Z</time></trkpt><trkpt lat="45.42822798231465" lon="11.50297989526092"><ele>283.8</ele><time>2026-04-12T09:05:37Z</time></trkpt><trkpt lat="45.4281065215001" lon="11.502968209445484"><ele>284.4</ele><time>2026-04-12T09:05:39Z</time></trkpt><trkpt lat="45.42799476390004" lon="11.502955169178142"><ele>285.0</ele><time>2026-04-12T09:05:40Z</time></trkpt><trkpt lat="45.4279121006031" lon="11.502982708411917"><ele>285.0</ele><time>2026-04-12T09:05:41Z</time></trkpt><trkpt lat="45.427833774023206" lon="11.503127873305637"><ele>285.0</ele><time>2026-04-12T09:05:43Z</time></trkpt><trkpt lat="45.42780147186643" lon="11.50322915210839"><ele>285.0</ele><time>2026-04-12T09:05:44Z</time></trkpt><trkpt lat="45.42776295093829" lon="11.503335373672147"><ele>285.0</ele><time>2026-04-12T09:05:45Z</time></trkpt><trkpt lat="45.42772140320916" lon="11.503422622876663"><ele>285.0</ele><time>2026-04-12T09:05:46Z</time></trkpt><trkpt lat="45.42768432082108" lon="11.503497177648539"><ele>285.0</ele><time>2026-04-12T09:05:47Z</time></trkpt><trkpt lat="45.42764566885918" lon="11.503661858705971"><ele>283.3333333333333</ele><time>2026-04-12T09:05:49Z</time></trkpt><trkpt lat="45.4276612906651" lon="11.503768289456199"><ele>281.6666666666667</ele><time>2026-04-12T09:05:50Z</time></trkpt><trkpt lat="45.4277126309108" lon="11.503857981220232"><ele>280.0</ele><time>2026-04-12T09:05:51Z</time></trkpt><trkpt lat="45.42779640640861" lon="11.503924270170929"><ele>278.33333333333337</ele><time>2026-04-12T09:05:52Z</time></trkpt><trkpt lat="45.42789079721255" lon="11.503937925726012"><ele>276.6666666666667</ele><time>2026-04-12T09:05:53Z</time></trkpt><trkpt lat="45.42798396985582" lon="11.503936298181616"><ele>275.0</ele><time>2026-04-12T09:05:54Z</time></trkpt><trkpt lat="45.428081381604926" lon="11.503905446770304"><ele>280.0</ele><time>2026-04-12T09:05:55Z</time></trkpt><trkpt lat="45.428163910543766" lon="11.50392882734879"><ele>285.0</ele><time>2026-04-12T09:05:56Z</time></trkpt><trkpt lat="45.42824681492251" lon="11.503948601828471"><ele>290.0</ele><time>2026-04-12T09:05:57Z</time></trkpt><trkpt lat="45.42832093963468" lon="11.503976979936802"><ele>295.0</ele><time>2026-04-12T09:05:58Z</time></trkpt><trkpt lat="45.42839017533914" lon="11.504015760562949"><ele>300.0</ele><time>2026-04-12T09:05:59Z</time></trkpt><trkpt lat="45.42845614400731" lon="11.504065434489055"><ele>305.0</ele><time>2026-04-12T09:06:00Z</time></trkpt><trkpt lat="45.428522646872736" lon="11.504124709850409"><ele>305.0</ele><time>2026-04-12T09:06:01Z</time></trkpt><trkpt lat="45.42858311121964" lon="11.5041851357692"><ele>305.0</ele><time>2026-04-12T09:06:02Z</time></trkpt><trkpt lat="45.428642720624325" lon="11.504243390041816"><ele>305.0</ele><time>2026-04-12T09:06:03Z</time></trkpt><trkpt lat="45.42870219958881" lon="11.504303170895486"><ele>305.0</ele><time>2026-04-12T09:06:04Z</time></trkpt><trkpt lat="45.42876286503821" lon="11.504359914166955"><ele>305.0</ele><time>2026-04-12T09:06:05Z</time></trkpt><trkpt lat="45.42882257368252" lon="11.504420698595956"><ele>305.0</ele><time>2026-04-12T09:06:06Z</time></trkpt><trkpt lat="45.4288802801185" lon="11.504474125268134"><ele>305.0</ele><time>2026-04-12T09:06:07Z</time></trkpt><trkpt lat="45.428945838554725" lon="11.504515508871497"><ele>305.8</ele><time>2026-04-12T09:06:08Z</time></trkpt><trkpt lat="45.42901147560507" lon="11.504552017744949"><ele>306.6</ele><time>2026-04-12T09:06:09Z</time></trkpt><trkpt lat="45.429074056135484" lon="11.504586661391794"><ele>307.4</ele><time>2026-04-12T09:06:10Z</time></trkpt><trkpt lat="45.42917980388366" lon="11.504653442567292"><ele>308.2</ele><time>2026-04-12T09:06:12Z</time></trkpt><trkpt lat="45.42923501272847" lon="11.504761576093566"><ele>309.0</ele><time>2026-04-12T09:06:14Z</time></trkpt><trkpt lat="45.42920608686692" lon="11.504926153841367"><ele>310.1666666666667</ele><time>2026-04-12T09:06:16Z</time></trkpt><trkpt lat="45.42917787522411" lon="11.505006623317863"><ele>311.3333333333333</ele><time>2026-04-12T09:06:17Z</time></trkpt><trkpt lat="45.429129095325166" lon="11.505185353848256"><ele>312.5</ele><time>2026-04-12T09:06:19Z</time></trkpt><trkpt lat="45.42910768331224" lon="11.505298774844254"><ele>313.66666666666663</ele><time>2026-04-12T09:06:20Z</time></trkpt><trkpt lat="45.42907912448936" lon="11.505399659400663"><ele>314.8333333333333</ele><time>2026-04-12T09:06:21Z</time></trkpt><trkpt lat="45.429053979949515" lon="11.505520186099469"><ele>316.0</ele><time>2026-04-12T09:06:22Z</time></trkpt><trkpt lat="45.42903101461631" lon="11.505610907878976"><ele>316.3333333333333</ele><time>2026-04-12T09:06:23Z</time></trkpt><trkpt lat="45.42899327836486" lon="11.505697815874457"><ele>316.66666666666663</ele><time>2026-04-12T09:06:24Z</time></trkpt><trkpt lat="45.428946353725316" lon="11.505785227117867"><ele>317.0</ele><time>2026-04-12T09:06:25Z</time></trkpt><trkpt lat="45.428883675652564" lon="11.505876834951644"><ele>317.3333333333333</ele><time>2026-04-12T09:06:26Z</time></trkpt><trkpt lat="45.42883216955813" lon="11.505967329555485"><ele>317.6666666666667</ele><time>2026-04-12T09:06:27Z</time></trkpt><trkpt lat="45.42879109266433" lon="11.506043473091445"><ele>318.0</ele><time>2026-04-12T09:06:28Z</time></trkpt><trkpt lat="45.42875037117491" lon="11.506119737996272"><ele>318.25</ele><time>2026-04-12T09:06:29Z</time></trkpt><trkpt lat="45.42869153176613" lon="11.506259122110498"><ele>318.5</ele><time>2026-04-12T09:06:31Z</time></trkpt><trkpt lat="45.42874791518374" lon="11.506454257337264"><ele>318.75</ele><time>2026-04-12T09:06:33Z</time></trkpt><trkpt lat="45.42880019338497" lon="11.506534817961585"><ele>319.0</ele><time>2026-04-12T09:06:34Z</time></trkpt><trkpt lat="45.42887519554176" lon="11.506662311173942"><ele>319.0</ele><time>2026-04-12T09:06:36Z</time></trkpt><trkpt lat="45.42892801211675" lon="11.506722173352676"><ele>319.0</ele><time>2026-04-12T09:06:37Z</time></trkpt><trkpt lat="45.42901061272555" lon="11.506815126126018"><ele>319.0</ele><time>2026-04-12T09:06:39Z</time></trkpt><trkpt lat="45.429083882083795" lon="11.50687607012732"><ele>319.0</ele><time>2026-04-12T09:06:41Z</time></trkpt><trkpt lat="45.42916167746709" lon="11.506949461973532"><ele>319.0</ele><time>2026-04-12T09:06:43Z</time></trkpt><trkpt lat="45.42925448868223" lon="11.507007528129098"><ele>319.0</ele><time>2026-04-12T09:06:45Z</time></trkpt><trkpt lat="45.429356070266316" lon="11.50707348712073"><ele>319.0</ele><time>2026-04-12T09:06:47Z</time></trkpt><trkpt lat="45.42941668062181" lon="11.507105976715096"><ele>319.0</ele><time>2026-04-12T09:06:48Z</time></trkpt><trkpt lat="45.42953622620946" lon="11.507205331948555"><ele>319.0</ele><time>2026-04-12T09:06:50Z</time></trkpt><trkpt lat="45.429602544495154" lon="11.507283006069976"><ele>319.0</ele><time>2026-04-12T09:06:51Z</time></trkpt><trkpt lat="45.429661841323366" lon="11.507368289866744"><ele>320.8333333333333</ele><time>2026-04-12T09:06:52Z</time></trkpt><trkpt lat="45.429714382549435" lon="11.507473233573808"><ele>322.66666666666663</ele><time>2026-04-12T09:06:53Z</time></trkpt><trkpt lat="45.42975517504384" lon="11.507577910242174"><ele>324.5</ele><time>2026-04-12T09:06:54Z</time></trkpt><trkpt lat="45.42978382642442" lon="11.507680451167095"><ele>326.3333333333333</ele><time>2026-04-12T09:06:55Z</time></trkpt><trkpt lat="45.42978532174164" lon="11.507795831983472"><ele>328.1666666666667</ele><time>2026-04-12T09:06:56Z</time></trkpt><trkpt lat="45.42973466423907" lon="11.507880040764912"><ele>330.0</ele><time>2026-04-12T09:06:57Z</time></trkpt><trkpt lat="45.42965685165314" lon="11.507969158321751"><ele>326.8333333333333</ele><time>2026-04-12T09:06:58Z</time></trkpt><trkpt lat="45.42956502741586" lon="11.508036484817293"><ele>323.6666666666667</ele><time>2026-04-12T09:06:59Z</time></trkpt><trkpt lat="45.42948759964457" lon="11.508117336750011"><ele>320.5</ele><time>2026-04-12T09:07:00Z</time></trkpt><trkpt lat="45.42942842708021" lon="11.508230087822858"><ele>317.33333333333337</ele><time>2026-04-12T09:07:01Z</time></trkpt><trkpt lat="45.42939406757648" lon="11.508330312821121"><ele>314.1666666666667</ele><time>2026-04-12T09:07:02Z</time></trkpt><trkpt lat="45.42937847740641" lon="11.508419559162302"><ele>311.0</ele><time>2026-04-12T09:07:03Z</time></trkpt><trkpt lat="45.42937789166287" lon="11.508513068981722"><ele>311.0</ele><time>2026-04-12T09:07:04Z</time></trkpt><trkpt lat="45.429395271511325" lon="11.508608146009939"><ele>311.0</ele><time>2026-04-12T09:07:05Z</time></trkpt><trkpt lat="45.429433746629826" lon="11.508701499938951"><ele>311.0</ele><time>2026-04-12T09:07:06Z</time></trkpt><trkpt lat="45.429486072421945" lon="11.508795321614869"><ele>311.0</ele><time>2026-04-12T09:07:07Z</time></trkpt><trkpt lat="45.42954277816647" lon="11.508963954114758"><ele>311.0</ele><time>2026-04-12T09:07:09Z</time></trkpt><trkpt lat="45.429561087348844" lon="11.509053281170925"><ele>311.0</ele><time>2026-04-12T09:07:10Z</time></trkpt><trkpt lat="45.42955878723226" lon="11.509160259858758"><ele>311.83333333333337</ele><time>2026-04-12T09:07:11Z</time></trkpt><trkpt lat="45.429550717274765" lon="11.50926358982778"><ele>312.6666666666667</ele><time>2026-04-12T09:07:12Z</time></trkpt><trkpt lat="45.42952615605651" lon="11.509362516482705"><ele>313.5</ele><time>2026-04-12T09:07:13Z</time></trkpt><trkpt lat="45.42950649293204" lon="11.509478280378545"><ele>314.3333333333333</ele><time>2026-04-12T09:07:14Z</time></trkpt><trkpt lat="45.42951078341441" lon="11.509582530371667"><ele>315.16666666666663</ele><time>2026-04-12T09:07:15Z</time></trkpt><trkpt lat="45.42951199570742" lon="11.50968719987603"><ele>316.0</ele><time>2026-04-12T09:07:16Z</time></trkpt><trkpt lat="45.429481242836175" lon="11.509807702174522"><ele>318.16666666666663</ele><time>2026-04-12T09:07:17Z</time></trkpt><trkpt lat="45.42943830499089" lon="11.50989504293835"><ele>320.3333333333333</ele><time>2026-04-12T09:07:18Z</time></trkpt><trkpt lat="45.42938047650875" lon="11.509952262880061"><ele>322.5</ele><time>2026-04-12T09:07:20Z</time></trkpt><trkpt lat="45.42931975282301" lon="11.50991160102629"><ele>324.6666666666667</ele><time>2026-04-12T09:07:41Z</time></trkpt><trkpt lat="45.42924604155591" lon="11.509879624733777"><ele>326.83333333333337</ele><time>2026-04-12T09:07:42Z</time></trkpt><trkpt lat="45.42914206427847" lon="11.509826366643527"><ele>329.0</ele><time>2026-04-12T09:07:44Z</time></trkpt><trkpt lat="45.429056699499725" lon="11.509792764148736"><ele>329.0</ele><time>2026-04-12T09:07:45Z</time></trkpt><trkpt lat="45.428982660384236" lon="11.50976685630944"><ele>329.0</ele><time>2026-04-12T09:07:46Z</time></trkpt><trkpt lat="45.428893700472486" lon="11.509741067734529"><ele>329.0</ele><time>2026-04-12T09:07:47Z</time></trkpt><trkpt lat="45.428827319446036" lon="11.509731386961056"><ele>329.0</ele><time>2026-04-12T09:07:48Z</time></trkpt><trkpt lat="45.428763425989345" lon="11.509725888566727"><ele>329.0</ele><time>2026-04-12T09:07:49Z</time></trkpt><trkpt lat="45.428689725691605" lon="11.509752210223608"><ele>329.0</ele><time>2026-04-12T09:07:50Z</time></trkpt><trkpt lat="45.428622326568366" lon="11.50980222478732"><ele>328.6</ele><time>2026-04-12T09:07:51Z</time></trkpt><trkpt lat="45.4284934327366" lon="11.50985327023037"><ele>328.2</ele><time>2026-04-12T09:07:53Z</time></trkpt><trkpt lat="45.42841013367834" lon="11.509854960860418"><ele>327.8</ele><time>2026-04-12T09:07:54Z</time></trkpt><trkpt lat="45.428322180885424" lon="11.50982851271705"><ele>327.40000000000003</ele><time>2026-04-12T09:07:55Z</time></trkpt><trkpt lat="45.428231378372814" lon="11.509806885412393"><ele>327.0</ele><time>2026-04-12T09:07:56Z</time></trkpt><trkpt lat="45.428146186826865" lon="11.509795086604084"><ele>327.0</ele><time>2026-04-12T09:07:57Z</time></trkpt><trkpt lat="45.42807730851208" lon="11.509785314951936"><ele>327.0</ele><time>2026-04-12T09:07:58Z</time></trkpt><trkpt lat="45.42801405957697" lon="11.509757606282648"><ele>327.0</ele><time>2026-04-12T09:07:59Z</time></trkpt><trkpt lat="45.42793053253169" lon="11.50968668560625"><ele>327.0</ele><time>2026-04-12T09:08:01Z</time></trkpt><trkpt lat="45.427891222609624" lon="11.509567593659941"><ele>327.0</ele><time>2026-04-12T09:08:03Z</time></trkpt><trkpt lat="45.42788409834766" lon="11.509471252097471"><ele>327.0</ele><time>2026-04-12T09:08:04Z</time></trkpt><trkpt lat="45.4279061206021" lon="11.509356366825074"><ele>327.5</ele><time>2026-04-12T09:08:05Z</time></trkpt><trkpt lat="45.427924017187664" lon="11.509248133366938"><ele>328.0</ele><time>2026-04-12T09:08:06Z</time></trkpt><trkpt lat="45.42790715019148" lon="11.50904714584884"><ele>328.5</ele><time>2026-04-12T09:08:08Z</time></trkpt><trkpt lat="45.42788921910509" lon="11.508956028842539"><ele>329.0</ele><time>2026-04-12T09:08:09Z</time></trkpt><trkpt lat="45.427857861216225" lon="11.508850410997814"><ele>329.5</ele><time>2026-04-12T09:08:10Z</time></trkpt><trkpt lat="45.427827933780975" lon="11.5087518007805"><ele>330.0</ele><time>2026-04-12T09:08:11Z</time></trkpt><trkpt lat="45.427786556112856" lon="11.50867948156736"><ele>330.0</ele><time>2026-04-12T09:08:12Z</time></trkpt><trkpt lat="45.42775665788998" lon="11.50859876305376"><ele>330.0</ele><time>2026-04-12T09:08:13Z</time></trkpt><trkpt lat="45.42771113086337" lon="11.508446315943017"><ele>330.0</ele><time>2026-04-12T09:08:15Z</time></trkpt><trkpt lat="45.42767596954216" lon="11.508365146800525"><ele>330.0</ele><time>2026-04-12T09:08:16Z</time></trkpt><trkpt lat="45.42765234990766" lon="11.508236158494356"><ele>330.0</ele><time>2026-04-12T09:08:17Z</time></trkpt><trkpt lat="45.42762316346526" lon="11.50814850869739"><ele>330.0</ele><time>2026-04-12T09:08:18Z</time></trkpt><trkpt lat="45.42757013415047" lon="11.508066269375677"><ele>330.0</ele><time>2026-04-12T09:08:19Z</time></trkpt><trkpt lat="45.42751630829272" lon="11.508000246864382"><ele>330.0</ele><time>2026-04-12T09:08:20Z</time></trkpt><trkpt lat="45.427397899405506" lon="11.507926121764031"><ele>330.0</ele><time>2026-04-12T09:08:22Z</time></trkpt><trkpt lat="45.427331195801656" lon="11.507920256442098"><ele>330.0</ele><time>2026-04-12T09:08:23Z</time></trkpt><trkpt lat="45.42726353902514" lon="11.50790846631056"><ele>330.0</ele><time>2026-04-12T09:08:24Z</time></trkpt><trkpt lat="45.42719763029515" lon="11.507921393795126"><ele>330.0</ele><time>2026-04-12T09:08:25Z</time></trkpt><trkpt lat="45.42713212704735" lon="11.507909418033826"><ele>328.4</ele><time>2026-04-12T09:08:26Z</time></trkpt><trkpt lat="45.42701665400428" lon="11.507850513406268"><ele>326.8</ele><time>2026-04-12T09:08:28Z</time></trkpt><trkpt lat="45.42693152123306" lon="11.507789601984312"><ele>325.20000000000005</ele><time>2026-04-12T09:08:30Z</time></trkpt><trkpt lat="45.426857949859496" lon="11.507723739245442"><ele>323.6</ele><time>2026-04-12T09:08:32Z</time></trkpt><trkpt lat="45.42679082499335" lon="11.507716456980981"><ele>322.0</ele><time>2026-04-12T09:08:35Z</time></trkpt><trkpt lat="45.426831164480014" lon="11.507834916303946"><ele>324.8333333333333</ele><time>2026-04-12T09:08:39Z</time></trkpt><trkpt lat="45.426826655427305" lon="11.50795567246237"><ele>327.66666666666663</ele><time>2026-04-12T09:08:41Z</time></trkpt><trkpt lat="45.42676574305591" lon="11.508071512228891"><ele>330.5</ele><time>2026-04-12T09:08:43Z</time></trkpt><trkpt lat="45.42672811569264" lon="11.508152401091843"><ele>333.3333333333333</ele><time>2026-04-12T09:08:44Z</time></trkpt><trkpt lat="45.4266889073544" lon="11.508245207682746"><ele>336.1666666666667</ele><time>2026-04-12T09:08:45Z</time></trkpt><trkpt lat="45.42663528616593" lon="11.508336025476964"><ele>339.0</ele><time>2026-04-12T09:08:46Z</time></trkpt><trkpt lat="45.426560341872296" lon="11.508439011992925"><ele>339.0</ele><time>2026-04-12T09:08:47Z</time></trkpt><trkpt lat="45.426465500132785" lon="11.50854735894267"><ele>339.0</ele><time>2026-04-12T09:08:48Z</time></trkpt><trkpt lat="45.42639963857665" lon="11.508660350188325"><ele>339.0</ele><time>2026-04-12T09:08:49Z</time></trkpt><trkpt lat="45.42633931369827" lon="11.508796845210869"><ele>339.0</ele><time>2026-04-12T09:08:50Z</time></trkpt><trkpt lat="45.42629469746383" lon="11.508937572970067"><ele>339.0</ele><time>2026-04-12T09:08:51Z</time></trkpt><trkpt lat="45.42625585429836" lon="11.509089938299187"><ele>340.3333333333333</ele><time>2026-04-12T09:08:52Z</time></trkpt><trkpt lat="45.42624708871436" lon="11.509240009841754"><ele>341.6666666666667</ele><time>2026-04-12T09:08:53Z</time></trkpt><trkpt lat="45.42623207125375" lon="11.509344747087999"><ele>343.0</ele><time>2026-04-12T09:08:54Z</time></trkpt><trkpt lat="45.4262006146721" lon="11.509431589427303"><ele>344.33333333333337</ele><time>2026-04-12T09:08:55Z</time></trkpt><trkpt lat="45.42614078867256" lon="11.509476017106188"><ele>345.6666666666667</ele><time>2026-04-12T09:08:56Z</time></trkpt><trkpt lat="45.42607005277354" lon="11.50955110995775"><ele>347.0</ele><time>2026-04-12T09:08:57Z</time></trkpt><trkpt lat="45.42605142199282" lon="11.509666988997285"><ele>349.6</ele><time>2026-04-12T09:09:00Z</time></trkpt><trkpt lat="45.42610517906675" lon="11.50979617437507"><ele>352.20000000000005</ele><time>2026-04-12T09:09:02Z</time></trkpt><trkpt lat="45.42613941004822" lon="11.509923543240653"><ele>354.8</ele><time>2026-04-12T09:09:04Z</time></trkpt><trkpt lat="45.426085160082195" lon="11.50998870387"><ele>357.4</ele><time>2026-04-12T09:09:07Z</time></trkpt><trkpt lat="45.42601657327453" lon="11.510023534320242"><ele>360.0</ele><time>2026-04-12T09:09:10Z</time></trkpt><trkpt lat="45.42589080443216" lon="11.509991663877042"><ele>360.0</ele><time>2026-04-12T09:09:13Z</time></trkpt><trkpt lat="45.42582164440622" lon="11.510006364614032"><ele>360.0</ele><time>2026-04-12T09:09:14Z</time></trkpt><trkpt lat="45.42574289390502" lon="11.510048106861149"><ele>360.0</ele><time>2026-04-12T09:09:15Z</time></trkpt><trkpt lat="45.425672757065804" lon="11.510071113194298"><ele>360.0</ele><time>2026-04-12T09:09:16Z</time></trkpt><trkpt lat="45.42564127607334" lon="11.510157776223187"><ele>360.0</ele><time>2026-04-12T09:09:17Z</time></trkpt><trkpt lat="45.42558789798307" lon="11.510255542174928"><ele>360.0</ele><time>2026-04-12T09:09:18Z</time></trkpt><trkpt lat="45.4255298302736" lon="11.51035481971585"><ele>361.0</ele><time>2026-04-12T09:09:19Z</time></trkpt><trkpt lat="45.42541864505704" lon="11.510498213937662"><ele>362.0</ele><time>2026-04-12T09:09:20Z</time></trkpt><trkpt lat="45.42540949366101" lon="11.510634119936842"><ele>363.0</ele><time>2026-04-12T09:09:21Z</time></trkpt><trkpt lat="45.42533997146862" lon="11.510650277622146"><ele>364.0</ele><time>2026-04-12T09:09:22Z</time></trkpt><trkpt lat="45.42526716685294" lon="11.510688511384904"><ele>365.0</ele><time>2026-04-12T09:09:23Z</time></trkpt><trkpt lat="45.425211769138556" lon="11.510789209137446"><ele>365.0</ele><time>2026-04-12T09:09:24Z</time></trkpt><trkpt lat="45.42517004137745" lon="11.510880871431645"><ele>365.0</ele><time>2026-04-12T09:09:25Z</time></trkpt><trkpt lat="45.42514243931701" lon="11.510970489255241"><ele>365.0</ele><time>2026-04-12T09:09:26Z</time></trkpt><trkpt lat="45.425067503690336" lon="11.510980911418145"><ele>365.0</ele><time>2026-04-12T09:09:29Z</time></trkpt><trkpt lat="45.425001426725686" lon="11.511021451849528"><ele>365.0</ele><time>2026-04-12T09:09:32Z</time></trkpt><trkpt lat="45.42489051781447" lon="11.511011493950393"><ele>365.0</ele><time>2026-04-12T09:09:35Z</time></trkpt><trkpt lat="45.42477781807822" lon="11.511073470517818"><ele>365.0</ele><time>2026-04-12T09:09:37Z</time></trkpt><trkpt lat="45.42470571592865" lon="11.511111698615467"><ele>365.0</ele><time>2026-04-12T09:09:38Z</time></trkpt><trkpt lat="45.424642702468574" lon="11.511147600658285"><ele>365.0</ele><time>2026-04-12T09:09:39Z</time></trkpt><trkpt lat="45.42455984598322" lon="11.511202081427545"><ele>365.0</ele><time>2026-04-12T09:09:40Z</time></trkpt><trkpt lat="45.42448233449194" lon="11.511242490566087"><ele>365.0</ele><time>2026-04-12T09:09:41Z</time></trkpt><trkpt lat="45.4244033475799" lon="11.511296065931713"><ele>365.0</ele><time>2026-04-12T09:09:42Z</time></trkpt><trkpt lat="45.42429749906817" lon="11.51133141530963"><ele>365.0</ele><time>2026-04-12T09:09:44Z</time></trkpt><trkpt lat="45.4242116789322" lon="11.511350532766345"><ele>365.0</ele><time>2026-04-12T09:09:46Z</time></trkpt><trkpt lat="45.42409481086825" lon="11.511380286761515"><ele>365.0</ele><time>2026-04-12T09:09:48Z</time></trkpt><trkpt lat="45.42398166894948" lon="11.511388959438245"><ele>365.0</ele><time>2026-04-12T09:09:50Z</time></trkpt><trkpt lat="45.423881306633895" lon="11.511378691870073"><ele>365.0</ele><time>2026-04-12T09:09:52Z</time></trkpt><trkpt lat="45.42377833918237" lon="11.51138857291964"><ele>363.0</ele><time>2026-04-12T09:09:54Z</time></trkpt><trkpt lat="45.42370868612582" lon="11.51137335100945"><ele>361.0</ele><time>2026-04-12T09:09:56Z</time></trkpt><trkpt lat="45.423625111387906" lon="11.511359254540837"><ele>359.0</ele><time>2026-04-12T09:09:59Z</time></trkpt><trkpt lat="45.42355426633467" lon="11.511346878701453"><ele>357.0</ele><time>2026-04-12T09:10:01Z</time></trkpt><trkpt lat="45.42349066841002" lon="11.511304576509598"><ele>355.0</ele><time>2026-04-12T09:10:02Z</time></trkpt><trkpt lat="45.423392292893055" lon="11.511255977576903"><ele>353.0</ele><time>2026-04-12T09:10:03Z</time></trkpt><trkpt lat="45.42328594744016" lon="11.511238358497396"><ele>352.0</ele><time>2026-04-12T09:10:04Z</time></trkpt><trkpt lat="45.423175550639954" lon="11.51119996978203"><ele>351.0</ele><time>2026-04-12T09:10:05Z</time></trkpt><trkpt lat="45.42307674508415" lon="11.511150658827068"><ele>350.0</ele><time>2026-04-12T09:10:06Z</time></trkpt><trkpt lat="45.422998951797545" lon="11.511107357805642"><ele>349.0</ele><time>2026-04-12T09:10:07Z</time></trkpt><trkpt lat="45.42291238631665" lon="11.511068080960921"><ele>348.0</ele><time>2026-04-12T09:10:08Z</time></trkpt><trkpt lat="45.422827541425995" lon="11.511020890170137"><ele>348.0</ele><time>2026-04-12T09:10:09Z</time></trkpt><trkpt lat="45.42274884066825" lon="11.510987881818155"><ele>348.0</ele><time>2026-04-12T09:10:10Z</time></trkpt><trkpt lat="45.42268823401515" lon="11.510925206895626"><ele>348.0</ele><time>2026-04-12T09:10:11Z</time></trkpt><trkpt lat="45.42263187005772" lon="11.510856961872404"><ele>348.0</ele><time>2026-04-12T09:10:12Z</time></trkpt><trkpt lat="45.42257899904815" lon="11.510730425529033"><ele>348.0</ele><time>2026-04-12T09:10:14Z</time></trkpt><trkpt lat="45.422524050935685" lon="11.510642188773211"><ele>348.0</ele><time>2026-04-12T09:10:16Z</time></trkpt><trkpt lat="45.4224588644075" lon="11.510552596200867"><ele>348.0</ele><time>2026-04-12T09:10:18Z</time></trkpt><trkpt lat="45.422401150577265" lon="11.510440039910176"><ele>348.0</ele><time>2026-04-12T09:10:20Z</time></trkpt><trkpt lat="45.422338516442835" lon="11.510287051333076"><ele>348.0</ele><time>2026-04-12T09:10:22Z</time></trkpt><trkpt lat="45.42228983169859" lon="11.510229715918083"><ele>348.0</ele><time>2026-04-12T09:10:23Z</time></trkpt><trkpt lat="45.42223345598734" lon="11.51018308397087"><ele>348.0</ele><time>2026-04-12T09:10:24Z</time></trkpt><trkpt lat="45.422149742645836" lon="11.510126638208767"><ele>348.0</ele><time>2026-04-12T09:10:25Z</time></trkpt><trkpt lat="45.422082330231994" lon="11.51007613242973"><ele>348.1666666666667</ele><time>2026-04-12T09:10:26Z</time></trkpt><trkpt lat="45.42201829869038" lon="11.510034437892202"><ele>348.3333333333333</ele><time>2026-04-12T09:10:27Z</time></trkpt><trkpt lat="45.42195580225558" lon="11.50999748345657"><ele>348.5</ele><time>2026-04-12T09:10:28Z</time></trkpt><trkpt lat="45.42184161454332" lon="11.509942852417476"><ele>348.66666666666663</ele><time>2026-04-12T09:10:30Z</time></trkpt><trkpt lat="45.421770999673846" lon="11.509915000796065"><ele>348.8333333333333</ele><time>2026-04-12T09:10:31Z</time></trkpt><trkpt lat="45.421699007487554" lon="11.509894398295797"><ele>349.0</ele><time>2026-04-12T09:10:32Z</time></trkpt><trkpt lat="45.42162213522812" lon="11.509885427769811"><ele>349.0</ele><time>2026-04-12T09:10:33Z</time></trkpt><trkpt lat="45.42153571448245" lon="11.509892662022372"><ele>349.0</ele><time>2026-04-12T09:10:34Z</time></trkpt><trkpt lat="45.42143543890649" lon="11.509907559786502"><ele>349.0</ele><time>2026-04-12T09:10:35Z</time></trkpt><trkpt lat="45.42133579994597" lon="11.50991737292802"><ele>349.0</ele><time>2026-04-12T09:10:36Z</time></trkpt><trkpt lat="45.42125516614523" lon="11.509909955587995"><ele>349.0</ele><time>2026-04-12T09:10:37Z</time></trkpt><trkpt lat="45.42117556153814" lon="11.509884641227652"><ele>349.2</ele><time>2026-04-12T09:10:39Z</time></trkpt><trkpt lat="45.42108179172849" lon="11.50997178287271"><ele>349.4</ele><time>2026-04-12T09:10:41Z</time></trkpt><trkpt lat="45.420956978168114" lon="11.509965323055303"><ele>349.6</ele><time>2026-04-12T09:10:43Z</time></trkpt><trkpt lat="45.42086806238309" lon="11.509891474494394"><ele>349.8</ele><time>2026-04-12T09:10:44Z</time></trkpt><trkpt lat="45.42077725311411" lon="11.509807592598607"><ele>350.0</ele><time>2026-04-12T09:10:45Z</time></trkpt><trkpt lat="45.42067135307025" lon="11.509758389005324"><ele>350.0</ele><time>2026-04-12T09:10:46Z</time></trkpt><trkpt lat="45.420572167216875" lon="11.509694632835666"><ele>350.0</ele><time>2026-04-12T09:10:47Z</time></trkpt><trkpt lat="45.42047261151255" lon="11.509658252020861"><ele>350.0</ele><time>2026-04-12T09:10:48Z</time></trkpt><trkpt lat="45.42040749479856" lon="11.509630656635974"><ele>350.0</ele><time>2026-04-12T09:10:49Z</time></trkpt><trkpt lat="45.42033765141971" lon="11.509601291533032"><ele>350.0</ele><time>2026-04-12T09:10:50Z</time></trkpt><trkpt lat="45.42027626407335" lon="11.509564548015158"><ele>350.0</ele><time>2026-04-12T09:10:51Z</time></trkpt><trkpt lat="45.42016404108673" lon="11.50949280314585"><ele>348.0</ele><time>2026-04-12T09:10:53Z</time></trkpt><trkpt lat="45.4200926319332" lon="11.509446184051443"><ele>346.0</ele><time>2026-04-12T09:10:54Z</time></trkpt><trkpt lat="45.42002566120903" lon="11.509432543925069"><ele>344.0</ele><time>2026-04-12T09:10:55Z</time></trkpt><trkpt lat="45.41989819646117" lon="11.509389449355643"><ele>342.0</ele><time>2026-04-12T09:10:57Z</time></trkpt><trkpt lat="45.41982803639364" lon="11.509357132290567"><ele>340.0</ele><time>2026-04-12T09:10:58Z</time></trkpt><trkpt lat="45.41974429236261" lon="11.509294802671755"><ele>338.0</ele><time>2026-04-12T09:11:00Z</time></trkpt><trkpt lat="45.41963786415052" lon="11.509291660050733"><ele>336.33333333333337</ele><time>2026-04-12T09:11:02Z</time></trkpt><trkpt lat="45.41951786030145" lon="11.509324799576412"><ele>334.6666666666667</ele><time>2026-04-12T09:11:04Z</time></trkpt><trkpt lat="45.41945192806523" lon="11.509352769471269"><ele>333.0</ele><time>2026-04-12T09:11:05Z</time></trkpt><trkpt lat="45.419387102201014" lon="11.50939549336546"><ele>331.3333333333333</ele><time>2026-04-12T09:11:06Z</time></trkpt><trkpt lat="45.4193169084124" lon="11.509439534096357"><ele>329.66666666666663</ele><time>2026-04-12T09:11:07Z</time></trkpt><trkpt lat="45.419243791317356" lon="11.509469460473916"><ele>328.0</ele><time>2026-04-12T09:11:08Z</time></trkpt><trkpt lat="45.4191647095421" lon="11.509528161986296"><ele>327.99999999999994</ele><time>2026-04-12T09:11:09Z</time></trkpt><trkpt lat="45.419098262985905" lon="11.509573375799155"><ele>328.0</ele><time>2026-04-12T09:11:10Z</time></trkpt><trkpt lat="45.419028736300646" lon="11.509609779204952"><ele>328.0</ele><time>2026-04-12T09:11:11Z</time></trkpt><trkpt lat="45.418964040066406" lon="11.509624906151432"><ele>328.0</ele><time>2026-04-12T09:11:12Z</time></trkpt><trkpt lat="45.41888532094618" lon="11.509632773548136"><ele>328.0</ele><time>2026-04-12T09:11:13Z</time></trkpt><trkpt lat="45.41881400588162" lon="11.509627930970925"><ele>327.99999999999994</ele><time>2026-04-12T09:11:14Z</time></trkpt><trkpt lat="45.41874755558651" lon="11.509612482889969"><ele>328.0</ele><time>2026-04-12T09:11:15Z</time></trkpt><trkpt lat="45.41868347892069" lon="11.509561980456745"><ele>328.0</ele><time>2026-04-12T09:11:16Z</time></trkpt><trkpt lat="45.41861836105958" lon="11.509511924933673"><ele>328.0</ele><time>2026-04-12T09:11:17Z</time></trkpt><trkpt lat="45.41856389682003" lon="11.509459563148036"><ele>328.0</ele><time>2026-04-12T09:11:18Z</time></trkpt><trkpt lat="45.418520102719725" lon="11.50933151540431"><ele>328.0</ele><time>2026-04-12T09:11:20Z</time></trkpt><trkpt lat="45.418437709673256" lon="11.50936419270465"><ele>328.0</ele><time>2026-04-12T09:11:24Z</time></trkpt><trkpt lat="45.41837214450539" lon="11.509476225724521"><ele>328.0</ele><time>2026-04-12T09:11:26Z</time></trkpt><trkpt lat="45.418327581255674" lon="11.509608179639025"><ele>328.0</ele><time>2026-04-12T09:11:28Z</time></trkpt><trkpt lat="45.41830683324374" lon="11.509711402753961"><ele>328.0</ele><time>2026-04-12T09:11:29Z</time></trkpt><trkpt lat="45.4182972450907" lon="11.509836180423365"><ele>328.0</ele><time>2026-04-12T09:11:30Z</time></trkpt><trkpt lat="45.41829882601055" lon="11.509990235110246"><ele>328.0</ele><time>2026-04-12T09:11:31Z</time></trkpt><trkpt lat="45.41829785608581" lon="11.510147872520482"><ele>328.0</ele><time>2026-04-12T09:11:32Z</time></trkpt><trkpt lat="45.418278169866085" lon="11.510288429755974"><ele>327.8333333333333</ele><time>2026-04-12T09:11:33Z</time></trkpt><trkpt lat="45.41824468915885" lon="11.51041237732643"><ele>327.66666666666663</ele><time>2026-04-12T09:11:34Z</time></trkpt><trkpt lat="45.418204502732685" lon="11.51051566620158"><ele>327.5</ele><time>2026-04-12T09:11:35Z</time></trkpt><trkpt lat="45.41817002863075" lon="11.510611838463893"><ele>327.3333333333333</ele><time>2026-04-12T09:11:36Z</time></trkpt><trkpt lat="45.41812830005681" lon="11.510691104617946"><ele>327.1666666666667</ele><time>2026-04-12T09:11:37Z</time></trkpt><trkpt lat="45.41809946755107" lon="11.51078794370009"><ele>327.0</ele><time>2026-04-12T09:11:38Z</time></trkpt><trkpt lat="45.41808802936763" lon="11.510908544460865"><ele>327.0</ele><time>2026-04-12T09:11:39Z</time></trkpt><trkpt lat="45.41810914261233" lon="11.511030915795635"><ele>327.0</ele><time>2026-04-12T09:11:40Z</time></trkpt><trkpt lat="45.41813682061807" lon="11.511138579078029"><ele>327.0</ele><time>2026-04-12T09:11:41Z</time></trkpt><trkpt lat="45.41815727819562" lon="11.511236394132878"><ele>327.0</ele><time>2026-04-12T09:11:42Z</time></trkpt><trkpt lat="45.41818558833726" lon="11.511331463397614"><ele>327.0</ele><time>2026-04-12T09:11:43Z</time></trkpt><trkpt lat="45.41822822905032" lon="11.511422877734171"><ele>327.0</ele><time>2026-04-12T09:11:44Z</time></trkpt><trkpt lat="45.418267325077956" lon="11.51151664119787"><ele>327.42857142857144</ele><time>2026-04-12T09:11:45Z</time></trkpt><trkpt lat="45.41830665304321" lon="11.511610835233306"><ele>327.8571428571429</ele><time>2026-04-12T09:11:46Z</time></trkpt><trkpt lat="45.41834060421806" lon="11.511687600749632"><ele>328.28571428571433</ele><time>2026-04-12T09:11:47Z</time></trkpt><trkpt lat="45.418375029211454" lon="11.511772943190607"><ele>328.7142857142857</ele><time>2026-04-12T09:11:48Z</time></trkpt><trkpt lat="45.4184225567617" lon="11.511840797802847"><ele>329.14285714285717</ele><time>2026-04-12T09:11:49Z</time></trkpt><trkpt lat="45.4184759277816" lon="11.511913541285946"><ele>329.5714285714286</ele><time>2026-04-12T09:11:50Z</time></trkpt><trkpt lat="45.41852883062777" lon="11.511972629136359"><ele>330.0</ele><time>2026-04-12T09:11:51Z</time></trkpt><trkpt lat="45.41854028235213" lon="11.512106295617507"><ele>330.8</ele><time>2026-04-12T09:11:53Z</time></trkpt><trkpt lat="45.418493780747674" lon="11.512287688946735"><ele>331.6</ele><time>2026-04-12T09:11:55Z</time></trkpt><trkpt lat="45.41846301390358" lon="11.512383350270184"><ele>332.4</ele><time>2026-04-12T09:11:56Z</time></trkpt><trkpt lat="45.41841149721781" lon="11.512470239182056"><ele>333.2</ele><time>2026-04-12T09:11:57Z</time></trkpt><trkpt lat="45.41834418465764" lon="11.512555786301567"><ele>334.0</ele><time>2026-04-12T09:11:58Z</time></trkpt><trkpt lat="45.41827409139046" lon="11.512640008344658"><ele>334.0</ele><time>2026-04-12T09:11:59Z</time></trkpt><trkpt lat="45.4182126006508" lon="11.512728610016255"><ele>334.0</ele><time>2026-04-12T09:12:00Z</time></trkpt><trkpt lat="45.41814869572037" lon="11.51281041354208"><ele>334.0</ele><time>2026-04-12T09:12:01Z</time></trkpt><trkpt lat="45.41808095761256" lon="11.512858445333055"><ele>334.0</ele><time>2026-04-12T09:12:02Z</time></trkpt><trkpt lat="45.41801832048371" lon="11.512876702355523"><ele>334.0</ele><time>2026-04-12T09:12:03Z</time></trkpt><trkpt lat="45.41791041917927" lon="11.512885636904779"><ele>334.0</ele><time>2026-04-12T09:12:05Z</time></trkpt><trkpt lat="45.41783714124539" lon="11.512850921599581"><ele>336.5</ele><time>2026-04-12T09:12:09Z</time></trkpt><trkpt lat="45.417742572100536" lon="11.512833108066102"><ele>339.0</ele><time>2026-04-12T09:12:12Z</time></trkpt><trkpt lat="45.41765855897187" lon="11.512809886615353"><ele>341.5</ele><time>2026-04-12T09:12:18Z</time></trkpt><trkpt lat="45.41758261019114" lon="11.512785896314366"><ele>344.0</ele><time>2026-04-12T09:12:22Z</time></trkpt><trkpt lat="45.417518952203125" lon="11.512804149787843"><ele>346.5</ele><time>2026-04-12T09:12:25Z</time></trkpt><trkpt lat="45.41749812560223" lon="11.512896102696507"><ele>349.0</ele><time>2026-04-12T09:12:27Z</time></trkpt><trkpt lat="45.41744543865446" lon="11.513002150298291"><ele>351.0</ele><time>2026-04-12T09:12:30Z</time></trkpt><trkpt lat="45.4174876906519" lon="11.513135525913532"><ele>353.0</ele><time>2026-04-12T09:12:33Z</time></trkpt><trkpt lat="45.41754994484172" lon="11.513238396999437"><ele>355.0</ele><time>2026-04-12T09:12:34Z</time></trkpt><trkpt lat="45.41759671441267" lon="11.513403907961843"><ele>357.0</ele><time>2026-04-12T09:12:36Z</time></trkpt><trkpt lat="45.41758041040133" lon="11.513493866764898"><ele>359.0</ele><time>2026-04-12T09:12:37Z</time></trkpt><trkpt lat="45.41762815525739" lon="11.5135760215763"><ele>359.0</ele><time>2026-04-12T09:12:38Z</time></trkpt><trkpt lat="45.417641581037834" lon="11.51368514092678"><ele>359.0</ele><time>2026-04-12T09:12:39Z</time></trkpt><trkpt lat="45.41767763894576" lon="11.513845925285503"><ele>359.0</ele><time>2026-04-12T09:12:40Z</time></trkpt><trkpt lat="45.41770661902833" lon="11.513982396563083"><ele>359.0</ele><time>2026-04-12T09:12:41Z</time></trkpt><trkpt lat="45.417703209180836" lon="11.514077497130499"><ele>359.0</ele><time>2026-04-12T09:12:44Z</time></trkpt><trkpt lat="45.4177183937514" lon="11.514172109040924"><ele>359.0</ele><time>2026-04-12T09:12:46Z</time></trkpt><trkpt lat="45.41764520778747" lon="11.514266193649975"><ele>360.0</ele><time>2026-04-12T09:12:49Z</time></trkpt><trkpt lat="45.41757585982683" lon="11.51428860944646"><ele>361.0</ele><time>2026-04-12T09:12:51Z</time></trkpt><trkpt lat="45.41751193811187" lon="11.514325776848558"><ele>362.0</ele><time>2026-04-12T09:12:55Z</time></trkpt><trkpt lat="45.4174389998339" lon="11.514411948507432"><ele>363.0</ele><time>2026-04-12T09:12:59Z</time></trkpt><trkpt lat="45.41737843453092" lon="11.514463911661448"><ele>364.0</ele><time>2026-04-12T09:13:05Z</time></trkpt><trkpt lat="45.41727862726981" lon="11.514486227166385"><ele>365.0</ele><time>2026-04-12T09:13:09Z</time></trkpt><trkpt lat="45.4172134282958" lon="11.514479454069809"><ele>366.1666666666667</ele><time>2026-04-12T09:13:13Z</time></trkpt><trkpt lat="45.41714867397203" lon="11.514485921349003"><ele>367.33333333333337</ele><time>2026-04-12T09:13:20Z</time></trkpt><trkpt lat="45.417095696371916" lon="11.514545770813555"><ele>368.5</ele><time>2026-04-12T09:15:12Z</time></trkpt><trkpt lat="45.4170176874964" lon="11.51455594309909"><ele>369.6666666666667</ele><time>2026-04-12T09:15:49Z</time></trkpt><trkpt lat="45.41693992229403" lon="11.514550661990809"><ele>370.8333333333333</ele><time>2026-04-12T09:15:53Z</time></trkpt><trkpt lat="45.41686837633388" lon="11.514588508404556"><ele>372.0</ele><time>2026-04-12T09:15:58Z</time></trkpt><trkpt lat="45.416797592998485" lon="11.514656912424245"><ele>372.6666666666667</ele><time>2026-04-12T09:17:05Z</time></trkpt><trkpt lat="45.416784500176604" lon="11.514745164611583"><ele>373.3333333333333</ele><time>2026-04-12T09:17:08Z</time></trkpt><trkpt lat="45.41675510776403" lon="11.51484263078596"><ele>374.0</ele><time>2026-04-12T09:17:12Z</time></trkpt><trkpt lat="45.416706257511464" lon="11.514931558107772"><ele>374.66666666666663</ele><time>2026-04-12T09:17:16Z</time></trkpt><trkpt lat="45.41662186140268" lon="11.515042868673644"><ele>375.3333333333333</ele><time>2026-04-12T09:17:19Z</time></trkpt><trkpt lat="45.41657795077327" lon="11.51511021984858"><ele>376.0</ele><time>2026-04-12T09:17:21Z</time></trkpt><trkpt lat="45.41655776215077" lon="11.51522629360407"><ele>376.0</ele><time>2026-04-12T09:17:23Z</time></trkpt><trkpt lat="45.41654559636328" lon="11.515383335391594"><ele>376.0</ele><time>2026-04-12T09:17:26Z</time></trkpt><trkpt lat="45.41651180464381" lon="11.51550982365279"><ele>376.0</ele><time>2026-04-12T09:17:28Z</time></trkpt><trkpt lat="45.41641750721254" lon="11.515551868234162"><ele>376.0</ele><time>2026-04-12T09:17:30Z</time></trkpt><trkpt lat="45.416318485747716" lon="11.51557134917562"><ele>376.0</ele><time>2026-04-12T09:17:32Z</time></trkpt><trkpt lat="45.41623287695863" lon="11.515650778199314"><ele>374.66666666666663</ele><time>2026-04-12T09:17:34Z</time></trkpt><trkpt lat="45.41614414732643" lon="11.51566174860601"><ele>373.3333333333333</ele><time>2026-04-12T09:17:50Z</time></trkpt><trkpt lat="45.416076924766685" lon="11.51567289205713"><ele>372.0</ele><time>2026-04-12T09:17:51Z</time></trkpt><trkpt lat="45.415995598506356" lon="11.515698860297471"><ele>370.6666666666667</ele><time>2026-04-12T09:17:52Z</time></trkpt><trkpt lat="45.415932378286506" lon="11.515690259521666"><ele>369.33333333333337</ele><time>2026-04-12T09:17:53Z</time></trkpt><trkpt lat="45.415838523309255" lon="11.51556555297729"><ele>368.0</ele><time>2026-04-12T09:17:55Z</time></trkpt><trkpt lat="45.41582534520597" lon="11.515379215792192"><ele>368.0</ele><time>2026-04-12T09:17:57Z</time></trkpt><trkpt lat="45.41584891270782" lon="11.51528560894358"><ele>368.0</ele><time>2026-04-12T09:17:58Z</time></trkpt><trkpt lat="45.41587377067624" lon="11.515167539466665"><ele>368.0</ele><time>2026-04-12T09:17:59Z</time></trkpt><trkpt lat="45.41587346546044" lon="11.515050792848303"><ele>368.0</ele><time>2026-04-12T09:18:00Z</time></trkpt><trkpt lat="45.41587062268855" lon="11.514928252671686"><ele>368.0</ele><time>2026-04-12T09:18:01Z</time></trkpt><trkpt lat="45.4158736623651" lon="11.514827182185831"><ele>368.0</ele><time>2026-04-12T09:18:02Z</time></trkpt><trkpt lat="45.415874556708054" lon="11.514736217958278"><ele>368.0</ele><time>2026-04-12T09:18:03Z</time></trkpt><trkpt lat="45.41587271938497" lon="11.51464175687495"><ele>368.0</ele><time>2026-04-12T09:18:04Z</time></trkpt><trkpt lat="45.41586793363979" lon="11.514542941554126"><ele>368.0</ele><time>2026-04-12T09:18:05Z</time></trkpt><trkpt lat="45.41586844106589" lon="11.51444617231102"><ele>368.0</ele><time>2026-04-12T09:18:06Z</time></trkpt><trkpt lat="45.41586694222023" lon="11.514341795548173"><ele>368.0</ele><time>2026-04-12T09:18:07Z</time></trkpt><trkpt lat="45.41586668715971" lon="11.514235354787514"><ele>368.0</ele><time>2026-04-12T09:18:08Z</time></trkpt><trkpt lat="45.415860039194285" lon="11.514145248558407"><ele>368.0</ele><time>2026-04-12T09:18:09Z</time></trkpt><trkpt lat="45.41584654441484" lon="11.51399833768302"><ele>367.2</ele><time>2026-04-12T09:18:11Z</time></trkpt><trkpt lat="45.415801657886995" lon="11.51388871286835"><ele>366.4</ele><time>2026-04-12T09:18:15Z</time></trkpt><trkpt lat="45.41577807496586" lon="11.513804660058238"><ele>365.59999999999997</ele><time>2026-04-12T09:18:17Z</time></trkpt><trkpt lat="45.41570587396316" lon="11.513909640145593"><ele>364.79999999999995</ele><time>2026-04-12T09:18:20Z</time></trkpt><trkpt lat="45.415669310959586" lon="11.514004709743132"><ele>364.0</ele><time>2026-04-12T09:18:21Z</time></trkpt><trkpt lat="45.415583104312105" lon="11.514126119670697"><ele>364.0</ele><time>2026-04-12T09:18:23Z</time></trkpt><trkpt lat="45.415542902062874" lon="11.514201653179123"><ele>364.0</ele><time>2026-04-12T09:18:24Z</time></trkpt><trkpt lat="45.41549970248495" lon="11.514301736705589"><ele>364.0</ele><time>2026-04-12T09:18:25Z</time></trkpt><trkpt lat="45.41544833299931" lon="11.514387816920133"><ele>364.0</ele><time>2026-04-12T09:18:26Z</time></trkpt><trkpt lat="45.415397874427406" lon="11.514462676803083"><ele>364.0</ele><time>2026-04-12T09:18:27Z</time></trkpt><trkpt lat="45.415363797891885" lon="11.514546855839301"><ele>364.0</ele><time>2026-04-12T09:18:28Z</time></trkpt><trkpt lat="45.41533959448987" lon="11.514641937398453"><ele>364.0</ele><time>2026-04-12T09:18:29Z</time></trkpt><trkpt lat="45.415324843402146" lon="11.514754425697953"><ele>362.57142857142856</ele><time>2026-04-12T09:18:30Z</time></trkpt><trkpt lat="45.415314528685826" lon="11.514858824581928"><ele>361.1428571428571</ele><time>2026-04-12T09:18:31Z</time></trkpt><trkpt lat="45.4153056160455" lon="11.514966460198329"><ele>359.7142857142857</ele><time>2026-04-12T09:18:32Z</time></trkpt><trkpt lat="45.41528184864416" lon="11.515063788136407"><ele>358.2857142857143</ele><time>2026-04-12T09:18:33Z</time></trkpt><trkpt lat="45.41524960869526" lon="11.51515888903886"><ele>356.85714285714283</ele><time>2026-04-12T09:18:34Z</time></trkpt><trkpt lat="45.41519772520282" lon="11.515227905057476"><ele>355.42857142857144</ele><time>2026-04-12T09:18:35Z</time></trkpt><trkpt lat="45.415132385264165" lon="11.515251319943097"><ele>354.0</ele><time>2026-04-12T09:18:36Z</time></trkpt><trkpt lat="45.41506366423992" lon="11.515249671294333"><ele>354.0</ele><time>2026-04-12T09:18:37Z</time></trkpt><trkpt lat="45.41498534086108" lon="11.515175318935562"><ele>354.0</ele><time>2026-04-12T09:18:38Z</time></trkpt><trkpt lat="45.414910326458426" lon="11.515130876892364"><ele>354.0</ele><time>2026-04-12T09:18:39Z</time></trkpt><trkpt lat="45.41484184062111" lon="11.515113106484526"><ele>354.0</ele><time>2026-04-12T09:18:40Z</time></trkpt><trkpt lat="45.41477008645313" lon="11.515124393418953"><ele>354.0</ele><time>2026-04-12T09:18:41Z</time></trkpt><trkpt lat="45.414709976025456" lon="11.515181701496338"><ele>354.0</ele><time>2026-04-12T09:18:42Z</time></trkpt><trkpt lat="45.4146555757716" lon="11.515286939001449"><ele>354.3333333333333</ele><time>2026-04-12T09:18:43Z</time></trkpt><trkpt lat="45.41461438002676" lon="11.51537055152842"><ele>354.6666666666667</ele><time>2026-04-12T09:18:44Z</time></trkpt><trkpt lat="45.41457551662135" lon="11.515449328296386"><ele>355.0</ele><time>2026-04-12T09:18:45Z</time></trkpt><trkpt lat="45.41448837883454" lon="11.51555673082374"><ele>355.33333333333337</ele><time>2026-04-12T09:18:47Z</time></trkpt><trkpt lat="45.41444124683603" lon="11.5156716549385"><ele>355.6666666666667</ele><time>2026-04-12T09:18:49Z</time></trkpt><trkpt lat="45.41437749010994" lon="11.515752706517933"><ele>356.0</ele><time>2026-04-12T09:18:51Z</time></trkpt><trkpt lat="45.414332637402936" lon="11.515822770088374"><ele>356.0</ele><time>2026-04-12T09:18:52Z</time></trkpt><trkpt lat="45.414281443354" lon="11.515914106751795"><ele>356.0</ele><time>2026-04-12T09:18:53Z</time></trkpt><trkpt lat="45.414219138167645" lon="11.516004976487551"><ele>356.0</ele><time>2026-04-12T09:18:54Z</time></trkpt><trkpt lat="45.41414455990831" lon="11.516072451358358"><ele>356.0</ele><time>2026-04-12T09:18:55Z</time></trkpt><trkpt lat="45.414063955049606" lon="11.516109200953878"><ele>356.0</ele><time>2026-04-12T09:18:56Z</time></trkpt><trkpt lat="45.41395895571003" lon="11.516156755155507"><ele>356.0</ele><time>2026-04-12T09:18:58Z</time></trkpt><trkpt lat="45.41389995749231" lon="11.516190729317636"><ele>356.0</ele><time>2026-04-12T09:18:59Z</time></trkpt><trkpt lat="45.41384375192375" lon="11.516245346460044"><ele>356.0</ele><time>2026-04-12T09:19:01Z</time></trkpt><trkpt lat="45.41378758227491" lon="11.516315723172065"><ele>356.0</ele><time>2026-04-12T09:19:05Z</time></trkpt><trkpt lat="45.413721675096774" lon="11.516323091587127"><ele>356.0</ele><time>2026-04-12T09:19:11Z</time></trkpt><trkpt lat="45.4136174682719" lon="11.516256908649016"><ele>356.0</ele><time>2026-04-12T09:19:13Z</time></trkpt><trkpt lat="45.413560682026215" lon="11.516196384905783"><ele>355.0</ele><time>2026-04-12T09:19:14Z</time></trkpt><trkpt lat="45.413498038932914" lon="11.516117056934892"><ele>354.0</ele><time>2026-04-12T09:19:15Z</time></trkpt><trkpt lat="45.41343534029517" lon="11.51603602268017"><ele>353.0</ele><time>2026-04-12T09:19:16Z</time></trkpt><trkpt lat="45.41337100377585" lon="11.515972529135638"><ele>352.0</ele><time>2026-04-12T09:19:17Z</time></trkpt><trkpt lat="45.41329759205747" lon="11.51592063841805"><ele>351.0</ele><time>2026-04-12T09:19:18Z</time></trkpt><trkpt lat="45.41322453855389" lon="11.515865620628126"><ele>350.0</ele><time>2026-04-12T09:19:19Z</time></trkpt><trkpt lat="45.41315821395889" lon="11.515823811032963"><ele>350.0</ele><time>2026-04-12T09:19:20Z</time></trkpt><trkpt lat="45.41305739660226" lon="11.515762298946386"><ele>350.0</ele><time>2026-04-12T09:19:22Z</time></trkpt><trkpt lat="45.41300304442178" lon="11.515716006230203"><ele>350.0</ele><time>2026-04-12T09:19:23Z</time></trkpt><trkpt lat="45.41298102792813" lon="11.51559980442989"><ele>350.0</ele><time>2026-04-12T09:19:28Z</time></trkpt><trkpt lat="45.41299429145524" lon="11.515479061792517"><ele>350.0</ele><time>2026-04-12T09:19:29Z</time></trkpt><trkpt lat="45.41299940717732" lon="11.515371452601865"><ele>350.0</ele><time>2026-04-12T09:19:30Z</time></trkpt><trkpt lat="45.41301529312706" lon="11.515270636884491"><ele>347.83333333333337</ele><time>2026-04-12T09:19:31Z</time></trkpt><trkpt lat="45.413047510398194" lon="11.515168810625296"><ele>345.6666666666667</ele><time>2026-04-12T09:19:32Z</time></trkpt><trkpt lat="45.413066314188846" lon="11.515056938391"><ele>343.5</ele><time>2026-04-12T09:19:33Z</time></trkpt><trkpt lat="45.413067280767095" lon="11.514943400306372"><ele>341.3333333333333</ele><time>2026-04-12T09:19:34Z</time></trkpt><trkpt lat="45.41306725660869" lon="11.514837885640851"><ele>339.16666666666663</ele><time>2026-04-12T09:19:35Z</time></trkpt><trkpt lat="45.413062907369145" lon="11.5147132383563"><ele>337.0</ele><time>2026-04-12T09:19:36Z</time></trkpt><trkpt lat="45.4130426956197" lon="11.514610109863536"><ele>337.42857142857144</ele><time>2026-04-12T09:19:37Z</time></trkpt><trkpt lat="45.41300995228939" lon="11.51450737731706"><ele>337.8571428571429</ele><time>2026-04-12T09:19:38Z</time></trkpt><trkpt lat="45.41296924052459" lon="11.51441927850259"><ele>338.28571428571433</ele><time>2026-04-12T09:19:39Z</time></trkpt><trkpt lat="45.41293393080564" lon="11.514322243217967"><ele>338.7142857142857</ele><time>2026-04-12T09:19:40Z</time></trkpt><trkpt lat="45.41291152544887" lon="11.514222654463756"><ele>339.1428571428571</ele><time>2026-04-12T09:19:41Z</time></trkpt><trkpt lat="45.412887840647485" lon="11.514127352314052"><ele>339.5714285714286</ele><time>2026-04-12T09:19:42Z</time></trkpt><trkpt lat="45.4128971920454" lon="11.514036089997155"><ele>340.0</ele><time>2026-04-12T09:19:43Z</time></trkpt><trkpt lat="45.41292326436378" lon="11.513934990437727"><ele>340.0</ele><time>2026-04-12T09:19:44Z</time></trkpt><trkpt lat="45.41293715859546" lon="11.51383965264777"><ele>340.0</ele><time>2026-04-12T09:19:45Z</time></trkpt><trkpt lat="45.41291617962988" lon="11.513683777756102"><ele>340.0</ele><time>2026-04-12T09:19:47Z</time></trkpt><trkpt lat="45.41291163682253" lon="11.513552330508412"><ele>340.0</ele><time>2026-04-12T09:19:49Z</time></trkpt><trkpt lat="45.412883106141315" lon="11.513467990551598"><ele>340.0</ele><time>2026-04-12T09:19:50Z</time></trkpt><trkpt lat="45.412842377553325" lon="11.513397615766555"><ele>340.0</ele><time>2026-04-12T09:19:51Z</time></trkpt><trkpt lat="45.41272429299685" lon="11.513305808418506"><ele>338.66666666666663</ele><time>2026-04-12T09:19:53Z</time></trkpt><trkpt lat="45.41265410477465" lon="11.51326730098141"><ele>337.3333333333333</ele><time>2026-04-12T09:19:54Z</time></trkpt><trkpt lat="45.41259184337917" lon="11.51320438484083"><ele>336.0</ele><time>2026-04-12T09:19:55Z</time></trkpt><trkpt lat="45.412543336376395" lon="11.513122605121344"><ele>334.6666666666667</ele><time>2026-04-12T09:19:56Z</time></trkpt><trkpt lat="45.41249145371456" lon="11.513042711839597"><ele>333.33333333333337</ele><time>2026-04-12T09:19:57Z</time></trkpt><trkpt lat="45.412431837006146" lon="11.512965926565602"><ele>332.0</ele><time>2026-04-12T09:19:58Z</time></trkpt><trkpt lat="45.412373210205594" lon="11.512890929702623"><ele>331.57142857142856</ele><time>2026-04-12T09:19:59Z</time></trkpt><trkpt lat="45.41231681026881" lon="11.51282287201763"><ele>331.14285714285717</ele><time>2026-04-12T09:20:00Z</time></trkpt><trkpt lat="45.41226929254841" lon="11.512751420100974"><ele>330.7142857142857</ele><time>2026-04-12T09:20:01Z</time></trkpt><trkpt lat="45.41223664781883" lon="11.512674347092227"><ele>330.2857142857143</ele><time>2026-04-12T09:20:02Z</time></trkpt><trkpt lat="45.41220964874541" lon="11.512587063258236"><ele>329.8571428571429</ele><time>2026-04-12T09:20:03Z</time></trkpt><trkpt lat="45.41218876191409" lon="11.512489941151754"><ele>329.42857142857144</ele><time>2026-04-12T09:20:04Z</time></trkpt><trkpt lat="45.41217906147608" lon="11.512399182660145"><ele>329.0</ele><time>2026-04-12T09:20:05Z</time></trkpt><trkpt lat="45.41214708462927" lon="11.512307081634289"><ele>329.0</ele><time>2026-04-12T09:20:06Z</time></trkpt><trkpt lat="45.41212324350608" lon="11.512217324365949"><ele>329.0</ele><time>2026-04-12T09:20:07Z</time></trkpt><trkpt lat="45.4120930666062" lon="11.512123564234358"><ele>329.0</ele><time>2026-04-12T09:20:08Z</time></trkpt><trkpt lat="45.41205570543165" lon="11.512031567405643"><ele>329.0</ele><time>2026-04-12T09:20:09Z</time></trkpt><trkpt lat="45.41203061432938" lon="11.511942136072882"><ele>329.0</ele><time>2026-04-12T09:20:10Z</time></trkpt><trkpt lat="45.41198080423005" lon="11.511786622336528"><ele>329.0</ele><time>2026-04-12T09:20:12Z</time></trkpt><trkpt lat="45.41196606382841" lon="11.51169798235422"><ele>328.83333333333337</ele><time>2026-04-12T09:20:13Z</time></trkpt><trkpt lat="45.41194937833088" lon="11.511597324716746"><ele>328.6666666666667</ele><time>2026-04-12T09:20:14Z</time></trkpt><trkpt lat="45.41193085351589" lon="11.511483527585197"><ele>328.5</ele><time>2026-04-12T09:20:15Z</time></trkpt><trkpt lat="45.41189731490059" lon="11.511366110848646"><ele>328.3333333333333</ele><time>2026-04-12T09:20:16Z</time></trkpt><trkpt lat="45.4118418889115" lon="11.5112352210921"><ele>328.16666666666663</ele><time>2026-04-12T09:20:17Z</time></trkpt><trkpt lat="45.4118394028528" lon="11.511097934132838"><ele>328.0</ele><time>2026-04-12T09:20:18Z</time></trkpt><trkpt lat="45.41186063837519" lon="11.510941474368371"><ele>327.0</ele><time>2026-04-12T09:20:19Z</time></trkpt><trkpt lat="45.411877990158864" lon="11.510805785784985"><ele>326.0</ele><time>2026-04-12T09:20:20Z</time></trkpt><trkpt lat="45.411893141337075" lon="11.510696800012264"><ele>325.0</ele><time>2026-04-12T09:20:21Z</time></trkpt><trkpt lat="45.41194697265997" lon="11.51055003724279"><ele>324.0</ele><time>2026-04-12T09:20:22Z</time></trkpt><trkpt lat="45.41199008833591" lon="11.510429520778219"><ele>323.0</ele><time>2026-04-12T09:20:23Z</time></trkpt><trkpt lat="45.41200938895875" lon="11.510310358606032"><ele>322.5714285714286</ele><time>2026-04-12T09:20:24Z</time></trkpt><trkpt lat="45.412020117089675" lon="11.510208536510106"><ele>322.14285714285717</ele><time>2026-04-12T09:20:25Z</time></trkpt><trkpt lat="45.41202730673905" lon="11.510112085971187"><ele>321.7142857142857</ele><time>2026-04-12T09:20:26Z</time></trkpt><trkpt lat="45.41204038712978" lon="11.510016406421416"><ele>321.28571428571433</ele><time>2026-04-12T09:20:27Z</time></trkpt><trkpt lat="45.4120469394048" lon="11.50992003085476"><ele>320.8571428571429</ele><time>2026-04-12T09:20:28Z</time></trkpt><trkpt lat="45.412036747895606" lon="11.509818915837222"><ele>320.42857142857144</ele><time>2026-04-12T09:20:29Z</time></trkpt><trkpt lat="45.41202230846097" lon="11.509720769568988"><ele>320.0</ele><time>2026-04-12T09:20:30Z</time></trkpt><trkpt lat="45.412002907176166" lon="11.509632723748084"><ele>317.83333333333337</ele><time>2026-04-12T09:20:31Z</time></trkpt><trkpt lat="45.4119784346464" lon="11.509535749258164"><ele>315.6666666666667</ele><time>2026-04-12T09:20:32Z</time></trkpt><trkpt lat="45.411947654664225" lon="11.509447299157952"><ele>313.5</ele><time>2026-04-12T09:20:33Z</time></trkpt><trkpt lat="45.411913738403534" lon="11.509343727513421"><ele>311.3333333333333</ele><time>2026-04-12T09:20:34Z</time></trkpt><trkpt lat="45.411872639646376" lon="11.509244561925398"><ele>309.16666666666663</ele><time>2026-04-12T09:20:35Z</time></trkpt><trkpt lat="45.41184531508147" lon="11.509147401342975"><ele>307.0</ele><time>2026-04-12T09:20:36Z</time></trkpt><trkpt lat="45.411814179033875" lon="11.509046349553332"><ele>307.0</ele><time>2026-04-12T09:20:37Z</time></trkpt><trkpt lat="45.4118051106213" lon="11.508951323906027"><ele>307.0</ele><time>2026-04-12T09:20:38Z</time></trkpt><trkpt lat="45.41180117590149" lon="11.508850797678445"><ele>307.0</ele><time>2026-04-12T09:20:39Z</time></trkpt><trkpt lat="45.41179211275266" lon="11.508744606928293"><ele>307.0</ele><time>2026-04-12T09:20:40Z</time></trkpt><trkpt lat="45.411776605415106" lon="11.50863895391574"><ele>307.0</ele><time>2026-04-12T09:20:41Z</time></trkpt><trkpt lat="45.41177458635438" lon="11.508524282279692"><ele>307.0</ele><time>2026-04-12T09:20:42Z</time></trkpt><trkpt lat="45.41180064061877" lon="11.50837812115582"><ele>303.25</ele><time>2026-04-12T09:20:44Z</time></trkpt><trkpt lat="45.41200443587209" lon="11.50828033846665"><ele>299.5</ele><time>2026-04-12T09:20:56Z</time></trkpt><trkpt lat="45.4120415084081" lon="11.508371190841887"><ele>295.75</ele><time>2026-04-12T09:20:57Z</time></trkpt><trkpt lat="45.41208188795266" lon="11.50847869484247"><ele>292.0</ele><time>2026-04-12T09:20:58Z</time></trkpt><trkpt lat="45.4121311005724" lon="11.508572780823402"><ele>291.5</ele><time>2026-04-12T09:20:59Z</time></trkpt><trkpt lat="45.412185524924084" lon="11.508663422700035"><ele>291.0</ele><time>2026-04-12T09:21:00Z</time></trkpt><trkpt lat="45.41224552393645" lon="11.508750819043705"><ele>290.5</ele><time>2026-04-12T09:21:01Z</time></trkpt><trkpt lat="45.41231691069536" lon="11.508814158817852"><ele>290.0</ele><time>2026-04-12T09:21:02Z</time></trkpt><trkpt lat="45.41239312568333" lon="11.508871220164083"><ele>289.5</ele><time>2026-04-12T09:21:03Z</time></trkpt><trkpt lat="45.412470638897425" lon="11.508902385361948"><ele>289.0</ele><time>2026-04-12T09:21:04Z</time></trkpt><trkpt lat="45.41256514245262" lon="11.508916758195284"><ele>289.0</ele><time>2026-04-12T09:21:05Z</time></trkpt><trkpt lat="45.41263153827537" lon="11.508951052454133"><ele>289.0</ele><time>2026-04-12T09:21:06Z</time></trkpt><trkpt lat="45.412716095080356" lon="11.50899739599508"><ele>289.0</ele><time>2026-04-12T09:21:07Z</time></trkpt><trkpt lat="45.412793703527846" lon="11.509046493517253"><ele>289.0</ele><time>2026-04-12T09:21:08Z</time></trkpt><trkpt lat="45.41286233084889" lon="11.50908060959085"><ele>289.0</ele><time>2026-04-12T09:21:09Z</time></trkpt><trkpt lat="45.41293690913571" lon="11.509129623756783"><ele>289.0</ele><time>2026-04-12T09:21:11Z</time></trkpt><trkpt lat="45.4129604632531" lon="11.509007542743433"><ele>289.0</ele><time>2026-04-12T09:21:13Z</time></trkpt><trkpt lat="45.41295888474243" lon="11.508880676169747"><ele>289.0</ele><time>2026-04-12T09:21:14Z</time></trkpt><trkpt lat="45.4129210959397" lon="11.508738966708744"><ele>289.0</ele><time>2026-04-12T09:21:15Z</time></trkpt><trkpt lat="45.41287122538225" lon="11.508612329372006"><ele>289.0</ele><time>2026-04-12T09:21:16Z</time></trkpt><trkpt lat="45.412838486311806" lon="11.508480032745894"><ele>289.0</ele><time>2026-04-12T09:21:17Z</time></trkpt><trkpt lat="45.41280638162177" lon="11.50834713760045"><ele>287.3333333333333</ele><time>2026-04-12T09:21:18Z</time></trkpt><trkpt lat="45.41276704527391" lon="11.50822858731303"><ele>285.66666666666663</ele><time>2026-04-12T09:21:19Z</time></trkpt><trkpt lat="45.41274218674521" lon="11.508127915907558"><ele>284.0</ele><time>2026-04-12T09:21:20Z</time></trkpt><trkpt lat="45.4127694255562" lon="11.508003634430777"><ele>282.3333333333333</ele><time>2026-04-12T09:21:22Z</time></trkpt><trkpt lat="45.412831603401656" lon="11.507983409094615"><ele>280.6666666666667</ele><time>2026-04-12T09:21:23Z</time></trkpt><trkpt lat="45.412918779853484" lon="11.507994389177224"><ele>279.0</ele><time>2026-04-12T09:21:26Z</time></trkpt><trkpt lat="45.412996589977205" lon="11.508048301323957"><ele>277.8333333333333</ele><time>2026-04-12T09:21:28Z</time></trkpt><trkpt lat="45.413092258252085" lon="11.508127477078292"><ele>276.6666666666667</ele><time>2026-04-12T09:21:30Z</time></trkpt><trkpt lat="45.41316315727251" lon="11.508185279375025"><ele>275.5</ele><time>2026-04-12T09:21:31Z</time></trkpt><trkpt lat="45.413235870373285" lon="11.508258486064555"><ele>274.33333333333337</ele><time>2026-04-12T09:21:32Z</time></trkpt><trkpt lat="45.41330684812362" lon="11.508332608438318"><ele>273.1666666666667</ele><time>2026-04-12T09:21:33Z</time></trkpt><trkpt lat="45.413345250620466" lon="11.508412965016483"><ele>272.0</ele><time>2026-04-12T09:21:34Z</time></trkpt><trkpt lat="45.41337149597944" lon="11.508509672599567"><ele>272.0</ele><time>2026-04-12T09:21:35Z</time></trkpt><trkpt lat="45.41346442313519" lon="11.50846463666289"><ele>272.0</ele><time>2026-04-12T09:21:38Z</time></trkpt><trkpt lat="45.41348444527821" lon="11.508354494641978"><ele>272.0</ele><time>2026-04-12T09:21:39Z</time></trkpt><trkpt lat="45.41351249382393" lon="11.508197098198492"><ele>272.0</ele><time>2026-04-12T09:21:40Z</time></trkpt><trkpt lat="45.41354617291787" lon="11.508088430352744"><ele>272.0</ele><time>2026-04-12T09:21:41Z</time></trkpt><trkpt lat="45.413609429194814" lon="11.507948320235917"><ele>272.4</ele><time>2026-04-12T09:21:42Z</time></trkpt><trkpt lat="45.413656120368145" lon="11.507786741319224"><ele>272.79999999999995</ele><time>2026-04-12T09:21:43Z</time></trkpt><trkpt lat="45.413712601937654" lon="11.507581778438869"><ele>273.2</ele><time>2026-04-12T09:21:44Z</time></trkpt><trkpt lat="45.41375939761701" lon="11.507465327060768"><ele>273.59999999999997</ele><time>2026-04-12T09:21:45Z</time></trkpt><trkpt lat="45.41379973866631" lon="11.507377286760935"><ele>274.0</ele><time>2026-04-12T09:21:46Z</time></trkpt><trkpt lat="45.413835682320645" lon="11.507270984228416"><ele>276.3333333333333</ele><time>2026-04-12T09:21:47Z</time></trkpt><trkpt lat="45.41389182733625" lon="11.507169281538708"><ele>278.66666666666663</ele><time>2026-04-12T09:21:49Z</time></trkpt><trkpt lat="45.41398439250096" lon="11.507184549744952"><ele>281.0</ele><time>2026-04-12T09:21:51Z</time></trkpt><trkpt lat="45.41405103307291" lon="11.507241452894682"><ele>283.3333333333333</ele><time>2026-04-12T09:21:52Z</time></trkpt><trkpt lat="45.4140888877588" lon="11.507327157249293"><ele>285.6666666666667</ele><time>2026-04-12T09:21:53Z</time></trkpt><trkpt lat="45.414130193839256" lon="11.507450864353297"><ele>288.0</ele><time>2026-04-12T09:21:54Z</time></trkpt><trkpt lat="45.41417874096953" lon="11.507560916213322"><ele>288.0</ele><time>2026-04-12T09:21:55Z</time></trkpt><trkpt lat="45.414213917156324" lon="11.507665682577823"><ele>288.0</ele><time>2026-04-12T09:21:56Z</time></trkpt><trkpt lat="45.41423700139231" lon="11.507771052732943"><ele>288.0</ele><time>2026-04-12T09:21:57Z</time></trkpt><trkpt lat="45.41424183257717" lon="11.507868788710862"><ele>288.0</ele><time>2026-04-12T09:21:58Z</time></trkpt><trkpt lat="45.4143099341383" lon="11.507988795524026"><ele>288.0</ele><time>2026-04-12T09:22:00Z</time></trkpt><trkpt lat="45.41441916199806" lon="11.50806620343335"><ele>288.0</ele><time>2026-04-12T09:22:02Z</time></trkpt><trkpt lat="45.4145283854054" lon="11.50802128115152"><ele>288.0</ele><time>2026-04-12T09:22:04Z</time></trkpt><trkpt lat="45.41457633685473" lon="11.507940444181823"><ele>288.0</ele><time>2026-04-12T09:22:05Z</time></trkpt><trkpt lat="45.41462738102458" lon="11.507856312614845"><ele>288.0</ele><time>2026-04-12T09:22:06Z</time></trkpt><trkpt lat="45.41469008000886" lon="11.507836817508366"><ele>288.0</ele><time>2026-04-12T09:22:07Z</time></trkpt><trkpt lat="45.41476447562679" lon="11.507857982563124"><ele>288.0</ele><time>2026-04-12T09:22:08Z</time></trkpt><trkpt lat="45.41483643477337" lon="11.507898876273108"><ele>289.5</ele><time>2026-04-12T09:22:09Z</time></trkpt><trkpt lat="45.41490797013818" lon="11.507925713126376"><ele>291.0</ele><time>2026-04-12T09:22:10Z</time></trkpt><trkpt lat="45.41498925462677" lon="11.507937080518802"><ele>292.5</ele><time>2026-04-12T09:22:11Z</time></trkpt><trkpt lat="45.41507238444505" lon="11.50793310422916"><ele>294.0</ele><time>2026-04-12T09:22:12Z</time></trkpt><trkpt lat="45.415160226594075" lon="11.507921667856964"><ele>295.5</ele><time>2026-04-12T09:22:13Z</time></trkpt><trkpt lat="45.415254482477735" lon="11.507897004955685"><ele>297.0</ele><time>2026-04-12T09:22:14Z</time></trkpt><trkpt lat="45.415332802716385" lon="11.507868133715641"><ele>297.0</ele><time>2026-04-12T09:22:15Z</time></trkpt><trkpt lat="45.415405247119146" lon="11.507845015081736"><ele>297.0</ele><time>2026-04-12T09:22:16Z</time></trkpt><trkpt lat="45.415487205033216" lon="11.507823984841085"><ele>297.0</ele><time>2026-04-12T09:22:17Z</time></trkpt><trkpt lat="45.41558091842349" lon="11.507814434380727"><ele>297.0</ele><time>2026-04-12T09:22:18Z</time></trkpt><trkpt lat="45.415674562250636" lon="11.507816221635006"><ele>297.0</ele><time>2026-04-12T09:22:19Z</time></trkpt><trkpt lat="45.4157611152773" lon="11.507829337159684"><ele>297.0</ele><time>2026-04-12T09:22:20Z</time></trkpt><trkpt lat="45.41583602306376" lon="11.507840172530807"><ele>298.0</ele><time>2026-04-12T09:22:21Z</time></trkpt><trkpt lat="45.41591581527007" lon="11.50780917683638"><ele>299.0</ele><time>2026-04-12T09:22:22Z</time></trkpt><trkpt lat="45.4160010353452" lon="11.507766528026469"><ele>300.0</ele><time>2026-04-12T09:22:23Z</time></trkpt><trkpt lat="45.41607650600403" lon="11.507739904390599"><ele>301.0</ele><time>2026-04-12T09:22:24Z</time></trkpt><trkpt lat="45.41615834123821" lon="11.507723995486772"><ele>302.0</ele><time>2026-04-12T09:22:25Z</time></trkpt><trkpt lat="45.41623601108028" lon="11.50771465964845"><ele>303.0</ele><time>2026-04-12T09:22:26Z</time></trkpt><trkpt lat="45.416306337430726" lon="11.50772187236067"><ele>304.8333333333333</ele><time>2026-04-12T09:22:27Z</time></trkpt><trkpt lat="45.416371627647806" lon="11.507762791346765"><ele>306.6666666666667</ele><time>2026-04-12T09:22:28Z</time></trkpt><trkpt lat="45.41647480046389" lon="11.507815725946987"><ele>308.5</ele><time>2026-04-12T09:22:30Z</time></trkpt><trkpt lat="45.41654107569328" lon="11.507802521561198"><ele>310.33333333333337</ele><time>2026-04-12T09:22:31Z</time></trkpt><trkpt lat="45.416607491294585" lon="11.50775421148282"><ele>312.1666666666667</ele><time>2026-04-12T09:22:32Z</time></trkpt><trkpt lat="45.416681898258446" lon="11.50769989520941"><ele>314.0</ele><time>2026-04-12T09:22:33Z</time></trkpt><trkpt lat="45.41675677289165" lon="11.507646352924825"><ele>314.0</ele><time>2026-04-12T09:22:34Z</time></trkpt><trkpt lat="45.41684350914394" lon="11.5076010927597"><ele>314.0</ele><time>2026-04-12T09:22:35Z</time></trkpt><trkpt lat="45.416928151796995" lon="11.507568028135857"><ele>314.0</ele><time>2026-04-12T09:22:36Z</time></trkpt><trkpt lat="45.41701019712685" lon="11.507529443136205"><ele>314.0</ele><time>2026-04-12T09:22:37Z</time></trkpt><trkpt lat="45.417079184127545" lon="11.507467525295388"><ele>314.0</ele><time>2026-04-12T09:22:38Z</time></trkpt><trkpt lat="45.41712659766644" lon="11.507362196470709"><ele>314.0</ele><time>2026-04-12T09:22:39Z</time></trkpt><trkpt lat="45.417134786050795" lon="11.507209477525695"><ele>313.59999999999997</ele><time>2026-04-12T09:22:40Z</time></trkpt><trkpt lat="45.4171358343082" lon="11.50703332829265"><ele>313.2</ele><time>2026-04-12T09:22:41Z</time></trkpt><trkpt lat="45.41710233974094" lon="11.506889761970573"><ele>312.79999999999995</ele><time>2026-04-12T09:22:42Z</time></trkpt><trkpt lat="45.41704538419426" lon="11.506760992590381"><ele>312.4</ele><time>2026-04-12T09:22:43Z</time></trkpt><trkpt lat="45.416995964163135" lon="11.506649644535987"><ele>312.0</ele><time>2026-04-12T09:22:44Z</time></trkpt><trkpt lat="45.416936967031816" lon="11.506564990636832"><ele>312.0</ele><time>2026-04-12T09:22:45Z</time></trkpt><trkpt lat="45.41686510208465" lon="11.506497128997232"><ele>312.0</ele><time>2026-04-12T09:22:46Z</time></trkpt><trkpt lat="45.416784478936016" lon="11.50644317788327"><ele>312.0</ele><time>2026-04-12T09:22:47Z</time></trkpt><trkpt lat="45.41671888730963" lon="11.506372232624212"><ele>312.0</ele><time>2026-04-12T09:22:48Z</time></trkpt><trkpt lat="45.41668808890555" lon="11.506293601704888"><ele>312.0</ele><time>2026-04-12T09:22:49Z</time></trkpt><trkpt lat="45.41667652997353" lon="11.506183000308537"><ele>312.0</ele><time>2026-04-12T09:22:51Z</time></trkpt><trkpt lat="45.41670405751548" lon="11.506078266902492"><ele>312.4</ele><time>2026-04-12T09:22:59Z</time></trkpt><trkpt lat="45.416785321051556" lon="11.506135746358686"><ele>312.79999999999995</ele><time>2026-04-12T09:23:01Z</time></trkpt><trkpt lat="45.416849732212604" lon="11.506222300281607"><ele>313.2</ele><time>2026-04-12T09:23:03Z</time></trkpt><trkpt lat="45.416953928104405" lon="11.506236025990951"><ele>313.59999999999997</ele><time>2026-04-12T09:23:05Z</time></trkpt><trkpt lat="45.417033547613315" lon="11.506169878066174"><ele>314.0</ele><time>2026-04-12T09:23:07Z</time></trkpt><trkpt lat="45.41706417218664" lon="11.50597481910076"><ele>314.0</ele><time>2026-04-12T09:23:09Z</time></trkpt><trkpt lat="45.417046187991694" lon="11.505849456021076"><ele>314.0</ele><time>2026-04-12T09:23:10Z</time></trkpt><trkpt lat="45.41703511131465" lon="11.50574181464883"><ele>314.0</ele><time>2026-04-12T09:23:11Z</time></trkpt><trkpt lat="45.41706033787583" lon="11.505639128178537"><ele>314.0</ele><time>2026-04-12T09:23:12Z</time></trkpt><trkpt lat="45.417097785473636" lon="11.50555924394583"><ele>314.0</ele><time>2026-04-12T09:23:13Z</time></trkpt><trkpt lat="45.41717320883089" lon="11.505431589761683"><ele>314.0</ele><time>2026-04-12T09:23:15Z</time></trkpt><trkpt lat="45.41730257988235" lon="11.50537064750197"><ele>315.4</ele><time>2026-04-12T09:23:17Z</time></trkpt><trkpt lat="45.41737040226959" lon="11.505286225014245"><ele>316.79999999999995</ele><time>2026-04-12T09:23:18Z</time></trkpt><trkpt lat="45.417460076818365" lon="11.505197391329691"><ele>318.20000000000005</ele><time>2026-04-12T09:23:19Z</time></trkpt><trkpt lat="45.417541760557256" lon="11.505123259722705"><ele>319.6</ele><time>2026-04-12T09:23:20Z</time></trkpt><trkpt lat="45.41761279706143" lon="11.5050826528045"><ele>321.0</ele><time>2026-04-12T09:23:21Z</time></trkpt><trkpt lat="45.417689678558666" lon="11.505076982248017"><ele>321.0</ele><time>2026-04-12T09:23:22Z</time></trkpt><trkpt lat="45.417764887217324" lon="11.50508727150156"><ele>321.0</ele><time>2026-04-12T09:23:23Z</time></trkpt><trkpt lat="45.41783978423516" lon="11.505087805007909"><ele>321.0</ele><time>2026-04-12T09:23:24Z</time></trkpt><trkpt lat="45.41791688056114" lon="11.505068330921388"><ele>321.0</ele><time>2026-04-12T09:23:25Z</time></trkpt><trkpt lat="45.41800477986382" lon="11.505029904752684"><ele>321.0</ele><time>2026-04-12T09:23:26Z</time></trkpt><trkpt lat="45.418089392257436" lon="11.504985165196565"><ele>321.0</ele><time>2026-04-12T09:23:27Z</time></trkpt><trkpt lat="45.41817397915082" lon="11.504950197803021"><ele>320.0</ele><time>2026-04-12T09:23:28Z</time></trkpt><trkpt lat="45.418252125984964" lon="11.504903875207049"><ele>319.0</ele><time>2026-04-12T09:23:29Z</time></trkpt><trkpt lat="45.418311884490635" lon="11.504825744246622"><ele>318.0</ele><time>2026-04-12T09:23:30Z</time></trkpt><trkpt lat="45.418361520606005" lon="11.50472312942662"><ele>317.0</ele><time>2026-04-12T09:23:31Z</time></trkpt><trkpt lat="45.41840997451204" lon="11.504611465218042"><ele>316.0</ele><time>2026-04-12T09:23:32Z</time></trkpt><trkpt lat="45.41848198419158" lon="11.504480313468472"><ele>316.0</ele><time>2026-04-12T09:23:33Z</time></trkpt><trkpt lat="45.41858739980969" lon="11.504340125339148"><ele>316.0</ele><time>2026-04-12T09:23:34Z</time></trkpt><trkpt lat="45.41868788109698" lon="11.504216510768464"><ele>316.0</ele><time>2026-04-12T09:23:35Z</time></trkpt><trkpt lat="45.41870456858073" lon="11.504106343280975"><ele>316.0</ele><time>2026-04-12T09:23:36Z</time></trkpt><trkpt lat="45.41871833986021" lon="11.503955302789635"><ele>316.0</ele><time>2026-04-12T09:23:37Z</time></trkpt><trkpt lat="45.418766485787295" lon="11.503876994945724"><ele>316.0</ele><time>2026-04-12T09:23:38Z</time></trkpt><trkpt lat="45.41883294508877" lon="11.503779028795668"><ele>316.0</ele><time>2026-04-12T09:23:39Z</time></trkpt><trkpt lat="45.41890484256607" lon="11.503702081918947"><ele>316.0</ele><time>2026-04-12T09:23:40Z</time></trkpt><trkpt lat="45.41894948837488" lon="11.503574242702093"><ele>316.0</ele><time>2026-04-12T09:23:41Z</time></trkpt><trkpt lat="45.418983821697715" lon="11.503439133994586"><ele>315.5</ele><time>2026-04-12T09:23:42Z</time></trkpt><trkpt lat="45.419017813108724" lon="11.50333945257726"><ele>315.0</ele><time>2026-04-12T09:23:43Z</time></trkpt><trkpt lat="45.41906688541968" lon="11.503258047819099"><ele>314.5</ele><time>2026-04-12T09:23:44Z</time></trkpt><trkpt lat="45.41911404753027" lon="11.503170679456463"><ele>314.0</ele><time>2026-04-12T09:23:45Z</time></trkpt><trkpt lat="45.4191746889163" lon="11.50307066783614"><ele>313.5</ele><time>2026-04-12T09:23:46Z</time></trkpt><trkpt lat="45.419250989132756" lon="11.503013741092978"><ele>313.0</ele><time>2026-04-12T09:23:47Z</time></trkpt><trkpt lat="45.41933261067503" lon="11.50297927102981"><ele>313.0</ele><time>2026-04-12T09:23:48Z</time></trkpt><trkpt lat="45.41939991628032" lon="11.502957897941979"><ele>313.0</ele><time>2026-04-12T09:23:49Z</time></trkpt><trkpt lat="45.41948539642607" lon="11.50282456279277"><ele>313.0</ele><time>2026-04-12T09:23:51Z</time></trkpt><trkpt lat="45.41951145743419" lon="11.502722801471792"><ele>313.0</ele><time>2026-04-12T09:23:52Z</time></trkpt><trkpt lat="45.41949057849486" lon="11.502569526277403"><ele>313.0</ele><time>2026-04-12T09:23:54Z</time></trkpt><trkpt lat="45.419439076340524" lon="11.502433903969695"><ele>311.8333333333333</ele><time>2026-04-12T09:23:56Z</time></trkpt><trkpt lat="45.41935502599195" lon="11.50237990331885"><ele>310.66666666666663</ele><time>2026-04-12T09:23:58Z</time></trkpt><trkpt lat="45.41927138962828" lon="11.502410049614465"><ele>309.5</ele><time>2026-04-12T09:23:59Z</time></trkpt><trkpt lat="45.41920195064474" lon="11.502439741708798"><ele>308.3333333333333</ele><time>2026-04-12T09:24:00Z</time></trkpt><trkpt lat="45.41912232907335" lon="11.502469944151098"><ele>307.1666666666667</ele><time>2026-04-12T09:24:01Z</time></trkpt><trkpt lat="45.41906073911207" lon="11.502504824079214"><ele>306.0</ele><time>2026-04-12T09:24:02Z</time></trkpt><trkpt lat="45.41900683859724" lon="11.502562139826033"><ele>306.0</ele><time>2026-04-12T09:24:03Z</time></trkpt><trkpt lat="45.41889832656876" lon="11.50259795982209"><ele>306.0</ele><time>2026-04-12T09:24:05Z</time></trkpt><trkpt lat="45.4188254214784" lon="11.502612701447527"><ele>306.0</ele><time>2026-04-12T09:24:06Z</time></trkpt><trkpt lat="45.41874237403157" lon="11.502623198890877"><ele>306.0</ele><time>2026-04-12T09:24:07Z</time></trkpt><trkpt lat="45.41867917794796" lon="11.502687385294447"><ele>306.0</ele><time>2026-04-12T09:24:08Z</time></trkpt><trkpt lat="45.41859669550416" lon="11.502784268057605"><ele>306.6</ele><time>2026-04-12T09:24:10Z</time></trkpt><trkpt lat="45.418543835748515" lon="11.502900186158499"><ele>307.20000000000005</ele><time>2026-04-12T09:24:13Z</time></trkpt><trkpt lat="45.41846103353409" lon="11.503008921463831"><ele>307.79999999999995</ele><time>2026-04-12T09:24:15Z</time></trkpt><trkpt lat="45.41837324811848" lon="11.503136158238977"><ele>308.4</ele><time>2026-04-12T09:24:17Z</time></trkpt><trkpt lat="45.418338968291195" lon="11.503230361154106"><ele>309.0</ele><time>2026-04-12T09:24:18Z</time></trkpt><trkpt lat="45.41830120581853" lon="11.503325977663138"><ele>309.0</ele><time>2026-04-12T09:24:19Z</time></trkpt><trkpt lat="45.418256046185256" lon="11.503423331488463"><ele>309.0</ele><time>2026-04-12T09:24:20Z</time></trkpt><trkpt lat="45.41820310144284" lon="11.503540604254455"><ele>309.0</ele><time>2026-04-12T09:24:21Z</time></trkpt><trkpt lat="45.41812724247589" lon="11.503646150902833"><ele>309.0</ele><time>2026-04-12T09:24:22Z</time></trkpt><trkpt lat="45.41804543666784" lon="11.503737639942203"><ele>309.0</ele><time>2026-04-12T09:24:23Z</time></trkpt><trkpt lat="45.41797168837726" lon="11.503790301913398"><ele>309.8</ele><time>2026-04-12T09:24:24Z</time></trkpt><trkpt lat="45.41790367235248" lon="11.503835599570326"><ele>310.59999999999997</ele><time>2026-04-12T09:24:25Z</time></trkpt><trkpt lat="45.41782196444152" lon="11.503873687477217"><ele>311.4</ele><time>2026-04-12T09:24:26Z</time></trkpt><trkpt lat="45.41772209028428" lon="11.503904840117377"><ele>312.2</ele><time>2026-04-12T09:24:27Z</time></trkpt><trkpt lat="45.41761423886525" lon="11.503936258096669"><ele>313.0</ele><time>2026-04-12T09:24:28Z</time></trkpt><trkpt lat="45.4175165739543" lon="11.503976480621093"><ele>313.0</ele><time>2026-04-12T09:24:29Z</time></trkpt><trkpt lat="45.417450365891206" lon="11.504055931148978"><ele>313.0</ele><time>2026-04-12T09:24:30Z</time></trkpt><trkpt lat="45.41738276674408" lon="11.504130397348101"><ele>313.0</ele><time>2026-04-12T09:24:31Z</time></trkpt><trkpt lat="45.41732632394827" lon="11.504196786208373"><ele>313.0</ele><time>2026-04-12T09:24:32Z</time></trkpt><trkpt lat="45.417270426361654" lon="11.50426167554351"><ele>313.0</ele><time>2026-04-12T09:24:33Z</time></trkpt><trkpt lat="45.41721818201913" lon="11.50431551138744"><ele>313.0</ele><time>2026-04-12T09:24:34Z</time></trkpt><trkpt lat="45.41715463124993" lon="11.504345570436842"><ele>313.0</ele><time>2026-04-12T09:24:36Z</time></trkpt><trkpt lat="45.41709190806084" lon="11.504390187667388"><ele>312.8333333333333</ele><time>2026-04-12T09:24:38Z</time></trkpt><trkpt lat="45.417018413822305" lon="11.504423742624308"><ele>312.66666666666663</ele><time>2026-04-12T09:24:41Z</time></trkpt><trkpt lat="45.41698897646084" lon="11.504334170170651"><ele>312.5</ele><time>2026-04-12T09:24:44Z</time></trkpt><trkpt lat="45.41697615658958" lon="11.504238110209327"><ele>312.3333333333333</ele><time>2026-04-12T09:24:46Z</time></trkpt><trkpt lat="45.41693375412409" lon="11.504135325739615"><ele>312.1666666666667</ele><time>2026-04-12T09:24:48Z</time></trkpt><trkpt lat="45.41691317771644" lon="11.50401082780766"><ele>312.0</ele><time>2026-04-12T09:24:50Z</time></trkpt><trkpt lat="45.41689116371024" lon="11.50388499184387"><ele>312.0</ele><time>2026-04-12T09:24:52Z</time></trkpt><trkpt lat="45.41687546857398" lon="11.503793366247686"><ele>312.0</ele><time>2026-04-12T09:24:53Z</time></trkpt><trkpt lat="45.41683568165556" lon="11.503655898077795"><ele>312.0</ele><time>2026-04-12T09:24:55Z</time></trkpt><trkpt lat="45.416792463925226" lon="11.503543582232426"><ele>312.0</ele><time>2026-04-12T09:24:57Z</time></trkpt><trkpt lat="45.41673964434015" lon="11.503436626592583"><ele>312.0</ele><time>2026-04-12T09:24:59Z</time></trkpt><trkpt lat="45.41669248440819" lon="11.503368736215792"><ele>312.0</ele><time>2026-04-12T09:25:01Z</time></trkpt><trkpt lat="45.41662367263614" lon="11.503266353890364"><ele>310.6666666666667</ele><time>2026-04-12T09:25:11Z</time></trkpt><trkpt lat="45.41654783195238" lon="11.503175509436085"><ele>309.3333333333333</ele><time>2026-04-12T09:25:13Z</time></trkpt><trkpt lat="45.41647087949319" lon="11.503108941170225"><ele>308.0</ele><time>2026-04-12T09:25:15Z</time></trkpt><trkpt lat="45.41641649371992" lon="11.50302270114219"><ele>306.66666666666663</ele><time>2026-04-12T09:25:17Z</time></trkpt><trkpt lat="45.41646957333363" lon="11.502919857657554"><ele>305.3333333333333</ele><time>2026-04-12T09:25:19Z</time></trkpt><trkpt lat="45.41651400082908" lon="11.502849041313738"><ele>304.0</ele><time>2026-04-12T09:25:20Z</time></trkpt><trkpt lat="45.41657200274142" lon="11.502722931023314"><ele>300.8</ele><time>2026-04-12T09:25:22Z</time></trkpt><trkpt lat="45.416639521309996" lon="11.502600484033268"><ele>297.59999999999997</ele><time>2026-04-12T09:25:24Z</time></trkpt><trkpt lat="45.41670884376597" lon="11.502519082858377"><ele>294.4</ele><time>2026-04-12T09:25:26Z</time></trkpt><trkpt lat="45.416730371016754" lon="11.502391934679753"><ele>291.2</ele><time>2026-04-12T09:25:28Z</time></trkpt><trkpt lat="45.41668665215364" lon="11.502236777019654"><ele>288.0</ele><time>2026-04-12T09:25:30Z</time></trkpt><trkpt lat="45.416658767844595" lon="11.50209485762651"><ele>286.6666666666667</ele><time>2026-04-12T09:25:32Z</time></trkpt><trkpt lat="45.41663928911769" lon="11.50194067900524"><ele>285.3333333333333</ele><time>2026-04-12T09:25:34Z</time></trkpt><trkpt lat="45.41665428408247" lon="11.501850646146059"><ele>284.0</ele><time>2026-04-12T09:25:35Z</time></trkpt><trkpt lat="45.416700592315976" lon="11.501734426603312"><ele>282.66666666666663</ele><time>2026-04-12T09:25:37Z</time></trkpt><trkpt lat="45.41659919725929" lon="11.501705591202082"><ele>281.3333333333333</ele><time>2026-04-12T09:25:41Z</time></trkpt><trkpt lat="45.41653779973211" lon="11.501752692635216"><ele>280.0</ele><time>2026-04-12T09:25:42Z</time></trkpt><trkpt lat="45.41647951410876" lon="11.501856002579595"><ele>280.0</ele><time>2026-04-12T09:25:43Z</time></trkpt><trkpt lat="45.41638821413716" lon="11.501922278371266"><ele>280.0</ele><time>2026-04-12T09:25:45Z</time></trkpt><trkpt lat="45.41631702974934" lon="11.501920958471334"><ele>280.0</ele><time>2026-04-12T09:25:48Z</time></trkpt><trkpt lat="45.416298686697615" lon="11.50175642452855"><ele>280.0</ele><time>2026-04-12T09:25:50Z</time></trkpt><trkpt lat="45.41629158679963" lon="11.501585884068641"><ele>280.0</ele><time>2026-04-12T09:25:52Z</time></trkpt><trkpt lat="45.41631584539848" lon="11.501391286894014"><ele>279.66666666666663</ele><time>2026-04-12T09:25:54Z</time></trkpt><trkpt lat="45.416303681810845" lon="11.501293497912467"><ele>279.3333333333333</ele><time>2026-04-12T09:25:55Z</time></trkpt><trkpt lat="45.41625742705444" lon="11.501212575241052"><ele>279.0</ele><time>2026-04-12T09:25:56Z</time></trkpt><trkpt lat="45.4162118190017" lon="11.501143895509419"><ele>278.6666666666667</ele><time>2026-04-12T09:25:57Z</time></trkpt><trkpt lat="45.41618435412519" lon="11.50099119321258"><ele>278.33333333333337</ele><time>2026-04-12T09:25:59Z</time></trkpt><trkpt lat="45.41616747775272" lon="11.500834464667381"><ele>278.0</ele><time>2026-04-12T09:26:01Z</time></trkpt><trkpt lat="45.41614390836481" lon="11.500747005067595"><ele>277.1666666666667</ele><time>2026-04-12T09:26:02Z</time></trkpt><trkpt lat="45.41611921517084" lon="11.500594162529111"><ele>276.33333333333337</ele><time>2026-04-12T09:26:04Z</time></trkpt><trkpt lat="45.416071673487316" lon="11.500450149084159"><ele>275.5</ele><time>2026-04-12T09:26:06Z</time></trkpt><trkpt lat="45.41604047119091" lon="11.500367436912816"><ele>274.6666666666667</ele><time>2026-04-12T09:26:07Z</time></trkpt><trkpt lat="45.41600202038215" lon="11.500286850578052"><ele>273.8333333333333</ele><time>2026-04-12T09:26:08Z</time></trkpt><trkpt lat="45.4159601317227" lon="11.500216417369101"><ele>273.0</ele><time>2026-04-12T09:26:09Z</time></trkpt><trkpt lat="45.415907758591445" lon="11.50015053832146"><ele>270.85714285714283</ele><time>2026-04-12T09:26:10Z</time></trkpt><trkpt lat="45.41586113756218" lon="11.500082401455222"><ele>268.7142857142857</ele><time>2026-04-12T09:26:11Z</time></trkpt><trkpt lat="45.41581039570867" lon="11.500023496956185"><ele>266.57142857142856</ele><time>2026-04-12T09:26:12Z</time></trkpt><trkpt lat="45.415761446781275" lon="11.499953754217968"><ele>264.42857142857144</ele><time>2026-04-12T09:26:13Z</time></trkpt><trkpt lat="45.41570807226193" lon="11.499894454437262"><ele>262.2857142857143</ele><time>2026-04-12T09:26:14Z</time></trkpt><trkpt lat="45.41565018697408" lon="11.499834527039445"><ele>260.1428571428571</ele><time>2026-04-12T09:26:15Z</time></trkpt><trkpt lat="45.4155896710131" lon="11.499774504278715"><ele>258.0</ele><time>2026-04-12T09:26:16Z</time></trkpt><trkpt lat="45.41553389360624" lon="11.499725178751756"><ele>258.2</ele><time>2026-04-12T09:26:17Z</time></trkpt><trkpt lat="45.415444642860294" lon="11.499643239992507"><ele>258.4</ele><time>2026-04-12T09:26:19Z</time></trkpt><trkpt lat="45.41536713937185" lon="11.49953808912318"><ele>258.59999999999997</ele><time>2026-04-12T09:26:21Z</time></trkpt><trkpt lat="45.415282165427236" lon="11.49943716015819"><ele>258.8</ele><time>2026-04-12T09:26:23Z</time></trkpt><trkpt lat="45.41521778261681" lon="11.499391760394483"><ele>259.0</ele><time>2026-04-12T09:26:24Z</time></trkpt><trkpt lat="45.415156559663366" lon="11.499356769697267"><ele>255.16666666666666</ele><time>2026-04-12T09:26:25Z</time></trkpt><trkpt lat="45.41508605341325" lon="11.499319218841801"><ele>251.33333333333331</ele><time>2026-04-12T09:26:27Z</time></trkpt><trkpt lat="45.41501187508003" lon="11.499246543052353"><ele>247.5</ele><time>2026-04-12T09:26:29Z</time></trkpt><trkpt lat="45.41491769675677" lon="11.499241522137178"><ele>243.66666666666669</ele><time>2026-04-12T09:26:31Z</time></trkpt><trkpt lat="45.41496481571393" lon="11.499126538599487"><ele>239.83333333333334</ele><time>2026-04-12T09:26:39Z</time></trkpt><trkpt lat="45.41502613616322" lon="11.49909839776208"><ele>236.0</ele><time>2026-04-12T09:26:40Z</time></trkpt><trkpt lat="45.41514931545173" lon="11.499102714471592"><ele>236.00000000000003</ele><time>2026-04-12T09:26:42Z</time></trkpt><trkpt lat="45.415218609912486" lon="11.499144637290913"><ele>236.0</ele><time>2026-04-12T09:26:43Z</time></trkpt><trkpt lat="45.41528745266929" lon="11.499172367788743"><ele>236.0</ele><time>2026-04-12T09:26:44Z</time></trkpt><trkpt lat="45.41536172662906" lon="11.499194698475264"><ele>236.0</ele><time>2026-04-12T09:26:45Z</time></trkpt><trkpt lat="45.4154456243525" lon="11.499152854210566"><ele>236.00000000000003</ele><time>2026-04-12T09:26:46Z</time></trkpt><trkpt lat="45.415540032443126" lon="11.499118893668665"><ele>236.0</ele><time>2026-04-12T09:26:47Z</time></trkpt><trkpt lat="45.415607790365044" lon="11.499093347007271"><ele>236.0</ele><time>2026-04-12T09:26:48Z</time></trkpt><trkpt lat="45.41566111354537" lon="11.49903214726777"><ele>236.00000000000003</ele><time>2026-04-12T09:26:49Z</time></trkpt><trkpt lat="45.41571404950014" lon="11.498876113361009"><ele>236.00000000000003</ele><time>2026-04-12T09:26:51Z</time></trkpt><trkpt lat="45.41568859481471" lon="11.498719052819197"><ele>236.0</ele><time>2026-04-12T09:26:53Z</time></trkpt><trkpt lat="45.41564870972918" lon="11.49856296164226"><ele>236.0</ele><time>2026-04-12T09:26:54Z</time></trkpt><trkpt lat="45.41564928329658" lon="11.498413489337944"><ele>236.00000000000003</ele><time>2026-04-12T09:26:55Z</time></trkpt><trkpt lat="45.41564878196917" lon="11.498274744210175"><ele>236.0</ele><time>2026-04-12T09:26:56Z</time></trkpt><trkpt lat="45.41564238672553" lon="11.498156324629134"><ele>236.0</ele><time>2026-04-12T09:26:57Z</time></trkpt><trkpt lat="45.415628169403405" lon="11.498043214764154"><ele>236.0</ele><time>2026-04-12T09:26:58Z</time></trkpt><trkpt lat="45.41560710728491" lon="11.497936203019911"><ele>236.00000000000003</ele><time>2026-04-12T09:26:59Z</time></trkpt><trkpt lat="45.41557114486419" lon="11.497856445833186"><ele>236.0</ele><time>2026-04-12T09:27:00Z</time></trkpt><trkpt lat="45.41553359244001" lon="11.49776886920021"><ele>235.20000000000002</ele><time>2026-04-12T09:27:01Z</time></trkpt><trkpt lat="45.41548758120516" lon="11.497661360789273"><ele>234.40000000000003</ele><time>2026-04-12T09:27:02Z</time></trkpt><trkpt lat="45.41543666184784" lon="11.497542790421823"><ele>233.6</ele><time>2026-04-12T09:27:03Z</time></trkpt><trkpt lat="45.41537523843814" lon="11.497438651160818"><ele>232.8</ele><time>2026-04-12T09:27:04Z</time></trkpt><trkpt lat="45.415320731423385" lon="11.497321501111667"><ele>232.0</ele><time>2026-04-12T09:27:05Z</time></trkpt><trkpt lat="45.415267895824925" lon="11.497193191920479"><ele>227.49999999999997</ele><time>2026-04-12T09:27:06Z</time></trkpt><trkpt lat="45.41521801108982" lon="11.49708495411572"><ele>223.0</ele><time>2026-04-12T09:27:07Z</time></trkpt><trkpt lat="45.41515722371371" lon="11.497000285063045"><ele>218.5</ele><time>2026-04-12T09:27:08Z</time></trkpt><trkpt lat="45.41511597479751" lon="11.496919654563305"><ele>214.0</ele><time>2026-04-12T09:27:09Z</time></trkpt><trkpt lat="45.41505837250781" lon="11.496863383303111"><ele>209.49999999999997</ele><time>2026-04-12T09:27:10Z</time></trkpt><trkpt lat="45.414985593790256" lon="11.49682721880814"><ele>205.0</ele><time>2026-04-12T09:27:11Z</time></trkpt><trkpt lat="45.41488195787532" lon="11.496806408451125"><ele>204.99999999999997</ele><time>2026-04-12T09:27:13Z</time></trkpt><trkpt lat="45.41480113680121" lon="11.496827392785587"><ele>205.0</ele><time>2026-04-12T09:27:15Z</time></trkpt><trkpt lat="45.414713523736616" lon="11.496792558672603"><ele>205.0</ele><time>2026-04-12T09:27:17Z</time></trkpt><trkpt lat="45.41468949908491" lon="11.49670344522234"><ele>205.0</ele><time>2026-04-12T09:27:18Z</time></trkpt><trkpt lat="45.414689158495925" lon="11.496599223316885"><ele>204.99999999999997</ele><time>2026-04-12T09:27:19Z</time></trkpt><trkpt lat="45.414702597385286" lon="11.496499721026353"><ele>205.0</ele><time>2026-04-12T09:27:20Z</time></trkpt><trkpt lat="45.41470499832284" lon="11.496379031656025"><ele>204.99999999999997</ele><time>2026-04-12T09:27:21Z</time></trkpt><trkpt lat="45.4146916679264" lon="11.496261720211276"><ele>205.0</ele><time>2026-04-12T09:27:22Z</time></trkpt><trkpt lat="45.41466975145691" lon="11.496138564404793"><ele>205.0</ele><time>2026-04-12T09:27:23Z</time></trkpt><trkpt lat="45.414639761258016" lon="11.49601052247438"><ele>205.0</ele><time>2026-04-12T09:27:24Z</time></trkpt><trkpt lat="45.4146169589684" lon="11.495879914110757"><ele>204.99999999999997</ele><time>2026-04-12T09:27:25Z</time></trkpt><trkpt lat="45.414609788124025" lon="11.495765067278613"><ele>205.0</ele><time>2026-04-12T09:27:26Z</time></trkpt><trkpt lat="45.4146137517789" lon="11.495673053734889"><ele>201.66666666666666</ele><time>2026-04-12T09:27:27Z</time></trkpt><trkpt lat="45.41456180908016" lon="11.495546110869704"><ele>198.33333333333331</ele><time>2026-04-12T09:27:29Z</time></trkpt><trkpt lat="45.41448599010523" lon="11.495531485305753"><ele>195.0</ele><time>2026-04-12T09:27:30Z</time></trkpt><trkpt lat="45.414398502346685" lon="11.495538620273983"><ele>191.66666666666666</ele><time>2026-04-12T09:27:31Z</time></trkpt><trkpt lat="45.41432121745346" lon="11.49550915974947"><ele>188.33333333333331</ele><time>2026-04-12T09:27:32Z</time></trkpt><trkpt lat="45.414249166289366" lon="11.495445038277836"><ele>185.0</ele><time>2026-04-12T09:27:33Z</time></trkpt><trkpt lat="45.41419022101703" lon="11.495344644369785"><ele>184.8</ele><time>2026-04-12T09:27:34Z</time></trkpt><trkpt lat="45.414141072627466" lon="11.495249284499144"><ele>184.6</ele><time>2026-04-12T09:27:35Z</time></trkpt><trkpt lat="45.414085535432434" lon="11.495147281821644"><ele>184.39999999999998</ele><time>2026-04-12T09:27:36Z</time></trkpt><trkpt lat="45.414023462120284" lon="11.495044296371281"><ele>184.2</ele><time>2026-04-12T09:27:37Z</time></trkpt><trkpt lat="45.413965096850205" lon="11.494927587604584"><ele>184.0</ele><time>2026-04-12T09:27:38Z</time></trkpt><trkpt lat="45.41390890066786" lon="11.494815866483279"><ele>184.0</ele><time>2026-04-12T09:27:39Z</time></trkpt><trkpt lat="45.413854845307995" lon="11.494719226670119"><ele>184.0</ele><time>2026-04-12T09:27:40Z</time></trkpt><trkpt lat="45.41379907136939" lon="11.494624843050165"><ele>184.0</ele><time>2026-04-12T09:27:41Z</time></trkpt><trkpt lat="45.413738560170856" lon="11.49453008804691"><ele>184.0</ele><time>2026-04-12T09:27:42Z</time></trkpt><trkpt lat="45.4136751675113" lon="11.494422851003545"><ele>184.0</ele><time>2026-04-12T09:27:43Z</time></trkpt><trkpt lat="45.41361676242823" lon="11.49429802152417"><ele>180.0</ele><time>2026-04-12T09:27:44Z</time></trkpt><trkpt lat="45.41356262081713" lon="11.494161053220118"><ele>176.0</ele><time>2026-04-12T09:27:45Z</time></trkpt><trkpt lat="45.413497226290396" lon="11.494013894421938"><ele>172.0</ele><time>2026-04-12T09:27:46Z</time></trkpt><trkpt lat="45.41342173757551" lon="11.493863083198123"><ele>168.0</ele><time>2026-04-12T09:27:47Z</time></trkpt><trkpt lat="45.41334509022801" lon="11.493722564540606"><ele>167.2</ele><time>2026-04-12T09:27:48Z</time></trkpt><trkpt lat="45.413273129120675" lon="11.493591499067083"><ele>166.4</ele><time>2026-04-12T09:27:49Z</time></trkpt><trkpt lat="45.41320163666671" lon="11.49347254728238"><ele>165.6</ele><time>2026-04-12T09:27:50Z</time></trkpt><trkpt lat="45.41313079055473" lon="11.493376710017175"><ele>164.79999999999998</ele><time>2026-04-12T09:27:51Z</time></trkpt><trkpt lat="45.41305051892466" lon="11.49331453090437"><ele>164.0</ele><time>2026-04-12T09:27:52Z</time></trkpt><trkpt lat="45.41296190562347" lon="11.493280593465515"><ele>163.33333333333331</ele><time>2026-04-12T09:27:53Z</time></trkpt><trkpt lat="45.4128679905823" lon="11.493276656292064"><ele>162.66666666666666</ele><time>2026-04-12T09:27:54Z</time></trkpt><trkpt lat="45.41277760272493" lon="11.493256184602437"><ele>162.0</ele><time>2026-04-12T09:27:55Z</time></trkpt><trkpt lat="45.41268944386081" lon="11.493221136738454"><ele>161.33333333333334</ele><time>2026-04-12T09:27:56Z</time></trkpt><trkpt lat="45.41260717729293" lon="11.493237325271432"><ele>160.66666666666669</ele><time>2026-04-12T09:27:57Z</time></trkpt><trkpt lat="45.41253851576306" lon="11.493292433190799"><ele>160.0</ele><time>2026-04-12T09:27:58Z</time></trkpt><trkpt lat="45.41244190179442" lon="11.4933147346656"><ele>160.0</ele><time>2026-04-12T09:28:00Z</time></trkpt><trkpt lat="45.412364667469284" lon="11.493342000421602"><ele>160.0</ele><time>2026-04-12T09:28:02Z</time></trkpt><trkpt lat="45.412335706227985" lon="11.493161335746782"><ele>160.0</ele><time>2026-04-12T09:28:04Z</time></trkpt><trkpt lat="45.41236773575699" lon="11.493039475636971"><ele>160.0</ele><time>2026-04-12T09:28:05Z</time></trkpt><trkpt lat="45.41237502689542" lon="11.492904768225936"><ele>160.0</ele><time>2026-04-12T09:28:06Z</time></trkpt><trkpt lat="45.412367450089924" lon="11.492761733900087"><ele>159.85714285714286</ele><time>2026-04-12T09:28:07Z</time></trkpt><trkpt lat="45.41237288665252" lon="11.49264078783981"><ele>159.71428571428572</ele><time>2026-04-12T09:28:08Z</time></trkpt><trkpt lat="45.412396478421655" lon="11.492534221271136"><ele>159.57142857142856</ele><time>2026-04-12T09:28:09Z</time></trkpt><trkpt lat="45.41241695860985" lon="11.492438772991601"><ele>159.42857142857144</ele><time>2026-04-12T09:28:10Z</time></trkpt><trkpt lat="45.412424873159324" lon="11.49234486498858"><ele>159.2857142857143</ele><time>2026-04-12T09:28:11Z</time></trkpt><trkpt lat="45.41243006547687" lon="11.492243483597624"><ele>159.14285714285714</ele><time>2026-04-12T09:28:12Z</time></trkpt><trkpt lat="45.412448865406745" lon="11.492145288455902"><ele>159.0</ele><time>2026-04-12T09:28:13Z</time></trkpt><trkpt lat="45.412441070150166" lon="11.491966474868317"><ele>159.16666666666666</ele><time>2026-04-12T09:28:15Z</time></trkpt><trkpt lat="45.412378066959725" lon="11.491856400522304"><ele>159.33333333333334</ele><time>2026-04-12T09:28:16Z</time></trkpt><trkpt lat="45.412305504128014" lon="11.491778257781311"><ele>159.5</ele><time>2026-04-12T09:28:17Z</time></trkpt><trkpt lat="45.41223136011518" lon="11.491736239206896"><ele>159.66666666666669</ele><time>2026-04-12T09:28:18Z</time></trkpt><trkpt lat="45.41218132441204" lon="11.491674472463082"><ele>159.83333333333334</ele><time>2026-04-12T09:28:19Z</time></trkpt><trkpt lat="45.4121354044791" lon="11.49158585610579"><ele>160.0</ele><time>2026-04-12T09:28:20Z</time></trkpt><trkpt lat="45.41208243939355" lon="11.491485372610635"><ele>160.0</ele><time>2026-04-12T09:28:21Z</time></trkpt><trkpt lat="45.41203030634584" lon="11.49138191174865"><ele>160.0</ele><time>2026-04-12T09:28:22Z</time></trkpt><trkpt lat="45.411987347017764" lon="11.491263573326542"><ele>160.0</ele><time>2026-04-12T09:28:23Z</time></trkpt><trkpt lat="45.411936423688864" lon="11.491140898980406"><ele>160.0</ele><time>2026-04-12T09:28:24Z</time></trkpt><trkpt lat="45.41188941548804" lon="11.491017257171004"><ele>160.0</ele><time>2026-04-12T09:28:25Z</time></trkpt><trkpt lat="45.41185367257698" lon="11.490903111737866"><ele>160.5</ele><time>2026-04-12T09:28:26Z</time></trkpt><trkpt lat="45.411828251194414" lon="11.490801243714174"><ele>161.0</ele><time>2026-04-12T09:28:27Z</time></trkpt><trkpt lat="45.411796284364605" lon="11.49071711723289"><ele>161.5</ele><time>2026-04-12T09:28:28Z</time></trkpt><trkpt lat="45.41175542707705" lon="11.490629650787119"><ele>162.0</ele><time>2026-04-12T09:28:29Z</time></trkpt><trkpt lat="45.41170076127212" lon="11.490529435380358"><ele>162.5</ele><time>2026-04-12T09:28:30Z</time></trkpt><trkpt lat="45.411655656740216" lon="11.490405817279456"><ele>163.0</ele><time>2026-04-12T09:28:31Z</time></trkpt><trkpt lat="45.41165679187962" lon="11.490252897838118"><ele>163.60000000000002</ele><time>2026-04-12T09:28:32Z</time></trkpt><trkpt lat="45.411612613192936" lon="11.490118207926882"><ele>164.20000000000002</ele><time>2026-04-12T09:28:33Z</time></trkpt><trkpt lat="45.41159833817652" lon="11.489976365578759"><ele>164.8</ele><time>2026-04-12T09:28:34Z</time></trkpt><trkpt lat="45.41157940607926" lon="11.489831421306913"><ele>165.4</ele><time>2026-04-12T09:28:35Z</time></trkpt><trkpt lat="45.411546348517525" lon="11.489691665342466"><ele>166.0</ele><time>2026-04-12T09:28:36Z</time></trkpt><trkpt lat="45.41151226053863" lon="11.489553104161716"><ele>168.4</ele><time>2026-04-12T09:28:37Z</time></trkpt><trkpt lat="45.4114913875111" lon="11.489428266745508"><ele>170.8</ele><time>2026-04-12T09:28:38Z</time></trkpt><trkpt lat="45.41146615868751" lon="11.489289655841262"><ele>173.20000000000002</ele><time>2026-04-12T09:28:39Z</time></trkpt><trkpt lat="45.41142892125957" lon="11.48916859042734"><ele>175.60000000000002</ele><time>2026-04-12T09:28:40Z</time></trkpt><trkpt lat="45.41137225788858" lon="11.489064715232443"><ele>178.0</ele><time>2026-04-12T09:28:41Z</time></trkpt><trkpt lat="45.41132185857077" lon="11.48895527162725"><ele>178.5</ele><time>2026-04-12T09:28:42Z</time></trkpt><trkpt lat="45.41126597057717" lon="11.488838302764794"><ele>179.0</ele><time>2026-04-12T09:28:43Z</time></trkpt><trkpt lat="45.41121702116804" lon="11.488730637476673"><ele>179.5</ele><time>2026-04-12T09:28:44Z</time></trkpt><trkpt lat="45.41118262081134" lon="11.488650756715051"><ele>180.0</ele><time>2026-04-12T09:28:45Z</time></trkpt><trkpt lat="45.4111086160734" lon="11.488589365257422"><ele>180.5</ele><time>2026-04-12T09:28:46Z</time></trkpt><trkpt lat="45.41101509923074" lon="11.488532920732561"><ele>181.0</ele><time>2026-04-12T09:28:47Z</time></trkpt><trkpt lat="45.410907483988595" lon="11.48847151617679"><ele>182.83333333333334</ele><time>2026-04-12T09:28:48Z</time></trkpt><trkpt lat="45.41081964999629" lon="11.48840640743515"><ele>184.66666666666669</ele><time>2026-04-12T09:28:49Z</time></trkpt><trkpt lat="45.41076380556431" lon="11.488342406865506"><ele>186.5</ele><time>2026-04-12T09:28:50Z</time></trkpt><trkpt lat="45.410690010104375" lon="11.488265854026137"><ele>188.33333333333334</ele><time>2026-04-12T09:28:51Z</time></trkpt><trkpt lat="45.41061393363766" lon="11.488193665572698"><ele>190.16666666666666</ele><time>2026-04-12T09:28:52Z</time></trkpt><trkpt lat="45.410559031752044" lon="11.488126102177665"><ele>192.0</ele><time>2026-04-12T09:28:53Z</time></trkpt><trkpt lat="45.41048244789656" lon="11.488027269269073"><ele>194.66666666666666</ele><time>2026-04-12T09:28:56Z</time></trkpt><trkpt lat="45.41039977667507" lon="11.487945496342364"><ele>197.33333333333331</ele><time>2026-04-12T09:28:58Z</time></trkpt><trkpt lat="45.410351731279306" lon="11.487876026025377"><ele>200.0</ele><time>2026-04-12T09:29:00Z</time></trkpt><trkpt lat="45.41032077290207" lon="11.487762412782647"><ele>202.66666666666666</ele><time>2026-04-12T09:29:03Z</time></trkpt><trkpt lat="45.4103223936624" lon="11.487643513323212"><ele>205.33333333333331</ele><time>2026-04-12T09:29:05Z</time></trkpt><trkpt lat="45.41031390437012" lon="11.487523045534697"><ele>208.0</ele><time>2026-04-12T09:29:07Z</time></trkpt><trkpt lat="45.41030558614265" lon="11.487406075761426"><ele>211.0</ele><time>2026-04-12T09:29:09Z</time></trkpt><trkpt lat="45.410325846231125" lon="11.48726138094202"><ele>214.0</ele><time>2026-04-12T09:29:11Z</time></trkpt><trkpt lat="45.41036980187641" lon="11.487090104254696"><ele>217.0</ele><time>2026-04-12T09:29:13Z</time></trkpt><trkpt lat="45.410419985393446" lon="11.486970308203372"><ele>220.0</ele><time>2026-04-12T09:29:15Z</time></trkpt><trkpt lat="45.41044905486203" lon="11.486798018588633"><ele>221.6</ele><time>2026-04-12T09:29:17Z</time></trkpt><trkpt lat="45.41043272023338" lon="11.486676973490608"><ele>223.2</ele><time>2026-04-12T09:29:18Z</time></trkpt><trkpt lat="45.41038460875412" lon="11.486549451088075"><ele>224.8</ele><time>2026-04-12T09:29:20Z</time></trkpt><trkpt lat="45.410326377268966" lon="11.486436171171686"><ele>226.4</ele><time>2026-04-12T09:29:22Z</time></trkpt><trkpt lat="45.41021713411743" lon="11.48641591798086"><ele>228.0</ele><time>2026-04-12T09:29:24Z</time></trkpt><trkpt lat="45.410112611558034" lon="11.48645189144351"><ele>228.0</ele><time>2026-04-12T09:29:26Z</time></trkpt><trkpt lat="45.41005145969009" lon="11.486492832800712"><ele>228.0</ele><time>2026-04-12T09:29:27Z</time></trkpt><trkpt lat="45.40998317411624" lon="11.486532593393422"><ele>228.0</ele><time>2026-04-12T09:29:28Z</time></trkpt><trkpt lat="45.40985858879838" lon="11.486589761637848"><ele>228.0</ele><time>2026-04-12T09:29:30Z</time></trkpt><trkpt lat="45.40974552831904" lon="11.486614598968885"><ele>228.0</ele><time>2026-04-12T09:29:32Z</time></trkpt><trkpt lat="45.40967582903864" lon="11.48662203924142"><ele>230.16666666666666</ele><time>2026-04-12T09:29:33Z</time></trkpt><trkpt lat="45.40959558391042" lon="11.486644955414473"><ele>232.33333333333331</ele><time>2026-04-12T09:29:34Z</time></trkpt><trkpt lat="45.40951497536879" lon="11.486662018779674"><ele>234.5</ele><time>2026-04-12T09:29:35Z</time></trkpt><trkpt lat="45.40943356225283" lon="11.486671979221724"><ele>236.66666666666666</ele><time>2026-04-12T09:29:36Z</time></trkpt><trkpt lat="45.40936984581246" lon="11.48667482924193"><ele>238.83333333333331</ele><time>2026-04-12T09:29:37Z</time></trkpt><trkpt lat="45.40930243362359" lon="11.48668237645063"><ele>241.0</ele><time>2026-04-12T09:29:38Z</time></trkpt><trkpt lat="45.40922005153049" lon="11.486679096155859"><ele>240.99999999999997</ele><time>2026-04-12T09:29:39Z</time></trkpt><trkpt lat="45.4091275282346" lon="11.486668752734447"><ele>241.0</ele><time>2026-04-12T09:29:40Z</time></trkpt><trkpt lat="45.40904009737825" lon="11.48664289848421"><ele>241.0</ele><time>2026-04-12T09:29:41Z</time></trkpt><trkpt lat="45.408957864762066" lon="11.486596423766049"><ele>241.0</ele><time>2026-04-12T09:29:42Z</time></trkpt><trkpt lat="45.408884772724136" lon="11.486526971229537"><ele>240.99999999999997</ele><time>2026-04-12T09:29:43Z</time></trkpt><trkpt lat="45.40881940607915" lon="11.486449596722343"><ele>241.0</ele><time>2026-04-12T09:29:44Z</time></trkpt><trkpt lat="45.40876153652555" lon="11.486374753194191"><ele>244.20000000000002</ele><time>2026-04-12T09:29:45Z</time></trkpt><trkpt lat="45.408688681731064" lon="11.486245362014122"><ele>247.40000000000003</ele><time>2026-04-12T09:29:47Z</time></trkpt><trkpt lat="45.408650229040326" lon="11.486156797245485"><ele>250.6</ele><time>2026-04-12T09:29:48Z</time></trkpt><trkpt lat="45.4086075462031" lon="11.48605073281798"><ele>253.8</ele><time>2026-04-12T09:29:49Z</time></trkpt><trkpt lat="45.40854283172684" lon="11.485925163429377"><ele>257.0</ele><time>2026-04-12T09:29:51Z</time></trkpt><trkpt lat="45.40849805793343" lon="11.485850892818952"><ele>257.0</ele><time>2026-04-12T09:29:53Z</time></trkpt><trkpt lat="45.40838658821175" lon="11.485861511009837"><ele>257.0</ele><time>2026-04-12T09:29:56Z</time></trkpt><trkpt lat="45.40828886936813" lon="11.48593314207502"><ele>257.0</ele><time>2026-04-12T09:29:58Z</time></trkpt><trkpt lat="45.4081850147967" lon="11.485926448924845"><ele>257.0</ele><time>2026-04-12T09:30:00Z</time></trkpt><trkpt lat="45.408048907354456" lon="11.485928774164703"><ele>257.6</ele><time>2026-04-12T09:30:02Z</time></trkpt><trkpt lat="45.407969597247835" lon="11.485910477719546"><ele>258.2</ele><time>2026-04-12T09:30:03Z</time></trkpt><trkpt lat="45.40786061097145" lon="11.485914695801952"><ele>258.8</ele><time>2026-04-12T09:30:04Z</time></trkpt><trkpt lat="45.40775401057861" lon="11.485973117668753"><ele>259.4</ele><time>2026-04-12T09:30:05Z</time></trkpt><trkpt lat="45.4076618998131" lon="11.485994767963499"><ele>260.0</ele><time>2026-04-12T09:30:06Z</time></trkpt><trkpt lat="45.40757059923901" lon="11.486052495290796"><ele>260.0</ele><time>2026-04-12T09:30:07Z</time></trkpt><trkpt lat="45.40746157484371" lon="11.48610098059515"><ele>260.0</ele><time>2026-04-12T09:30:08Z</time></trkpt><trkpt lat="45.40736381121267" lon="11.486161672661595"><ele>260.0</ele><time>2026-04-12T09:30:09Z</time></trkpt><trkpt lat="45.40727467008877" lon="11.486229206424534"><ele>260.0</ele><time>2026-04-12T09:30:10Z</time></trkpt><trkpt lat="45.40719175314742" lon="11.486292830546745"><ele>260.0</ele><time>2026-04-12T09:30:11Z</time></trkpt><trkpt lat="45.40711477543753" lon="11.486353958317189"><ele>259.8</ele><time>2026-04-12T09:30:12Z</time></trkpt><trkpt lat="45.40703474180988" lon="11.48640653217021"><ele>259.6</ele><time>2026-04-12T09:30:13Z</time></trkpt><trkpt lat="45.406966935030624" lon="11.486453628815513"><ele>259.4</ele><time>2026-04-12T09:30:14Z</time></trkpt><trkpt lat="45.406904774463825" lon="11.486531364207979"><ele>259.2</ele><time>2026-04-12T09:30:16Z</time></trkpt><trkpt lat="45.406937662228756" lon="11.486714778392766"><ele>259.0</ele><time>2026-04-12T09:30:18Z</time></trkpt><trkpt lat="45.40698454580877" lon="11.486818662840456"><ele>259.0</ele><time>2026-04-12T09:30:19Z</time></trkpt><trkpt lat="45.40701985504751" lon="11.486931114148911"><ele>259.0</ele><time>2026-04-12T09:30:20Z</time></trkpt><trkpt lat="45.40705321344637" lon="11.48706430356962"><ele>259.0</ele><time>2026-04-12T09:30:21Z</time></trkpt><trkpt lat="45.40707655313402" lon="11.487165453527073"><ele>259.0</ele><time>2026-04-12T09:30:22Z</time></trkpt><trkpt lat="45.40709760552721" lon="11.487278007992195"><ele>259.0</ele><time>2026-04-12T09:30:24Z</time></trkpt><trkpt lat="45.407010652866525" lon="11.487355346275544"><ele>259.0</ele><time>2026-04-12T09:30:26Z</time></trkpt><trkpt lat="45.40692910002979" lon="11.487408924248296"><ele>259.4</ele><time>2026-04-12T09:30:27Z</time></trkpt><trkpt lat="45.40684341014269" lon="11.48747599092322"><ele>259.79999999999995</ele><time>2026-04-12T09:30:28Z</time></trkpt><trkpt lat="45.406766396861755" lon="11.487546524556116"><ele>260.20000000000005</ele><time>2026-04-12T09:30:29Z</time></trkpt><trkpt lat="45.40669162473554" lon="11.487588354923"><ele>260.6</ele><time>2026-04-12T09:30:30Z</time></trkpt><trkpt lat="45.406616840457374" lon="11.48761653847205"><ele>261.0</ele><time>2026-04-12T09:30:31Z</time></trkpt><trkpt lat="45.406498588785006" lon="11.487611712732448"><ele>261.0</ele><time>2026-04-12T09:30:32Z</time></trkpt><trkpt lat="45.406390801462614" lon="11.487594875411018"><ele>261.0</ele><time>2026-04-12T09:30:33Z</time></trkpt><trkpt lat="45.406294334384945" lon="11.487572746067595"><ele>261.0</ele><time>2026-04-12T09:30:34Z</time></trkpt><trkpt lat="45.406225036920006" lon="11.487545845678287"><ele>261.0</ele><time>2026-04-12T09:30:35Z</time></trkpt><trkpt lat="45.40615134851461" lon="11.487510936621575"><ele>261.0</ele><time>2026-04-12T09:30:36Z</time></trkpt><trkpt lat="45.406095094519806" lon="11.487447369547208"><ele>261.0</ele><time>2026-04-12T09:30:37Z</time></trkpt><trkpt lat="45.40604238469895" lon="11.487369594453577"><ele>260.8333333333333</ele><time>2026-04-12T09:30:38Z</time></trkpt><trkpt lat="45.405978159603066" lon="11.4872984512264"><ele>260.6666666666667</ele><time>2026-04-12T09:30:39Z</time></trkpt><trkpt lat="45.405924155020195" lon="11.487250127797688"><ele>260.5</ele><time>2026-04-12T09:30:40Z</time></trkpt><trkpt lat="45.40585225805118" lon="11.487230712921466"><ele>260.33333333333337</ele><time>2026-04-12T09:30:41Z</time></trkpt><trkpt lat="45.40576703381362" lon="11.4872333689331"><ele>260.1666666666667</ele><time>2026-04-12T09:30:42Z</time></trkpt><trkpt lat="45.40569234196668" lon="11.487217067622062"><ele>260.0</ele><time>2026-04-12T09:30:43Z</time></trkpt><trkpt lat="45.405621843564724" lon="11.487172837816344"><ele>260.0</ele><time>2026-04-12T09:30:44Z</time></trkpt><trkpt lat="45.40555209763035" lon="11.487112088360776"><ele>260.0</ele><time>2026-04-12T09:30:45Z</time></trkpt><trkpt lat="45.405485802684886" lon="11.48704169227124"><ele>260.0</ele><time>2026-04-12T09:30:46Z</time></trkpt><trkpt lat="45.40540519265153" lon="11.487029897170437"><ele>260.0</ele><time>2026-04-12T09:30:47Z</time></trkpt><trkpt lat="45.40529791983813" lon="11.487084760839599"><ele>260.0</ele><time>2026-04-12T09:30:48Z</time></trkpt><trkpt lat="45.405152812214276" lon="11.487103278472272"><ele>258.4</ele><time>2026-04-12T09:30:49Z</time></trkpt><trkpt lat="45.40499124742066" lon="11.487085490963402"><ele>256.8</ele><time>2026-04-12T09:30:50Z</time></trkpt><trkpt lat="45.40488505585083" lon="11.487066040977144"><ele>255.2</ele><time>2026-04-12T09:30:51Z</time></trkpt><trkpt lat="45.404800649385905" lon="11.487046515417237"><ele>253.6</ele><time>2026-04-12T09:30:52Z</time></trkpt><trkpt lat="45.40472290163924" lon="11.487052379175392"><ele>252.0</ele><time>2026-04-12T09:30:53Z</time></trkpt><trkpt lat="45.40465743732787" lon="11.487090070455151"><ele>251.83333333333334</ele><time>2026-04-12T09:30:54Z</time></trkpt><trkpt lat="45.40459462301972" lon="11.487125074844798"><ele>251.66666666666669</ele><time>2026-04-12T09:30:55Z</time></trkpt><trkpt lat="45.40448887628351" lon="11.487147909702959"><ele>251.5</ele><time>2026-04-12T09:30:57Z</time></trkpt><trkpt lat="45.404426698835174" lon="11.487180318250184"><ele>251.33333333333334</ele><time>2026-04-12T09:30:58Z</time></trkpt><trkpt lat="45.40435881472484" lon="11.48720502977214"><ele>251.16666666666669</ele><time>2026-04-12T09:30:59Z</time></trkpt><trkpt lat="45.40427859483349" lon="11.48721810226401"><ele>251.0</ele><time>2026-04-12T09:31:00Z</time></trkpt><trkpt lat="45.404201959550385" lon="11.487228655155985"><ele>251.00000000000003</ele><time>2026-04-12T09:31:01Z</time></trkpt><trkpt lat="45.40412728719891" lon="11.487219016113771"><ele>251.0</ele><time>2026-04-12T09:31:02Z</time></trkpt><trkpt lat="45.40404018193415" lon="11.487227393369475"><ele>251.0</ele><time>2026-04-12T09:31:04Z</time></trkpt><trkpt lat="45.40399182876495" lon="11.487304251666771"><ele>251.0</ele><time>2026-04-12T09:31:05Z</time></trkpt><trkpt lat="45.403954864177905" lon="11.487402302793619"><ele>251.00000000000003</ele><time>2026-04-12T09:31:06Z</time></trkpt><trkpt lat="45.40390500165004" lon="11.48749716943707"><ele>251.0</ele><time>2026-04-12T09:31:07Z</time></trkpt><trkpt lat="45.40384758563262" lon="11.487560435593807"><ele>249.16666666666669</ele><time>2026-04-12T09:31:08Z</time></trkpt><trkpt lat="45.40378612036688" lon="11.487622686119353"><ele>247.33333333333334</ele><time>2026-04-12T09:31:09Z</time></trkpt><trkpt lat="45.40373736713783" lon="11.487698246448742"><ele>245.5</ele><time>2026-04-12T09:31:10Z</time></trkpt><trkpt lat="45.40371472412491" lon="11.487789895727145"><ele>243.66666666666669</ele><time>2026-04-12T09:31:12Z</time></trkpt><trkpt lat="45.40369672245789" lon="11.487884261796863"><ele>241.83333333333334</ele><time>2026-04-12T09:31:14Z</time></trkpt><trkpt lat="45.40367482758962" lon="11.488011164671608"><ele>240.0</ele><time>2026-04-12T09:31:17Z</time></trkpt><trkpt lat="45.403663323955016" lon="11.488161496296316"><ele>240.0</ele><time>2026-04-12T09:31:19Z</time></trkpt><trkpt lat="45.40365220260389" lon="11.488251765662893"><ele>240.0</ele><time>2026-04-12T09:31:20Z</time></trkpt><trkpt lat="45.403626999896" lon="11.488418145958786"><ele>240.0</ele><time>2026-04-12T09:31:22Z</time></trkpt><trkpt lat="45.403648318899265" lon="11.488504551080267"><ele>240.0</ele><time>2026-04-12T09:31:23Z</time></trkpt><trkpt lat="45.403680807460226" lon="11.488653178494882"><ele>240.0</ele><time>2026-04-12T09:31:25Z</time></trkpt><trkpt lat="45.4036012785144" lon="11.48875736187155"><ele>240.0</ele><time>2026-04-12T09:31:27Z</time></trkpt><trkpt lat="45.40353420519978" lon="11.488764609917462"><ele>240.0</ele><time>2026-04-12T09:31:28Z</time></trkpt><trkpt lat="45.40342993287892" lon="11.488748335223084"><ele>240.0</ele><time>2026-04-12T09:31:29Z</time></trkpt><trkpt lat="45.40328518964911" lon="11.4887313803888"><ele>240.0</ele><time>2026-04-12T09:31:30Z</time></trkpt><trkpt lat="45.40315822767842" lon="11.48873822892724"><ele>240.0</ele><time>2026-04-12T09:31:31Z</time></trkpt><trkpt lat="45.40309065616533" lon="11.488802546061441"><ele>239.66666666666666</ele><time>2026-04-12T09:31:32Z</time></trkpt><trkpt lat="45.40304299739689" lon="11.488879848602982"><ele>239.33333333333331</ele><time>2026-04-12T09:31:33Z</time></trkpt><trkpt lat="45.4029860222468" lon="11.488984472784962"><ele>239.0</ele><time>2026-04-12T09:31:34Z</time></trkpt><trkpt lat="45.40291728539152" lon="11.489062967358532"><ele>238.66666666666666</ele><time>2026-04-12T09:31:35Z</time></trkpt><trkpt lat="45.40284667326134" lon="11.489125838484021"><ele>238.33333333333331</ele><time>2026-04-12T09:31:36Z</time></trkpt><trkpt lat="45.40279487354808" lon="11.489203991814074"><ele>238.0</ele><time>2026-04-12T09:31:37Z</time></trkpt><trkpt lat="45.4027598243172" lon="11.489280926819015"><ele>237.2</ele><time>2026-04-12T09:31:38Z</time></trkpt><trkpt lat="45.40267558318118" lon="11.489381728409406"><ele>236.4</ele><time>2026-04-12T09:31:40Z</time></trkpt><trkpt lat="45.402617646221024" lon="11.48944409978715"><ele>235.59999999999997</ele><time>2026-04-12T09:31:42Z</time></trkpt><trkpt lat="45.402537019400995" lon="11.489541938094002"><ele>234.79999999999998</ele><time>2026-04-12T09:31:44Z</time></trkpt><trkpt lat="45.40245128039795" lon="11.489645166236883"><ele>234.0</ele><time>2026-04-12T09:31:46Z</time></trkpt><trkpt lat="45.40238096349516" lon="11.489693461389146"><ele>234.0</ele><time>2026-04-12T09:31:47Z</time></trkpt><trkpt lat="45.402311895451724" lon="11.489739710809422"><ele>234.0</ele><time>2026-04-12T09:31:48Z</time></trkpt><trkpt lat="45.402236884917876" lon="11.489780081180886"><ele>234.0</ele><time>2026-04-12T09:31:49Z</time></trkpt><trkpt lat="45.4021698327611" lon="11.489825012545529"><ele>234.0</ele><time>2026-04-12T09:31:50Z</time></trkpt><trkpt lat="45.40211014748992" lon="11.48985894893232"><ele>234.0</ele><time>2026-04-12T09:31:51Z</time></trkpt><trkpt lat="45.40203320056901" lon="11.489907766381899"><ele>234.0</ele><time>2026-04-12T09:31:52Z</time></trkpt><trkpt lat="45.401955307241536" lon="11.489963383775123"><ele>234.66666666666666</ele><time>2026-04-12T09:31:53Z</time></trkpt><trkpt lat="45.4018695810581" lon="11.490013091766603"><ele>235.33333333333331</ele><time>2026-04-12T09:31:54Z</time></trkpt><trkpt lat="45.401802493600265" lon="11.490068154579738"><ele>236.0</ele><time>2026-04-12T09:31:55Z</time></trkpt><trkpt lat="45.401742026787765" lon="11.490102316705997"><ele>236.66666666666666</ele><time>2026-04-12T09:31:59Z</time></trkpt><trkpt lat="45.40166185206872" lon="11.490002059756627"><ele>237.33333333333331</ele><time>2026-04-12T09:32:02Z</time></trkpt><trkpt lat="45.4015918119945" lon="11.489939184273688"><ele>238.0</ele><time>2026-04-12T09:32:04Z</time></trkpt><trkpt lat="45.401530961103816" lon="11.489870924466466"><ele>238.0</ele><time>2026-04-12T09:32:06Z</time></trkpt><trkpt lat="45.40148684549196" lon="11.489780030171922"><ele>238.0</ele><time>2026-04-12T09:32:08Z</time></trkpt><trkpt lat="45.40144240047683" lon="11.489682961828406"><ele>238.0</ele><time>2026-04-12T09:32:10Z</time></trkpt><trkpt lat="45.40153961209098" lon="11.48972187285514"><ele>238.0</ele><time>2026-04-12T09:34:52Z</time></trkpt><trkpt lat="45.401648219046905" lon="11.489753624232922"><ele>238.0</ele><time>2026-04-12T09:34:54Z</time></trkpt><trkpt lat="45.40176062890765" lon="11.489739851933992"><ele>238.0</ele><time>2026-04-12T09:34:56Z</time></trkpt><trkpt lat="45.4018402741324" lon="11.489695506146214"><ele>238.0</ele><time>2026-04-12T09:34:57Z</time></trkpt><trkpt lat="45.401924043143865" lon="11.489638077071096"><ele>238.0</ele><time>2026-04-12T09:34:58Z</time></trkpt><trkpt lat="45.40201608854775" lon="11.489578703707496"><ele>238.0</ele><time>2026-04-12T09:34:59Z</time></trkpt><trkpt lat="45.402118507554306" lon="11.48951974410074"><ele>238.0</ele><time>2026-04-12T09:35:00Z</time></trkpt><trkpt lat="45.40220082956998" lon="11.489475383191506"><ele>239.83333333333331</ele><time>2026-04-12T09:35:01Z</time></trkpt><trkpt lat="45.40227053981959" lon="11.489430329205057"><ele>241.66666666666666</ele><time>2026-04-12T09:35:02Z</time></trkpt><trkpt lat="45.402343683103574" lon="11.48937398780992"><ele>243.5</ele><time>2026-04-12T09:35:03Z</time></trkpt><trkpt lat="45.40241258761219" lon="11.489323150942374"><ele>245.33333333333331</ele><time>2026-04-12T09:35:04Z</time></trkpt><trkpt lat="45.40247673530631" lon="11.489270867755021"><ele>247.16666666666666</ele><time>2026-04-12T09:35:05Z</time></trkpt><trkpt lat="45.402547487412036" lon="11.489246155219915"><ele>249.0</ele><time>2026-04-12T09:35:07Z</time></trkpt><trkpt lat="45.40255373861843" lon="11.489345769267537"><ele>249.0</ele><time>2026-04-12T09:35:09Z</time></trkpt><trkpt lat="45.40260521558098" lon="11.489405859436719"><ele>248.99999999999997</ele><time>2026-04-12T09:35:11Z</time></trkpt><trkpt lat="45.4025716938322" lon="11.489505543629077"><ele>249.0</ele><time>2026-04-12T09:35:21Z</time></trkpt><trkpt lat="45.40251069812463" lon="11.489559347472232"><ele>249.0</ele><time>2026-04-12T09:35:22Z</time></trkpt><trkpt lat="45.40244773981129" lon="11.489626481411621"><ele>248.99999999999997</ele><time>2026-04-12T09:35:23Z</time></trkpt><trkpt lat="45.40238853935075" lon="11.489664953517199"><ele>249.0</ele><time>2026-04-12T09:35:24Z</time></trkpt><trkpt lat="45.40232563650853" lon="11.489714095868347"><ele>249.0</ele><time>2026-04-12T09:35:25Z</time></trkpt><trkpt lat="45.40226013394057" lon="11.489744090409621"><ele>247.16666666666666</ele><time>2026-04-12T09:35:26Z</time></trkpt><trkpt lat="45.402192103677066" lon="11.489805923786074"><ele>245.33333333333331</ele><time>2026-04-12T09:35:27Z</time></trkpt><trkpt lat="45.40212677650868" lon="11.489832953235096"><ele>243.5</ele><time>2026-04-12T09:35:28Z</time></trkpt><trkpt lat="45.402061083151146" lon="11.48988814998733"><ele>241.66666666666666</ele><time>2026-04-12T09:35:29Z</time></trkpt><trkpt lat="45.401984651413215" lon="11.489939898488027"><ele>239.83333333333331</ele><time>2026-04-12T09:35:30Z</time></trkpt><trkpt lat="45.401876019462996" lon="11.490014257877686"><ele>238.0</ele><time>2026-04-12T09:35:31Z</time></trkpt><trkpt lat="45.40179397001757" lon="11.490075290286045"><ele>237.99999999999997</ele><time>2026-04-12T09:35:32Z</time></trkpt><trkpt lat="45.40176394007666" lon="11.490182802013553"><ele>238.0</ele><time>2026-04-12T09:35:35Z</time></trkpt><trkpt lat="45.40179364556069" lon="11.490290412695778"><ele>238.0</ele><time>2026-04-12T09:35:37Z</time></trkpt><trkpt lat="45.40176150432343" lon="11.490388039365971"><ele>238.0</ele><time>2026-04-12T09:35:38Z</time></trkpt><trkpt lat="45.40170541609726" lon="11.490522601556224"><ele>237.99999999999997</ele><time>2026-04-12T09:35:39Z</time></trkpt><trkpt lat="45.40167998436017" lon="11.490632562764587"><ele>238.0</ele><time>2026-04-12T09:35:40Z</time></trkpt><trkpt lat="45.40163707339451" lon="11.490737582549563"><ele>236.0</ele><time>2026-04-12T09:35:41Z</time></trkpt><trkpt lat="45.40156508278315" lon="11.490831890311474"><ele>234.0</ele><time>2026-04-12T09:35:42Z</time></trkpt><trkpt lat="45.40149540756914" lon="11.490920230693217"><ele>232.0</ele><time>2026-04-12T09:35:43Z</time></trkpt><trkpt lat="45.401420936534244" lon="11.49099784785683"><ele>230.0</ele><time>2026-04-12T09:35:44Z</time></trkpt><trkpt lat="45.40135981115395" lon="11.491100821389665"><ele>228.0</ele><time>2026-04-12T09:35:45Z</time></trkpt><trkpt lat="45.40131219580546" lon="11.491186372031263"><ele>227.0</ele><time>2026-04-12T09:35:46Z</time></trkpt><trkpt lat="45.40125397725543" lon="11.491260343959038"><ele>226.0</ele><time>2026-04-12T09:35:47Z</time></trkpt><trkpt lat="45.40116435379836" lon="11.49131819475491"><ele>225.0</ele><time>2026-04-12T09:35:48Z</time></trkpt><trkpt lat="45.40108803479448" lon="11.491373261944009"><ele>224.0</ele><time>2026-04-12T09:35:49Z</time></trkpt><trkpt lat="45.401075550514456" lon="11.491461904630189"><ele>223.0</ele><time>2026-04-12T09:35:50Z</time></trkpt><trkpt lat="45.401085412658766" lon="11.49159141231685"><ele>222.0</ele><time>2026-04-12T09:35:51Z</time></trkpt><trkpt lat="45.40110317555362" lon="11.491698583621032"><ele>222.0</ele><time>2026-04-12T09:35:52Z</time></trkpt><trkpt lat="45.40107195116145" lon="11.491834955146198"><ele>222.0</ele><time>2026-04-12T09:35:53Z</time></trkpt><trkpt lat="45.401031254206615" lon="11.491979854411836"><ele>222.0</ele><time>2026-04-12T09:35:54Z</time></trkpt><trkpt lat="45.4010025679276" lon="11.492078527745646"><ele>222.0</ele><time>2026-04-12T09:35:55Z</time></trkpt><trkpt lat="45.40093619355556" lon="11.492175747077061"><ele>222.0</ele><time>2026-04-12T09:35:57Z</time></trkpt><trkpt lat="45.40086854353882" lon="11.492225051024004"><ele>220.83333333333334</ele><time>2026-04-12T09:35:58Z</time></trkpt><trkpt lat="45.400781881167674" lon="11.4922853725002"><ele>219.66666666666669</ele><time>2026-04-12T09:35:59Z</time></trkpt><trkpt lat="45.40076637021909" lon="11.492399219784371"><ele>218.5</ele><time>2026-04-12T09:36:01Z</time></trkpt><trkpt lat="45.40077628246184" lon="11.492492068376395"><ele>217.33333333333334</ele><time>2026-04-12T09:36:02Z</time></trkpt><trkpt lat="45.40076844122195" lon="11.492637266260909"><ele>216.16666666666669</ele><time>2026-04-12T09:36:04Z</time></trkpt><trkpt lat="45.400749397854725" lon="11.492752870403713"><ele>215.0</ele><time>2026-04-12T09:36:06Z</time></trkpt><trkpt lat="45.400702228631864" lon="11.492929648329437"><ele>215.16666666666669</ele><time>2026-04-12T09:36:08Z</time></trkpt><trkpt lat="45.40065727576277" lon="11.493038572238211"><ele>215.33333333333334</ele><time>2026-04-12T09:36:09Z</time></trkpt><trkpt lat="45.4006036222291" lon="11.49310776234263"><ele>215.5</ele><time>2026-04-12T09:36:10Z</time></trkpt><trkpt lat="45.40054112955877" lon="11.49317557299057"><ele>215.66666666666669</ele><time>2026-04-12T09:36:11Z</time></trkpt><trkpt lat="45.400477760241714" lon="11.493252231810368"><ele>215.83333333333334</ele><time>2026-04-12T09:36:12Z</time></trkpt><trkpt lat="45.40041320307818" lon="11.493332272838092"><ele>216.0</ele><time>2026-04-12T09:36:13Z</time></trkpt><trkpt lat="45.40035632778139" lon="11.493402660584392"><ele>216.0</ele><time>2026-04-12T09:36:14Z</time></trkpt><trkpt lat="45.40029191606066" lon="11.493421414643176"><ele>216.00000000000003</ele><time>2026-04-12T09:36:15Z</time></trkpt><trkpt lat="45.40019653006799" lon="11.493497248958018"><ele>216.00000000000003</ele><time>2026-04-12T09:36:17Z</time></trkpt><trkpt lat="45.400102459917136" lon="11.493587776883329"><ele>216.0</ele><time>2026-04-12T09:36:19Z</time></trkpt><trkpt lat="45.400139650348194" lon="11.49369929253882"><ele>216.0</ele><time>2026-04-12T09:36:21Z</time></trkpt><trkpt lat="45.40013665564186" lon="11.493829250778736"><ele>216.0</ele><time>2026-04-12T09:36:24Z</time></trkpt><trkpt lat="45.399978849158934" lon="11.493745825316605"><ele>216.0</ele><time>2026-04-12T09:36:26Z</time></trkpt><trkpt lat="45.399844659251855" lon="11.493652144904136"><ele>216.0</ele><time>2026-04-12T09:36:28Z</time></trkpt><trkpt lat="45.39974754117356" lon="11.49363622509251"><ele>216.0</ele><time>2026-04-12T09:36:29Z</time></trkpt><trkpt lat="45.39965136992949" lon="11.493646004682551"><ele>218.4</ele><time>2026-04-12T09:36:31Z</time></trkpt><trkpt lat="45.3995687825294" lon="11.493629408434165"><ele>220.8</ele><time>2026-04-12T09:36:33Z</time></trkpt><trkpt lat="45.399531817989455" lon="11.4935157245547"><ele>223.20000000000002</ele><time>2026-04-12T09:36:34Z</time></trkpt><trkpt lat="45.39948578153895" lon="11.493407921535926"><ele>225.60000000000002</ele><time>2026-04-12T09:36:35Z</time></trkpt><trkpt lat="45.3994333952619" lon="11.493271614922323"><ele>228.0</ele><time>2026-04-12T09:36:36Z</time></trkpt><trkpt lat="45.399381119250044" lon="11.493143444133105"><ele>228.0</ele><time>2026-04-12T09:36:37Z</time></trkpt><trkpt lat="45.39937913282586" lon="11.49305287174122"><ele>228.0</ele><time>2026-04-12T09:36:38Z</time></trkpt><trkpt lat="45.399378211301425" lon="11.492910850640275"><ele>228.0</ele><time>2026-04-12T09:36:39Z</time></trkpt><trkpt lat="45.39939998662328" lon="11.4927909892946"><ele>228.0</ele><time>2026-04-12T09:36:40Z</time></trkpt><trkpt lat="45.39940619823903" lon="11.4926665854605"><ele>228.0</ele><time>2026-04-12T09:36:41Z</time></trkpt><trkpt lat="45.3993989727741" lon="11.492554412788754"><ele>228.0</ele><time>2026-04-12T09:36:42Z</time></trkpt><trkpt lat="45.399398624785874" lon="11.492462134983725"><ele>228.66666666666666</ele><time>2026-04-12T09:36:43Z</time></trkpt><trkpt lat="45.39939470664585" lon="11.492316877521347"><ele>229.33333333333331</ele><time>2026-04-12T09:36:45Z</time></trkpt><trkpt lat="45.39941063325112" lon="11.49218748950023"><ele>230.0</ele><time>2026-04-12T09:36:46Z</time></trkpt><trkpt lat="45.39941235621666" lon="11.492069733260008"><ele>230.66666666666666</ele><time>2026-04-12T09:36:47Z</time></trkpt><trkpt lat="45.3994071740891" lon="11.491965008528618"><ele>231.33333333333331</ele><time>2026-04-12T09:36:48Z</time></trkpt><trkpt lat="45.399380497404906" lon="11.491860364844516"><ele>232.0</ele><time>2026-04-12T09:36:49Z</time></trkpt><trkpt lat="45.39934771006354" lon="11.491756189743327"><ele>230.66666666666666</ele><time>2026-04-12T09:36:50Z</time></trkpt><trkpt lat="45.39930441351699" lon="11.491680921227724"><ele>229.33333333333331</ele><time>2026-04-12T09:36:51Z</time></trkpt><trkpt lat="45.39925075527083" lon="11.491570597203488"><ele>228.0</ele><time>2026-04-12T09:36:52Z</time></trkpt><trkpt lat="45.39921783008925" lon="11.491461388156736"><ele>226.66666666666669</ele><time>2026-04-12T09:36:53Z</time></trkpt><trkpt lat="45.39920336091581" lon="11.491330688229931"><ele>225.33333333333334</ele><time>2026-04-12T09:36:54Z</time></trkpt><trkpt lat="45.39921011115108" lon="11.491201467341797"><ele>224.0</ele><time>2026-04-12T09:36:55Z</time></trkpt><trkpt lat="45.39923064551563" lon="11.491100863179696"><ele>223.6</ele><time>2026-04-12T09:36:56Z</time></trkpt><trkpt lat="45.39928249104393" lon="11.490980271002222"><ele>223.2</ele><time>2026-04-12T09:36:57Z</time></trkpt><trkpt lat="45.399310439363035" lon="11.490844527685326"><ele>222.79999999999998</ele><time>2026-04-12T09:36:58Z</time></trkpt><trkpt lat="45.39931546172982" lon="11.490702554405715"><ele>222.39999999999998</ele><time>2026-04-12T09:36:59Z</time></trkpt><trkpt lat="45.39931328422775" lon="11.490589355276171"><ele>222.0</ele><time>2026-04-12T09:37:00Z</time></trkpt><trkpt lat="45.39927786017742" lon="11.490460188561713"><ele>223.0</ele><time>2026-04-12T09:37:02Z</time></trkpt><trkpt lat="45.39916515393403" lon="11.490391755734583"><ele>224.0</ele><time>2026-04-12T09:37:04Z</time></trkpt><trkpt lat="45.399086447505965" lon="11.490353752460312"><ele>225.0</ele><time>2026-04-12T09:37:05Z</time></trkpt><trkpt lat="45.398999083184904" lon="11.490308658694024"><ele>226.0</ele><time>2026-04-12T09:37:06Z</time></trkpt><trkpt lat="45.39890208110777" lon="11.49027171819442"><ele>227.0</ele><time>2026-04-12T09:37:07Z</time></trkpt><trkpt lat="45.39879450020124" lon="11.490237022533497"><ele>227.39999999999998</ele><time>2026-04-12T09:37:08Z</time></trkpt><trkpt lat="45.39867546023699" lon="11.490200466990618"><ele>227.79999999999998</ele><time>2026-04-12T09:37:09Z</time></trkpt><trkpt lat="45.39856378462243" lon="11.490169076448419"><ele>228.2</ele><time>2026-04-12T09:37:10Z</time></trkpt><trkpt lat="45.39846907237306" lon="11.490148851943717"><ele>228.6</ele><time>2026-04-12T09:37:11Z</time></trkpt><trkpt lat="45.39837523744298" lon="11.490171594587013"><ele>229.0</ele><time>2026-04-12T09:37:12Z</time></trkpt><trkpt lat="45.3982868793037" lon="11.490208717296522"><ele>229.0</ele><time>2026-04-12T09:37:13Z</time></trkpt><trkpt lat="45.39819270387009" lon="11.490219209763088"><ele>228.99999999999997</ele><time>2026-04-12T09:37:14Z</time></trkpt><trkpt lat="45.39810451113998" lon="11.490208729998"><ele>228.99999999999997</ele><time>2026-04-12T09:37:15Z</time></trkpt><trkpt lat="45.39800349403381" lon="11.490208716469647"><ele>229.0</ele><time>2026-04-12T09:37:16Z</time></trkpt><trkpt lat="45.397906802373406" lon="11.49022187873749"><ele>229.0</ele><time>2026-04-12T09:37:17Z</time></trkpt><trkpt lat="45.39780273718262" lon="11.49023760275302"><ele>228.79999999999998</ele><time>2026-04-12T09:37:18Z</time></trkpt><trkpt lat="45.39770563550315" lon="11.490247073938628"><ele>228.59999999999997</ele><time>2026-04-12T09:37:19Z</time></trkpt><trkpt lat="45.397611918492814" lon="11.490235223261552"><ele>228.4</ele><time>2026-04-12T09:37:20Z</time></trkpt><trkpt lat="45.39751335018139" lon="11.490214279308299"><ele>228.2</ele><time>2026-04-12T09:37:21Z</time></trkpt><trkpt lat="45.3974185280704" lon="11.490186674617727"><ele>228.0</ele><time>2026-04-12T09:37:22Z</time></trkpt><trkpt lat="45.397333887552534" lon="11.490147242783603"><ele>228.0</ele><time>2026-04-12T09:37:23Z</time></trkpt><trkpt lat="45.397250803178025" lon="11.49009136709275"><ele>228.0</ele><time>2026-04-12T09:37:24Z</time></trkpt><trkpt lat="45.3971738810072" lon="11.490019448107285"><ele>228.0</ele><time>2026-04-12T09:37:25Z</time></trkpt><trkpt lat="45.39709341785429" lon="11.489968078705823"><ele>228.0</ele><time>2026-04-12T09:37:26Z</time></trkpt><trkpt lat="45.397003446470514" lon="11.489916159620172"><ele>228.0</ele><time>2026-04-12T09:37:27Z</time></trkpt><trkpt lat="45.396909447448934" lon="11.489860518421755"><ele>227.60000000000002</ele><time>2026-04-12T09:37:28Z</time></trkpt><trkpt lat="45.39682034259414" lon="11.489823010238627"><ele>227.20000000000002</ele><time>2026-04-12T09:37:29Z</time></trkpt><trkpt lat="45.396729929457315" lon="11.489817059686446"><ele>226.8</ele><time>2026-04-12T09:37:30Z</time></trkpt><trkpt lat="45.39662627273397" lon="11.4898335649514"><ele>226.4</ele><time>2026-04-12T09:37:31Z</time></trkpt><trkpt lat="45.39649928728791" lon="11.489865933884245"><ele>226.0</ele><time>2026-04-12T09:37:32Z</time></trkpt><trkpt lat="45.39637899996457" lon="11.48986427090955"><ele>225.5</ele><time>2026-04-12T09:37:33Z</time></trkpt><trkpt lat="45.396256035060155" lon="11.489836374168506"><ele>225.0</ele><time>2026-04-12T09:37:34Z</time></trkpt><trkpt lat="45.39613646106769" lon="11.489814155704135"><ele>224.5</ele><time>2026-04-12T09:37:35Z</time></trkpt><trkpt lat="45.396015425665944" lon="11.489827765841191"><ele>224.0</ele><time>2026-04-12T09:37:36Z</time></trkpt><trkpt lat="45.39591158687325" lon="11.48984384317347"><ele>224.00000000000003</ele><time>2026-04-12T09:37:37Z</time></trkpt><trkpt lat="45.395818761420884" lon="11.489864296665923"><ele>224.0</ele><time>2026-04-12T09:37:38Z</time></trkpt><trkpt lat="45.39572770594154" lon="11.48989026662829"><ele>224.0</ele><time>2026-04-12T09:37:39Z</time></trkpt><trkpt lat="45.39563281073011" lon="11.489913989453761"><ele>224.0</ele><time>2026-04-12T09:37:41Z</time></trkpt><trkpt lat="45.395582928105505" lon="11.489828013331948"><ele>224.00000000000003</ele><time>2026-04-12T09:37:44Z</time></trkpt><trkpt lat="45.3955079994917" lon="11.489822758511345"><ele>224.0</ele><time>2026-04-12T09:37:46Z</time></trkpt><trkpt lat="45.39537098647811" lon="11.48982734750684"><ele>222.83333333333334</ele><time>2026-04-12T09:37:48Z</time></trkpt><trkpt lat="45.39529413584968" lon="11.489836196598821"><ele>221.66666666666669</ele><time>2026-04-12T09:37:49Z</time></trkpt><trkpt lat="45.39522008959563" lon="11.489849402209256"><ele>220.5</ele><time>2026-04-12T09:37:50Z</time></trkpt><trkpt lat="45.39514347690337" lon="11.489871889146466"><ele>219.33333333333331</ele><time>2026-04-12T09:37:51Z</time></trkpt><trkpt lat="45.39506139615652" lon="11.489892253281615"><ele>218.16666666666666</ele><time>2026-04-12T09:37:52Z</time></trkpt><trkpt lat="45.39498059718594" lon="11.489916772332668"><ele>217.0</ele><time>2026-04-12T09:37:53Z</time></trkpt><trkpt lat="45.39489972219279" lon="11.489938564811514"><ele>217.0</ele><time>2026-04-12T09:37:54Z</time></trkpt><trkpt lat="45.39482789897725" lon="11.489951598982136"><ele>217.0</ele><time>2026-04-12T09:37:55Z</time></trkpt><trkpt lat="45.39476039119201" lon="11.489980463754964"><ele>217.0</ele><time>2026-04-12T09:37:56Z</time></trkpt><trkpt lat="45.39469617738715" lon="11.490013783533103"><ele>217.0</ele><time>2026-04-12T09:37:57Z</time></trkpt><trkpt lat="45.394560092392425" lon="11.490034824165162"><ele>217.0</ele><time>2026-04-12T09:37:59Z</time></trkpt><trkpt lat="45.39443844624453" lon="11.490069594388162"><ele>215.6</ele><time>2026-04-12T09:38:00Z</time></trkpt><trkpt lat="45.39433561146778" lon="11.49011151027505"><ele>214.2</ele><time>2026-04-12T09:38:01Z</time></trkpt><trkpt lat="45.39425259317568" lon="11.490137074257467"><ele>212.8</ele><time>2026-04-12T09:38:02Z</time></trkpt><trkpt lat="45.39415642190536" lon="11.490134294767353"><ele>211.4</ele><time>2026-04-12T09:38:03Z</time></trkpt><trkpt lat="45.39405314408454" lon="11.490131412294511"><ele>210.0</ele><time>2026-04-12T09:38:04Z</time></trkpt><trkpt lat="45.3939741978293" lon="11.49012928946638"><ele>210.0</ele><time>2026-04-12T09:38:05Z</time></trkpt><trkpt lat="45.393858771363774" lon="11.490139147916993"><ele>210.0</ele><time>2026-04-12T09:38:07Z</time></trkpt><trkpt lat="45.39377962829236" lon="11.490103913216043"><ele>210.0</ele><time>2026-04-12T09:38:08Z</time></trkpt><trkpt lat="45.39369783551042" lon="11.490060390884466"><ele>210.0</ele><time>2026-04-12T09:38:09Z</time></trkpt><trkpt lat="45.3936107715533" lon="11.490018592061169"><ele>210.0</ele><time>2026-04-12T09:38:10Z</time></trkpt><trkpt lat="45.39353377153654" lon="11.489994542309155"><ele>207.66666666666666</ele><time>2026-04-12T09:38:11Z</time></trkpt><trkpt lat="45.39346325892826" lon="11.489981728047754"><ele>205.33333333333331</ele><time>2026-04-12T09:38:12Z</time></trkpt><trkpt lat="45.39338898570487" lon="11.489967710670419"><ele>203.0</ele><time>2026-04-12T09:38:13Z</time></trkpt><trkpt lat="45.39332633236728" lon="11.489942825931688"><ele>200.66666666666666</ele><time>2026-04-12T09:38:14Z</time></trkpt><trkpt lat="45.39321702823493" lon="11.48991782147319"><ele>198.33333333333331</ele><time>2026-04-12T09:38:16Z</time></trkpt><trkpt lat="45.39314437543673" lon="11.489928808591461"><ele>196.0</ele><time>2026-04-12T09:38:18Z</time></trkpt><trkpt lat="45.39306403205385" lon="11.489894162551364"><ele>191.0</ele><time>2026-04-12T09:38:20Z</time></trkpt><trkpt lat="45.393005693102346" lon="11.489856240495278"><ele>186.0</ele><time>2026-04-12T09:38:21Z</time></trkpt><trkpt lat="45.39288654479748" lon="11.489839988187258"><ele>181.0</ele><time>2026-04-12T09:38:23Z</time></trkpt><trkpt lat="45.392844734529646" lon="11.489767541295974"><ele>176.0</ele><time>2026-04-12T09:38:25Z</time></trkpt><trkpt lat="45.39276134045613" lon="11.48965655275866"><ele>171.0</ele><time>2026-04-12T09:38:26Z</time></trkpt><trkpt lat="45.39267714175978" lon="11.489572771630243"><ele>171.0</ele><time>2026-04-12T09:38:27Z</time></trkpt><trkpt lat="45.392593244568175" lon="11.489488602454445"><ele>171.0</ele><time>2026-04-12T09:38:28Z</time></trkpt><trkpt lat="45.392521388475" lon="11.48940208750461"><ele>171.0</ele><time>2026-04-12T09:38:29Z</time></trkpt><trkpt lat="45.39246921481312" lon="11.489320341869876"><ele>171.0</ele><time>2026-04-12T09:38:30Z</time></trkpt><trkpt lat="45.392381905700645" lon="11.489259942894112"><ele>171.0</ele><time>2026-04-12T09:38:32Z</time></trkpt><trkpt lat="45.39232588578364" lon="11.489327831346289"><ele>171.0</ele><time>2026-04-12T09:38:34Z</time></trkpt><trkpt lat="45.39233401318997" lon="11.489466468716824"><ele>171.0</ele><time>2026-04-12T09:38:36Z</time></trkpt><trkpt lat="45.3922685278537" lon="11.48948344341999"><ele>171.0</ele><time>2026-04-12T09:38:41Z</time></trkpt><trkpt lat="45.39221426344969" lon="11.489419130298788"><ele>171.0</ele><time>2026-04-12T09:38:43Z</time></trkpt><trkpt lat="45.39215774384203" lon="11.489334514659769"><ele>171.0</ele><time>2026-04-12T09:38:45Z</time></trkpt><trkpt lat="45.392097043138655" lon="11.489213717799958"><ele>171.0</ele><time>2026-04-12T09:38:47Z</time></trkpt><trkpt lat="45.39205495480383" lon="11.489134562027612"><ele>171.0</ele><time>2026-04-12T09:38:48Z</time></trkpt><trkpt lat="45.39201062506439" lon="11.488998264504028"><ele>167.33333333333334</ele><time>2026-04-12T09:38:50Z</time></trkpt><trkpt lat="45.39190316511065" lon="11.488976267988717"><ele>163.66666666666666</ele><time>2026-04-12T09:38:52Z</time></trkpt><trkpt lat="45.391810091330605" lon="11.488971291756641"><ele>160.0</ele><time>2026-04-12T09:38:54Z</time></trkpt><trkpt lat="45.39175539113486" lon="11.48885331571636"><ele>156.33333333333331</ele><time>2026-04-12T09:38:56Z</time></trkpt><trkpt lat="45.391743280677915" lon="11.48876266461904"><ele>152.66666666666666</ele><time>2026-04-12T09:38:57Z</time></trkpt><trkpt lat="45.39174228787437" lon="11.488653071285526"><ele>149.0</ele><time>2026-04-12T09:38:58Z</time></trkpt><trkpt lat="45.391743329746355" lon="11.488531792701332"><ele>149.0</ele><time>2026-04-12T09:38:59Z</time></trkpt><trkpt lat="45.391714227444226" lon="11.488419035234092"><ele>149.0</ele><time>2026-04-12T09:39:01Z</time></trkpt><trkpt lat="45.39164221790283" lon="11.488409092964899"><ele>149.0</ele><time>2026-04-12T09:39:03Z</time></trkpt><trkpt lat="45.3915707731834" lon="11.48843778274232"><ele>149.0</ele><time>2026-04-12T09:39:04Z</time></trkpt><trkpt lat="45.39154410445496" lon="11.48852947140514"><ele>149.0</ele><time>2026-04-12T09:39:05Z</time></trkpt><trkpt lat="45.39153775923932" lon="11.48862870666032"><ele>149.0</ele><time>2026-04-12T09:39:06Z</time></trkpt><trkpt lat="45.39151948717858" lon="11.488731174703519"><ele>149.0</ele><time>2026-04-12T09:39:07Z</time></trkpt><trkpt lat="45.39151801670046" lon="11.488839772893174"><ele>149.0</ele><time>2026-04-12T09:39:08Z</time></trkpt><trkpt lat="45.391535913904114" lon="11.488948130572622"><ele>149.0</ele><time>2026-04-12T09:39:09Z</time></trkpt><trkpt lat="45.39154842565893" lon="11.489047762695646"><ele>149.0</ele><time>2026-04-12T09:39:10Z</time></trkpt><trkpt lat="45.39155389824607" lon="11.489149282882094"><ele>149.0</ele><time>2026-04-12T09:39:11Z</time></trkpt><trkpt lat="45.391568062009064" lon="11.489260724981179"><ele>149.0</ele><time>2026-04-12T09:39:12Z</time></trkpt><trkpt lat="45.391591280325635" lon="11.489368985229083"><ele>149.0</ele><time>2026-04-12T09:39:13Z</time></trkpt><trkpt lat="45.39162118454334" lon="11.489460382147845"><ele>149.0</ele><time>2026-04-12T09:39:14Z</time></trkpt><trkpt lat="45.3916648127178" lon="11.489586530185447"><ele>149.0</ele><time>2026-04-12T09:39:16Z</time></trkpt><trkpt lat="45.39171082704075" lon="11.489744239715831"><ele>149.0</ele><time>2026-04-12T09:39:18Z</time></trkpt><trkpt lat="45.391726231965954" lon="11.489840996093045"><ele>149.0</ele><time>2026-04-12T09:39:19Z</time></trkpt><trkpt lat="45.39175283524763" lon="11.489932848730303"><ele>149.0</ele><time>2026-04-12T09:39:20Z</time></trkpt><trkpt lat="45.391760184319494" lon="11.490031628995942"><ele>149.0</ele><time>2026-04-12T09:39:21Z</time></trkpt><trkpt lat="45.39178287287915" lon="11.490150423921548"><ele>146.8</ele><time>2026-04-12T09:39:22Z</time></trkpt><trkpt lat="45.39181157257081" lon="11.490271873654228"><ele>144.60000000000002</ele><time>2026-04-12T09:39:23Z</time></trkpt><trkpt lat="45.39185535945835" lon="11.490407502324585"><ele>142.4</ele><time>2026-04-12T09:39:24Z</time></trkpt><trkpt lat="45.391895275315896" lon="11.490539955059786"><ele>140.20000000000002</ele><time>2026-04-12T09:39:25Z</time></trkpt><trkpt lat="45.39192568940238" lon="11.490663731472663"><ele>138.0</ele><time>2026-04-12T09:39:26Z</time></trkpt><trkpt lat="45.39196211677736" lon="11.490789150655473"><ele>137.20000000000002</ele><time>2026-04-12T09:39:27Z</time></trkpt><trkpt lat="45.39200045660989" lon="11.490932689312494"><ele>136.4</ele><time>2026-04-12T09:39:28Z</time></trkpt><trkpt lat="45.392019634026695" lon="11.491075652351007"><ele>135.60000000000002</ele><time>2026-04-12T09:39:29Z</time></trkpt><trkpt lat="45.392059604855845" lon="11.491227019689491"><ele>134.8</ele><time>2026-04-12T09:39:30Z</time></trkpt><trkpt lat="45.39209103140608" lon="11.491324235971915"><ele>134.0</ele><time>2026-04-12T09:39:31Z</time></trkpt><trkpt lat="45.39211822450279" lon="11.491413095656139"><ele>137.4</ele><time>2026-04-12T09:39:32Z</time></trkpt><trkpt lat="45.39210525568936" lon="11.491563164302915"><ele>140.8</ele><time>2026-04-12T09:39:34Z</time></trkpt><trkpt lat="45.39205536705751" lon="11.491636776830019"><ele>144.2</ele><time>2026-04-12T09:39:36Z</time></trkpt><trkpt lat="45.39198798089557" lon="11.491573013404857"><ele>147.6</ele><time>2026-04-12T09:39:38Z</time></trkpt><trkpt lat="45.39194493978167" lon="11.491503636636807"><ele>151.0</ele><time>2026-04-12T09:39:39Z</time></trkpt><trkpt lat="45.39183898788639" lon="11.491383326142012"><ele>151.0</ele><time>2026-04-12T09:39:40Z</time></trkpt><trkpt lat="45.39178193714632" lon="11.491291855502311"><ele>151.0</ele><time>2026-04-12T09:39:41Z</time></trkpt><trkpt lat="45.39170189792126" lon="11.491185964440875"><ele>151.0</ele><time>2026-04-12T09:39:42Z</time></trkpt><trkpt lat="45.39160740928811" lon="11.491110049501025"><ele>151.0</ele><time>2026-04-12T09:39:43Z</time></trkpt><trkpt lat="45.39153011875072" lon="11.491063594074909"><ele>151.0</ele><time>2026-04-12T09:39:44Z</time></trkpt><trkpt lat="45.39146295753548" lon="11.491006071977136"><ele>148.2</ele><time>2026-04-12T09:39:45Z</time></trkpt><trkpt lat="45.391392121792684" lon="11.490952362611479"><ele>145.39999999999998</ele><time>2026-04-12T09:39:46Z</time></trkpt><trkpt lat="45.39132491962573" lon="11.490909127814787"><ele>142.6</ele><time>2026-04-12T09:39:47Z</time></trkpt><trkpt lat="45.391237345387545" lon="11.490837506441544"><ele>139.79999999999998</ele><time>2026-04-12T09:39:49Z</time></trkpt><trkpt lat="45.39115559451231" lon="11.490789189885913"><ele>137.0</ele><time>2026-04-12T09:39:51Z</time></trkpt><trkpt lat="45.391007650859706" lon="11.490711471275986"><ele>137.0</ele><time>2026-04-12T09:39:53Z</time></trkpt><trkpt lat="45.390903251850595" lon="11.49067076704193"><ele>137.0</ele><time>2026-04-12T09:39:54Z</time></trkpt><trkpt lat="45.39079617288305" lon="11.490614885460047"><ele>137.0</ele><time>2026-04-12T09:39:55Z</time></trkpt><trkpt lat="45.390689088461485" lon="11.490583059822603"><ele>137.0</ele><time>2026-04-12T09:39:56Z</time></trkpt><trkpt lat="45.390612885349306" lon="11.490567751275831"><ele>137.0</ele><time>2026-04-12T09:39:57Z</time></trkpt><trkpt lat="45.39052711402736" lon="11.490553400211937"><ele>137.33333333333331</ele><time>2026-04-12T09:39:58Z</time></trkpt><trkpt lat="45.39044666819276" lon="11.490537437381484"><ele>137.66666666666666</ele><time>2026-04-12T09:39:59Z</time></trkpt><trkpt lat="45.39037876264769" lon="11.490515685219009"><ele>138.0</ele><time>2026-04-12T09:40:00Z</time></trkpt><trkpt lat="45.390302817515824" lon="11.490489077574225"><ele>138.33333333333334</ele><time>2026-04-12T09:40:01Z</time></trkpt><trkpt lat="45.39019987080498" lon="11.490443963689216"><ele>138.66666666666669</ele><time>2026-04-12T09:40:02Z</time></trkpt><trkpt lat="45.39010996280085" lon="11.490365721080728"><ele>139.0</ele><time>2026-04-12T09:40:03Z</time></trkpt><trkpt lat="45.3900219496333" lon="11.49028005024298"><ele>129.75</ele><time>2026-04-12T09:40:04Z</time></trkpt><trkpt lat="45.38991517885938" lon="11.49021636087758"><ele>120.5</ele><time>2026-04-12T09:40:05Z</time></trkpt><trkpt lat="45.38979938767186" lon="11.4901915328483"><ele>111.25</ele><time>2026-04-12T09:40:06Z</time></trkpt><trkpt lat="45.38966738966289" lon="11.490191416894069"><ele>102.0</ele><time>2026-04-12T09:40:07Z</time></trkpt><trkpt lat="45.389562940461396" lon="11.49018730787306"><ele>100.66666666666667</ele><time>2026-04-12T09:40:08Z</time></trkpt><trkpt lat="45.38946839343528" lon="11.490215001718408"><ele>99.33333333333333</ele><time>2026-04-12T09:40:09Z</time></trkpt><trkpt lat="45.38937413265522" lon="11.490242295465544"><ele>98.0</ele><time>2026-04-12T09:40:10Z</time></trkpt><trkpt lat="45.389282792571606" lon="11.4902933983361"><ele>96.66666666666666</ele><time>2026-04-12T09:40:11Z</time></trkpt><trkpt lat="45.38922221979273" lon="11.490335864158997"><ele>95.33333333333333</ele><time>2026-04-12T09:40:12Z</time></trkpt><trkpt lat="45.38914791919324" lon="11.490404845094949"><ele>94.0</ele><time>2026-04-12T09:40:15Z</time></trkpt><trkpt lat="45.38905053893708" lon="11.490484006540996"><ele>94.16666666666666</ele><time>2026-04-12T09:40:17Z</time></trkpt><trkpt lat="45.38899476624876" lon="11.490535141391366"><ele>94.33333333333333</ele><time>2026-04-12T09:40:18Z</time></trkpt><trkpt lat="45.38893114414541" lon="11.490584494947617"><ele>94.5</ele><time>2026-04-12T09:40:19Z</time></trkpt><trkpt lat="45.388861125382775" lon="11.490629224290169"><ele>94.66666666666667</ele><time>2026-04-12T09:40:20Z</time></trkpt><trkpt lat="45.38877564292565" lon="11.490663542280993"><ele>94.83333333333334</ele><time>2026-04-12T09:40:21Z</time></trkpt><trkpt lat="45.38868756265551" lon="11.490692698060792"><ele>95.0</ele><time>2026-04-12T09:40:22Z</time></trkpt><trkpt lat="45.38858462387595" lon="11.4907094438504"><ele>95.0</ele><time>2026-04-12T09:40:23Z</time></trkpt><trkpt lat="45.38848583264855" lon="11.490736095616757"><ele>95.0</ele><time>2026-04-12T09:40:24Z</time></trkpt><trkpt lat="45.38839510863393" lon="11.490806196058294"><ele>95.0</ele><time>2026-04-12T09:40:25Z</time></trkpt><trkpt lat="45.38831981274666" lon="11.490890546434793"><ele>95.0</ele><time>2026-04-12T09:40:26Z</time></trkpt><trkpt lat="45.388259019709096" lon="11.49100994941437"><ele>95.0</ele><time>2026-04-12T09:40:27Z</time></trkpt><trkpt lat="45.38821069052056" lon="11.491142214970301"><ele>96.4</ele><time>2026-04-12T09:40:28Z</time></trkpt><trkpt lat="45.38816686733338" lon="11.491278254856553"><ele>97.8</ele><time>2026-04-12T09:40:29Z</time></trkpt><trkpt lat="45.38813642671861" lon="11.491402149410572"><ele>99.19999999999999</ele><time>2026-04-12T09:40:30Z</time></trkpt><trkpt lat="45.388027225355735" lon="11.491465189085023"><ele>100.6</ele><time>2026-04-12T09:40:32Z</time></trkpt><trkpt lat="45.387954860803205" lon="11.491439846409044"><ele>102.0</ele><time>2026-04-12T09:40:33Z</time></trkpt><trkpt lat="45.38788535619975" lon="11.491403735369865"><ele>102.0</ele><time>2026-04-12T09:40:34Z</time></trkpt><trkpt lat="45.38780844082491" lon="11.491353078725036"><ele>102.0</ele><time>2026-04-12T09:40:35Z</time></trkpt><trkpt lat="45.387707756852016" lon="11.491319658933314"><ele>102.0</ele><time>2026-04-12T09:40:36Z</time></trkpt><trkpt lat="45.38761021932607" lon="11.49128764479797"><ele>102.0</ele><time>2026-04-12T09:40:37Z</time></trkpt><trkpt lat="45.387491592664375" lon="11.49124088097178"><ele>102.0</ele><time>2026-04-12T09:40:38Z</time></trkpt><trkpt lat="45.38737628339356" lon="11.491210786857643"><ele>96.8</ele><time>2026-04-12T09:40:39Z</time></trkpt><trkpt lat="45.387253850365745" lon="11.491195594181749"><ele>91.6</ele><time>2026-04-12T09:40:40Z</time></trkpt><trkpt lat="45.38714461807286" lon="11.491162375668265"><ele>86.39999999999999</ele><time>2026-04-12T09:40:41Z</time></trkpt><trkpt lat="45.387067662275385" lon="11.491075763440579"><ele>81.19999999999999</ele><time>2026-04-12T09:40:42Z</time></trkpt><trkpt lat="45.38698619596085" lon="11.491008671332002"><ele>76.0</ele><time>2026-04-12T09:40:43Z</time></trkpt><trkpt lat="45.38690777811656" lon="11.490965418652621"><ele>74.8</ele><time>2026-04-12T09:40:44Z</time></trkpt><trkpt lat="45.38682126900464" lon="11.490929050530823"><ele>73.6</ele><time>2026-04-12T09:40:45Z</time></trkpt><trkpt lat="45.38673332766754" lon="11.490880970207538"><ele>72.4</ele><time>2026-04-12T09:40:46Z</time></trkpt><trkpt lat="45.38663877036774" lon="11.490842370223158"><ele>71.2</ele><time>2026-04-12T09:40:47Z</time></trkpt><trkpt lat="45.38655949570975" lon="11.490766891562886"><ele>70.0</ele><time>2026-04-12T09:40:48Z</time></trkpt><trkpt lat="45.38649476087495" lon="11.490679529915235"><ele>70.0</ele><time>2026-04-12T09:40:49Z</time></trkpt><trkpt lat="45.38644237003517" lon="11.490609383768891"><ele>70.0</ele><time>2026-04-12T09:40:50Z</time></trkpt><trkpt lat="45.386339462606806" lon="11.490549801950849"><ele>70.0</ele><time>2026-04-12T09:40:52Z</time></trkpt><trkpt lat="45.38626002376626" lon="11.490567594337882"><ele>70.0</ele><time>2026-04-12T09:40:53Z</time></trkpt><trkpt lat="45.38615700304628" lon="11.490516568350559"><ele>70.0</ele><time>2026-04-12T09:40:55Z</time></trkpt><trkpt lat="45.38607417764438" lon="11.490473214834187"><ele>69.5</ele><time>2026-04-12T09:40:57Z</time></trkpt><trkpt lat="45.38600201850469" lon="11.49044553530812"><ele>69.0</ele><time>2026-04-12T09:40:59Z</time></trkpt><trkpt lat="45.38601114096103" lon="11.490579053809494"><ele>68.5</ele><time>2026-04-12T09:41:04Z</time></trkpt><trkpt lat="45.38607984992048" lon="11.490658365238943"><ele>68.0</ele><time>2026-04-12T09:41:05Z</time></trkpt><trkpt lat="45.38613261925075" lon="11.490734776542778"><ele>67.5</ele><time>2026-04-12T09:41:06Z</time></trkpt><trkpt lat="45.38617339910408" lon="11.490818549132"><ele>67.0</ele><time>2026-04-12T09:41:08Z</time></trkpt><trkpt lat="45.38612549992651" lon="11.49091153861476"><ele>67.0</ele><time>2026-04-12T09:41:11Z</time></trkpt><trkpt lat="45.386051195421594" lon="11.490956513148053"><ele>67.0</ele><time>2026-04-12T09:41:13Z</time></trkpt><trkpt lat="45.385976341338285" lon="11.490946117983889"><ele>67.0</ele><time>2026-04-12T09:41:15Z</time></trkpt><trkpt lat="45.38590446677272" lon="11.490943958027685"><ele>67.0</ele><time>2026-04-12T09:41:17Z</time></trkpt><trkpt lat="45.385839125194515" lon="11.490931507231352"><ele>67.0</ele><time>2026-04-12T09:41:19Z</time></trkpt><trkpt lat="45.385804679276426" lon="11.491009585220596"><ele>67.0</ele><time>2026-04-12T09:41:21Z</time></trkpt><trkpt lat="45.385825363818924" lon="11.49118321487823"><ele>71.0</ele><time>2026-04-12T09:41:23Z</time></trkpt><trkpt lat="45.38585137770481" lon="11.491317847592462"><ele>75.0</ele><time>2026-04-12T09:41:24Z</time></trkpt><trkpt lat="45.385854347872396" lon="11.49148674300697"><ele>79.0</ele><time>2026-04-12T09:41:25Z</time></trkpt><trkpt lat="45.385864436307074" lon="11.491628683492804"><ele>83.0</ele><time>2026-04-12T09:41:26Z</time></trkpt><trkpt lat="45.38581042188741" lon="11.491675909338595"><ele>87.0</ele><time>2026-04-12T09:41:28Z</time></trkpt><trkpt lat="45.3854405706375" lon="11.491766498186298"><ele>87.5</ele><time>2026-04-12T09:41:31Z</time></trkpt><trkpt lat="45.38513579466214" lon="11.491813842619262"><ele>88.0</ele><time>2026-04-12T09:41:32Z</time></trkpt><trkpt lat="45.384974904454786" lon="11.491879923734691"><ele>88.0</ele><time>2026-04-12T09:41:34Z</time></trkpt><trkpt lat="45.38491711315075" lon="11.491843754159312"><ele>88.0</ele><time>2026-04-12T09:41:35Z</time></trkpt><trkpt lat="45.38493232159119" lon="11.49174737783702"><ele>88.0</ele><time>2026-04-12T09:41:37Z</time></trkpt><trkpt lat="45.38495435341294" lon="11.491622771598863"><ele>88.0</ele><time>2026-04-12T09:41:40Z</time></trkpt><trkpt lat="45.38493180855546" lon="11.49150131548683"><ele>88.0</ele><time>2026-04-12T09:41:42Z</time></trkpt><trkpt lat="45.38488411797467" lon="11.491415733553003"><ele>88.0</ele><time>2026-04-12T09:41:45Z</time></trkpt><trkpt lat="45.38478420957761" lon="11.49136007858833"><ele>88.0</ele><time>2026-04-12T09:41:48Z</time></trkpt><trkpt lat="45.384708579442155" lon="11.491300429491272"><ele>88.0</ele><time>2026-04-12T09:41:49Z</time></trkpt><trkpt lat="45.384622980250086" lon="11.491260091128561"><ele>88.0</ele><time>2026-04-12T09:41:51Z</time></trkpt><trkpt lat="45.384504365820334" lon="11.491200774700332"><ele>88.0</ele><time>2026-04-12T09:41:55Z</time></trkpt><trkpt lat="45.38442772940249" lon="11.491146896989065"><ele>88.0</ele><time>2026-04-12T09:41:56Z</time></trkpt><trkpt lat="45.38432959462341" lon="11.491099257064064"><ele>84.60000000000001</ele><time>2026-04-12T09:41:57Z</time></trkpt><trkpt lat="45.38426091416225" lon="11.491063679246059"><ele>81.2</ele><time>2026-04-12T09:41:58Z</time></trkpt><trkpt lat="45.38413160569506" lon="11.49100028606178"><ele>77.8</ele><time>2026-04-12T09:42:00Z</time></trkpt><trkpt lat="45.384072748052255" lon="11.490962258806473"><ele>74.4</ele><time>2026-04-12T09:42:01Z</time></trkpt><trkpt lat="45.38395318004302" lon="11.490916439342435"><ele>71.0</ele><time>2026-04-12T09:42:03Z</time></trkpt><trkpt lat="45.383883166801084" lon="11.490886701611869"><ele>72.16666666666667</ele><time>2026-04-12T09:42:04Z</time></trkpt><trkpt lat="45.38376988434209" lon="11.490845979174306"><ele>73.33333333333334</ele><time>2026-04-12T09:42:06Z</time></trkpt><trkpt lat="45.383706141429826" lon="11.490816633839572"><ele>74.5</ele><time>2026-04-12T09:42:08Z</time></trkpt><trkpt lat="45.383626897175404" lon="11.490847696458893"><ele>75.66666666666667</ele><time>2026-04-12T09:42:12Z</time></trkpt><trkpt lat="45.383566476370156" lon="11.49088560693421"><ele>76.83333333333333</ele><time>2026-04-12T09:42:14Z</time></trkpt><trkpt lat="45.38348231075162" lon="11.490912670456783"><ele>78.0</ele><time>2026-04-12T09:42:16Z</time></trkpt><trkpt lat="45.38340959389169" lon="11.490955337211611"><ele>78.0</ele><time>2026-04-12T09:42:18Z</time></trkpt><trkpt lat="45.38334707719285" lon="11.49096616516713"><ele>78.0</ele><time>2026-04-12T09:42:21Z</time></trkpt><trkpt lat="45.38327704634155" lon="11.490937860208891"><ele>78.0</ele><time>2026-04-12T09:42:23Z</time></trkpt><trkpt lat="45.38313247827036" lon="11.490920426641166"><ele>78.0</ele><time>2026-04-12T09:42:25Z</time></trkpt><trkpt lat="45.38302301038907" lon="11.49094582458"><ele>78.0</ele><time>2026-04-12T09:42:26Z</time></trkpt><trkpt lat="45.38293755320947" lon="11.490955256697827"><ele>79.66666666666667</ele><time>2026-04-12T09:42:27Z</time></trkpt><trkpt lat="45.382868365766505" lon="11.490937728407424"><ele>81.33333333333333</ele><time>2026-04-12T09:42:28Z</time></trkpt><trkpt lat="45.38278797169994" lon="11.490908402515583"><ele>83.0</ele><time>2026-04-12T09:42:29Z</time></trkpt><trkpt lat="45.38271743220645" lon="11.490886213274601"><ele>84.66666666666666</ele><time>2026-04-12T09:42:30Z</time></trkpt><trkpt lat="45.3826286855342" lon="11.490850325021686"><ele>86.33333333333333</ele><time>2026-04-12T09:42:31Z</time></trkpt><trkpt lat="45.38253565748087" lon="11.490821991409959"><ele>88.0</ele><time>2026-04-12T09:42:32Z</time></trkpt><trkpt lat="45.38243303264995" lon="11.490789837697438"><ele>88.0</ele><time>2026-04-12T09:42:33Z</time></trkpt><trkpt lat="45.38234348099724" lon="11.49076751789803"><ele>88.0</ele><time>2026-04-12T09:42:34Z</time></trkpt><trkpt lat="45.38226932822919" lon="11.49074298555683"><ele>88.0</ele><time>2026-04-12T09:42:35Z</time></trkpt><trkpt lat="45.38220109934686" lon="11.490751007022146"><ele>88.0</ele><time>2026-04-12T09:42:36Z</time></trkpt><trkpt lat="45.38213203713006" lon="11.490771092442936"><ele>88.0</ele><time>2026-04-12T09:42:37Z</time></trkpt><trkpt lat="45.382023983525485" lon="11.490797662713014"><ele>88.0</ele><time>2026-04-12T09:42:39Z</time></trkpt><trkpt lat="45.381928358902734" lon="11.490830080100766"><ele>89.5</ele><time>2026-04-12T09:42:41Z</time></trkpt><trkpt lat="45.381865865041306" lon="11.490848405462954"><ele>91.0</ele><time>2026-04-12T09:42:42Z</time></trkpt><trkpt lat="45.381757091320154" lon="11.490874013773682"><ele>92.5</ele><time>2026-04-12T09:42:44Z</time></trkpt><trkpt lat="45.38168937729085" lon="11.49086219519483"><ele>94.0</ele><time>2026-04-12T09:42:46Z</time></trkpt><trkpt lat="45.38162244119562" lon="11.490878402979142"><ele>95.50000000000001</ele><time>2026-04-12T09:42:48Z</time></trkpt><trkpt lat="45.38153642125536" lon="11.490917772735136"><ele>97.0</ele><time>2026-04-12T09:42:50Z</time></trkpt><trkpt lat="45.38143906165042" lon="11.49093241977325"><ele>99.0</ele><time>2026-04-12T09:42:53Z</time></trkpt><trkpt lat="45.38134538668859" lon="11.490960659459986"><ele>101.0</ele><time>2026-04-12T09:42:56Z</time></trkpt><trkpt lat="45.3812516856203" lon="11.490980022384528"><ele>102.99999999999999</ele><time>2026-04-12T09:42:58Z</time></trkpt><trkpt lat="45.38116277706587" lon="11.490984700678268"><ele>105.0</ele><time>2026-04-12T09:43:00Z</time></trkpt><trkpt lat="45.38109286530177" lon="11.490971749252903"><ele>107.0</ele><time>2026-04-12T09:43:03Z</time></trkpt><trkpt lat="45.380989430631594" lon="11.490964387881094"><ele>106.99999999999999</ele><time>2026-04-12T09:43:05Z</time></trkpt><trkpt lat="45.38091987563989" lon="11.490959950669534"><ele>107.0</ele><time>2026-04-12T09:43:07Z</time></trkpt><trkpt lat="45.380839915860506" lon="11.49094649752046"><ele>107.0</ele><time>2026-04-12T09:43:11Z</time></trkpt><trkpt lat="45.38075435083718" lon="11.490927300391288"><ele>107.0</ele><time>2026-04-12T09:43:13Z</time></trkpt><trkpt lat="45.38069069171449" lon="11.490944772046605"><ele>106.99999999999999</ele><time>2026-04-12T09:43:21Z</time></trkpt><trkpt lat="45.380619415219314" lon="11.490963889301291"><ele>107.0</ele><time>2026-04-12T09:43:24Z</time></trkpt><trkpt lat="45.380534306217854" lon="11.490958989204119"><ele>107.83333333333333</ele><time>2026-04-12T09:43:26Z</time></trkpt><trkpt lat="45.38047954040195" lon="11.491010129789474"><ele>108.66666666666666</ele><time>2026-04-12T09:43:28Z</time></trkpt><trkpt lat="45.38039225855054" lon="11.49098411997942"><ele>109.5</ele><time>2026-04-12T09:43:30Z</time></trkpt><trkpt lat="45.38029474541808" lon="11.491035267635828"><ele>110.33333333333334</ele><time>2026-04-12T09:43:32Z</time></trkpt><trkpt lat="45.38024034234779" lon="11.491094835036415"><ele>111.16666666666667</ele><time>2026-04-12T09:43:33Z</time></trkpt><trkpt lat="45.380143787317394" lon="11.491196011271521"><ele>112.0</ele><time>2026-04-12T09:43:35Z</time></trkpt><trkpt lat="45.380045859279264" lon="11.49128430743106"><ele>118.0</ele><time>2026-04-12T09:43:37Z</time></trkpt><trkpt lat="45.37997842478879" lon="11.49139776350434"><ele>123.99999999999999</ele><time>2026-04-12T09:43:39Z</time></trkpt><trkpt lat="45.37991282357826" lon="11.491525788149357"><ele>130.0</ele><time>2026-04-12T09:43:41Z</time></trkpt><trkpt lat="45.379962544086915" lon="11.491583437294999"><ele>136.0</ele><time>2026-04-12T09:43:45Z</time></trkpt><trkpt lat="45.38003832844309" lon="11.491531426905427"><ele>142.0</ele><time>2026-04-12T09:43:47Z</time></trkpt><trkpt lat="45.380124598519" lon="11.491562078745083"><ele>142.0</ele><time>2026-04-12T09:43:49Z</time></trkpt><trkpt lat="45.380227193152244" lon="11.491574167040573"><ele>142.0</ele><time>2026-04-12T09:43:51Z</time></trkpt><trkpt lat="45.380303910356986" lon="11.491588094417047"><ele>142.0</ele><time>2026-04-12T09:43:53Z</time></trkpt><trkpt lat="45.38032656791731" lon="11.491677022229837"><ele>142.0</ele><time>2026-04-12T09:45:34Z</time></trkpt><trkpt lat="45.380269926576375" lon="11.49171795932107"><ele>142.0</ele><time>2026-04-12T09:45:36Z</time></trkpt><trkpt lat="45.38021075222154" lon="11.491807037669897"><ele>142.0</ele><time>2026-04-12T09:45:39Z</time></trkpt><trkpt lat="45.38016372090894" lon="11.491902402032123"><ele>142.0</ele><time>2026-04-12T09:45:43Z</time></trkpt><trkpt lat="45.380150243076336" lon="11.492021733592102"><ele>142.0</ele><time>2026-04-12T09:46:00Z</time></trkpt><trkpt lat="45.38009737344606" lon="11.49211130036415"><ele>142.0</ele><time>2026-04-12T09:46:03Z</time></trkpt><trkpt lat="45.380132436085795" lon="11.492216742426708"><ele>142.0</ele><time>2026-04-12T09:46:05Z</time></trkpt><trkpt lat="45.38017778339022" lon="11.492285805372743"><ele>142.0</ele><time>2026-04-12T09:46:07Z</time></trkpt><trkpt lat="45.38025300086908" lon="11.492235937979379"><ele>142.0</ele><time>2026-04-12T09:46:10Z</time></trkpt><trkpt lat="45.3803184292311" lon="11.492246587968692"><ele>146.66666666666669</ele><time>2026-04-12T09:46:13Z</time></trkpt><trkpt lat="45.380386537948254" lon="11.492253856774843"><ele>151.33333333333334</ele><time>2026-04-12T09:46:16Z</time></trkpt><trkpt lat="45.380461600424134" lon="11.492287695076001"><ele>156.0</ele><time>2026-04-12T09:46:19Z</time></trkpt><trkpt lat="45.3805468106658" lon="11.492343854136932"><ele>160.66666666666666</ele><time>2026-04-12T09:46:21Z</time></trkpt><trkpt lat="45.38060930551418" lon="11.492384483217744"><ele>165.33333333333331</ele><time>2026-04-12T09:46:23Z</time></trkpt><trkpt lat="45.38066753003868" lon="11.492424930402452"><ele>170.0</ele><time>2026-04-12T09:46:24Z</time></trkpt><trkpt lat="45.38074745807904" lon="11.492449480952352"><ele>171.66666666666666</ele><time>2026-04-12T09:46:27Z</time></trkpt><trkpt lat="45.38080092750495" lon="11.49250022286469"><ele>173.33333333333331</ele><time>2026-04-12T09:46:29Z</time></trkpt><trkpt lat="45.380864387258555" lon="11.492516631646014"><ele>175.0</ele><time>2026-04-12T09:46:31Z</time></trkpt><trkpt lat="45.38094105354898" lon="11.492531370771244"><ele>176.66666666666666</ele><time>2026-04-12T09:46:33Z</time></trkpt><trkpt lat="45.38104643718605" lon="11.492576120770973"><ele>178.33333333333334</ele><time>2026-04-12T09:46:36Z</time></trkpt><trkpt lat="45.38110750514668" lon="11.492627528540512"><ele>180.0</ele><time>2026-04-12T09:46:37Z</time></trkpt><trkpt lat="45.38116415218946" lon="11.492689655602977"><ele>180.0</ele><time>2026-04-12T09:46:38Z</time></trkpt><trkpt lat="45.3812433493623" lon="11.492729414808615"><ele>180.0</ele><time>2026-04-12T09:46:40Z</time></trkpt><trkpt lat="45.38130734714184" lon="11.49275788750519"><ele>180.0</ele><time>2026-04-12T09:46:48Z</time></trkpt><trkpt lat="45.38137761340088" lon="11.492792736944557"><ele>180.0</ele><time>2026-04-12T09:46:50Z</time></trkpt><trkpt lat="45.381491601132296" lon="11.492870032287165"><ele>180.0</ele><time>2026-04-12T09:46:52Z</time></trkpt><trkpt lat="45.38159557540217" lon="11.492936560847104"><ele>187.2</ele><time>2026-04-12T09:46:54Z</time></trkpt><trkpt lat="45.3816889011204" lon="11.49300882397838"><ele>194.4</ele><time>2026-04-12T09:46:56Z</time></trkpt><trkpt lat="45.38177589437964" lon="11.493081947424487"><ele>201.60000000000002</ele><time>2026-04-12T09:46:58Z</time></trkpt><trkpt lat="45.3818662073231" lon="11.49314985150795"><ele>208.8</ele><time>2026-04-12T09:47:00Z</time></trkpt><trkpt lat="45.3819525920952" lon="11.493217425715432"><ele>216.0</ele><time>2026-04-12T09:47:02Z</time></trkpt><trkpt lat="45.382053759802304" lon="11.493270334828798"><ele>216.0</ele><time>2026-04-12T09:47:04Z</time></trkpt><trkpt lat="45.382127359996" lon="11.493313466543986"><ele>216.00000000000003</ele><time>2026-04-12T09:47:06Z</time></trkpt><trkpt lat="45.38222121415259" lon="11.493359649674634"><ele>216.00000000000003</ele><time>2026-04-12T09:47:09Z</time></trkpt><trkpt lat="45.38230636087144" lon="11.49339489249102"><ele>216.0</ele><time>2026-04-12T09:47:11Z</time></trkpt><trkpt lat="45.38240280209586" lon="11.493474085098622"><ele>216.0</ele><time>2026-04-12T09:47:13Z</time></trkpt><trkpt lat="45.382496624962805" lon="11.493551364574033"><ele>214.66666666666666</ele><time>2026-04-12T09:47:15Z</time></trkpt><trkpt lat="45.382550961185665" lon="11.493598952440864"><ele>213.33333333333331</ele><time>2026-04-12T09:47:16Z</time></trkpt><trkpt lat="45.3826072913778" lon="11.493661753889924"><ele>212.0</ele><time>2026-04-12T09:47:17Z</time></trkpt><trkpt lat="45.38266999063808" lon="11.4937764639443"><ele>210.66666666666666</ele><time>2026-04-12T09:47:19Z</time></trkpt><trkpt lat="45.38268503334298" lon="11.493913257847236"><ele>209.33333333333331</ele><time>2026-04-12T09:47:21Z</time></trkpt><trkpt lat="45.38272472412319" lon="11.49404698964383"><ele>208.0</ele><time>2026-04-12T09:50:20Z</time></trkpt><trkpt lat="45.382787165702915" lon="11.494068247564924"><ele>211.2</ele><time>2026-04-12T09:50:31Z</time></trkpt><trkpt lat="45.382886903802614" lon="11.494071740565934"><ele>214.4</ele><time>2026-04-12T09:50:32Z</time></trkpt><trkpt lat="45.38300340315564" lon="11.494062789620294"><ele>217.59999999999997</ele><time>2026-04-12T09:50:33Z</time></trkpt><trkpt lat="45.383098039638995" lon="11.494061749551548"><ele>220.79999999999998</ele><time>2026-04-12T09:50:34Z</time></trkpt><trkpt lat="45.383175637484705" lon="11.494057873042738"><ele>224.0</ele><time>2026-04-12T09:50:35Z</time></trkpt><trkpt lat="45.38318570914466" lon="11.494259357477226"><ele>224.0</ele><time>2026-04-12T09:50:37Z</time></trkpt><trkpt lat="45.383183899115814" lon="11.494378473413725"><ele>223.99999999999997</ele><time>2026-04-12T09:50:38Z</time></trkpt><trkpt lat="45.38328141573973" lon="11.49440202667472"><ele>223.99999999999997</ele><time>2026-04-12T09:50:41Z</time></trkpt><trkpt lat="45.38342254983466" lon="11.4944066036998"><ele>224.0</ele><time>2026-04-12T09:50:44Z</time></trkpt><trkpt lat="45.383500032746916" lon="11.494493089791577"><ele>224.0</ele><time>2026-04-12T09:50:45Z</time></trkpt><trkpt lat="45.3835634970283" lon="11.49455590023177"><ele>227.33333333333334</ele><time>2026-04-12T09:50:46Z</time></trkpt><trkpt lat="45.38362919372407" lon="11.494659373655345"><ele>230.66666666666669</ele><time>2026-04-12T09:50:48Z</time></trkpt><trkpt lat="45.38369090907896" lon="11.494793820435955"><ele>234.0</ele><time>2026-04-12T09:50:50Z</time></trkpt><trkpt lat="45.38372879243568" lon="11.494868147390763"><ele>237.33333333333331</ele><time>2026-04-12T09:50:51Z</time></trkpt><trkpt lat="45.3837653250985" lon="11.494950356397434"><ele>240.66666666666666</ele><time>2026-04-12T09:50:52Z</time></trkpt><trkpt lat="45.38380973631681" lon="11.495056071557395"><ele>244.0</ele><time>2026-04-12T09:50:53Z</time></trkpt><trkpt lat="45.38383335970106" lon="11.495156712076803"><ele>245.79999999999998</ele><time>2026-04-12T09:50:54Z</time></trkpt><trkpt lat="45.383893667945586" lon="11.495226098599682"><ele>247.59999999999997</ele><time>2026-04-12T09:50:55Z</time></trkpt><trkpt lat="45.38397519964359" lon="11.495247384747039"><ele>249.4</ele><time>2026-04-12T09:50:56Z</time></trkpt><trkpt lat="45.38409545834961" lon="11.495282182201464"><ele>251.2</ele><time>2026-04-12T09:50:57Z</time></trkpt><trkpt lat="45.38420140910707" lon="11.495366466370072"><ele>253.0</ele><time>2026-04-12T09:50:58Z</time></trkpt><trkpt lat="45.38427998177953" lon="11.495456044845715"><ele>253.0</ele><time>2026-04-12T09:50:59Z</time></trkpt><trkpt lat="45.384359447467375" lon="11.495560893788381"><ele>253.0</ele><time>2026-04-12T09:51:00Z</time></trkpt><trkpt lat="45.384444988767996" lon="11.495683058387973"><ele>253.0</ele><time>2026-04-12T09:51:01Z</time></trkpt><trkpt lat="45.384508056448894" lon="11.495814384592428"><ele>253.0</ele><time>2026-04-12T09:51:02Z</time></trkpt><trkpt lat="45.384557813012634" lon="11.49592256392488"><ele>253.0</ele><time>2026-04-12T09:51:03Z</time></trkpt><trkpt lat="45.38459469575431" lon="11.496020393077737"><ele>252.99999999999997</ele><time>2026-04-12T09:51:04Z</time></trkpt><trkpt lat="45.38465803304941" lon="11.49612537664437"><ele>253.0</ele><time>2026-04-12T09:51:06Z</time></trkpt><trkpt lat="45.38475848047841" lon="11.496196307259892"><ele>253.0</ele><time>2026-04-12T09:51:08Z</time></trkpt><trkpt lat="45.3848135754127" lon="11.496309872873542"><ele>253.0</ele><time>2026-04-12T09:51:10Z</time></trkpt><trkpt lat="45.384753972604" lon="11.496364626363333"><ele>252.99999999999997</ele><time>2026-04-12T09:51:11Z</time></trkpt><trkpt lat="45.38469183872091" lon="11.496401284507005"><ele>253.0</ele><time>2026-04-12T09:51:12Z</time></trkpt><trkpt lat="45.384651713289465" lon="11.496493665481509"><ele>253.8</ele><time>2026-04-12T09:51:13Z</time></trkpt><trkpt lat="45.38463607021003" lon="11.496639884284734"><ele>254.60000000000002</ele><time>2026-04-12T09:51:14Z</time></trkpt><trkpt lat="45.38463743322003" lon="11.496832645983385"><ele>255.39999999999998</ele><time>2026-04-12T09:51:15Z</time></trkpt><trkpt lat="45.384630674776005" lon="11.496979830854666"><ele>256.2</ele><time>2026-04-12T09:51:16Z</time></trkpt><trkpt lat="45.384626719938495" lon="11.497073603274918"><ele>257.0</ele><time>2026-04-12T09:51:17Z</time></trkpt><trkpt lat="45.38463470264492" lon="11.497168028115073"><ele>257.0</ele><time>2026-04-12T09:51:18Z</time></trkpt><trkpt lat="45.384637069178666" lon="11.497258475429266"><ele>257.0</ele><time>2026-04-12T09:51:19Z</time></trkpt><trkpt lat="45.3846503065173" lon="11.49734826314364"><ele>257.0</ele><time>2026-04-12T09:51:20Z</time></trkpt><trkpt lat="45.38468340634491" lon="11.497434530880076"><ele>257.0</ele><time>2026-04-12T09:51:22Z</time></trkpt><trkpt lat="45.38475877285353" lon="11.497464175099804"><ele>257.0</ele><time>2026-04-12T09:51:24Z</time></trkpt><trkpt lat="45.384846475107196" lon="11.497430931921084"><ele>257.0</ele><time>2026-04-12T09:51:26Z</time></trkpt><trkpt lat="45.38495660273979" lon="11.49740075266542"><ele>254.0</ele><time>2026-04-12T09:51:28Z</time></trkpt><trkpt lat="45.38507425180125" lon="11.497396951887616"><ele>251.0</ele><time>2026-04-12T09:51:30Z</time></trkpt><trkpt lat="45.38518446983049" lon="11.497373767575139"><ele>248.0</ele><time>2026-04-12T09:51:32Z</time></trkpt><trkpt lat="45.38523315973821" lon="11.497464438853463"><ele>245.0</ele><time>2026-04-12T09:51:35Z</time></trkpt><trkpt lat="45.38519752834715" lon="11.497602253482812"><ele>242.0</ele><time>2026-04-12T09:51:37Z</time></trkpt><trkpt lat="45.38519452494041" lon="11.497785929891918"><ele>242.0</ele><time>2026-04-12T09:51:39Z</time></trkpt><trkpt lat="45.385162619449574" lon="11.497886098908733"><ele>242.0</ele><time>2026-04-12T09:51:40Z</time></trkpt><trkpt lat="45.38510971770683" lon="11.497995838073713"><ele>242.0</ele><time>2026-04-12T09:51:41Z</time></trkpt><trkpt lat="45.385041216673315" lon="11.498094246420528"><ele>242.0</ele><time>2026-04-12T09:51:42Z</time></trkpt><trkpt lat="45.384969916038955" lon="11.4981936282404"><ele>242.0</ele><time>2026-04-12T09:51:43Z</time></trkpt><trkpt lat="45.38490273431388" lon="11.498304516609236"><ele>242.00000000000003</ele><time>2026-04-12T09:51:44Z</time></trkpt><trkpt lat="45.384826367973005" lon="11.498400688254895"><ele>242.0</ele><time>2026-04-12T09:51:45Z</time></trkpt><trkpt lat="45.38475252286529" lon="11.49849952103011"><ele>242.0</ele><time>2026-04-12T09:51:46Z</time></trkpt><trkpt lat="45.38469537319568" lon="11.498588244159508"><ele>242.0</ele><time>2026-04-12T09:51:47Z</time></trkpt><trkpt lat="45.3846472225748" lon="11.498665100784686"><ele>242.00000000000003</ele><time>2026-04-12T09:51:48Z</time></trkpt><trkpt lat="45.38460969646452" lon="11.498757254250497"><ele>242.0</ele><time>2026-04-12T09:51:49Z</time></trkpt><trkpt lat="45.38455480508689" lon="11.498855378150635"><ele>238.8</ele><time>2026-04-12T09:51:50Z</time></trkpt><trkpt lat="45.38450779555781" lon="11.49896022349763"><ele>235.6</ele><time>2026-04-12T09:51:51Z</time></trkpt><trkpt lat="45.38446361808652" lon="11.49905427077072"><ele>232.40000000000003</ele><time>2026-04-12T09:51:52Z</time></trkpt><trkpt lat="45.384402080808925" lon="11.499157880329342"><ele>229.20000000000002</ele><time>2026-04-12T09:51:53Z</time></trkpt><trkpt lat="45.384344324475556" lon="11.49926686065845"><ele>226.0</ele><time>2026-04-12T09:51:54Z</time></trkpt><trkpt lat="45.38427911808585" lon="11.499375325757422"><ele>226.0</ele><time>2026-04-12T09:51:55Z</time></trkpt><trkpt lat="45.384194111603605" lon="11.499492545835393"><ele>226.00000000000003</ele><time>2026-04-12T09:51:56Z</time></trkpt><trkpt lat="45.38413954595582" lon="11.499600243516447"><ele>226.00000000000003</ele><time>2026-04-12T09:51:57Z</time></trkpt><trkpt lat="45.384062544985866" lon="11.499701344769706"><ele>226.0</ele><time>2026-04-12T09:51:58Z</time></trkpt><trkpt lat="45.3839963665745" lon="11.499810695286591"><ele>226.0</ele><time>2026-04-12T09:51:59Z</time></trkpt><trkpt lat="45.38395620547284" lon="11.499916712597164"><ele>223.83333333333331</ele><time>2026-04-12T09:52:00Z</time></trkpt><trkpt lat="45.383929124458525" lon="11.500016097405302"><ele>221.66666666666666</ele><time>2026-04-12T09:52:01Z</time></trkpt><trkpt lat="45.38392223508266" lon="11.500114762574398"><ele>219.5</ele><time>2026-04-12T09:52:02Z</time></trkpt><trkpt lat="45.38392125441144" lon="11.500228379556049"><ele>217.33333333333331</ele><time>2026-04-12T09:52:03Z</time></trkpt><trkpt lat="45.38390595993094" lon="11.50033026365093"><ele>215.16666666666666</ele><time>2026-04-12T09:52:04Z</time></trkpt><trkpt lat="45.38389802008413" lon="11.50043060794426"><ele>213.0</ele><time>2026-04-12T09:52:05Z</time></trkpt><trkpt lat="45.383877006670055" lon="11.500562872177136"><ele>213.4</ele><time>2026-04-12T09:52:07Z</time></trkpt><trkpt lat="45.383877452997524" lon="11.500727654568975"><ele>213.8</ele><time>2026-04-12T09:52:09Z</time></trkpt><trkpt lat="45.38387238496419" lon="11.500892648117686"><ele>214.2</ele><time>2026-04-12T09:52:11Z</time></trkpt><trkpt lat="45.383866519595784" lon="11.501042122205902"><ele>214.6</ele><time>2026-04-12T09:52:13Z</time></trkpt><trkpt lat="45.38386765051959" lon="11.501141681059115"><ele>215.0</ele><time>2026-04-12T09:52:15Z</time></trkpt><trkpt lat="45.383862736868856" lon="11.501269823915372"><ele>215.0</ele><time>2026-04-12T09:52:17Z</time></trkpt><trkpt lat="45.38385717788195" lon="11.50141950904977"><ele>215.0</ele><time>2026-04-12T09:52:19Z</time></trkpt><trkpt lat="45.3838795037323" lon="11.501582656560247"><ele>215.0</ele><time>2026-04-12T09:52:21Z</time></trkpt><trkpt lat="45.3838893152391" lon="11.50173392063698"><ele>215.0</ele><time>2026-04-12T09:52:23Z</time></trkpt><trkpt lat="45.38388529094891" lon="11.501909375416314"><ele>215.0</ele><time>2026-04-12T09:52:25Z</time></trkpt><trkpt lat="45.38386990324844" lon="11.502009773102504"><ele>215.0</ele><time>2026-04-12T09:52:26Z</time></trkpt><trkpt lat="45.383847023378124" lon="11.502109989226698"><ele>215.0</ele><time>2026-04-12T09:52:27Z</time></trkpt><trkpt lat="45.383823414602226" lon="11.502216717186462"><ele>215.0</ele><time>2026-04-12T09:52:28Z</time></trkpt><trkpt lat="45.38380811176592" lon="11.50231295590893"><ele>215.0</ele><time>2026-04-12T09:52:29Z</time></trkpt><trkpt lat="45.38378628509331" lon="11.502426105817653"><ele>215.0</ele><time>2026-04-12T09:52:31Z</time></trkpt><trkpt lat="45.38373613008642" lon="11.50249117099833"><ele>215.0</ele><time>2026-04-12T09:52:33Z</time></trkpt><trkpt lat="45.3836722216008" lon="11.502580084773838"><ele>213.6</ele><time>2026-04-12T09:52:34Z</time></trkpt><trkpt lat="45.3835919117677" lon="11.502679936483027"><ele>212.2</ele><time>2026-04-12T09:52:35Z</time></trkpt><trkpt lat="45.38352666985187" lon="11.502772716686021"><ele>210.8</ele><time>2026-04-12T09:52:36Z</time></trkpt><trkpt lat="45.38346527384142" lon="11.502895313806427"><ele>209.4</ele><time>2026-04-12T09:52:38Z</time></trkpt><trkpt lat="45.38343001102097" lon="11.503056007569732"><ele>208.0</ele><time>2026-04-12T09:52:40Z</time></trkpt><trkpt lat="45.383407022976485" lon="11.503152623248756"><ele>207.57142857142856</ele><time>2026-04-12T09:52:41Z</time></trkpt><trkpt lat="45.383389486594865" lon="11.50325590429183"><ele>207.14285714285717</ele><time>2026-04-12T09:52:42Z</time></trkpt><trkpt lat="45.383371237310946" lon="11.50335957617114"><ele>206.71428571428572</ele><time>2026-04-12T09:52:43Z</time></trkpt><trkpt lat="45.38333742689755" lon="11.5034539646299"><ele>206.28571428571428</ele><time>2026-04-12T09:52:44Z</time></trkpt><trkpt lat="45.38329735424261" lon="11.503537538748281"><ele>205.85714285714283</ele><time>2026-04-12T09:52:45Z</time></trkpt><trkpt lat="45.383256417527896" lon="11.503616331213982"><ele>205.42857142857144</ele><time>2026-04-12T09:52:46Z</time></trkpt><trkpt lat="45.38321974379467" lon="11.503713012054904"><ele>205.0</ele><time>2026-04-12T09:52:47Z</time></trkpt><trkpt lat="45.38318222909625" lon="11.503806140589905"><ele>204.66666666666666</ele><time>2026-04-12T09:52:48Z</time></trkpt><trkpt lat="45.383146177288424" lon="11.503901051998485"><ele>204.33333333333331</ele><time>2026-04-12T09:52:49Z</time></trkpt><trkpt lat="45.38310900675957" lon="11.503989063845179"><ele>204.0</ele><time>2026-04-12T09:52:50Z</time></trkpt><trkpt lat="45.38307854740955" lon="11.504081938935961"><ele>203.66666666666669</ele><time>2026-04-12T09:52:51Z</time></trkpt><trkpt lat="45.38304191681842" lon="11.504181422968925"><ele>203.33333333333334</ele><time>2026-04-12T09:52:53Z</time></trkpt><trkpt lat="45.38313302274139" lon="11.50425176911399"><ele>203.0</ele><time>2026-04-12T09:52:56Z</time></trkpt><trkpt lat="45.383242313790575" lon="11.504250705050211"><ele>203.0</ele><time>2026-04-12T09:52:58Z</time></trkpt><trkpt lat="45.38335195931371" lon="11.504277979355317"><ele>203.0</ele><time>2026-04-12T09:52:59Z</time></trkpt><trkpt lat="45.3834482371448" lon="11.504295056077586"><ele>203.0</ele><time>2026-04-12T09:53:00Z</time></trkpt><trkpt lat="45.383583565756105" lon="11.50429588381853"><ele>203.0</ele><time>2026-04-12T09:53:01Z</time></trkpt><trkpt lat="45.38370069758763" lon="11.504311263601425"><ele>203.0</ele><time>2026-04-12T09:53:02Z</time></trkpt><trkpt lat="45.38378959649601" lon="11.504326104992138"><ele>203.0</ele><time>2026-04-12T09:53:03Z</time></trkpt><trkpt lat="45.38387443843862" lon="11.504332011680175"><ele>203.0</ele><time>2026-04-12T09:53:04Z</time></trkpt><trkpt lat="45.38396718495323" lon="11.50435514634567"><ele>203.0</ele><time>2026-04-12T09:53:05Z</time></trkpt><trkpt lat="45.38405605512907" lon="11.50436758148522"><ele>203.0</ele><time>2026-04-12T09:53:06Z</time></trkpt><trkpt lat="45.38416990388222" lon="11.504395437390098"><ele>204.60000000000002</ele><time>2026-04-12T09:53:07Z</time></trkpt><trkpt lat="45.384275689159416" lon="11.504378256650728"><ele>206.20000000000002</ele><time>2026-04-12T09:53:08Z</time></trkpt><trkpt lat="45.38437205415069" lon="11.504389703342813"><ele>207.8</ele><time>2026-04-12T09:53:09Z</time></trkpt><trkpt lat="45.38446942891647" lon="11.504424194461938"><ele>209.4</ele><time>2026-04-12T09:53:11Z</time></trkpt><trkpt lat="45.38453587916814" lon="11.50452493151997"><ele>211.0</ele><time>2026-04-12T09:53:13Z</time></trkpt><trkpt lat="45.38460586109966" lon="11.50465577558577"><ele>210.99999999999997</ele><time>2026-04-12T09:53:15Z</time></trkpt><trkpt lat="45.384609101443374" lon="11.504785680668789"><ele>211.0</ele><time>2026-04-12T09:53:18Z</time></trkpt><trkpt lat="45.38455868790211" lon="11.504844496392435"><ele>211.0</ele><time>2026-04-12T09:53:19Z</time></trkpt><trkpt lat="45.38448920613211" lon="11.504930645702196"><ele>211.0</ele><time>2026-04-12T09:53:21Z</time></trkpt><trkpt lat="45.38448675046728" lon="11.505028405352006"><ele>210.99999999999997</ele><time>2026-04-12T09:53:24Z</time></trkpt><trkpt lat="45.38454543586579" lon="11.50512221846067"><ele>211.0</ele><time>2026-04-12T09:53:26Z</time></trkpt><trkpt lat="45.38451860681454" lon="11.505211817006547"><ele>210.99999999999997</ele><time>2026-04-12T09:53:29Z</time></trkpt><trkpt lat="45.38445775175082" lon="11.505247176005236"><ele>211.0</ele><time>2026-04-12T09:53:32Z</time></trkpt><trkpt lat="45.38440144565548" lon="11.505312927819979"><ele>211.0</ele><time>2026-04-12T09:53:36Z</time></trkpt><trkpt lat="45.3843420475" lon="11.505409397364218"><ele>211.0</ele><time>2026-04-12T09:53:39Z</time></trkpt><trkpt lat="45.384413553361775" lon="11.505460075500938"><ele>210.99999999999997</ele><time>2026-04-12T09:53:41Z</time></trkpt><trkpt lat="45.384479492055746" lon="11.50552162931057"><ele>211.0</ele><time>2026-04-12T09:53:43Z</time></trkpt><trkpt lat="45.38446536952653" lon="11.50561144564554"><ele>209.33333333333331</ele><time>2026-04-12T09:53:45Z</time></trkpt><trkpt lat="45.38442465112471" lon="11.50575614286541"><ele>207.66666666666666</ele><time>2026-04-12T09:53:47Z</time></trkpt><trkpt lat="45.384352023185045" lon="11.50585861223653"><ele>206.0</ele><time>2026-04-12T09:53:49Z</time></trkpt><trkpt lat="45.384335477121006" lon="11.505956315496084"><ele>204.33333333333331</ele><time>2026-04-12T09:53:52Z</time></trkpt><trkpt lat="45.38431223594242" lon="11.506059853498424"><ele>202.66666666666666</ele><time>2026-04-12T09:53:54Z</time></trkpt><trkpt lat="45.38424701053442" lon="11.506120005517415"><ele>201.0</ele><time>2026-04-12T09:53:56Z</time></trkpt><trkpt lat="45.384203205719714" lon="11.506207962678598"><ele>199.5</ele><time>2026-04-12T09:53:58Z</time></trkpt><trkpt lat="45.38415237070607" lon="11.506268243322344"><ele>198.0</ele><time>2026-04-12T09:54:00Z</time></trkpt><trkpt lat="45.38411383347146" lon="11.506378825561434"><ele>196.5</ele><time>2026-04-12T09:54:03Z</time></trkpt><trkpt lat="45.384083899933884" lon="11.506481263690185"><ele>195.0</ele><time>2026-04-12T09:54:05Z</time></trkpt><trkpt lat="45.3840373628654" lon="11.506585353825281"><ele>193.5</ele><time>2026-04-12T09:54:07Z</time></trkpt><trkpt lat="45.38402324054958" lon="11.506686473266605"><ele>192.0</ele><time>2026-04-12T09:54:09Z</time></trkpt><trkpt lat="45.38397232134817" lon="11.506798485441044"><ele>192.0</ele><time>2026-04-12T09:54:11Z</time></trkpt><trkpt lat="45.383914203192106" lon="11.506893390340286"><ele>192.0</ele><time>2026-04-12T09:54:13Z</time></trkpt><trkpt lat="45.383891731954115" lon="11.506984504895536"><ele>192.0</ele><time>2026-04-12T09:54:15Z</time></trkpt><trkpt lat="45.383845117356664" lon="11.507059823692927"><ele>192.0</ele><time>2026-04-12T09:54:17Z</time></trkpt><trkpt lat="45.38379668021127" lon="11.50713723997875"><ele>192.0</ele><time>2026-04-12T09:54:19Z</time></trkpt><trkpt lat="45.38374136986487" lon="11.507200728166344"><ele>192.0</ele><time>2026-04-12T09:54:21Z</time></trkpt><trkpt lat="45.383707861474484" lon="11.507306610931906"><ele>190.0</ele><time>2026-04-12T09:54:23Z</time></trkpt><trkpt lat="45.38374323081296" lon="11.507398966566612"><ele>188.0</ele><time>2026-04-12T09:54:25Z</time></trkpt><trkpt lat="45.383827244375496" lon="11.507456241374394"><ele>186.0</ele><time>2026-04-12T09:54:27Z</time></trkpt><trkpt lat="45.3838839719581" lon="11.507549746302589"><ele>184.0</ele><time>2026-04-12T09:54:29Z</time></trkpt><trkpt lat="45.38396679210308" lon="11.507614492756572"><ele>182.0</ele><time>2026-04-12T09:54:31Z</time></trkpt><trkpt lat="45.38407464751963" lon="11.507660768174702"><ele>182.0</ele><time>2026-04-12T09:54:33Z</time></trkpt><trkpt lat="45.38414335389602" lon="11.507680175854086"><ele>182.0</ele><time>2026-04-12T09:54:34Z</time></trkpt><trkpt lat="45.38425638616005" lon="11.507704913243083"><ele>182.0</ele><time>2026-04-12T09:54:35Z</time></trkpt><trkpt lat="45.38436248618255" lon="11.507727559254354"><ele>182.0</ele><time>2026-04-12T09:54:36Z</time></trkpt><trkpt lat="45.38445872926067" lon="11.507747926387328"><ele>182.0</ele><time>2026-04-12T09:54:37Z</time></trkpt><trkpt lat="45.384539792480446" lon="11.507749225651532"><ele>182.0</ele><time>2026-04-12T09:54:38Z</time></trkpt><trkpt lat="45.38463784656176" lon="11.50771516301755"><ele>182.0</ele><time>2026-04-12T09:54:39Z</time></trkpt><trkpt lat="45.38474182578413" lon="11.507680040269776"><ele>182.0</ele><time>2026-04-12T09:54:40Z</time></trkpt><trkpt lat="45.384841722322506" lon="11.5076537891576"><ele>182.0</ele><time>2026-04-12T09:54:41Z</time></trkpt><trkpt lat="45.38492946848741" lon="11.50759954283746"><ele>182.0</ele><time>2026-04-12T09:54:42Z</time></trkpt><trkpt lat="45.38501697819982" lon="11.50757303277814"><ele>183.16666666666666</ele><time>2026-04-12T09:54:43Z</time></trkpt><trkpt lat="45.38511989004457" lon="11.507582604418472"><ele>184.33333333333331</ele><time>2026-04-12T09:54:44Z</time></trkpt><trkpt lat="45.3852138899793" lon="11.507589247340613"><ele>185.5</ele><time>2026-04-12T09:54:45Z</time></trkpt><trkpt lat="45.3853071460196" lon="11.507596185728405"><ele>186.66666666666666</ele><time>2026-04-12T09:54:46Z</time></trkpt><trkpt lat="45.38538734700867" lon="11.507607592633542"><ele>187.83333333333334</ele><time>2026-04-12T09:54:47Z</time></trkpt><trkpt lat="45.385450426835845" lon="11.507640208268155"><ele>189.0</ele><time>2026-04-12T09:54:48Z</time></trkpt><trkpt lat="45.38553124853228" lon="11.5076573806881"><ele>190.33333333333334</ele><time>2026-04-12T09:54:49Z</time></trkpt><trkpt lat="45.38561514421893" lon="11.50767493845701"><ele>191.66666666666669</ele><time>2026-04-12T09:54:50Z</time></trkpt><trkpt lat="45.38570540050249" lon="11.507687320780859"><ele>193.0</ele><time>2026-04-12T09:54:51Z</time></trkpt><trkpt lat="45.385796458681725" lon="11.507705034948602"><ele>194.33333333333334</ele><time>2026-04-12T09:54:52Z</time></trkpt><trkpt lat="45.38588602625657" lon="11.507719342052882"><ele>195.66666666666669</ele><time>2026-04-12T09:54:53Z</time></trkpt><trkpt lat="45.38596861981312" lon="11.507743065559799"><ele>197.0</ele><time>2026-04-12T09:54:54Z</time></trkpt><trkpt lat="45.386032347334414" lon="11.5077692205541"><ele>197.0</ele><time>2026-04-12T09:54:55Z</time></trkpt><trkpt lat="45.3861319134447" lon="11.507829388169775"><ele>197.0</ele><time>2026-04-12T09:54:57Z</time></trkpt><trkpt lat="45.38620385183269" lon="11.507886521945306"><ele>197.0</ele><time>2026-04-12T09:54:59Z</time></trkpt><trkpt lat="45.38630146436306" lon="11.507956595924952"><ele>197.0</ele><time>2026-04-12T09:55:01Z</time></trkpt><trkpt lat="45.38637183953136" lon="11.508051090815368"><ele>197.0</ele><time>2026-04-12T09:55:03Z</time></trkpt><trkpt lat="45.386406726560665" lon="11.508146284161645"><ele>196.83333333333334</ele><time>2026-04-12T09:55:05Z</time></trkpt><trkpt lat="45.38643206417755" lon="11.508246710992415"><ele>196.66666666666669</ele><time>2026-04-12T09:55:07Z</time></trkpt><trkpt lat="45.38640026405085" lon="11.508413546003757"><ele>196.5</ele><time>2026-04-12T09:55:09Z</time></trkpt><trkpt lat="45.386393978934414" lon="11.508521629682784"><ele>196.33333333333331</ele><time>2026-04-12T09:55:10Z</time></trkpt><trkpt lat="45.386377122304765" lon="11.50863225235785"><ele>196.16666666666666</ele><time>2026-04-12T09:55:11Z</time></trkpt><trkpt lat="45.38637012836958" lon="11.508733865315714"><ele>196.0</ele><time>2026-04-12T09:55:12Z</time></trkpt><trkpt lat="45.38639933317632" lon="11.508841858711122"><ele>194.0</ele><time>2026-04-12T09:55:14Z</time></trkpt><trkpt lat="45.38651497223076" lon="11.508887517544503"><ele>192.0</ele><time>2026-04-12T09:55:16Z</time></trkpt><trkpt lat="45.386609364172244" lon="11.50886770810006"><ele>190.0</ele><time>2026-04-12T09:55:17Z</time></trkpt><trkpt lat="45.386690064004206" lon="11.508830591917754"><ele>188.0</ele><time>2026-04-12T09:55:18Z</time></trkpt><trkpt lat="45.38676636165016" lon="11.508802126364886"><ele>186.0</ele><time>2026-04-12T09:55:19Z</time></trkpt><trkpt lat="45.386839852365455" lon="11.508813476496114"><ele>186.0</ele><time>2026-04-12T09:55:20Z</time></trkpt><trkpt lat="45.386923652135856" lon="11.5089138420819"><ele>186.0</ele><time>2026-04-12T09:55:22Z</time></trkpt><trkpt lat="45.38696139147464" lon="11.50903367137136"><ele>186.0</ele><time>2026-04-12T09:55:24Z</time></trkpt><trkpt lat="45.38705714970991" lon="11.509099762841672"><ele>186.0</ele><time>2026-04-12T09:55:26Z</time></trkpt><trkpt lat="45.38717816476533" lon="11.509140461042703"><ele>186.0</ele><time>2026-04-12T09:55:28Z</time></trkpt><trkpt lat="45.387255899604476" lon="11.509125927106586"><ele>186.4</ele><time>2026-04-12T09:55:29Z</time></trkpt><trkpt lat="45.387326243724" lon="11.509122498924315"><ele>186.8</ele><time>2026-04-12T09:55:30Z</time></trkpt><trkpt lat="45.387399910978345" lon="11.509126279783795"><ele>187.20000000000002</ele><time>2026-04-12T09:55:31Z</time></trkpt><trkpt lat="45.387512899097985" lon="11.509121500382873"><ele>187.60000000000002</ele><time>2026-04-12T09:55:33Z</time></trkpt><trkpt lat="45.38764961581695" lon="11.509115196269121"><ele>188.0</ele><time>2026-04-12T09:55:35Z</time></trkpt><trkpt lat="45.387740940529994" lon="11.509105276061062"><ele>188.0</ele><time>2026-04-12T09:55:36Z</time></trkpt><trkpt lat="45.3878219157374" lon="11.509109953376996"><ele>188.0</ele><time>2026-04-12T09:55:37Z</time></trkpt><trkpt lat="45.38788473454935" lon="11.509123057204135"><ele>188.0</ele><time>2026-04-12T09:55:38Z</time></trkpt><trkpt lat="45.388002640005574" lon="11.509077977245088"><ele>188.0</ele><time>2026-04-12T09:55:40Z</time></trkpt><trkpt lat="45.388073812218636" lon="11.5090379295107"><ele>188.0</ele><time>2026-04-12T09:55:41Z</time></trkpt><trkpt lat="45.38814452803677" lon="11.5090231713244"><ele>188.0</ele><time>2026-04-12T09:55:42Z</time></trkpt><trkpt lat="45.38822237164549" lon="11.50902318752387"><ele>188.16666666666666</ele><time>2026-04-12T09:55:43Z</time></trkpt><trkpt lat="45.388305089509934" lon="11.50904499099187"><ele>188.33333333333331</ele><time>2026-04-12T09:55:44Z</time></trkpt><trkpt lat="45.38837448217015" lon="11.509047405659992"><ele>188.5</ele><time>2026-04-12T09:55:45Z</time></trkpt><trkpt lat="45.388446169679554" lon="11.509040556531179"><ele>188.66666666666666</ele><time>2026-04-12T09:55:46Z</time></trkpt><trkpt lat="45.388514842442994" lon="11.509018595090778"><ele>188.83333333333334</ele><time>2026-04-12T09:55:47Z</time></trkpt><trkpt lat="45.38862200831628" lon="11.50896010285387"><ele>189.0</ele><time>2026-04-12T09:55:49Z</time></trkpt><trkpt lat="45.388754446866756" lon="11.508902950870596"><ele>189.0</ele><time>2026-04-12T09:55:51Z</time></trkpt><trkpt lat="45.38883230741061" lon="11.508906948495978"><ele>189.0</ele><time>2026-04-12T09:55:52Z</time></trkpt><trkpt lat="45.388933190394965" lon="11.508924307456704"><ele>189.0</ele><time>2026-04-12T09:55:54Z</time></trkpt><trkpt lat="45.389000415733285" lon="11.508919250261059"><ele>189.0</ele><time>2026-04-12T09:55:55Z</time></trkpt><trkpt lat="45.389079353389604" lon="11.508903928985967"><ele>189.0</ele><time>2026-04-12T09:55:56Z</time></trkpt><trkpt lat="45.38914436271223" lon="11.508899370781295"><ele>189.0</ele><time>2026-04-12T09:55:57Z</time></trkpt><trkpt lat="45.389217977652706" lon="11.508912379010903"><ele>189.16666666666666</ele><time>2026-04-12T09:55:58Z</time></trkpt><trkpt lat="45.38930411378656" lon="11.508952484471841"><ele>189.33333333333334</ele><time>2026-04-12T09:55:59Z</time></trkpt><trkpt lat="45.38938726279553" lon="11.508961112776579"><ele>189.5</ele><time>2026-04-12T09:56:00Z</time></trkpt><trkpt lat="45.389461539830656" lon="11.508950998969244"><ele>189.66666666666669</ele><time>2026-04-12T09:56:01Z</time></trkpt><trkpt lat="45.38953206991294" lon="11.508946348145109"><ele>189.83333333333334</ele><time>2026-04-12T09:56:02Z</time></trkpt><trkpt lat="45.38961257493149" lon="11.50894690107614"><ele>190.0</ele><time>2026-04-12T09:56:03Z</time></trkpt><trkpt lat="45.389687015590965" lon="11.508947415103101"><ele>189.66666666666669</ele><time>2026-04-12T09:56:04Z</time></trkpt><trkpt lat="45.3898143929816" lon="11.508974069696611"><ele>189.33333333333334</ele><time>2026-04-12T09:56:06Z</time></trkpt><trkpt lat="45.38988412844655" lon="11.508983037777776"><ele>189.0</ele><time>2026-04-12T09:56:07Z</time></trkpt><trkpt lat="45.38994852707187" lon="11.508981007799873"><ele>188.66666666666666</ele><time>2026-04-12T09:56:08Z</time></trkpt><trkpt lat="45.390062946697704" lon="11.50900637120787"><ele>188.33333333333331</ele><time>2026-04-12T09:56:10Z</time></trkpt><trkpt lat="45.39012966756211" lon="11.509015185399086"><ele>188.0</ele><time>2026-04-12T09:56:11Z</time></trkpt><trkpt lat="45.390237306805176" lon="11.508998100507291"><ele>188.0</ele><time>2026-04-12T09:56:13Z</time></trkpt><trkpt lat="45.39035176645984" lon="11.508926972968439"><ele>188.0</ele><time>2026-04-12T09:56:15Z</time></trkpt><trkpt lat="45.390413209989035" lon="11.508890635810452"><ele>188.0</ele><time>2026-04-12T09:56:16Z</time></trkpt><trkpt lat="45.39047330114014" lon="11.508847415299707"><ele>188.0</ele><time>2026-04-12T09:56:17Z</time></trkpt><trkpt lat="45.390529089978216" lon="11.508804738202354"><ele>188.0</ele><time>2026-04-12T09:56:18Z</time></trkpt><trkpt lat="45.39058340589155" lon="11.50875316188761"><ele>188.0</ele><time>2026-04-12T09:56:19Z</time></trkpt><trkpt lat="45.39064818671291" lon="11.50869473840178"><ele>187.4</ele><time>2026-04-12T09:56:20Z</time></trkpt><trkpt lat="45.390739884136956" lon="11.508575778877436"><ele>186.8</ele><time>2026-04-12T09:56:22Z</time></trkpt><trkpt lat="45.39078055058101" lon="11.50848857318596"><ele>186.2</ele><time>2026-04-12T09:56:24Z</time></trkpt><trkpt lat="45.39081699571768" lon="11.50836973098987"><ele>185.6</ele><time>2026-04-12T09:56:27Z</time></trkpt><trkpt lat="45.390866824046924" lon="11.508263396686399"><ele>185.0</ele><time>2026-04-12T09:56:29Z</time></trkpt><trkpt lat="45.39092248093369" lon="11.508182881676193"><ele>185.0</ele><time>2026-04-12T09:56:31Z</time></trkpt><trkpt lat="45.39096170838958" lon="11.508100858672126"><ele>185.0</ele><time>2026-04-12T09:56:32Z</time></trkpt><trkpt lat="45.39101993809444" lon="11.508029985072277"><ele>185.0</ele><time>2026-04-12T09:57:07Z</time></trkpt><trkpt lat="45.3909522302187" lon="11.507915227253802"><ele>185.0</ele><time>2026-04-12T09:57:10Z</time></trkpt><trkpt lat="45.39094092280257" lon="11.507769724671379"><ele>185.0</ele><time>2026-04-12T09:57:12Z</time></trkpt><trkpt lat="45.39089820583219" lon="11.507655943002115"><ele>185.0</ele><time>2026-04-12T09:57:14Z</time></trkpt><trkpt lat="45.39083251878888" lon="11.507630925147648"><ele>186.33333333333331</ele><time>2026-04-12T09:57:15Z</time></trkpt><trkpt lat="45.39076743585578" lon="11.507637087443397"><ele>187.66666666666666</ele><time>2026-04-12T09:57:16Z</time></trkpt><trkpt lat="45.39070302444407" lon="11.507642556996167"><ele>189.0</ele><time>2026-04-12T09:57:17Z</time></trkpt><trkpt lat="45.39059905944573" lon="11.507662948141911"><ele>190.33333333333331</ele><time>2026-04-12T09:57:19Z</time></trkpt><trkpt lat="45.39052909852885" lon="11.507792679138975"><ele>191.66666666666666</ele><time>2026-04-12T09:57:21Z</time></trkpt><trkpt lat="45.39049650396657" lon="11.507918222921353"><ele>193.0</ele><time>2026-04-12T09:57:22Z</time></trkpt><trkpt lat="45.39045253528414" lon="11.50800609005613"><ele>195.0</ele><time>2026-04-12T09:57:23Z</time></trkpt><trkpt lat="45.390418472607976" lon="11.508095322409611"><ele>197.0</ele><time>2026-04-12T09:57:25Z</time></trkpt><trkpt lat="45.39034754590117" lon="11.50799388961365"><ele>199.0</ele><time>2026-04-12T09:57:28Z</time></trkpt><trkpt lat="45.390296819101586" lon="11.507867966524879"><ele>201.0</ele><time>2026-04-12T09:57:30Z</time></trkpt><trkpt lat="45.39022316175372" lon="11.507734205496972"><ele>203.0</ele><time>2026-04-12T09:57:33Z</time></trkpt><trkpt lat="45.390148693551886" lon="11.507788975478968"><ele>203.00000000000003</ele><time>2026-04-12T09:57:36Z</time></trkpt><trkpt lat="45.39010852069492" lon="11.507865689324946"><ele>203.0</ele><time>2026-04-12T09:57:37Z</time></trkpt><trkpt lat="45.39003885974758" lon="11.507957647016115"><ele>203.0</ele><time>2026-04-12T09:57:39Z</time></trkpt><trkpt lat="45.389959108309995" lon="11.507998581061448"><ele>203.0</ele><time>2026-04-12T09:57:40Z</time></trkpt><trkpt lat="45.389862423480544" lon="11.508041398762435"><ele>203.00000000000003</ele><time>2026-04-12T09:57:41Z</time></trkpt><trkpt lat="45.38978566984024" lon="11.508034830440094"><ele>203.0</ele><time>2026-04-12T09:57:42Z</time></trkpt><trkpt lat="45.38969940742319" lon="11.507978830785747"><ele>204.4</ele><time>2026-04-12T09:57:43Z</time></trkpt><trkpt lat="45.38962662065299" lon="11.507942120153995"><ele>205.8</ele><time>2026-04-12T09:57:44Z</time></trkpt><trkpt lat="45.389518607789974" lon="11.507879838007915"><ele>207.2</ele><time>2026-04-12T09:57:46Z</time></trkpt><trkpt lat="45.389418312981626" lon="11.50776468067701"><ele>208.6</ele><time>2026-04-12T09:57:48Z</time></trkpt><trkpt lat="45.38936388377774" lon="11.507696106632599"><ele>210.0</ele><time>2026-04-12T09:57:49Z</time></trkpt><trkpt lat="45.389274942441425" lon="11.507565427150338"><ele>212.8</ele><time>2026-04-12T09:57:51Z</time></trkpt><trkpt lat="45.389235813932224" lon="11.507463649562458"><ele>215.6</ele><time>2026-04-12T09:57:53Z</time></trkpt><trkpt lat="45.38912125952752" lon="11.5073914988317"><ele>218.39999999999998</ele><time>2026-04-12T09:57:55Z</time></trkpt><trkpt lat="45.38907736293119" lon="11.507313243293119"><ele>221.2</ele><time>2026-04-12T09:57:56Z</time></trkpt><trkpt lat="45.38907093037231" lon="11.507211891864062"><ele>224.0</ele><time>2026-04-12T09:57:57Z</time></trkpt><trkpt lat="45.38907651467923" lon="11.507066505308236"><ele>224.16666666666669</ele><time>2026-04-12T09:57:59Z</time></trkpt><trkpt lat="45.38898885068835" lon="11.506996473376475"><ele>224.33333333333334</ele><time>2026-04-12T09:58:02Z</time></trkpt><trkpt lat="45.38893123360709" lon="11.506935874671406"><ele>224.5</ele><time>2026-04-12T09:58:04Z</time></trkpt><trkpt lat="45.388820607175845" lon="11.506951620327872"><ele>224.66666666666669</ele><time>2026-04-12T09:58:07Z</time></trkpt><trkpt lat="45.388739715009905" lon="11.506917781020817"><ele>224.83333333333334</ele><time>2026-04-12T09:58:10Z</time></trkpt><trkpt lat="45.3886889543506" lon="11.506849361427935"><ele>225.0</ele><time>2026-04-12T09:58:12Z</time></trkpt><trkpt lat="45.388623883088485" lon="11.506793719863417"><ele>225.00000000000003</ele><time>2026-04-12T09:58:15Z</time></trkpt><trkpt lat="45.388553850716754" lon="11.506780141781713"><ele>225.0</ele><time>2026-04-12T09:58:18Z</time></trkpt><trkpt lat="45.38848528164312" lon="11.50676009603129"><ele>225.00000000000003</ele><time>2026-04-12T09:58:21Z</time></trkpt><trkpt lat="45.388436807864174" lon="11.506691120548519"><ele>225.00000000000003</ele><time>2026-04-12T09:58:25Z</time></trkpt><trkpt lat="45.38838382748309" lon="11.506631059893762"><ele>225.0</ele><time>2026-04-12T09:58:29Z</time></trkpt><trkpt lat="45.3884255269587" lon="11.50652291074991"><ele>225.00000000000003</ele><time>2026-04-12T09:58:33Z</time></trkpt><trkpt lat="45.388423917787414" lon="11.506405079931577"><ele>225.00000000000003</ele><time>2026-04-12T09:58:37Z</time></trkpt><trkpt lat="45.38837648589926" lon="11.506330571741481"><ele>225.8</ele><time>2026-04-12T09:58:39Z</time></trkpt><trkpt lat="45.388290789315086" lon="11.506222373890406"><ele>226.6</ele><time>2026-04-12T09:58:41Z</time></trkpt><trkpt lat="45.388258463292395" lon="11.506119859858828"><ele>227.39999999999998</ele><time>2026-04-12T09:58:42Z</time></trkpt><trkpt lat="45.38826607376096" lon="11.505978630764274"><ele>228.2</ele><time>2026-04-12T09:58:44Z</time></trkpt><trkpt lat="45.38828336765815" lon="11.505860178099038"><ele>229.0</ele><time>2026-04-12T09:58:45Z</time></trkpt><trkpt lat="45.38828635567307" lon="11.505755928042394"><ele>229.0</ele><time>2026-04-12T09:58:46Z</time></trkpt><trkpt lat="45.388301038851225" lon="11.505653484565807"><ele>228.99999999999997</ele><time>2026-04-12T09:58:48Z</time></trkpt><trkpt lat="45.38828991003085" lon="11.50554246861365"><ele>228.99999999999997</ele><time>2026-04-12T09:58:51Z</time></trkpt><trkpt lat="45.38820875317089" lon="11.505485160026211"><ele>229.0</ele><time>2026-04-12T09:58:53Z</time></trkpt><trkpt lat="45.38803413179744" lon="11.505386521027729"><ele>229.0</ele><time>2026-04-12T09:59:00Z</time></trkpt><trkpt lat="45.38793999978444" lon="11.505396388017145"><ele>231.2</ele><time>2026-04-12T09:59:01Z</time></trkpt><trkpt lat="45.38785239609294" lon="11.505400714895652"><ele>233.39999999999998</ele><time>2026-04-12T09:59:02Z</time></trkpt><trkpt lat="45.387747191835956" lon="11.505374293301744"><ele>235.6</ele><time>2026-04-12T09:59:04Z</time></trkpt><trkpt lat="45.38768151301414" lon="11.505329664748988"><ele>237.8</ele><time>2026-04-12T09:59:09Z</time></trkpt><trkpt lat="45.38756561324736" lon="11.505332253963916"><ele>240.0</ele><time>2026-04-12T09:59:11Z</time></trkpt><trkpt lat="45.38750114265252" lon="11.5053749985012"><ele>240.0</ele><time>2026-04-12T09:59:12Z</time></trkpt><trkpt lat="45.38740628692444" lon="11.505399189024633"><ele>240.0</ele><time>2026-04-12T09:59:14Z</time></trkpt><trkpt lat="45.387343151180524" lon="11.50543449875012"><ele>240.0</ele><time>2026-04-12T09:59:18Z</time></trkpt><trkpt lat="45.387391586775685" lon="11.50532937972964"><ele>240.0</ele><time>2026-04-12T09:59:24Z</time></trkpt><trkpt lat="45.38743432995945" lon="11.5052584774785"><ele>240.0</ele><time>2026-04-12T09:59:25Z</time></trkpt><trkpt lat="45.38749319646386" lon="11.505154237407291"><ele>240.0</ele><time>2026-04-12T09:59:27Z</time></trkpt><trkpt lat="45.3875746050058" lon="11.505051830261532"><ele>240.0</ele><time>2026-04-12T09:59:29Z</time></trkpt><trkpt lat="45.387664391396335" lon="11.504959817141128"><ele>240.0</ele><time>2026-04-12T09:59:31Z</time></trkpt><trkpt lat="45.387744525524035" lon="11.504821072515599"><ele>240.0</ele><time>2026-04-12T09:59:33Z</time></trkpt><trkpt lat="45.38779424266202" lon="11.504744695946595"><ele>240.0</ele><time>2026-04-12T09:59:34Z</time></trkpt><trkpt lat="45.387844590294215" lon="11.504675162465865"><ele>240.0</ele><time>2026-04-12T09:59:35Z</time></trkpt><trkpt lat="45.387916977152955" lon="11.504570209577011"><ele>242.0</ele><time>2026-04-12T09:59:37Z</time></trkpt><trkpt lat="45.38794870508657" lon="11.504405781845657"><ele>244.0</ele><time>2026-04-12T09:59:39Z</time></trkpt><trkpt lat="45.38791354469692" lon="11.50432589596653"><ele>246.0</ele><time>2026-04-12T09:59:40Z</time></trkpt><trkpt lat="45.387935730371694" lon="11.504171984214606"><ele>248.0</ele><time>2026-04-12T09:59:41Z</time></trkpt><trkpt lat="45.38795707896561" lon="11.504072922555189"><ele>250.0</ele><time>2026-04-12T09:59:42Z</time></trkpt><trkpt lat="45.38797178812606" lon="11.503963777803719"><ele>252.0</ele><time>2026-04-12T09:59:43Z</time></trkpt><trkpt lat="45.38798345987153" lon="11.503856251879437"><ele>253.2</ele><time>2026-04-12T09:59:44Z</time></trkpt><trkpt lat="45.387997117721724" lon="11.503708075049376"><ele>254.39999999999998</ele><time>2026-04-12T09:59:46Z</time></trkpt><trkpt lat="45.38802956127551" lon="11.503552125934943"><ele>255.60000000000002</ele><time>2026-04-12T09:59:48Z</time></trkpt><trkpt lat="45.38802346083577" lon="11.50341489323539"><ele>256.8</ele><time>2026-04-12T09:59:50Z</time></trkpt><trkpt lat="45.38802009223696" lon="11.503244195213146"><ele>258.0</ele><time>2026-04-12T09:59:52Z</time></trkpt><trkpt lat="45.38796960201657" lon="11.503083734867934"><ele>258.0</ele><time>2026-04-12T09:59:54Z</time></trkpt><trkpt lat="45.38793206283036" lon="11.502915784927874"><ele>258.0</ele><time>2026-04-12T09:59:56Z</time></trkpt><trkpt lat="45.387906271448855" lon="11.50283358310744"><ele>258.0</ele><time>2026-04-12T09:59:57Z</time></trkpt><trkpt lat="45.387885692960026" lon="11.502714102896357"><ele>258.0</ele><time>2026-04-12T09:59:58Z</time></trkpt><trkpt lat="45.38786432035057" lon="11.502545026299888"><ele>258.0</ele><time>2026-04-12T09:59:59Z</time></trkpt><trkpt lat="45.38784681624563" lon="11.502401166749655"><ele>257.0</ele><time>2026-04-12T10:00:00Z</time></trkpt><trkpt lat="45.387831394929705" lon="11.502261434861405"><ele>256.0</ele><time>2026-04-12T10:00:01Z</time></trkpt><trkpt lat="45.387821180086625" lon="11.502115840358059"><ele>255.0</ele><time>2026-04-12T10:00:02Z</time></trkpt><trkpt lat="45.38780609123245" lon="11.501981701458698"><ele>254.0</ele><time>2026-04-12T10:00:03Z</time></trkpt><trkpt lat="45.38779133076938" lon="11.501858221127353"><ele>253.0</ele><time>2026-04-12T10:00:04Z</time></trkpt><trkpt lat="45.38777648724526" lon="11.501756499739724"><ele>251.8</ele><time>2026-04-12T10:00:05Z</time></trkpt><trkpt lat="45.38775704642438" lon="11.501648597845701"><ele>250.60000000000002</ele><time>2026-04-12T10:00:07Z</time></trkpt><trkpt lat="45.38790538480731" lon="11.501619155258313"><ele>249.39999999999998</ele><time>2026-04-12T10:00:13Z</time></trkpt><trkpt lat="45.387970674718105" lon="11.501580301647621"><ele>248.2</ele><time>2026-04-12T10:00:16Z</time></trkpt><trkpt lat="45.38802338754234" lon="11.5015026572625"><ele>247.0</ele><time>2026-04-12T10:00:18Z</time></trkpt><trkpt lat="45.388271403845" lon="11.501449360162455"><ele>246.0</ele><time>2026-04-12T10:00:24Z</time></trkpt><trkpt lat="45.38834871924029" lon="11.501372735855336"><ele>245.0</ele><time>2026-04-12T10:00:26Z</time></trkpt><trkpt lat="45.38848733103774" lon="11.501346897600815"><ele>244.0</ele><time>2026-04-12T10:00:29Z</time></trkpt><trkpt lat="45.38853817529964" lon="11.501283867442588"><ele>243.0</ele><time>2026-04-12T10:00:31Z</time></trkpt><trkpt lat="45.38857933532656" lon="11.501159444280301"><ele>242.0</ele><time>2026-04-12T10:00:33Z</time></trkpt><trkpt lat="45.388627508686696" lon="11.50107987834999"><ele>242.0</ele><time>2026-04-12T10:00:34Z</time></trkpt><trkpt lat="45.38870030996341" lon="11.500998405611552"><ele>242.0</ele><time>2026-04-12T10:00:36Z</time></trkpt><trkpt lat="45.38874998863417" lon="11.50089966947449"><ele>242.0</ele><time>2026-04-12T10:00:38Z</time></trkpt><trkpt lat="45.388814419396915" lon="11.500804853415913"><ele>242.0</ele><time>2026-04-12T10:00:40Z</time></trkpt><trkpt lat="45.38903951123688" lon="11.500766809060126"><ele>239.0</ele><time>2026-04-12T10:00:45Z</time></trkpt><trkpt lat="45.38912807485183" lon="11.500749370564344"><ele>236.0</ele><time>2026-04-12T10:00:46Z</time></trkpt><trkpt lat="45.389245222737465" lon="11.50076968824703"><ele>233.0</ele><time>2026-04-12T10:00:47Z</time></trkpt><trkpt lat="45.38939357122697" lon="11.50078366774723"><ele>230.0</ele><time>2026-04-12T10:00:48Z</time></trkpt><trkpt lat="45.38948555860454" lon="11.500764386765226"><ele>227.0</ele><time>2026-04-12T10:00:49Z</time></trkpt><trkpt lat="45.38953697051925" lon="11.500705921591168"><ele>227.0</ele><time>2026-04-12T10:00:50Z</time></trkpt><trkpt lat="45.38954940364305" lon="11.500496907857421"><ele>227.0</ele><time>2026-04-12T10:00:52Z</time></trkpt><trkpt lat="45.38954433535572" lon="11.500360042744903"><ele>227.0</ele><time>2026-04-12T10:00:53Z</time></trkpt><trkpt lat="45.38954512861281" lon="11.500246490601297"><ele>227.0</ele><time>2026-04-12T10:00:54Z</time></trkpt><trkpt lat="45.389545992865486" lon="11.500142022579276"><ele>227.0</ele><time>2026-04-12T10:00:55Z</time></trkpt><trkpt lat="45.38953558737601" lon="11.500029791958628"><ele>227.16666666666669</ele><time>2026-04-12T10:00:56Z</time></trkpt><trkpt lat="45.38953480289086" lon="11.499930276136444"><ele>227.33333333333334</ele><time>2026-04-12T10:00:57Z</time></trkpt><trkpt lat="45.38956728271419" lon="11.499815050279725"><ele>227.5</ele><time>2026-04-12T10:00:58Z</time></trkpt><trkpt lat="45.38959564907741" lon="11.499668759469664"><ele>227.66666666666669</ele><time>2026-04-12T10:00:59Z</time></trkpt><trkpt lat="45.389646393689105" lon="11.499553962383942"><ele>227.83333333333334</ele><time>2026-04-12T10:01:00Z</time></trkpt><trkpt lat="45.38968370971847" lon="11.49948082788748"><ele>228.0</ele><time>2026-04-12T10:01:01Z</time></trkpt><trkpt lat="45.389736349927574" lon="11.499368016302096"><ele>228.2</ele><time>2026-04-12T10:01:02Z</time></trkpt><trkpt lat="45.389787690093286" lon="11.499240932340937"><ele>228.4</ele><time>2026-04-12T10:01:03Z</time></trkpt><trkpt lat="45.38983538750392" lon="11.499117521318857"><ele>228.59999999999997</ele><time>2026-04-12T10:01:04Z</time></trkpt><trkpt lat="45.38989692499098" lon="11.498993217345726"><ele>228.79999999999998</ele><time>2026-04-12T10:01:05Z</time></trkpt><trkpt lat="45.38996179281121" lon="11.49885299247668"><ele>229.0</ele><time>2026-04-12T10:01:06Z</time></trkpt><trkpt lat="45.389987142679544" lon="11.498720655058873"><ele>228.99999999999997</ele><time>2026-04-12T10:01:07Z</time></trkpt><trkpt lat="45.389997395873216" lon="11.498588104513338"><ele>229.0</ele><time>2026-04-12T10:01:08Z</time></trkpt><trkpt lat="45.389989251026456" lon="11.498456856007662"><ele>229.0</ele><time>2026-04-12T10:01:09Z</time></trkpt><trkpt lat="45.38996759655142" lon="11.498335345893354"><ele>229.0</ele><time>2026-04-12T10:01:10Z</time></trkpt><trkpt lat="45.389938675585135" lon="11.498200669656454"><ele>228.99999999999997</ele><time>2026-04-12T10:01:11Z</time></trkpt><trkpt lat="45.389915781316674" lon="11.498115056591669"><ele>229.0</ele><time>2026-04-12T10:01:12Z</time></trkpt><trkpt lat="45.38986262443718" lon="11.497980110640597"><ele>228.79999999999998</ele><time>2026-04-12T10:01:14Z</time></trkpt><trkpt lat="45.389800146961335" lon="11.497864922545661"><ele>228.59999999999997</ele><time>2026-04-12T10:01:16Z</time></trkpt><trkpt lat="45.389739182598554" lon="11.497715422025898"><ele>228.4</ele><time>2026-04-12T10:01:18Z</time></trkpt><trkpt lat="45.38968023793758" lon="11.497569280104715"><ele>228.2</ele><time>2026-04-12T10:01:20Z</time></trkpt><trkpt lat="45.38963592131831" lon="11.497490922095132"><ele>228.0</ele><time>2026-04-12T10:01:21Z</time></trkpt><trkpt lat="45.389601427919835" lon="11.497412285744032"><ele>228.0</ele><time>2026-04-12T10:01:22Z</time></trkpt><trkpt lat="45.38956100869119" lon="11.497324942862063"><ele>228.0</ele><time>2026-04-12T10:01:23Z</time></trkpt><trkpt lat="45.38954066704038" lon="11.497214143667811"><ele>228.0</ele><time>2026-04-12T10:01:24Z</time></trkpt><trkpt lat="45.38950083409034" lon="11.497110538674994"><ele>228.0</ele><time>2026-04-12T10:01:25Z</time></trkpt><trkpt lat="45.389472637331664" lon="11.497010589137627"><ele>228.0</ele><time>2026-04-12T10:01:26Z</time></trkpt><trkpt lat="45.38945728064305" lon="11.496909799184033"><ele>228.0</ele><time>2026-04-12T10:01:27Z</time></trkpt><trkpt lat="45.38943297868346" lon="11.49680341500404"><ele>227.7142857142857</ele><time>2026-04-12T10:01:28Z</time></trkpt><trkpt lat="45.38941994714103" lon="11.49669831173048"><ele>227.4285714285714</ele><time>2026-04-12T10:01:29Z</time></trkpt><trkpt lat="45.38940441395732" lon="11.496602285520066"><ele>227.14285714285714</ele><time>2026-04-12T10:01:30Z</time></trkpt><trkpt lat="45.38939518391802" lon="11.496501794829934"><ele>226.85714285714283</ele><time>2026-04-12T10:01:31Z</time></trkpt><trkpt lat="45.38938961358437" lon="11.496410999306843"><ele>226.57142857142856</ele><time>2026-04-12T10:01:32Z</time></trkpt><trkpt lat="45.38936569946751" lon="11.496322161050868"><ele>226.28571428571428</ele><time>2026-04-12T10:01:34Z</time></trkpt><trkpt lat="45.38944033866793" lon="11.496399683298995"><ele>226.0</ele><time>2026-04-12T10:01:38Z</time></trkpt><trkpt lat="45.3894778524853" lon="11.496478261811921"><ele>225.99999999999997</ele><time>2026-04-12T10:01:39Z</time></trkpt><trkpt lat="45.389514959833015" lon="11.496557313918919"><ele>226.0</ele><time>2026-04-12T10:01:40Z</time></trkpt><trkpt lat="45.3895783635632" lon="11.496641534650342"><ele>226.0</ele><time>2026-04-12T10:01:41Z</time></trkpt><trkpt lat="45.38967728664938" lon="11.496646070952602"><ele>226.0</ele><time>2026-04-12T10:01:43Z</time></trkpt><trkpt lat="45.38975689963088" lon="11.496575322092148"><ele>225.99999999999997</ele><time>2026-04-12T10:01:45Z</time></trkpt><trkpt lat="45.38981795663444" lon="11.496509236063257"><ele>226.0</ele><time>2026-04-12T10:01:47Z</time></trkpt><trkpt lat="45.3898826571285" lon="11.49647015117931"><ele>229.0</ele><time>2026-04-12T10:01:49Z</time></trkpt><trkpt lat="45.3899752288079" lon="11.496423478952895"><ele>232.00000000000003</ele><time>2026-04-12T10:01:52Z</time></trkpt><trkpt lat="45.390059024774125" lon="11.496370504794797"><ele>235.00000000000003</ele><time>2026-04-12T10:01:54Z</time></trkpt><trkpt lat="45.39018896932121" lon="11.496382925710048"><ele>238.0</ele><time>2026-04-12T10:01:56Z</time></trkpt><trkpt lat="45.390267535486814" lon="11.49636141442556"><ele>241.0</ele><time>2026-04-12T10:01:57Z</time></trkpt><trkpt lat="45.390340847658635" lon="11.49632543107072"><ele>241.0</ele><time>2026-04-12T10:01:58Z</time></trkpt><trkpt lat="45.39043579844671" lon="11.496290739295572"><ele>241.00000000000003</ele><time>2026-04-12T10:02:00Z</time></trkpt><trkpt lat="45.390560141359835" lon="11.496278980083066"><ele>241.00000000000003</ele><time>2026-04-12T10:02:02Z</time></trkpt><trkpt lat="45.39064429501048" lon="11.496265257327416"><ele>241.0</ele><time>2026-04-12T10:02:03Z</time></trkpt><trkpt lat="45.390724229304176" lon="11.496214243115332"><ele>241.0</ele><time>2026-04-12T10:02:04Z</time></trkpt><trkpt lat="45.390790261796454" lon="11.496173674191192"><ele>244.0</ele><time>2026-04-12T10:02:06Z</time></trkpt><trkpt lat="45.39088281211652" lon="11.4963202119028"><ele>247.00000000000003</ele><time>2026-04-12T10:02:08Z</time></trkpt><trkpt lat="45.3909518953322" lon="11.496384117030141"><ele>250.00000000000003</ele><time>2026-04-12T10:02:09Z</time></trkpt><trkpt lat="45.39101924282443" lon="11.496424311297408"><ele>253.0</ele><time>2026-04-12T10:02:10Z</time></trkpt><trkpt lat="45.39107892551017" lon="11.496461441417988"><ele>256.0</ele><time>2026-04-12T10:02:11Z</time></trkpt><trkpt lat="45.391187911076514" lon="11.496552344023563"><ele>256.0</ele><time>2026-04-12T10:02:13Z</time></trkpt><trkpt lat="45.39126937594874" lon="11.496614389953907"><ele>256.0</ele><time>2026-04-12T10:02:14Z</time></trkpt><trkpt lat="45.39134041087499" lon="11.496663575839289"><ele>256.0</ele><time>2026-04-12T10:02:15Z</time></trkpt><trkpt lat="45.391381913524654" lon="11.496871993204266"><ele>256.0</ele><time>2026-04-12T10:02:17Z</time></trkpt><trkpt lat="45.39140072233731" lon="11.49704489910151"><ele>256.0</ele><time>2026-04-12T10:02:18Z</time></trkpt><trkpt lat="45.39142246945082" lon="11.497164062107588"><ele>256.5</ele><time>2026-04-12T10:02:19Z</time></trkpt><trkpt lat="45.391439351759125" lon="11.497250922919394"><ele>257.0</ele><time>2026-04-12T10:02:20Z</time></trkpt><trkpt lat="45.39146565305049" lon="11.497343371563682"><ele>257.5</ele><time>2026-04-12T10:02:24Z</time></trkpt><trkpt lat="45.39143938336913" lon="11.497434129306898"><ele>258.0</ele><time>2026-04-12T10:02:26Z</time></trkpt><trkpt lat="45.39134476376637" lon="11.49750343320412"><ele>258.5</ele><time>2026-04-12T10:02:28Z</time></trkpt><trkpt lat="45.391262234408536" lon="11.497629323684171"><ele>259.0</ele><time>2026-04-12T10:02:30Z</time></trkpt><trkpt lat="45.391204607514815" lon="11.497760381304015"><ele>258.0</ele><time>2026-04-12T10:02:32Z</time></trkpt><trkpt lat="45.39118074900193" lon="11.497912325729493"><ele>257.0</ele><time>2026-04-12T10:02:34Z</time></trkpt><trkpt lat="45.39119401951483" lon="11.498008999218923"><ele>256.0</ele><time>2026-04-12T10:02:35Z</time></trkpt><trkpt lat="45.39122079918838" lon="11.49814342785673"><ele>255.0</ele><time>2026-04-12T10:02:37Z</time></trkpt><trkpt lat="45.39126081970614" lon="11.498257323410966"><ele>253.99999999999997</ele><time>2026-04-12T10:02:40Z</time></trkpt><trkpt lat="45.39132200410233" lon="11.498330983361472"><ele>253.0</ele><time>2026-04-12T10:02:42Z</time></trkpt><trkpt lat="45.39139416212906" lon="11.498379969056154"><ele>251.8</ele><time>2026-04-12T10:02:45Z</time></trkpt><trkpt lat="45.39145066635054" lon="11.498453054113472"><ele>250.60000000000002</ele><time>2026-04-12T10:02:49Z</time></trkpt><trkpt lat="45.39140970479578" lon="11.498599319802162"><ele>249.39999999999998</ele><time>2026-04-12T10:02:51Z</time></trkpt><trkpt lat="45.39135292138544" lon="11.498702835691393"><ele>248.2</ele><time>2026-04-12T10:02:53Z</time></trkpt><trkpt lat="45.391320221745865" lon="11.498808704881645"><ele>247.0</ele><time>2026-04-12T10:02:55Z</time></trkpt><trkpt lat="45.39127816871028" lon="11.498967379543423"><ele>246.99999999999997</ele><time>2026-04-12T10:02:57Z</time></trkpt><trkpt lat="45.39126286026426" lon="11.499059100134573"><ele>247.0</ele><time>2026-04-12T10:02:58Z</time></trkpt><trkpt lat="45.3911872331778" lon="11.499202962000806"><ele>247.0</ele><time>2026-04-12T10:03:00Z</time></trkpt><trkpt lat="45.39115640887641" lon="11.499282881417907"><ele>247.0</ele><time>2026-04-12T10:03:01Z</time></trkpt><trkpt lat="45.39110670546821" lon="11.499371893423975"><ele>246.99999999999997</ele><time>2026-04-12T10:03:03Z</time></trkpt><trkpt lat="45.39101078305528" lon="11.499399935043161"><ele>247.0</ele><time>2026-04-12T10:03:05Z</time></trkpt><trkpt lat="45.390937550914444" lon="11.499346441813893"><ele>247.0</ele><time>2026-04-12T10:03:06Z</time></trkpt><trkpt lat="45.3908097327025" lon="11.499354789246853"><ele>247.0</ele><time>2026-04-12T10:03:08Z</time></trkpt><trkpt lat="45.390761369305174" lon="11.499478354372544"><ele>247.0</ele><time>2026-04-12T10:03:11Z</time></trkpt><trkpt lat="45.39065879962501" lon="11.499564779296385"><ele>247.0</ele><time>2026-04-12T10:03:13Z</time></trkpt><trkpt lat="45.390584775260685" lon="11.499695329132068"><ele>246.83333333333331</ele><time>2026-04-12T10:03:14Z</time></trkpt><trkpt lat="45.390514460902104" lon="11.499809199272038"><ele>246.66666666666666</ele><time>2026-04-12T10:03:15Z</time></trkpt><trkpt lat="45.390455091793974" lon="11.4999036015303"><ele>246.5</ele><time>2026-04-12T10:03:16Z</time></trkpt><trkpt lat="45.39039665290238" lon="11.4999812861605"><ele>246.33333333333331</ele><time>2026-04-12T10:03:17Z</time></trkpt><trkpt lat="45.39034331565856" lon="11.500060912356693"><ele>246.16666666666666</ele><time>2026-04-12T10:03:18Z</time></trkpt><trkpt lat="45.39030076668673" lon="11.500144633414003"><ele>246.0</ele><time>2026-04-12T10:03:19Z</time></trkpt><trkpt lat="45.390292067813064" lon="11.500250030573213"><ele>244.4</ele><time>2026-04-12T10:03:20Z</time></trkpt><trkpt lat="45.390308387754374" lon="11.50039444050462"><ele>242.8</ele><time>2026-04-12T10:03:22Z</time></trkpt><trkpt lat="45.39026562549133" lon="11.500503386730923"><ele>241.20000000000002</ele><time>2026-04-12T10:03:24Z</time></trkpt><trkpt lat="45.390266585372075" lon="11.500647234469238"><ele>239.60000000000002</ele><time>2026-04-12T10:03:26Z</time></trkpt><trkpt lat="45.390300514490285" lon="11.500726195772563"><ele>238.0</ele><time>2026-04-12T10:03:27Z</time></trkpt><trkpt lat="45.39040094367432" lon="11.500843514907261"><ele>237.8</ele><time>2026-04-12T10:03:29Z</time></trkpt><trkpt lat="45.39050354418888" lon="11.500938891092511"><ele>237.60000000000002</ele><time>2026-04-12T10:03:31Z</time></trkpt><trkpt lat="45.390572242243536" lon="11.500987645679011"><ele>237.39999999999998</ele><time>2026-04-12T10:03:32Z</time></trkpt><trkpt lat="45.390646449132056" lon="11.501046329980058"><ele>237.2</ele><time>2026-04-12T10:03:33Z</time></trkpt><trkpt lat="45.390704233214244" lon="11.50110687577091"><ele>237.0</ele><time>2026-04-12T10:03:34Z</time></trkpt><trkpt lat="45.39075119329501" lon="11.501242658118972"><ele>237.0</ele><time>2026-04-12T10:03:36Z</time></trkpt><trkpt lat="45.39073688772757" lon="11.501332959509153"><ele>237.0</ele><time>2026-04-12T10:03:38Z</time></trkpt><trkpt lat="45.39076769496986" lon="11.50141905927637"><ele>237.0</ele><time>2026-04-12T10:03:41Z</time></trkpt><trkpt lat="45.39081527122549" lon="11.501324497076675"><ele>237.0</ele><time>2026-04-12T10:03:45Z</time></trkpt><trkpt lat="45.390844644984185" lon="11.5011849524904"><ele>237.0</ele><time>2026-04-12T10:03:47Z</time></trkpt><trkpt lat="45.39089119135505" lon="11.501065803904838"><ele>237.0</ele><time>2026-04-12T10:03:49Z</time></trkpt><trkpt lat="45.39096329235014" lon="11.500971392323276"><ele>237.0</ele><time>2026-04-12T10:03:51Z</time></trkpt><trkpt lat="45.39102265150265" lon="11.500868731972758"><ele>237.0</ele><time>2026-04-12T10:03:53Z</time></trkpt><trkpt lat="45.39106968110619" lon="11.500796893621294"><ele>237.0</ele><time>2026-04-12T10:03:55Z</time></trkpt><trkpt lat="45.39113185267922" lon="11.500669911276768"><ele>237.0</ele><time>2026-04-12T10:03:57Z</time></trkpt><trkpt lat="45.391194078375285" lon="11.50054640684421"><ele>237.0</ele><time>2026-04-12T10:03:59Z</time></trkpt><trkpt lat="45.39127098103587" lon="11.50039729765196"><ele>239.25</ele><time>2026-04-12T10:04:01Z</time></trkpt><trkpt lat="45.39133013076262" lon="11.500229185067347"><ele>241.5</ele><time>2026-04-12T10:04:03Z</time></trkpt><trkpt lat="45.391410651928844" lon="11.500077101375464"><ele>243.75</ele><time>2026-04-12T10:04:05Z</time></trkpt><trkpt lat="45.39148167057329" lon="11.499945854679973"><ele>246.0</ele><time>2026-04-12T10:04:07Z</time></trkpt><trkpt lat="45.39154609613233" lon="11.49977833504957"><ele>243.4</ele><time>2026-04-12T10:04:09Z</time></trkpt><trkpt lat="45.39158490732639" lon="11.499695904928753"><ele>240.8</ele><time>2026-04-12T10:04:10Z</time></trkpt><trkpt lat="45.391656710369595" lon="11.499553469842002"><ele>238.20000000000002</ele><time>2026-04-12T10:04:12Z</time></trkpt><trkpt lat="45.39170380329787" lon="11.499474614760594"><ele>235.60000000000002</ele><time>2026-04-12T10:04:13Z</time></trkpt><trkpt lat="45.3917428351592" lon="11.499393579696594"><ele>233.0</ele><time>2026-04-12T10:04:14Z</time></trkpt><trkpt lat="45.39182704581967" lon="11.499263980560215"><ele>233.0</ele><time>2026-04-12T10:04:16Z</time></trkpt><trkpt lat="45.39190004941154" lon="11.499137924468714"><ele>233.0</ele><time>2026-04-12T10:04:18Z</time></trkpt><trkpt lat="45.39195526151347" lon="11.499040523644984"><ele>233.0</ele><time>2026-04-12T10:04:20Z</time></trkpt><trkpt lat="45.39203682429199" lon="11.498933719979057"><ele>233.0</ele><time>2026-04-12T10:04:22Z</time></trkpt><trkpt lat="45.392091698494454" lon="11.498836945638649"><ele>233.0</ele><time>2026-04-12T10:04:24Z</time></trkpt><trkpt lat="45.39215824369815" lon="11.498747604961466"><ele>229.50000000000003</ele><time>2026-04-12T10:04:26Z</time></trkpt><trkpt lat="45.39221332643124" lon="11.498653130578003"><ele>226.0</ele><time>2026-04-12T10:04:28Z</time></trkpt><trkpt lat="45.3922533601192" lon="11.498583060635946"><ele>222.5</ele><time>2026-04-12T10:04:31Z</time></trkpt><trkpt lat="45.39231284097752" lon="11.498508280540035"><ele>219.0</ele><time>2026-04-12T10:04:34Z</time></trkpt><trkpt lat="45.39236546549563" lon="11.49843562278732"><ele>215.50000000000003</ele><time>2026-04-12T10:04:36Z</time></trkpt><trkpt lat="45.39240671146957" lon="11.498362683957815"><ele>212.0</ele><time>2026-04-12T10:04:38Z</time></trkpt><trkpt lat="45.39248656387286" lon="11.498295281896349"><ele>212.0</ele><time>2026-04-12T10:04:41Z</time></trkpt><trkpt lat="45.39253617258227" lon="11.498199989230356"><ele>212.0</ele><time>2026-04-12T10:04:45Z</time></trkpt><trkpt lat="45.392607519745056" lon="11.498077285740353"><ele>212.0</ele><time>2026-04-12T10:04:49Z</time></trkpt><trkpt lat="45.39268229928006" lon="11.49797502000286"><ele>212.0</ele><time>2026-04-12T10:04:51Z</time></trkpt><trkpt lat="45.39276115180593" lon="11.497885916406178"><ele>212.0</ele><time>2026-04-12T10:04:53Z</time></trkpt><trkpt lat="45.39283047473205" lon="11.497783165327272"><ele>209.16666666666669</ele><time>2026-04-12T10:04:55Z</time></trkpt><trkpt lat="45.39291250194305" lon="11.497688907564267"><ele>206.33333333333334</ele><time>2026-04-12T10:04:57Z</time></trkpt><trkpt lat="45.39296247518465" lon="11.497622878778511"><ele>203.5</ele><time>2026-04-12T10:04:58Z</time></trkpt><trkpt lat="45.393024956489754" lon="11.497556786002454"><ele>200.66666666666669</ele><time>2026-04-12T10:04:59Z</time></trkpt><trkpt lat="45.39308710777828" lon="11.497512736499258"><ele>197.83333333333334</ele><time>2026-04-12T10:05:00Z</time></trkpt><trkpt lat="45.39318033857095" lon="11.49742419291217"><ele>195.0</ele><time>2026-04-12T10:05:02Z</time></trkpt><trkpt lat="45.39325387579742" lon="11.497349271813654"><ele>195.0</ele><time>2026-04-12T10:05:04Z</time></trkpt><trkpt lat="45.393313107378006" lon="11.497272476720413"><ele>195.0</ele><time>2026-04-12T10:05:06Z</time></trkpt><trkpt lat="45.393378319086516" lon="11.497214247416359"><ele>195.0</ele><time>2026-04-12T10:05:08Z</time></trkpt><trkpt lat="45.39345395155028" lon="11.497185403325195"><ele>195.0</ele><time>2026-04-12T10:05:10Z</time></trkpt><trkpt lat="45.39352654710454" lon="11.497099780939706"><ele>195.0</ele><time>2026-04-12T10:05:14Z</time></trkpt><trkpt lat="45.39358229224622" lon="11.497041083483388"><ele>195.0</ele><time>2026-04-12T10:05:16Z</time></trkpt><trkpt lat="45.393656644188965" lon="11.496957680765755"><ele>192.4</ele><time>2026-04-12T10:05:18Z</time></trkpt><trkpt lat="45.39374576725843" lon="11.496868138073884"><ele>189.8</ele><time>2026-04-12T10:05:20Z</time></trkpt><trkpt lat="45.39378536913771" lon="11.496785241911782"><ele>187.2</ele><time>2026-04-12T10:05:21Z</time></trkpt><trkpt lat="45.39383730535257" lon="11.496642823438046"><ele>184.6</ele><time>2026-04-12T10:05:23Z</time></trkpt><trkpt lat="45.393894161225575" lon="11.496519792731991"><ele>182.0</ele><time>2026-04-12T10:05:25Z</time></trkpt><trkpt lat="45.39397332197158" lon="11.496398597937777"><ele>182.0</ele><time>2026-04-12T10:05:27Z</time></trkpt><trkpt lat="45.39399746657043" lon="11.49630743371694"><ele>182.0</ele><time>2026-04-12T10:05:29Z</time></trkpt><trkpt lat="45.39401913948493" lon="11.496186284680919"><ele>182.0</ele><time>2026-04-12T10:05:31Z</time></trkpt><trkpt lat="45.3940296481234" lon="11.496089443085602"><ele>182.0</ele><time>2026-04-12T10:05:33Z</time></trkpt><trkpt lat="45.39407758786603" lon="11.495974659452045"><ele>182.0</ele><time>2026-04-12T10:05:38Z</time></trkpt><trkpt lat="45.3941255334245" lon="11.495842664828633"><ele>182.0</ele><time>2026-04-12T10:05:40Z</time></trkpt><trkpt lat="45.394169005906384" lon="11.495737356950517"><ele>182.5</ele><time>2026-04-12T10:05:42Z</time></trkpt><trkpt lat="45.39424083793699" lon="11.49559551942495"><ele>183.0</ele><time>2026-04-12T10:05:44Z</time></trkpt><trkpt lat="45.39424300141858" lon="11.495404182427496"><ele>183.5</ele><time>2026-04-12T10:05:46Z</time></trkpt><trkpt lat="45.39427568887575" lon="11.495255955968627"><ele>184.0</ele><time>2026-04-12T10:05:48Z</time></trkpt><trkpt lat="45.39436228476198" lon="11.495196064676966"><ele>184.0</ele><time>2026-04-12T10:05:50Z</time></trkpt><trkpt lat="45.394489958214194" lon="11.495248777487728"><ele>184.0</ele><time>2026-04-12T10:05:52Z</time></trkpt><trkpt lat="45.39456352597157" lon="11.495299870613046"><ele>184.0</ele><time>2026-04-12T10:05:53Z</time></trkpt><trkpt lat="45.39461707993074" lon="11.495359927121353"><ele>184.0</ele><time>2026-04-12T10:05:54Z</time></trkpt><trkpt lat="45.39466641370579" lon="11.4954419413699"><ele>184.0</ele><time>2026-04-12T10:05:55Z</time></trkpt><trkpt lat="45.39472908284831" lon="11.495525232042857"><ele>184.0</ele><time>2026-04-12T10:05:56Z</time></trkpt><trkpt lat="45.39478985963765" lon="11.495579385133826"><ele>182.16666666666669</ele><time>2026-04-12T10:05:57Z</time></trkpt><trkpt lat="45.39484638884006" lon="11.495628431020526"><ele>180.33333333333334</ele><time>2026-04-12T10:05:58Z</time></trkpt><trkpt lat="45.39490863767441" lon="11.495683803628113"><ele>178.5</ele><time>2026-04-12T10:05:59Z</time></trkpt><trkpt lat="45.394983148936205" lon="11.495749145325805"><ele>176.66666666666666</ele><time>2026-04-12T10:06:00Z</time></trkpt><trkpt lat="45.39506230977831" lon="11.49580510153173"><ele>174.83333333333331</ele><time>2026-04-12T10:06:01Z</time></trkpt><trkpt lat="45.395135204915114" lon="11.495851353158285"><ele>173.0</ele><time>2026-04-12T10:06:02Z</time></trkpt><trkpt lat="45.39520962840132" lon="11.495889139815908"><ele>173.0</ele><time>2026-04-12T10:06:03Z</time></trkpt><trkpt lat="45.3952791981599" lon="11.495931582988224"><ele>173.0</ele><time>2026-04-12T10:06:04Z</time></trkpt><trkpt lat="45.3953558043023" lon="11.495985348094843"><ele>173.0</ele><time>2026-04-12T10:06:05Z</time></trkpt><trkpt lat="45.39544218567554" lon="11.49604931811625"><ele>173.0</ele><time>2026-04-12T10:06:06Z</time></trkpt><trkpt lat="45.395538405972815" lon="11.496111821074521"><ele>173.0</ele><time>2026-04-12T10:06:07Z</time></trkpt><trkpt lat="45.39564150384258" lon="11.496163489605276"><ele>173.75</ele><time>2026-04-12T10:06:08Z</time></trkpt><trkpt lat="45.3957534044275" lon="11.496194616234046"><ele>174.5</ele><time>2026-04-12T10:06:09Z</time></trkpt><trkpt lat="45.395890513337015" lon="11.496202347684989"><ele>175.25</ele><time>2026-04-12T10:06:10Z</time></trkpt><trkpt lat="45.39603549112557" lon="11.496180428719171"><ele>176.0</ele><time>2026-04-12T10:06:11Z</time></trkpt><trkpt lat="45.396158061457186" lon="11.496155363854886"><ele>176.0</ele><time>2026-04-12T10:06:12Z</time></trkpt><trkpt lat="45.39626820787031" lon="11.496154086780304"><ele>176.0</ele><time>2026-04-12T10:06:13Z</time></trkpt><trkpt lat="45.39637012735851" lon="11.49620015561509"><ele>176.0</ele><time>2026-04-12T10:06:14Z</time></trkpt><trkpt lat="45.39647733573312" lon="11.49627787959234"><ele>176.0</ele><time>2026-04-12T10:06:15Z</time></trkpt><trkpt lat="45.396575944883644" lon="11.49636210261131"><ele>177.0</ele><time>2026-04-12T10:06:16Z</time></trkpt><trkpt lat="45.39665875245813" lon="11.49644015746677"><ele>178.0</ele><time>2026-04-12T10:06:17Z</time></trkpt><trkpt lat="45.396733445132085" lon="11.496496845512088"><ele>179.0</ele><time>2026-04-12T10:06:18Z</time></trkpt><trkpt lat="45.396811397146045" lon="11.496541812630555"><ele>180.0</ele><time>2026-04-12T10:06:19Z</time></trkpt><trkpt lat="45.39690162444835" lon="11.496582351251472"><ele>181.0</ele><time>2026-04-12T10:06:20Z</time></trkpt><trkpt lat="45.39699011348509" lon="11.496600596287678"><ele>181.0</ele><time>2026-04-12T10:06:21Z</time></trkpt><trkpt lat="45.3970570867179" lon="11.4966140115045"><ele>181.0</ele><time>2026-04-12T10:06:22Z</time></trkpt><trkpt lat="45.39717598779636" lon="11.496642939143142"><ele>181.0</ele><time>2026-04-12T10:06:24Z</time></trkpt><trkpt lat="45.397250502825486" lon="11.496663782689968"><ele>181.0</ele><time>2026-04-12T10:06:25Z</time></trkpt><trkpt lat="45.3973370975517" lon="11.496675474121249"><ele>181.0</ele><time>2026-04-12T10:06:26Z</time></trkpt><trkpt lat="45.39743714753629" lon="11.496711123699626"><ele>181.8</ele><time>2026-04-12T10:06:27Z</time></trkpt><trkpt lat="45.39752329333408" lon="11.496741015468382"><ele>182.60000000000002</ele><time>2026-04-12T10:06:28Z</time></trkpt><trkpt lat="45.397619665071396" lon="11.496801617073933"><ele>183.4</ele><time>2026-04-12T10:06:29Z</time></trkpt><trkpt lat="45.39770176788198" lon="11.496852094824527"><ele>184.2</ele><time>2026-04-12T10:06:30Z</time></trkpt><trkpt lat="45.39779783532879" lon="11.496877301877173"><ele>185.0</ele><time>2026-04-12T10:06:31Z</time></trkpt><trkpt lat="45.39789548840448" lon="11.496879354432988"><ele>185.0</ele><time>2026-04-12T10:06:32Z</time></trkpt><trkpt lat="45.39798265232894" lon="11.496881397961449"><ele>185.0</ele><time>2026-04-12T10:06:33Z</time></trkpt><trkpt lat="45.398075112196906" lon="11.496916803467071"><ele>185.0</ele><time>2026-04-12T10:06:34Z</time></trkpt><trkpt lat="45.39816541852277" lon="11.496957300088306"><ele>185.0</ele><time>2026-04-12T10:06:35Z</time></trkpt><trkpt lat="45.39825726904343" lon="11.496991357154075"><ele>185.0</ele><time>2026-04-12T10:06:36Z</time></trkpt><trkpt lat="45.39835847860891" lon="11.497001334035923"><ele>185.0</ele><time>2026-04-12T10:06:37Z</time></trkpt><trkpt lat="45.39846141741565" lon="11.496991378928099"><ele>185.0</ele><time>2026-04-12T10:06:38Z</time></trkpt><trkpt lat="45.39866082755893" lon="11.496933171040695"><ele>185.0</ele><time>2026-04-12T10:06:40Z</time></trkpt><trkpt lat="45.39874389130909" lon="11.496909607380495"><ele>185.0</ele><time>2026-04-12T10:06:41Z</time></trkpt><trkpt lat="45.398811551889736" lon="11.496924309363708"><ele>185.0</ele><time>2026-04-12T10:06:42Z</time></trkpt><trkpt lat="45.398896832316545" lon="11.497066417064532"><ele>185.0</ele><time>2026-04-12T10:06:44Z</time></trkpt><trkpt lat="45.398944516178275" lon="11.497177084756501"><ele>185.0</ele><time>2026-04-12T10:06:45Z</time></trkpt><trkpt lat="45.39897876752588" lon="11.497287314300413"><ele>185.0</ele><time>2026-04-12T10:06:46Z</time></trkpt><trkpt lat="45.39903424354843" lon="11.497394080431505"><ele>185.0</ele><time>2026-04-12T10:06:47Z</time></trkpt><trkpt lat="45.39908154355589" lon="11.497508646679677"><ele>185.0</ele><time>2026-04-12T10:06:48Z</time></trkpt><trkpt lat="45.39911702297441" lon="11.49761470467213"><ele>185.0</ele><time>2026-04-12T10:06:49Z</time></trkpt><trkpt lat="45.399154979577006" lon="11.497732667510032"><ele>185.0</ele><time>2026-04-12T10:06:50Z</time></trkpt><trkpt lat="45.39919302901864" lon="11.497852485646382"><ele>185.0</ele><time>2026-04-12T10:06:51Z</time></trkpt><trkpt lat="45.399224901021896" lon="11.497963562275956"><ele>185.0</ele><time>2026-04-12T10:06:52Z</time></trkpt><trkpt lat="45.39925255756614" lon="11.498085123422381"><ele>185.0</ele><time>2026-04-12T10:06:53Z</time></trkpt><trkpt lat="45.39928006782793" lon="11.498218503502889"><ele>184.2</ele><time>2026-04-12T10:06:54Z</time></trkpt><trkpt lat="45.39929996001427" lon="11.498355793215769"><ele>183.4</ele><time>2026-04-12T10:06:55Z</time></trkpt><trkpt lat="45.39932090878679" lon="11.498481442571148"><ele>182.60000000000002</ele><time>2026-04-12T10:06:56Z</time></trkpt><trkpt lat="45.39933044514155" lon="11.498625345545724"><ele>181.8</ele><time>2026-04-12T10:06:57Z</time></trkpt><trkpt lat="45.399340301272005" lon="11.498766586876135"><ele>181.0</ele><time>2026-04-12T10:06:58Z</time></trkpt><trkpt lat="45.39934702763894" lon="11.498913998280983"><ele>179.4</ele><time>2026-04-12T10:06:59Z</time></trkpt><trkpt lat="45.39930112957664" lon="11.499088691595485"><ele>177.8</ele><time>2026-04-12T10:07:00Z</time></trkpt><trkpt lat="45.39931521437463" lon="11.499238876597826"><ele>176.20000000000002</ele><time>2026-04-12T10:07:01Z</time></trkpt><trkpt lat="45.39931538384957" lon="11.499391303764282"><ele>174.60000000000002</ele><time>2026-04-12T10:07:02Z</time></trkpt><trkpt lat="45.39931560592278" lon="11.49952424173045"><ele>173.0</ele><time>2026-04-12T10:07:03Z</time></trkpt><trkpt lat="45.39931680662514" lon="11.499646573749963"><ele>172.14285714285714</ele><time>2026-04-12T10:07:04Z</time></trkpt><trkpt lat="45.39931482427062" lon="11.499752538831753"><ele>171.2857142857143</ele><time>2026-04-12T10:07:05Z</time></trkpt><trkpt lat="45.39931541898434" lon="11.499872061640811"><ele>170.42857142857144</ele><time>2026-04-12T10:07:06Z</time></trkpt><trkpt lat="45.39932053001309" lon="11.499984149745734"><ele>169.57142857142856</ele><time>2026-04-12T10:07:07Z</time></trkpt><trkpt lat="45.39932216347667" lon="11.500087068480566"><ele>168.71428571428572</ele><time>2026-04-12T10:07:08Z</time></trkpt><trkpt lat="45.399324823125234" lon="11.50018255509762"><ele>167.85714285714286</ele><time>2026-04-12T10:07:09Z</time></trkpt><trkpt lat="45.399331027811975" lon="11.500285083682613"><ele>167.0</ele><time>2026-04-12T10:07:10Z</time></trkpt><trkpt lat="45.399342110032755" lon="11.500391286865543"><ele>166.66666666666666</ele><time>2026-04-12T10:07:11Z</time></trkpt><trkpt lat="45.39935469334114" lon="11.500498626610218"><ele>166.33333333333331</ele><time>2026-04-12T10:07:12Z</time></trkpt><trkpt lat="45.39936822765929" lon="11.500603315733198"><ele>166.0</ele><time>2026-04-12T10:07:13Z</time></trkpt><trkpt lat="45.399387824748985" lon="11.50069137286214"><ele>165.66666666666666</ele><time>2026-04-12T10:07:14Z</time></trkpt><trkpt lat="45.3994204508379" lon="11.50084295294161"><ele>165.33333333333334</ele><time>2026-04-12T10:07:16Z</time></trkpt><trkpt lat="45.39947197739282" lon="11.500911195245093"><ele>165.0</ele><time>2026-04-12T10:07:18Z</time></trkpt><trkpt lat="45.39962644528774" lon="11.500733097014143"><ele>165.0</ele><time>2026-04-12T10:07:19Z</time></trkpt><trkpt lat="45.39969401014116" lon="11.50066777362045"><ele>165.0</ele><time>2026-04-12T10:07:20Z</time></trkpt><trkpt lat="45.39977287608186" lon="11.500625196774898"><ele>165.0</ele><time>2026-04-12T10:07:21Z</time></trkpt><trkpt lat="45.39983152179761" lon="11.500549801557206"><ele>165.0</ele><time>2026-04-12T10:07:22Z</time></trkpt><trkpt lat="45.39989524580897" lon="11.500504087053255"><ele>165.0</ele><time>2026-04-12T10:07:23Z</time></trkpt><trkpt lat="45.39995226896553" lon="11.500454985341772"><ele>165.0</ele><time>2026-04-12T10:07:24Z</time></trkpt><trkpt lat="45.40001171193605" lon="11.500404941147346"><ele>164.85714285714286</ele><time>2026-04-12T10:07:25Z</time></trkpt><trkpt lat="45.40007564416208" lon="11.500349496750003"><ele>164.71428571428572</ele><time>2026-04-12T10:07:26Z</time></trkpt><trkpt lat="45.40013659081114" lon="11.50029252849718"><ele>164.57142857142856</ele><time>2026-04-12T10:07:27Z</time></trkpt><trkpt lat="45.400208335937876" lon="11.500254341653118"><ele>164.42857142857144</ele><time>2026-04-12T10:07:28Z</time></trkpt><trkpt lat="45.40025987037154" lon="11.500184533990442"><ele>164.28571428571428</ele><time>2026-04-12T10:07:29Z</time></trkpt><trkpt lat="45.40032492261298" lon="11.500162703193263"><ele>164.14285714285714</ele><time>2026-04-12T10:07:30Z</time></trkpt><trkpt lat="45.400387656376296" lon="11.50011850655069"><ele>164.0</ele><time>2026-04-12T10:07:31Z</time></trkpt><trkpt lat="45.40046217008454" lon="11.500066010784947"><ele>163.39999999999998</ele><time>2026-04-12T10:07:32Z</time></trkpt><trkpt lat="45.40054556922313" lon="11.499945052494514"><ele>162.8</ele><time>2026-04-12T10:07:33Z</time></trkpt><trkpt lat="45.40064591820681" lon="11.49985806210413"><ele>162.2</ele><time>2026-04-12T10:07:34Z</time></trkpt><trkpt lat="45.40073390689545" lon="11.499783448446216"><ele>161.60000000000002</ele><time>2026-04-12T10:07:35Z</time></trkpt><trkpt lat="45.400820980007325" lon="11.499711736010047"><ele>161.0</ele><time>2026-04-12T10:07:36Z</time></trkpt><trkpt lat="45.40090669544654" lon="11.499643434235521"><ele>161.0</ele><time>2026-04-12T10:07:37Z</time></trkpt><trkpt lat="45.40100261153306" lon="11.499572029183991"><ele>161.0</ele><time>2026-04-12T10:07:38Z</time></trkpt><trkpt lat="45.40110104127393" lon="11.499497129227672"><ele>161.0</ele><time>2026-04-12T10:07:39Z</time></trkpt><trkpt lat="45.401189517315515" lon="11.499426069681178"><ele>161.0</ele><time>2026-04-12T10:07:40Z</time></trkpt><trkpt lat="45.40127375760173" lon="11.499357030628042"><ele>161.0</ele><time>2026-04-12T10:07:41Z</time></trkpt><trkpt lat="45.401360272745336" lon="11.499292619968196"><ele>160.20000000000002</ele><time>2026-04-12T10:07:42Z</time></trkpt><trkpt lat="45.40146062163172" lon="11.499219252810986"><ele>159.4</ele><time>2026-04-12T10:07:43Z</time></trkpt><trkpt lat="45.40155191236591" lon="11.499148951268571"><ele>158.6</ele><time>2026-04-12T10:07:44Z</time></trkpt><trkpt lat="45.40163602408453" lon="11.49907605825537"><ele>157.8</ele><time>2026-04-12T10:07:45Z</time></trkpt><trkpt lat="45.401718160198634" lon="11.499011821110441"><ele>157.0</ele><time>2026-04-12T10:07:46Z</time></trkpt><trkpt lat="45.40181105987245" lon="11.498937660976384"><ele>157.0</ele><time>2026-04-12T10:07:47Z</time></trkpt><trkpt lat="45.40190815556987" lon="11.498861022503291"><ele>157.0</ele><time>2026-04-12T10:07:48Z</time></trkpt><trkpt lat="45.401999203887286" lon="11.498790246453224"><ele>157.0</ele><time>2026-04-12T10:07:49Z</time></trkpt><trkpt lat="45.40208736769081" lon="11.498707779812284"><ele>157.0</ele><time>2026-04-12T10:07:50Z</time></trkpt><trkpt lat="45.402181690188506" lon="11.49862326992318"><ele>157.0</ele><time>2026-04-12T10:07:51Z</time></trkpt><trkpt lat="45.402276174355" lon="11.498545002429003"><ele>157.0</ele><time>2026-04-12T10:07:52Z</time></trkpt><trkpt lat="45.40235764959962" lon="11.498479691256962"><ele>157.0</ele><time>2026-04-12T10:07:53Z</time></trkpt><trkpt lat="45.40243144136435" lon="11.498410393975242"><ele>157.0</ele><time>2026-04-12T10:07:54Z</time></trkpt><trkpt lat="45.40250489156728" lon="11.49834286092015"><ele>157.0</ele><time>2026-04-12T10:07:55Z</time></trkpt><trkpt lat="45.402578040971" lon="11.498291760518875"><ele>157.0</ele><time>2026-04-12T10:07:56Z</time></trkpt><trkpt lat="45.40265426448037" lon="11.498231415142516"><ele>157.0</ele><time>2026-04-12T10:07:57Z</time></trkpt><trkpt lat="45.40273221949466" lon="11.498165109484955"><ele>157.0</ele><time>2026-04-12T10:07:58Z</time></trkpt><trkpt lat="45.40281266605587" lon="11.498102083320523"><ele>157.0</ele><time>2026-04-12T10:07:59Z</time></trkpt><trkpt lat="45.40289537464512" lon="11.498034244048021"><ele>157.0</ele><time>2026-04-12T10:08:00Z</time></trkpt><trkpt lat="45.40296802870284" lon="11.497981583762552"><ele>157.0</ele><time>2026-04-12T10:08:01Z</time></trkpt><trkpt lat="45.403031924633424" lon="11.497949018725718"><ele>157.0</ele><time>2026-04-12T10:08:02Z</time></trkpt><trkpt lat="45.40315043288909" lon="11.498095746437148"><ele>157.16666666666669</ele><time>2026-04-12T10:08:04Z</time></trkpt><trkpt lat="45.40321758766472" lon="11.49816695108057"><ele>157.33333333333334</ele><time>2026-04-12T10:08:05Z</time></trkpt><trkpt lat="45.40327767596343" lon="11.498215923714557"><ele>157.5</ele><time>2026-04-12T10:08:06Z</time></trkpt><trkpt lat="45.403334474801" lon="11.498256970004075"><ele>157.66666666666666</ele><time>2026-04-12T10:08:07Z</time></trkpt><trkpt lat="45.40339101585237" lon="11.498304302957216"><ele>157.83333333333331</ele><time>2026-04-12T10:08:08Z</time></trkpt><trkpt lat="45.40348816539723" lon="11.49837171267499"><ele>158.0</ele><time>2026-04-12T10:08:10Z</time></trkpt><trkpt lat="45.403571426517786" lon="11.498382635518174"><ele>158.0</ele><time>2026-04-12T10:08:11Z</time></trkpt><trkpt lat="45.40365687132896" lon="11.49840355665966"><ele>158.0</ele><time>2026-04-12T10:08:12Z</time></trkpt><trkpt lat="45.40375383418669" lon="11.498425335294957"><ele>158.0</ele><time>2026-04-12T10:08:13Z</time></trkpt><trkpt lat="45.40386767525807" lon="11.498426355123403"><ele>158.0</ele><time>2026-04-12T10:08:14Z</time></trkpt><trkpt lat="45.40398502899118" lon="11.498407124160881"><ele>158.0</ele><time>2026-04-12T10:08:15Z</time></trkpt><trkpt lat="45.4041037277436" lon="11.498377085087075"><ele>157.4</ele><time>2026-04-12T10:08:16Z</time></trkpt><trkpt lat="45.40420841236191" lon="11.498341752118625"><ele>156.8</ele><time>2026-04-12T10:08:17Z</time></trkpt><trkpt lat="45.40430008081415" lon="11.498301407184528"><ele>156.2</ele><time>2026-04-12T10:08:18Z</time></trkpt><trkpt lat="45.404388103436894" lon="11.498266125738782"><ele>155.6</ele><time>2026-04-12T10:08:19Z</time></trkpt><trkpt lat="45.404468546959244" lon="11.498225324477195"><ele>155.0</ele><time>2026-04-12T10:08:20Z</time></trkpt><trkpt lat="45.404546506628584" lon="11.49817759409641"><ele>155.0</ele><time>2026-04-12T10:08:21Z</time></trkpt><trkpt lat="45.40462580994295" lon="11.498111527922983"><ele>155.0</ele><time>2026-04-12T10:08:22Z</time></trkpt><trkpt lat="45.40470239697003" lon="11.498019451188561"><ele>155.0</ele><time>2026-04-12T10:08:23Z</time></trkpt><trkpt lat="45.40478129415262" lon="11.49792731516029"><ele>155.0</ele><time>2026-04-12T10:08:24Z</time></trkpt><trkpt lat="45.40486452511007" lon="11.497853712448418"><ele>155.0</ele><time>2026-04-12T10:08:25Z</time></trkpt><trkpt lat="45.404955901434946" lon="11.49779531728008"><ele>155.6</ele><time>2026-04-12T10:08:26Z</time></trkpt><trkpt lat="45.40504553234788" lon="11.497731642550034"><ele>156.2</ele><time>2026-04-12T10:08:27Z</time></trkpt><trkpt lat="45.40513854765249" lon="11.497662599200527"><ele>156.8</ele><time>2026-04-12T10:08:28Z</time></trkpt><trkpt lat="45.40522206711333" lon="11.497597524725746"><ele>157.4</ele><time>2026-04-12T10:08:29Z</time></trkpt><trkpt lat="45.405298971372225" lon="11.497544539832566"><ele>158.0</ele><time>2026-04-12T10:08:30Z</time></trkpt><trkpt lat="45.40537566115978" lon="11.497493853251289"><ele>158.0</ele><time>2026-04-12T10:08:31Z</time></trkpt><trkpt lat="45.405436535359385" lon="11.49745605825565"><ele>158.0</ele><time>2026-04-12T10:08:32Z</time></trkpt><trkpt lat="45.40550588718737" lon="11.49734330204611"><ele>158.0</ele><time>2026-04-12T10:08:34Z</time></trkpt><trkpt lat="45.40550795308491" lon="11.497229385934988"><ele>158.0</ele><time>2026-04-12T10:08:35Z</time></trkpt><trkpt lat="45.40550955636824" lon="11.497084633205052"><ele>158.0</ele><time>2026-04-12T10:08:36Z</time></trkpt><trkpt lat="45.405541755329885" lon="11.49696166903922"><ele>158.0</ele><time>2026-04-12T10:08:37Z</time></trkpt><trkpt lat="45.40562468996881" lon="11.496838204956735"><ele>157.25</ele><time>2026-04-12T10:08:38Z</time></trkpt><trkpt lat="45.40572032678725" lon="11.496729065065962"><ele>156.5</ele><time>2026-04-12T10:08:39Z</time></trkpt><trkpt lat="45.40581868976381" lon="11.496592717476494"><ele>155.75</ele><time>2026-04-12T10:08:40Z</time></trkpt><trkpt lat="45.40590797523656" lon="11.496473944087425"><ele>155.0</ele><time>2026-04-12T10:08:41Z</time></trkpt><trkpt lat="45.40600067036615" lon="11.49638276691812"><ele>155.0</ele><time>2026-04-12T10:08:42Z</time></trkpt><trkpt lat="45.40609118313414" lon="11.496307766811304"><ele>155.0</ele><time>2026-04-12T10:08:43Z</time></trkpt><trkpt lat="45.40617334080729" lon="11.496233379167814"><ele>155.0</ele><time>2026-04-12T10:08:44Z</time></trkpt><trkpt lat="45.40624954893311" lon="11.496161816491679"><ele>155.0</ele><time>2026-04-12T10:08:45Z</time></trkpt><trkpt lat="45.406320394566215" lon="11.496090250289713"><ele>155.0</ele><time>2026-04-12T10:08:46Z</time></trkpt><trkpt lat="45.40638944501212" lon="11.496018756849622"><ele>154.8</ele><time>2026-04-12T10:08:47Z</time></trkpt><trkpt lat="45.40645962636719" lon="11.495954370834697"><ele>154.6</ele><time>2026-04-12T10:08:48Z</time></trkpt><trkpt lat="45.40653598699162" lon="11.495872138408439"><ele>154.4</ele><time>2026-04-12T10:08:49Z</time></trkpt><trkpt lat="45.406609458686326" lon="11.495783632757217"><ele>154.2</ele><time>2026-04-12T10:08:50Z</time></trkpt><trkpt lat="45.4066884261013" lon="11.495711993827639"><ele>154.0</ele><time>2026-04-12T10:08:51Z</time></trkpt><trkpt lat="45.406771445793595" lon="11.495632931405801"><ele>154.0</ele><time>2026-04-12T10:08:52Z</time></trkpt><trkpt lat="45.40685284913242" lon="11.495551324138729"><ele>154.0</ele><time>2026-04-12T10:08:53Z</time></trkpt><trkpt lat="45.406932767478565" lon="11.495457263615119"><ele>154.0</ele><time>2026-04-12T10:08:54Z</time></trkpt><trkpt lat="45.40700290470886" lon="11.495355906957482"><ele>154.0</ele><time>2026-04-12T10:08:55Z</time></trkpt><trkpt lat="45.407087903462276" lon="11.495258161543363"><ele>154.0</ele><time>2026-04-12T10:08:57Z</time></trkpt><trkpt lat="45.40718401854141" lon="11.495155255032486"><ele>154.0</ele><time>2026-04-12T10:08:59Z</time></trkpt><trkpt lat="45.40725059645872" lon="11.495077595737152"><ele>154.0</ele><time>2026-04-12T10:09:00Z</time></trkpt><trkpt lat="45.40732008434947" lon="11.4949975616199"><ele>154.0</ele><time>2026-04-12T10:09:01Z</time></trkpt><trkpt lat="45.40738003128595" lon="11.494923920389954"><ele>154.0</ele><time>2026-04-12T10:09:02Z</time></trkpt><trkpt lat="45.40745126476385" lon="11.49486885613117"><ele>154.0</ele><time>2026-04-12T10:09:03Z</time></trkpt><trkpt lat="45.40752063040991" lon="11.494808486899142"><ele>154.0</ele><time>2026-04-12T10:09:04Z</time></trkpt><trkpt lat="45.40757629543211" lon="11.494757027092755"><ele>154.0</ele><time>2026-04-12T10:09:05Z</time></trkpt><trkpt lat="45.40762326397692" lon="11.494690528214356"><ele>154.0</ele><time>2026-04-12T10:09:06Z</time></trkpt><trkpt lat="45.40767380645167" lon="11.494589870593709"><ele>154.0</ele><time>2026-04-12T10:09:08Z</time></trkpt><trkpt lat="45.40768197273332" lon="11.494497482935136"><ele>154.0</ele><time>2026-04-12T10:09:12Z</time></trkpt><trkpt lat="45.407616481438474" lon="11.494444553697853"><ele>154.0</ele><time>2026-04-12T10:09:14Z</time></trkpt><trkpt lat="45.40758050065777" lon="11.494370703874916"><ele>154.0</ele><time>2026-04-12T10:09:20Z</time></trkpt><trkpt lat="45.40765074043472" lon="11.494364831835643"><ele>154.0</ele><time>2026-04-12T10:10:48Z</time></trkpt><trkpt lat="45.40759236980674" lon="11.49430416253767"><ele>154.33333333333334</ele><time>2026-04-12T11:37:19Z</time></trkpt><trkpt lat="45.40749902698025" lon="11.49428814696022"><ele>154.66666666666669</ele><time>2026-04-12T11:44:17Z</time></trkpt><trkpt lat="45.407450579369716" lon="11.494219523035907"><ele>155.0</ele><time>2026-04-12T11:44:18Z</time></trkpt><trkpt lat="45.40738400033046" lon="11.494151670305714"><ele>155.33333333333334</ele><time>2026-04-12T11:44:20Z</time></trkpt><trkpt lat="45.407427825932565" lon="11.494240790587376"><ele>155.66666666666666</ele><time>2026-04-12T11:44:27Z</time></trkpt><trkpt lat="45.40750472274283" lon="11.494299164900017"><ele>156.0</ele><time>2026-04-12T11:44:30Z</time></trkpt><trkpt lat="45.40756687282083" lon="11.494328126893267"><ele>156.0</ele><time>2026-04-12T11:44:54Z</time></trkpt><trkpt lat="45.40764559591873" lon="11.494417929955825"><ele>156.0</ele><time>2026-04-12T11:44:58Z</time></trkpt><trkpt lat="45.4077133172859" lon="11.4944959779186"><ele>156.0</ele><time>2026-04-12T11:45:00Z</time></trkpt><trkpt lat="45.4076814035665" lon="11.494576795185015"><ele>156.0</ele><time>2026-04-12T11:45:03Z</time></trkpt><trkpt lat="45.40763457163685" lon="11.494641279029896"><ele>156.0</ele><time>2026-04-12T11:45:10Z</time></trkpt><trkpt lat="45.40758522442816" lon="11.494712996428554"><ele>156.0</ele><time>2026-04-12T11:45:11Z</time></trkpt><trkpt lat="45.40752957839956" lon="11.494781580327444"><ele>156.0</ele><time>2026-04-12T11:45:12Z</time></trkpt><trkpt lat="45.407462819853656" lon="11.494849197593485"><ele>156.0</ele><time>2026-04-12T11:45:13Z</time></trkpt><trkpt lat="45.407388436688166" lon="11.49491758614304"><ele>156.0</ele><time>2026-04-12T11:45:14Z</time></trkpt><trkpt lat="45.4073170156884" lon="11.494984057537069"><ele>156.0</ele><time>2026-04-12T11:45:15Z</time></trkpt><trkpt lat="45.40722268393221" lon="11.4950662715095"><ele>156.0</ele><time>2026-04-12T11:45:16Z</time></trkpt><trkpt lat="45.40714768465207" lon="11.495140970104151"><ele>156.0</ele><time>2026-04-12T11:45:17Z</time></trkpt><trkpt lat="45.40708708560414" lon="11.495208153568957"><ele>156.0</ele><time>2026-04-12T11:45:18Z</time></trkpt><trkpt lat="45.40703249015968" lon="11.495275086333878"><ele>156.0</ele><time>2026-04-12T11:45:19Z</time></trkpt><trkpt lat="45.40697265985152" lon="11.495345270327439"><ele>156.0</ele><time>2026-04-12T11:45:20Z</time></trkpt><trkpt lat="45.40691682203655" lon="11.495415355913625"><ele>156.0</ele><time>2026-04-12T11:45:21Z</time></trkpt><trkpt lat="45.406857203199976" lon="11.4954846378271"><ele>156.0</ele><time>2026-04-12T11:45:22Z</time></trkpt><trkpt lat="45.40679751288307" lon="11.495550318256186"><ele>155.66666666666666</ele><time>2026-04-12T11:45:23Z</time></trkpt><trkpt lat="45.406739762973245" lon="11.495622132696973"><ele>155.33333333333334</ele><time>2026-04-12T11:45:24Z</time></trkpt><trkpt lat="45.40668749054608" lon="11.495698293632636"><ele>155.0</ele><time>2026-04-12T11:45:25Z</time></trkpt><trkpt lat="45.40662851305171" lon="11.495767663155558"><ele>154.66666666666669</ele><time>2026-04-12T11:45:26Z</time></trkpt><trkpt lat="45.40655887641269" lon="11.495833234873526"><ele>154.33333333333334</ele><time>2026-04-12T11:45:27Z</time></trkpt><trkpt lat="45.40648282308215" lon="11.495896731512504"><ele>154.0</ele><time>2026-04-12T11:45:28Z</time></trkpt><trkpt lat="45.40639704137992" lon="11.495983679713175"><ele>154.2</ele><time>2026-04-12T11:45:29Z</time></trkpt><trkpt lat="45.406294594001125" lon="11.496087053544164"><ele>154.4</ele><time>2026-04-12T11:45:30Z</time></trkpt><trkpt lat="45.40619705100688" lon="11.496182738040092"><ele>154.6</ele><time>2026-04-12T11:45:31Z</time></trkpt><trkpt lat="45.40612232738619" lon="11.496262525906"><ele>154.8</ele><time>2026-04-12T11:45:32Z</time></trkpt><trkpt lat="45.40605108670533" lon="11.496330394768812"><ele>155.0</ele><time>2026-04-12T11:45:33Z</time></trkpt><trkpt lat="45.405976969285064" lon="11.496399802096173"><ele>155.0</ele><time>2026-04-12T11:45:34Z</time></trkpt><trkpt lat="45.40590232365534" lon="11.496472303449716"><ele>155.0</ele><time>2026-04-12T11:45:35Z</time></trkpt><trkpt lat="45.40582912467999" lon="11.496550974980353"><ele>155.0</ele><time>2026-04-12T11:45:36Z</time></trkpt><trkpt lat="45.405759759173" lon="11.496638413556605"><ele>155.0</ele><time>2026-04-12T11:45:37Z</time></trkpt><trkpt lat="45.40570018384278" lon="11.496731560836071"><ele>155.0</ele><time>2026-04-12T11:45:38Z</time></trkpt><trkpt lat="45.40564115212495" lon="11.496826361610472"><ele>155.0</ele><time>2026-04-12T11:45:39Z</time></trkpt><trkpt lat="45.40559258017895" lon="11.496907742058239"><ele>155.0</ele><time>2026-04-12T11:45:40Z</time></trkpt><trkpt lat="45.40554593435327" lon="11.49697803573167"><ele>155.0</ele><time>2026-04-12T11:45:41Z</time></trkpt><trkpt lat="45.4054458620762" lon="11.497072301410483"><ele>155.0</ele><time>2026-04-12T11:45:43Z</time></trkpt><trkpt lat="45.40545492020821" lon="11.497221665990102"><ele>155.0</ele><time>2026-04-12T11:45:44Z</time></trkpt><trkpt lat="45.40545724259079" lon="11.49732578224008"><ele>155.0</ele><time>2026-04-12T11:45:45Z</time></trkpt><trkpt lat="45.40543172016634" lon="11.497481144245638"><ele>156.0</ele><time>2026-04-12T11:45:47Z</time></trkpt><trkpt lat="45.40542391682734" lon="11.498164314710229"><ele>156.0</ele><time>2026-04-12T11:45:49Z</time></trkpt><trkpt lat="45.4052798076626" lon="11.498326712707582"><ele>156.0</ele><time>2026-04-12T11:45:51Z</time></trkpt><trkpt lat="45.40477382471687" lon="11.49793273043908"><ele>156.0</ele><time>2026-04-12T11:45:53Z</time></trkpt><trkpt lat="45.40470579260386" lon="11.497983191329459"><ele>156.0</ele><time>2026-04-12T11:45:54Z</time></trkpt><trkpt lat="45.40461564735381" lon="11.498062274407166"><ele>156.0</ele><time>2026-04-12T11:45:56Z</time></trkpt><trkpt lat="45.40453984969436" lon="11.498163747475742"><ele>156.0</ele><time>2026-04-12T11:45:58Z</time></trkpt><trkpt lat="45.404480653882366" lon="11.49821295756277"><ele>156.0</ele><time>2026-04-12T11:45:59Z</time></trkpt><trkpt lat="45.404400575527234" lon="11.498258831273521"><ele>156.0</ele><time>2026-04-12T11:46:00Z</time></trkpt><trkpt lat="45.40431127991077" lon="11.498298588241921"><ele>155.8</ele><time>2026-04-12T11:46:01Z</time></trkpt><trkpt lat="45.40422616195962" lon="11.49832906312656"><ele>155.6</ele><time>2026-04-12T11:46:02Z</time></trkpt><trkpt lat="45.40414315235775" lon="11.498358088318248"><ele>155.4</ele><time>2026-04-12T11:46:03Z</time></trkpt><trkpt lat="45.404060593507054" lon="11.498388374056596"><ele>155.2</ele><time>2026-04-12T11:46:04Z</time></trkpt><trkpt lat="45.40396813684792" lon="11.498410997591286"><ele>155.0</ele><time>2026-04-12T11:46:05Z</time></trkpt><trkpt lat="45.403862889483925" lon="11.498425065246408"><ele>155.5</ele><time>2026-04-12T11:46:06Z</time></trkpt><trkpt lat="45.403763318415685" lon="11.498436371777004"><ele>156.0</ele><time>2026-04-12T11:46:07Z</time></trkpt><trkpt lat="45.40367580228018" lon="11.49843875756701"><ele>156.5</ele><time>2026-04-12T11:46:08Z</time></trkpt><trkpt lat="45.40359762155715" lon="11.498427111511209"><ele>157.0</ele><time>2026-04-12T11:46:09Z</time></trkpt><trkpt lat="45.40352674740699" lon="11.498403916721957"><ele>157.5</ele><time>2026-04-12T11:46:10Z</time></trkpt><trkpt lat="45.403454617206826" lon="11.498376137526394"><ele>158.0</ele><time>2026-04-12T11:46:11Z</time></trkpt><trkpt lat="45.403369102493805" lon="11.498327556403753"><ele>158.0</ele><time>2026-04-12T11:46:12Z</time></trkpt><trkpt lat="45.40327927495857" lon="11.498257416305451"><ele>158.0</ele><time>2026-04-12T11:46:13Z</time></trkpt><trkpt lat="45.403176625476966" lon="11.498171527885646"><ele>158.0</ele><time>2026-04-12T11:46:14Z</time></trkpt><trkpt lat="45.403095680273246" lon="11.498104802141938"><ele>158.0</ele><time>2026-04-12T11:46:15Z</time></trkpt><trkpt lat="45.40303478372868" lon="11.498050281583563"><ele>158.0</ele><time>2026-04-12T11:46:16Z</time></trkpt><trkpt lat="45.40293474963887" lon="11.497973877119422"><ele>157.75</ele><time>2026-04-12T11:46:18Z</time></trkpt><trkpt lat="45.40281571736888" lon="11.49807224069689"><ele>157.5</ele><time>2026-04-12T11:46:20Z</time></trkpt><trkpt lat="45.402715158580726" lon="11.498186663222818"><ele>157.25</ele><time>2026-04-12T11:46:21Z</time></trkpt><trkpt lat="45.402621871377285" lon="11.498264588985343"><ele>157.0</ele><time>2026-04-12T11:46:22Z</time></trkpt><trkpt lat="45.4025371942503" lon="11.498318479302618"><ele>157.0</ele><time>2026-04-12T11:46:23Z</time></trkpt><trkpt lat="45.402451631663844" lon="11.49837364082996"><ele>157.0</ele><time>2026-04-12T11:46:24Z</time></trkpt><trkpt lat="45.402380439882485" lon="11.498435585337246"><ele>157.0</ele><time>2026-04-12T11:46:25Z</time></trkpt><trkpt lat="45.40229174193766" lon="11.49851475514442"><ele>157.0</ele><time>2026-04-12T11:46:26Z</time></trkpt><trkpt lat="45.40219833197202" lon="11.498596678558654"><ele>157.0</ele><time>2026-04-12T11:46:27Z</time></trkpt><trkpt lat="45.40210070218872" lon="11.498687427612818"><ele>157.0</ele><time>2026-04-12T11:46:28Z</time></trkpt><trkpt lat="45.40201458090177" lon="11.498767728568335"><ele>157.0</ele><time>2026-04-12T11:46:29Z</time></trkpt><trkpt lat="45.40191777467072" lon="11.498838086083108"><ele>157.0</ele><time>2026-04-12T11:46:30Z</time></trkpt><trkpt lat="45.40181281005621" lon="11.498919724071568"><ele>157.0</ele><time>2026-04-12T11:46:31Z</time></trkpt><trkpt lat="45.40170422954612" lon="11.498996126027828"><ele>157.0</ele><time>2026-04-12T11:46:32Z</time></trkpt><trkpt lat="45.4015923151818" lon="11.499080971164089"><ele>157.0</ele><time>2026-04-12T11:46:33Z</time></trkpt><trkpt lat="45.40149851085669" lon="11.499157178222445"><ele>157.0</ele><time>2026-04-12T11:46:34Z</time></trkpt><trkpt lat="45.40140662241079" lon="11.499232109681625"><ele>157.0</ele><time>2026-04-12T11:46:35Z</time></trkpt><trkpt lat="45.401305859919816" lon="11.499309845646236"><ele>158.0</ele><time>2026-04-12T11:46:36Z</time></trkpt><trkpt lat="45.401204628520766" lon="11.49938925113737"><ele>159.0</ele><time>2026-04-12T11:46:37Z</time></trkpt><trkpt lat="45.401101130568854" lon="11.49947022500419"><ele>160.0</ele><time>2026-04-12T11:46:38Z</time></trkpt><trkpt lat="45.40099813984367" lon="11.499552487740873"><ele>161.0</ele><time>2026-04-12T11:46:39Z</time></trkpt><trkpt lat="45.40090231525132" lon="11.499628684209272"><ele>161.0</ele><time>2026-04-12T11:46:40Z</time></trkpt><trkpt lat="45.40080689617373" lon="11.499706499601174"><ele>161.0</ele><time>2026-04-12T11:46:41Z</time></trkpt><trkpt lat="45.400701302136966" lon="11.499786866952382"><ele>161.0</ele><time>2026-04-12T11:46:42Z</time></trkpt><trkpt lat="45.40059413919182" lon="11.499872620795916"><ele>161.0</ele><time>2026-04-12T11:46:43Z</time></trkpt><trkpt lat="45.400499218562636" lon="11.499950908448826"><ele>161.5</ele><time>2026-04-12T11:46:44Z</time></trkpt><trkpt lat="45.40042652771633" lon="11.500013373310473"><ele>162.0</ele><time>2026-04-12T11:46:45Z</time></trkpt><trkpt lat="45.400365878687445" lon="11.500065457160213"><ele>162.5</ele><time>2026-04-12T11:46:46Z</time></trkpt><trkpt lat="45.40031088399063" lon="11.50011506828642"><ele>163.0</ele><time>2026-04-12T11:46:47Z</time></trkpt><trkpt lat="45.40023125760037" lon="11.50020284125008"><ele>163.5</ele><time>2026-04-12T11:46:49Z</time></trkpt><trkpt lat="45.40012137799511" lon="11.500287722572889"><ele>164.0</ele><time>2026-04-12T11:46:51Z</time></trkpt><trkpt lat="45.40006760071298" lon="11.500337687962451"><ele>164.16666666666666</ele><time>2026-04-12T11:46:52Z</time></trkpt><trkpt lat="45.39995097565569" lon="11.500438551084164"><ele>164.33333333333331</ele><time>2026-04-12T11:46:54Z</time></trkpt><trkpt lat="45.39988806786703" lon="11.50049825228667"><ele>164.5</ele><time>2026-04-12T11:46:55Z</time></trkpt><trkpt lat="45.39981464090697" lon="11.500534526198487"><ele>164.66666666666666</ele><time>2026-04-12T11:46:56Z</time></trkpt><trkpt lat="45.39974896423858" lon="11.500590529138867"><ele>164.83333333333334</ele><time>2026-04-12T11:46:57Z</time></trkpt><trkpt lat="45.39967803203072" lon="11.500651738982546"><ele>165.0</ele><time>2026-04-12T11:46:58Z</time></trkpt><trkpt lat="45.39962259012271" lon="11.500715706678942"><ele>165.0</ele><time>2026-04-12T11:46:59Z</time></trkpt><trkpt lat="45.39956659190461" lon="11.500765295964648"><ele>165.0</ele><time>2026-04-12T11:47:00Z</time></trkpt><trkpt lat="45.39948468406529" lon="11.50085097486315"><ele>165.0</ele><time>2026-04-12T11:47:02Z</time></trkpt><trkpt lat="45.399534744612325" lon="11.501039723106002"><ele>165.0</ele><time>2026-04-12T11:47:05Z</time></trkpt><trkpt lat="45.39960046446655" lon="11.501090246052758"><ele>165.0</ele><time>2026-04-12T11:47:06Z</time></trkpt><trkpt lat="45.39966628354603" lon="11.50114073159138"><ele>165.2</ele><time>2026-04-12T11:47:07Z</time></trkpt><trkpt lat="45.39976314530123" lon="11.50126641936808"><ele>165.4</ele><time>2026-04-12T11:47:09Z</time></trkpt><trkpt lat="45.3998298941113" lon="11.501337987996356"><ele>165.60000000000002</ele><time>2026-04-12T11:47:10Z</time></trkpt><trkpt lat="45.39989817829932" lon="11.501406349319504"><ele>165.8</ele><time>2026-04-12T11:47:11Z</time></trkpt><trkpt lat="45.39996528351066" lon="11.501470777199327"><ele>166.0</ele><time>2026-04-12T11:47:12Z</time></trkpt><trkpt lat="45.4000367968863" lon="11.50151701369066"><ele>166.0</ele><time>2026-04-12T11:47:13Z</time></trkpt><trkpt lat="45.40009544389832" lon="11.501577780112868"><ele>166.0</ele><time>2026-04-12T11:47:14Z</time></trkpt><trkpt lat="45.400160711338344" lon="11.50162861706422"><ele>166.0</ele><time>2026-04-12T11:47:15Z</time></trkpt><trkpt lat="45.40021147840174" lon="11.501707393018014"><ele>166.0</ele><time>2026-04-12T11:47:16Z</time></trkpt><trkpt lat="45.40026206823465" lon="11.501765729527216"><ele>166.0</ele><time>2026-04-12T11:47:17Z</time></trkpt><trkpt lat="45.400347975776405" lon="11.501862752586877"><ele>166.0</ele><time>2026-04-12T11:47:19Z</time></trkpt><trkpt lat="45.400373064100414" lon="11.501969369244064"><ele>165.75</ele><time>2026-04-12T11:47:21Z</time></trkpt><trkpt lat="45.40025830165316" lon="11.502162202447693"><ele>165.5</ele><time>2026-04-12T11:47:22Z</time></trkpt><trkpt lat="45.400195672046465" lon="11.502316110002582"><ele>165.25</ele><time>2026-04-12T11:47:23Z</time></trkpt><trkpt lat="45.4001431056372" lon="11.502496242549492"><ele>165.0</ele><time>2026-04-12T11:47:24Z</time></trkpt><trkpt lat="45.40012294847929" lon="11.502658491046923"><ele>165.0</ele><time>2026-04-12T11:47:25Z</time></trkpt><trkpt lat="45.4001230024668" lon="11.502810098692013"><ele>165.0</ele><time>2026-04-12T11:47:26Z</time></trkpt><trkpt lat="45.400127286391545" lon="11.50294580295958"><ele>165.0</ele><time>2026-04-12T11:47:27Z</time></trkpt><trkpt lat="45.40011545543558" lon="11.50305948295989"><ele>165.0</ele><time>2026-04-12T11:47:28Z</time></trkpt><trkpt lat="45.400084441002456" lon="11.503160851485246"><ele>165.0</ele><time>2026-04-12T11:47:29Z</time></trkpt><trkpt lat="45.400049958558945" lon="11.50324153507111"><ele>165.0</ele><time>2026-04-12T11:47:30Z</time></trkpt><trkpt lat="45.399990872940016" lon="11.503334486318945"><ele>165.0</ele><time>2026-04-12T11:47:31Z</time></trkpt><trkpt lat="45.39991771092892" lon="11.503422943089964"><ele>165.0</ele><time>2026-04-12T11:47:32Z</time></trkpt><trkpt lat="45.39982895053397" lon="11.503461761497505"><ele>165.0</ele><time>2026-04-12T11:47:33Z</time></trkpt><trkpt lat="45.399757394313184" lon="11.503526143246887"><ele>165.0</ele><time>2026-04-12T11:47:34Z</time></trkpt><trkpt lat="45.39968431632654" lon="11.503568748192835"><ele>165.0</ele><time>2026-04-12T11:47:35Z</time></trkpt><trkpt lat="45.39961791357019" lon="11.503620251359816"><ele>165.0</ele><time>2026-04-12T11:47:36Z</time></trkpt><trkpt lat="45.399547137279846" lon="11.50363462046012"><ele>165.0</ele><time>2026-04-12T11:47:37Z</time></trkpt><trkpt lat="45.399434229946166" lon="11.503675858172734"><ele>165.0</ele><time>2026-04-12T11:47:39Z</time></trkpt><trkpt lat="45.39937262649656" lon="11.503712722981504"><ele>165.0</ele><time>2026-04-12T11:47:41Z</time></trkpt><trkpt lat="45.39937430467195" lon="11.504106111102116"><ele>165.0</ele><time>2026-04-12T11:47:43Z</time></trkpt><trkpt lat="45.39934981051269" lon="11.50419993562851"><ele>165.0</ele><time>2026-04-12T11:47:46Z</time></trkpt><trkpt lat="45.39935624548652" lon="11.504333391117003"><ele>165.0</ele><time>2026-04-12T11:47:48Z</time></trkpt><trkpt lat="45.39940725356264" lon="11.504497202269961"><ele>165.0</ele><time>2026-04-12T11:47:50Z</time></trkpt><trkpt lat="45.399369983122476" lon="11.504650908763333"><ele>165.0</ele><time>2026-04-12T11:47:52Z</time></trkpt><trkpt lat="45.39931439586422" lon="11.504768011788629"><ele>165.83333333333334</ele><time>2026-04-12T11:47:53Z</time></trkpt><trkpt lat="45.399271625430444" lon="11.504888435451509"><ele>166.66666666666666</ele><time>2026-04-12T11:47:54Z</time></trkpt><trkpt lat="45.39924623290888" lon="11.504995891775208"><ele>167.5</ele><time>2026-04-12T11:47:55Z</time></trkpt><trkpt lat="45.3992280640245" lon="11.505089936729416"><ele>168.33333333333331</ele><time>2026-04-12T11:47:56Z</time></trkpt><trkpt lat="45.39917007620184" lon="11.505179490529613"><ele>169.16666666666666</ele><time>2026-04-12T11:47:57Z</time></trkpt><trkpt lat="45.399108896094916" lon="11.50532095581785"><ele>170.0</ele><time>2026-04-12T11:47:58Z</time></trkpt><trkpt lat="45.399057022512636" lon="11.505457496490036"><ele>172.4</ele><time>2026-04-12T11:47:59Z</time></trkpt><trkpt lat="45.39902576376215" lon="11.505575885614313"><ele>174.8</ele><time>2026-04-12T11:48:00Z</time></trkpt><trkpt lat="45.39898929222644" lon="11.505744563808397"><ele>177.2</ele><time>2026-04-12T11:48:01Z</time></trkpt><trkpt lat="45.39897365674402" lon="11.505918251574851"><ele>179.6</ele><time>2026-04-12T11:48:02Z</time></trkpt><trkpt lat="45.39895119022917" lon="11.506076322939805"><ele>182.0</ele><time>2026-04-12T11:48:03Z</time></trkpt><trkpt lat="45.398920400271095" lon="11.506249316450633"><ele>183.66666666666666</ele><time>2026-04-12T11:48:04Z</time></trkpt><trkpt lat="45.39889884967825" lon="11.506403518330274"><ele>185.33333333333331</ele><time>2026-04-12T11:48:05Z</time></trkpt><trkpt lat="45.3988693402852" lon="11.506529616580677"><ele>187.0</ele><time>2026-04-12T11:48:06Z</time></trkpt><trkpt lat="45.39883667041905" lon="11.506616626491347"><ele>188.66666666666666</ele><time>2026-04-12T11:48:07Z</time></trkpt><trkpt lat="45.39880965462202" lon="11.506712317059637"><ele>190.33333333333334</ele><time>2026-04-12T11:48:08Z</time></trkpt><trkpt lat="45.398778581593376" lon="11.50681802271924"><ele>192.0</ele><time>2026-04-12T11:48:09Z</time></trkpt><trkpt lat="45.39874726846876" lon="11.506902382415248"><ele>188.6</ele><time>2026-04-12T11:48:10Z</time></trkpt><trkpt lat="45.39864906345455" lon="11.50701265012272"><ele>185.2</ele><time>2026-04-12T11:48:12Z</time></trkpt><trkpt lat="45.398590249133065" lon="11.507127604821537"><ele>181.8</ele><time>2026-04-12T11:48:14Z</time></trkpt><trkpt lat="45.39852080003279" lon="11.507257936874545"><ele>178.4</ele><time>2026-04-12T11:48:23Z</time></trkpt><trkpt lat="45.3984936225936" lon="11.50733905809058"><ele>175.0</ele><time>2026-04-12T11:48:24Z</time></trkpt><trkpt lat="45.398477335093126" lon="11.507450376007927"><ele>175.0</ele><time>2026-04-12T11:48:25Z</time></trkpt><trkpt lat="45.39850999948192" lon="11.507596430831732"><ele>175.0</ele><time>2026-04-12T11:48:27Z</time></trkpt><trkpt lat="45.398483535044086" lon="11.507721542856995"><ele>175.0</ele><time>2026-04-12T11:48:38Z</time></trkpt><trkpt lat="45.39844519028568" lon="11.507842330509057"><ele>175.0</ele><time>2026-04-12T11:48:40Z</time></trkpt><trkpt lat="45.39845623094222" lon="11.507940136639345"><ele>175.0</ele><time>2026-04-12T11:48:42Z</time></trkpt><trkpt lat="45.39835033132479" lon="11.508000648660216"><ele>176.66666666666669</ele><time>2026-04-12T11:48:45Z</time></trkpt><trkpt lat="45.398289193705615" lon="11.50804297447799"><ele>178.33333333333334</ele><time>2026-04-12T11:48:47Z</time></trkpt><trkpt lat="45.398210505780014" lon="11.508151853398584"><ele>180.0</ele><time>2026-04-12T11:48:49Z</time></trkpt><trkpt lat="45.3981585577461" lon="11.508207882698938"><ele>181.66666666666666</ele><time>2026-04-12T11:48:50Z</time></trkpt><trkpt lat="45.39810561383741" lon="11.508274350057183"><ele>183.33333333333331</ele><time>2026-04-12T11:48:52Z</time></trkpt><trkpt lat="45.39805586563568" lon="11.508360849452949"><ele>185.0</ele><time>2026-04-12T11:48:54Z</time></trkpt><trkpt lat="45.39800889389669" lon="11.508430341787443"><ele>185.0</ele><time>2026-04-12T11:48:56Z</time></trkpt><trkpt lat="45.3980673411047" lon="11.508464445548585"><ele>185.0</ele><time>2026-04-12T11:48:59Z</time></trkpt><trkpt lat="45.398172229065146" lon="11.508493605926683"><ele>185.0</ele><time>2026-04-12T11:49:01Z</time></trkpt><trkpt lat="45.39828223892777" lon="11.508530104044084"><ele>185.0</ele><time>2026-04-12T11:49:03Z</time></trkpt><trkpt lat="45.39838089793387" lon="11.508602193463286"><ele>185.0</ele><time>2026-04-12T11:49:05Z</time></trkpt><trkpt lat="45.398435102454854" lon="11.508649553801622"><ele>185.0</ele><time>2026-04-12T11:49:06Z</time></trkpt><trkpt lat="45.398532247676314" lon="11.508697070361166"><ele>185.0</ele><time>2026-04-12T11:49:08Z</time></trkpt><trkpt lat="45.398629432380645" lon="11.508779854573852"><ele>185.0</ele><time>2026-04-12T11:49:11Z</time></trkpt><trkpt lat="45.39870761390455" lon="11.508889732121558"><ele>185.0</ele><time>2026-04-12T11:49:13Z</time></trkpt><trkpt lat="45.39873910621033" lon="11.508982229102104"><ele>185.0</ele><time>2026-04-12T11:49:16Z</time></trkpt><trkpt lat="45.39872744630274" lon="11.509148576953496"><ele>188.25</ele><time>2026-04-12T11:49:19Z</time></trkpt><trkpt lat="45.398737325163474" lon="11.509303026332395"><ele>191.5</ele><time>2026-04-12T11:49:21Z</time></trkpt><trkpt lat="45.39874230591203" lon="11.509453633891171"><ele>194.75</ele><time>2026-04-12T11:49:22Z</time></trkpt><trkpt lat="45.39874851820978" lon="11.509646648245683"><ele>198.0</ele><time>2026-04-12T11:49:23Z</time></trkpt><trkpt lat="45.39876688753386" lon="11.509876830864478"><ele>199.75</ele><time>2026-04-12T11:49:24Z</time></trkpt><trkpt lat="45.39879172192429" lon="11.510101076507603"><ele>201.5</ele><time>2026-04-12T11:49:25Z</time></trkpt><trkpt lat="45.39883236273491" lon="11.510275966680046"><ele>203.25</ele><time>2026-04-12T11:49:26Z</time></trkpt><trkpt lat="45.398859996375386" lon="11.51042607867208"><ele>205.0</ele><time>2026-04-12T11:49:27Z</time></trkpt><trkpt lat="45.3988965345359" lon="11.51056584718844"><ele>205.0</ele><time>2026-04-12T11:49:28Z</time></trkpt><trkpt lat="45.39908236075054" lon="11.510808648180094"><ele>205.0</ele><time>2026-04-12T11:49:37Z</time></trkpt><trkpt lat="45.39913636932548" lon="11.51087904652316"><ele>205.0</ele><time>2026-04-12T11:49:38Z</time></trkpt><trkpt lat="45.399203095100596" lon="11.510958171224152"><ele>205.0</ele><time>2026-04-12T11:49:39Z</time></trkpt><trkpt lat="45.399266600092766" lon="11.511048613716175"><ele>205.0</ele><time>2026-04-12T11:49:40Z</time></trkpt><trkpt lat="45.399322386136554" lon="11.511130226314725"><ele>205.0</ele><time>2026-04-12T11:49:41Z</time></trkpt><trkpt lat="45.39936087096381" lon="11.511269791809273"><ele>205.0</ele><time>2026-04-12T11:49:42Z</time></trkpt><trkpt lat="45.399393629164244" lon="11.51137326398137"><ele>205.0</ele><time>2026-04-12T11:49:43Z</time></trkpt><trkpt lat="45.39942281421004" lon="11.511505920120625"><ele>205.0</ele><time>2026-04-12T11:49:44Z</time></trkpt><trkpt lat="45.39945424567857" lon="11.51163038302243"><ele>207.33333333333331</ele><time>2026-04-12T11:49:45Z</time></trkpt><trkpt lat="45.399489927083046" lon="11.511733119455728"><ele>209.66666666666666</ele><time>2026-04-12T11:49:46Z</time></trkpt><trkpt lat="45.39955455422517" lon="11.511821485412453"><ele>212.0</ele><time>2026-04-12T11:49:47Z</time></trkpt><trkpt lat="45.39961462135079" lon="11.511882934173983"><ele>214.33333333333331</ele><time>2026-04-12T11:49:48Z</time></trkpt><trkpt lat="45.399669076367076" lon="11.511945177093441"><ele>216.66666666666666</ele><time>2026-04-12T11:49:49Z</time></trkpt><trkpt lat="45.39972350307154" lon="11.512027165905417"><ele>219.0</ele><time>2026-04-12T11:49:52Z</time></trkpt><trkpt lat="45.39977694036637" lon="11.512112932319678"><ele>219.6</ele><time>2026-04-12T11:49:54Z</time></trkpt><trkpt lat="45.399804282105066" lon="11.512219591631656"><ele>220.2</ele><time>2026-04-12T11:49:56Z</time></trkpt><trkpt lat="45.39980782988622" lon="11.512347726235056"><ele>220.79999999999998</ele><time>2026-04-12T11:49:58Z</time></trkpt><trkpt lat="45.3997862823238" lon="11.512513721711487"><ele>221.39999999999998</ele><time>2026-04-12T11:50:00Z</time></trkpt><trkpt lat="45.3997910353416" lon="11.512670159652112"><ele>222.0</ele><time>2026-04-12T11:50:02Z</time></trkpt><trkpt lat="45.399777279080624" lon="11.512808047038787"><ele>222.0</ele><time>2026-04-12T11:50:04Z</time></trkpt><trkpt lat="45.399769884688695" lon="11.512899195378898"><ele>222.0</ele><time>2026-04-12T11:50:05Z</time></trkpt><trkpt lat="45.3997501758633" lon="11.51306193491572"><ele>222.0</ele><time>2026-04-12T11:50:07Z</time></trkpt><trkpt lat="45.39973178209427" lon="11.513148449786081"><ele>222.0</ele><time>2026-04-12T11:50:08Z</time></trkpt><trkpt lat="45.39973224809496" lon="11.513238784347303"><ele>222.0</ele><time>2026-04-12T11:50:09Z</time></trkpt><trkpt lat="45.39970496882127" lon="11.513407811643306"><ele>222.0</ele><time>2026-04-12T11:50:11Z</time></trkpt><trkpt lat="45.3996344024186" lon="11.513557120943059"><ele>223.6</ele><time>2026-04-12T11:50:13Z</time></trkpt><trkpt lat="45.399558233834036" lon="11.513708701993323"><ele>225.2</ele><time>2026-04-12T11:50:15Z</time></trkpt><trkpt lat="45.3995139758791" lon="11.513795931032227"><ele>226.8</ele><time>2026-04-12T11:50:16Z</time></trkpt><trkpt lat="45.399469818978986" lon="11.513867531366962"><ele>228.4</ele><time>2026-04-12T11:50:17Z</time></trkpt><trkpt lat="45.39942237747204" lon="11.513929160088088"><ele>230.0</ele><time>2026-04-12T11:50:18Z</time></trkpt><trkpt lat="45.39929825952444" lon="11.513994631188494"><ele>230.00000000000003</ele><time>2026-04-12T11:50:20Z</time></trkpt><trkpt lat="45.39923034973315" lon="11.514016759385221"><ele>230.0</ele><time>2026-04-12T11:50:21Z</time></trkpt><trkpt lat="45.39911676033601" lon="11.51403614333712"><ele>230.0</ele><time>2026-04-12T11:50:23Z</time></trkpt><trkpt lat="45.399062920643345" lon="11.514097456143645"><ele>230.0</ele><time>2026-04-12T11:50:24Z</time></trkpt><trkpt lat="45.39899988692877" lon="11.514192150328345"><ele>230.00000000000003</ele><time>2026-04-12T11:50:25Z</time></trkpt><trkpt lat="45.398992789400836" lon="11.514289663129153"><ele>230.0</ele><time>2026-04-12T11:50:27Z</time></trkpt><trkpt lat="45.3989992226005" lon="11.514450772609194"><ele>230.4</ele><time>2026-04-12T11:50:30Z</time></trkpt><trkpt lat="45.39905296991867" lon="11.514574122639862"><ele>230.8</ele><time>2026-04-12T11:50:32Z</time></trkpt><trkpt lat="45.399119068740845" lon="11.514662606443727"><ele>231.2</ele><time>2026-04-12T11:50:33Z</time></trkpt><trkpt lat="45.39915348899809" lon="11.514767855192733"><ele>231.6</ele><time>2026-04-12T11:50:34Z</time></trkpt><trkpt lat="45.39917774986612" lon="11.514895493764548"><ele>232.0</ele><time>2026-04-12T11:50:35Z</time></trkpt><trkpt lat="45.399208106578996" lon="11.515056670508185"><ele>232.0</ele><time>2026-04-12T11:50:36Z</time></trkpt><trkpt lat="45.39924510904645" lon="11.515203813940278"><ele>232.0</ele><time>2026-04-12T11:50:37Z</time></trkpt><trkpt lat="45.39929135390819" lon="11.515307279176653"><ele>232.0</ele><time>2026-04-12T11:50:38Z</time></trkpt><trkpt lat="45.39935968594719" lon="11.515419311891732"><ele>232.0</ele><time>2026-04-12T11:50:39Z</time></trkpt><trkpt lat="45.39943650648464" lon="11.515576729390483"><ele>232.0</ele><time>2026-04-12T11:50:40Z</time></trkpt><trkpt lat="45.39949453796543" lon="11.51574067751487"><ele>231.83333333333331</ele><time>2026-04-12T11:50:41Z</time></trkpt><trkpt lat="45.39952657954674" lon="11.515862138168321"><ele>231.66666666666666</ele><time>2026-04-12T11:50:42Z</time></trkpt><trkpt lat="45.39955123900584" lon="11.51595726245866"><ele>231.5</ele><time>2026-04-12T11:50:43Z</time></trkpt><trkpt lat="45.39959308330617" lon="11.516093863816652"><ele>231.33333333333331</ele><time>2026-04-12T11:50:45Z</time></trkpt><trkpt lat="45.399552815086636" lon="11.516202648251959"><ele>231.16666666666666</ele><time>2026-04-12T11:50:47Z</time></trkpt><trkpt lat="45.399606536342986" lon="11.51630660066606"><ele>231.0</ele><time>2026-04-12T11:50:49Z</time></trkpt><trkpt lat="45.3996805100406" lon="11.516374177249741"><ele>229.60000000000002</ele><time>2026-04-12T11:50:51Z</time></trkpt><trkpt lat="45.399777596165976" lon="11.516381543916713"><ele>228.20000000000002</ele><time>2026-04-12T11:50:53Z</time></trkpt><trkpt lat="45.39985400157571" lon="11.516407427067804"><ele>226.79999999999998</ele><time>2026-04-12T11:50:55Z</time></trkpt><trkpt lat="45.3999280024144" lon="11.516478720376183"><ele>225.39999999999998</ele><time>2026-04-12T11:50:57Z</time></trkpt><trkpt lat="45.400046255429686" lon="11.516553027517649"><ele>224.0</ele><time>2026-04-12T11:50:59Z</time></trkpt><trkpt lat="45.400137280817844" lon="11.516598146995062"><ele>224.0</ele><time>2026-04-12T11:51:00Z</time></trkpt><trkpt lat="45.40023711968323" lon="11.516638337901515"><ele>224.0</ele><time>2026-04-12T11:51:01Z</time></trkpt><trkpt lat="45.400347999685046" lon="11.51665485733222"><ele>224.0</ele><time>2026-04-12T11:51:02Z</time></trkpt><trkpt lat="45.40046758149228" lon="11.516647905945577"><ele>224.0</ele><time>2026-04-12T11:51:03Z</time></trkpt><trkpt lat="45.4005906501909" lon="11.516605957579854"><ele>226.0</ele><time>2026-04-12T11:51:04Z</time></trkpt><trkpt lat="45.40071416487443" lon="11.516543873220204"><ele>228.0</ele><time>2026-04-12T11:51:05Z</time></trkpt><trkpt lat="45.4008193762098" lon="11.51644381905778"><ele>230.0</ele><time>2026-04-12T11:51:06Z</time></trkpt><trkpt lat="45.40092204109248" lon="11.516345705939079"><ele>232.0</ele><time>2026-04-12T11:51:07Z</time></trkpt><trkpt lat="45.40102746953341" lon="11.51624955742397"><ele>231.8</ele><time>2026-04-12T11:51:08Z</time></trkpt><trkpt lat="45.40113080637361" lon="11.516166377394265"><ele>231.6</ele><time>2026-04-12T11:51:09Z</time></trkpt><trkpt lat="45.4012258114615" lon="11.516090373272556"><ele>231.40000000000003</ele><time>2026-04-12T11:51:10Z</time></trkpt><trkpt lat="45.401313706474795" lon="11.516020603324007"><ele>231.20000000000002</ele><time>2026-04-12T11:51:11Z</time></trkpt><trkpt lat="45.401404940252725" lon="11.51594963933986"><ele>231.0</ele><time>2026-04-12T11:51:12Z</time></trkpt><trkpt lat="45.40150321525904" lon="11.515873198393939"><ele>234.75</ele><time>2026-04-12T11:51:13Z</time></trkpt><trkpt lat="45.401597306749224" lon="11.5157985470998"><ele>238.5</ele><time>2026-04-12T11:51:14Z</time></trkpt><trkpt lat="45.401687456672704" lon="11.515710971310288"><ele>242.25</ele><time>2026-04-12T11:51:15Z</time></trkpt><trkpt lat="45.40176026101148" lon="11.515592590379171"><ele>246.0</ele><time>2026-04-12T11:51:16Z</time></trkpt><trkpt lat="45.401829126553565" lon="11.515447397388563"><ele>245.0</ele><time>2026-04-12T11:51:17Z</time></trkpt><trkpt lat="45.40189154660063" lon="11.515284504708076"><ele>244.00000000000003</ele><time>2026-04-12T11:51:18Z</time></trkpt><trkpt lat="45.40195628073398" lon="11.515155105559947"><ele>243.00000000000003</ele><time>2026-04-12T11:51:19Z</time></trkpt><trkpt lat="45.40199708758242" lon="11.515058526466662"><ele>242.0</ele><time>2026-04-12T11:51:20Z</time></trkpt><trkpt lat="45.40204136823686" lon="11.514957461803364"><ele>241.0</ele><time>2026-04-12T11:51:21Z</time></trkpt><trkpt lat="45.402075773761254" lon="11.514879781772668"><ele>241.0</ele><time>2026-04-12T11:51:22Z</time></trkpt><trkpt lat="45.402123511297255" lon="11.514780550267957"><ele>241.00000000000003</ele><time>2026-04-12T11:51:24Z</time></trkpt><trkpt lat="45.402174938376426" lon="11.51468695067982"><ele>241.00000000000003</ele><time>2026-04-12T11:51:30Z</time></trkpt><trkpt lat="45.40227272110179" lon="11.514583151254543"><ele>241.0</ele><time>2026-04-12T11:51:37Z</time></trkpt><trkpt lat="45.40234803080404" lon="11.514497747179345"><ele>241.0</ele><time>2026-04-12T11:51:38Z</time></trkpt><trkpt lat="45.40245834641654" lon="11.514396283159678"><ele>242.0</ele><time>2026-04-12T11:51:39Z</time></trkpt><trkpt lat="45.40259076017947" lon="11.514330108797374"><ele>243.0</ele><time>2026-04-12T11:51:40Z</time></trkpt><trkpt lat="45.40272304362897" lon="11.514291354770531"><ele>244.0</ele><time>2026-04-12T11:51:41Z</time></trkpt><trkpt lat="45.40285480622245" lon="11.514239521736876"><ele>245.0</ele><time>2026-04-12T11:51:42Z</time></trkpt><trkpt lat="45.40298380973155" lon="11.514267667694234"><ele>247.5</ele><time>2026-04-12T11:51:43Z</time></trkpt><trkpt lat="45.40306725444095" lon="11.514210582938428"><ele>250.0</ele><time>2026-04-12T11:51:44Z</time></trkpt><trkpt lat="45.40307275463474" lon="11.514076627277019"><ele>252.5</ele><time>2026-04-12T11:51:45Z</time></trkpt><trkpt lat="45.403181416426264" lon="11.514042557036683"><ele>255.0</ele><time>2026-04-12T11:51:47Z</time></trkpt><trkpt lat="45.40350548426673" lon="11.514455704096177"><ele>255.0</ele><time>2026-04-12T11:51:48Z</time></trkpt><trkpt lat="45.40366919996032" lon="11.514522177419192"><ele>255.0</ele><time>2026-04-12T11:51:49Z</time></trkpt><trkpt lat="45.4037879394612" lon="11.514599199025506"><ele>255.0</ele><time>2026-04-12T11:51:50Z</time></trkpt><trkpt lat="45.40388003348718" lon="11.51468977239697"><ele>255.0</ele><time>2026-04-12T11:51:51Z</time></trkpt><trkpt lat="45.40397489108957" lon="11.514811170141105"><ele>258.25</ele><time>2026-04-12T11:51:52Z</time></trkpt><trkpt lat="45.40411062457395" lon="11.51490930573891"><ele>261.5</ele><time>2026-04-12T11:51:53Z</time></trkpt><trkpt lat="45.40425217132892" lon="11.514955511548884"><ele>264.75</ele><time>2026-04-12T11:51:54Z</time></trkpt><trkpt lat="45.40435658784059" lon="11.514966449759301"><ele>268.0</ele><time>2026-04-12T11:51:55Z</time></trkpt><trkpt lat="45.40445010247138" lon="11.514943561361077"><ele>268.0</ele><time>2026-04-12T11:51:56Z</time></trkpt><trkpt lat="45.40454000254679" lon="11.51495112842977"><ele>268.0</ele><time>2026-04-12T11:51:57Z</time></trkpt><trkpt lat="45.40464016974087" lon="11.514988653452448"><ele>268.0</ele><time>2026-04-12T11:51:58Z</time></trkpt><trkpt lat="45.404727725650005" lon="11.515044742781338"><ele>268.0</ele><time>2026-04-12T11:51:59Z</time></trkpt><trkpt lat="45.40479383398806" lon="11.515101007887477"><ele>268.0</ele><time>2026-04-12T11:52:00Z</time></trkpt><trkpt lat="45.404864551595786" lon="11.515181986678984"><ele>267.4</ele><time>2026-04-12T11:52:01Z</time></trkpt><trkpt lat="45.40494142450952" lon="11.515292862881"><ele>266.8</ele><time>2026-04-12T11:52:02Z</time></trkpt><trkpt lat="45.40501263821143" lon="11.515421890732487"><ele>266.2</ele><time>2026-04-12T11:52:03Z</time></trkpt><trkpt lat="45.405045260330056" lon="11.515525275416591"><ele>265.6</ele><time>2026-04-12T11:52:04Z</time></trkpt><trkpt lat="45.405040574874796" lon="11.515620886035435"><ele>265.0</ele><time>2026-04-12T11:52:05Z</time></trkpt><trkpt lat="45.40499435289044" lon="11.515735502361862"><ele>266.6</ele><time>2026-04-12T11:52:06Z</time></trkpt><trkpt lat="45.404957204552" lon="11.515865187457695"><ele>268.2</ele><time>2026-04-12T11:52:07Z</time></trkpt><trkpt lat="45.40494043239235" lon="11.516007429612833"><ele>269.8</ele><time>2026-04-12T11:52:08Z</time></trkpt><trkpt lat="45.40495799847169" lon="11.516138141499962"><ele>271.4</ele><time>2026-04-12T11:52:09Z</time></trkpt><trkpt lat="45.40499511762807" lon="11.516257076544907"><ele>273.0</ele><time>2026-04-12T11:52:10Z</time></trkpt><trkpt lat="45.405050304024556" lon="11.51638553336698"><ele>274.6</ele><time>2026-04-12T11:52:11Z</time></trkpt><trkpt lat="45.40508918557351" lon="11.516521987517104"><ele>276.20000000000005</ele><time>2026-04-12T11:52:12Z</time></trkpt><trkpt lat="45.405087287460816" lon="11.516645749017863"><ele>277.8</ele><time>2026-04-12T11:52:13Z</time></trkpt><trkpt lat="45.405040917110306" lon="11.516788512489908"><ele>279.40000000000003</ele><time>2026-04-12T11:52:14Z</time></trkpt><trkpt lat="45.40500082738647" lon="11.516929777863435"><ele>281.0</ele><time>2026-04-12T11:52:15Z</time></trkpt><trkpt lat="45.4050597846946" lon="11.517044793081245"><ele>281.0</ele><time>2026-04-12T11:52:17Z</time></trkpt><trkpt lat="45.40515546224153" lon="11.517101617036095"><ele>281.0</ele><time>2026-04-12T11:52:18Z</time></trkpt><trkpt lat="45.405240576428056" lon="11.517152327318154"><ele>281.0</ele><time>2026-04-12T11:52:19Z</time></trkpt><trkpt lat="45.40530925997536" lon="11.517160611909702"><ele>281.0</ele><time>2026-04-12T11:52:20Z</time></trkpt><trkpt lat="45.405385212429" lon="11.517076993899343"><ele>281.0</ele><time>2026-04-12T11:52:22Z</time></trkpt><trkpt lat="45.405449568463425" lon="11.51698364280984"><ele>281.00000000000006</ele><time>2026-04-12T11:52:24Z</time></trkpt><trkpt lat="45.4054922897728" lon="11.516913329256967"><ele>281.0</ele><time>2026-04-12T11:52:25Z</time></trkpt><trkpt lat="45.40554620099594" lon="11.516811194966957"><ele>281.0</ele><time>2026-04-12T11:52:26Z</time></trkpt><trkpt lat="45.405592748045514" lon="11.516716244708675"><ele>281.0</ele><time>2026-04-12T11:52:27Z</time></trkpt><trkpt lat="45.40563719128396" lon="11.516649299321012"><ele>281.0</ele><time>2026-04-12T11:52:28Z</time></trkpt><trkpt lat="45.40569244639112" lon="11.51658266310306"><ele>281.00000000000006</ele><time>2026-04-12T11:52:29Z</time></trkpt><trkpt lat="45.40575584683916" lon="11.516526223535603"><ele>281.0</ele><time>2026-04-12T11:52:30Z</time></trkpt><trkpt lat="45.40583287214382" lon="11.516499734046958"><ele>280.5</ele><time>2026-04-12T11:52:31Z</time></trkpt><trkpt lat="45.4059429002618" lon="11.51649196654228"><ele>280.0</ele><time>2026-04-12T11:52:32Z</time></trkpt><trkpt lat="45.40602977174695" lon="11.51642801959547"><ele>279.5</ele><time>2026-04-12T11:52:33Z</time></trkpt><trkpt lat="45.40608107642465" lon="11.516353620889856"><ele>279.0</ele><time>2026-04-12T11:52:34Z</time></trkpt><trkpt lat="45.406119087007006" lon="11.51625424232415"><ele>278.5</ele><time>2026-04-12T11:52:35Z</time></trkpt><trkpt lat="45.40615524967222" lon="11.516162099540757"><ele>278.0</ele><time>2026-04-12T11:52:36Z</time></trkpt><trkpt lat="45.40617490083344" lon="11.516067900738632"><ele>278.0</ele><time>2026-04-12T11:52:37Z</time></trkpt><trkpt lat="45.406155207360825" lon="11.515930297547497"><ele>278.0</ele><time>2026-04-12T11:52:39Z</time></trkpt><trkpt lat="45.40613558957457" lon="11.515776365511854"><ele>278.0</ele><time>2026-04-12T11:52:41Z</time></trkpt><trkpt lat="45.40615085751" lon="11.515668248815812"><ele>278.0</ele><time>2026-04-12T11:52:43Z</time></trkpt><trkpt lat="45.406191882003235" lon="11.515560973019884"><ele>278.0</ele><time>2026-04-12T11:52:46Z</time></trkpt><trkpt lat="45.40622376907109" lon="11.515466979771297"><ele>278.0</ele><time>2026-04-12T11:52:48Z</time></trkpt><trkpt lat="45.40620673799252" lon="11.515358499757093"><ele>277.0</ele><time>2026-04-12T11:52:49Z</time></trkpt><trkpt lat="45.4061621113616" lon="11.515168060805731"><ele>276.0</ele><time>2026-04-12T11:52:50Z</time></trkpt><trkpt lat="45.40608360386454" lon="11.514941908107428"><ele>275.0</ele><time>2026-04-12T11:52:51Z</time></trkpt><trkpt lat="45.406016453952276" lon="11.514698549261539"><ele>276.5</ele><time>2026-04-12T11:52:52Z</time></trkpt><trkpt lat="45.40598924868486" lon="11.514490917238042"><ele>278.0</ele><time>2026-04-12T11:52:53Z</time></trkpt><trkpt lat="45.405961211100085" lon="11.514323550667577"><ele>279.5</ele><time>2026-04-12T11:52:54Z</time></trkpt><trkpt lat="45.405903991149316" lon="11.514183803952601"><ele>281.0</ele><time>2026-04-12T11:52:55Z</time></trkpt><trkpt lat="45.40582814003349" lon="11.514067820260776"><ele>281.0</ele><time>2026-04-12T11:52:56Z</time></trkpt><trkpt lat="45.40575753541394" lon="11.514033074443331"><ele>281.0</ele><time>2026-04-12T11:52:57Z</time></trkpt><trkpt lat="45.405687161339785" lon="11.51401232547761"><ele>281.0</ele><time>2026-04-12T11:52:58Z</time></trkpt><trkpt lat="45.40560407005158" lon="11.513952187609446"><ele>281.0</ele><time>2026-04-12T11:53:00Z</time></trkpt><trkpt lat="45.405540822082095" lon="11.513943011998341"><ele>281.0</ele><time>2026-04-12T11:53:01Z</time></trkpt><trkpt lat="45.405423413797145" lon="11.513949194752573"><ele>281.0</ele><time>2026-04-12T11:53:03Z</time></trkpt><trkpt lat="45.40530539356614" lon="11.513844124477965"><ele>280.8</ele><time>2026-04-12T11:53:05Z</time></trkpt><trkpt lat="45.40524041923185" lon="11.513774465757576"><ele>280.6</ele><time>2026-04-12T11:53:06Z</time></trkpt><trkpt lat="45.40520222831481" lon="11.513672212922765"><ele>280.4</ele><time>2026-04-12T11:53:07Z</time></trkpt><trkpt lat="45.405169299278775" lon="11.513531749950063"><ele>280.2</ele><time>2026-04-12T11:53:09Z</time></trkpt><trkpt lat="45.40513744194982" lon="11.513396798413167"><ele>280.0</ele><time>2026-04-12T11:53:10Z</time></trkpt><trkpt lat="45.40511607395746" lon="11.51327335459998"><ele>280.0</ele><time>2026-04-12T11:53:11Z</time></trkpt><trkpt lat="45.40511173960618" lon="11.51315843289389"><ele>280.0</ele><time>2026-04-12T11:53:12Z</time></trkpt><trkpt lat="45.40509227603465" lon="11.513069786319956"><ele>280.0</ele><time>2026-04-12T11:53:13Z</time></trkpt><trkpt lat="45.40520545808874" lon="11.512904041987507"><ele>280.0</ele><time>2026-04-12T11:53:20Z</time></trkpt><trkpt lat="45.40513248111695" lon="11.512897108098624"><ele>280.0</ele><time>2026-04-12T11:53:21Z</time></trkpt><trkpt lat="45.404979549633744" lon="11.512793134665696"><ele>282.0</ele><time>2026-04-12T11:53:23Z</time></trkpt><trkpt lat="45.404903760086185" lon="11.51274100452206"><ele>284.0</ele><time>2026-04-12T11:53:24Z</time></trkpt><trkpt lat="45.404822988196244" lon="11.512728774865444"><ele>286.0</ele><time>2026-04-12T11:53:26Z</time></trkpt><trkpt lat="45.404814686241885" lon="11.512620810659595"><ele>288.0</ele><time>2026-04-12T11:53:29Z</time></trkpt><trkpt lat="45.404916488860295" lon="11.512556261404034"><ele>290.0</ele><time>2026-04-12T11:53:31Z</time></trkpt><trkpt lat="45.40502833307726" lon="11.512550393081225"><ele>290.0</ele><time>2026-04-12T11:53:32Z</time></trkpt><trkpt lat="45.40514258598761" lon="11.512527763846698"><ele>290.0</ele><time>2026-04-12T11:53:33Z</time></trkpt><trkpt lat="45.405226287467215" lon="11.512522007589615"><ele>290.0</ele><time>2026-04-12T11:53:34Z</time></trkpt><trkpt lat="45.40530135797554" lon="11.512527929449536"><ele>290.0</ele><time>2026-04-12T11:53:35Z</time></trkpt><trkpt lat="45.4053839620934" lon="11.512536160616785"><ele>290.0</ele><time>2026-04-12T11:53:36Z</time></trkpt><trkpt lat="45.40546938732025" lon="11.512516514163151"><ele>290.0</ele><time>2026-04-12T11:53:37Z</time></trkpt><trkpt lat="45.40554489277362" lon="11.512454838916298"><ele>290.6</ele><time>2026-04-12T11:53:38Z</time></trkpt><trkpt lat="45.405625165425825" lon="11.512388192351914"><ele>291.2</ele><time>2026-04-12T11:53:39Z</time></trkpt><trkpt lat="45.40569963090165" lon="11.512348671830408"><ele>291.8</ele><time>2026-04-12T11:53:40Z</time></trkpt><trkpt lat="45.40577623357107" lon="11.512236862218986"><ele>292.4</ele><time>2026-04-12T11:53:42Z</time></trkpt><trkpt lat="45.40588203410677" lon="11.512187278667659"><ele>293.0</ele><time>2026-04-12T11:53:44Z</time></trkpt><trkpt lat="45.40596400504274" lon="11.512118796582355"><ele>294.0</ele><time>2026-04-12T11:53:45Z</time></trkpt><trkpt lat="45.40606256279543" lon="11.512072874613047"><ele>295.0</ele><time>2026-04-12T11:53:46Z</time></trkpt><trkpt lat="45.40619941921055" lon="11.51202063559109"><ele>296.0</ele><time>2026-04-12T11:53:47Z</time></trkpt><trkpt lat="45.40629891949994" lon="11.511962605241841"><ele>297.0</ele><time>2026-04-12T11:53:48Z</time></trkpt><trkpt lat="45.40636193154241" lon="11.5119226880998"><ele>298.0</ele><time>2026-04-12T11:53:49Z</time></trkpt><trkpt lat="45.40647639865848" lon="11.51192122311114"><ele>301.6</ele><time>2026-04-12T11:53:51Z</time></trkpt><trkpt lat="45.406554180635446" lon="11.511951379006454"><ele>305.20000000000005</ele><time>2026-04-12T11:53:52Z</time></trkpt><trkpt lat="45.4066366147137" lon="11.511960702567835"><ele>308.8</ele><time>2026-04-12T11:53:53Z</time></trkpt><trkpt lat="45.4067035486069" lon="11.511949544153989"><ele>312.40000000000003</ele><time>2026-04-12T11:53:54Z</time></trkpt><trkpt lat="45.40683696924003" lon="11.51199060938195"><ele>316.0</ele><time>2026-04-12T11:53:56Z</time></trkpt><trkpt lat="45.406922771557696" lon="11.512034891212776"><ele>316.0</ele><time>2026-04-12T11:53:57Z</time></trkpt><trkpt lat="45.4069890344721" lon="11.51201793957605"><ele>316.0</ele><time>2026-04-12T11:53:58Z</time></trkpt><trkpt lat="45.40710052441876" lon="11.512075037371428"><ele>316.0</ele><time>2026-04-12T11:54:00Z</time></trkpt><trkpt lat="45.4071843204922" lon="11.51221508737664"><ele>316.0</ele><time>2026-04-12T11:54:01Z</time></trkpt><trkpt lat="45.40729098956676" lon="11.512344999780469"><ele>317.3333333333333</ele><time>2026-04-12T11:54:02Z</time></trkpt><trkpt lat="45.407369975648244" lon="11.512423879785757"><ele>318.66666666666663</ele><time>2026-04-12T11:54:03Z</time></trkpt><trkpt lat="45.40743315575186" lon="11.51247148039407"><ele>320.0</ele><time>2026-04-12T11:54:04Z</time></trkpt><trkpt lat="45.40751059606331" lon="11.512457840135095"><ele>321.3333333333333</ele><time>2026-04-12T11:54:06Z</time></trkpt><trkpt lat="45.40754695565178" lon="11.512290417399626"><ele>322.6666666666667</ele><time>2026-04-12T11:54:08Z</time></trkpt><trkpt lat="45.407565425557586" lon="11.512202067368612"><ele>324.0</ele><time>2026-04-12T11:54:09Z</time></trkpt><trkpt lat="45.4076405263861" lon="11.512140199654691"><ele>324.0</ele><time>2026-04-12T11:54:11Z</time></trkpt><trkpt lat="45.40774751487921" lon="11.51216407002359"><ele>324.0</ele><time>2026-04-12T11:54:12Z</time></trkpt><trkpt lat="45.40781747791525" lon="11.512166084863528"><ele>324.0</ele><time>2026-04-12T11:54:13Z</time></trkpt><trkpt lat="45.407898044667945" lon="11.512252739612437"><ele>324.0</ele><time>2026-04-12T11:54:16Z</time></trkpt><trkpt lat="45.407989544956536" lon="11.512274243778895"><ele>324.0</ele><time>2026-04-12T11:54:19Z</time></trkpt><trkpt lat="45.408044413885776" lon="11.512415246937854"><ele>324.4</ele><time>2026-04-12T11:54:21Z</time></trkpt><trkpt lat="45.40807397449014" lon="11.512559614630598"><ele>324.79999999999995</ele><time>2026-04-12T11:54:22Z</time></trkpt><trkpt lat="45.4080983499764" lon="11.512760641494653"><ele>325.20000000000005</ele><time>2026-04-12T11:54:23Z</time></trkpt><trkpt lat="45.40810638501326" lon="11.512901823319192"><ele>325.6</ele><time>2026-04-12T11:54:24Z</time></trkpt><trkpt lat="45.40808444976104" lon="11.512992246179865"><ele>326.0</ele><time>2026-04-12T11:54:25Z</time></trkpt><trkpt lat="45.408094469180405" lon="11.513143055313801"><ele>326.6666666666667</ele><time>2026-04-12T11:54:27Z</time></trkpt><trkpt lat="45.408161430238025" lon="11.51315777895449"><ele>327.33333333333337</ele><time>2026-04-12T11:54:28Z</time></trkpt><trkpt lat="45.4082522992218" lon="11.513204611490334"><ele>328.0</ele><time>2026-04-12T11:54:29Z</time></trkpt><trkpt lat="45.40833782863566" lon="11.513286466296325"><ele>328.6666666666667</ele><time>2026-04-12T11:54:30Z</time></trkpt><trkpt lat="45.40839291719012" lon="11.513358774387134"><ele>329.3333333333333</ele><time>2026-04-12T11:54:31Z</time></trkpt><trkpt lat="45.408451171401914" lon="11.513432427441261"><ele>330.0</ele><time>2026-04-12T11:54:32Z</time></trkpt><trkpt lat="45.4085488063394" lon="11.513523912686063"><ele>330.0</ele><time>2026-04-12T11:54:34Z</time></trkpt><trkpt lat="45.40862207446956" lon="11.513544401431858"><ele>330.0</ele><time>2026-04-12T11:54:35Z</time></trkpt><trkpt lat="45.40868449764891" lon="11.51358023391877"><ele>330.0</ele><time>2026-04-12T11:54:36Z</time></trkpt><trkpt lat="45.40875068402532" lon="11.513661359215904"><ele>330.0</ele><time>2026-04-12T11:54:38Z</time></trkpt><trkpt lat="45.408842968230836" lon="11.513660621744624"><ele>330.0</ele><time>2026-04-12T11:54:41Z</time></trkpt><trkpt lat="45.408915147566965" lon="11.513687975401991"><ele>330.0</ele><time>2026-04-12T11:54:43Z</time></trkpt><trkpt lat="45.408967712545625" lon="11.513739038901916"><ele>333.6</ele><time>2026-04-12T11:54:44Z</time></trkpt><trkpt lat="45.40908870772901" lon="11.513839951401884"><ele>337.2</ele><time>2026-04-12T11:54:46Z</time></trkpt><trkpt lat="45.409162546460976" lon="11.513912627909662"><ele>340.79999999999995</ele><time>2026-04-12T11:54:47Z</time></trkpt><trkpt lat="45.409228481612075" lon="11.513953744445075"><ele>344.4</ele><time>2026-04-12T11:54:48Z</time></trkpt><trkpt lat="45.40930764801626" lon="11.513927556246811"><ele>348.0</ele><time>2026-04-12T11:54:49Z</time></trkpt><trkpt lat="45.409352090371655" lon="11.513845181859017"><ele>348.0</ele><time>2026-04-12T11:54:51Z</time></trkpt><trkpt lat="45.40945175642265" lon="11.513784318262857"><ele>348.0</ele><time>2026-04-12T11:54:54Z</time></trkpt><trkpt lat="45.4095180896206" lon="11.513740874073"><ele>348.0</ele><time>2026-04-12T11:54:55Z</time></trkpt><trkpt lat="45.40957710557854" lon="11.513695892096349"><ele>348.0</ele><time>2026-04-12T11:54:56Z</time></trkpt><trkpt lat="45.40963764040242" lon="11.513615131814625"><ele>348.0</ele><time>2026-04-12T11:54:57Z</time></trkpt><trkpt lat="45.40967939468827" lon="11.513520807647796"><ele>348.0</ele><time>2026-04-12T11:54:58Z</time></trkpt><trkpt lat="45.409782104772006" lon="11.513467458154981"><ele>349.0</ele><time>2026-04-12T11:55:00Z</time></trkpt><trkpt lat="45.40985919940229" lon="11.513409887970651"><ele>350.0</ele><time>2026-04-12T11:55:02Z</time></trkpt><trkpt lat="45.409914720614786" lon="11.51328133501735"><ele>351.0</ele><time>2026-04-12T11:55:03Z</time></trkpt><trkpt lat="45.409966036535415" lon="11.513150744046266"><ele>352.0</ele><time>2026-04-12T11:55:04Z</time></trkpt><trkpt lat="45.40999606284773" lon="11.513063766229788"><ele>353.0</ele><time>2026-04-12T11:55:05Z</time></trkpt><trkpt lat="45.4100258055349" lon="11.512976880812065"><ele>354.0</ele><time>2026-04-12T11:55:06Z</time></trkpt><trkpt lat="45.4100490232584" lon="11.51288289204843"><ele>351.8333333333333</ele><time>2026-04-12T11:55:07Z</time></trkpt><trkpt lat="45.41009451668725" lon="11.512791268064877"><ele>349.6666666666667</ele><time>2026-04-12T11:55:08Z</time></trkpt><trkpt lat="45.41013936094621" lon="11.512715594009808"><ele>347.5</ele><time>2026-04-12T11:55:09Z</time></trkpt><trkpt lat="45.410204668474464" lon="11.51257626197199"><ele>345.33333333333337</ele><time>2026-04-12T11:55:11Z</time></trkpt><trkpt lat="45.41024200503028" lon="11.512501277518531"><ele>343.1666666666667</ele><time>2026-04-12T11:55:12Z</time></trkpt><trkpt lat="45.410293726809954" lon="11.512410857905941"><ele>341.0</ele><time>2026-04-12T11:55:14Z</time></trkpt><trkpt lat="45.41038617175329" lon="11.512468089522065"><ele>341.0</ele><time>2026-04-12T11:55:16Z</time></trkpt><trkpt lat="45.410454124523305" lon="11.51250463569824"><ele>341.0</ele><time>2026-04-12T11:55:17Z</time></trkpt><trkpt lat="45.410576653889215" lon="11.512447667103855"><ele>341.0</ele><time>2026-04-12T11:55:19Z</time></trkpt><trkpt lat="45.410638885391116" lon="11.5124029488388"><ele>341.0</ele><time>2026-04-12T11:55:20Z</time></trkpt><trkpt lat="45.410682826588356" lon="11.512334838670087"><ele>341.0</ele><time>2026-04-12T11:55:21Z</time></trkpt><trkpt lat="45.410729198269635" lon="11.512223856401404"><ele>341.0</ele><time>2026-04-12T11:55:22Z</time></trkpt><trkpt lat="45.41079120635899" lon="11.51215810198243"><ele>339.8</ele><time>2026-04-12T11:55:23Z</time></trkpt><trkpt lat="45.41086105511076" lon="11.512158586632676"><ele>338.6</ele><time>2026-04-12T11:55:24Z</time></trkpt><trkpt lat="45.41098920259775" lon="11.512196314383013"><ele>337.4</ele><time>2026-04-12T11:55:26Z</time></trkpt><trkpt lat="45.41107064303924" lon="11.512226786927009"><ele>336.2</ele><time>2026-04-12T11:55:27Z</time></trkpt><trkpt lat="45.411133158239224" lon="11.512254645301672"><ele>335.0</ele><time>2026-04-12T11:55:28Z</time></trkpt><trkpt lat="45.41124272530769" lon="11.512298694281052"><ele>334.0</ele><time>2026-04-12T11:55:30Z</time></trkpt><trkpt lat="45.41137078555016" lon="11.51229542865218"><ele>333.0</ele><time>2026-04-12T11:55:32Z</time></trkpt><trkpt lat="45.41142998141108" lon="11.512260692249638"><ele>332.0</ele><time>2026-04-12T11:55:33Z</time></trkpt><trkpt lat="45.41149782654967" lon="11.512203189810087"><ele>331.0</ele><time>2026-04-12T11:55:34Z</time></trkpt><trkpt lat="45.411575629562996" lon="11.512163722707156"><ele>330.0</ele><time>2026-04-12T11:55:35Z</time></trkpt><trkpt lat="45.4116639679071" lon="11.512125526364699"><ele>329.0</ele><time>2026-04-12T11:55:36Z</time></trkpt><trkpt lat="45.41177168156786" lon="11.512038818385204"><ele>329.0</ele><time>2026-04-12T11:55:37Z</time></trkpt><trkpt lat="45.411867531865504" lon="11.51198534671308"><ele>329.0</ele><time>2026-04-12T11:55:38Z</time></trkpt><trkpt lat="45.41196443772608" lon="11.51195996686645"><ele>329.0</ele><time>2026-04-12T11:55:40Z</time></trkpt><trkpt lat="45.4120096019992" lon="11.512056411640309"><ele>329.0</ele><time>2026-04-12T11:55:44Z</time></trkpt><trkpt lat="45.41208720843" lon="11.512117945762723"><ele>329.0</ele><time>2026-04-12T11:55:46Z</time></trkpt><trkpt lat="45.412188944985864" lon="11.512202920340881"><ele>327.2</ele><time>2026-04-12T11:55:48Z</time></trkpt><trkpt lat="45.41216639054343" lon="11.51243478681349"><ele>325.4</ele><time>2026-04-12T11:55:49Z</time></trkpt><trkpt lat="45.412189660465046" lon="11.512533082319438"><ele>323.6</ele><time>2026-04-12T11:55:50Z</time></trkpt><trkpt lat="45.41226392696306" lon="11.512656882892372"><ele>321.8</ele><time>2026-04-12T11:55:52Z</time></trkpt><trkpt lat="45.41232695452403" lon="11.51274531071983"><ele>320.0</ele><time>2026-04-12T11:55:54Z</time></trkpt><trkpt lat="45.41241630080252" lon="11.512833105930845"><ele>322.0</ele><time>2026-04-12T11:55:56Z</time></trkpt><trkpt lat="45.41247509076388" lon="11.51291382231276"><ele>324.0</ele><time>2026-04-12T11:55:57Z</time></trkpt><trkpt lat="45.41251996890992" lon="11.512990206466123"><ele>326.0</ele><time>2026-04-12T11:55:58Z</time></trkpt><trkpt lat="45.41258701176025" lon="11.513125091243287"><ele>328.0</ele><time>2026-04-12T11:56:00Z</time></trkpt><trkpt lat="45.41265724532719" lon="11.513248645317187"><ele>330.0</ele><time>2026-04-12T11:56:02Z</time></trkpt><trkpt lat="45.41271176134762" lon="11.513299317287894"><ele>332.0</ele><time>2026-04-12T11:56:04Z</time></trkpt><trkpt lat="45.4128028370663" lon="11.513348489687477"><ele>332.0</ele><time>2026-04-12T11:56:06Z</time></trkpt><trkpt lat="45.412878483542826" lon="11.513471924708835"><ele>332.0</ele><time>2026-04-12T11:56:08Z</time></trkpt><trkpt lat="45.412904840124895" lon="11.513556767435144"><ele>332.0</ele><time>2026-04-12T11:56:09Z</time></trkpt><trkpt lat="45.41293944146266" lon="11.513732583793491"><ele>332.0</ele><time>2026-04-12T11:56:11Z</time></trkpt><trkpt lat="45.41293584846491" lon="11.513860683059026"><ele>332.0</ele><time>2026-04-12T11:56:12Z</time></trkpt><trkpt lat="45.41290896320173" lon="11.514031658538851"><ele>331.6</ele><time>2026-04-12T11:56:13Z</time></trkpt><trkpt lat="45.412903872230146" lon="11.514174135635836"><ele>331.20000000000005</ele><time>2026-04-12T11:56:14Z</time></trkpt><trkpt lat="45.41291914078111" lon="11.514323842416912"><ele>330.8</ele><time>2026-04-12T11:56:16Z</time></trkpt><trkpt lat="45.41295176426904" lon="11.514458587772012"><ele>330.4</ele><time>2026-04-12T11:56:17Z</time></trkpt><trkpt lat="45.41299804027814" lon="11.514542058965091"><ele>330.0</ele><time>2026-04-12T11:56:18Z</time></trkpt><trkpt lat="45.41304933649523" lon="11.514609898040606"><ele>331.1666666666667</ele><time>2026-04-12T11:56:20Z</time></trkpt><trkpt lat="45.41306079713817" lon="11.514714280717543"><ele>332.3333333333333</ele><time>2026-04-12T11:56:22Z</time></trkpt><trkpt lat="45.4130623342591" lon="11.51483115099327"><ele>333.5</ele><time>2026-04-12T11:56:23Z</time></trkpt><trkpt lat="45.41306801300012" lon="11.51492705095593"><ele>334.66666666666663</ele><time>2026-04-12T11:56:24Z</time></trkpt><trkpt lat="45.41305689658282" lon="11.51503398492331"><ele>335.8333333333333</ele><time>2026-04-12T11:56:25Z</time></trkpt><trkpt lat="45.41305664120853" lon="11.515162911152172"><ele>337.0</ele><time>2026-04-12T11:56:26Z</time></trkpt><trkpt lat="45.41303867341019" lon="11.515288053357192"><ele>339.6</ele><time>2026-04-12T11:56:27Z</time></trkpt><trkpt lat="45.412994183217684" lon="11.515433080718198"><ele>342.20000000000005</ele><time>2026-04-12T11:56:29Z</time></trkpt><trkpt lat="45.41302125511855" lon="11.515519443937784"><ele>344.8</ele><time>2026-04-12T11:56:30Z</time></trkpt><trkpt lat="45.41300450462157" lon="11.515640234207664"><ele>347.4</ele><time>2026-04-12T11:56:32Z</time></trkpt><trkpt lat="45.412987585276326" lon="11.515776834591003"><ele>350.0</ele><time>2026-04-12T11:56:34Z</time></trkpt><trkpt lat="45.412904655997444" lon="11.515917413969179"><ele>350.1666666666667</ele><time>2026-04-12T11:56:36Z</time></trkpt><trkpt lat="45.41283010096517" lon="11.515941830780672"><ele>350.33333333333337</ele><time>2026-04-12T11:56:37Z</time></trkpt><trkpt lat="45.412752646734894" lon="11.515928101046555"><ele>350.5</ele><time>2026-04-12T11:56:38Z</time></trkpt><trkpt lat="45.41268913066512" lon="11.515931296244622"><ele>350.6666666666667</ele><time>2026-04-12T11:56:39Z</time></trkpt><trkpt lat="45.412644094701704" lon="11.51601130803859"><ele>350.8333333333333</ele><time>2026-04-12T11:56:41Z</time></trkpt><trkpt lat="45.412694093097265" lon="11.516105489750553"><ele>351.0</ele><time>2026-04-12T11:56:43Z</time></trkpt><trkpt lat="45.412762901092584" lon="11.516217448503783"><ele>352.6</ele><time>2026-04-12T11:56:45Z</time></trkpt><trkpt lat="45.41282578150012" lon="11.516246592810475"><ele>354.20000000000005</ele><time>2026-04-12T11:56:46Z</time></trkpt><trkpt lat="45.412903873115006" lon="11.51630992508819"><ele>355.79999999999995</ele><time>2026-04-12T11:56:47Z</time></trkpt><trkpt lat="45.41301588636354" lon="11.516326968957484"><ele>357.4</ele><time>2026-04-12T11:56:48Z</time></trkpt><trkpt lat="45.41310731732984" lon="11.516371061417304"><ele>359.0</ele><time>2026-04-12T11:56:49Z</time></trkpt><trkpt lat="45.413193847446315" lon="11.516407257176047"><ele>359.0</ele><time>2026-04-12T11:56:50Z</time></trkpt><trkpt lat="45.41327752828288" lon="11.516435080118754"><ele>359.0</ele><time>2026-04-12T11:56:51Z</time></trkpt><trkpt lat="45.41335829333143" lon="11.516461306488631"><ele>359.0</ele><time>2026-04-12T11:56:52Z</time></trkpt><trkpt lat="45.413428052838945" lon="11.516487232426373"><ele>359.0</ele><time>2026-04-12T11:56:53Z</time></trkpt><trkpt lat="45.41354173217097" lon="11.516504075635833"><ele>359.0</ele><time>2026-04-12T11:56:55Z</time></trkpt><trkpt lat="45.41363773760075" lon="11.51650735217225"><ele>359.0</ele><time>2026-04-12T11:56:57Z</time></trkpt><trkpt lat="45.41367058704296" lon="11.516639478634609"><ele>359.0</ele><time>2026-04-12T11:56:59Z</time></trkpt><trkpt lat="45.41364473159153" lon="11.516743783175844"><ele>359.0</ele><time>2026-04-12T11:57:00Z</time></trkpt><trkpt lat="45.41362988080008" lon="11.51686143202597"><ele>359.0</ele><time>2026-04-12T11:57:01Z</time></trkpt><trkpt lat="45.413644839010374" lon="11.516963039443677"><ele>359.0</ele><time>2026-04-12T11:57:02Z</time></trkpt><trkpt lat="45.41365799096638" lon="11.517060272497048"><ele>359.0</ele><time>2026-04-12T11:57:03Z</time></trkpt><trkpt lat="45.41369384859042" lon="11.517173111980238"><ele>360.6</ele><time>2026-04-12T11:57:05Z</time></trkpt><trkpt lat="45.41371337534944" lon="11.51725970615091"><ele>362.2</ele><time>2026-04-12T11:57:07Z</time></trkpt><trkpt lat="45.413636361714126" lon="11.517389359866133"><ele>363.8</ele><time>2026-04-12T11:57:09Z</time></trkpt><trkpt lat="45.41356605981558" lon="11.517427744989483"><ele>365.40000000000003</ele><time>2026-04-12T11:57:10Z</time></trkpt><trkpt lat="45.41346901346842" lon="11.517477523513989"><ele>367.0</ele><time>2026-04-12T11:57:12Z</time></trkpt><trkpt lat="45.413385778377595" lon="11.517526574612807"><ele>367.0</ele><time>2026-04-12T11:57:14Z</time></trkpt><trkpt lat="45.41332415060902" lon="11.517561627629556"><ele>367.0</ele><time>2026-04-12T11:57:16Z</time></trkpt><trkpt lat="45.41343126449602" lon="11.517714504584566"><ele>367.0</ele><time>2026-04-12T11:57:18Z</time></trkpt><trkpt lat="45.413497576054176" lon="11.517789508897918"><ele>367.0</ele><time>2026-04-12T11:57:19Z</time></trkpt><trkpt lat="45.41356579733185" lon="11.517909042659339"><ele>367.0</ele><time>2026-04-12T11:57:20Z</time></trkpt><trkpt lat="45.41359723800181" lon="11.518001898543526"><ele>367.5</ele><time>2026-04-12T11:57:21Z</time></trkpt><trkpt lat="45.41327169584443" lon="11.518389970232827"><ele>368.0</ele><time>2026-04-12T11:57:23Z</time></trkpt><trkpt lat="45.41318371861276" lon="11.518546098436458"><ele>368.0</ele><time>2026-04-12T11:57:24Z</time></trkpt><trkpt lat="45.413114923348644" lon="11.518666033948726"><ele>368.0</ele><time>2026-04-12T11:57:25Z</time></trkpt><trkpt lat="45.41305767164733" lon="11.5187811692229"><ele>368.0</ele><time>2026-04-12T11:57:26Z</time></trkpt><trkpt lat="45.41299422315418" lon="11.518868834815265"><ele>368.0</ele><time>2026-04-12T11:57:27Z</time></trkpt><trkpt lat="45.41291772356944" lon="11.518943166315623"><ele>368.0</ele><time>2026-04-12T11:57:28Z</time></trkpt><trkpt lat="45.41284298686839" lon="11.518992974064563"><ele>367.2</ele><time>2026-04-12T11:57:29Z</time></trkpt><trkpt lat="45.412791268206966" lon="11.519051109047044"><ele>366.4</ele><time>2026-04-12T11:57:30Z</time></trkpt><trkpt lat="45.41275886845765" lon="11.519203929864245"><ele>365.59999999999997</ele><time>2026-04-12T11:57:32Z</time></trkpt><trkpt lat="45.4127449360099" lon="11.519366370057613"><ele>364.79999999999995</ele><time>2026-04-12T11:57:34Z</time></trkpt><trkpt lat="45.41270755890409" lon="11.519510186965826"><ele>364.0</ele><time>2026-04-12T11:57:36Z</time></trkpt><trkpt lat="45.41271259315502" lon="11.51961261133107"><ele>364.0</ele><time>2026-04-12T11:57:39Z</time></trkpt><trkpt lat="45.41281076072806" lon="11.519592016447216"><ele>364.0</ele><time>2026-04-12T11:57:48Z</time></trkpt><trkpt lat="45.412930665250194" lon="11.519572676961847"><ele>364.0</ele><time>2026-04-12T11:57:49Z</time></trkpt><trkpt lat="45.41306526622419" lon="11.519519174080393"><ele>364.0</ele><time>2026-04-12T11:57:50Z</time></trkpt><trkpt lat="45.4131992374123" lon="11.519447552010911"><ele>363.6</ele><time>2026-04-12T11:57:51Z</time></trkpt><trkpt lat="45.41329098364007" lon="11.51937364696196"><ele>363.2</ele><time>2026-04-12T11:57:52Z</time></trkpt><trkpt lat="45.4133781918921" lon="11.519319615273732"><ele>362.8</ele><time>2026-04-12T11:57:53Z</time></trkpt><trkpt lat="45.41344234452349" lon="11.519333850627207"><ele>362.40000000000003</ele><time>2026-04-12T11:57:54Z</time></trkpt><trkpt lat="45.413473374877704" lon="11.519510949077025"><ele>362.0</ele><time>2026-04-12T11:57:56Z</time></trkpt><trkpt lat="45.41345495411954" lon="11.519620581988166"><ele>362.0</ele><time>2026-04-12T11:57:57Z</time></trkpt><trkpt lat="45.4134341892024" lon="11.519765002716465"><ele>362.0</ele><time>2026-04-12T11:57:58Z</time></trkpt><trkpt lat="45.41342403442889" lon="11.519941287713658"><ele>362.0</ele><time>2026-04-12T11:57:59Z</time></trkpt><trkpt lat="45.413450439632115" lon="11.520075258176279"><ele>362.0</ele><time>2026-04-12T11:58:00Z</time></trkpt><trkpt lat="45.41350829867223" lon="11.520138836972276"><ele>362.0</ele><time>2026-04-12T11:58:01Z</time></trkpt><trkpt lat="45.41357080351556" lon="11.520176455190061"><ele>362.0</ele><time>2026-04-12T11:58:02Z</time></trkpt><trkpt lat="45.41368557531251" lon="11.520200649266728"><ele>362.0</ele><time>2026-04-12T11:58:03Z</time></trkpt><trkpt lat="45.41380818532031" lon="11.520244267443648"><ele>362.0</ele><time>2026-04-12T11:58:04Z</time></trkpt><trkpt lat="45.41389565827554" lon="11.520307756153997"><ele>362.0</ele><time>2026-04-12T11:58:05Z</time></trkpt><trkpt lat="45.413968182003664" lon="11.520416908188452"><ele>362.0</ele><time>2026-04-12T11:58:06Z</time></trkpt><trkpt lat="45.41404029557623" lon="11.520572208250634"><ele>361.33333333333337</ele><time>2026-04-12T11:58:07Z</time></trkpt><trkpt lat="45.41411138938921" lon="11.520713725258549"><ele>360.6666666666667</ele><time>2026-04-12T11:58:08Z</time></trkpt><trkpt lat="45.41416947213861" lon="11.520819727462728"><ele>360.0</ele><time>2026-04-12T11:58:09Z</time></trkpt><trkpt lat="45.414236777728945" lon="11.52086875868606"><ele>359.3333333333333</ele><time>2026-04-12T11:58:10Z</time></trkpt><trkpt lat="45.41431201557429" lon="11.520894100811983"><ele>358.66666666666663</ele><time>2026-04-12T11:58:11Z</time></trkpt><trkpt lat="45.414389641241684" lon="11.520907215839776"><ele>358.0</ele><time>2026-04-12T11:58:12Z</time></trkpt><trkpt lat="45.41446376268672" lon="11.520935065510955"><ele>358.0</ele><time>2026-04-12T11:58:13Z</time></trkpt><trkpt lat="45.41453580974332" lon="11.520954505512519"><ele>358.0</ele><time>2026-04-12T11:58:14Z</time></trkpt><trkpt lat="45.41460332190258" lon="11.520972831388704"><ele>358.0</ele><time>2026-04-12T11:58:15Z</time></trkpt><trkpt lat="45.41467028743554" lon="11.520996552888382"><ele>358.0</ele><time>2026-04-12T11:58:16Z</time></trkpt><trkpt lat="45.414799783126895" lon="11.52096229695287"><ele>358.0</ele><time>2026-04-12T11:58:18Z</time></trkpt><trkpt lat="45.41486649732484" lon="11.520944919795395"><ele>358.0</ele><time>2026-04-12T11:58:19Z</time></trkpt><trkpt lat="45.414934987210735" lon="11.520942551618052"><ele>358.00000000000006</ele><time>2026-04-12T11:58:20Z</time></trkpt><trkpt lat="45.41500388002461" lon="11.520942583523025"><ele>358.0</ele><time>2026-04-12T11:58:21Z</time></trkpt><trkpt lat="45.41508102739971" lon="11.520969912623075"><ele>358.0</ele><time>2026-04-12T11:58:23Z</time></trkpt><trkpt lat="45.41511762541193" lon="11.521049832585343"><ele>358.0</ele><time>2026-04-12T11:58:26Z</time></trkpt><trkpt lat="45.41515748449345" lon="11.521150292346256"><ele>358.0</ele><time>2026-04-12T11:58:28Z</time></trkpt><trkpt lat="45.41519901976937" lon="11.521223876405232"><ele>358.00000000000006</ele><time>2026-04-12T11:58:29Z</time></trkpt><trkpt lat="45.415235220417685" lon="11.521316081675915"><ele>358.0</ele><time>2026-04-12T11:58:30Z</time></trkpt><trkpt lat="45.41528486904935" lon="11.52138695873588"><ele>357.8333333333333</ele><time>2026-04-12T11:58:31Z</time></trkpt><trkpt lat="45.41535302481654" lon="11.521439795853789"><ele>357.66666666666663</ele><time>2026-04-12T11:58:32Z</time></trkpt><trkpt lat="45.41544128685864" lon="11.521482403714261"><ele>357.5</ele><time>2026-04-12T11:58:33Z</time></trkpt><trkpt lat="45.415521696304424" lon="11.521512737044326"><ele>357.3333333333333</ele><time>2026-04-12T11:58:34Z</time></trkpt><trkpt lat="45.415602619326414" lon="11.521554297317993"><ele>357.1666666666667</ele><time>2026-04-12T11:58:35Z</time></trkpt><trkpt lat="45.41568946482713" lon="11.521602809318773"><ele>357.0</ele><time>2026-04-12T11:58:36Z</time></trkpt><trkpt lat="45.41578341279879" lon="11.521617026047874"><ele>354.8</ele><time>2026-04-12T11:58:37Z</time></trkpt><trkpt lat="45.41587465834059" lon="11.521586788380679"><ele>352.6</ele><time>2026-04-12T11:58:38Z</time></trkpt><trkpt lat="45.415961471537855" lon="11.521562764695584"><ele>350.40000000000003</ele><time>2026-04-12T11:58:39Z</time></trkpt><trkpt lat="45.416039946765764" lon="11.521587548612885"><ele>348.20000000000005</ele><time>2026-04-12T11:58:40Z</time></trkpt><trkpt lat="45.41612591743539" lon="11.521652202391076"><ele>346.0</ele><time>2026-04-12T11:58:41Z</time></trkpt><trkpt lat="45.416216501009515" lon="11.521713720330148"><ele>346.0</ele><time>2026-04-12T11:58:42Z</time></trkpt><trkpt lat="45.41630738927061" lon="11.5217556778088"><ele>346.0</ele><time>2026-04-12T11:58:43Z</time></trkpt><trkpt lat="45.4164011063046" lon="11.521756020388853"><ele>346.0</ele><time>2026-04-12T11:58:44Z</time></trkpt><trkpt lat="45.41647167513542" lon="11.521737079370688"><ele>346.0</ele><time>2026-04-12T11:58:45Z</time></trkpt><trkpt lat="45.41652107270647" lon="11.521681139386805"><ele>346.0</ele><time>2026-04-12T11:58:47Z</time></trkpt><trkpt lat="45.41658577863651" lon="11.521632906052709"><ele>346.0</ele><time>2026-04-12T11:58:49Z</time></trkpt><trkpt lat="45.41664582685913" lon="11.52152552813926"><ele>344.0</ele><time>2026-04-12T11:58:51Z</time></trkpt><trkpt lat="45.41672985296807" lon="11.521410538769148"><ele>342.0</ele><time>2026-04-12T11:58:53Z</time></trkpt><trkpt lat="45.416796376881805" lon="11.5213789791804"><ele>340.0</ele><time>2026-04-12T11:58:54Z</time></trkpt><trkpt lat="45.41688688031527" lon="11.521269088603393"><ele>338.0</ele><time>2026-04-12T11:58:56Z</time></trkpt><trkpt lat="45.416916911721025" lon="11.521180280508176"><ele>336.0</ele><time>2026-04-12T11:58:57Z</time></trkpt><trkpt lat="45.41692920221475" lon="11.521074047632586"><ele>336.0</ele><time>2026-04-12T11:58:58Z</time></trkpt><trkpt lat="45.41693524364636" lon="11.52096835785571"><ele>336.0</ele><time>2026-04-12T11:58:59Z</time></trkpt><trkpt lat="45.41694645943257" lon="11.520868014451784"><ele>336.0</ele><time>2026-04-12T11:59:00Z</time></trkpt><trkpt lat="45.416937061258274" lon="11.520752383700417"><ele>336.0</ele><time>2026-04-12T11:59:01Z</time></trkpt><trkpt lat="45.416919284772575" lon="11.520607189245528"><ele>336.0</ele><time>2026-04-12T11:59:02Z</time></trkpt><trkpt lat="45.4169038977009" lon="11.520478126065845"><ele>336.0</ele><time>2026-04-12T11:59:03Z</time></trkpt><trkpt lat="45.41689089487922" lon="11.520380321044724"><ele>336.0</ele><time>2026-04-12T11:59:04Z</time></trkpt><trkpt lat="45.41691131412528" lon="11.520224176387593"><ele>336.0</ele><time>2026-04-12T11:59:06Z</time></trkpt><trkpt lat="45.41700450016714" lon="11.520248634508953"><ele>336.0</ele><time>2026-04-12T11:59:09Z</time></trkpt><trkpt lat="45.417063876185956" lon="11.520330395404516"><ele>336.0</ele><time>2026-04-12T11:59:11Z</time></trkpt><trkpt lat="45.4171229590025" lon="11.520401984813835"><ele>336.0</ele><time>2026-04-12T11:59:12Z</time></trkpt><trkpt lat="45.41720711200661" lon="11.52049094853263"><ele>330.6</ele><time>2026-04-12T11:59:13Z</time></trkpt><trkpt lat="45.417296392393766" lon="11.520604209637819"><ele>325.20000000000005</ele><time>2026-04-12T11:59:14Z</time></trkpt><trkpt lat="45.41737668554903" lon="11.520701156800103"><ele>319.79999999999995</ele><time>2026-04-12T11:59:15Z</time></trkpt><trkpt lat="45.41744753448328" lon="11.520780126777266"><ele>314.4</ele><time>2026-04-12T11:59:16Z</time></trkpt><trkpt lat="45.4175139026248" lon="11.520808379453586"><ele>309.0</ele><time>2026-04-12T11:59:17Z</time></trkpt><trkpt lat="45.417588129460384" lon="11.52076820204349"><ele>309.0</ele><time>2026-04-12T11:59:18Z</time></trkpt><trkpt lat="45.41765891482405" lon="11.520696740897929"><ele>309.0</ele><time>2026-04-12T11:59:19Z</time></trkpt><trkpt lat="45.41771709879926" lon="11.52059162602532"><ele>309.0</ele><time>2026-04-12T11:59:20Z</time></trkpt><trkpt lat="45.41775203685366" lon="11.520473539256805"><ele>309.0</ele><time>2026-04-12T11:59:21Z</time></trkpt><trkpt lat="45.41776528567782" lon="11.52026059387502"><ele>309.0</ele><time>2026-04-12T11:59:23Z</time></trkpt><trkpt lat="45.41781576326736" lon="11.52010049179569"><ele>309.5</ele><time>2026-04-12T11:59:25Z</time></trkpt><trkpt lat="45.41788259202986" lon="11.520065706479675"><ele>310.0</ele><time>2026-04-12T11:59:26Z</time></trkpt><trkpt lat="45.41795818747648" lon="11.520052692157433"><ele>310.5</ele><time>2026-04-12T11:59:27Z</time></trkpt><trkpt lat="45.41803610388091" lon="11.519977029855543"><ele>311.0</ele><time>2026-04-12T11:59:29Z</time></trkpt><trkpt lat="45.41806561699646" lon="11.519886221645033"><ele>311.5</ele><time>2026-04-12T11:59:40Z</time></trkpt><trkpt lat="45.418107204614685" lon="11.519816293388526"><ele>312.0</ele><time>2026-04-12T11:59:42Z</time></trkpt><trkpt lat="45.418201701051174" lon="11.519776328246273"><ele>311.0</ele><time>2026-04-12T11:59:44Z</time></trkpt><trkpt lat="45.418280679065134" lon="11.519716254755773"><ele>310.0</ele><time>2026-04-12T11:59:46Z</time></trkpt><trkpt lat="45.41835263651424" lon="11.5196267386165"><ele>309.0</ele><time>2026-04-12T11:59:48Z</time></trkpt><trkpt lat="45.41842560869054" lon="11.519553120897315"><ele>308.0</ele><time>2026-04-12T11:59:50Z</time></trkpt><trkpt lat="45.418472453846995" lon="11.519459566476922"><ele>307.0</ele><time>2026-04-12T11:59:52Z</time></trkpt><trkpt lat="45.41856146386451" lon="11.519361865264628"><ele>307.0</ele><time>2026-04-12T11:59:54Z</time></trkpt><trkpt lat="45.41866073921999" lon="11.519267572984187"><ele>307.0</ele><time>2026-04-12T11:59:56Z</time></trkpt><trkpt lat="45.418758789547894" lon="11.519197840638792"><ele>307.0</ele><time>2026-04-12T11:59:58Z</time></trkpt><trkpt lat="45.41882604934966" lon="11.519123402710239"><ele>307.0</ele><time>2026-04-12T12:00:00Z</time></trkpt><trkpt lat="45.418884312868656" lon="11.519085238679695"><ele>307.0</ele><time>2026-04-12T12:00:02Z</time></trkpt><trkpt lat="45.41895585719999" lon="11.51906735792282"><ele>303.2</ele><time>2026-04-12T12:00:05Z</time></trkpt><trkpt lat="45.41904346267281" lon="11.519016480729903"><ele>299.4</ele><time>2026-04-12T12:00:07Z</time></trkpt><trkpt lat="45.41910181364009" lon="11.518959747519"><ele>295.6</ele><time>2026-04-12T12:00:10Z</time></trkpt><trkpt lat="45.419196314434714" lon="11.518896286159892"><ele>291.8</ele><time>2026-04-12T12:00:13Z</time></trkpt><trkpt lat="45.41927843311881" lon="11.518793592515754"><ele>288.0</ele><time>2026-04-12T12:00:15Z</time></trkpt><trkpt lat="45.41929825426425" lon="11.518669204298911"><ele>288.0</ele><time>2026-04-12T12:00:17Z</time></trkpt><trkpt lat="45.41929117006283" lon="11.518499851110414"><ele>288.0</ele><time>2026-04-12T12:00:19Z</time></trkpt><trkpt lat="45.419342450930415" lon="11.518414891132837"><ele>288.0</ele><time>2026-04-12T12:00:20Z</time></trkpt><trkpt lat="45.4194126298134" lon="11.51833769531796"><ele>288.0</ele><time>2026-04-12T12:00:21Z</time></trkpt><trkpt lat="45.41950498926979" lon="11.518245716363861"><ele>288.0</ele><time>2026-04-12T12:00:22Z</time></trkpt><trkpt lat="45.41960429113008" lon="11.518139824115421"><ele>290.25</ele><time>2026-04-12T12:00:23Z</time></trkpt><trkpt lat="45.419723526518965" lon="11.518022080572594"><ele>292.5</ele><time>2026-04-12T12:00:24Z</time></trkpt><trkpt lat="45.4198521287164" lon="11.517931935345256"><ele>294.75</ele><time>2026-04-12T12:00:25Z</time></trkpt><trkpt lat="45.41997149224312" lon="11.517900118355099"><ele>297.0</ele><time>2026-04-12T12:00:26Z</time></trkpt><trkpt lat="45.420096915428786" lon="11.51794522150976"><ele>289.0</ele><time>2026-04-12T12:00:27Z</time></trkpt><trkpt lat="45.420235734860704" lon="11.518037089312788"><ele>281.0</ele><time>2026-04-12T12:00:28Z</time></trkpt><trkpt lat="45.42036783119937" lon="11.518194074810596"><ele>273.0</ele><time>2026-04-12T12:00:29Z</time></trkpt><trkpt lat="45.42047928664761" lon="11.518368749403068"><ele>278.0</ele><time>2026-04-12T12:00:30Z</time></trkpt><trkpt lat="45.42055883000274" lon="11.518521270477098"><ele>283.0</ele><time>2026-04-12T12:00:31Z</time></trkpt><trkpt lat="45.42066250095771" lon="11.518636232718137"><ele>288.0</ele><time>2026-04-12T12:00:32Z</time></trkpt><trkpt lat="45.420785126227834" lon="11.518696880684438"><ele>293.0</ele><time>2026-04-12T12:00:33Z</time></trkpt><trkpt lat="45.42092290302386" lon="11.518715815784427"><ele>293.0</ele><time>2026-04-12T12:00:34Z</time></trkpt><trkpt lat="45.421041495968595" lon="11.51870739370609"><ele>293.0</ele><time>2026-04-12T12:00:35Z</time></trkpt><trkpt lat="45.421130822317636" lon="11.518714008634154"><ele>293.0</ele><time>2026-04-12T12:00:36Z</time></trkpt><trkpt lat="45.42119580251431" lon="11.51874764934756"><ele>293.0</ele><time>2026-04-12T12:00:37Z</time></trkpt><trkpt lat="45.42118090425301" lon="11.518849929894024"><ele>293.0</ele><time>2026-04-12T12:00:53Z</time></trkpt><trkpt lat="45.42109227798951" lon="11.518964497779596"><ele>292.0</ele><time>2026-04-12T12:00:55Z</time></trkpt><trkpt lat="45.421075948895314" lon="11.519087497142683"><ele>291.0</ele><time>2026-04-12T12:00:56Z</time></trkpt><trkpt lat="45.42104196469284" lon="11.51919008730526"><ele>290.0</ele><time>2026-04-12T12:00:57Z</time></trkpt><trkpt lat="45.42097437669934" lon="11.519259196075105"><ele>289.0</ele><time>2026-04-12T12:00:58Z</time></trkpt><trkpt lat="45.420881620184666" lon="11.519357163839658"><ele>288.0</ele><time>2026-04-12T12:00:59Z</time></trkpt><trkpt lat="45.420768800185215" lon="11.51951377279763"><ele>292.0</ele><time>2026-04-12T12:01:00Z</time></trkpt><trkpt lat="45.420697926097816" lon="11.519641122561223"><ele>296.0</ele><time>2026-04-12T12:01:01Z</time></trkpt><trkpt lat="45.420656579432446" lon="11.519718197236445"><ele>300.0</ele><time>2026-04-12T12:01:02Z</time></trkpt><trkpt lat="45.420728803547725" lon="11.519860597799068"><ele>304.0</ele><time>2026-04-12T12:01:04Z</time></trkpt><trkpt lat="45.42080406680218" lon="11.519977373983135"><ele>308.0</ele><time>2026-04-12T12:01:05Z</time></trkpt><trkpt lat="45.420871535509214" lon="11.520096458740019"><ele>308.0</ele><time>2026-04-12T12:01:06Z</time></trkpt><trkpt lat="45.42091820522455" lon="11.520167847011782"><ele>308.0</ele><time>2026-04-12T12:01:07Z</time></trkpt><trkpt lat="45.42098321077686" lon="11.520159634017368"><ele>308.0</ele><time>2026-04-12T12:01:08Z</time></trkpt><trkpt lat="45.421077264655125" lon="11.520180665035612"><ele>308.0</ele><time>2026-04-12T12:01:09Z</time></trkpt><trkpt lat="45.42117979478168" lon="11.520243465014815"><ele>308.0</ele><time>2026-04-12T12:01:10Z</time></trkpt><trkpt lat="45.421264226784125" lon="11.52034001562768"><ele>308.0</ele><time>2026-04-12T12:01:11Z</time></trkpt><trkpt lat="45.42133454945921" lon="11.520442339313243"><ele>312.0</ele><time>2026-04-12T12:01:12Z</time></trkpt><trkpt lat="45.42133930965151" lon="11.520614490370818"><ele>316.0</ele><time>2026-04-12T12:01:14Z</time></trkpt><trkpt lat="45.42146482034992" lon="11.52067616410852"><ele>320.0</ele><time>2026-04-12T12:01:16Z</time></trkpt><trkpt lat="45.42155518941746" lon="11.520704946197435"><ele>324.0</ele><time>2026-04-12T12:01:17Z</time></trkpt><trkpt lat="45.421626047998814" lon="11.520801778044119"><ele>328.0</ele><time>2026-04-12T12:01:19Z</time></trkpt><trkpt lat="45.421646665716146" lon="11.520919107132075"><ele>328.0</ele><time>2026-04-12T12:01:20Z</time></trkpt><trkpt lat="45.42165982672188" lon="11.521064986553798"><ele>328.0</ele><time>2026-04-12T12:01:21Z</time></trkpt><trkpt lat="45.42167705285327" lon="11.521208301530516"><ele>328.0</ele><time>2026-04-12T12:01:22Z</time></trkpt><trkpt lat="45.42169564494952" lon="11.521329715102214"><ele>328.0</ele><time>2026-04-12T12:01:23Z</time></trkpt><trkpt lat="45.4216955315722" lon="11.521485307952956"><ele>328.0</ele><time>2026-04-12T12:01:25Z</time></trkpt><trkpt lat="45.421614210552264" lon="11.52160215777112"><ele>331.75</ele><time>2026-04-12T12:01:27Z</time></trkpt><trkpt lat="45.42154919959065" lon="11.521670344277359"><ele>335.5</ele><time>2026-04-12T12:01:28Z</time></trkpt><trkpt lat="45.42144631640269" lon="11.521756224672858"><ele>339.25</ele><time>2026-04-12T12:01:29Z</time></trkpt><trkpt lat="45.42132459587419" lon="11.521856296155738"><ele>343.0</ele><time>2026-04-12T12:01:30Z</time></trkpt><trkpt lat="45.42121917105963" lon="11.521948923581792"><ele>344.4</ele><time>2026-04-12T12:01:31Z</time></trkpt><trkpt lat="45.421157958393664" lon="11.521995751767614"><ele>345.79999999999995</ele><time>2026-04-12T12:01:32Z</time></trkpt><trkpt lat="45.421093746283184" lon="11.521993469827304"><ele>347.2</ele><time>2026-04-12T12:01:33Z</time></trkpt><trkpt lat="45.42095758824589" lon="11.521982251949845"><ele>348.6</ele><time>2026-04-12T12:01:34Z</time></trkpt><trkpt lat="45.42078117853501" lon="11.522007801579894"><ele>350.0</ele><time>2026-04-12T12:01:35Z</time></trkpt><trkpt lat="45.42062551808189" lon="11.522048154103707"><ele>352.4</ele><time>2026-04-12T12:01:36Z</time></trkpt><trkpt lat="45.4205268126867" lon="11.522088374388424"><ele>354.8</ele><time>2026-04-12T12:01:37Z</time></trkpt><trkpt lat="45.42046268507967" lon="11.522135454883696"><ele>357.20000000000005</ele><time>2026-04-12T12:01:38Z</time></trkpt><trkpt lat="45.42054212126616" lon="11.522279479639254"><ele>359.6</ele><time>2026-04-12T12:01:40Z</time></trkpt><trkpt lat="45.4206062916982" lon="11.522404409658577"><ele>362.0</ele><time>2026-04-12T12:01:41Z</time></trkpt><trkpt lat="45.42065905960319" lon="11.522529479404302"><ele>362.0</ele><time>2026-04-12T12:01:42Z</time></trkpt><trkpt lat="45.42067096866088" lon="11.522660582052637"><ele>362.0</ele><time>2026-04-12T12:01:44Z</time></trkpt><trkpt lat="45.420721345195275" lon="11.522791866424516"><ele>362.0</ele><time>2026-04-12T12:01:46Z</time></trkpt><trkpt lat="45.42081269675361" lon="11.522765217061178"><ele>362.0</ele><time>2026-04-12T12:01:48Z</time></trkpt><trkpt lat="45.420899321780624" lon="11.522747804098403"><ele>362.0</ele><time>2026-04-12T12:01:49Z</time></trkpt><trkpt lat="45.42100057935947" lon="11.522729532598326"><ele>362.0</ele><time>2026-04-12T12:01:50Z</time></trkpt><trkpt lat="45.42109559745381" lon="11.522738365846607"><ele>362.0</ele><time>2026-04-12T12:01:51Z</time></trkpt><trkpt lat="45.42115492663438" lon="11.522770232915715"><ele>362.0</ele><time>2026-04-12T12:01:52Z</time></trkpt><trkpt lat="45.42118837415039" lon="11.522866295643327"><ele>362.0</ele><time>2026-04-12T12:01:53Z</time></trkpt><trkpt lat="45.42122936295716" lon="11.522984053008791"><ele>362.0</ele><time>2026-04-12T12:01:54Z</time></trkpt><trkpt lat="45.421261374570484" lon="11.523127618082782"><ele>362.0</ele><time>2026-04-12T12:01:55Z</time></trkpt><trkpt lat="45.42125211484386" lon="11.523251488793854"><ele>364.1666666666667</ele><time>2026-04-12T12:01:56Z</time></trkpt><trkpt lat="45.42120753533519" lon="11.52336443293015"><ele>366.33333333333337</ele><time>2026-04-12T12:01:57Z</time></trkpt><trkpt lat="45.421159481320856" lon="11.523499507075451"><ele>368.5</ele><time>2026-04-12T12:01:58Z</time></trkpt><trkpt lat="45.42118849260818" lon="11.523600554715383"><ele>370.6666666666667</ele><time>2026-04-12T12:02:00Z</time></trkpt><trkpt lat="45.42124031542947" lon="11.523700648566596"><ele>372.8333333333333</ele><time>2026-04-12T12:02:01Z</time></trkpt><trkpt lat="45.421300197962466" lon="11.523771020009306"><ele>375.0</ele><time>2026-04-12T12:02:02Z</time></trkpt><trkpt lat="45.42138819644707" lon="11.523725677189185"><ele>375.8333333333333</ele><time>2026-04-12T12:02:04Z</time></trkpt><trkpt lat="45.42146953867129" lon="11.523665212433151"><ele>376.6666666666667</ele><time>2026-04-12T12:02:05Z</time></trkpt><trkpt lat="45.42153570237831" lon="11.523613302056548"><ele>377.5</ele><time>2026-04-12T12:02:06Z</time></trkpt><trkpt lat="45.42163458127828" lon="11.523660211892745"><ele>378.33333333333337</ele><time>2026-04-12T12:02:08Z</time></trkpt><trkpt lat="45.421690622829644" lon="11.523720754150096"><ele>379.1666666666667</ele><time>2026-04-12T12:02:09Z</time></trkpt><trkpt lat="45.42172151570939" lon="11.523814190822167"><ele>380.0</ele><time>2026-04-12T12:02:10Z</time></trkpt><trkpt lat="45.42176275414344" lon="11.523927492566033"><ele>382.8</ele><time>2026-04-12T12:02:11Z</time></trkpt><trkpt lat="45.421803437819925" lon="11.524033883165988"><ele>385.6</ele><time>2026-04-12T12:02:12Z</time></trkpt><trkpt lat="45.421866453158636" lon="11.524188297544233"><ele>388.4</ele><time>2026-04-12T12:02:13Z</time></trkpt><trkpt lat="45.42194152771605" lon="11.524303570589877"><ele>391.2</ele><time>2026-04-12T12:02:14Z</time></trkpt><trkpt lat="45.422018534159534" lon="11.52433856105689"><ele>394.0</ele><time>2026-04-12T12:02:15Z</time></trkpt><trkpt lat="45.42207793228351" lon="11.524421198995917"><ele>392.6</ele><time>2026-04-12T12:02:16Z</time></trkpt><trkpt lat="45.42215494324711" lon="11.524490018261243"><ele>391.2</ele><time>2026-04-12T12:02:17Z</time></trkpt><trkpt lat="45.42224270471686" lon="11.524558610579358"><ele>389.8</ele><time>2026-04-12T12:02:18Z</time></trkpt><trkpt lat="45.42233714305351" lon="11.524569020255898"><ele>388.40000000000003</ele><time>2026-04-12T12:02:19Z</time></trkpt><trkpt lat="45.422456548366284" lon="11.524554560553824"><ele>387.0</ele><time>2026-04-12T12:02:20Z</time></trkpt><trkpt lat="45.422558861405854" lon="11.524575363193163"><ele>390.75</ele><time>2026-04-12T12:02:21Z</time></trkpt><trkpt lat="45.422646002268685" lon="11.524649408819483"><ele>394.5</ele><time>2026-04-12T12:02:22Z</time></trkpt><trkpt lat="45.42275769959866" lon="11.524777219182432"><ele>398.25</ele><time>2026-04-12T12:02:23Z</time></trkpt><trkpt lat="45.422901076147724" lon="11.52493323773248"><ele>402.0</ele><time>2026-04-12T12:02:24Z</time></trkpt><trkpt lat="45.4230116840594" lon="11.525064503101886"><ele>402.0</ele><time>2026-04-12T12:02:25Z</time></trkpt><trkpt lat="45.42308326477396" lon="11.525155317231375"><ele>402.0</ele><time>2026-04-12T12:02:26Z</time></trkpt><trkpt lat="45.42313628205672" lon="11.525284943016691"><ele>402.0</ele><time>2026-04-12T12:02:27Z</time></trkpt><trkpt lat="45.42318303970688" lon="11.525438471755315"><ele>402.0</ele><time>2026-04-12T12:02:28Z</time></trkpt><trkpt lat="45.423202766361584" lon="11.525550751911943"><ele>402.0</ele><time>2026-04-12T12:02:29Z</time></trkpt><trkpt lat="45.4231696634718" lon="11.525473164630736"><ele>402.0</ele><time>2026-04-12T12:03:26Z</time></trkpt><trkpt lat="45.42316351479048" lon="11.525380390828403"><ele>402.0</ele><time>2026-04-12T12:03:27Z</time></trkpt><trkpt lat="45.423142098946045" lon="11.525282623038292"><ele>402.0</ele><time>2026-04-12T12:03:28Z</time></trkpt><trkpt lat="45.42310302981931" lon="11.525181288722784"><ele>402.0</ele><time>2026-04-12T12:03:29Z</time></trkpt><trkpt lat="45.42304580156413" lon="11.52507958809032"><ele>402.0</ele><time>2026-04-12T12:03:30Z</time></trkpt><trkpt lat="45.422964353064046" lon="11.525006681827241"><ele>402.0</ele><time>2026-04-12T12:03:31Z</time></trkpt><trkpt lat="45.42285797020124" lon="11.524904304250954"><ele>403.20000000000005</ele><time>2026-04-12T12:03:32Z</time></trkpt><trkpt lat="45.42276370720879" lon="11.5248183981076"><ele>404.4</ele><time>2026-04-12T12:03:33Z</time></trkpt><trkpt lat="45.422684191019805" lon="11.524732701424627"><ele>405.6</ele><time>2026-04-12T12:03:34Z</time></trkpt><trkpt lat="45.42261346020044" lon="11.524642647969413"><ele>406.79999999999995</ele><time>2026-04-12T12:03:35Z</time></trkpt><trkpt lat="45.42253652059233" lon="11.524581617910146"><ele>408.0</ele><time>2026-04-12T12:03:36Z</time></trkpt><trkpt lat="45.42245620421658" lon="11.524564826585243"><ele>408.0</ele><time>2026-04-12T12:03:37Z</time></trkpt><trkpt lat="45.422370246928764" lon="11.524558412629622"><ele>408.0</ele><time>2026-04-12T12:03:38Z</time></trkpt><trkpt lat="45.42228122398966" lon="11.524569023274493"><ele>408.0</ele><time>2026-04-12T12:03:39Z</time></trkpt><trkpt lat="45.42220304619487" lon="11.52457118142024"><ele>408.0</ele><time>2026-04-12T12:03:40Z</time></trkpt><trkpt lat="45.42212898924945" lon="11.52453329186072"><ele>408.0</ele><time>2026-04-12T12:03:41Z</time></trkpt><trkpt lat="45.42206893611235" lon="11.524456244358195"><ele>408.0</ele><time>2026-04-12T12:03:42Z</time></trkpt><trkpt lat="45.42201098342629" lon="11.524380106885006"><ele>405.2</ele><time>2026-04-12T12:03:43Z</time></trkpt><trkpt lat="45.42192142243094" lon="11.524299726449446"><ele>402.4</ele><time>2026-04-12T12:03:45Z</time></trkpt><trkpt lat="45.42187143925261" lon="11.524234616721273"><ele>399.59999999999997</ele><time>2026-04-12T12:03:46Z</time></trkpt><trkpt lat="45.421812934833675" lon="11.52413149731687"><ele>396.79999999999995</ele><time>2026-04-12T12:03:47Z</time></trkpt><trkpt lat="45.421775913835006" lon="11.523996847293581"><ele>394.0</ele><time>2026-04-12T12:03:48Z</time></trkpt><trkpt lat="45.42174969075926" lon="11.523884138829432"><ele>394.00000000000006</ele><time>2026-04-12T12:03:49Z</time></trkpt><trkpt lat="45.421717869581755" lon="11.523803113477573"><ele>394.0</ele><time>2026-04-12T12:03:50Z</time></trkpt><trkpt lat="45.421668359708995" lon="11.523743342953695"><ele>394.0</ele><time>2026-04-12T12:03:52Z</time></trkpt><trkpt lat="45.42155462865238" lon="11.523679869705296"><ele>394.0</ele><time>2026-04-12T12:03:54Z</time></trkpt><trkpt lat="45.421484343513114" lon="11.523676198861747"><ele>394.00000000000006</ele><time>2026-04-12T12:03:55Z</time></trkpt><trkpt lat="45.42142233053376" lon="11.523699201934624"><ele>394.0</ele><time>2026-04-12T12:03:56Z</time></trkpt><trkpt lat="45.421366575630984" lon="11.523756731934913"><ele>391.2</ele><time>2026-04-12T12:03:57Z</time></trkpt><trkpt lat="45.42128529971304" lon="11.52381984692563"><ele>388.4</ele><time>2026-04-12T12:03:59Z</time></trkpt><trkpt lat="45.42123029353053" lon="11.523728052878853"><ele>385.6</ele><time>2026-04-12T12:04:02Z</time></trkpt><trkpt lat="45.4211933448747" lon="11.523621632171029"><ele>382.8</ele><time>2026-04-12T12:04:04Z</time></trkpt><trkpt lat="45.42112046161999" lon="11.523516714144359"><ele>380.0</ele><time>2026-04-12T12:05:30Z</time></trkpt><trkpt lat="45.42112240756202" lon="11.523663982423637"><ele>380.0</ele><time>2026-04-12T12:05:50Z</time></trkpt><trkpt lat="45.42107241409984" lon="11.523812163333353"><ele>380.0</ele><time>2026-04-12T12:05:51Z</time></trkpt><trkpt lat="45.42102004235373" lon="11.523989336029063"><ele>380.0</ele><time>2026-04-12T12:05:52Z</time></trkpt><trkpt lat="45.42096927837051" lon="11.524171455080937"><ele>380.0</ele><time>2026-04-12T12:05:53Z</time></trkpt><trkpt lat="45.42092791805796" lon="11.52431132534266"><ele>380.0</ele><time>2026-04-12T12:05:54Z</time></trkpt><trkpt lat="45.420902378819505" lon="11.524409421930324"><ele>380.0</ele><time>2026-04-12T12:05:55Z</time></trkpt><trkpt lat="45.42091994700726" lon="11.524544114576225"><ele>380.0</ele><time>2026-04-12T12:05:57Z</time></trkpt><trkpt lat="45.420978720668266" lon="11.524646503880398"><ele>380.0</ele><time>2026-04-12T12:05:58Z</time></trkpt><trkpt lat="45.42103616785114" lon="11.524759154285523"><ele>380.0</ele><time>2026-04-12T12:05:59Z</time></trkpt><trkpt lat="45.42103043866435" lon="11.524875474864352"><ele>380.0</ele><time>2026-04-12T12:06:00Z</time></trkpt><trkpt lat="45.42098987967883" lon="11.525008985562012"><ele>379.6</ele><time>2026-04-12T12:06:01Z</time></trkpt><trkpt lat="45.42091165143796" lon="11.525147711344246"><ele>379.2</ele><time>2026-04-12T12:06:02Z</time></trkpt><trkpt lat="45.42082682944553" lon="11.525278826855967"><ele>378.79999999999995</ele><time>2026-04-12T12:06:03Z</time></trkpt><trkpt lat="45.42077676741949" lon="11.525375976599314"><ele>378.4</ele><time>2026-04-12T12:06:04Z</time></trkpt><trkpt lat="45.420775011500815" lon="11.525479853703763"><ele>378.0</ele><time>2026-04-12T12:06:05Z</time></trkpt><trkpt lat="45.42076401880604" lon="11.525606350814675"><ele>378.0</ele><time>2026-04-12T12:06:06Z</time></trkpt><trkpt lat="45.420769295470684" lon="11.525767099720335"><ele>378.0</ele><time>2026-04-12T12:06:07Z</time></trkpt><trkpt lat="45.420781471635216" lon="11.525886359534336"><ele>378.0</ele><time>2026-04-12T12:06:08Z</time></trkpt><trkpt lat="45.420785313685386" lon="11.525986911857116"><ele>378.0</ele><time>2026-04-12T12:06:09Z</time></trkpt><trkpt lat="45.420771081837174" lon="11.52617657085409"><ele>378.0</ele><time>2026-04-12T12:06:11Z</time></trkpt><trkpt lat="45.42077638894279" lon="11.52630297595747"><ele>378.0</ele><time>2026-04-12T12:06:12Z</time></trkpt><trkpt lat="45.42078403553071" lon="11.526418215022561"><ele>378.0</ele><time>2026-04-12T12:06:13Z</time></trkpt><trkpt lat="45.42074091606471" lon="11.526593341547267"><ele>378.0</ele><time>2026-04-12T12:06:15Z</time></trkpt><trkpt lat="45.42067823304544" lon="11.526683498927987"><ele>378.0</ele><time>2026-04-12T12:06:16Z</time></trkpt><trkpt lat="45.420624116992165" lon="11.52677549580516"><ele>378.0</ele><time>2026-04-12T12:06:17Z</time></trkpt><trkpt lat="45.42057352146206" lon="11.526847608662937"><ele>378.0</ele><time>2026-04-12T12:06:20Z</time></trkpt><trkpt lat="45.4205370073337" lon="11.526984733139754"><ele>378.0</ele><time>2026-04-12T12:06:23Z</time></trkpt><trkpt lat="45.42053003427749" lon="11.52708245686309"><ele>378.0</ele><time>2026-04-12T12:06:24Z</time></trkpt><trkpt lat="45.42054962789684" lon="11.527241073823328"><ele>378.0</ele><time>2026-04-12T12:06:26Z</time></trkpt><trkpt lat="45.420571912793775" lon="11.52736940433639"><ele>378.0</ele><time>2026-04-12T12:06:28Z</time></trkpt><trkpt lat="45.420607546877264" lon="11.52747942715375"><ele>376.5</ele><time>2026-04-12T12:06:30Z</time></trkpt><trkpt lat="45.42061678532371" lon="11.527573364862674"><ele>375.0</ele><time>2026-04-12T12:06:32Z</time></trkpt><trkpt lat="45.42056516982907" lon="11.527712194158754"><ele>373.5</ele><time>2026-04-12T12:06:34Z</time></trkpt><trkpt lat="45.420521260903676" lon="11.52779991152203"><ele>372.0</ele><time>2026-04-12T12:06:36Z</time></trkpt><trkpt lat="45.42051896460535" lon="11.52797617846473"><ele>370.5</ele><time>2026-04-12T12:06:38Z</time></trkpt><trkpt lat="45.42049924120461" lon="11.52807264597696"><ele>369.0</ele><time>2026-04-12T12:06:39Z</time></trkpt><trkpt lat="45.42046760820736" lon="11.528168286272322"><ele>373.6666666666667</ele><time>2026-04-12T12:06:44Z</time></trkpt><trkpt lat="45.42051485345398" lon="11.528271576336854"><ele>378.33333333333337</ele><time>2026-04-12T12:06:47Z</time></trkpt><trkpt lat="45.420526819369826" lon="11.528359971677672"><ele>383.0</ele><time>2026-04-12T12:06:57Z</time></trkpt><trkpt lat="45.42059533512858" lon="11.528350905631275"><ele>387.6666666666667</ele><time>2026-04-12T12:07:04Z</time></trkpt><trkpt lat="45.420690683833065" lon="11.528311002783727"><ele>392.33333333333337</ele><time>2026-04-12T12:07:07Z</time></trkpt><trkpt lat="45.420758264335774" lon="11.528326542918938"><ele>397.0</ele><time>2026-04-12T12:07:09Z</time></trkpt><trkpt lat="45.42086551861215" lon="11.528310556270506"><ele>397.0</ele><time>2026-04-12T12:07:11Z</time></trkpt><trkpt lat="45.42093356788067" lon="11.528317631343132"><ele>397.0</ele><time>2026-04-12T12:07:12Z</time></trkpt><trkpt lat="45.42099645487803" lon="11.528330966344653"><ele>397.0</ele><time>2026-04-12T12:07:13Z</time></trkpt><trkpt lat="45.42111712168237" lon="11.5282244826116"><ele>397.0</ele><time>2026-04-12T12:07:15Z</time></trkpt><trkpt lat="45.42118928015219" lon="11.52814268509226"><ele>397.0</ele><time>2026-04-12T12:07:16Z</time></trkpt><trkpt lat="45.42127764955492" lon="11.528141722096018"><ele>397.00000000000006</ele><time>2026-04-12T12:07:18Z</time></trkpt><trkpt lat="45.42135521770872" lon="11.528161633184446"><ele>397.0</ele><time>2026-04-12T12:07:19Z</time></trkpt><trkpt lat="45.421421030273045" lon="11.528185832392051"><ele>397.0</ele><time>2026-04-12T12:07:22Z</time></trkpt><trkpt lat="45.421387983927545" lon="11.528310807645601"><ele>397.0</ele><time>2026-04-12T12:07:26Z</time></trkpt><trkpt lat="45.42138188466562" lon="11.528449706944519"><ele>397.00000000000006</ele><time>2026-04-12T12:07:30Z</time></trkpt><trkpt lat="45.421343039112145" lon="11.528593017448665"><ele>397.0</ele><time>2026-04-12T12:07:31Z</time></trkpt><trkpt lat="45.421310929888776" lon="11.528685782149006"><ele>398.50000000000006</ele><time>2026-04-12T12:07:32Z</time></trkpt><trkpt lat="45.42127635098077" lon="11.528766288093758"><ele>400.0</ele><time>2026-04-12T12:07:33Z</time></trkpt><trkpt lat="45.421215629588716" lon="11.528822389634703"><ele>401.5</ele><time>2026-04-12T12:07:34Z</time></trkpt><trkpt lat="45.421125662421176" lon="11.529004256098332"><ele>403.0</ele><time>2026-04-12T12:07:36Z</time></trkpt><trkpt lat="45.42107707002974" lon="11.529104002538741"><ele>404.50000000000006</ele><time>2026-04-12T12:07:37Z</time></trkpt><trkpt lat="45.42103498487157" lon="11.52918126156075"><ele>406.0</ele><time>2026-04-12T12:07:38Z</time></trkpt><trkpt lat="45.4209747647063" lon="11.529268924099544"><ele>406.00000000000006</ele><time>2026-04-12T12:07:39Z</time></trkpt><trkpt lat="45.42092942960818" lon="11.529361881394255"><ele>406.0</ele><time>2026-04-12T12:07:40Z</time></trkpt><trkpt lat="45.42090264311862" lon="11.529465955172212"><ele>406.0</ele><time>2026-04-12T12:07:41Z</time></trkpt><trkpt lat="45.420882669835784" lon="11.529580531790376"><ele>406.0</ele><time>2026-04-12T12:07:42Z</time></trkpt><trkpt lat="45.42087199283612" lon="11.529708601545671"><ele>406.00000000000006</ele><time>2026-04-12T12:07:43Z</time></trkpt><trkpt lat="45.42084028430667" lon="11.529810680713462"><ele>406.0</ele><time>2026-04-12T12:07:44Z</time></trkpt><trkpt lat="45.42080869194279" lon="11.529903312234165"><ele>407.1666666666667</ele><time>2026-04-12T12:07:45Z</time></trkpt><trkpt lat="45.42078345730549" lon="11.52999240873678"><ele>408.33333333333337</ele><time>2026-04-12T12:07:46Z</time></trkpt><trkpt lat="45.42073631540078" lon="11.530070307977068"><ele>409.5</ele><time>2026-04-12T12:07:47Z</time></trkpt><trkpt lat="45.4206783520117" lon="11.530137530833088"><ele>410.66666666666663</ele><time>2026-04-12T12:07:48Z</time></trkpt><trkpt lat="45.42062720961495" lon="11.530211016666465"><ele>411.8333333333333</ele><time>2026-04-12T12:07:49Z</time></trkpt><trkpt lat="45.42053063228706" lon="11.530299522656431"><ele>413.0</ele><time>2026-04-12T12:07:51Z</time></trkpt><trkpt lat="45.42046894311376" lon="11.530323614387344"><ele>414.0</ele><time>2026-04-12T12:07:52Z</time></trkpt><trkpt lat="45.42037684391306" lon="11.530346678229968"><ele>415.0</ele><time>2026-04-12T12:07:53Z</time></trkpt><trkpt lat="45.420292314907215" lon="11.530385518500912"><ele>416.0</ele><time>2026-04-12T12:07:54Z</time></trkpt><trkpt lat="45.4202010354278" lon="11.530415264207102"><ele>417.0</ele><time>2026-04-12T12:07:55Z</time></trkpt><trkpt lat="45.42013838328033" lon="11.530432116616401"><ele>418.0</ele><time>2026-04-12T12:07:56Z</time></trkpt><trkpt lat="45.42000295383076" lon="11.530511708614998"><ele>418.0</ele><time>2026-04-12T12:07:58Z</time></trkpt><trkpt lat="45.41992674351004" lon="11.530580367657398"><ele>418.0</ele><time>2026-04-12T12:08:00Z</time></trkpt><trkpt lat="45.41985246760756" lon="11.530700863382734"><ele>418.0</ele><time>2026-04-12T12:08:02Z</time></trkpt><trkpt lat="45.419787294696654" lon="11.530764652968358"><ele>418.0</ele><time>2026-04-12T12:08:03Z</time></trkpt><trkpt lat="45.419726074924185" lon="11.530823780502088"><ele>418.0</ele><time>2026-04-12T12:08:04Z</time></trkpt><trkpt lat="45.41974134004496" lon="11.530963249688673"><ele>418.0</ele><time>2026-04-12T12:08:06Z</time></trkpt><trkpt lat="45.419765429641295" lon="11.531069928064698"><ele>418.0</ele><time>2026-04-12T12:08:08Z</time></trkpt><trkpt lat="45.41996073190258" lon="11.531252543534201"><ele>418.0</ele><time>2026-04-12T12:08:16Z</time></trkpt><trkpt lat="45.420015789275475" lon="11.531300893624474"><ele>418.0</ele><time>2026-04-12T12:08:17Z</time></trkpt><trkpt lat="45.420095036707885" lon="11.531394967503367"><ele>417.0</ele><time>2026-04-12T12:08:18Z</time></trkpt><trkpt lat="45.4201671748502" lon="11.531523773367901"><ele>416.0</ele><time>2026-04-12T12:08:20Z</time></trkpt><trkpt lat="45.42022009960388" lon="11.53159228298541"><ele>415.0</ele><time>2026-04-12T12:08:22Z</time></trkpt><trkpt lat="45.42031375639908" lon="11.531582157275016"><ele>414.0</ele><time>2026-04-12T12:08:26Z</time></trkpt><trkpt lat="45.42041070190151" lon="11.531503404555082"><ele>413.0</ele><time>2026-04-12T12:08:28Z</time></trkpt><trkpt lat="45.42047995214775" lon="11.531454452864006"><ele>411.4</ele><time>2026-04-12T12:08:29Z</time></trkpt><trkpt lat="45.42058802458366" lon="11.531417905549905"><ele>409.79999999999995</ele><time>2026-04-12T12:08:31Z</time></trkpt><trkpt lat="45.420635648684105" lon="11.531483966091393"><ele>408.2</ele><time>2026-04-12T12:08:33Z</time></trkpt><trkpt lat="45.420712521559224" lon="11.53144718215357"><ele>406.6</ele><time>2026-04-12T12:08:35Z</time></trkpt><trkpt lat="45.42086762107993" lon="11.531382262042145"><ele>405.0</ele><time>2026-04-12T12:08:36Z</time></trkpt><trkpt lat="45.420926551271954" lon="11.531290461528394"><ele>406.6666666666667</ele><time>2026-04-12T12:08:37Z</time></trkpt><trkpt lat="45.42095177153624" lon="11.53120439127477"><ele>408.33333333333337</ele><time>2026-04-12T12:08:38Z</time></trkpt><trkpt lat="45.420996395088345" lon="11.531133036402087"><ele>410.0</ele><time>2026-04-12T12:08:39Z</time></trkpt><trkpt lat="45.42097790130919" lon="11.531033621285072"><ele>411.6666666666667</ele><time>2026-04-12T12:08:40Z</time></trkpt><trkpt lat="45.42106118003451" lon="11.530970532324627"><ele>413.33333333333337</ele><time>2026-04-12T12:08:42Z</time></trkpt><trkpt lat="45.421205854357126" lon="11.530995393356543"><ele>415.0</ele><time>2026-04-12T12:08:43Z</time></trkpt><trkpt lat="45.42128539814249" lon="11.53102205381793"><ele>408.6666666666667</ele><time>2026-04-12T12:08:44Z</time></trkpt><trkpt lat="45.421366248958925" lon="11.530979193910838"><ele>402.33333333333337</ele><time>2026-04-12T12:08:46Z</time></trkpt><trkpt lat="45.42143039407168" lon="11.530478040628617"><ele>396.0</ele><time>2026-04-12T12:08:53Z</time></trkpt><trkpt lat="45.42140635582414" lon="11.530374081989446"><ele>396.0</ele><time>2026-04-12T12:08:54Z</time></trkpt><trkpt lat="45.42134926146726" lon="11.530231052203318"><ele>396.0</ele><time>2026-04-12T12:08:56Z</time></trkpt><trkpt lat="45.42134753463849" lon="11.530075073729602"><ele>396.0</ele><time>2026-04-12T12:08:58Z</time></trkpt><trkpt lat="45.42139812696555" lon="11.529984528741972"><ele>396.0</ele><time>2026-04-12T12:09:00Z</time></trkpt><trkpt lat="45.421437836208135" lon="11.529826452239831"><ele>396.0</ele><time>2026-04-12T12:09:02Z</time></trkpt><trkpt lat="45.42149748807339" lon="11.52970175399134"><ele>396.0</ele><time>2026-04-12T12:09:04Z</time></trkpt><trkpt lat="45.421527662089126" lon="11.529622230251194"><ele>396.0</ele><time>2026-04-12T12:09:05Z</time></trkpt><trkpt lat="45.42162109262852" lon="11.529523588707216"><ele>396.0</ele><time>2026-04-12T12:09:07Z</time></trkpt><trkpt lat="45.421655375259206" lon="11.52937220526321"><ele>396.0</ele><time>2026-04-12T12:09:09Z</time></trkpt><trkpt lat="45.421700410721684" lon="11.52923512932901"><ele>396.0</ele><time>2026-04-12T12:09:11Z</time></trkpt><trkpt lat="45.42176704698226" lon="11.529336161317117"><ele>396.0</ele><time>2026-04-12T12:09:14Z</time></trkpt><trkpt lat="45.42182032435975" lon="11.529440969843542"><ele>396.0</ele><time>2026-04-12T12:09:15Z</time></trkpt><trkpt lat="45.42184904436389" lon="11.529545644701496"><ele>396.0</ele><time>2026-04-12T12:09:16Z</time></trkpt><trkpt lat="45.421866030222226" lon="11.529650120734612"><ele>396.0</ele><time>2026-04-12T12:09:17Z</time></trkpt><trkpt lat="45.42189357979114" lon="11.52974275286712"><ele>396.0</ele><time>2026-04-12T12:09:18Z</time></trkpt><trkpt lat="45.42192127725275" lon="11.529841323020339"><ele>396.0</ele><time>2026-04-12T12:09:20Z</time></trkpt><trkpt lat="45.4218666138757" lon="11.529936583497028"><ele>396.0</ele><time>2026-04-12T12:09:22Z</time></trkpt><trkpt lat="45.421857879697505" lon="11.530063172660046"><ele>396.0</ele><time>2026-04-12T12:09:24Z</time></trkpt><trkpt lat="45.421868709561465" lon="11.53026067582173"><ele>396.0</ele><time>2026-04-12T12:09:26Z</time></trkpt><trkpt lat="45.421852200449436" lon="11.530361519577943"><ele>396.0</ele><time>2026-04-12T12:09:27Z</time></trkpt><trkpt lat="45.42185946077116" lon="11.530453517045038"><ele>396.0</ele><time>2026-04-12T12:09:28Z</time></trkpt><trkpt lat="45.42189265891424" lon="11.53053094972557"><ele>396.0</ele><time>2026-04-12T12:09:29Z</time></trkpt><trkpt lat="45.42196673851177" lon="11.530621311237919"><ele>395.4</ele><time>2026-04-12T12:09:31Z</time></trkpt><trkpt lat="45.422040265686626" lon="11.530712370747635"><ele>394.8</ele><time>2026-04-12T12:09:33Z</time></trkpt><trkpt lat="45.422082875724016" lon="11.530779569549024"><ele>394.2</ele><time>2026-04-12T12:09:35Z</time></trkpt><trkpt lat="45.42215548767859" lon="11.530876343752753"><ele>393.59999999999997</ele><time>2026-04-12T12:09:45Z</time></trkpt><trkpt lat="45.42223476388615" lon="11.530991367409186"><ele>393.0</ele><time>2026-04-12T12:09:47Z</time></trkpt><trkpt lat="45.42229919769848" lon="11.531120470301264"><ele>388.59999999999997</ele><time>2026-04-12T12:09:49Z</time></trkpt><trkpt lat="45.422408537633906" lon="11.531183700038895"><ele>384.2</ele><time>2026-04-12T12:09:51Z</time></trkpt><trkpt lat="45.42248391564743" lon="11.531250135613684"><ele>379.8</ele><time>2026-04-12T12:09:52Z</time></trkpt><trkpt lat="45.42253442016584" lon="11.531317941750943"><ele>375.4</ele><time>2026-04-12T12:09:53Z</time></trkpt><trkpt lat="45.422624869764704" lon="11.531398283825395"><ele>371.0</ele><time>2026-04-12T12:09:55Z</time></trkpt><trkpt lat="45.42268607800712" lon="11.531486475323259"><ele>370.5</ele><time>2026-04-12T12:09:56Z</time></trkpt><trkpt lat="45.42271963779294" lon="11.531600773954784"><ele>370.0</ele><time>2026-04-12T12:09:57Z</time></trkpt><trkpt lat="45.42273610632425" lon="11.531701979864279"><ele>369.5</ele><time>2026-04-12T12:09:58Z</time></trkpt><trkpt lat="45.422803978042566" lon="11.531800401150495"><ele>369.0</ele><time>2026-04-12T12:10:00Z</time></trkpt><trkpt lat="45.42278803103928" lon="11.531910522099441"><ele>368.5</ele><time>2026-04-12T12:10:03Z</time></trkpt><trkpt lat="45.4227581771307" lon="11.53206368725066"><ele>368.0</ele><time>2026-04-12T12:10:04Z</time></trkpt><trkpt lat="45.4227635011664" lon="11.53221871310377"><ele>367.79999999999995</ele><time>2026-04-12T12:10:05Z</time></trkpt><trkpt lat="45.422831658792056" lon="11.532389547568041"><ele>367.6</ele><time>2026-04-12T12:10:06Z</time></trkpt><trkpt lat="45.422867297643975" lon="11.532527332033384"><ele>367.4</ele><time>2026-04-12T12:10:07Z</time></trkpt><trkpt lat="45.42285390832109" lon="11.532666348241603"><ele>367.20000000000005</ele><time>2026-04-12T12:10:08Z</time></trkpt><trkpt lat="45.42283163542108" lon="11.53279269451068"><ele>367.0</ele><time>2026-04-12T12:10:09Z</time></trkpt><trkpt lat="45.42280211065707" lon="11.532911194785946"><ele>367.0</ele><time>2026-04-12T12:10:10Z</time></trkpt><trkpt lat="45.42279347442573" lon="11.533023513720629"><ele>367.0</ele><time>2026-04-12T12:10:11Z</time></trkpt><trkpt lat="45.42280145881962" lon="11.53316047923201"><ele>367.0</ele><time>2026-04-12T12:10:12Z</time></trkpt><trkpt lat="45.42282656411257" lon="11.533343619539412"><ele>367.0</ele><time>2026-04-12T12:10:13Z</time></trkpt><trkpt lat="45.42282514861739" lon="11.533551274680137"><ele>366.25</ele><time>2026-04-12T12:10:14Z</time></trkpt><trkpt lat="45.42283532470713" lon="11.533725639383338"><ele>365.5</ele><time>2026-04-12T12:10:15Z</time></trkpt><trkpt lat="45.42285940984824" lon="11.533897374523086"><ele>364.75</ele><time>2026-04-12T12:10:16Z</time></trkpt><trkpt lat="45.42287047817575" lon="11.534058636031304"><ele>364.0</ele><time>2026-04-12T12:10:17Z</time></trkpt><trkpt lat="45.42286561071817" lon="11.53421803238614"><ele>364.0</ele><time>2026-04-12T12:10:18Z</time></trkpt><trkpt lat="45.422860677366025" lon="11.534328773457096"><ele>364.0</ele><time>2026-04-12T12:10:19Z</time></trkpt><trkpt lat="45.42284646670616" lon="11.534455600559287"><ele>364.0</ele><time>2026-04-12T12:10:20Z</time></trkpt><trkpt lat="45.42280697037361" lon="11.534643470100526"><ele>364.0</ele><time>2026-04-12T12:10:21Z</time></trkpt><trkpt lat="45.422749648273225" lon="11.534743956939735"><ele>364.0</ele><time>2026-04-12T12:10:22Z</time></trkpt><trkpt lat="45.42273010396159" lon="11.534856528544742"><ele>362.79999999999995</ele><time>2026-04-12T12:10:24Z</time></trkpt><trkpt lat="45.42272345397244" lon="11.534963605495655"><ele>361.59999999999997</ele><time>2026-04-12T12:10:26Z</time></trkpt><trkpt lat="45.42288686189961" lon="11.53485140474324"><ele>360.4</ele><time>2026-04-12T12:10:31Z</time></trkpt><trkpt lat="45.42294239517666" lon="11.534759205899734"><ele>359.2</ele><time>2026-04-12T12:10:32Z</time></trkpt><trkpt lat="45.42300747014228" lon="11.534684408578558"><ele>358.0</ele><time>2026-04-12T12:10:33Z</time></trkpt><trkpt lat="45.42310236276412" lon="11.534658271410729"><ele>353.79999999999995</ele><time>2026-04-12T12:10:34Z</time></trkpt><trkpt lat="45.42314286981478" lon="11.534535923516545"><ele>349.6</ele><time>2026-04-12T12:10:35Z</time></trkpt><trkpt lat="45.4232242986447" lon="11.53447532057202"><ele>345.4</ele><time>2026-04-12T12:10:36Z</time></trkpt><trkpt lat="45.42331828265934" lon="11.53444592287851"><ele>341.20000000000005</ele><time>2026-04-12T12:10:37Z</time></trkpt><trkpt lat="45.4233833856818" lon="11.53444207053844"><ele>337.0</ele><time>2026-04-12T12:10:38Z</time></trkpt><trkpt lat="45.42352267833852" lon="11.534400058171023"><ele>337.0</ele><time>2026-04-12T12:10:40Z</time></trkpt><trkpt lat="45.423603391493515" lon="11.534403190597908"><ele>337.0</ele><time>2026-04-12T12:10:41Z</time></trkpt><trkpt lat="45.42367900216701" lon="11.534431620697278"><ele>337.0</ele><time>2026-04-12T12:10:42Z</time></trkpt><trkpt lat="45.42374704100122" lon="11.53450616274123"><ele>337.0</ele><time>2026-04-12T12:10:43Z</time></trkpt><trkpt lat="45.423792993136004" lon="11.534595963590876"><ele>337.0</ele><time>2026-04-12T12:10:44Z</time></trkpt><trkpt lat="45.42382480537585" lon="11.534704959582005"><ele>337.0</ele><time>2026-04-12T12:10:45Z</time></trkpt><trkpt lat="45.423858969240435" lon="11.534806191813122"><ele>337.5</ele><time>2026-04-12T12:10:46Z</time></trkpt><trkpt lat="45.42389653815604" lon="11.534952179094397"><ele>338.0</ele><time>2026-04-12T12:10:48Z</time></trkpt><trkpt lat="45.4239162523996" lon="11.535045743222733"><ele>338.5</ele><time>2026-04-12T12:10:53Z</time></trkpt><trkpt lat="45.42396554521021" lon="11.535113925994095"><ele>339.0</ele><time>2026-04-12T12:10:55Z</time></trkpt><trkpt lat="45.424072499757536" lon="11.535120300229876"><ele>339.5</ele><time>2026-04-12T12:10:58Z</time></trkpt><trkpt lat="45.42414070044837" lon="11.53512973211336"><ele>340.0</ele><time>2026-04-12T12:10:59Z</time></trkpt><trkpt lat="45.424223040990626" lon="11.535119624166953"><ele>340.0</ele><time>2026-04-12T12:11:00Z</time></trkpt><trkpt lat="45.42432339935031" lon="11.535074057498882"><ele>340.0</ele><time>2026-04-12T12:11:01Z</time></trkpt><trkpt lat="45.42443614545619" lon="11.535061870704878"><ele>340.0</ele><time>2026-04-12T12:11:02Z</time></trkpt><trkpt lat="45.424545023920096" lon="11.535060561716035"><ele>340.0</ele><time>2026-04-12T12:11:03Z</time></trkpt><trkpt lat="45.42465996596157" lon="11.535050537206136"><ele>340.0</ele><time>2026-04-12T12:11:04Z</time></trkpt><trkpt lat="45.42477614261074" lon="11.535039980106946"><ele>341.0</ele><time>2026-04-12T12:11:05Z</time></trkpt><trkpt lat="45.42491240018686" lon="11.535046033311067"><ele>342.0</ele><time>2026-04-12T12:11:06Z</time></trkpt><trkpt lat="45.42502543592511" lon="11.535050134142072"><ele>343.0</ele><time>2026-04-12T12:11:07Z</time></trkpt><trkpt lat="45.425109337490554" lon="11.5350318795273"><ele>344.0</ele><time>2026-04-12T12:11:08Z</time></trkpt><trkpt lat="45.42517908209849" lon="11.535005354194576"><ele>345.0</ele><time>2026-04-12T12:11:09Z</time></trkpt><trkpt lat="45.425268612235314" lon="11.535024433676076"><ele>345.0</ele><time>2026-04-12T12:11:10Z</time></trkpt><trkpt lat="45.42535566177642" lon="11.535014074220753"><ele>345.0</ele><time>2026-04-12T12:11:11Z</time></trkpt><trkpt lat="45.425467458922064" lon="11.535040838470767"><ele>345.0</ele><time>2026-04-12T12:11:12Z</time></trkpt><trkpt lat="45.425606129690884" lon="11.5350640885242"><ele>345.0</ele><time>2026-04-12T12:11:13Z</time></trkpt><trkpt lat="45.42573845614935" lon="11.535116946008907"><ele>346.1666666666667</ele><time>2026-04-12T12:11:14Z</time></trkpt><trkpt lat="45.425847330807564" lon="11.535132206720544"><ele>347.3333333333333</ele><time>2026-04-12T12:11:15Z</time></trkpt><trkpt lat="45.42593545541109" lon="11.535114148612184"><ele>348.5</ele><time>2026-04-12T12:11:16Z</time></trkpt><trkpt lat="45.42601242090996" lon="11.535087131462882"><ele>349.66666666666663</ele><time>2026-04-12T12:11:17Z</time></trkpt><trkpt lat="45.426082793922056" lon="11.535067294058878"><ele>350.8333333333333</ele><time>2026-04-12T12:11:18Z</time></trkpt><trkpt lat="45.42617407098628" lon="11.535098904620058"><ele>352.0</ele><time>2026-04-12T12:11:19Z</time></trkpt><trkpt lat="45.426268701202694" lon="11.535117601141181"><ele>355.75</ele><time>2026-04-12T12:11:20Z</time></trkpt><trkpt lat="45.426377448446615" lon="11.535166922612085"><ele>359.5</ele><time>2026-04-12T12:11:21Z</time></trkpt><trkpt lat="45.426485176627516" lon="11.535194238834352"><ele>363.25</ele><time>2026-04-12T12:11:38Z</time></trkpt><trkpt lat="45.426601809144884" lon="11.53511435927085"><ele>367.0</ele><time>2026-04-12T12:11:40Z</time></trkpt><trkpt lat="45.426735550231776" lon="11.535073091817477"><ele>367.0</ele><time>2026-04-12T12:11:41Z</time></trkpt><trkpt lat="45.426863775294606" lon="11.535096420680244"><ele>367.0</ele><time>2026-04-12T12:11:42Z</time></trkpt><trkpt lat="45.426964505041944" lon="11.535097607482179"><ele>367.0</ele><time>2026-04-12T12:11:43Z</time></trkpt><trkpt lat="45.427056005714356" lon="11.535104460533429"><ele>367.0</ele><time>2026-04-12T12:11:44Z</time></trkpt><trkpt lat="45.42713361998218" lon="11.535118235678977"><ele>367.0</ele><time>2026-04-12T12:11:45Z</time></trkpt><trkpt lat="45.427215716543465" lon="11.535124854325712"><ele>367.75</ele><time>2026-04-12T12:11:46Z</time></trkpt><trkpt lat="45.42727960765986" lon="11.53512315995773"><ele>368.5</ele><time>2026-04-12T12:11:47Z</time></trkpt><trkpt lat="45.42729957091612" lon="11.535291481778112"><ele>369.25</ele><time>2026-04-12T12:11:50Z</time></trkpt><trkpt lat="45.42728877559364" lon="11.535463444253592"><ele>370.0</ele><time>2026-04-12T12:11:51Z</time></trkpt><trkpt lat="45.42727376204633" lon="11.535676517482102"><ele>369.0</ele><time>2026-04-12T12:11:52Z</time></trkpt><trkpt lat="45.42723611062413" lon="11.53586861826787"><ele>368.0</ele><time>2026-04-12T12:11:53Z</time></trkpt><trkpt lat="45.427187159574345" lon="11.53599487221869"><ele>367.0</ele><time>2026-04-12T12:11:54Z</time></trkpt><trkpt lat="45.42712993811276" lon="11.536050786087854"><ele>366.0</ele><time>2026-04-12T12:11:55Z</time></trkpt><trkpt lat="45.42705936593554" lon="11.536074831726516"><ele>365.0</ele><time>2026-04-12T12:11:56Z</time></trkpt><trkpt lat="45.42696317513253" lon="11.536073089891737"><ele>365.0</ele><time>2026-04-12T12:11:57Z</time></trkpt><trkpt lat="45.426840649507405" lon="11.536066737142848"><ele>365.0</ele><time>2026-04-12T12:11:58Z</time></trkpt><trkpt lat="45.42672938190343" lon="11.536108331997903"><ele>365.0</ele><time>2026-04-12T12:11:59Z</time></trkpt><trkpt lat="45.42660198775446" lon="11.536175148371207"><ele>365.0</ele><time>2026-04-12T12:12:00Z</time></trkpt><trkpt lat="45.426497795114585" lon="11.53620338030271"><ele>365.0</ele><time>2026-04-12T12:12:01Z</time></trkpt><trkpt lat="45.426396276441494" lon="11.53619881632653"><ele>365.0</ele><time>2026-04-12T12:12:02Z</time></trkpt><trkpt lat="45.42629719503539" lon="11.53620207628229"><ele>365.0</ele><time>2026-04-12T12:12:03Z</time></trkpt><trkpt lat="45.42621694767093" lon="11.536252819187649"><ele>365.0</ele><time>2026-04-12T12:12:04Z</time></trkpt><trkpt lat="45.426154840684724" lon="11.536353420788409"><ele>365.0</ele><time>2026-04-12T12:12:05Z</time></trkpt><trkpt lat="45.42610119892317" lon="11.536478288651045"><ele>367.4</ele><time>2026-04-12T12:12:06Z</time></trkpt><trkpt lat="45.426045330348906" lon="11.536595205232032"><ele>369.8</ele><time>2026-04-12T12:12:07Z</time></trkpt><trkpt lat="45.42600695200013" lon="11.53671874380897"><ele>372.20000000000005</ele><time>2026-04-12T12:12:08Z</time></trkpt><trkpt lat="45.425963763055954" lon="11.536846646643689"><ele>374.6</ele><time>2026-04-12T12:12:09Z</time></trkpt><trkpt lat="45.425898090831154" lon="11.536963004979281"><ele>377.0</ele><time>2026-04-12T12:12:10Z</time></trkpt><trkpt lat="45.42582365386053" lon="11.537034750037975"><ele>379.6</ele><time>2026-04-12T12:12:11Z</time></trkpt><trkpt lat="45.4257751084443" lon="11.537108199926958"><ele>382.20000000000005</ele><time>2026-04-12T12:12:12Z</time></trkpt><trkpt lat="45.42573266727661" lon="11.537207072953555"><ele>384.8</ele><time>2026-04-12T12:12:13Z</time></trkpt><trkpt lat="45.42572404723902" lon="11.537333725396893"><ele>387.4</ele><time>2026-04-12T12:12:14Z</time></trkpt><trkpt lat="45.42572794090836" lon="11.537491880243424"><ele>390.0</ele><time>2026-04-12T12:12:15Z</time></trkpt><trkpt lat="45.42571704729562" lon="11.537657785643333"><ele>390.0</ele><time>2026-04-12T12:12:16Z</time></trkpt><trkpt lat="45.42572124789765" lon="11.537776889349452"><ele>390.0</ele><time>2026-04-12T12:12:17Z</time></trkpt><trkpt lat="45.42563380457258" lon="11.537939712035046"><ele>390.0</ele><time>2026-04-12T12:12:19Z</time></trkpt><trkpt lat="45.425540564637785" lon="11.538049639491167"><ele>390.0</ele><time>2026-04-12T12:12:20Z</time></trkpt><trkpt lat="45.42546874045716" lon="11.53812832466087"><ele>390.0</ele><time>2026-04-12T12:12:21Z</time></trkpt><trkpt lat="45.42534289361811" lon="11.538285922887248"><ele>389.25</ele><time>2026-04-12T12:12:23Z</time></trkpt><trkpt lat="45.425246162467374" lon="11.53837336919273"><ele>388.5</ele><time>2026-04-12T12:12:24Z</time></trkpt><trkpt lat="45.425155587255645" lon="11.538523783773032"><ele>387.75</ele><time>2026-04-12T12:12:25Z</time></trkpt><trkpt lat="45.42502223084185" lon="11.538678720980636"><ele>387.0</ele><time>2026-04-12T12:12:26Z</time></trkpt><trkpt lat="45.424930478772325" lon="11.53889721142914"><ele>387.0</ele><time>2026-04-12T12:12:27Z</time></trkpt><trkpt lat="45.424869035960654" lon="11.539099944328463"><ele>387.0</ele><time>2026-04-12T12:12:28Z</time></trkpt><trkpt lat="45.424831716105" lon="11.539278110431663"><ele>387.0</ele><time>2026-04-12T12:12:29Z</time></trkpt><trkpt lat="45.424802049943054" lon="11.539467806975255"><ele>387.0</ele><time>2026-04-12T12:12:30Z</time></trkpt><trkpt lat="45.424791515131055" lon="11.5396568664281"><ele>386.20000000000005</ele><time>2026-04-12T12:12:31Z</time></trkpt><trkpt lat="45.424852806595176" lon="11.539822268148479"><ele>385.4</ele><time>2026-04-12T12:12:32Z</time></trkpt><trkpt lat="45.42483245533714" lon="11.539944565230641"><ele>384.6</ele><time>2026-04-12T12:12:33Z</time></trkpt><trkpt lat="45.424841161822656" lon="11.540059600535674"><ele>383.79999999999995</ele><time>2026-04-12T12:12:34Z</time></trkpt><trkpt lat="45.42488987652114" lon="11.54017306955503"><ele>383.0</ele><time>2026-04-12T12:12:35Z</time></trkpt><trkpt lat="45.42493211880882" lon="11.540314953603447"><ele>383.79999999999995</ele><time>2026-04-12T12:12:36Z</time></trkpt><trkpt lat="45.42500855280883" lon="11.540457779019631"><ele>384.6</ele><time>2026-04-12T12:12:37Z</time></trkpt><trkpt lat="45.42506084360926" lon="11.540581061772311"><ele>385.4</ele><time>2026-04-12T12:12:38Z</time></trkpt><trkpt lat="45.425070947918506" lon="11.540705464213286"><ele>386.20000000000005</ele><time>2026-04-12T12:12:39Z</time></trkpt><trkpt lat="45.42507234069641" lon="11.540826604791024"><ele>387.0</ele><time>2026-04-12T12:12:40Z</time></trkpt><trkpt lat="45.425025686400154" lon="11.54098108634092"><ele>387.0</ele><time>2026-04-12T12:12:42Z</time></trkpt><trkpt lat="45.424974730996176" lon="11.541050089829204"><ele>387.0</ele><time>2026-04-12T12:12:43Z</time></trkpt><trkpt lat="45.42491308312732" lon="11.541118219043602"><ele>387.0</ele><time>2026-04-12T12:12:44Z</time></trkpt><trkpt lat="45.42487474265274" lon="11.54121146231947"><ele>387.0</ele><time>2026-04-12T12:12:45Z</time></trkpt><trkpt lat="45.4248641660072" lon="11.541310238777603"><ele>387.0</ele><time>2026-04-12T12:12:46Z</time></trkpt><trkpt lat="45.42490670103361" lon="11.541489357991985"><ele>387.0</ele><time>2026-04-12T12:12:48Z</time></trkpt><trkpt lat="45.4249329601833" lon="11.54158042698073"><ele>387.6666666666667</ele><time>2026-04-12T12:12:49Z</time></trkpt><trkpt lat="45.42496453206539" lon="11.541665345124413"><ele>388.33333333333337</ele><time>2026-04-12T12:12:50Z</time></trkpt><trkpt lat="45.42499573426368" lon="11.541745288643627"><ele>389.0</ele><time>2026-04-12T12:12:52Z</time></trkpt><trkpt lat="45.425065812848366" lon="11.541856076442242"><ele>389.6666666666667</ele><time>2026-04-12T12:13:14Z</time></trkpt><trkpt lat="45.42516030319161" lon="11.541963838379429"><ele>390.33333333333337</ele><time>2026-04-12T12:13:16Z</time></trkpt><trkpt lat="45.42522428227421" lon="11.54205710326766"><ele>391.0</ele><time>2026-04-12T12:13:17Z</time></trkpt><trkpt lat="45.425325243450644" lon="11.542183975426278"><ele>391.0</ele><time>2026-04-12T12:13:18Z</time></trkpt><trkpt lat="45.4254388261169" lon="11.542281811326898"><ele>391.0</ele><time>2026-04-12T12:13:19Z</time></trkpt><trkpt lat="45.42555693212005" lon="11.54236004986225"><ele>391.0</ele><time>2026-04-12T12:13:20Z</time></trkpt><trkpt lat="45.42565294594587" lon="11.542438538110753"><ele>391.0</ele><time>2026-04-12T12:13:21Z</time></trkpt><trkpt lat="45.42571135825047" lon="11.542550184047066"><ele>391.0</ele><time>2026-04-12T12:13:22Z</time></trkpt><trkpt lat="45.42577245169191" lon="11.542635998960453"><ele>391.0</ele><time>2026-04-12T12:13:23Z</time></trkpt><trkpt lat="45.42585097994966" lon="11.542676525625273"><ele>391.0</ele><time>2026-04-12T12:13:24Z</time></trkpt><trkpt lat="45.42596315430676" lon="11.542720865490066"><ele>391.0</ele><time>2026-04-12T12:13:25Z</time></trkpt><trkpt lat="45.42604737028141" lon="11.542764756097284"><ele>391.0</ele><time>2026-04-12T12:13:26Z</time></trkpt><trkpt lat="45.42610360053124" lon="11.542851622482479"><ele>389.33333333333337</ele><time>2026-04-12T12:13:27Z</time></trkpt><trkpt lat="45.426132564312034" lon="11.542953770791993"><ele>387.6666666666667</ele><time>2026-04-12T12:13:28Z</time></trkpt><trkpt lat="45.42612536328094" lon="11.543046764107798"><ele>386.0</ele><time>2026-04-12T12:13:29Z</time></trkpt><trkpt lat="45.42610279284944" lon="11.54317276401557"><ele>384.33333333333337</ele><time>2026-04-12T12:13:30Z</time></trkpt><trkpt lat="45.42606817352099" lon="11.54327578924902"><ele>382.6666666666667</ele><time>2026-04-12T12:13:31Z</time></trkpt><trkpt lat="45.42607092233465" lon="11.543402555486656"><ele>381.0</ele><time>2026-04-12T12:13:32Z</time></trkpt><trkpt lat="45.42605608721223" lon="11.543525505163185"><ele>381.0</ele><time>2026-04-12T12:13:33Z</time></trkpt><trkpt lat="45.426138358413105" lon="11.54361045201995"><ele>381.0</ele><time>2026-04-12T12:13:35Z</time></trkpt><trkpt lat="45.426244684757414" lon="11.543703781163511"><ele>381.0</ele><time>2026-04-12T12:13:36Z</time></trkpt><trkpt lat="45.42632959200348" lon="11.543777342191452"><ele>381.0</ele><time>2026-04-12T12:13:37Z</time></trkpt><trkpt lat="45.42638337436316" lon="11.5438402204779"><ele>381.0</ele><time>2026-04-12T12:13:38Z</time></trkpt><trkpt lat="45.42643991587383" lon="11.543894508692564"><ele>381.6666666666667</ele><time>2026-04-12T12:13:41Z</time></trkpt><trkpt lat="45.42653185214921" lon="11.543960973634599"><ele>382.33333333333337</ele><time>2026-04-12T12:13:43Z</time></trkpt><trkpt lat="45.42657982057044" lon="11.544022636392322"><ele>383.0</ele><time>2026-04-12T12:13:46Z</time></trkpt><trkpt lat="45.426603682041055" lon="11.544126263482998"><ele>383.6666666666667</ele><time>2026-04-12T12:13:48Z</time></trkpt><trkpt lat="45.426681654777276" lon="11.544221759216994"><ele>384.33333333333337</ele><time>2026-04-12T12:13:50Z</time></trkpt><trkpt lat="45.426745093819676" lon="11.544265634176579"><ele>385.0</ele><time>2026-04-12T12:13:51Z</time></trkpt><trkpt lat="45.42684379741685" lon="11.544373847480031"><ele>385.0</ele><time>2026-04-12T12:13:52Z</time></trkpt><trkpt lat="45.426922543415245" lon="11.544470064525536"><ele>385.0</ele><time>2026-04-12T12:13:53Z</time></trkpt><trkpt lat="45.42699783684929" lon="11.544562148428799"><ele>385.0</ele><time>2026-04-12T12:13:54Z</time></trkpt><trkpt lat="45.42708367694204" lon="11.544660354019067"><ele>385.0</ele><time>2026-04-12T12:13:55Z</time></trkpt><trkpt lat="45.42714479514213" lon="11.544778112481875"><ele>385.0</ele><time>2026-04-12T12:13:56Z</time></trkpt><trkpt lat="45.42719279539556" lon="11.544861706465609"><ele>384.4</ele><time>2026-04-12T12:13:57Z</time></trkpt><trkpt lat="45.427287191418316" lon="11.544831179735088"><ele>383.8</ele><time>2026-04-12T12:13:59Z</time></trkpt><trkpt lat="45.427344524657194" lon="11.5447554793195"><ele>383.20000000000005</ele><time>2026-04-12T12:14:00Z</time></trkpt><trkpt lat="45.427414854628324" lon="11.54465440935084"><ele>382.6</ele><time>2026-04-12T12:14:01Z</time></trkpt><trkpt lat="45.427476949105056" lon="11.544528712284439"><ele>382.0</ele><time>2026-04-12T12:14:02Z</time></trkpt><trkpt lat="45.4275390090243" lon="11.544424956723663"><ele>383.20000000000005</ele><time>2026-04-12T12:14:03Z</time></trkpt><trkpt lat="45.42760312034709" lon="11.544331187763792"><ele>384.4</ele><time>2026-04-12T12:14:04Z</time></trkpt><trkpt lat="45.42767894733" lon="11.54425754208648"><ele>385.6</ele><time>2026-04-12T12:14:05Z</time></trkpt><trkpt lat="45.427772382311915" lon="11.544192450526111"><ele>386.79999999999995</ele><time>2026-04-12T12:14:06Z</time></trkpt><trkpt lat="45.42785805403714" lon="11.54413923351958"><ele>388.0</ele><time>2026-04-12T12:14:07Z</time></trkpt><trkpt lat="45.42795643976513" lon="11.544068332084699"><ele>385.83333333333337</ele><time>2026-04-12T12:14:09Z</time></trkpt><trkpt lat="45.428025611824324" lon="11.544130033543283"><ele>383.6666666666667</ele><time>2026-04-12T12:14:11Z</time></trkpt><trkpt lat="45.42807337956637" lon="11.544199815087874"><ele>381.5</ele><time>2026-04-12T12:14:12Z</time></trkpt><trkpt lat="45.42815866987641" lon="11.544206569813113"><ele>379.33333333333337</ele><time>2026-04-12T12:14:14Z</time></trkpt><trkpt lat="45.428231895728395" lon="11.544299948035484"><ele>377.1666666666667</ele><time>2026-04-12T12:14:16Z</time></trkpt><trkpt lat="45.428261741872944" lon="11.544433695889753"><ele>375.0</ele><time>2026-04-12T12:14:18Z</time></trkpt><trkpt lat="45.42825133490499" lon="11.544569378231815"><ele>375.0</ele><time>2026-04-12T12:14:20Z</time></trkpt><trkpt lat="45.42827095404498" lon="11.54467906718943"><ele>375.0</ele><time>2026-04-12T12:14:21Z</time></trkpt><trkpt lat="45.42829552146529" lon="11.544843482688556"><ele>375.0</ele><time>2026-04-12T12:14:22Z</time></trkpt><trkpt lat="45.42833034816653" lon="11.544971950027934"><ele>375.0</ele><time>2026-04-12T12:14:23Z</time></trkpt><trkpt lat="45.428343750143966" lon="11.545085653996438"><ele>375.0</ele><time>2026-04-12T12:14:24Z</time></trkpt><trkpt lat="45.42842277701038" lon="11.545115490149547"><ele>375.0</ele><time>2026-04-12T12:14:26Z</time></trkpt><trkpt lat="45.42849187987395" lon="11.54518886975231"><ele>375.0</ele><time>2026-04-12T12:14:31Z</time></trkpt><trkpt lat="45.428504666487704" lon="11.545344581027376"><ele>375.0</ele><time>2026-04-12T12:14:33Z</time></trkpt><trkpt lat="45.428469633296004" lon="11.545464272684494"><ele>375.0</ele><time>2026-04-12T12:14:34Z</time></trkpt><trkpt lat="45.42843420371162" lon="11.545648607169996"><ele>375.0</ele><time>2026-04-12T12:14:35Z</time></trkpt><trkpt lat="45.428390652482015" lon="11.54584491324017"><ele>375.0</ele><time>2026-04-12T12:14:36Z</time></trkpt><trkpt lat="45.42837451784115" lon="11.546013909901868"><ele>375.0</ele><time>2026-04-12T12:14:37Z</time></trkpt><trkpt lat="45.42836757724383" lon="11.546150159391392"><ele>375.0</ele><time>2026-04-12T12:14:38Z</time></trkpt><trkpt lat="45.428360176373246" lon="11.546297676790177"><ele>375.0</ele><time>2026-04-12T12:14:39Z</time></trkpt><trkpt lat="45.42835342268675" lon="11.54641485624731"><ele>375.0</ele><time>2026-04-12T12:14:40Z</time></trkpt><trkpt lat="45.428380657923036" lon="11.54654309920241"><ele>373.6666666666667</ele><time>2026-04-12T12:14:42Z</time></trkpt><trkpt lat="45.42843663150139" lon="11.546596983089369"><ele>372.3333333333333</ele><time>2026-04-12T12:14:46Z</time></trkpt><trkpt lat="45.42851012100501" lon="11.546678675734002"><ele>371.0</ele><time>2026-04-12T12:14:48Z</time></trkpt><trkpt lat="45.42856174149571" lon="11.546780221641212"><ele>369.66666666666663</ele><time>2026-04-12T12:14:50Z</time></trkpt><trkpt lat="45.42860461848183" lon="11.54686548017416"><ele>368.3333333333333</ele><time>2026-04-12T12:14:52Z</time></trkpt><trkpt lat="45.42864135286697" lon="11.546962549451944"><ele>367.0</ele><time>2026-04-12T12:14:54Z</time></trkpt><trkpt lat="45.42869990112715" lon="11.547092168228014"><ele>365.0</ele><time>2026-04-12T12:14:56Z</time></trkpt><trkpt lat="45.428741187049404" lon="11.547163634511314"><ele>363.0</ele><time>2026-04-12T12:14:57Z</time></trkpt><trkpt lat="45.42882493717696" lon="11.547275112697323"><ele>361.0</ele><time>2026-04-12T12:14:59Z</time></trkpt><trkpt lat="45.42888302700973" lon="11.54732468541484"><ele>359.0</ele><time>2026-04-12T12:15:01Z</time></trkpt><trkpt lat="45.42894190066355" lon="11.547358226011239"><ele>357.0</ele><time>2026-04-12T12:15:09Z</time></trkpt><trkpt lat="45.429011890022196" lon="11.547463480895676"><ele>355.0</ele><time>2026-04-12T12:15:12Z</time></trkpt><trkpt lat="45.42897607467259" lon="11.54754060115435"><ele>355.0</ele><time>2026-04-12T12:15:15Z</time></trkpt><trkpt lat="45.42890989787865" lon="11.54750681572891"><ele>355.0</ele><time>2026-04-12T12:15:16Z</time></trkpt><trkpt lat="45.428843794725935" lon="11.547439085114021"><ele>355.0</ele><time>2026-04-12T12:15:17Z</time></trkpt><trkpt lat="45.42875879663631" lon="11.547354123895571"><ele>355.0</ele><time>2026-04-12T12:15:18Z</time></trkpt><trkpt lat="45.42865458451129" lon="11.547270940918692"><ele>355.0</ele><time>2026-04-12T12:15:19Z</time></trkpt><trkpt lat="45.42854937305072" lon="11.547185088859795"><ele>353.0</ele><time>2026-04-12T12:15:20Z</time></trkpt><trkpt lat="45.42844795368949" lon="11.547121179326883"><ele>351.0</ele><time>2026-04-12T12:15:21Z</time></trkpt><trkpt lat="45.42835418598329" lon="11.547115173443801"><ele>349.0</ele><time>2026-04-12T12:15:22Z</time></trkpt><trkpt lat="45.428271444344794" lon="11.547155731027862"><ele>347.0</ele><time>2026-04-12T12:15:23Z</time></trkpt><trkpt lat="45.42819886083781" lon="11.547232043257026"><ele>345.0</ele><time>2026-04-12T12:15:24Z</time></trkpt><trkpt lat="45.42812979321742" lon="11.547300950686772"><ele>345.0</ele><time>2026-04-12T12:15:25Z</time></trkpt><trkpt lat="45.42805938502339" lon="11.547346038009833"><ele>345.0</ele><time>2026-04-12T12:15:26Z</time></trkpt><trkpt lat="45.42798793004511" lon="11.547386836224332"><ele>345.0</ele><time>2026-04-12T12:15:27Z</time></trkpt><trkpt lat="45.42791167115459" lon="11.547418103310017"><ele>345.0</ele><time>2026-04-12T12:15:28Z</time></trkpt><trkpt lat="45.42782720044235" lon="11.547446475133496"><ele>345.0</ele><time>2026-04-12T12:15:29Z</time></trkpt><trkpt lat="45.42773196982786" lon="11.547459203171064"><ele>345.0</ele><time>2026-04-12T12:15:30Z</time></trkpt><trkpt lat="45.427626848821994" lon="11.547463928901799"><ele>342.8</ele><time>2026-04-12T12:15:31Z</time></trkpt><trkpt lat="45.427522006394874" lon="11.547467037037832"><ele>340.6</ele><time>2026-04-12T12:15:32Z</time></trkpt><trkpt lat="45.427417041289324" lon="11.547442604343662"><ele>338.4</ele><time>2026-04-12T12:15:33Z</time></trkpt><trkpt lat="45.42731231933947" lon="11.547388353919274"><ele>336.2</ele><time>2026-04-12T12:15:34Z</time></trkpt><trkpt lat="45.42720860915091" lon="11.547317857044325"><ele>334.0</ele><time>2026-04-12T12:15:35Z</time></trkpt><trkpt lat="45.42710429153295" lon="11.547244840294157"><ele>331.25</ele><time>2026-04-12T12:15:36Z</time></trkpt><trkpt lat="45.42699385018103" lon="11.547198239615673"><ele>328.5</ele><time>2026-04-12T12:15:37Z</time></trkpt><trkpt lat="45.426875095538904" lon="11.547184456915948"><ele>325.75</ele><time>2026-04-12T12:15:38Z</time></trkpt><trkpt lat="45.426751506147426" lon="11.547203931647257"><ele>323.0</ele><time>2026-04-12T12:15:39Z</time></trkpt><trkpt lat="45.42664081235641" lon="11.547247975315148"><ele>323.0</ele><time>2026-04-12T12:15:40Z</time></trkpt><trkpt lat="45.426547571061874" lon="11.547288737747115"><ele>323.0</ele><time>2026-04-12T12:15:41Z</time></trkpt><trkpt lat="45.426476620955334" lon="11.547304918435875"><ele>323.0</ele><time>2026-04-12T12:15:42Z</time></trkpt><trkpt lat="45.42640655892588" lon="11.547319056008025"><ele>323.0</ele><time>2026-04-12T12:15:44Z</time></trkpt><trkpt lat="45.426529264273576" lon="11.547370965855196"><ele>323.0</ele><time>2026-04-12T12:16:02Z</time></trkpt><trkpt lat="45.42659311047358" lon="11.547360022378898"><ele>323.0</ele><time>2026-04-12T12:16:03Z</time></trkpt><trkpt lat="45.42669670856478" lon="11.547346694678826"><ele>323.0</ele><time>2026-04-12T12:16:04Z</time></trkpt><trkpt lat="45.42680830224585" lon="11.547364437414569"><ele>323.0</ele><time>2026-04-12T12:16:05Z</time></trkpt><trkpt lat="45.42690637059955" lon="11.547418258069039"><ele>323.0</ele><time>2026-04-12T12:16:06Z</time></trkpt><trkpt lat="45.4269880446987" lon="11.547482711014556"><ele>323.0</ele><time>2026-04-12T12:16:07Z</time></trkpt><trkpt lat="45.427065017122835" lon="11.54760953778809"><ele>323.0</ele><time>2026-04-12T12:16:08Z</time></trkpt><trkpt lat="45.42716096792699" lon="11.547761343350096"><ele>325.75</ele><time>2026-04-12T12:16:09Z</time></trkpt><trkpt lat="45.427249617843245" lon="11.54785883976204"><ele>328.5</ele><time>2026-04-12T12:16:10Z</time></trkpt><trkpt lat="45.4273544609866" lon="11.54794870315185"><ele>331.25</ele><time>2026-04-12T12:16:11Z</time></trkpt><trkpt lat="45.427491596254775" lon="11.548025252507024"><ele>334.0</ele><time>2026-04-12T12:16:12Z</time></trkpt><trkpt lat="45.427626862281016" lon="11.548103586588663"><ele>327.75</ele><time>2026-04-12T12:16:13Z</time></trkpt><trkpt lat="45.42774539602737" lon="11.548171329678667"><ele>321.5</ele><time>2026-04-12T12:16:14Z</time></trkpt><trkpt lat="45.42785290395902" lon="11.54821559608578"><ele>315.25</ele><time>2026-04-12T12:16:15Z</time></trkpt><trkpt lat="45.427967725341446" lon="11.548249440568904"><ele>309.0</ele><time>2026-04-12T12:16:16Z</time></trkpt><trkpt lat="45.428093335914454" lon="11.548277702507043"><ele>309.0</ele><time>2026-04-12T12:16:17Z</time></trkpt><trkpt lat="45.428206849235295" lon="11.54831257742806"><ele>309.0</ele><time>2026-04-12T12:16:18Z</time></trkpt><trkpt lat="45.42828919395367" lon="11.548341490184889"><ele>309.0</ele><time>2026-04-12T12:16:19Z</time></trkpt><trkpt lat="45.42835996528408" lon="11.548366553541277"><ele>309.0</ele><time>2026-04-12T12:16:20Z</time></trkpt><trkpt lat="45.42842567276544" lon="11.548428625983966"><ele>309.0</ele><time>2026-04-12T12:16:21Z</time></trkpt><trkpt lat="45.428494053324435" lon="11.548540376390807"><ele>309.0</ele><time>2026-04-12T12:16:22Z</time></trkpt><trkpt lat="45.42856055109273" lon="11.548655860523294"><ele>309.0</ele><time>2026-04-12T12:16:23Z</time></trkpt><trkpt lat="45.42861495720467" lon="11.548759323382352"><ele>309.0</ele><time>2026-04-12T12:16:24Z</time></trkpt><trkpt lat="45.42865634172268" lon="11.548853632125262"><ele>309.0</ele><time>2026-04-12T12:16:25Z</time></trkpt><trkpt lat="45.42867653514195" lon="11.54895374905299"><ele>309.0</ele><time>2026-04-12T12:16:26Z</time></trkpt><trkpt lat="45.42867805819748" lon="11.54908692270894"><ele>309.0</ele><time>2026-04-12T12:16:27Z</time></trkpt><trkpt lat="45.42868922929957" lon="11.549278025106668"><ele>299.3333333333333</ele><time>2026-04-12T12:16:28Z</time></trkpt><trkpt lat="45.42871042208535" lon="11.54952779121415"><ele>289.66666666666663</ele><time>2026-04-12T12:16:29Z</time></trkpt><trkpt lat="45.4287471889647" lon="11.549762179995005"><ele>280.0</ele><time>2026-04-12T12:16:30Z</time></trkpt><trkpt lat="45.428779565265486" lon="11.549960515891147"><ele>283.5</ele><time>2026-04-12T12:16:31Z</time></trkpt><trkpt lat="45.42882607584441" lon="11.550159068943335"><ele>287.0</ele><time>2026-04-12T12:16:32Z</time></trkpt><trkpt lat="45.4288802312026" lon="11.550353476012768"><ele>290.5</ele><time>2026-04-12T12:16:33Z</time></trkpt><trkpt lat="45.42889362352502" lon="11.55049021728224"><ele>294.0</ele><time>2026-04-12T12:16:34Z</time></trkpt><trkpt lat="45.42891244307645" lon="11.550611166638193"><ele>294.0</ele><time>2026-04-12T12:16:35Z</time></trkpt><trkpt lat="45.42897205267289" lon="11.550776214139658"><ele>294.0</ele><time>2026-04-12T12:16:36Z</time></trkpt><trkpt lat="45.42903508616318" lon="11.5510150929486"><ele>294.0</ele><time>2026-04-12T12:16:37Z</time></trkpt><trkpt lat="45.429097829915555" lon="11.55124049934503"><ele>289.5</ele><time>2026-04-12T12:16:38Z</time></trkpt><trkpt lat="45.42915753664548" lon="11.551441533240036"><ele>285.0</ele><time>2026-04-12T12:16:39Z</time></trkpt><trkpt lat="45.42921701372438" lon="11.551624881052678"><ele>280.5</ele><time>2026-04-12T12:16:40Z</time></trkpt><trkpt lat="45.429270619868255" lon="11.551753930408571"><ele>276.0</ele><time>2026-04-12T12:16:41Z</time></trkpt><trkpt lat="45.42930653399403" lon="11.551858885739298"><ele>276.0</ele><time>2026-04-12T12:16:42Z</time></trkpt><trkpt lat="45.429357986310855" lon="11.55196377145531"><ele>276.0</ele><time>2026-04-12T12:16:43Z</time></trkpt><trkpt lat="45.42940647482793" lon="11.552108628977551"><ele>276.0</ele><time>2026-04-12T12:16:44Z</time></trkpt><trkpt lat="45.429451686890076" lon="11.55230191288109"><ele>276.0</ele><time>2026-04-12T12:16:45Z</time></trkpt><trkpt lat="45.42949375519801" lon="11.5525328764766"><ele>272.5</ele><time>2026-04-12T12:16:46Z</time></trkpt><trkpt lat="45.42953753442206" lon="11.552763831566754"><ele>269.0</ele><time>2026-04-12T12:16:47Z</time></trkpt><trkpt lat="45.429580559470956" lon="11.552908197515716"><ele>265.5</ele><time>2026-04-12T12:16:48Z</time></trkpt><trkpt lat="45.42961310166736" lon="11.553029362882324"><ele>262.0</ele><time>2026-04-12T12:16:49Z</time></trkpt><trkpt lat="45.42961562555868" lon="11.553155185820005"><ele>261.4</ele><time>2026-04-12T12:16:50Z</time></trkpt><trkpt lat="45.42961782367293" lon="11.553319941780524"><ele>260.79999999999995</ele><time>2026-04-12T12:16:51Z</time></trkpt><trkpt lat="45.429631388260105" lon="11.55349882132941"><ele>260.2</ele><time>2026-04-12T12:16:52Z</time></trkpt><trkpt lat="45.4296609028231" lon="11.553629989079827"><ele>259.59999999999997</ele><time>2026-04-12T12:16:53Z</time></trkpt><trkpt lat="45.42964009640591" lon="11.553728147376532"><ele>259.0</ele><time>2026-04-12T12:16:55Z</time></trkpt><trkpt lat="45.42950628200872" lon="11.553718606273092"><ele>259.0</ele><time>2026-04-12T12:16:57Z</time></trkpt><trkpt lat="45.42945269158078" lon="11.553815597923357"><ele>259.0</ele><time>2026-04-12T12:16:59Z</time></trkpt><trkpt lat="45.429446547886265" lon="11.553908288252066"><ele>259.0</ele><time>2026-04-12T12:17:00Z</time></trkpt><trkpt lat="45.429424567485114" lon="11.554030332506942"><ele>259.0</ele><time>2026-04-12T12:17:01Z</time></trkpt><trkpt lat="45.42938088478312" lon="11.55421266285618"><ele>259.0</ele><time>2026-04-12T12:17:02Z</time></trkpt><trkpt lat="45.42932890132266" lon="11.554426606893882"><ele>260.0</ele><time>2026-04-12T12:17:03Z</time></trkpt><trkpt lat="45.429312566925454" lon="11.554567213039501"><ele>261.0</ele><time>2026-04-12T12:17:04Z</time></trkpt><trkpt lat="45.429274087614004" lon="11.554684601936009"><ele>262.0</ele><time>2026-04-12T12:17:06Z</time></trkpt><trkpt lat="45.42920488197096" lon="11.55478517813533"><ele>263.0</ele><time>2026-04-12T12:17:07Z</time></trkpt><trkpt lat="45.42915015776252" lon="11.554873060275254"><ele>264.0</ele><time>2026-04-12T12:17:08Z</time></trkpt><trkpt lat="45.429100291315116" lon="11.554993932577505"><ele>264.0</ele><time>2026-04-12T12:17:10Z</time></trkpt><trkpt lat="45.42906404227699" lon="11.555161711176433"><ele>264.0</ele><time>2026-04-12T12:17:12Z</time></trkpt><trkpt lat="45.42900187464405" lon="11.55528063287769"><ele>264.0</ele><time>2026-04-12T12:17:13Z</time></trkpt><trkpt lat="45.42901141675264" lon="11.555404149860252"><ele>264.0</ele><time>2026-04-12T12:17:14Z</time></trkpt><trkpt lat="45.42903429658403" lon="11.555568657157178"><ele>264.0</ele><time>2026-04-12T12:17:16Z</time></trkpt><trkpt lat="45.42907744462743" lon="11.555652928241598"><ele>263.1666666666667</ele><time>2026-04-12T12:17:17Z</time></trkpt><trkpt lat="45.429119916902714" lon="11.55573516238397"><ele>262.3333333333333</ele><time>2026-04-12T12:17:18Z</time></trkpt><trkpt lat="45.429164857283915" lon="11.555815542341064"><ele>261.5</ele><time>2026-04-12T12:17:19Z</time></trkpt><trkpt lat="45.42921801283685" lon="11.555878363001733"><ele>260.66666666666663</ele><time>2026-04-12T12:17:20Z</time></trkpt><trkpt lat="45.42926900472312" lon="11.555947901577573"><ele>259.8333333333333</ele><time>2026-04-12T12:17:21Z</time></trkpt><trkpt lat="45.42934264366804" lon="11.556096602437123"><ele>259.0</ele><time>2026-04-12T12:17:23Z</time></trkpt><trkpt lat="45.42933073418755" lon="11.5561875022485"><ele>256.59999999999997</ele><time>2026-04-12T12:17:24Z</time></trkpt><trkpt lat="45.42937003832256" lon="11.556359035227626"><ele>254.2</ele><time>2026-04-12T12:17:26Z</time></trkpt><trkpt lat="45.429386863399465" lon="11.55645304049163"><ele>251.79999999999998</ele><time>2026-04-12T12:17:27Z</time></trkpt><trkpt lat="45.42940104275996" lon="11.556543623188684"><ele>249.39999999999998</ele><time>2026-04-12T12:17:28Z</time></trkpt><trkpt lat="45.42949822596972" lon="11.556592788877573"><ele>247.0</ele><time>2026-04-12T12:17:29Z</time></trkpt><trkpt lat="45.4295879961983" lon="11.55669894544338"><ele>246.99999999999997</ele><time>2026-04-12T12:17:31Z</time></trkpt><trkpt lat="45.4295897240563" lon="11.55682021590209"><ele>247.0</ele><time>2026-04-12T12:17:32Z</time></trkpt><trkpt lat="45.42964855744226" lon="11.556891211438792"><ele>247.0</ele><time>2026-04-12T12:17:33Z</time></trkpt><trkpt lat="45.42970498576141" lon="11.556942657348811"><ele>247.0</ele><time>2026-04-12T12:17:34Z</time></trkpt><trkpt lat="45.42977891398442" lon="11.556993286879917"><ele>246.99999999999997</ele><time>2026-04-12T12:17:35Z</time></trkpt><trkpt lat="45.429848136705445" lon="11.55704061110494"><ele>247.0</ele><time>2026-04-12T12:17:36Z</time></trkpt><trkpt lat="45.42992729369213" lon="11.557071594662384"><ele>248.2</ele><time>2026-04-12T12:17:37Z</time></trkpt><trkpt lat="45.42998346477133" lon="11.557138804655438"><ele>249.39999999999998</ele><time>2026-04-12T12:17:39Z</time></trkpt><trkpt lat="45.429967861961856" lon="11.557251676323899"><ele>250.60000000000002</ele><time>2026-04-12T12:17:41Z</time></trkpt><trkpt lat="45.42991572822799" lon="11.557374430292167"><ele>251.8</ele><time>2026-04-12T12:17:43Z</time></trkpt><trkpt lat="45.42986806198833" lon="11.557544873596427"><ele>253.0</ele><time>2026-04-12T12:17:45Z</time></trkpt><trkpt lat="45.429833830392674" lon="11.55765835915288"><ele>253.0</ele><time>2026-04-12T12:17:46Z</time></trkpt><trkpt lat="45.42979288075164" lon="11.557805080991447"><ele>253.0</ele><time>2026-04-12T12:17:47Z</time></trkpt><trkpt lat="45.429730797863044" lon="11.557982876777155"><ele>253.0</ele><time>2026-04-12T12:17:48Z</time></trkpt><trkpt lat="45.4296616125142" lon="11.558132164044725"><ele>253.0</ele><time>2026-04-12T12:17:49Z</time></trkpt><trkpt lat="45.42961806954964" lon="11.558249654028396"><ele>250.99999999999997</ele><time>2026-04-12T12:17:50Z</time></trkpt><trkpt lat="45.429597913472186" lon="11.55837662648146"><ele>249.0</ele><time>2026-04-12T12:17:51Z</time></trkpt><trkpt lat="45.42959427534249" lon="11.558504375562153"><ele>247.0</ele><time>2026-04-12T12:17:52Z</time></trkpt><trkpt lat="45.42959331567683" lon="11.558622281606178"><ele>245.0</ele><time>2026-04-12T12:17:53Z</time></trkpt><trkpt lat="45.42957769309771" lon="11.55873402410579"><ele>242.99999999999997</ele><time>2026-04-12T12:17:54Z</time></trkpt><trkpt lat="45.4295563258988" lon="11.558843167999578"><ele>241.0</ele><time>2026-04-12T12:17:55Z</time></trkpt><trkpt lat="45.42952408907562" lon="11.558951715923147"><ele>240.60000000000002</ele><time>2026-04-12T12:17:56Z</time></trkpt><trkpt lat="45.429468534562695" lon="11.55903795026842"><ele>240.20000000000002</ele><time>2026-04-12T12:17:57Z</time></trkpt><trkpt lat="45.4294076247637" lon="11.559097651595676"><ele>239.79999999999998</ele><time>2026-04-12T12:17:58Z</time></trkpt><trkpt lat="45.42932288390293" lon="11.559202935973467"><ele>239.39999999999998</ele><time>2026-04-12T12:18:00Z</time></trkpt><trkpt lat="45.429267843629894" lon="11.55936642913027"><ele>239.0</ele><time>2026-04-12T12:18:02Z</time></trkpt><trkpt lat="45.429249746064436" lon="11.55946434511749"><ele>237.71428571428575</ele><time>2026-04-12T12:18:03Z</time></trkpt><trkpt lat="45.429215656424965" lon="11.559554725732557"><ele>236.42857142857144</ele><time>2026-04-12T12:18:04Z</time></trkpt><trkpt lat="45.42918417167862" lon="11.55964951625964"><ele>235.14285714285714</ele><time>2026-04-12T12:18:05Z</time></trkpt><trkpt lat="45.429166593682645" lon="11.559750696614673"><ele>233.85714285714286</ele><time>2026-04-12T12:18:06Z</time></trkpt><trkpt lat="45.429163699589225" lon="11.559840785389467"><ele>232.57142857142856</ele><time>2026-04-12T12:18:07Z</time></trkpt><trkpt lat="45.42916343258444" lon="11.559935947073983"><ele>231.28571428571425</ele><time>2026-04-12T12:18:08Z</time></trkpt><trkpt lat="45.429151063206305" lon="11.560041225647277"><ele>229.99999999999997</ele><time>2026-04-12T12:18:09Z</time></trkpt><trkpt lat="45.42914252281497" lon="11.560148212330116"><ele>230.0</ele><time>2026-04-12T12:18:10Z</time></trkpt><trkpt lat="45.42912011376437" lon="11.560248658865083"><ele>230.0</ele><time>2026-04-12T12:18:11Z</time></trkpt><trkpt lat="45.429104405770886" lon="11.560366493377074"><ele>230.0</ele><time>2026-04-12T12:18:13Z</time></trkpt><trkpt lat="45.429113010306835" lon="11.56047626125859"><ele>230.0</ele><time>2026-04-12T12:18:19Z</time></trkpt><trkpt lat="45.42907954096808" lon="11.560669599381425"><ele>230.0</ele><time>2026-04-12T12:18:21Z</time></trkpt><trkpt lat="45.42907766807721" lon="11.560820208798754"><ele>228.00000000000003</ele><time>2026-04-12T12:18:22Z</time></trkpt><trkpt lat="45.42909501561828" lon="11.560918571686235"><ele>226.0</ele><time>2026-04-12T12:18:23Z</time></trkpt><trkpt lat="45.4290824416612" lon="11.561045459131929"><ele>224.0</ele><time>2026-04-12T12:18:25Z</time></trkpt><trkpt lat="45.42903375126663" lon="11.561132199198543"><ele>222.0</ele><time>2026-04-12T12:18:27Z</time></trkpt><trkpt lat="45.42897571700647" lon="11.561235526101438"><ele>220.00000000000003</ele><time>2026-04-12T12:18:29Z</time></trkpt><trkpt lat="45.42903167511823" lon="11.561339476978684"><ele>218.0</ele><time>2026-04-12T12:18:32Z</time></trkpt><trkpt lat="45.42914027305062" lon="11.561328275612693"><ele>214.8</ele><time>2026-04-12T12:18:34Z</time></trkpt><trkpt lat="45.42923855621173" lon="11.561341773148227"><ele>211.60000000000002</ele><time>2026-04-12T12:18:36Z</time></trkpt><trkpt lat="45.42935863222532" lon="11.561411316981422"><ele>208.39999999999998</ele><time>2026-04-12T12:18:38Z</time></trkpt><trkpt lat="45.429417821053796" lon="11.561448567697223"><ele>205.2</ele><time>2026-04-12T12:18:39Z</time></trkpt><trkpt lat="45.42951132806184" lon="11.56146350709948"><ele>202.0</ele><time>2026-04-12T12:18:41Z</time></trkpt><trkpt lat="45.429562239350716" lon="11.561335247269861"><ele>201.99999999999997</ele><time>2026-04-12T12:18:43Z</time></trkpt><trkpt lat="45.42959582177018" lon="11.561234008772045"><ele>202.0</ele><time>2026-04-12T12:18:44Z</time></trkpt><trkpt lat="45.42963320726971" lon="11.561126720161587"><ele>202.0</ele><time>2026-04-12T12:18:45Z</time></trkpt><trkpt lat="45.429659730335864" lon="11.561018308122188"><ele>202.0</ele><time>2026-04-12T12:18:46Z</time></trkpt><trkpt lat="45.42967096662662" lon="11.560927797894834"><ele>201.99999999999997</ele><time>2026-04-12T12:18:47Z</time></trkpt><trkpt lat="45.429699947079456" lon="11.56077299991198"><ele>202.0</ele><time>2026-04-12T12:18:49Z</time></trkpt><trkpt lat="45.429729376936834" lon="11.560691033797395"><ele>202.6</ele><time>2026-04-12T12:18:50Z</time></trkpt><trkpt lat="45.4297722927015" lon="11.560526837669622"><ele>203.2</ele><time>2026-04-12T12:18:52Z</time></trkpt><trkpt lat="45.429805828216914" lon="11.560441582366904"><ele>203.8</ele><time>2026-04-12T12:18:53Z</time></trkpt><trkpt lat="45.429892832525375" lon="11.560260898188034"><ele>204.4</ele><time>2026-04-12T12:18:55Z</time></trkpt><trkpt lat="45.4299462766797" lon="11.560156073236676"><ele>205.0</ele><time>2026-04-12T12:18:56Z</time></trkpt><trkpt lat="45.43001608280951" lon="11.560077245502363"><ele>204.99999999999997</ele><time>2026-04-12T12:18:57Z</time></trkpt><trkpt lat="45.43008056066245" lon="11.560003424024416"><ele>205.0</ele><time>2026-04-12T12:18:58Z</time></trkpt><trkpt lat="45.43013968574116" lon="11.559908511366382"><ele>205.0</ele><time>2026-04-12T12:18:59Z</time></trkpt><trkpt lat="45.43020339608239" lon="11.559816608320558"><ele>205.0</ele><time>2026-04-12T12:19:00Z</time></trkpt><trkpt lat="45.4302441876227" lon="11.55973279814106"><ele>204.99999999999997</ele><time>2026-04-12T12:19:01Z</time></trkpt><trkpt lat="45.43025101506517" lon="11.559621425852761"><ele>205.0</ele><time>2026-04-12T12:19:03Z</time></trkpt><trkpt lat="45.43031801768306" lon="11.559572555754748"><ele>205.0</ele><time>2026-04-12T12:19:05Z</time></trkpt><trkpt lat="45.43040623350811" lon="11.559723888399686"><ele>205.0</ele><time>2026-04-12T12:19:08Z</time></trkpt><trkpt lat="45.430427885902795" lon="11.559818621481247"><ele>205.0</ele><time>2026-04-12T12:19:09Z</time></trkpt><trkpt lat="45.43045023462388" lon="11.559906929703502"><ele>205.0</ele><time>2026-04-12T12:19:10Z</time></trkpt><trkpt lat="45.43048959908489" lon="11.560020900685561"><ele>205.0</ele><time>2026-04-12T12:19:12Z</time></trkpt><trkpt lat="45.43053969730484" lon="11.560165003193314"><ele>206.0</ele><time>2026-04-12T12:19:14Z</time></trkpt><trkpt lat="45.43056264739995" lon="11.560286341415265"><ele>207.0</ele><time>2026-04-12T12:19:15Z</time></trkpt><trkpt lat="45.430587591993145" lon="11.560389538433313"><ele>208.0</ele><time>2026-04-12T12:19:16Z</time></trkpt><trkpt lat="45.4306288660447" lon="11.560465451666618"><ele>209.0</ele><time>2026-04-12T12:19:18Z</time></trkpt><trkpt lat="45.430680077288756" lon="11.560656250885083"><ele>210.0</ele><time>2026-04-12T12:19:21Z</time></trkpt><trkpt lat="45.43073759695851" lon="11.560795555777105"><ele>206.2</ele><time>2026-04-12T12:19:22Z</time></trkpt><trkpt lat="45.4307980062021" lon="11.560902024382123"><ele>202.4</ele><time>2026-04-12T12:19:23Z</time></trkpt><trkpt lat="45.430864205984" lon="11.560975479651166"><ele>198.60000000000002</ele><time>2026-04-12T12:19:24Z</time></trkpt><trkpt lat="45.43092376662694" lon="11.561089340356434"><ele>194.8</ele><time>2026-04-12T12:19:26Z</time></trkpt><trkpt lat="45.431011166197685" lon="11.561187058579979"><ele>191.0</ele><time>2026-04-12T12:19:28Z</time></trkpt><trkpt lat="45.431118114795865" lon="11.56123933432603"><ele>191.0</ele><time>2026-04-12T12:19:30Z</time></trkpt><trkpt lat="45.43121877232049" lon="11.561270042068431"><ele>191.0</ele><time>2026-04-12T12:19:32Z</time></trkpt><trkpt lat="45.43128537910627" lon="11.561170749351234"><ele>191.0</ele><time>2026-04-12T12:19:34Z</time></trkpt><trkpt lat="45.43138077001867" lon="11.561201584154064"><ele>191.0</ele><time>2026-04-12T12:19:36Z</time></trkpt><trkpt lat="45.43144877848292" lon="11.561178063162338"><ele>191.0</ele><time>2026-04-12T12:19:37Z</time></trkpt><trkpt lat="45.431518575163715" lon="11.561149182869183"><ele>191.0</ele><time>2026-04-12T12:19:38Z</time></trkpt><trkpt lat="45.43157857304056" lon="11.561090058698364"><ele>193.20000000000002</ele><time>2026-04-12T12:19:40Z</time></trkpt><trkpt lat="45.43163962090018" lon="11.5609965117059"><ele>195.4</ele><time>2026-04-12T12:19:43Z</time></trkpt><trkpt lat="45.43177698331802" lon="11.560920516317069"><ele>197.6</ele><time>2026-04-12T12:19:45Z</time></trkpt><trkpt lat="45.4318411296135" lon="11.560859472036906"><ele>199.8</ele><time>2026-04-12T12:19:46Z</time></trkpt><trkpt lat="45.431896166419705" lon="11.560790215105673"><ele>202.0</ele><time>2026-04-12T12:19:47Z</time></trkpt><trkpt lat="45.431954194129766" lon="11.56074055736796"><ele>202.0</ele><time>2026-04-12T12:19:48Z</time></trkpt><trkpt lat="45.432057658063684" lon="11.560627269463238"><ele>202.0</ele><time>2026-04-12T12:19:50Z</time></trkpt><trkpt lat="45.43211427170824" lon="11.560562360418828"><ele>202.0</ele><time>2026-04-12T12:19:51Z</time></trkpt><trkpt lat="45.43216427120632" lon="11.560488835277678"><ele>202.0</ele><time>2026-04-12T12:19:52Z</time></trkpt><trkpt lat="45.43219837583185" lon="11.560396692248059"><ele>202.0</ele><time>2026-04-12T12:19:53Z</time></trkpt><trkpt lat="45.432295599927684" lon="11.56028986413988"><ele>201.49999999999997</ele><time>2026-04-12T12:19:55Z</time></trkpt><trkpt lat="45.43234758737026" lon="11.560222690730601"><ele>201.0</ele><time>2026-04-12T12:19:56Z</time></trkpt><trkpt lat="45.43239748134079" lon="11.560166379881471"><ele>200.5</ele><time>2026-04-12T12:19:57Z</time></trkpt><trkpt lat="45.43244264312666" lon="11.560008555827727"><ele>200.0</ele><time>2026-04-12T12:19:59Z</time></trkpt><trkpt lat="45.43249806206759" lon="11.559943421348565"><ele>199.49999999999997</ele><time>2026-04-12T12:20:01Z</time></trkpt><trkpt lat="45.432577574448835" lon="11.559820751780501"><ele>199.0</ele><time>2026-04-12T12:20:04Z</time></trkpt><trkpt lat="45.43260999803987" lon="11.559672208578881"><ele>199.0</ele><time>2026-04-12T12:20:06Z</time></trkpt><trkpt lat="45.432668556896814" lon="11.559556096695161"><ele>199.0</ele><time>2026-04-12T12:20:08Z</time></trkpt><trkpt lat="45.43272902691313" lon="11.559403921385277"><ele>199.0</ele><time>2026-04-12T12:20:10Z</time></trkpt><trkpt lat="45.43274967021445" lon="11.559316267219002"><ele>199.0</ele><time>2026-04-12T12:20:11Z</time></trkpt><trkpt lat="45.432791707656136" lon="11.559224848017394"><ele>199.0</ele><time>2026-04-12T12:20:13Z</time></trkpt><trkpt lat="45.432880219017434" lon="11.559094736706964"><ele>197.2</ele><time>2026-04-12T12:20:15Z</time></trkpt><trkpt lat="45.43292180939175" lon="11.559017820393219"><ele>195.39999999999998</ele><time>2026-04-12T12:20:16Z</time></trkpt><trkpt lat="45.43303211834355" lon="11.558918675156066"><ele>193.6</ele><time>2026-04-12T12:20:18Z</time></trkpt><trkpt lat="45.433089141906606" lon="11.558854017841961"><ele>191.8</ele><time>2026-04-12T12:20:19Z</time></trkpt><trkpt lat="45.43321927102025" lon="11.558888384473486"><ele>190.0</ele><time>2026-04-12T12:20:23Z</time></trkpt><trkpt lat="45.43328451464471" lon="11.558986991270189"><ele>190.0</ele><time>2026-04-12T12:20:24Z</time></trkpt><trkpt lat="45.43338043633363" lon="11.559075186119205"><ele>190.0</ele><time>2026-04-12T12:20:25Z</time></trkpt><trkpt lat="45.433455685044706" lon="11.559116666377545"><ele>190.0</ele><time>2026-04-12T12:20:26Z</time></trkpt><trkpt lat="45.433564132489714" lon="11.559176393749249"><ele>190.0</ele><time>2026-04-12T12:20:27Z</time></trkpt><trkpt lat="45.43367569245418" lon="11.559230891567951"><ele>190.0</ele><time>2026-04-12T12:20:28Z</time></trkpt><trkpt lat="45.433784500613015" lon="11.559293167427752"><ele>191.83333333333334</ele><time>2026-04-12T12:20:29Z</time></trkpt><trkpt lat="45.43387329172541" lon="11.559323931263984"><ele>193.66666666666669</ele><time>2026-04-12T12:20:30Z</time></trkpt><trkpt lat="45.43395506079461" lon="11.559341190948087"><ele>195.5</ele><time>2026-04-12T12:20:31Z</time></trkpt><trkpt lat="45.43403423492198" lon="11.559345830474358"><ele>197.33333333333334</ele><time>2026-04-12T12:20:32Z</time></trkpt><trkpt lat="45.43410477117526" lon="11.559348511893402"><ele>199.16666666666666</ele><time>2026-04-12T12:20:33Z</time></trkpt><trkpt lat="45.43419564592317" lon="11.559385941059432"><ele>201.0</ele><time>2026-04-12T12:20:36Z</time></trkpt><trkpt lat="45.43425103768967" lon="11.55943014752889"><ele>201.0</ele><time>2026-04-12T12:20:39Z</time></trkpt><trkpt lat="45.434328465195755" lon="11.55945023953488"><ele>201.0</ele><time>2026-04-12T12:20:49Z</time></trkpt><trkpt lat="45.43439152188482" lon="11.559488806585053"><ele>201.0</ele><time>2026-04-12T12:20:59Z</time></trkpt><trkpt lat="45.43445612002008" lon="11.559508657446797"><ele>201.0</ele><time>2026-04-12T12:21:05Z</time></trkpt><trkpt lat="45.43441353218482" lon="11.559598973410795"><ele>201.0</ele><time>2026-04-12T12:21:15Z</time></trkpt><trkpt lat="45.4343482285297" lon="11.559663166727518"><ele>201.0</ele><time>2026-04-12T12:21:17Z</time></trkpt><trkpt lat="45.43428680943622" lon="11.559716925452895"><ele>201.0</ele><time>2026-04-12T12:21:20Z</time></trkpt><trkpt lat="45.43422704774482" lon="11.5597743062914"><ele>197.16666666666666</ele><time>2026-04-12T12:21:26Z</time></trkpt><trkpt lat="45.43414661401969" lon="11.559847289813957"><ele>193.33333333333334</ele><time>2026-04-12T12:21:30Z</time></trkpt><trkpt lat="45.43408012107616" lon="11.559900982261068"><ele>189.5</ele><time>2026-04-12T12:21:33Z</time></trkpt><trkpt lat="45.43399699767939" lon="11.559936760774134"><ele>185.66666666666669</ele><time>2026-04-12T12:21:35Z</time></trkpt><trkpt lat="45.43393324826705" lon="11.559990222933694"><ele>181.83333333333334</ele><time>2026-04-12T12:21:37Z</time></trkpt><trkpt lat="45.433876290068355" lon="11.560055933841715"><ele>178.0</ele><time>2026-04-12T12:21:42Z</time></trkpt><trkpt lat="45.43379434446045" lon="11.560064051225234"><ele>175.83333333333334</ele><time>2026-04-12T12:21:46Z</time></trkpt><trkpt lat="45.43371338426273" lon="11.560084589971217"><ele>173.66666666666669</ele><time>2026-04-12T12:21:49Z</time></trkpt><trkpt lat="45.43363743652973" lon="11.560133146653053"><ele>171.5</ele><time>2026-04-12T12:21:52Z</time></trkpt><trkpt lat="45.433597778162714" lon="11.560204887067924"><ele>169.33333333333334</ele><time>2026-04-12T12:21:54Z</time></trkpt><trkpt lat="45.43354865402487" lon="11.560289257328229"><ele>167.16666666666666</ele><time>2026-04-12T12:21:58Z</time></trkpt><trkpt lat="45.43347986931524" lon="11.560384430026767"><ele>165.0</ele><time>2026-04-12T12:22:01Z</time></trkpt><trkpt lat="45.43343594903919" lon="11.560473277020078"><ele>162.83333333333334</ele><time>2026-04-12T12:22:02Z</time></trkpt><trkpt lat="45.433386189758664" lon="11.56058169694807"><ele>160.66666666666666</ele><time>2026-04-12T12:22:04Z</time></trkpt><trkpt lat="45.43331597340978" lon="11.560688604828718"><ele>158.5</ele><time>2026-04-12T12:22:06Z</time></trkpt><trkpt lat="45.433261180684475" lon="11.560767903176343"><ele>156.33333333333331</ele><time>2026-04-12T12:22:08Z</time></trkpt><trkpt lat="45.43320328819565" lon="11.560834156487196"><ele>154.16666666666666</ele><time>2026-04-12T12:22:09Z</time></trkpt><trkpt lat="45.433131128175326" lon="11.56089496934638"><ele>152.0</ele><time>2026-04-12T12:22:13Z</time></trkpt><trkpt lat="45.43308933192568" lon="11.560985345562996"><ele>152.0</ele><time>2026-04-12T12:22:15Z</time></trkpt><trkpt lat="45.43301899358341" lon="11.561087143984007"><ele>152.0</ele><time>2026-04-12T12:22:17Z</time></trkpt><trkpt lat="45.43296638105842" lon="11.561160379979945"><ele>152.0</ele><time>2026-04-12T12:22:19Z</time></trkpt><trkpt lat="45.432889062835784" lon="11.56128352347708"><ele>152.0</ele><time>2026-04-12T12:22:21Z</time></trkpt><trkpt lat="45.43284585725959" lon="11.561359279417642"><ele>152.0</ele><time>2026-04-12T12:22:22Z</time></trkpt><trkpt lat="45.43280498204021" lon="11.561439481366635"><ele>152.0</ele><time>2026-04-12T12:22:23Z</time></trkpt><trkpt lat="45.4327628265235" lon="11.56151018171014"><ele>149.83333333333331</ele><time>2026-04-12T12:22:24Z</time></trkpt><trkpt lat="45.43267073880895" lon="11.561645361028043"><ele>147.66666666666666</ele><time>2026-04-12T12:22:26Z</time></trkpt><trkpt lat="45.43262522102186" lon="11.561715870053638"><ele>145.5</ele><time>2026-04-12T12:22:27Z</time></trkpt><trkpt lat="45.432572019420505" lon="11.561787210378"><ele>143.33333333333334</ele><time>2026-04-12T12:22:28Z</time></trkpt><trkpt lat="45.43251682441307" lon="11.561850716760793"><ele>141.16666666666669</ele><time>2026-04-12T12:22:29Z</time></trkpt><trkpt lat="45.43246043872109" lon="11.561928357558646"><ele>139.0</ele><time>2026-04-12T12:22:30Z</time></trkpt><trkpt lat="45.43240636652316" lon="11.56199645989005"><ele>136.0</ele><time>2026-04-12T12:22:31Z</time></trkpt><trkpt lat="45.43235680993623" lon="11.562064644859852"><ele>133.0</ele><time>2026-04-12T12:22:32Z</time></trkpt><trkpt lat="45.43229771642566" lon="11.562143690136235"><ele>130.0</ele><time>2026-04-12T12:22:34Z</time></trkpt><trkpt lat="45.43214891149651" lon="11.562422210204202"><ele>127.0</ele><time>2026-04-12T12:22:42Z</time></trkpt><trkpt lat="45.43209077660396" lon="11.562490231832466"><ele>127.00000000000001</ele><time>2026-04-12T12:22:43Z</time></trkpt><trkpt lat="45.43201825975779" lon="11.562599089215164"><ele>127.0</ele><time>2026-04-12T12:22:45Z</time></trkpt><trkpt lat="45.43197000266146" lon="11.562657658562166"><ele>127.0</ele><time>2026-04-12T12:22:46Z</time></trkpt><trkpt lat="45.43190779981391" lon="11.562699238878034"><ele>127.0</ele><time>2026-04-12T12:22:47Z</time></trkpt><trkpt lat="45.43184202672154" lon="11.56272986058281"><ele>127.00000000000001</ele><time>2026-04-12T12:22:48Z</time></trkpt><trkpt lat="45.43174224386819" lon="11.562819555084788"><ele>127.0</ele><time>2026-04-12T12:22:50Z</time></trkpt><trkpt lat="45.43169009514783" lon="11.562878494211178"><ele>122.83333333333334</ele><time>2026-04-12T12:22:51Z</time></trkpt><trkpt lat="45.43162246835216" lon="11.562945970083932"><ele>118.66666666666667</ele><time>2026-04-12T12:22:53Z</time></trkpt><trkpt lat="45.4315706813348" lon="11.563034749745862"><ele>114.5</ele><time>2026-04-12T12:22:56Z</time></trkpt><trkpt lat="45.431508613298334" lon="11.563118294040022"><ele>110.33333333333334</ele><time>2026-04-12T12:22:58Z</time></trkpt><trkpt lat="45.431433399977955" lon="11.56317154254426"><ele>106.16666666666667</ele><time>2026-04-12T12:23:01Z</time></trkpt><trkpt lat="45.43137483947202" lon="11.563219016631653"><ele>102.0</ele><time>2026-04-12T12:24:12Z</time></trkpt><trkpt lat="45.431310248939646" lon="11.563242348747794"><ele>100.42857142857143</ele><time>2026-04-12T12:24:41Z</time></trkpt><trkpt lat="45.43128186517967" lon="11.56335539437048"><ele>98.85714285714286</ele><time>2026-04-12T12:25:02Z</time></trkpt><trkpt lat="45.43127188141724" lon="11.56344803883307"><ele>97.28571428571428</ele><time>2026-04-12T12:25:07Z</time></trkpt><trkpt lat="45.431270480688994" lon="11.563543485612197"><ele>95.71428571428572</ele><time>2026-04-12T12:25:12Z</time></trkpt><trkpt lat="45.431250395581465" lon="11.563648206118708"><ele>94.14285714285714</ele><time>2026-04-12T12:25:14Z</time></trkpt><trkpt lat="45.43119545752207" lon="11.56370996012522"><ele>92.57142857142857</ele><time>2026-04-12T12:27:23Z</time></trkpt><trkpt lat="45.4311475105607" lon="11.56380081477323"><ele>91.0</ele><time>2026-04-12T12:27:25Z</time></trkpt><trkpt lat="45.431103839715185" lon="11.563933657022327"><ele>91.0</ele><time>2026-04-12T12:27:27Z</time></trkpt><trkpt lat="45.431047776187036" lon="11.564069418126579"><ele>91.0</ele><time>2026-04-12T12:27:29Z</time></trkpt><trkpt lat="45.43099871913076" lon="11.56415523370111"><ele>91.0</ele><time>2026-04-12T12:27:30Z</time></trkpt><trkpt lat="45.43094777301353" lon="11.564287020270221"><ele>91.0</ele><time>2026-04-12T12:27:31Z</time></trkpt><trkpt lat="45.43088717163256" lon="11.564409739680485"><ele>91.0</ele><time>2026-04-12T12:27:32Z</time></trkpt><trkpt lat="45.43084804344157" lon="11.564506186723213"><ele>88.16666666666666</ele><time>2026-04-12T12:27:33Z</time></trkpt><trkpt lat="45.43085028148663" lon="11.56461193581593"><ele>85.33333333333333</ele><time>2026-04-12T12:27:34Z</time></trkpt><trkpt lat="45.43084657093201" lon="11.564743285388747"><ele>82.5</ele><time>2026-04-12T12:27:35Z</time></trkpt><trkpt lat="45.430832190413135" lon="11.564869428925991"><ele>79.66666666666667</ele><time>2026-04-12T12:27:36Z</time></trkpt><trkpt lat="45.43080582969381" lon="11.564977198506032"><ele>76.83333333333334</ele><time>2026-04-12T12:27:37Z</time></trkpt><trkpt lat="45.43076100758736" lon="11.565093396743059"><ele>74.0</ele><time>2026-04-12T12:27:38Z</time></trkpt><trkpt lat="45.43072028811327" lon="11.565188777954035"><ele>74.0</ele><time>2026-04-12T12:27:39Z</time></trkpt><trkpt lat="45.430669139876784" lon="11.56525129198817"><ele>74.0</ele><time>2026-04-12T12:27:40Z</time></trkpt><trkpt lat="45.43059929850392" lon="11.565331885269154"><ele>74.0</ele><time>2026-04-12T12:27:41Z</time></trkpt><trkpt lat="45.430525257838525" lon="11.565409406703488"><ele>74.0</ele><time>2026-04-12T12:27:42Z</time></trkpt><trkpt lat="45.43045166938809" lon="11.565416029211946"><ele>74.0</ele><time>2026-04-12T12:27:43Z</time></trkpt><trkpt lat="45.4303463715967" lon="11.565396042417133"><ele>74.0</ele><time>2026-04-12T12:27:44Z</time></trkpt><trkpt lat="45.43022339335885" lon="11.565383330498577"><ele>72.4</ele><time>2026-04-12T12:27:45Z</time></trkpt><trkpt lat="45.430084777241625" lon="11.565384211081588"><ele>70.80000000000001</ele><time>2026-04-12T12:27:46Z</time></trkpt><trkpt lat="45.42997205916272" lon="11.565404703689355"><ele>69.19999999999999</ele><time>2026-04-12T12:27:47Z</time></trkpt><trkpt lat="45.42987444561759" lon="11.565456934987518"><ele>67.6</ele><time>2026-04-12T12:27:48Z</time></trkpt><trkpt lat="45.42980563303952" lon="11.565500217615593"><ele>66.0</ele><time>2026-04-12T12:27:49Z</time></trkpt><trkpt lat="45.42974044470441" lon="11.565525549108486"><ele>69.19999999999999</ele><time>2026-04-12T12:27:50Z</time></trkpt><trkpt lat="45.42962177290004" lon="11.565598747226462"><ele>72.39999999999999</ele><time>2026-04-12T12:27:52Z</time></trkpt><trkpt lat="45.429555144557426" lon="11.565636859051814"><ele>75.6</ele><time>2026-04-12T12:27:53Z</time></trkpt><trkpt lat="45.42946210979992" lon="11.565684946963458"><ele>78.8</ele><time>2026-04-12T12:27:54Z</time></trkpt><trkpt lat="45.42937489415653" lon="11.5657500036765"><ele>82.0</ele><time>2026-04-12T12:27:55Z</time></trkpt><trkpt lat="45.42930109792862" lon="11.56580809229419"><ele>82.0</ele><time>2026-04-12T12:27:56Z</time></trkpt><trkpt lat="45.42921868558115" lon="11.565879278579848"><ele>82.0</ele><time>2026-04-12T12:27:57Z</time></trkpt><trkpt lat="45.42913635466985" lon="11.565950374220575"><ele>82.0</ele><time>2026-04-12T12:27:58Z</time></trkpt><trkpt lat="45.42904357869737" lon="11.566034296621915"><ele>82.0</ele><time>2026-04-12T12:27:59Z</time></trkpt><trkpt lat="45.42896366445311" lon="11.566098908430483"><ele>82.0</ele><time>2026-04-12T12:28:00Z</time></trkpt><trkpt lat="45.428896271671626" lon="11.566145092686444"><ele>82.85714285714285</ele><time>2026-04-12T12:28:01Z</time></trkpt><trkpt lat="45.42883626946791" lon="11.566196163409368"><ele>83.71428571428571</ele><time>2026-04-12T12:28:02Z</time></trkpt><trkpt lat="45.428786127810575" lon="11.566261330497278"><ele>84.57142857142857</ele><time>2026-04-12T12:28:03Z</time></trkpt><trkpt lat="45.428728250362035" lon="11.566322944810798"><ele>85.42857142857142</ele><time>2026-04-12T12:28:04Z</time></trkpt><trkpt lat="45.428653596175295" lon="11.566371803058459"><ele>86.28571428571428</ele><time>2026-04-12T12:28:05Z</time></trkpt><trkpt lat="45.4285867328148" lon="11.566414410935838"><ele>87.14285714285714</ele><time>2026-04-12T12:28:06Z</time></trkpt><trkpt lat="45.42851864992023" lon="11.56646312261233"><ele>88.0</ele><time>2026-04-12T12:28:07Z</time></trkpt><trkpt lat="45.42846309462644" lon="11.5665085123473"><ele>88.0</ele><time>2026-04-12T12:28:08Z</time></trkpt><trkpt lat="45.42841718721676" lon="11.566596588275386"><ele>88.0</ele><time>2026-04-12T12:28:10Z</time></trkpt><trkpt lat="45.42828697020408" lon="11.566685269277171"><ele>88.0</ele><time>2026-04-12T12:28:15Z</time></trkpt><trkpt lat="45.428204531011964" lon="11.566756672585814"><ele>88.0</ele><time>2026-04-12T12:28:16Z</time></trkpt><trkpt lat="45.428084340910885" lon="11.566841660711491"><ele>91.75</ele><time>2026-04-12T12:28:17Z</time></trkpt><trkpt lat="45.42797453267508" lon="11.566921018877453"><ele>95.5</ele><time>2026-04-12T12:28:18Z</time></trkpt><trkpt lat="45.427825370028614" lon="11.56696699588059"><ele>99.25</ele><time>2026-04-12T12:28:19Z</time></trkpt><trkpt lat="45.42769580708072" lon="11.566988388843852"><ele>103.0</ele><time>2026-04-12T12:28:20Z</time></trkpt><trkpt lat="45.427633362260934" lon="11.56702514869978"><ele>103.00000000000001</ele><time>2026-04-12T12:28:22Z</time></trkpt><trkpt lat="45.42757630395492" lon="11.567065453979431"><ele>103.0</ele><time>2026-04-12T12:28:24Z</time></trkpt><trkpt lat="45.42750941659123" lon="11.567082198628343"><ele>103.0</ele><time>2026-04-12T12:28:26Z</time></trkpt><trkpt lat="45.42745313040163" lon="11.567039683898843"><ele>103.0</ele><time>2026-04-12T12:28:29Z</time></trkpt><trkpt lat="45.427369210496394" lon="11.567014065712662"><ele>103.00000000000001</ele><time>2026-04-12T12:28:31Z</time></trkpt><trkpt lat="45.42731431484909" lon="11.566951061607424"><ele>103.0</ele><time>2026-04-12T12:28:36Z</time></trkpt><trkpt lat="45.42727930336733" lon="11.566790005929132"><ele>103.00000000000001</ele><time>2026-04-12T12:28:38Z</time></trkpt><trkpt lat="45.427255019610676" lon="11.566705722982402"><ele>103.0</ele><time>2026-04-12T12:28:39Z</time></trkpt><trkpt lat="45.42722648096614" lon="11.566587637777928"><ele>103.0</ele><time>2026-04-12T12:28:41Z</time></trkpt><trkpt lat="45.42720732952546" lon="11.566491303863023"><ele>103.0</ele><time>2026-04-12T12:28:43Z</time></trkpt><trkpt lat="45.42719365010472" lon="11.56639005436455"><ele>103.00000000000001</ele><time>2026-04-12T12:28:45Z</time></trkpt><trkpt lat="45.427184345930485" lon="11.566284897558832"><ele>103.0</ele><time>2026-04-12T12:28:47Z</time></trkpt><trkpt lat="45.42713703774095" lon="11.566182204927344"><ele>100.60000000000001</ele><time>2026-04-12T12:28:57Z</time></trkpt><trkpt lat="45.427068890801685" lon="11.566298696830565"><ele>98.2</ele><time>2026-04-12T12:28:59Z</time></trkpt><trkpt lat="45.42703482037192" lon="11.566376429024752"><ele>95.8</ele><time>2026-04-12T12:29:00Z</time></trkpt><trkpt lat="45.426977387276075" lon="11.566495038645307"><ele>93.4</ele><time>2026-04-12T12:29:02Z</time></trkpt><trkpt lat="45.42691523404889" lon="11.566609694876869"><ele>91.0</ele><time>2026-04-12T12:29:04Z</time></trkpt><trkpt lat="45.42685884452261" lon="11.566688216690116"><ele>91.0</ele><time>2026-04-12T12:29:06Z</time></trkpt><trkpt lat="45.4268012573436" lon="11.56676345465964"><ele>91.0</ele><time>2026-04-12T12:29:08Z</time></trkpt><trkpt lat="45.42672397954807" lon="11.566848924070289"><ele>91.0</ele><time>2026-04-12T12:29:10Z</time></trkpt><trkpt lat="45.426726426141606" lon="11.566951845197545"><ele>91.0</ele><time>2026-04-12T12:29:12Z</time></trkpt><trkpt lat="45.42670729051809" lon="11.56708896859503"><ele>91.0</ele><time>2026-04-12T12:29:14Z</time></trkpt><trkpt lat="45.42660946636605" lon="11.567199072478349"><ele>90.19999999999999</ele><time>2026-04-12T12:29:16Z</time></trkpt><trkpt lat="45.426554176593044" lon="11.567264214797069"><ele>89.39999999999999</ele><time>2026-04-12T12:29:17Z</time></trkpt><trkpt lat="45.42651871493869" lon="11.56740200900344"><ele>88.6</ele><time>2026-04-12T12:29:19Z</time></trkpt><trkpt lat="45.42649048016235" lon="11.567484336583618"><ele>87.8</ele><time>2026-04-12T12:29:21Z</time></trkpt><trkpt lat="45.42644308065982" lon="11.567623941942731"><ele>87.0</ele><time>2026-04-12T12:29:25Z</time></trkpt><trkpt lat="45.426402891657986" lon="11.567787107031666"><ele>86.83333333333333</ele><time>2026-04-12T12:29:27Z</time></trkpt><trkpt lat="45.426321742964646" lon="11.567945782012023"><ele>86.66666666666667</ele><time>2026-04-12T12:29:29Z</time></trkpt><trkpt lat="45.42627267801259" lon="11.568046301986582"><ele>86.5</ele><time>2026-04-12T12:29:30Z</time></trkpt><trkpt lat="45.42623728094547" lon="11.568123611714512"><ele>86.33333333333334</ele><time>2026-04-12T12:29:31Z</time></trkpt><trkpt lat="45.4262338618317" lon="11.568232775389632"><ele>86.16666666666667</ele><time>2026-04-12T12:29:32Z</time></trkpt><trkpt lat="45.426263334084766" lon="11.568313950412533"><ele>86.0</ele><time>2026-04-12T12:29:33Z</time></trkpt><trkpt lat="45.42629119165886" lon="11.568405065996611"><ele>86.83333333333334</ele><time>2026-04-12T12:29:34Z</time></trkpt><trkpt lat="45.4263034755806" lon="11.568523369078552"><ele>87.66666666666667</ele><time>2026-04-12T12:29:35Z</time></trkpt><trkpt lat="45.42630964293235" lon="11.568662197361537"><ele>88.5</ele><time>2026-04-12T12:29:36Z</time></trkpt><trkpt lat="45.4262921908216" lon="11.56881676442289"><ele>89.33333333333333</ele><time>2026-04-12T12:29:37Z</time></trkpt><trkpt lat="45.42628190058101" lon="11.568920508716978"><ele>90.16666666666666</ele><time>2026-04-12T12:29:38Z</time></trkpt><trkpt lat="45.4262820236447" lon="11.569011799157352"><ele>91.0</ele><time>2026-04-12T12:29:39Z</time></trkpt><trkpt lat="45.42626294959255" lon="11.569116793065934"><ele>93.83333333333333</ele><time>2026-04-12T12:29:40Z</time></trkpt><trkpt lat="45.4262596741815" lon="11.569228772771032"><ele>96.66666666666666</ele><time>2026-04-12T12:29:41Z</time></trkpt><trkpt lat="45.4262449054383" lon="11.569340450973971"><ele>99.5</ele><time>2026-04-12T12:29:42Z</time></trkpt><trkpt lat="45.42624266984021" lon="11.569447765626359"><ele>102.33333333333333</ele><time>2026-04-12T12:29:43Z</time></trkpt><trkpt lat="45.426236180466475" lon="11.569551453162592"><ele>105.16666666666667</ele><time>2026-04-12T12:29:44Z</time></trkpt><trkpt lat="45.42623145166858" lon="11.569699714684168"><ele>108.0</ele><time>2026-04-12T12:29:45Z</time></trkpt><trkpt lat="45.42621039189039" lon="11.569899007898265"><ele>108.60000000000001</ele><time>2026-04-12T12:29:46Z</time></trkpt><trkpt lat="45.4261960488353" lon="11.570085195482989"><ele>109.20000000000002</ele><time>2026-04-12T12:29:47Z</time></trkpt><trkpt lat="45.42618911616035" lon="11.570199427515332"><ele>109.8</ele><time>2026-04-12T12:29:48Z</time></trkpt><trkpt lat="45.426166116367575" lon="11.570319475167073"><ele>110.4</ele><time>2026-04-12T12:29:49Z</time></trkpt><trkpt lat="45.42616258087798" lon="11.570459954010712"><ele>111.0</ele><time>2026-04-12T12:29:50Z</time></trkpt><trkpt lat="45.42614879405071" lon="11.570601895154859"><ele>109.5</ele><time>2026-04-12T12:29:51Z</time></trkpt><trkpt lat="45.42613125238766" lon="11.570745528209999"><ele>108.0</ele><time>2026-04-12T12:29:52Z</time></trkpt><trkpt lat="45.42609627177821" lon="11.570870248562033"><ele>106.5</ele><time>2026-04-12T12:29:53Z</time></trkpt><trkpt lat="45.42606377507777" lon="11.570978794936382"><ele>105.0</ele><time>2026-04-12T12:29:54Z</time></trkpt><trkpt lat="45.42602403327485" lon="11.57108449681047"><ele>103.5</ele><time>2026-04-12T12:29:55Z</time></trkpt><trkpt lat="45.42598398668428" lon="11.571189236670556"><ele>102.0</ele><time>2026-04-12T12:29:56Z</time></trkpt><trkpt lat="45.42595537098924" lon="11.571284477236992"><ele>99.0</ele><time>2026-04-12T12:29:57Z</time></trkpt><trkpt lat="45.42589640824665" lon="11.571427311632341"><ele>96.0</ele><time>2026-04-12T12:29:59Z</time></trkpt><trkpt lat="45.42584838997034" lon="11.571529571025158"><ele>93.0</ele><time>2026-04-12T12:30:01Z</time></trkpt><trkpt lat="45.4257874503675" lon="11.571666439371405"><ele>90.0</ele><time>2026-04-12T12:30:03Z</time></trkpt><trkpt lat="45.42578944499965" lon="11.571793185713169"><ele>87.0</ele><time>2026-04-12T12:30:17Z</time></trkpt><trkpt lat="45.425743480427236" lon="11.571866347052413"><ele>87.0</ele><time>2026-04-12T12:30:19Z</time></trkpt><trkpt lat="45.42572320661645" lon="11.571977836327575"><ele>87.0</ele><time>2026-04-12T12:30:27Z</time></trkpt><trkpt lat="45.42569276238341" lon="11.572116889799585"><ele>87.0</ele><time>2026-04-12T12:30:30Z</time></trkpt><trkpt lat="45.42563025351615" lon="11.572239152329786"><ele>87.0</ele><time>2026-04-12T12:30:32Z</time></trkpt><trkpt lat="45.42563597712325" lon="11.57234818342864"><ele>87.0</ele><time>2026-04-12T12:30:35Z</time></trkpt><trkpt lat="45.425605130489906" lon="11.572444535947412"><ele>87.0</ele><time>2026-04-12T12:30:37Z</time></trkpt><trkpt lat="45.42559532749742" lon="11.572537601071069"><ele>83.39999999999999</ele><time>2026-04-12T12:30:40Z</time></trkpt><trkpt lat="45.42566141781959" lon="11.572621248553245"><ele>79.8</ele><time>2026-04-12T12:30:43Z</time></trkpt><trkpt lat="45.42566257825388" lon="11.572811482077483"><ele>76.2</ele><time>2026-04-12T12:30:45Z</time></trkpt><trkpt lat="45.42565288524891" lon="11.57293997550732"><ele>72.6</ele><time>2026-04-12T12:30:47Z</time></trkpt><trkpt lat="45.42572117021482" lon="11.57298971929148"><ele>69.0</ele><time>2026-04-12T12:30:50Z</time></trkpt><trkpt lat="45.42578175488058" lon="11.573034933016455"><ele>69.0</ele><time>2026-04-12T12:30:52Z</time></trkpt><trkpt lat="45.425842640488106" lon="11.573006428985705"><ele>69.0</ele><time>2026-04-12T12:30:55Z</time></trkpt><trkpt lat="45.42590190708234" lon="11.572938359431404"><ele>69.0</ele><time>2026-04-12T12:30:57Z</time></trkpt><trkpt lat="45.4259193568229" lon="11.572828993723297"><ele>69.0</ele><time>2026-04-12T12:31:01Z</time></trkpt><trkpt lat="45.42595023884438" lon="11.572946359850697"><ele>69.0</ele><time>2026-04-12T12:31:08Z</time></trkpt><trkpt lat="45.4259211828548" lon="11.573049026883934"><ele>69.0</ele><time>2026-04-12T12:31:09Z</time></trkpt><trkpt lat="45.42593687013277" lon="11.57314294082847"><ele>66.0</ele><time>2026-04-12T12:31:12Z</time></trkpt><trkpt lat="45.42592049860411" lon="11.573288741060171"><ele>63.00000000000001</ele><time>2026-04-12T12:31:14Z</time></trkpt><trkpt lat="45.425919535566685" lon="11.573456130563974"><ele>60.00000000000001</ele><time>2026-04-12T12:31:16Z</time></trkpt><trkpt lat="45.42590394486101" lon="11.573568020418811"><ele>57.0</ele><time>2026-04-12T12:31:18Z</time></trkpt><trkpt lat="45.42599302122201" lon="11.573592925331408"><ele>54.0</ele><time>2026-04-12T12:31:20Z</time></trkpt><trkpt lat="45.42600602703898" lon="11.573686259175311"><ele>51.800000000000004</ele><time>2026-04-12T12:31:23Z</time></trkpt><trkpt lat="45.42599397076061" lon="11.573827456864473"><ele>49.60000000000001</ele><time>2026-04-12T12:31:25Z</time></trkpt><trkpt lat="45.425960515860716" lon="11.57390457853821"><ele>47.4</ele><time>2026-04-12T12:31:27Z</time></trkpt><trkpt lat="45.425875891410975" lon="11.574035373194073"><ele>45.2</ele><time>2026-04-12T12:31:29Z</time></trkpt><trkpt lat="45.42583509650184" lon="11.574109634395974"><ele>43.0</ele><time>2026-04-12T12:31:30Z</time></trkpt><trkpt lat="45.425934544755336" lon="11.574205421366182"><ele>43.0</ele><time>2026-04-12T12:31:33Z</time></trkpt><trkpt lat="45.425994528906415" lon="11.574243281472395"><ele>43.0</ele><time>2026-04-12T12:31:55Z</time></trkpt><trkpt lat="45.426067121985454" lon="11.57428728672551"><ele>43.0</ele><time>2026-04-12T12:32:02Z</time></trkpt><trkpt lat="45.42613028985305" lon="11.574305110387172"><ele>43.0</ele><time>2026-04-12T12:32:04Z</time></trkpt><trkpt lat="45.426247907923496" lon="11.574283999101088"><ele>43.0</ele><time>2026-04-12T12:32:08Z</time></trkpt><trkpt lat="45.42630513720835" lon="11.574331265826848"><ele>43.0</ele><time>2026-04-12T12:32:15Z</time></trkpt><trkpt lat="45.42625730496028" lon="11.574487012427866"><ele>40.4</ele><time>2026-04-12T12:32:17Z</time></trkpt><trkpt lat="45.42622637575056" lon="11.574602893679698"><ele>37.8</ele><time>2026-04-12T12:32:18Z</time></trkpt><trkpt lat="45.42618828394399" lon="11.574746899245861"><ele>35.2</ele><time>2026-04-12T12:32:19Z</time></trkpt><trkpt lat="45.42613915244645" lon="11.574905411937225"><ele>32.6</ele><time>2026-04-12T12:32:20Z</time></trkpt><trkpt lat="45.42608140525418" lon="11.57504328084235"><ele>30.0</ele><time>2026-04-12T12:32:21Z</time></trkpt><trkpt lat="45.426025609804036" lon="11.575167656684977"><ele>30.0</ele><time>2026-04-12T12:32:22Z</time></trkpt><trkpt lat="45.42596565259459" lon="11.575295536799386"><ele>30.0</ele><time>2026-04-12T12:32:23Z</time></trkpt><trkpt lat="45.42591425730473" lon="11.575418842904174"><ele>30.0</ele><time>2026-04-12T12:32:24Z</time></trkpt><trkpt lat="45.42586629024816" lon="11.575537126118325"><ele>30.0</ele><time>2026-04-12T12:32:25Z</time></trkpt><trkpt lat="45.42582899106428" lon="11.575657785760049"><ele>30.0</ele><time>2026-04-12T12:32:26Z</time></trkpt><trkpt lat="45.42578867760075" lon="11.575770134619049"><ele>28.8</ele><time>2026-04-12T12:32:27Z</time></trkpt><trkpt lat="45.42573849067218" lon="11.575862598977604"><ele>27.6</ele><time>2026-04-12T12:32:28Z</time></trkpt><trkpt lat="45.42568924816484" lon="11.575934103571468"><ele>26.4</ele><time>2026-04-12T12:32:29Z</time></trkpt><trkpt lat="45.425586040003" lon="11.575897833746586"><ele>25.2</ele><time>2026-04-12T12:32:31Z</time></trkpt><trkpt lat="45.4255143785034" lon="11.575821975302567"><ele>24.0</ele><time>2026-04-12T12:32:32Z</time></trkpt><trkpt lat="45.42542862578293" lon="11.575722995478955"><ele>23.25</ele><time>2026-04-12T12:32:33Z</time></trkpt><trkpt lat="45.42533481595395" lon="11.575602032299637"><ele>22.5</ele><time>2026-04-12T12:32:34Z</time></trkpt><trkpt lat="45.42523550132665" lon="11.575470127451272"><ele>21.75</ele><time>2026-04-12T12:32:35Z</time></trkpt><trkpt lat="45.42514346584022" lon="11.575386890318997"><ele>21.0</ele><time>2026-04-12T12:32:36Z</time></trkpt><trkpt lat="45.4250466810036" lon="11.575352055405343"><ele>21.0</ele><time>2026-04-12T12:32:37Z</time></trkpt><trkpt lat="45.42493840869302" lon="11.575382148348096"><ele>21.0</ele><time>2026-04-12T12:32:38Z</time></trkpt><trkpt lat="45.4248159077229" lon="11.575418231556565"><ele>21.0</ele><time>2026-04-12T12:32:39Z</time></trkpt><trkpt lat="45.42469158242116" lon="11.575450350904617"><ele>21.0</ele><time>2026-04-12T12:32:40Z</time></trkpt><trkpt lat="45.42455570489241" lon="11.575488364399549"><ele>21.5</ele><time>2026-04-12T12:32:41Z</time></trkpt><trkpt lat="45.42443543610624" lon="11.575536768942143"><ele>22.0</ele><time>2026-04-12T12:32:42Z</time></trkpt><trkpt lat="45.424323519411146" lon="11.575608035098568"><ele>22.5</ele><time>2026-04-12T12:32:43Z</time></trkpt><trkpt lat="45.42422535241132" lon="11.57569387883548"><ele>23.0</ele><time>2026-04-12T12:32:44Z</time></trkpt><trkpt lat="45.424128055461296" lon="11.575751897416325"><ele>23.0</ele><time>2026-04-12T12:32:45Z</time></trkpt><trkpt lat="45.4240256676826" lon="11.575746800751514"><ele>23.0</ele><time>2026-04-12T12:32:46Z</time></trkpt><trkpt lat="45.423916102821764" lon="11.575755345079932"><ele>23.0</ele><time>2026-04-12T12:32:47Z</time></trkpt><trkpt lat="45.42381152818823" lon="11.575759754038533"><ele>23.0</ele><time>2026-04-12T12:32:48Z</time></trkpt><trkpt lat="45.423706170839786" lon="11.575780442979086"><ele>23.0</ele><time>2026-04-12T12:32:49Z</time></trkpt><trkpt lat="45.42357950920238" lon="11.575781530549092"><ele>22.75</ele><time>2026-04-12T12:32:50Z</time></trkpt><trkpt lat="45.42344018573965" lon="11.575762361391448"><ele>22.5</ele><time>2026-04-12T12:32:51Z</time></trkpt><trkpt lat="45.423314800059416" lon="11.57575532045413"><ele>22.25</ele><time>2026-04-12T12:32:52Z</time></trkpt><trkpt lat="45.42319363913379" lon="11.575736984586815"><ele>22.0</ele><time>2026-04-12T12:32:53Z</time></trkpt><trkpt lat="45.42306160021146" lon="11.575706840374602"><ele>22.5</ele><time>2026-04-12T12:32:54Z</time></trkpt><trkpt lat="45.42292616287672" lon="11.575656863520347"><ele>23.0</ele><time>2026-04-12T12:32:55Z</time></trkpt><trkpt lat="45.42278234585877" lon="11.575588501060915"><ele>23.5</ele><time>2026-04-12T12:32:56Z</time></trkpt><trkpt lat="45.42265132904994" lon="11.575530657841915"><ele>24.0</ele><time>2026-04-12T12:32:57Z</time></trkpt><trkpt lat="45.422523803793425" lon="11.575485029650203"><ele>24.0</ele><time>2026-04-12T12:32:58Z</time></trkpt><trkpt lat="45.422384103900555" lon="11.575456091254505"><ele>24.0</ele><time>2026-04-12T12:32:59Z</time></trkpt><trkpt lat="45.42224355026289" lon="11.575405746241259"><ele>24.0</ele><time>2026-04-12T12:33:00Z</time></trkpt><trkpt lat="45.42211037905739" lon="11.575392577659201"><ele>24.0</ele><time>2026-04-12T12:33:01Z</time></trkpt><trkpt lat="45.42198863549062" lon="11.575353065172425"><ele>27.25</ele><time>2026-04-12T12:33:02Z</time></trkpt><trkpt lat="45.42186662375538" lon="11.575309320300319"><ele>30.5</ele><time>2026-04-12T12:33:03Z</time></trkpt><trkpt lat="45.42174480863891" lon="11.575264890257687"><ele>33.75</ele><time>2026-04-12T12:33:04Z</time></trkpt><trkpt lat="45.421616853894506" lon="11.575250560815945"><ele>37.0</ele><time>2026-04-12T12:33:05Z</time></trkpt><trkpt lat="45.4214872175455" lon="11.575275153667318"><ele>37.0</ele><time>2026-04-12T12:33:06Z</time></trkpt><trkpt lat="45.42136517291007" lon="11.575348584948863"><ele>37.0</ele><time>2026-04-12T12:33:07Z</time></trkpt><trkpt lat="45.42125032657952" lon="11.575475437813889"><ele>37.0</ele><time>2026-04-12T12:33:08Z</time></trkpt><trkpt lat="45.421134143150034" lon="11.575621525719269"><ele>37.0</ele><time>2026-04-12T12:33:09Z</time></trkpt><trkpt lat="45.42103054042262" lon="11.575776451035232"><ele>35.5</ele><time>2026-04-12T12:33:10Z</time></trkpt><trkpt lat="45.420931471446586" lon="11.575921244327274"><ele>34.0</ele><time>2026-04-12T12:33:11Z</time></trkpt><trkpt lat="45.42082772603129" lon="11.576048253992349"><ele>32.5</ele><time>2026-04-12T12:33:12Z</time></trkpt><trkpt lat="45.42072779746165" lon="11.576183641739755"><ele>31.0</ele><time>2026-04-12T12:33:13Z</time></trkpt><trkpt lat="45.42061024699518" lon="11.576302360832713"><ele>30.25</ele><time>2026-04-12T12:33:14Z</time></trkpt><trkpt lat="45.42047987878372" lon="11.576399040144176"><ele>29.5</ele><time>2026-04-12T12:33:15Z</time></trkpt><trkpt lat="45.42034838957343" lon="11.576478312861722"><ele>28.75</ele><time>2026-04-12T12:33:16Z</time></trkpt><trkpt lat="45.42023079211493" lon="11.576540407664199"><ele>28.0</ele><time>2026-04-12T12:33:17Z</time></trkpt><trkpt lat="45.42010509676863" lon="11.576598882650318"><ele>28.0</ele><time>2026-04-12T12:33:18Z</time></trkpt><trkpt lat="45.41997433828651" lon="11.57664530660644"><ele>28.0</ele><time>2026-04-12T12:33:19Z</time></trkpt><trkpt lat="45.41983626891219" lon="11.57667634942148"><ele>28.0</ele><time>2026-04-12T12:33:20Z</time></trkpt><trkpt lat="45.419698498073714" lon="11.576717728404574"><ele>28.0</ele><time>2026-04-12T12:33:21Z</time></trkpt><trkpt lat="45.419581771555514" lon="11.576772372096626"><ele>27.25</ele><time>2026-04-12T12:33:22Z</time></trkpt><trkpt lat="45.419462628346494" lon="11.576830316485259"><ele>26.5</ele><time>2026-04-12T12:33:23Z</time></trkpt><trkpt lat="45.419352141522424" lon="11.576895354371414"><ele>25.75</ele><time>2026-04-12T12:33:24Z</time></trkpt><trkpt lat="45.4192402094919" lon="11.576969119587826"><ele>25.0</ele><time>2026-04-12T12:33:25Z</time></trkpt><trkpt lat="45.41913017638175" lon="11.577059715628474"><ele>25.0</ele><time>2026-04-12T12:33:26Z</time></trkpt><trkpt lat="45.41901830776927" lon="11.577161350565259"><ele>25.0</ele><time>2026-04-12T12:33:27Z</time></trkpt><trkpt lat="45.4189081285581" lon="11.57727278331555"><ele>25.0</ele><time>2026-04-12T12:33:28Z</time></trkpt><trkpt lat="45.41880006026621" lon="11.577372919178812"><ele>25.0</ele><time>2026-04-12T12:33:29Z</time></trkpt><trkpt lat="45.41869467824595" lon="11.577453211801696"><ele>24.5</ele><time>2026-04-12T12:33:30Z</time></trkpt><trkpt lat="45.418590145650626" lon="11.577520323380744"><ele>24.0</ele><time>2026-04-12T12:33:31Z</time></trkpt><trkpt lat="45.41848293145273" lon="11.57756969849887"><ele>23.5</ele><time>2026-04-12T12:33:32Z</time></trkpt><trkpt lat="45.418372725289665" lon="11.577608730829754"><ele>23.0</ele><time>2026-04-12T12:33:33Z</time></trkpt><trkpt lat="45.41825715646432" lon="11.577630727356732"><ele>23.0</ele><time>2026-04-12T12:33:34Z</time></trkpt><trkpt lat="45.41813702673102" lon="11.577632706499639"><ele>23.0</ele><time>2026-04-12T12:33:35Z</time></trkpt><trkpt lat="45.41802943795012" lon="11.577606787059239"><ele>23.0</ele><time>2026-04-12T12:33:36Z</time></trkpt><trkpt lat="45.417938019658045" lon="11.57756537532539"><ele>23.0</ele><time>2026-04-12T12:33:37Z</time></trkpt><trkpt lat="45.417868529051255" lon="11.577529639698398"><ele>23.0</ele><time>2026-04-12T12:33:38Z</time></trkpt><trkpt lat="45.417808445542725" lon="11.577473069402885"><ele>22.4</ele><time>2026-04-12T12:33:41Z</time></trkpt><trkpt lat="45.4177456802573" lon="11.577421988222603"><ele>21.799999999999997</ele><time>2026-04-12T12:33:45Z</time></trkpt><trkpt lat="45.41770181054577" lon="11.57734283680423"><ele>21.2</ele><time>2026-04-12T12:33:48Z</time></trkpt><trkpt lat="45.41759618028766" lon="11.577249348440851"><ele>20.6</ele><time>2026-04-12T12:34:08Z</time></trkpt><trkpt lat="45.41751437780932" lon="11.577176948913902"><ele>20.0</ele><time>2026-04-12T12:34:09Z</time></trkpt><trkpt lat="45.41739760207203" lon="11.57707359619874"><ele>19.666666666666668</ele><time>2026-04-12T12:34:10Z</time></trkpt><trkpt lat="45.41726548254271" lon="11.576948268201148"><ele>19.333333333333332</ele><time>2026-04-12T12:34:11Z</time></trkpt><trkpt lat="45.41716199003554" lon="11.576652523316897"><ele>19.0</ele><time>2026-04-12T12:34:12Z</time></trkpt><trkpt lat="45.416993742826214" lon="11.576447515441018"><ele>18.666666666666664</ele><time>2026-04-12T12:34:13Z</time></trkpt><trkpt lat="45.41681706247197" lon="11.576219698631975"><ele>18.333333333333332</ele><time>2026-04-12T12:34:14Z</time></trkpt><trkpt lat="45.416662262619525" lon="11.576033375716333"><ele>18.0</ele><time>2026-04-12T12:34:15Z</time></trkpt><trkpt lat="45.41651969637192" lon="11.57585695734165"><ele>17.8</ele><time>2026-04-12T12:34:16Z</time></trkpt><trkpt lat="45.41641170950021" lon="11.575714361583007"><ele>17.6</ele><time>2026-04-12T12:34:17Z</time></trkpt><trkpt lat="45.41632378396249" lon="11.57561135930694"><ele>17.4</ele><time>2026-04-12T12:34:18Z</time></trkpt><trkpt lat="45.416237845144835" lon="11.575572022775924"><ele>17.2</ele><time>2026-04-12T12:34:19Z</time></trkpt><trkpt lat="45.416142671063604" lon="11.575582936635847"><ele>17.0</ele><time>2026-04-12T12:34:20Z</time></trkpt><trkpt lat="45.416010562088836" lon="11.575655781200302"><ele>17.75</ele><time>2026-04-12T12:34:21Z</time></trkpt><trkpt lat="45.41586389734574" lon="11.575754909946104"><ele>18.5</ele><time>2026-04-12T12:34:22Z</time></trkpt><trkpt lat="45.415760906951974" lon="11.575869425293742"><ele>19.25</ele><time>2026-04-12T12:34:23Z</time></trkpt><trkpt lat="45.415689265769224" lon="11.575998776353057"><ele>20.0</ele><time>2026-04-12T12:34:24Z</time></trkpt><trkpt lat="45.41562378422133" lon="11.576184329620613"><ele>19.666666666666668</ele><time>2026-04-12T12:34:25Z</time></trkpt><trkpt lat="45.41556283012934" lon="11.5764422693144"><ele>19.333333333333332</ele><time>2026-04-12T12:34:26Z</time></trkpt><trkpt lat="45.41548845673975" lon="11.576745446809545"><ele>19.0</ele><time>2026-04-12T12:34:27Z</time></trkpt><trkpt lat="45.415406895259814" lon="11.57706224985756"><ele>17.5</ele><time>2026-04-12T12:34:28Z</time></trkpt><trkpt lat="45.415314221335144" lon="11.577389644542594"><ele>16.0</ele><time>2026-04-12T12:34:29Z</time></trkpt><trkpt lat="45.41521152750332" lon="11.577725055818567"><ele>16.0</ele><time>2026-04-12T12:34:30Z</time></trkpt><trkpt lat="45.41510082377083" lon="11.578084214279206"><ele>16.0</ele><time>2026-04-12T12:34:31Z</time></trkpt><trkpt lat="45.414989051135" lon="11.578442604921673"><ele>16.5</ele><time>2026-04-12T12:34:32Z</time></trkpt><trkpt lat="45.414881721918285" lon="11.578785833222147"><ele>17.0</ele><time>2026-04-12T12:34:33Z</time></trkpt><trkpt lat="45.414791379010204" lon="11.579095058128246"><ele>17.0</ele><time>2026-04-12T12:34:34Z</time></trkpt><trkpt lat="45.41468919816155" lon="11.579429410555178"><ele>17.0</ele><time>2026-04-12T12:34:35Z</time></trkpt><trkpt lat="45.41457983001545" lon="11.579788263633658"><ele>17.0</ele><time>2026-04-12T12:34:36Z</time></trkpt><trkpt lat="45.41447896224399" lon="11.580110477358101"><ele>17.0</ele><time>2026-04-12T12:34:37Z</time></trkpt><trkpt lat="45.414397528808806" lon="11.580387673477476"><ele>16.666666666666668</ele><time>2026-04-12T12:34:38Z</time></trkpt><trkpt lat="45.41431689674528" lon="11.580642469669183"><ele>16.333333333333332</ele><time>2026-04-12T12:34:39Z</time></trkpt><trkpt lat="45.41424363140419" lon="11.580875589278614"><ele>16.0</ele><time>2026-04-12T12:34:40Z</time></trkpt><trkpt lat="45.41418055600054" lon="11.581096722617678"><ele>16.25</ele><time>2026-04-12T12:34:41Z</time></trkpt><trkpt lat="45.41412048288725" lon="11.58130072785036"><ele>16.5</ele><time>2026-04-12T12:34:42Z</time></trkpt><trkpt lat="45.414061990022496" lon="11.581498141299791"><ele>16.75</ele><time>2026-04-12T12:34:43Z</time></trkpt><trkpt lat="45.41400756894447" lon="11.581685714075398"><ele>17.0</ele><time>2026-04-12T12:34:44Z</time></trkpt><trkpt lat="45.413936305852424" lon="11.581921886325372"><ele>17.0</ele><time>2026-04-12T12:34:45Z</time></trkpt><trkpt lat="45.41385165865011" lon="11.582207054510818"><ele>17.0</ele><time>2026-04-12T12:34:46Z</time></trkpt><trkpt lat="45.41375708813583" lon="11.582521417429858"><ele>16.333333333333336</ele><time>2026-04-12T12:34:47Z</time></trkpt><trkpt lat="45.41368395942577" lon="11.58278294514328"><ele>15.666666666666668</ele><time>2026-04-12T12:34:48Z</time></trkpt><trkpt lat="45.413604112421446" lon="11.583069148583698"><ele>15.0</ele><time>2026-04-12T12:34:49Z</time></trkpt><trkpt lat="45.41352373061889" lon="11.583326051473804"><ele>14.6</ele><time>2026-04-12T12:34:50Z</time></trkpt><trkpt lat="45.41346339340845" lon="11.583521922876026"><ele>14.2</ele><time>2026-04-12T12:34:51Z</time></trkpt><trkpt lat="45.41341966795968" lon="11.583678540250325"><ele>13.8</ele><time>2026-04-12T12:34:52Z</time></trkpt><trkpt lat="45.413377392686456" lon="11.583813679075414"><ele>13.4</ele><time>2026-04-12T12:34:53Z</time></trkpt><trkpt lat="45.41334379451492" lon="11.583910357395684"><ele>13.0</ele><time>2026-04-12T12:34:54Z</time></trkpt><trkpt lat="45.41339521324723" lon="11.583979276447923"><ele>13.0</ele><time>2026-04-12T12:34:57Z</time></trkpt><trkpt lat="45.413479628508995" lon="11.583979786944095"><ele>13.0</ele><time>2026-04-12T12:34:58Z</time></trkpt><trkpt lat="45.41360183777132" lon="11.583981384241982"><ele>13.0</ele><time>2026-04-12T12:34:59Z</time></trkpt><trkpt lat="45.413764314112605" lon="11.583996180915129"><ele>13.0</ele><time>2026-04-12T12:35:00Z</time></trkpt><trkpt lat="45.41395507041864" lon="11.584027828878327"><ele>15.0</ele><time>2026-04-12T12:35:01Z</time></trkpt><trkpt lat="45.41416983877258" lon="11.58406346386523"><ele>17.0</ele><time>2026-04-12T12:35:02Z</time></trkpt><trkpt lat="45.4144026341746" lon="11.5841005566722"><ele>17.0</ele><time>2026-04-12T12:35:03Z</time></trkpt><trkpt lat="45.414646906079355" lon="11.584126940116276"><ele>17.0</ele><time>2026-04-12T12:35:04Z</time></trkpt><trkpt lat="45.41490837559455" lon="11.584153758538728"><ele>17.0</ele><time>2026-04-12T12:35:05Z</time></trkpt><trkpt lat="45.41517504746346" lon="11.584186051596442"><ele>17.0</ele><time>2026-04-12T12:35:06Z</time></trkpt><trkpt lat="45.415406851073136" lon="11.584217051232182"><ele>16.0</ele><time>2026-04-12T12:35:07Z</time></trkpt><trkpt lat="45.41560783383346" lon="11.58424564295739"><ele>15.0</ele><time>2026-04-12T12:35:08Z</time></trkpt><trkpt lat="45.41576846721731" lon="11.584499763166166"><ele>14.0</ele><time>2026-04-12T12:35:09Z</time></trkpt><trkpt lat="45.41593885322449" lon="11.584529301617984"><ele>14.0</ele><time>2026-04-12T12:35:10Z</time></trkpt><trkpt lat="45.41609450998503" lon="11.584556013628262"><ele>14.0</ele><time>2026-04-12T12:35:11Z</time></trkpt><trkpt lat="45.41623691838887" lon="11.584580452100292"><ele>14.0</ele><time>2026-04-12T12:35:12Z</time></trkpt><trkpt lat="45.41636613307488" lon="11.584602626286763"><ele>14.0</ele><time>2026-04-12T12:35:13Z</time></trkpt><trkpt lat="45.41648702553068" lon="11.584622139087902"><ele>14.0</ele><time>2026-04-12T12:35:14Z</time></trkpt><trkpt lat="45.41659994987081" lon="11.584641451081247"><ele>13.999999999999998</ele><time>2026-04-12T12:35:15Z</time></trkpt><trkpt lat="45.41670800991345" lon="11.58465993120115"><ele>13.999999999999998</ele><time>2026-04-12T12:35:16Z</time></trkpt><trkpt lat="45.41680758902178" lon="11.584676960929277"><ele>14.0</ele><time>2026-04-12T12:35:17Z</time></trkpt><trkpt lat="45.41690369271722" lon="11.58469339631513"><ele>14.0</ele><time>2026-04-12T12:35:18Z</time></trkpt><trkpt lat="45.41697828135154" lon="11.584706152234345"><ele>14.0</ele><time>2026-04-12T12:35:19Z</time></trkpt><trkpt lat="45.41708595466425" lon="11.584724566183445"><ele>14.0</ele><time>2026-04-12T12:35:21Z</time></trkpt><trkpt lat="45.41717080895181" lon="11.584729992048208"><ele>15.0</ele><time>2026-04-12T12:35:23Z</time></trkpt><trkpt lat="45.41727681416333" lon="11.584723733835672"><ele>15.0</ele><time>2026-04-12T12:35:25Z</time></trkpt><trkpt lat="45.41732351673411" lon="11.584640244141315"><ele>15.0</ele><time>2026-04-12T12:35:26Z</time></trkpt><trkpt lat="45.41736442759574" lon="11.584712432609344"><ele>15.0</ele><time>2026-04-12T12:35:28Z</time></trkpt></trkseg></trk></gpx>